<?xml version='1.0' encoding='UTF-8'?><gpx version="1.1" creator="JPX - https://github.com/jenetics/jpx" xmlns="http://www.topografix.com/GPX/1/1"><trk><trkseg><trkpt lat="39.43642259688596" lon="9.543863314119369"><ele>13.0</ele><time>2026-04-25T06:21:21Z</time></trkpt><trkpt lat="39.43648713759433" lon="9.543869011744391"><ele>13.0</ele><time>2026-04-25T06:21:22Z</time></trkpt><trkpt lat="39.43658610404177" lon="9.543857991026643"><ele>13.0</ele><time>2026-04-25T06:21:24Z</time></trkpt><trkpt lat="39.43666922726415" lon="9.54375113867525"><ele>13.0</ele><time>2026-04-25T06:21:26Z</time></trkpt><trkpt lat="39.436723149823656" lon="9.54364922396601"><ele>13.0</ele><time>2026-04-25T06:21:27Z</time></trkpt><trkpt lat="39.43678926489423" lon="9.54354257707141"><ele>13.0</ele><time>2026-04-25T06:21:28Z</time></trkpt><trkpt lat="39.43687462404271" lon="9.543439945702108"><ele>13.0</ele><time>2026-04-25T06:21:29Z</time></trkpt><trkpt lat="39.43697174453062" lon="9.543345035503767"><ele>13.0</ele><time>2026-04-25T06:21:30Z</time></trkpt><trkpt lat="39.43706565149189" lon="9.543257292189079"><ele>13.0</ele><time>2026-04-25T06:21:31Z</time></trkpt><trkpt lat="39.437162551460794" lon="9.543160869404009"><ele>13.0</ele><time>2026-04-25T06:21:32Z</time></trkpt><trkpt lat="39.437264604989366" lon="9.543060813218577"><ele>13.0</ele><time>2026-04-25T06:21:33Z</time></trkpt><trkpt lat="39.43736182132852" lon="9.542962409386543"><ele>13.0</ele><time>2026-04-25T06:21:34Z</time></trkpt><trkpt lat="39.437457862851744" lon="9.54287410526568"><ele>13.0</ele><time>2026-04-25T06:21:35Z</time></trkpt><trkpt lat="39.43754963144405" lon="9.54279182099404"><ele>13.4</ele><time>2026-04-25T06:21:36Z</time></trkpt><trkpt lat="39.437633412240416" lon="9.542714656887142"><ele>13.8</ele><time>2026-04-25T06:21:37Z</time></trkpt><trkpt lat="39.43771967654108" lon="9.542643649172476"><ele>14.2</ele><time>2026-04-25T06:21:38Z</time></trkpt><trkpt lat="39.4378251247841" lon="9.542610736419165"><ele>14.6</ele><time>2026-04-25T06:21:39Z</time></trkpt><trkpt lat="39.437951667404946" lon="9.542582533370709"><ele>15.0</ele><time>2026-04-25T06:21:40Z</time></trkpt><trkpt lat="39.43808698104665" lon="9.542568064111135"><ele>15.25</ele><time>2026-04-25T06:21:41Z</time></trkpt><trkpt lat="39.438219049258166" lon="9.542554568622853"><ele>15.5</ele><time>2026-04-25T06:21:42Z</time></trkpt><trkpt lat="39.4383423799376" lon="9.542541075419324"><ele>15.75</ele><time>2026-04-25T06:21:43Z</time></trkpt><trkpt lat="39.438460355809916" lon="9.542522397142175"><ele>16.0</ele><time>2026-04-25T06:21:44Z</time></trkpt><trkpt lat="39.4385764891191" lon="9.542494698301438"><ele>16.0</ele><time>2026-04-25T06:21:45Z</time></trkpt><trkpt lat="39.43868734533961" lon="9.542477446437715"><ele>16.0</ele><time>2026-04-25T06:21:46Z</time></trkpt><trkpt lat="39.438791789799076" lon="9.542466791008442"><ele>16.0</ele><time>2026-04-25T06:21:47Z</time></trkpt><trkpt lat="39.438884175070235" lon="9.542455363516751"><ele>16.0</ele><time>2026-04-25T06:21:48Z</time></trkpt><trkpt lat="39.438961898318055" lon="9.542439180198643"><ele>16.0</ele><time>2026-04-25T06:21:49Z</time></trkpt><trkpt lat="39.43903495794315" lon="9.542427656104657"><ele>15.8</ele><time>2026-04-25T06:21:50Z</time></trkpt><trkpt lat="39.43913986543045" lon="9.542418602532067"><ele>15.600000000000001</ele><time>2026-04-25T06:21:52Z</time></trkpt><trkpt lat="39.43921400144645" lon="9.54239699065453"><ele>15.4</ele><time>2026-04-25T06:21:55Z</time></trkpt><trkpt lat="39.43922381755651" lon="9.542226913632286"><ele>15.2</ele><time>2026-04-25T06:22:00Z</time></trkpt><trkpt lat="39.43922447537549" lon="9.542134662934574"><ele>15.0</ele><time>2026-04-25T06:22:02Z</time></trkpt><trkpt lat="39.43925063472444" lon="9.54198343362253"><ele>15.0</ele><time>2026-04-25T06:27:24Z</time></trkpt><trkpt lat="39.439244265012526" lon="9.541846762384985"><ele>15.0</ele><time>2026-04-25T06:27:26Z</time></trkpt><trkpt lat="39.439246775148" lon="9.541764326391263"><ele>15.0</ele><time>2026-04-25T06:27:27Z</time></trkpt><trkpt lat="39.43924901450045" lon="9.541670940100675"><ele>15.0</ele><time>2026-04-25T06:27:28Z</time></trkpt><trkpt lat="39.439257223819254" lon="9.541589032247826"><ele>15.0</ele><time>2026-04-25T06:27:29Z</time></trkpt><trkpt lat="39.43925273207524" lon="9.54143630211286"><ele>15.0</ele><time>2026-04-25T06:27:31Z</time></trkpt><trkpt lat="39.439246988127444" lon="9.541355103119338"><ele>15.0</ele><time>2026-04-25T06:27:32Z</time></trkpt><trkpt lat="39.43924386697393" lon="9.541271474940975"><ele>15.0</ele><time>2026-04-25T06:27:33Z</time></trkpt><trkpt lat="39.43924376271575" lon="9.541125617373607"><ele>15.0</ele><time>2026-04-25T06:27:35Z</time></trkpt><trkpt lat="39.43925551326354" lon="9.541043963448509"><ele>15.0</ele><time>2026-04-25T06:27:38Z</time></trkpt><trkpt lat="39.43938475683961" lon="9.541030440709436"><ele>15.0</ele><time>2026-04-25T06:27:42Z</time></trkpt><trkpt lat="39.43949929420749" lon="9.541033961079764"><ele>15.0</ele><time>2026-04-25T06:27:44Z</time></trkpt><trkpt lat="39.43962684064615" lon="9.54103881327255"><ele>15.0</ele><time>2026-04-25T06:27:46Z</time></trkpt><trkpt lat="39.43969785743406" lon="9.541041879376"><ele>15.0</ele><time>2026-04-25T06:27:47Z</time></trkpt><trkpt lat="39.43982331343583" lon="9.541038680714435"><ele>15.0</ele><time>2026-04-25T06:27:49Z</time></trkpt><trkpt lat="39.43990852450122" lon="9.54104169367826"><ele>15.0</ele><time>2026-04-25T06:27:51Z</time></trkpt><trkpt lat="39.439975289952486" lon="9.541085633458245"><ele>15.0</ele><time>2026-04-25T06:27:53Z</time></trkpt><trkpt lat="39.4400898772912" lon="9.541142724269768"><ele>15.0</ele><time>2026-04-25T06:27:55Z</time></trkpt><trkpt lat="39.440162605091594" lon="9.541155991541464"><ele>15.0</ele><time>2026-04-25T06:27:56Z</time></trkpt><trkpt lat="39.440228763216496" lon="9.54120911613909"><ele>15.0</ele><time>2026-04-25T06:27:57Z</time></trkpt><trkpt lat="39.440308627529234" lon="9.541232729726243"><ele>15.0</ele><time>2026-04-25T06:27:58Z</time></trkpt><trkpt lat="39.440382321914164" lon="9.541269906949356"><ele>15.0</ele><time>2026-04-25T06:27:59Z</time></trkpt><trkpt lat="39.44045407628748" lon="9.541303300584534"><ele>15.2</ele><time>2026-04-25T06:28:00Z</time></trkpt><trkpt lat="39.44051481385809" lon="9.54133749400366"><ele>15.4</ele><time>2026-04-25T06:28:01Z</time></trkpt><trkpt lat="39.44061022501553" lon="9.541402470366041"><ele>15.600000000000001</ele><time>2026-04-25T06:28:03Z</time></trkpt><trkpt lat="39.44067511579695" lon="9.541462346326336"><ele>15.8</ele><time>2026-04-25T06:28:08Z</time></trkpt><trkpt lat="39.44067291069212" lon="9.541591309478337"><ele>16.0</ele><time>2026-04-25T06:28:10Z</time></trkpt><trkpt lat="39.44055318158663" lon="9.541625412947397"><ele>15.999999999999998</ele><time>2026-04-25T06:28:11Z</time></trkpt><trkpt lat="39.4404962844755" lon="9.541678065527844"><ele>16.0</ele><time>2026-04-25T06:28:12Z</time></trkpt><trkpt lat="39.44043534054059" lon="9.541743531295817"><ele>16.0</ele><time>2026-04-25T06:28:13Z</time></trkpt><trkpt lat="39.44036390706737" lon="9.541806543041952"><ele>16.0</ele><time>2026-04-25T06:28:14Z</time></trkpt><trkpt lat="39.440310927259056" lon="9.54187628119966"><ele>15.999999999999998</ele><time>2026-04-25T06:28:15Z</time></trkpt><trkpt lat="39.44030084173535" lon="9.541960640755729"><ele>16.0</ele><time>2026-04-25T06:28:16Z</time></trkpt><trkpt lat="39.44027679062011" lon="9.542106850984888"><ele>15.833333333333332</ele><time>2026-04-25T06:28:18Z</time></trkpt><trkpt lat="39.44026116736005" lon="9.542198245467787"><ele>15.666666666666666</ele><time>2026-04-25T06:28:20Z</time></trkpt><trkpt lat="39.440265321375165" lon="9.542307706250272"><ele>15.5</ele><time>2026-04-25T06:28:24Z</time></trkpt><trkpt lat="39.440383208791545" lon="9.542357426300118"><ele>15.333333333333332</ele><time>2026-04-25T06:28:25Z</time></trkpt><trkpt lat="39.44044991864905" lon="9.54239167181778"><ele>15.166666666666666</ele><time>2026-04-25T06:28:26Z</time></trkpt><trkpt lat="39.44051815932946" lon="9.542429505548675"><ele>15.0</ele><time>2026-04-25T06:28:27Z</time></trkpt><trkpt lat="39.44059139701198" lon="9.54247025651688"><ele>15.0</ele><time>2026-04-25T06:28:28Z</time></trkpt><trkpt lat="39.4406710887347" lon="9.542507584384424"><ele>15.0</ele><time>2026-04-25T06:28:29Z</time></trkpt><trkpt lat="39.440752807295944" lon="9.542551520910335"><ele>15.0</ele><time>2026-04-25T06:28:30Z</time></trkpt><trkpt lat="39.44083686520945" lon="9.54260110839608"><ele>15.0</ele><time>2026-04-25T06:28:31Z</time></trkpt><trkpt lat="39.44092775038323" lon="9.542648620038799"><ele>15.0</ele><time>2026-04-25T06:28:32Z</time></trkpt><trkpt lat="39.441025203341596" lon="9.542700643245013"><ele>15.0</ele><time>2026-04-25T06:28:33Z</time></trkpt><trkpt lat="39.44112279284593" lon="9.542758108525565"><ele>15.0</ele><time>2026-04-25T06:28:34Z</time></trkpt><trkpt lat="39.4412169518142" lon="9.542810362590695"><ele>15.0</ele><time>2026-04-25T06:28:35Z</time></trkpt><trkpt lat="39.44131693002686" lon="9.542862835912668"><ele>15.0</ele><time>2026-04-25T06:28:36Z</time></trkpt><trkpt lat="39.441411758393244" lon="9.542910348034278"><ele>15.0</ele><time>2026-04-25T06:28:37Z</time></trkpt><trkpt lat="39.44149958755337" lon="9.54295035501228"><ele>14.833333333333334</ele><time>2026-04-25T06:28:38Z</time></trkpt><trkpt lat="39.44158395363317" lon="9.542974219887304"><ele>14.666666666666668</ele><time>2026-04-25T06:28:39Z</time></trkpt><trkpt lat="39.441665404904384" lon="9.542952775033827"><ele>14.5</ele><time>2026-04-25T06:28:40Z</time></trkpt><trkpt lat="39.44173561180357" lon="9.542900767915171"><ele>14.333333333333334</ele><time>2026-04-25T06:28:41Z</time></trkpt><trkpt lat="39.44180607803195" lon="9.542840184522937"><ele>14.166666666666668</ele><time>2026-04-25T06:28:42Z</time></trkpt><trkpt lat="39.441883525111926" lon="9.542811711713524"><ele>14.0</ele><time>2026-04-25T06:28:43Z</time></trkpt><trkpt lat="39.44195103109127" lon="9.542766663766747"><ele>14.333333333333334</ele><time>2026-04-25T06:28:44Z</time></trkpt><trkpt lat="39.44201905849422" lon="9.542723303519187"><ele>14.666666666666668</ele><time>2026-04-25T06:28:45Z</time></trkpt><trkpt lat="39.44208904725152" lon="9.542681258327908"><ele>15.0</ele><time>2026-04-25T06:28:46Z</time></trkpt><trkpt lat="39.44216195326892" lon="9.542627948487933"><ele>15.333333333333332</ele><time>2026-04-25T06:28:47Z</time></trkpt><trkpt lat="39.442218379262044" lon="9.54253969758789"><ele>15.666666666666666</ele><time>2026-04-25T06:28:48Z</time></trkpt><trkpt lat="39.442269701097295" lon="9.542464026709858"><ele>16.0</ele><time>2026-04-25T06:28:49Z</time></trkpt><trkpt lat="39.442319234034244" lon="9.542396035761294"><ele>16.166666666666664</ele><time>2026-04-25T06:28:50Z</time></trkpt><trkpt lat="39.44237392967025" lon="9.542346019706441"><ele>16.333333333333332</ele><time>2026-04-25T06:28:51Z</time></trkpt><trkpt lat="39.442447112294616" lon="9.542328140631737"><ele>16.5</ele><time>2026-04-25T06:28:52Z</time></trkpt><trkpt lat="39.44251485185744" lon="9.542291895382737"><ele>16.666666666666668</ele><time>2026-04-25T06:28:53Z</time></trkpt><trkpt lat="39.44258467119187" lon="9.54225175132667"><ele>16.833333333333336</ele><time>2026-04-25T06:28:54Z</time></trkpt><trkpt lat="39.442661808712835" lon="9.542199778160523"><ele>17.0</ele><time>2026-04-25T06:28:55Z</time></trkpt><trkpt lat="39.44273757582694" lon="9.542148296933467"><ele>17.0</ele><time>2026-04-25T06:28:56Z</time></trkpt><trkpt lat="39.44281251127749" lon="9.542095755242379"><ele>17.0</ele><time>2026-04-25T06:28:57Z</time></trkpt><trkpt lat="39.44288932872475" lon="9.542039869531306"><ele>17.0</ele><time>2026-04-25T06:28:58Z</time></trkpt><trkpt lat="39.44296133492484" lon="9.541987991693892"><ele>17.0</ele><time>2026-04-25T06:28:59Z</time></trkpt><trkpt lat="39.44303498699745" lon="9.541935602660132"><ele>17.0</ele><time>2026-04-25T06:29:00Z</time></trkpt><trkpt lat="39.443102521819455" lon="9.541885570597678"><ele>17.0</ele><time>2026-04-25T06:29:01Z</time></trkpt><trkpt lat="39.443176878936825" lon="9.541835661386635"><ele>17.166666666666668</ele><time>2026-04-25T06:29:02Z</time></trkpt><trkpt lat="39.44325636676532" lon="9.541796106598962"><ele>17.333333333333336</ele><time>2026-04-25T06:29:03Z</time></trkpt><trkpt lat="39.443336832092335" lon="9.541757458392132"><ele>17.5</ele><time>2026-04-25T06:29:04Z</time></trkpt><trkpt lat="39.44342130760249" lon="9.54171828340426"><ele>17.666666666666668</ele><time>2026-04-25T06:29:05Z</time></trkpt><trkpt lat="39.44350639571223" lon="9.541678824337277"><ele>17.833333333333332</ele><time>2026-04-25T06:29:06Z</time></trkpt><trkpt lat="39.44358779630388" lon="9.541639219671604"><ele>18.0</ele><time>2026-04-25T06:29:07Z</time></trkpt><trkpt lat="39.44366196589411" lon="9.541602582270993"><ele>18.0</ele><time>2026-04-25T06:29:08Z</time></trkpt><trkpt lat="39.44374543206131" lon="9.54155647413805"><ele>18.0</ele><time>2026-04-25T06:29:09Z</time></trkpt><trkpt lat="39.44382702549722" lon="9.541507461295536"><ele>18.0</ele><time>2026-04-25T06:29:10Z</time></trkpt><trkpt lat="39.44390797799263" lon="9.541453550821238"><ele>18.0</ele><time>2026-04-25T06:29:11Z</time></trkpt><trkpt lat="39.443993580334606" lon="9.541397563780901"><ele>18.0</ele><time>2026-04-25T06:29:12Z</time></trkpt><trkpt lat="39.44407997690477" lon="9.541341057293582"><ele>17.4</ele><time>2026-04-25T06:29:13Z</time></trkpt><trkpt lat="39.444164539813514" lon="9.541284740426034"><ele>16.8</ele><time>2026-04-25T06:29:14Z</time></trkpt><trkpt lat="39.444248744645364" lon="9.54122244479711"><ele>16.2</ele><time>2026-04-25T06:29:15Z</time></trkpt><trkpt lat="39.444325400343814" lon="9.541133644108212"><ele>15.6</ele><time>2026-04-25T06:29:16Z</time></trkpt><trkpt lat="39.44437610118986" lon="9.54102176937135"><ele>15.0</ele><time>2026-04-25T06:29:17Z</time></trkpt><trkpt lat="39.44441455227765" lon="9.54092746809796"><ele>15.0</ele><time>2026-04-25T06:29:18Z</time></trkpt><trkpt lat="39.444458987760086" lon="9.540817086343514"><ele>15.0</ele><time>2026-04-25T06:29:19Z</time></trkpt><trkpt lat="39.444502227801756" lon="9.540709673723482"><ele>15.0</ele><time>2026-04-25T06:29:20Z</time></trkpt><trkpt lat="39.44455078919898" lon="9.540641800653347"><ele>15.0</ele><time>2026-04-25T06:29:21Z</time></trkpt><trkpt lat="39.44461174822316" lon="9.54055273552351"><ele>15.0</ele><time>2026-04-25T06:29:22Z</time></trkpt><trkpt lat="39.44467886381241" lon="9.540474578179857"><ele>15.0</ele><time>2026-04-25T06:29:23Z</time></trkpt><trkpt lat="39.44474356057004" lon="9.540392407604525"><ele>15.6</ele><time>2026-04-25T06:29:24Z</time></trkpt><trkpt lat="39.44487367790906" lon="9.540247818656745"><ele>16.2</ele><time>2026-04-25T06:29:26Z</time></trkpt><trkpt lat="39.44494475490387" lon="9.54021496980389"><ele>16.8</ele><time>2026-04-25T06:29:27Z</time></trkpt><trkpt lat="39.44501919627599" lon="9.54023385023448"><ele>17.4</ele><time>2026-04-25T06:29:28Z</time></trkpt><trkpt lat="39.445101464276895" lon="9.54024514275423"><ele>18.0</ele><time>2026-04-25T06:29:29Z</time></trkpt><trkpt lat="39.445191778054685" lon="9.540255997542928"><ele>18.0</ele><time>2026-04-25T06:29:30Z</time></trkpt><trkpt lat="39.445279111212265" lon="9.540271892868915"><ele>18.0</ele><time>2026-04-25T06:29:31Z</time></trkpt><trkpt lat="39.445366702368425" lon="9.54028849721855"><ele>18.0</ele><time>2026-04-25T06:29:32Z</time></trkpt><trkpt lat="39.445462045791565" lon="9.540304507323583"><ele>18.0</ele><time>2026-04-25T06:29:33Z</time></trkpt><trkpt lat="39.44555459961579" lon="9.54031572850054"><ele>18.0</ele><time>2026-04-25T06:29:34Z</time></trkpt><trkpt lat="39.44564902798459" lon="9.540328588258816"><ele>18.0</ele><time>2026-04-25T06:29:35Z</time></trkpt><trkpt lat="39.44574136652645" lon="9.540344906989791"><ele>18.0</ele><time>2026-04-25T06:29:36Z</time></trkpt><trkpt lat="39.44583504878836" lon="9.540366100351012"><ele>18.0</ele><time>2026-04-25T06:29:37Z</time></trkpt><trkpt lat="39.44592678704752" lon="9.540392950459678"><ele>18.0</ele><time>2026-04-25T06:29:38Z</time></trkpt><trkpt lat="39.44602180504586" lon="9.540425429801143"><ele>18.0</ele><time>2026-04-25T06:29:39Z</time></trkpt><trkpt lat="39.44611304636463" lon="9.54046465800855"><ele>17.6</ele><time>2026-04-25T06:29:40Z</time></trkpt><trkpt lat="39.44620576514476" lon="9.540500569485344"><ele>17.200000000000003</ele><time>2026-04-25T06:29:41Z</time></trkpt><trkpt lat="39.44630195122952" lon="9.540535955019742"><ele>16.8</ele><time>2026-04-25T06:29:42Z</time></trkpt><trkpt lat="39.44639748955933" lon="9.540571553085856"><ele>16.400000000000002</ele><time>2026-04-25T06:29:43Z</time></trkpt><trkpt lat="39.446488154688936" lon="9.540602661974477"><ele>16.0</ele><time>2026-04-25T06:29:44Z</time></trkpt><trkpt lat="39.44659071092577" lon="9.540627052302852"><ele>15.600000000000001</ele><time>2026-04-25T06:29:45Z</time></trkpt><trkpt lat="39.44668618421347" lon="9.540639308566588"><ele>15.200000000000001</ele><time>2026-04-25T06:29:46Z</time></trkpt><trkpt lat="39.44679225678033" lon="9.54064345780087"><ele>14.799999999999999</ele><time>2026-04-25T06:29:47Z</time></trkpt><trkpt lat="39.44689761698564" lon="9.540644285942907"><ele>14.399999999999999</ele><time>2026-04-25T06:29:48Z</time></trkpt><trkpt lat="39.44699218102192" lon="9.54064311794985"><ele>14.0</ele><time>2026-04-25T06:29:49Z</time></trkpt><trkpt lat="39.44708636261713" lon="9.540620523508636"><ele>14.399999999999999</ele><time>2026-04-25T06:29:50Z</time></trkpt><trkpt lat="39.4471900473336" lon="9.540636559153548"><ele>14.799999999999999</ele><time>2026-04-25T06:29:51Z</time></trkpt><trkpt lat="39.4472889437586" lon="9.540632017557654"><ele>15.200000000000001</ele><time>2026-04-25T06:29:52Z</time></trkpt><trkpt lat="39.4473836736575" lon="9.54063262099103"><ele>15.600000000000001</ele><time>2026-04-25T06:29:53Z</time></trkpt><trkpt lat="39.447480776333364" lon="9.54063792904539"><ele>16.0</ele><time>2026-04-25T06:29:54Z</time></trkpt><trkpt lat="39.44757678705312" lon="9.540650978472284"><ele>16.0</ele><time>2026-04-25T06:29:55Z</time></trkpt><trkpt lat="39.447659928883525" lon="9.540645114275831"><ele>16.0</ele><time>2026-04-25T06:29:56Z</time></trkpt><trkpt lat="39.44776208798928" lon="9.540684285404337"><ele>16.0</ele><time>2026-04-25T06:29:57Z</time></trkpt><trkpt lat="39.44786363684607" lon="9.540687600907845"><ele>16.0</ele><time>2026-04-25T06:29:58Z</time></trkpt><trkpt lat="39.44796753425078" lon="9.540713554595783"><ele>16.0</ele><time>2026-04-25T06:29:59Z</time></trkpt><trkpt lat="39.4480758407026" lon="9.540732812401668"><ele>16.6</ele><time>2026-04-25T06:30:00Z</time></trkpt><trkpt lat="39.4481799491283" lon="9.540762050068025"><ele>17.200000000000003</ele><time>2026-04-25T06:30:01Z</time></trkpt><trkpt lat="39.448287850666645" lon="9.540776980221505"><ele>17.799999999999997</ele><time>2026-04-25T06:30:02Z</time></trkpt><trkpt lat="39.448392101501945" lon="9.540821387913562"><ele>18.4</ele><time>2026-04-25T06:30:03Z</time></trkpt><trkpt lat="39.448504180363244" lon="9.540818515448754"><ele>19.0</ele><time>2026-04-25T06:30:04Z</time></trkpt><trkpt lat="39.44861253651288" lon="9.540817111086126"><ele>19.0</ele><time>2026-04-25T06:30:05Z</time></trkpt><trkpt lat="39.44872572879463" lon="9.540808587194855"><ele>19.0</ele><time>2026-04-25T06:30:06Z</time></trkpt><trkpt lat="39.44883284669218" lon="9.540794100430888"><ele>19.0</ele><time>2026-04-25T06:30:07Z</time></trkpt><trkpt lat="39.448939480653465" lon="9.540782524288407"><ele>19.0</ele><time>2026-04-25T06:30:08Z</time></trkpt><trkpt lat="39.44904887604385" lon="9.540776809989335"><ele>19.0</ele><time>2026-04-25T06:30:09Z</time></trkpt><trkpt lat="39.44916099135269" lon="9.540771312722738"><ele>19.0</ele><time>2026-04-25T06:30:10Z</time></trkpt><trkpt lat="39.44927207878867" lon="9.540765865855015"><ele>19.0</ele><time>2026-04-25T06:30:11Z</time></trkpt><trkpt lat="39.449382416102594" lon="9.540760455766916"><ele>19.0</ele><time>2026-04-25T06:30:12Z</time></trkpt><trkpt lat="39.449492548601675" lon="9.54075505569411"><ele>19.0</ele><time>2026-04-25T06:30:13Z</time></trkpt><trkpt lat="39.449601690497374" lon="9.540750132074603"><ele>19.0</ele><time>2026-04-25T06:30:14Z</time></trkpt><trkpt lat="39.44970998575313" lon="9.54074765564594"><ele>18.599999999999998</ele><time>2026-04-25T06:30:15Z</time></trkpt><trkpt lat="39.44981511716929" lon="9.540746815077288"><ele>18.2</ele><time>2026-04-25T06:30:16Z</time></trkpt><trkpt lat="39.449924416029894" lon="9.540749820009655"><ele>17.799999999999997</ele><time>2026-04-25T06:30:17Z</time></trkpt><trkpt lat="39.4500224343185" lon="9.540755691386302"><ele>17.4</ele><time>2026-04-25T06:30:18Z</time></trkpt><trkpt lat="39.45012555968377" lon="9.540763570867972"><ele>17.0</ele><time>2026-04-25T06:30:19Z</time></trkpt><trkpt lat="39.45022994576643" lon="9.54077614906367"><ele>17.0</ele><time>2026-04-25T06:30:20Z</time></trkpt><trkpt lat="39.45033104486815" lon="9.54079200474516"><ele>17.0</ele><time>2026-04-25T06:30:21Z</time></trkpt><trkpt lat="39.45043283946878" lon="9.540811403489093"><ele>17.0</ele><time>2026-04-25T06:30:22Z</time></trkpt><trkpt lat="39.45053078646183" lon="9.54083036342443"><ele>17.0</ele><time>2026-04-25T06:30:23Z</time></trkpt><trkpt lat="39.450629506921686" lon="9.54084947308232"><ele>17.0</ele><time>2026-04-25T06:30:24Z</time></trkpt><trkpt lat="39.45073042463461" lon="9.540850434878722"><ele>16.8</ele><time>2026-04-25T06:30:25Z</time></trkpt><trkpt lat="39.45082889707388" lon="9.54086667369285"><ele>16.6</ele><time>2026-04-25T06:30:26Z</time></trkpt><trkpt lat="39.45092183265251" lon="9.540885363318633"><ele>16.400000000000002</ele><time>2026-04-25T06:30:27Z</time></trkpt><trkpt lat="39.45100669532926" lon="9.540905859624804"><ele>16.2</ele><time>2026-04-25T06:30:28Z</time></trkpt><trkpt lat="39.4510898164394" lon="9.540926061800192"><ele>16.0</ele><time>2026-04-25T06:30:29Z</time></trkpt><trkpt lat="39.4511874112978" lon="9.540936411747333"><ele>16.0</ele><time>2026-04-25T06:30:30Z</time></trkpt><trkpt lat="39.451282802152406" lon="9.540885844023247"><ele>16.0</ele><time>2026-04-25T06:30:31Z</time></trkpt><trkpt lat="39.45138122083585" lon="9.54082677460742"><ele>16.0</ele><time>2026-04-25T06:30:32Z</time></trkpt><trkpt lat="39.45149030966764" lon="9.540775815884691"><ele>16.0</ele><time>2026-04-25T06:30:33Z</time></trkpt><trkpt lat="39.45160365752011" lon="9.540730649657984"><ele>16.0</ele><time>2026-04-25T06:30:34Z</time></trkpt><trkpt lat="39.4517191699545" lon="9.540682761222854"><ele>16.0</ele><time>2026-04-25T06:30:35Z</time></trkpt><trkpt lat="39.451836694021075" lon="9.54062579428293"><ele>16.0</ele><time>2026-04-25T06:30:36Z</time></trkpt><trkpt lat="39.45196167422734" lon="9.540568242107504"><ele>16.0</ele><time>2026-04-25T06:30:37Z</time></trkpt><trkpt lat="39.45209262855403" lon="9.540513597051024"><ele>16.0</ele><time>2026-04-25T06:30:38Z</time></trkpt><trkpt lat="39.4522320178275" lon="9.540471334385488"><ele>15.25</ele><time>2026-04-25T06:30:39Z</time></trkpt><trkpt lat="39.45237751006888" lon="9.540470169516182"><ele>14.5</ele><time>2026-04-25T06:30:40Z</time></trkpt><trkpt lat="39.452513161481384" lon="9.54047284620779"><ele>13.75</ele><time>2026-04-25T06:30:41Z</time></trkpt><trkpt lat="39.45265917289272" lon="9.540462422962845"><ele>13.0</ele><time>2026-04-25T06:30:42Z</time></trkpt><trkpt lat="39.452805818387986" lon="9.54047383735928"><ele>14.0</ele><time>2026-04-25T06:30:43Z</time></trkpt><trkpt lat="39.45295667435603" lon="9.540477100242605"><ele>15.0</ele><time>2026-04-25T06:30:44Z</time></trkpt><trkpt lat="39.4531091679163" lon="9.540475997258417"><ele>16.0</ele><time>2026-04-25T06:30:45Z</time></trkpt><trkpt lat="39.45326405845273" lon="9.540477766179748"><ele>16.0</ele><time>2026-04-25T06:30:46Z</time></trkpt><trkpt lat="39.45341850552153" lon="9.540484783787482"><ele>16.0</ele><time>2026-04-25T06:30:47Z</time></trkpt><trkpt lat="39.4535759312261" lon="9.54048993058211"><ele>16.0</ele><time>2026-04-25T06:30:48Z</time></trkpt><trkpt lat="39.45373617975469" lon="9.540499164637282"><ele>17.0</ele><time>2026-04-25T06:30:49Z</time></trkpt><trkpt lat="39.45389472630531" lon="9.540514867213394"><ele>18.0</ele><time>2026-04-25T06:30:50Z</time></trkpt><trkpt lat="39.454048305115386" lon="9.540525530387644"><ele>19.0</ele><time>2026-04-25T06:30:51Z</time></trkpt><trkpt lat="39.454201434685515" lon="9.54052982800817"><ele>19.0</ele><time>2026-04-25T06:30:52Z</time></trkpt><trkpt lat="39.45435778509173" lon="9.5405261708046"><ele>19.0</ele><time>2026-04-25T06:30:53Z</time></trkpt><trkpt lat="39.454508748153295" lon="9.540531635296885"><ele>19.0</ele><time>2026-04-25T06:30:54Z</time></trkpt><trkpt lat="39.454659859722575" lon="9.540542643573884"><ele>19.333333333333332</ele><time>2026-04-25T06:30:55Z</time></trkpt><trkpt lat="39.45480962689723" lon="9.540561179832425"><ele>19.666666666666668</ele><time>2026-04-25T06:30:56Z</time></trkpt><trkpt lat="39.454955729190125" lon="9.540602924396298"><ele>20.0</ele><time>2026-04-25T06:30:57Z</time></trkpt><trkpt lat="39.45509792641533" lon="9.540670730693828"><ele>20.0</ele><time>2026-04-25T06:30:58Z</time></trkpt><trkpt lat="39.45523446897097" lon="9.540757724771964"><ele>20.0</ele><time>2026-04-25T06:30:59Z</time></trkpt><trkpt lat="39.455369765279606" lon="9.540866704790757"><ele>20.0</ele><time>2026-04-25T06:31:00Z</time></trkpt><trkpt lat="39.45548612578132" lon="9.540980433521138"><ele>20.333333333333336</ele><time>2026-04-25T06:31:01Z</time></trkpt><trkpt lat="39.45560921162275" lon="9.541104283685927"><ele>20.666666666666668</ele><time>2026-04-25T06:31:02Z</time></trkpt><trkpt lat="39.45573117676588" lon="9.541226728035957"><ele>21.0</ele><time>2026-04-25T06:31:03Z</time></trkpt><trkpt lat="39.45584798769586" lon="9.541356948668337"><ele>21.0</ele><time>2026-04-25T06:31:04Z</time></trkpt><trkpt lat="39.45596908245035" lon="9.541483005271322"><ele>21.0</ele><time>2026-04-25T06:31:05Z</time></trkpt><trkpt lat="39.45609610155775" lon="9.541604054466966"><ele>21.0</ele><time>2026-04-25T06:31:06Z</time></trkpt><trkpt lat="39.45622322550333" lon="9.54172086241009"><ele>24.0</ele><time>2026-04-25T06:31:07Z</time></trkpt><trkpt lat="39.456352893969395" lon="9.541828676445663"><ele>27.0</ele><time>2026-04-25T06:31:08Z</time></trkpt><trkpt lat="39.456494300441584" lon="9.541909909643735"><ele>30.0</ele><time>2026-04-25T06:31:09Z</time></trkpt><trkpt lat="39.456640064722215" lon="9.541966202783389"><ele>30.0</ele><time>2026-04-25T06:31:10Z</time></trkpt><trkpt lat="39.45678223066225" lon="9.541993931987756"><ele>30.0</ele><time>2026-04-25T06:31:11Z</time></trkpt><trkpt lat="39.456913600416144" lon="9.541997364163423"><ele>30.0</ele><time>2026-04-25T06:31:12Z</time></trkpt><trkpt lat="39.457037480903296" lon="9.542012696314124"><ele>30.0</ele><time>2026-04-25T06:31:13Z</time></trkpt><trkpt lat="39.45715936126714" lon="9.542005371023787"><ele>32.0</ele><time>2026-04-25T06:31:14Z</time></trkpt><trkpt lat="39.4572846140221" lon="9.5419887052307"><ele>34.0</ele><time>2026-04-25T06:31:15Z</time></trkpt><trkpt lat="39.457412151973195" lon="9.541971030761244"><ele>36.0</ele><time>2026-04-25T06:31:16Z</time></trkpt><trkpt lat="39.45754113988703" lon="9.541954052304797"><ele>38.0</ele><time>2026-04-25T06:31:17Z</time></trkpt><trkpt lat="39.45767590812368" lon="9.541937974773377"><ele>38.0</ele><time>2026-04-25T06:31:18Z</time></trkpt><trkpt lat="39.4578104044011" lon="9.541928381528132"><ele>38.0</ele><time>2026-04-25T06:31:19Z</time></trkpt><trkpt lat="39.457945203624746" lon="9.54193123293484"><ele>38.0</ele><time>2026-04-25T06:31:20Z</time></trkpt><trkpt lat="39.458081504402024" lon="9.541933273412377"><ele>38.0</ele><time>2026-04-25T06:31:21Z</time></trkpt><trkpt lat="39.45821614730644" lon="9.541957365123299"><ele>39.25</ele><time>2026-04-25T06:31:22Z</time></trkpt><trkpt lat="39.458352293160495" lon="9.541973530244448"><ele>40.5</ele><time>2026-04-25T06:31:23Z</time></trkpt><trkpt lat="39.45848939275497" lon="9.541982745971453"><ele>41.75</ele><time>2026-04-25T06:31:24Z</time></trkpt><trkpt lat="39.45862757421702" lon="9.541989844979149"><ele>43.0</ele><time>2026-04-25T06:31:25Z</time></trkpt><trkpt lat="39.45876753960681" lon="9.541994226491727"><ele>44.5</ele><time>2026-04-25T06:31:26Z</time></trkpt><trkpt lat="39.45890724131987" lon="9.5420005697109"><ele>46.0</ele><time>2026-04-25T06:31:27Z</time></trkpt><trkpt lat="39.45904725297314" lon="9.542004632022243"><ele>47.5</ele><time>2026-04-25T06:31:28Z</time></trkpt><trkpt lat="39.45918817084509" lon="9.542004172995757"><ele>49.0</ele><time>2026-04-25T06:31:29Z</time></trkpt><trkpt lat="39.45932905765591" lon="9.541995950025099"><ele>49.0</ele><time>2026-04-25T06:31:30Z</time></trkpt><trkpt lat="39.45947020978691" lon="9.54198635878532"><ele>49.0</ele><time>2026-04-25T06:31:31Z</time></trkpt><trkpt lat="39.45961211681228" lon="9.541999064478208"><ele>49.0</ele><time>2026-04-25T06:31:32Z</time></trkpt><trkpt lat="39.4597527935537" lon="9.541969371927648"><ele>49.0</ele><time>2026-04-25T06:31:33Z</time></trkpt><trkpt lat="39.459892643313" lon="9.541956807056033"><ele>46.5</ele><time>2026-04-25T06:31:34Z</time></trkpt><trkpt lat="39.460032958411844" lon="9.541926338022714"><ele>44.0</ele><time>2026-04-25T06:31:35Z</time></trkpt><trkpt lat="39.46017434930742" lon="9.541888604477325"><ele>41.5</ele><time>2026-04-25T06:31:36Z</time></trkpt><trkpt lat="39.46031306802119" lon="9.541844761036177"><ele>39.0</ele><time>2026-04-25T06:31:37Z</time></trkpt><trkpt lat="39.4604515123543" lon="9.541789038620829"><ele>35.5</ele><time>2026-04-25T06:31:38Z</time></trkpt><trkpt lat="39.46058587603743" lon="9.541725057619598"><ele>32.0</ele><time>2026-04-25T06:31:39Z</time></trkpt><trkpt lat="39.460719801082895" lon="9.541646323276144"><ele>28.5</ele><time>2026-04-25T06:31:40Z</time></trkpt><trkpt lat="39.460854627330605" lon="9.541575680391638"><ele>25.0</ele><time>2026-04-25T06:31:41Z</time></trkpt><trkpt lat="39.460990925621125" lon="9.541502232009677"><ele>25.0</ele><time>2026-04-25T06:31:42Z</time></trkpt><trkpt lat="39.46112688832361" lon="9.541424621782923"><ele>25.0</ele><time>2026-04-25T06:31:43Z</time></trkpt><trkpt lat="39.46125970834836" lon="9.5413370431311"><ele>25.0</ele><time>2026-04-25T06:31:44Z</time></trkpt><trkpt lat="39.46138667528327" lon="9.541237127278952"><ele>25.0</ele><time>2026-04-25T06:31:45Z</time></trkpt><trkpt lat="39.461512649666794" lon="9.541131548290245"><ele>27.25</ele><time>2026-04-25T06:31:46Z</time></trkpt><trkpt lat="39.46163341026792" lon="9.541020233335182"><ele>29.5</ele><time>2026-04-25T06:31:47Z</time></trkpt><trkpt lat="39.46175098906063" lon="9.540899828845326"><ele>31.75</ele><time>2026-04-25T06:31:48Z</time></trkpt><trkpt lat="39.461871537493295" lon="9.540783451899857"><ele>34.0</ele><time>2026-04-25T06:31:49Z</time></trkpt><trkpt lat="39.46197401749067" lon="9.54063760723294"><ele>34.0</ele><time>2026-04-25T06:31:50Z</time></trkpt><trkpt lat="39.46205589248625" lon="9.540470358194137"><ele>34.0</ele><time>2026-04-25T06:31:51Z</time></trkpt><trkpt lat="39.46215252456142" lon="9.540321160180122"><ele>34.0</ele><time>2026-04-25T06:31:52Z</time></trkpt><trkpt lat="39.462256137193705" lon="9.540179853373962"><ele>33.333333333333336</ele><time>2026-04-25T06:31:53Z</time></trkpt><trkpt lat="39.46236357083276" lon="9.540045872912858"><ele>32.666666666666664</ele><time>2026-04-25T06:31:54Z</time></trkpt><trkpt lat="39.462476932813956" lon="9.53992347072313"><ele>32.0</ele><time>2026-04-25T06:31:55Z</time></trkpt><trkpt lat="39.46258152071057" lon="9.539769059732604"><ele>32.0</ele><time>2026-04-25T06:31:56Z</time></trkpt><trkpt lat="39.46270322922725" lon="9.539647327615501"><ele>32.0</ele><time>2026-04-25T06:31:57Z</time></trkpt><trkpt lat="39.462804709262585" lon="9.539499271728552"><ele>32.0</ele><time>2026-04-25T06:31:58Z</time></trkpt><trkpt lat="39.46292743180442" lon="9.539378798479532"><ele>32.33333333333333</ele><time>2026-04-25T06:31:59Z</time></trkpt><trkpt lat="39.463062881668854" lon="9.539274260146149"><ele>32.666666666666664</ele><time>2026-04-25T06:32:00Z</time></trkpt><trkpt lat="39.463201201038856" lon="9.539195158320931"><ele>33.0</ele><time>2026-04-25T06:32:01Z</time></trkpt><trkpt lat="39.46336031860249" lon="9.539141622347826"><ele>33.0</ele><time>2026-04-25T06:32:02Z</time></trkpt><trkpt lat="39.46350975092179" lon="9.539119292126765"><ele>33.0</ele><time>2026-04-25T06:32:03Z</time></trkpt><trkpt lat="39.46366672829422" lon="9.539116800593462"><ele>33.0</ele><time>2026-04-25T06:32:04Z</time></trkpt><trkpt lat="39.46382378611352" lon="9.539120245838317"><ele>35.0</ele><time>2026-04-25T06:32:05Z</time></trkpt><trkpt lat="39.46398154529159" lon="9.539128686654502"><ele>37.0</ele><time>2026-04-25T06:32:06Z</time></trkpt><trkpt lat="39.46414006198048" lon="9.539135070191355"><ele>39.0</ele><time>2026-04-25T06:32:07Z</time></trkpt><trkpt lat="39.464296144093545" lon="9.539137232812521"><ele>39.0</ele><time>2026-04-25T06:32:08Z</time></trkpt><trkpt lat="39.46445497770723" lon="9.53913706374509"><ele>39.0</ele><time>2026-04-25T06:32:09Z</time></trkpt><trkpt lat="39.46461280608639" lon="9.539135457431112"><ele>39.0</ele><time>2026-04-25T06:32:10Z</time></trkpt><trkpt lat="39.464770379084854" lon="9.539129860852874"><ele>38.333333333333336</ele><time>2026-04-25T06:32:11Z</time></trkpt><trkpt lat="39.4649269529936" lon="9.539129788078778"><ele>37.66666666666667</ele><time>2026-04-25T06:32:12Z</time></trkpt><trkpt lat="39.46508292329518" lon="9.539134553235884"><ele>37.0</ele><time>2026-04-25T06:32:13Z</time></trkpt><trkpt lat="39.46523681377518" lon="9.539135348487088"><ele>37.0</ele><time>2026-04-25T06:32:14Z</time></trkpt><trkpt lat="39.46539026976979" lon="9.539129172621308"><ele>37.0</ele><time>2026-04-25T06:32:15Z</time></trkpt><trkpt lat="39.46554386661562" lon="9.539123560432495"><ele>37.0</ele><time>2026-04-25T06:32:16Z</time></trkpt><trkpt lat="39.46569645367378" lon="9.539121961442731"><ele>36.66666666666667</ele><time>2026-04-25T06:32:17Z</time></trkpt><trkpt lat="39.46584909537705" lon="9.539122269002103"><ele>36.333333333333336</ele><time>2026-04-25T06:32:18Z</time></trkpt><trkpt lat="39.46600263404718" lon="9.53912878579084"><ele>36.0</ele><time>2026-04-25T06:32:19Z</time></trkpt><trkpt lat="39.46615582019871" lon="9.539146764802172"><ele>36.666666666666664</ele><time>2026-04-25T06:32:20Z</time></trkpt><trkpt lat="39.466310406510146" lon="9.53916856617925"><ele>37.33333333333333</ele><time>2026-04-25T06:32:21Z</time></trkpt><trkpt lat="39.46646485455767" lon="9.539192314496837"><ele>38.0</ele><time>2026-04-25T06:32:22Z</time></trkpt><trkpt lat="39.46661831819224" lon="9.539220221308463"><ele>38.0</ele><time>2026-04-25T06:32:23Z</time></trkpt><trkpt lat="39.46677296010954" lon="9.539246016055186"><ele>38.0</ele><time>2026-04-25T06:32:24Z</time></trkpt><trkpt lat="39.46692711794916" lon="9.539275121681905"><ele>38.0</ele><time>2026-04-25T06:32:25Z</time></trkpt><trkpt lat="39.46707905543877" lon="9.539308100141543"><ele>38.0</ele><time>2026-04-25T06:32:26Z</time></trkpt><trkpt lat="39.46723124731125" lon="9.539326558084948"><ele>38.0</ele><time>2026-04-25T06:32:27Z</time></trkpt><trkpt lat="39.467382054535925" lon="9.539315784091396"><ele>38.0</ele><time>2026-04-25T06:32:28Z</time></trkpt><trkpt lat="39.467539606091066" lon="9.539270868108913"><ele>38.0</ele><time>2026-04-25T06:32:29Z</time></trkpt><trkpt lat="39.46768934210935" lon="9.539218436482336"><ele>38.0</ele><time>2026-04-25T06:32:30Z</time></trkpt><trkpt lat="39.46783793310024" lon="9.539161060871011"><ele>38.0</ele><time>2026-04-25T06:32:31Z</time></trkpt><trkpt lat="39.4679871078429" lon="9.53910360609383"><ele>34.666666666666664</ele><time>2026-04-25T06:32:32Z</time></trkpt><trkpt lat="39.46813489228567" lon="9.539048332235717"><ele>31.333333333333336</ele><time>2026-04-25T06:32:33Z</time></trkpt><trkpt lat="39.46828451193299" lon="9.539000848893762"><ele>28.0</ele><time>2026-04-25T06:32:34Z</time></trkpt><trkpt lat="39.46843320408335" lon="9.538949638422825"><ele>28.0</ele><time>2026-04-25T06:32:35Z</time></trkpt><trkpt lat="39.468581958851225" lon="9.53889425569572"><ele>28.0</ele><time>2026-04-25T06:32:36Z</time></trkpt><trkpt lat="39.46872972580742" lon="9.538843373492337"><ele>28.0</ele><time>2026-04-25T06:32:37Z</time></trkpt><trkpt lat="39.46887897291417" lon="9.538805077051013"><ele>26.0</ele><time>2026-04-25T06:32:38Z</time></trkpt><trkpt lat="39.469029765488024" lon="9.538778254091975"><ele>24.0</ele><time>2026-04-25T06:32:39Z</time></trkpt><trkpt lat="39.46918032136778" lon="9.53875129212213"><ele>22.0</ele><time>2026-04-25T06:32:40Z</time></trkpt><trkpt lat="39.46933067116458" lon="9.538716886502012"><ele>27.666666666666664</ele><time>2026-04-25T06:32:41Z</time></trkpt><trkpt lat="39.46948152901575" lon="9.538674296967418"><ele>33.333333333333336</ele><time>2026-04-25T06:32:42Z</time></trkpt><trkpt lat="39.469629442595405" lon="9.538626911799089"><ele>39.0</ele><time>2026-04-25T06:32:43Z</time></trkpt><trkpt lat="39.469776702751325" lon="9.538573666104197"><ele>39.0</ele><time>2026-04-25T06:32:44Z</time></trkpt><trkpt lat="39.469921919908764" lon="9.538516546792813"><ele>39.0</ele><time>2026-04-25T06:32:45Z</time></trkpt><trkpt lat="39.4700663682088" lon="9.538462310343792"><ele>39.0</ele><time>2026-04-25T06:32:46Z</time></trkpt><trkpt lat="39.47021095668909" lon="9.538410864471214"><ele>39.0</ele><time>2026-04-25T06:32:47Z</time></trkpt><trkpt lat="39.4703534889703" lon="9.538359002656371"><ele>39.0</ele><time>2026-04-25T06:32:48Z</time></trkpt><trkpt lat="39.47049793051601" lon="9.538314206718153"><ele>39.0</ele><time>2026-04-25T06:32:49Z</time></trkpt><trkpt lat="39.470644637848345" lon="9.538298134343538"><ele>39.0</ele><time>2026-04-25T06:32:50Z</time></trkpt><trkpt lat="39.47079482740261" lon="9.53831427995701"><ele>38.333333333333336</ele><time>2026-04-25T06:32:51Z</time></trkpt><trkpt lat="39.47094406292466" lon="9.538330946652092"><ele>37.66666666666667</ele><time>2026-04-25T06:32:52Z</time></trkpt><trkpt lat="39.47109370006513" lon="9.538327237481667"><ele>37.0</ele><time>2026-04-25T06:32:53Z</time></trkpt><trkpt lat="39.47124322284405" lon="9.53830229113245"><ele>36.25</ele><time>2026-04-25T06:32:54Z</time></trkpt><trkpt lat="39.47139226608898" lon="9.538293598455661"><ele>35.5</ele><time>2026-04-25T06:32:55Z</time></trkpt><trkpt lat="39.47153931567631" lon="9.538267894965553"><ele>34.75</ele><time>2026-04-25T06:32:56Z</time></trkpt><trkpt lat="39.47168687184385" lon="9.538253264739408"><ele>34.0</ele><time>2026-04-25T06:32:57Z</time></trkpt><trkpt lat="39.47183550403603" lon="9.538269681875517"><ele>34.0</ele><time>2026-04-25T06:32:58Z</time></trkpt><trkpt lat="39.47199035720984" lon="9.538288313324705"><ele>34.0</ele><time>2026-04-25T06:32:59Z</time></trkpt><trkpt lat="39.472140854383944" lon="9.538343808616375"><ele>34.0</ele><time>2026-04-25T06:33:00Z</time></trkpt><trkpt lat="39.47229386941329" lon="9.538393908501385"><ele>36.333333333333336</ele><time>2026-04-25T06:33:01Z</time></trkpt><trkpt lat="39.47244799308808" lon="9.53843242755994"><ele>38.666666666666664</ele><time>2026-04-25T06:33:02Z</time></trkpt><trkpt lat="39.47260466299546" lon="9.538462247763043"><ele>41.0</ele><time>2026-04-25T06:33:03Z</time></trkpt><trkpt lat="39.47275760663147" lon="9.538488583736418"><ele>41.0</ele><time>2026-04-25T06:33:04Z</time></trkpt><trkpt lat="39.47291483030341" lon="9.538518411539005"><ele>41.0</ele><time>2026-04-25T06:33:05Z</time></trkpt><trkpt lat="39.4730671683602" lon="9.538555546009322"><ele>41.0</ele><time>2026-04-25T06:33:06Z</time></trkpt><trkpt lat="39.473220992884144" lon="9.53859786302687"><ele>36.0</ele><time>2026-04-25T06:33:07Z</time></trkpt><trkpt lat="39.473373125599835" lon="9.538645594904597"><ele>31.0</ele><time>2026-04-25T06:33:08Z</time></trkpt><trkpt lat="39.473523508485975" lon="9.538699646656505"><ele>26.0</ele><time>2026-04-25T06:33:09Z</time></trkpt><trkpt lat="39.47367138545119" lon="9.538759140240117"><ele>30.0</ele><time>2026-04-25T06:33:10Z</time></trkpt><trkpt lat="39.473817138432615" lon="9.53882080535196"><ele>34.0</ele><time>2026-04-25T06:33:11Z</time></trkpt><trkpt lat="39.473962477535565" lon="9.538883932056327"><ele>38.0</ele><time>2026-04-25T06:33:12Z</time></trkpt><trkpt lat="39.47410764718764" lon="9.53895454136041"><ele>38.0</ele><time>2026-04-25T06:33:13Z</time></trkpt><trkpt lat="39.474253725916626" lon="9.539018903098622"><ele>38.0</ele><time>2026-04-25T06:33:14Z</time></trkpt><trkpt lat="39.4744025237211" lon="9.539080514215764"><ele>38.0</ele><time>2026-04-25T06:33:15Z</time></trkpt><trkpt lat="39.474548711806804" lon="9.539148612163611"><ele>43.666666666666664</ele><time>2026-04-25T06:33:16Z</time></trkpt><trkpt lat="39.474686773887974" lon="9.539239085206836"><ele>49.33333333333333</ele><time>2026-04-25T06:33:17Z</time></trkpt><trkpt lat="39.47481749475965" lon="9.539351260844192"><ele>55.0</ele><time>2026-04-25T06:33:18Z</time></trkpt><trkpt lat="39.47494496220867" lon="9.53946216060752"><ele>51.75</ele><time>2026-04-25T06:33:19Z</time></trkpt><trkpt lat="39.47506863642023" lon="9.539566938755486"><ele>48.5</ele><time>2026-04-25T06:33:20Z</time></trkpt><trkpt lat="39.47519268144638" lon="9.539659918288264"><ele>45.25</ele><time>2026-04-25T06:33:21Z</time></trkpt><trkpt lat="39.47532221121694" lon="9.539734491686605"><ele>42.0</ele><time>2026-04-25T06:33:22Z</time></trkpt><trkpt lat="39.475454513972316" lon="9.539779137317703"><ele>42.0</ele><time>2026-04-25T06:33:23Z</time></trkpt><trkpt lat="39.47557994337375" lon="9.539805439536748"><ele>42.0</ele><time>2026-04-25T06:33:24Z</time></trkpt><trkpt lat="39.475701532233316" lon="9.53979482865224"><ele>42.0</ele><time>2026-04-25T06:33:25Z</time></trkpt><trkpt lat="39.475817151954374" lon="9.53975202571694"><ele>42.0</ele><time>2026-04-25T06:33:26Z</time></trkpt><trkpt lat="39.47590122590003" lon="9.539632719852106"><ele>42.25</ele><time>2026-04-25T06:33:27Z</time></trkpt><trkpt lat="39.47593091486518" lon="9.539468560378923"><ele>42.5</ele><time>2026-04-25T06:33:28Z</time></trkpt><trkpt lat="39.47593097510078" lon="9.539297519725043"><ele>42.75</ele><time>2026-04-25T06:33:29Z</time></trkpt><trkpt lat="39.47591564809026" lon="9.53912240585103"><ele>43.0</ele><time>2026-04-25T06:33:30Z</time></trkpt><trkpt lat="39.475899889589705" lon="9.538945231372823"><ele>43.0</ele><time>2026-04-25T06:33:31Z</time></trkpt><trkpt lat="39.475865308315704" lon="9.538763292760686"><ele>43.0</ele><time>2026-04-25T06:33:32Z</time></trkpt><trkpt lat="39.47581661398099" lon="9.538581051854731"><ele>43.0</ele><time>2026-04-25T06:33:33Z</time></trkpt><trkpt lat="39.47576219547729" lon="9.538393339103967"><ele>43.0</ele><time>2026-04-25T06:33:34Z</time></trkpt><trkpt lat="39.475706474606426" lon="9.538201881142571"><ele>40.66666666666667</ele><time>2026-04-25T06:33:35Z</time></trkpt><trkpt lat="39.47564676825648" lon="9.538006910678918"><ele>38.333333333333336</ele><time>2026-04-25T06:33:36Z</time></trkpt><trkpt lat="39.47558606411317" lon="9.537809844802702"><ele>36.0</ele><time>2026-04-25T06:33:37Z</time></trkpt><trkpt lat="39.475514210213326" lon="9.537613846134086"><ele>39.666666666666664</ele><time>2026-04-25T06:33:38Z</time></trkpt><trkpt lat="39.47543037485493" lon="9.537428505964904"><ele>43.33333333333333</ele><time>2026-04-25T06:33:39Z</time></trkpt><trkpt lat="39.47534595284749" lon="9.537241315151581"><ele>47.0</ele><time>2026-04-25T06:33:40Z</time></trkpt><trkpt lat="39.47526999836542" lon="9.537047087161731"><ele>47.0</ele><time>2026-04-25T06:33:41Z</time></trkpt><trkpt lat="39.475203943305104" lon="9.53684656655721"><ele>47.0</ele><time>2026-04-25T06:33:42Z</time></trkpt><trkpt lat="39.475152092270456" lon="9.536639330453827"><ele>47.0</ele><time>2026-04-25T06:33:43Z</time></trkpt><trkpt lat="39.47511948372255" lon="9.536423668962952"><ele>46.0</ele><time>2026-04-25T06:33:44Z</time></trkpt><trkpt lat="39.47510345789964" lon="9.536206967392994"><ele>45.0</ele><time>2026-04-25T06:33:45Z</time></trkpt><trkpt lat="39.475096226373616" lon="9.535991830519588"><ele>44.0</ele><time>2026-04-25T06:33:46Z</time></trkpt><trkpt lat="39.47509828492333" lon="9.535778969044436"><ele>44.0</ele><time>2026-04-25T06:33:47Z</time></trkpt><trkpt lat="39.47511538650221" lon="9.535562986312476"><ele>44.0</ele><time>2026-04-25T06:33:48Z</time></trkpt><trkpt lat="39.475145692829685" lon="9.535353481961446"><ele>44.0</ele><time>2026-04-25T06:33:49Z</time></trkpt><trkpt lat="39.47517997812519" lon="9.535144280798866"><ele>44.33333333333333</ele><time>2026-04-25T06:33:50Z</time></trkpt><trkpt lat="39.47522811827932" lon="9.534939909505505"><ele>44.666666666666664</ele><time>2026-04-25T06:33:51Z</time></trkpt><trkpt lat="39.4752887707707" lon="9.53474096571728"><ele>45.0</ele><time>2026-04-25T06:33:52Z</time></trkpt><trkpt lat="39.47535635178578" lon="9.534543870984969"><ele>47.0</ele><time>2026-04-25T06:33:53Z</time></trkpt><trkpt lat="39.475423665025815" lon="9.53434909716566"><ele>49.0</ele><time>2026-04-25T06:33:54Z</time></trkpt><trkpt lat="39.47549231515932" lon="9.534154434486013"><ele>51.0</ele><time>2026-04-25T06:33:55Z</time></trkpt><trkpt lat="39.47555927489788" lon="9.533957550793462"><ele>45.333333333333336</ele><time>2026-04-25T06:33:56Z</time></trkpt><trkpt lat="39.475625364738214" lon="9.533763173589536"><ele>39.66666666666667</ele><time>2026-04-25T06:33:57Z</time></trkpt><trkpt lat="39.47569184800058" lon="9.533567794532683"><ele>34.0</ele><time>2026-04-25T06:33:58Z</time></trkpt><trkpt lat="39.475756969360035" lon="9.533375811074798"><ele>34.0</ele><time>2026-04-25T06:33:59Z</time></trkpt><trkpt lat="39.47582361181624" lon="9.533179747601222"><ele>34.0</ele><time>2026-04-25T06:34:00Z</time></trkpt><trkpt lat="39.475890323661844" lon="9.532987390134043"><ele>34.0</ele><time>2026-04-25T06:34:01Z</time></trkpt><trkpt lat="39.4759587904999" lon="9.532793093984058"><ele>36.333333333333336</ele><time>2026-04-25T06:34:02Z</time></trkpt><trkpt lat="39.47602625633095" lon="9.532602007271365"><ele>38.666666666666664</ele><time>2026-04-25T06:34:03Z</time></trkpt><trkpt lat="39.47609569173325" lon="9.532407378977132"><ele>41.0</ele><time>2026-04-25T06:34:04Z</time></trkpt><trkpt lat="39.47616363246237" lon="9.532213892682925"><ele>42.0</ele><time>2026-04-25T06:34:05Z</time></trkpt><trkpt lat="39.47623238352877" lon="9.532014113671407"><ele>43.0</ele><time>2026-04-25T06:34:06Z</time></trkpt><trkpt lat="39.47630048286775" lon="9.53181500478926"><ele>44.0</ele><time>2026-04-25T06:34:07Z</time></trkpt><trkpt lat="39.47636630271381" lon="9.531614700574762"><ele>38.0</ele><time>2026-04-25T06:34:08Z</time></trkpt><trkpt lat="39.47642896419956" lon="9.531411331473711"><ele>32.0</ele><time>2026-04-25T06:34:09Z</time></trkpt><trkpt lat="39.47648669527076" lon="9.531201934701672"><ele>26.0</ele><time>2026-04-25T06:34:10Z</time></trkpt><trkpt lat="39.47653694973183" lon="9.530990184730328"><ele>26.0</ele><time>2026-04-25T06:34:11Z</time></trkpt><trkpt lat="39.47657887234397" lon="9.530773138304259"><ele>26.0</ele><time>2026-04-25T06:34:12Z</time></trkpt><trkpt lat="39.47661385465882" lon="9.530557337823039"><ele>26.0</ele><time>2026-04-25T06:34:13Z</time></trkpt><trkpt lat="39.47664419860627" lon="9.530336177409247"><ele>27.333333333333332</ele><time>2026-04-25T06:34:14Z</time></trkpt><trkpt lat="39.476672687667936" lon="9.530118931545317"><ele>28.666666666666664</ele><time>2026-04-25T06:34:15Z</time></trkpt><trkpt lat="39.476703777916576" lon="9.529908361333659"><ele>30.0</ele><time>2026-04-25T06:34:16Z</time></trkpt><trkpt lat="39.47673476319783" lon="9.52969914494673"><ele>34.0</ele><time>2026-04-25T06:34:17Z</time></trkpt><trkpt lat="39.47675947901091" lon="9.52949319812474"><ele>38.0</ele><time>2026-04-25T06:34:18Z</time></trkpt><trkpt lat="39.47678087255593" lon="9.529287014181055"><ele>42.0</ele><time>2026-04-25T06:34:19Z</time></trkpt><trkpt lat="39.476799805686426" lon="9.52908104666462"><ele>42.0</ele><time>2026-04-25T06:34:20Z</time></trkpt><trkpt lat="39.47681728970222" lon="9.52887831988045"><ele>42.0</ele><time>2026-04-25T06:34:21Z</time></trkpt><trkpt lat="39.476832485603204" lon="9.528676680492033"><ele>42.0</ele><time>2026-04-25T06:34:22Z</time></trkpt><trkpt lat="39.47685556402806" lon="9.52847368541796"><ele>45.0</ele><time>2026-04-25T06:34:23Z</time></trkpt><trkpt lat="39.47688902120545" lon="9.528269543946823"><ele>48.0</ele><time>2026-04-25T06:34:24Z</time></trkpt><trkpt lat="39.476921781908935" lon="9.528063817286123"><ele>51.0</ele><time>2026-04-25T06:34:25Z</time></trkpt><trkpt lat="39.47695411260002" lon="9.527855700452701"><ele>53.33333333333333</ele><time>2026-04-25T06:34:26Z</time></trkpt><trkpt lat="39.47698614318681" lon="9.527645911536965"><ele>55.666666666666664</ele><time>2026-04-25T06:34:27Z</time></trkpt><trkpt lat="39.47701461391796" lon="9.527434672833015"><ele>58.0</ele><time>2026-04-25T06:34:28Z</time></trkpt><trkpt lat="39.47703010832466" lon="9.527218359546678"><ele>58.33333333333333</ele><time>2026-04-25T06:34:29Z</time></trkpt><trkpt lat="39.47703659633441" lon="9.527000199276165"><ele>58.66666666666667</ele><time>2026-04-25T06:34:30Z</time></trkpt><trkpt lat="39.477037880244445" lon="9.52678806432441"><ele>59.0</ele><time>2026-04-25T06:34:31Z</time></trkpt><trkpt lat="39.47704239551401" lon="9.526573738327428"><ele>59.0</ele><time>2026-04-25T06:34:32Z</time></trkpt><trkpt lat="39.47705265026392" lon="9.526362455870503"><ele>59.0</ele><time>2026-04-25T06:34:33Z</time></trkpt><trkpt lat="39.47706476118406" lon="9.526147929732012"><ele>59.0</ele><time>2026-04-25T06:34:34Z</time></trkpt><trkpt lat="39.47707612508054" lon="9.525934762366385"><ele>57.333333333333336</ele><time>2026-04-25T06:34:35Z</time></trkpt><trkpt lat="39.47709379566509" lon="9.525724879835776"><ele>55.66666666666667</ele><time>2026-04-25T06:34:36Z</time></trkpt><trkpt lat="39.47712091280219" lon="9.525517104003562"><ele>54.0</ele><time>2026-04-25T06:34:37Z</time></trkpt><trkpt lat="39.477157941847324" lon="9.525309050347444"><ele>45.0</ele><time>2026-04-25T06:34:38Z</time></trkpt><trkpt lat="39.47721123672375" lon="9.525106391545627"><ele>36.0</ele><time>2026-04-25T06:34:39Z</time></trkpt><trkpt lat="39.47727314264349" lon="9.524909220500517"><ele>27.0</ele><time>2026-04-25T06:34:40Z</time></trkpt><trkpt lat="39.47733854173127" lon="9.524711486730029"><ele>32.666666666666664</ele><time>2026-04-25T06:34:41Z</time></trkpt><trkpt lat="39.477403864090036" lon="9.524518455132709"><ele>38.33333333333333</ele><time>2026-04-25T06:34:42Z</time></trkpt><trkpt lat="39.47747005231821" lon="9.524323998907608"><ele>44.0</ele><time>2026-04-25T06:34:43Z</time></trkpt><trkpt lat="39.4775341430687" lon="9.524131864737658"><ele>44.0</ele><time>2026-04-25T06:34:44Z</time></trkpt><trkpt lat="39.47760013083426" lon="9.52393842782546"><ele>44.0</ele><time>2026-04-25T06:34:45Z</time></trkpt><trkpt lat="39.47766383647443" lon="9.523746863089032"><ele>44.0</ele><time>2026-04-25T06:34:46Z</time></trkpt><trkpt lat="39.47772044126716" lon="9.523551297881939"><ele>50.33333333333333</ele><time>2026-04-25T06:34:47Z</time></trkpt><trkpt lat="39.47776545902669" lon="9.523349825147779"><ele>56.666666666666664</ele><time>2026-04-25T06:34:48Z</time></trkpt><trkpt lat="39.47780702937767" lon="9.523147468302026"><ele>63.0</ele><time>2026-04-25T06:34:49Z</time></trkpt><trkpt lat="39.47785727027227" lon="9.52294661025332"><ele>67.33333333333333</ele><time>2026-04-25T06:34:50Z</time></trkpt><trkpt lat="39.47791261669841" lon="9.5227475750505"><ele>71.66666666666666</ele><time>2026-04-25T06:34:51Z</time></trkpt><trkpt lat="39.47797172731653" lon="9.522546770328434"><ele>76.0</ele><time>2026-04-25T06:34:52Z</time></trkpt><trkpt lat="39.47803307861782" lon="9.522347572955924"><ele>62.33333333333333</ele><time>2026-04-25T06:34:53Z</time></trkpt><trkpt lat="39.47809225997066" lon="9.522144241069563"><ele>48.666666666666664</ele><time>2026-04-25T06:34:54Z</time></trkpt><trkpt lat="39.47814767249003" lon="9.521939158987614"><ele>35.0</ele><time>2026-04-25T06:34:55Z</time></trkpt><trkpt lat="39.47819970884973" lon="9.521736143441807"><ele>35.0</ele><time>2026-04-25T06:34:56Z</time></trkpt><trkpt lat="39.47825327104838" lon="9.521532986571607"><ele>35.0</ele><time>2026-04-25T06:34:57Z</time></trkpt><trkpt lat="39.47831595562283" lon="9.521334444948975"><ele>35.0</ele><time>2026-04-25T06:34:58Z</time></trkpt><trkpt lat="39.47839324064214" lon="9.521150580432773"><ele>37.666666666666664</ele><time>2026-04-25T06:34:59Z</time></trkpt><trkpt lat="39.47848505501757" lon="9.520975342674163"><ele>40.333333333333336</ele><time>2026-04-25T06:35:00Z</time></trkpt><trkpt lat="39.47858978305562" lon="9.520814561749498"><ele>43.0</ele><time>2026-04-25T06:35:01Z</time></trkpt><trkpt lat="39.478698374648" lon="9.520653008634469"><ele>38.66666666666667</ele><time>2026-04-25T06:35:02Z</time></trkpt><trkpt lat="39.478807154035835" lon="9.520495979531725"><ele>34.333333333333336</ele><time>2026-04-25T06:35:03Z</time></trkpt><trkpt lat="39.47890795172625" lon="9.520323270962397"><ele>30.0</ele><time>2026-04-25T06:35:04Z</time></trkpt><trkpt lat="39.479001468643496" lon="9.52014214994947"><ele>30.0</ele><time>2026-04-25T06:35:05Z</time></trkpt><trkpt lat="39.47908516796277" lon="9.519950558333738"><ele>30.0</ele><time>2026-04-25T06:35:06Z</time></trkpt><trkpt lat="39.47915547429406" lon="9.519751079313103"><ele>30.0</ele><time>2026-04-25T06:35:07Z</time></trkpt><trkpt lat="39.47921529709889" lon="9.519545026999712"><ele>29.333333333333336</ele><time>2026-04-25T06:35:08Z</time></trkpt><trkpt lat="39.479265592268604" lon="9.519333836364778"><ele>28.666666666666668</ele><time>2026-04-25T06:35:09Z</time></trkpt><trkpt lat="39.47931270614664" lon="9.519125196821026"><ele>28.0</ele><time>2026-04-25T06:35:10Z</time></trkpt><trkpt lat="39.47936212189783" lon="9.51891888043775"><ele>28.0</ele><time>2026-04-25T06:35:11Z</time></trkpt><trkpt lat="39.479413140477746" lon="9.518712833644079"><ele>28.0</ele><time>2026-04-25T06:35:12Z</time></trkpt><trkpt lat="39.47946380781005" lon="9.518511174814858"><ele>28.0</ele><time>2026-04-25T06:35:13Z</time></trkpt><trkpt lat="39.47951472743638" lon="9.51831134834513"><ele>28.0</ele><time>2026-04-25T06:35:14Z</time></trkpt><trkpt lat="39.47956731341896" lon="9.518107452224676"><ele>28.0</ele><time>2026-04-25T06:35:15Z</time></trkpt><trkpt lat="39.47961769896483" lon="9.51790515676344"><ele>28.0</ele><time>2026-04-25T06:35:16Z</time></trkpt><trkpt lat="39.47967169305709" lon="9.517703493411677"><ele>26.666666666666668</ele><time>2026-04-25T06:35:17Z</time></trkpt><trkpt lat="39.479733713231255" lon="9.5175069458571"><ele>25.333333333333336</ele><time>2026-04-25T06:35:18Z</time></trkpt><trkpt lat="39.479803243956816" lon="9.517314987439331"><ele>24.0</ele><time>2026-04-25T06:35:19Z</time></trkpt><trkpt lat="39.47987551150987" lon="9.517124762000268"><ele>27.333333333333336</ele><time>2026-04-25T06:35:20Z</time></trkpt><trkpt lat="39.47994746732285" lon="9.516937198012302"><ele>30.666666666666668</ele><time>2026-04-25T06:35:21Z</time></trkpt><trkpt lat="39.480022491127244" lon="9.516749978555863"><ele>34.0</ele><time>2026-04-25T06:35:22Z</time></trkpt><trkpt lat="39.48009758667958" lon="9.516565483516443"><ele>34.0</ele><time>2026-04-25T06:35:23Z</time></trkpt><trkpt lat="39.480173728696705" lon="9.516380124083371"><ele>34.0</ele><time>2026-04-25T06:35:24Z</time></trkpt><trkpt lat="39.48024556306877" lon="9.516194917964109"><ele>34.0</ele><time>2026-04-25T06:35:25Z</time></trkpt><trkpt lat="39.480311472386596" lon="9.516010127295056"><ele>37.0</ele><time>2026-04-25T06:35:26Z</time></trkpt><trkpt lat="39.48036980643715" lon="9.515819705150108"><ele>40.0</ele><time>2026-04-25T06:35:27Z</time></trkpt><trkpt lat="39.48040656210713" lon="9.515615844626181"><ele>43.0</ele><time>2026-04-25T06:35:28Z</time></trkpt><trkpt lat="39.48043014921374" lon="9.51541345801271"><ele>36.0</ele><time>2026-04-25T06:35:29Z</time></trkpt><trkpt lat="39.480450050768454" lon="9.515210547894975"><ele>29.0</ele><time>2026-04-25T06:35:30Z</time></trkpt><trkpt lat="39.480469712557024" lon="9.515007000110032"><ele>22.0</ele><time>2026-04-25T06:35:31Z</time></trkpt><trkpt lat="39.48049164015017" lon="9.514805010402213"><ele>22.0</ele><time>2026-04-25T06:35:32Z</time></trkpt><trkpt lat="39.480510236920864" lon="9.514598896551378"><ele>22.0</ele><time>2026-04-25T06:35:33Z</time></trkpt><trkpt lat="39.48052228901598" lon="9.5143914816491"><ele>22.0</ele><time>2026-04-25T06:35:34Z</time></trkpt><trkpt lat="39.48052210220252" lon="9.514184539556338"><ele>23.666666666666664</ele><time>2026-04-25T06:35:35Z</time></trkpt><trkpt lat="39.480510862060086" lon="9.513977016350191"><ele>25.333333333333332</ele><time>2026-04-25T06:35:36Z</time></trkpt><trkpt lat="39.48049591988404" lon="9.51376888815127"><ele>27.0</ele><time>2026-04-25T06:35:37Z</time></trkpt><trkpt lat="39.48048029431334" lon="9.513561252329225"><ele>27.0</ele><time>2026-04-25T06:35:38Z</time></trkpt><trkpt lat="39.48046524425076" lon="9.513358491286764"><ele>27.0</ele><time>2026-04-25T06:35:39Z</time></trkpt><trkpt lat="39.48044984426105" lon="9.51315365533232"><ele>27.0</ele><time>2026-04-25T06:35:40Z</time></trkpt><trkpt lat="39.48043128331084" lon="9.512951229559203"><ele>35.33333333333333</ele><time>2026-04-25T06:35:41Z</time></trkpt><trkpt lat="39.480411146248336" lon="9.512750063188909"><ele>43.666666666666664</ele><time>2026-04-25T06:35:42Z</time></trkpt><trkpt lat="39.480392849104305" lon="9.512550855745628"><ele>52.0</ele><time>2026-04-25T06:35:43Z</time></trkpt><trkpt lat="39.48037552568494" lon="9.512347688565093"><ele>52.0</ele><time>2026-04-25T06:35:44Z</time></trkpt><trkpt lat="39.480359416518375" lon="9.512146996408546"><ele>52.0</ele><time>2026-04-25T06:35:45Z</time></trkpt><trkpt lat="39.4803385894039" lon="9.511945387509304"><ele>52.0</ele><time>2026-04-25T06:35:46Z</time></trkpt><trkpt lat="39.48029813560244" lon="9.51175060571078"><ele>51.0</ele><time>2026-04-25T06:35:47Z</time></trkpt><trkpt lat="39.48023489551763" lon="9.511565082973771"><ele>50.0</ele><time>2026-04-25T06:35:48Z</time></trkpt><trkpt lat="39.480157220626666" lon="9.511384179999574"><ele>49.0</ele><time>2026-04-25T06:35:49Z</time></trkpt><trkpt lat="39.48006484498855" lon="9.51121110089206"><ele>43.0</ele><time>2026-04-25T06:35:50Z</time></trkpt><trkpt lat="39.47999261412656" lon="9.511028681005456"><ele>37.0</ele><time>2026-04-25T06:35:51Z</time></trkpt><trkpt lat="39.47992312365828" lon="9.510844288851615"><ele>31.0</ele><time>2026-04-25T06:35:52Z</time></trkpt><trkpt lat="39.47984917271939" lon="9.510659760769089"><ele>31.0</ele><time>2026-04-25T06:35:53Z</time></trkpt><trkpt lat="39.47975348668026" lon="9.510452623809433"><ele>31.0</ele><time>2026-04-25T06:35:54Z</time></trkpt><trkpt lat="39.479681422865475" lon="9.510284258127964"><ele>31.0</ele><time>2026-04-25T06:35:55Z</time></trkpt><trkpt lat="39.47959934524508" lon="9.510106903448955"><ele>30.666666666666668</ele><time>2026-04-25T06:35:56Z</time></trkpt><trkpt lat="39.479527612815666" lon="9.509918067965149"><ele>30.333333333333336</ele><time>2026-04-25T06:35:57Z</time></trkpt><trkpt lat="39.47946468184965" lon="9.509718827705584"><ele>30.0</ele><time>2026-04-25T06:35:58Z</time></trkpt><trkpt lat="39.479412825874476" lon="9.509511722698077"><ele>30.0</ele><time>2026-04-25T06:35:59Z</time></trkpt><trkpt lat="39.47936573355042" lon="9.509300127741652"><ele>30.0</ele><time>2026-04-25T06:36:00Z</time></trkpt><trkpt lat="39.47932018515367" lon="9.509084824413016"><ele>30.0</ele><time>2026-04-25T06:36:01Z</time></trkpt><trkpt lat="39.479278679305864" lon="9.508865587471606"><ele>32.0</ele><time>2026-04-25T06:36:02Z</time></trkpt><trkpt lat="39.47924048247162" lon="9.508647568203468"><ele>34.0</ele><time>2026-04-25T06:36:03Z</time></trkpt><trkpt lat="39.479204718577705" lon="9.508426670798947"><ele>36.0</ele><time>2026-04-25T06:36:04Z</time></trkpt><trkpt lat="39.47916946791101" lon="9.508211358445267"><ele>36.0</ele><time>2026-04-25T06:36:05Z</time></trkpt><trkpt lat="39.479134730198446" lon="9.507995103218915"><ele>36.0</ele><time>2026-04-25T06:36:06Z</time></trkpt><trkpt lat="39.47910405300467" lon="9.507783857700705"><ele>36.0</ele><time>2026-04-25T06:36:07Z</time></trkpt><trkpt lat="39.479072245634015" lon="9.507577198467294"><ele>36.666666666666664</ele><time>2026-04-25T06:36:08Z</time></trkpt><trkpt lat="39.4790387652066" lon="9.50737074038949"><ele>37.33333333333333</ele><time>2026-04-25T06:36:09Z</time></trkpt><trkpt lat="39.479005161487656" lon="9.507166442508773"><ele>38.0</ele><time>2026-04-25T06:36:10Z</time></trkpt><trkpt lat="39.47897204567256" lon="9.506963365174565"><ele>39.0</ele><time>2026-04-25T06:36:11Z</time></trkpt><trkpt lat="39.47894192150592" lon="9.506760428512779"><ele>40.0</ele><time>2026-04-25T06:36:12Z</time></trkpt><trkpt lat="39.47891447303619" lon="9.506553896953896"><ele>41.0</ele><time>2026-04-25T06:36:13Z</time></trkpt><trkpt lat="39.47889790047151" lon="9.50634571226405"><ele>41.666666666666664</ele><time>2026-04-25T06:36:14Z</time></trkpt><trkpt lat="39.478888550470145" lon="9.506133532724913"><ele>42.333333333333336</ele><time>2026-04-25T06:36:15Z</time></trkpt><trkpt lat="39.47887936799542" lon="9.505918656922498"><ele>43.0</ele><time>2026-04-25T06:36:16Z</time></trkpt><trkpt lat="39.47886318379752" lon="9.505699329896323"><ele>43.0</ele><time>2026-04-25T06:36:17Z</time></trkpt><trkpt lat="39.47884458624035" lon="9.505480733431957"><ele>43.0</ele><time>2026-04-25T06:36:18Z</time></trkpt><trkpt lat="39.478828985764274" lon="9.505261528480066"><ele>43.0</ele><time>2026-04-25T06:36:19Z</time></trkpt><trkpt lat="39.47881382364061" lon="9.505038176040097"><ele>41.66666666666667</ele><time>2026-04-25T06:36:20Z</time></trkpt><trkpt lat="39.47880310342954" lon="9.50481770538524"><ele>40.333333333333336</ele><time>2026-04-25T06:36:21Z</time></trkpt><trkpt lat="39.47879260317465" lon="9.504598277779436"><ele>39.0</ele><time>2026-04-25T06:36:22Z</time></trkpt><trkpt lat="39.4787790868398" lon="9.50437558903467"><ele>44.66666666666667</ele><time>2026-04-25T06:36:23Z</time></trkpt><trkpt lat="39.47876615630483" lon="9.50415497074214"><ele>50.333333333333336</ele><time>2026-04-25T06:36:24Z</time></trkpt><trkpt lat="39.47875253563866" lon="9.50393593066357"><ele>56.0</ele><time>2026-04-25T06:36:25Z</time></trkpt><trkpt lat="39.47873903923562" lon="9.503715508325703"><ele>56.0</ele><time>2026-04-25T06:36:26Z</time></trkpt><trkpt lat="39.47873169116558" lon="9.503493804972955"><ele>56.0</ele><time>2026-04-25T06:36:27Z</time></trkpt><trkpt lat="39.47874100855961" lon="9.503271770294957"><ele>56.0</ele><time>2026-04-25T06:36:28Z</time></trkpt><trkpt lat="39.47876431814259" lon="9.503052973503697"><ele>48.66666666666667</ele><time>2026-04-25T06:36:29Z</time></trkpt><trkpt lat="39.478796777919" lon="9.502834035964764"><ele>41.333333333333336</ele><time>2026-04-25T06:36:30Z</time></trkpt><trkpt lat="39.47884485011304" lon="9.50261717791593"><ele>34.0</ele><time>2026-04-25T06:36:31Z</time></trkpt><trkpt lat="39.47890546627654" lon="9.502407723662213"><ele>34.0</ele><time>2026-04-25T06:36:32Z</time></trkpt><trkpt lat="39.478977392455754" lon="9.502204366982738"><ele>34.0</ele><time>2026-04-25T06:36:33Z</time></trkpt><trkpt lat="39.479048231935465" lon="9.502001032789503"><ele>34.0</ele><time>2026-04-25T06:36:34Z</time></trkpt><trkpt lat="39.479118972062636" lon="9.501795819645642"><ele>35.66666666666667</ele><time>2026-04-25T06:36:35Z</time></trkpt><trkpt lat="39.479192706552844" lon="9.501595087526402"><ele>37.333333333333336</ele><time>2026-04-25T06:36:36Z</time></trkpt><trkpt lat="39.47927113686081" lon="9.501395925615755"><ele>39.0</ele><time>2026-04-25T06:36:37Z</time></trkpt><trkpt lat="39.47934524974416" lon="9.501195801398541"><ele>40.333333333333336</ele><time>2026-04-25T06:36:38Z</time></trkpt><trkpt lat="39.47942002037145" lon="9.500993401780216"><ele>41.66666666666667</ele><time>2026-04-25T06:36:39Z</time></trkpt><trkpt lat="39.47949108365054" lon="9.500797632353272"><ele>43.0</ele><time>2026-04-25T06:36:40Z</time></trkpt><trkpt lat="39.479561502390624" lon="9.500601572776468"><ele>40.0</ele><time>2026-04-25T06:36:41Z</time></trkpt><trkpt lat="39.479624612655" lon="9.50040207704821"><ele>37.0</ele><time>2026-04-25T06:36:42Z</time></trkpt><trkpt lat="39.479671471734726" lon="9.500196621968264"><ele>34.0</ele><time>2026-04-25T06:36:43Z</time></trkpt><trkpt lat="39.47972232077006" lon="9.499988307752943"><ele>34.0</ele><time>2026-04-25T06:36:44Z</time></trkpt><trkpt lat="39.47974103551358" lon="9.499773457921068"><ele>34.0</ele><time>2026-04-25T06:36:45Z</time></trkpt><trkpt lat="39.47973283242258" lon="9.499553681238726"><ele>34.0</ele><time>2026-04-25T06:36:46Z</time></trkpt><trkpt lat="39.47972686817972" lon="9.499338929658288"><ele>34.66666666666667</ele><time>2026-04-25T06:36:47Z</time></trkpt><trkpt lat="39.47971144813445" lon="9.499122386150338"><ele>35.333333333333336</ele><time>2026-04-25T06:36:48Z</time></trkpt><trkpt lat="39.479693482338696" lon="9.498902373573566"><ele>36.0</ele><time>2026-04-25T06:36:49Z</time></trkpt><trkpt lat="39.47967773425897" lon="9.498686682310733"><ele>36.0</ele><time>2026-04-25T06:36:50Z</time></trkpt><trkpt lat="39.479662738267" lon="9.498472045494639"><ele>36.0</ele><time>2026-04-25T06:36:51Z</time></trkpt><trkpt lat="39.479647881568496" lon="9.498257841402024"><ele>36.0</ele><time>2026-04-25T06:36:52Z</time></trkpt><trkpt lat="39.47964164802698" lon="9.49804496114744"><ele>36.333333333333336</ele><time>2026-04-25T06:36:53Z</time></trkpt><trkpt lat="39.479644044161034" lon="9.497832213334327"><ele>36.66666666666667</ele><time>2026-04-25T06:36:54Z</time></trkpt><trkpt lat="39.4796491007344" lon="9.49761990952255"><ele>37.0</ele><time>2026-04-25T06:36:55Z</time></trkpt><trkpt lat="39.47965952535231" lon="9.497408114673362"><ele>37.0</ele><time>2026-04-25T06:36:56Z</time></trkpt><trkpt lat="39.47967738108595" lon="9.49719790997763"><ele>37.0</ele><time>2026-04-25T06:36:57Z</time></trkpt><trkpt lat="39.479696334992916" lon="9.496990098317497"><ele>37.0</ele><time>2026-04-25T06:36:58Z</time></trkpt><trkpt lat="39.47971365007431" lon="9.496779908499052"><ele>37.66666666666667</ele><time>2026-04-25T06:36:59Z</time></trkpt><trkpt lat="39.47973140657537" lon="9.496571850315977"><ele>38.333333333333336</ele><time>2026-04-25T06:37:00Z</time></trkpt><trkpt lat="39.47974458522907" lon="9.496363482846748"><ele>39.0</ele><time>2026-04-25T06:37:01Z</time></trkpt><trkpt lat="39.47976084767502" lon="9.496156438025048"><ele>40.333333333333336</ele><time>2026-04-25T06:37:02Z</time></trkpt><trkpt lat="39.47977639380742" lon="9.49594922242696"><ele>41.66666666666667</ele><time>2026-04-25T06:37:03Z</time></trkpt><trkpt lat="39.47979816688069" lon="9.495744579370236"><ele>43.0</ele><time>2026-04-25T06:37:04Z</time></trkpt><trkpt lat="39.479817632751704" lon="9.495539017847673"><ele>43.66666666666667</ele><time>2026-04-25T06:37:05Z</time></trkpt><trkpt lat="39.4798356337671" lon="9.495332209461983"><ele>44.333333333333336</ele><time>2026-04-25T06:37:06Z</time></trkpt><trkpt lat="39.47985538426302" lon="9.495126167554982"><ele>45.0</ele><time>2026-04-25T06:37:07Z</time></trkpt><trkpt lat="39.479872938534285" lon="9.494918504089524"><ele>45.0</ele><time>2026-04-25T06:37:08Z</time></trkpt><trkpt lat="39.47989165727866" lon="9.494710604875602"><ele>45.0</ele><time>2026-04-25T06:37:09Z</time></trkpt><trkpt lat="39.47991244131445" lon="9.494505611609705"><ele>45.0</ele><time>2026-04-25T06:37:10Z</time></trkpt><trkpt lat="39.47993177415763" lon="9.494300764841984"><ele>45.666666666666664</ele><time>2026-04-25T06:37:11Z</time></trkpt><trkpt lat="39.47994186141725" lon="9.494091703688055"><ele>46.33333333333333</ele><time>2026-04-25T06:37:12Z</time></trkpt><trkpt lat="39.47995490705313" lon="9.493884807481118"><ele>47.0</ele><time>2026-04-25T06:37:13Z</time></trkpt><trkpt lat="39.479968498098565" lon="9.493679272313369"><ele>48.33333333333333</ele><time>2026-04-25T06:37:14Z</time></trkpt><trkpt lat="39.47997171971718" lon="9.493467900052414"><ele>49.666666666666664</ele><time>2026-04-25T06:37:15Z</time></trkpt><trkpt lat="39.47995216463713" lon="9.493259140217528"><ele>51.0</ele><time>2026-04-25T06:37:16Z</time></trkpt><trkpt lat="39.47991380404762" lon="9.493055006557071"><ele>50.66666666666667</ele><time>2026-04-25T06:37:17Z</time></trkpt><trkpt lat="39.4798877830939" lon="9.492848497514473"><ele>50.333333333333336</ele><time>2026-04-25T06:37:18Z</time></trkpt><trkpt lat="39.47982364440138" lon="9.49264980681482"><ele>50.0</ele><time>2026-04-25T06:37:19Z</time></trkpt><trkpt lat="39.47977853137119" lon="9.492447296934483"><ele>50.0</ele><time>2026-04-25T06:37:20Z</time></trkpt><trkpt lat="39.47972465421439" lon="9.492248589404968"><ele>50.0</ele><time>2026-04-25T06:37:21Z</time></trkpt><trkpt lat="39.47967187130814" lon="9.49205279434782"><ele>50.0</ele><time>2026-04-25T06:37:22Z</time></trkpt><trkpt lat="39.47961762895887" lon="9.491857003183915"><ele>51.0</ele><time>2026-04-25T06:37:23Z</time></trkpt><trkpt lat="39.47956642579253" lon="9.491662349920924"><ele>52.0</ele><time>2026-04-25T06:37:24Z</time></trkpt><trkpt lat="39.479525598817965" lon="9.491463031031243"><ele>53.0</ele><time>2026-04-25T06:37:25Z</time></trkpt><trkpt lat="39.47949227449204" lon="9.491264617499567"><ele>50.0</ele><time>2026-04-25T06:37:26Z</time></trkpt><trkpt lat="39.47946933721768" lon="9.491062596595013"><ele>47.0</ele><time>2026-04-25T06:37:27Z</time></trkpt><trkpt lat="39.479458976852385" lon="9.490856033598341"><ele>44.0</ele><time>2026-04-25T06:37:28Z</time></trkpt><trkpt lat="39.47946220136715" lon="9.490650465092497"><ele>44.0</ele><time>2026-04-25T06:37:29Z</time></trkpt><trkpt lat="39.47947988808125" lon="9.490443037401576"><ele>44.0</ele><time>2026-04-25T06:37:30Z</time></trkpt><trkpt lat="39.47951584885439" lon="9.49023575689323"><ele>44.0</ele><time>2026-04-25T06:37:31Z</time></trkpt><trkpt lat="39.479565570295755" lon="9.49003270796635"><ele>44.33333333333333</ele><time>2026-04-25T06:37:32Z</time></trkpt><trkpt lat="39.47963462830658" lon="9.489836325958558"><ele>44.666666666666664</ele><time>2026-04-25T06:37:33Z</time></trkpt><trkpt lat="39.47971327999242" lon="9.489648217207849"><ele>45.0</ele><time>2026-04-25T06:37:34Z</time></trkpt><trkpt lat="39.47980269065674" lon="9.489467429930196"><ele>49.0</ele><time>2026-04-25T06:37:35Z</time></trkpt><trkpt lat="39.4799001830139" lon="9.489294894448667"><ele>53.0</ele><time>2026-04-25T06:37:36Z</time></trkpt><trkpt lat="39.480004990593365" lon="9.489130244272094"><ele>57.0</ele><time>2026-04-25T06:37:37Z</time></trkpt><trkpt lat="39.4801070945114" lon="9.488972092499637"><ele>57.0</ele><time>2026-04-25T06:37:38Z</time></trkpt><trkpt lat="39.48021066665817" lon="9.488812815530393"><ele>57.0</ele><time>2026-04-25T06:37:39Z</time></trkpt><trkpt lat="39.48031535653609" lon="9.488655386103126"><ele>57.0</ele><time>2026-04-25T06:37:40Z</time></trkpt><trkpt lat="39.4804190935984" lon="9.4884953331829"><ele>54.0</ele><time>2026-04-25T06:37:41Z</time></trkpt><trkpt lat="39.48051970082765" lon="9.488328863980518"><ele>51.0</ele><time>2026-04-25T06:37:42Z</time></trkpt><trkpt lat="39.48061300406605" lon="9.48815774201975"><ele>48.0</ele><time>2026-04-25T06:37:43Z</time></trkpt><trkpt lat="39.48069664785511" lon="9.487975739260094"><ele>50.33333333333333</ele><time>2026-04-25T06:37:44Z</time></trkpt><trkpt lat="39.480769582445" lon="9.487784163483651"><ele>52.666666666666664</ele><time>2026-04-25T06:37:45Z</time></trkpt><trkpt lat="39.48083368796296" lon="9.487586112877711"><ele>55.0</ele><time>2026-04-25T06:37:46Z</time></trkpt><trkpt lat="39.48089372555538" lon="9.487383786390295"><ele>55.0</ele><time>2026-04-25T06:37:47Z</time></trkpt><trkpt lat="39.48094053631167" lon="9.487174389028299"><ele>55.0</ele><time>2026-04-25T06:37:48Z</time></trkpt><trkpt lat="39.480966132685865" lon="9.486961743888777"><ele>55.0</ele><time>2026-04-25T06:37:49Z</time></trkpt><trkpt lat="39.48099785129235" lon="9.486746853192816"><ele>58.33333333333333</ele><time>2026-04-25T06:37:50Z</time></trkpt><trkpt lat="39.48102941498947" lon="9.486535637724204"><ele>61.66666666666667</ele><time>2026-04-25T06:37:51Z</time></trkpt><trkpt lat="39.48106270833741" lon="9.486325451759617"><ele>65.0</ele><time>2026-04-25T06:37:52Z</time></trkpt><trkpt lat="39.48110378111816" lon="9.486119454324108"><ele>67.33333333333334</ele><time>2026-04-25T06:37:53Z</time></trkpt><trkpt lat="39.48115596518054" lon="9.485919538396882"><ele>69.66666666666667</ele><time>2026-04-25T06:37:54Z</time></trkpt><trkpt lat="39.48122011508359" lon="9.485725198617203"><ele>72.0</ele><time>2026-04-25T06:37:55Z</time></trkpt><trkpt lat="39.48129217378095" lon="9.48553593035526"><ele>67.33333333333333</ele><time>2026-04-25T06:37:56Z</time></trkpt><trkpt lat="39.481366412359016" lon="9.48535097284966"><ele>62.666666666666664</ele><time>2026-04-25T06:37:57Z</time></trkpt><trkpt lat="39.48144407008631" lon="9.485172779248378"><ele>58.0</ele><time>2026-04-25T06:37:58Z</time></trkpt><trkpt lat="39.481531710241214" lon="9.484999055592072"><ele>58.0</ele><time>2026-04-25T06:37:59Z</time></trkpt><trkpt lat="39.48163176329548" lon="9.484830658977712"><ele>58.0</ele><time>2026-04-25T06:38:00Z</time></trkpt><trkpt lat="39.48174192608608" lon="9.484674169856891"><ele>58.0</ele><time>2026-04-25T06:38:01Z</time></trkpt><trkpt lat="39.481857460169614" lon="9.484524929666826"><ele>57.33333333333333</ele><time>2026-04-25T06:38:02Z</time></trkpt><trkpt lat="39.481974642909236" lon="9.484385761979548"><ele>56.66666666666667</ele><time>2026-04-25T06:38:03Z</time></trkpt><trkpt lat="39.48210412309307" lon="9.48426040361792"><ele>56.0</ele><time>2026-04-25T06:38:04Z</time></trkpt><trkpt lat="39.48223934771878" lon="9.484141584821563"><ele>56.0</ele><time>2026-04-25T06:38:05Z</time></trkpt><trkpt lat="39.48238003423694" lon="9.484032829379881"><ele>56.0</ele><time>2026-04-25T06:38:06Z</time></trkpt><trkpt lat="39.482519557736126" lon="9.483926910758749"><ele>56.0</ele><time>2026-04-25T06:38:07Z</time></trkpt><trkpt lat="39.482658784578476" lon="9.483825337562278"><ele>58.66666666666667</ele><time>2026-04-25T06:38:08Z</time></trkpt><trkpt lat="39.48280084443627" lon="9.483717795240658"><ele>61.33333333333333</ele><time>2026-04-25T06:38:09Z</time></trkpt><trkpt lat="39.482936262329744" lon="9.483605097414973"><ele>64.0</ele><time>2026-04-25T06:38:10Z</time></trkpt><trkpt lat="39.48308050336578" lon="9.483514305004277"><ele>64.0</ele><time>2026-04-25T06:38:11Z</time></trkpt><trkpt lat="39.48320403658132" lon="9.483388107948459"><ele>64.0</ele><time>2026-04-25T06:38:12Z</time></trkpt><trkpt lat="39.48333888560949" lon="9.483287865459166"><ele>64.0</ele><time>2026-04-25T06:38:13Z</time></trkpt><trkpt lat="39.483456887170796" lon="9.483157390435254"><ele>64.0</ele><time>2026-04-25T06:38:14Z</time></trkpt><trkpt lat="39.48356328936909" lon="9.483025877550839"><ele>64.0</ele><time>2026-04-25T06:38:15Z</time></trkpt><trkpt lat="39.48368534408838" lon="9.482855971465309"><ele>64.0</ele><time>2026-04-25T06:38:16Z</time></trkpt><trkpt lat="39.48378147534523" lon="9.482682255544617"><ele>60.0</ele><time>2026-04-25T06:38:17Z</time></trkpt><trkpt lat="39.48388561822235" lon="9.482525679607086"><ele>56.0</ele><time>2026-04-25T06:38:18Z</time></trkpt><trkpt lat="39.48396011141078" lon="9.482390314095076"><ele>52.0</ele><time>2026-04-25T06:38:19Z</time></trkpt><trkpt lat="39.48403187421124" lon="9.48216195860768"><ele>56.75</ele><time>2026-04-25T06:38:20Z</time></trkpt><trkpt lat="39.48407067515128" lon="9.482008979845473"><ele>61.5</ele><time>2026-04-25T06:38:21Z</time></trkpt><trkpt lat="39.484119982789665" lon="9.481878099628307"><ele>66.25</ele><time>2026-04-25T06:38:22Z</time></trkpt><trkpt lat="39.48416910078194" lon="9.481738125376111"><ele>71.0</ele><time>2026-04-25T06:38:23Z</time></trkpt><trkpt lat="39.48420488318018" lon="9.481578223831114"><ele>71.0</ele><time>2026-04-25T06:38:24Z</time></trkpt><trkpt lat="39.48424151626894" lon="9.48136043403089"><ele>71.0</ele><time>2026-04-25T06:38:25Z</time></trkpt><trkpt lat="39.4842239807699" lon="9.48113241706761"><ele>71.0</ele><time>2026-04-25T06:38:26Z</time></trkpt><trkpt lat="39.48423151168102" lon="9.480906237572748"><ele>72.75</ele><time>2026-04-25T06:38:27Z</time></trkpt><trkpt lat="39.484224979388344" lon="9.480707385808637"><ele>74.5</ele><time>2026-04-25T06:38:28Z</time></trkpt><trkpt lat="39.484194418839465" lon="9.480523536157763"><ele>76.25</ele><time>2026-04-25T06:38:29Z</time></trkpt><trkpt lat="39.48417776754399" lon="9.480336943021673"><ele>78.0</ele><time>2026-04-25T06:38:30Z</time></trkpt><trkpt lat="39.48414779843799" lon="9.480157224839438"><ele>78.0</ele><time>2026-04-25T06:38:31Z</time></trkpt><trkpt lat="39.48410742694729" lon="9.479979075843477"><ele>78.0</ele><time>2026-04-25T06:38:32Z</time></trkpt><trkpt lat="39.4840585187588" lon="9.479806364804091"><ele>78.0</ele><time>2026-04-25T06:38:33Z</time></trkpt><trkpt lat="39.48400541668755" lon="9.479633841354893"><ele>78.0</ele><time>2026-04-25T06:38:34Z</time></trkpt><trkpt lat="39.48395447562855" lon="9.479458898902553"><ele>76.5</ele><time>2026-04-25T06:38:35Z</time></trkpt><trkpt lat="39.48390394877481" lon="9.479282235849084"><ele>75.0</ele><time>2026-04-25T06:38:36Z</time></trkpt><trkpt lat="39.48385571965687" lon="9.479102425688517"><ele>73.5</ele><time>2026-04-25T06:38:37Z</time></trkpt><trkpt lat="39.483805578052014" lon="9.478921148091011"><ele>72.0</ele><time>2026-04-25T06:38:38Z</time></trkpt><trkpt lat="39.4837664128151" lon="9.478734653522062"><ele>75.66666666666667</ele><time>2026-04-25T06:38:39Z</time></trkpt><trkpt lat="39.48373524221003" lon="9.478539743203076"><ele>79.33333333333334</ele><time>2026-04-25T06:38:40Z</time></trkpt><trkpt lat="39.4837168320856" lon="9.478344191955381"><ele>83.0</ele><time>2026-04-25T06:38:41Z</time></trkpt><trkpt lat="39.48370789275938" lon="9.478143359186248"><ele>83.0</ele><time>2026-04-25T06:38:42Z</time></trkpt><trkpt lat="39.48371339857285" lon="9.477939499747071"><ele>83.0</ele><time>2026-04-25T06:38:43Z</time></trkpt><trkpt lat="39.48373223251226" lon="9.47773702589693"><ele>83.0</ele><time>2026-04-25T06:38:44Z</time></trkpt><trkpt lat="39.483766200324496" lon="9.477536317787841"><ele>81.66666666666667</ele><time>2026-04-25T06:38:45Z</time></trkpt><trkpt lat="39.48381548703348" lon="9.477341194284207"><ele>80.33333333333333</ele><time>2026-04-25T06:38:46Z</time></trkpt><trkpt lat="39.48388054844527" lon="9.477148633445063"><ele>79.0</ele><time>2026-04-25T06:38:47Z</time></trkpt><trkpt lat="39.483956158154555" lon="9.47696867603435"><ele>85.33333333333333</ele><time>2026-04-25T06:38:48Z</time></trkpt><trkpt lat="39.484041308268345" lon="9.476788881947826"><ele>91.66666666666666</ele><time>2026-04-25T06:38:49Z</time></trkpt><trkpt lat="39.48413578706041" lon="9.476619995337662"><ele>98.0</ele><time>2026-04-25T06:38:50Z</time></trkpt><trkpt lat="39.484229828971095" lon="9.47645929706398"><ele>98.0</ele><time>2026-04-25T06:38:51Z</time></trkpt><trkpt lat="39.4843268803292" lon="9.476295787741483"><ele>98.0</ele><time>2026-04-25T06:38:52Z</time></trkpt><trkpt lat="39.48442683222547" lon="9.476131442418955"><ele>98.0</ele><time>2026-04-25T06:38:53Z</time></trkpt><trkpt lat="39.48452358585911" lon="9.475972059483523"><ele>93.66666666666666</ele><time>2026-04-25T06:38:54Z</time></trkpt><trkpt lat="39.48462473460688" lon="9.475813572509457"><ele>89.33333333333333</ele><time>2026-04-25T06:38:55Z</time></trkpt><trkpt lat="39.48472732448499" lon="9.475652977922822"><ele>85.0</ele><time>2026-04-25T06:38:56Z</time></trkpt><trkpt lat="39.48481983869657" lon="9.475493468130304"><ele>92.33333333333333</ele><time>2026-04-25T06:38:57Z</time></trkpt><trkpt lat="39.48491855732933" lon="9.475335492175807"><ele>99.66666666666666</ele><time>2026-04-25T06:38:58Z</time></trkpt><trkpt lat="39.485022260260415" lon="9.47517645887196"><ele>107.0</ele><time>2026-04-25T06:38:59Z</time></trkpt><trkpt lat="39.48511857478752" lon="9.475020115213338"><ele>107.0</ele><time>2026-04-25T06:39:00Z</time></trkpt><trkpt lat="39.48521198513767" lon="9.474865305438206"><ele>107.0</ele><time>2026-04-25T06:39:01Z</time></trkpt><trkpt lat="39.485314396635154" lon="9.474710557888683"><ele>107.0</ele><time>2026-04-25T06:39:02Z</time></trkpt><trkpt lat="39.4854157281405" lon="9.474557202701657"><ele>105.0</ele><time>2026-04-25T06:39:03Z</time></trkpt><trkpt lat="39.48551292790342" lon="9.474401029803131"><ele>103.0</ele><time>2026-04-25T06:39:04Z</time></trkpt><trkpt lat="39.485588636638475" lon="9.474227227318627"><ele>101.0</ele><time>2026-04-25T06:39:05Z</time></trkpt><trkpt lat="39.485644051909475" lon="9.474036873597239"><ele>101.0</ele><time>2026-04-25T06:39:06Z</time></trkpt><trkpt lat="39.48566742094514" lon="9.473832181897512"><ele>101.0</ele><time>2026-04-25T06:39:07Z</time></trkpt><trkpt lat="39.485676848611845" lon="9.4736253869934"><ele>101.0</ele><time>2026-04-25T06:39:08Z</time></trkpt><trkpt lat="39.485662694258394" lon="9.473418045458423"><ele>100.33333333333333</ele><time>2026-04-25T06:39:09Z</time></trkpt><trkpt lat="39.48563225740653" lon="9.473216221192358"><ele>99.66666666666666</ele><time>2026-04-25T06:39:10Z</time></trkpt><trkpt lat="39.48557443642396" lon="9.473031002737292"><ele>99.0</ele><time>2026-04-25T06:39:11Z</time></trkpt><trkpt lat="39.48549211939951" lon="9.472850855571458"><ele>99.33333333333334</ele><time>2026-04-25T06:39:12Z</time></trkpt><trkpt lat="39.48539270536732" lon="9.472691273825248"><ele>99.66666666666667</ele><time>2026-04-25T06:39:13Z</time></trkpt><trkpt lat="39.485272488552376" lon="9.472557114388586"><ele>100.0</ele><time>2026-04-25T06:39:14Z</time></trkpt><trkpt lat="39.48514656125539" lon="9.472433288469892"><ele>100.0</ele><time>2026-04-25T06:39:15Z</time></trkpt><trkpt lat="39.48502867423346" lon="9.47230027358937"><ele>100.0</ele><time>2026-04-25T06:39:16Z</time></trkpt><trkpt lat="39.48493416246462" lon="9.47213821170475"><ele>100.0</ele><time>2026-04-25T06:39:17Z</time></trkpt><trkpt lat="39.48487927166465" lon="9.471946392454706"><ele>96.33333333333334</ele><time>2026-04-25T06:39:18Z</time></trkpt><trkpt lat="39.484838832006346" lon="9.471742692531262"><ele>92.66666666666667</ele><time>2026-04-25T06:39:19Z</time></trkpt><trkpt lat="39.48483269300343" lon="9.471532970139448"><ele>89.0</ele><time>2026-04-25T06:39:20Z</time></trkpt><trkpt lat="39.48485723775361" lon="9.471324329036431"><ele>88.0</ele><time>2026-04-25T06:39:21Z</time></trkpt><trkpt lat="39.484911431109595" lon="9.471124296969975"><ele>87.0</ele><time>2026-04-25T06:39:22Z</time></trkpt><trkpt lat="39.48496948982888" lon="9.470921096630022"><ele>86.0</ele><time>2026-04-25T06:39:23Z</time></trkpt><trkpt lat="39.48504588394937" lon="9.470729774099715"><ele>86.0</ele><time>2026-04-25T06:39:24Z</time></trkpt><trkpt lat="39.4851168006826" lon="9.470532304956071"><ele>86.0</ele><time>2026-04-25T06:39:25Z</time></trkpt><trkpt lat="39.485186569207976" lon="9.4703335801089"><ele>86.0</ele><time>2026-04-25T06:39:26Z</time></trkpt><trkpt lat="39.485253365825656" lon="9.470134920764911"><ele>87.0</ele><time>2026-04-25T06:39:27Z</time></trkpt><trkpt lat="39.48530577433096" lon="9.469926826490632"><ele>88.0</ele><time>2026-04-25T06:39:28Z</time></trkpt><trkpt lat="39.48534375478489" lon="9.469714229489524"><ele>89.0</ele><time>2026-04-25T06:39:29Z</time></trkpt><trkpt lat="39.48537499371385" lon="9.469499903475976"><ele>90.66666666666667</ele><time>2026-04-25T06:39:30Z</time></trkpt><trkpt lat="39.48539858482922" lon="9.469281383920041"><ele>92.33333333333333</ele><time>2026-04-25T06:39:31Z</time></trkpt><trkpt lat="39.48541132133798" lon="9.46905997860535"><ele>94.0</ele><time>2026-04-25T06:39:32Z</time></trkpt><trkpt lat="39.48541850926375" lon="9.468835327011087"><ele>94.66666666666666</ele><time>2026-04-25T06:39:33Z</time></trkpt><trkpt lat="39.48542685546684" lon="9.468610266232107"><ele>95.33333333333333</ele><time>2026-04-25T06:39:34Z</time></trkpt><trkpt lat="39.485435596238325" lon="9.468384066494375"><ele>96.0</ele><time>2026-04-25T06:39:35Z</time></trkpt><trkpt lat="39.48544234275119" lon="9.468158367158646"><ele>86.33333333333333</ele><time>2026-04-25T06:39:36Z</time></trkpt><trkpt lat="39.48544840562689" lon="9.46793133703604"><ele>76.66666666666666</ele><time>2026-04-25T06:39:37Z</time></trkpt><trkpt lat="39.4854519505184" lon="9.467704615674862"><ele>67.0</ele><time>2026-04-25T06:39:38Z</time></trkpt><trkpt lat="39.48545004837278" lon="9.467480842372375"><ele>67.0</ele><time>2026-04-25T06:39:39Z</time></trkpt><trkpt lat="39.48543649301411" lon="9.467257982666546"><ele>67.0</ele><time>2026-04-25T06:39:40Z</time></trkpt><trkpt lat="39.48541135481243" lon="9.46703759153393"><ele>67.0</ele><time>2026-04-25T06:39:41Z</time></trkpt><trkpt lat="39.48537908987962" lon="9.466818026115835"><ele>65.66666666666666</ele><time>2026-04-25T06:39:42Z</time></trkpt><trkpt lat="39.485348199038576" lon="9.466599547125876"><ele>64.33333333333333</ele><time>2026-04-25T06:39:43Z</time></trkpt><trkpt lat="39.48531177078901" lon="9.466376791009937"><ele>63.0</ele><time>2026-04-25T06:39:44Z</time></trkpt><trkpt lat="39.485272492141696" lon="9.466158248686142"><ele>63.0</ele><time>2026-04-25T06:39:45Z</time></trkpt><trkpt lat="39.485247544947235" lon="9.465930969747113"><ele>63.0</ele><time>2026-04-25T06:39:46Z</time></trkpt><trkpt lat="39.485208201952794" lon="9.465709161666092"><ele>63.0</ele><time>2026-04-25T06:39:47Z</time></trkpt><trkpt lat="39.48515594116486" lon="9.465487023137882"><ele>60.33333333333333</ele><time>2026-04-25T06:39:48Z</time></trkpt><trkpt lat="39.4851229655999" lon="9.465261726215783"><ele>57.666666666666664</ele><time>2026-04-25T06:39:49Z</time></trkpt><trkpt lat="39.485084200559186" lon="9.465035440281852"><ele>55.0</ele><time>2026-04-25T06:39:50Z</time></trkpt><trkpt lat="39.485042266989986" lon="9.464809148619208"><ele>53.33333333333333</ele><time>2026-04-25T06:39:51Z</time></trkpt><trkpt lat="39.48499944686275" lon="9.46458159178416"><ele>51.66666666666667</ele><time>2026-04-25T06:39:52Z</time></trkpt><trkpt lat="39.484963159315875" lon="9.4643536255075"><ele>50.0</ele><time>2026-04-25T06:39:53Z</time></trkpt><trkpt lat="39.48492008941882" lon="9.464126787299929"><ele>50.0</ele><time>2026-04-25T06:39:54Z</time></trkpt><trkpt lat="39.48488495652228" lon="9.463895407383266"><ele>50.0</ele><time>2026-04-25T06:39:55Z</time></trkpt><trkpt lat="39.4848599411492" lon="9.463663456315587"><ele>50.0</ele><time>2026-04-25T06:39:56Z</time></trkpt><trkpt lat="39.484845597543675" lon="9.463428967187568"><ele>48.333333333333336</ele><time>2026-04-25T06:39:57Z</time></trkpt><trkpt lat="39.48484932766638" lon="9.463193796933796"><ele>46.66666666666667</ele><time>2026-04-25T06:39:58Z</time></trkpt><trkpt lat="39.48485611178866" lon="9.462960307999822"><ele>45.0</ele><time>2026-04-25T06:39:59Z</time></trkpt><trkpt lat="39.48487027867271" lon="9.462730710517375"><ele>44.333333333333336</ele><time>2026-04-25T06:40:00Z</time></trkpt><trkpt lat="39.4848839470072" lon="9.46249840888982"><ele>43.66666666666667</ele><time>2026-04-25T06:40:01Z</time></trkpt><trkpt lat="39.48489644152063" lon="9.462273639472484"><ele>43.0</ele><time>2026-04-25T06:40:02Z</time></trkpt><trkpt lat="39.484904693323955" lon="9.462045345206542"><ele>44.333333333333336</ele><time>2026-04-25T06:40:03Z</time></trkpt><trkpt lat="39.48491159885651" lon="9.461822386486482"><ele>45.666666666666664</ele><time>2026-04-25T06:40:04Z</time></trkpt><trkpt lat="39.484919784499866" lon="9.46159864014053"><ele>47.0</ele><time>2026-04-25T06:40:05Z</time></trkpt><trkpt lat="39.48493160820995" lon="9.461377231663034"><ele>46.33333333333333</ele><time>2026-04-25T06:40:06Z</time></trkpt><trkpt lat="39.48494230956668" lon="9.461157549282207"><ele>45.666666666666664</ele><time>2026-04-25T06:40:07Z</time></trkpt><trkpt lat="39.48495608455383" lon="9.460937748175178"><ele>45.0</ele><time>2026-04-25T06:40:08Z</time></trkpt><trkpt lat="39.484976781763685" lon="9.460723651833108"><ele>45.0</ele><time>2026-04-25T06:40:09Z</time></trkpt><trkpt lat="39.48500668422655" lon="9.460511176644665"><ele>45.0</ele><time>2026-04-25T06:40:10Z</time></trkpt><trkpt lat="39.485046248667125" lon="9.460306576258075"><ele>45.0</ele><time>2026-04-25T06:40:11Z</time></trkpt><trkpt lat="39.485096571045034" lon="9.460101621833159"><ele>46.33333333333333</ele><time>2026-04-25T06:40:12Z</time></trkpt><trkpt lat="39.48515437042791" lon="9.459904447277978"><ele>47.666666666666664</ele><time>2026-04-25T06:40:13Z</time></trkpt><trkpt lat="39.485218573895004" lon="9.459705047192896"><ele>49.0</ele><time>2026-04-25T06:40:14Z</time></trkpt><trkpt lat="39.485285628408334" lon="9.459506808685665"><ele>46.33333333333333</ele><time>2026-04-25T06:40:15Z</time></trkpt><trkpt lat="39.485353334221635" lon="9.45931201149233"><ele>43.666666666666664</ele><time>2026-04-25T06:40:16Z</time></trkpt><trkpt lat="39.48542030126105" lon="9.459117076620785"><ele>41.0</ele><time>2026-04-25T06:40:17Z</time></trkpt><trkpt lat="39.48548836166812" lon="9.458925999118682"><ele>44.0</ele><time>2026-04-25T06:40:18Z</time></trkpt><trkpt lat="39.48555623243876" lon="9.458728821846876"><ele>47.0</ele><time>2026-04-25T06:40:19Z</time></trkpt><trkpt lat="39.48562361422236" lon="9.45853879898576"><ele>50.0</ele><time>2026-04-25T06:40:20Z</time></trkpt><trkpt lat="39.48569386854707" lon="9.458345379319242"><ele>50.0</ele><time>2026-04-25T06:40:21Z</time></trkpt><trkpt lat="39.48576151603587" lon="9.458160197075442"><ele>50.0</ele><time>2026-04-25T06:40:22Z</time></trkpt><trkpt lat="39.485828465218404" lon="9.457965526848428"><ele>50.0</ele><time>2026-04-25T06:40:23Z</time></trkpt><trkpt lat="39.48588297209119" lon="9.457770239374797"><ele>51.333333333333336</ele><time>2026-04-25T06:40:24Z</time></trkpt><trkpt lat="39.48593148086738" lon="9.45757045318405"><ele>52.66666666666667</ele><time>2026-04-25T06:40:25Z</time></trkpt><trkpt lat="39.4859653976173" lon="9.45736139068534"><ele>54.0</ele><time>2026-04-25T06:40:26Z</time></trkpt><trkpt lat="39.485981036160325" lon="9.457151613090385"><ele>51.666666666666664</ele><time>2026-04-25T06:40:27Z</time></trkpt><trkpt lat="39.485988059986795" lon="9.456940798439527"><ele>49.33333333333333</ele><time>2026-04-25T06:40:28Z</time></trkpt><trkpt lat="39.485987333043276" lon="9.456724245706084"><ele>47.0</ele><time>2026-04-25T06:40:29Z</time></trkpt><trkpt lat="39.485984351247964" lon="9.456509156629009"><ele>47.0</ele><time>2026-04-25T06:40:30Z</time></trkpt><trkpt lat="39.485979882539226" lon="9.456291026467627"><ele>47.0</ele><time>2026-04-25T06:40:31Z</time></trkpt><trkpt lat="39.48597819354559" lon="9.456076190579022"><ele>47.0</ele><time>2026-04-25T06:40:32Z</time></trkpt><trkpt lat="39.48597457095846" lon="9.455860867590774"><ele>45.33333333333333</ele><time>2026-04-25T06:40:33Z</time></trkpt><trkpt lat="39.48597202323809" lon="9.455642345859134"><ele>43.666666666666664</ele><time>2026-04-25T06:40:34Z</time></trkpt><trkpt lat="39.48596947306598" lon="9.455427757599699"><ele>42.0</ele><time>2026-04-25T06:40:35Z</time></trkpt><trkpt lat="39.48596703601413" lon="9.455212349777176"><ele>42.0</ele><time>2026-04-25T06:40:36Z</time></trkpt><trkpt lat="39.48596389598796" lon="9.45499598735529"><ele>42.0</ele><time>2026-04-25T06:40:37Z</time></trkpt><trkpt lat="39.485958609753" lon="9.454782241330099"><ele>42.0</ele><time>2026-04-25T06:40:38Z</time></trkpt><trkpt lat="39.485956153071164" lon="9.454565546173686"><ele>41.666666666666664</ele><time>2026-04-25T06:40:39Z</time></trkpt><trkpt lat="39.485959252588806" lon="9.454347692484484"><ele>41.33333333333333</ele><time>2026-04-25T06:40:40Z</time></trkpt><trkpt lat="39.48597793295714" lon="9.45413389969349"><ele>41.0</ele><time>2026-04-25T06:40:41Z</time></trkpt><trkpt lat="39.48602893286141" lon="9.453925777683082"><ele>41.0</ele><time>2026-04-25T06:40:42Z</time></trkpt><trkpt lat="39.48609815121562" lon="9.453725027092446"><ele>41.0</ele><time>2026-04-25T06:40:43Z</time></trkpt><trkpt lat="39.486182768166714" lon="9.453538287528364"><ele>41.0</ele><time>2026-04-25T06:40:44Z</time></trkpt><trkpt lat="39.48628010127603" lon="9.453364347235302"><ele>41.0</ele><time>2026-04-25T06:40:45Z</time></trkpt><trkpt lat="39.486399511582746" lon="9.453213483837066"><ele>41.0</ele><time>2026-04-25T06:40:46Z</time></trkpt><trkpt lat="39.486538185175355" lon="9.453088431717262"><ele>41.0</ele><time>2026-04-25T06:40:47Z</time></trkpt><trkpt lat="39.48668339929915" lon="9.452977574891815"><ele>43.33333333333333</ele><time>2026-04-25T06:40:48Z</time></trkpt><trkpt lat="39.48683943474973" lon="9.452885297474568"><ele>45.666666666666664</ele><time>2026-04-25T06:40:49Z</time></trkpt><trkpt lat="39.48699738409467" lon="9.452813241391208"><ele>48.0</ele><time>2026-04-25T06:40:50Z</time></trkpt><trkpt lat="39.48716359677566" lon="9.45278256511793"><ele>48.66666666666667</ele><time>2026-04-25T06:40:51Z</time></trkpt><trkpt lat="39.487331711578186" lon="9.45277481951164"><ele>49.333333333333336</ele><time>2026-04-25T06:40:52Z</time></trkpt><trkpt lat="39.4874974299713" lon="9.452791879450267"><ele>50.0</ele><time>2026-04-25T06:40:53Z</time></trkpt><trkpt lat="39.487662663467795" lon="9.45281472538506"><ele>50.0</ele><time>2026-04-25T06:40:54Z</time></trkpt><trkpt lat="39.487827377921654" lon="9.452833301387841"><ele>50.0</ele><time>2026-04-25T06:40:55Z</time></trkpt><trkpt lat="39.487991231476606" lon="9.452852703565718"><ele>50.0</ele><time>2026-04-25T06:40:56Z</time></trkpt><trkpt lat="39.48815473375268" lon="9.452873532011255"><ele>50.333333333333336</ele><time>2026-04-25T06:40:57Z</time></trkpt><trkpt lat="39.48831826496502" lon="9.452894725518373"><ele>50.66666666666667</ele><time>2026-04-25T06:40:58Z</time></trkpt><trkpt lat="39.48848071144189" lon="9.452911463789725"><ele>51.0</ele><time>2026-04-25T06:40:59Z</time></trkpt><trkpt lat="39.4886425679674" lon="9.452928000103347"><ele>51.0</ele><time>2026-04-25T06:41:00Z</time></trkpt><trkpt lat="39.48880491259782" lon="9.452947047454336"><ele>51.0</ele><time>2026-04-25T06:41:01Z</time></trkpt><trkpt lat="39.48896524072168" lon="9.45295442427644"><ele>51.0</ele><time>2026-04-25T06:41:02Z</time></trkpt><trkpt lat="39.48912633276517" lon="9.452942045202615"><ele>51.0</ele><time>2026-04-25T06:41:03Z</time></trkpt><trkpt lat="39.489286351235954" lon="9.452920683960297"><ele>51.0</ele><time>2026-04-25T06:41:04Z</time></trkpt><trkpt lat="39.48944775650675" lon="9.452889439527132"><ele>51.0</ele><time>2026-04-25T06:41:05Z</time></trkpt><trkpt lat="39.48960624701948" lon="9.452844679844178"><ele>50.66666666666667</ele><time>2026-04-25T06:41:06Z</time></trkpt><trkpt lat="39.48976606370849" lon="9.45277966131226"><ele>50.333333333333336</ele><time>2026-04-25T06:41:07Z</time></trkpt><trkpt lat="39.48992628839688" lon="9.45270811959595"><ele>50.0</ele><time>2026-04-25T06:41:08Z</time></trkpt><trkpt lat="39.490089216933534" lon="9.452632151917452"><ele>50.0</ele><time>2026-04-25T06:41:09Z</time></trkpt><trkpt lat="39.490252483699855" lon="9.45254969818946"><ele>50.0</ele><time>2026-04-25T06:41:10Z</time></trkpt><trkpt lat="39.490397733816586" lon="9.452530185327495"><ele>50.0</ele><time>2026-04-25T06:41:11Z</time></trkpt><trkpt lat="39.49055620816015" lon="9.452466763530502"><ele>48.0</ele><time>2026-04-25T06:41:12Z</time></trkpt><trkpt lat="39.490711988021644" lon="9.452414279790565"><ele>46.0</ele><time>2026-04-25T06:41:13Z</time></trkpt><trkpt lat="39.49086864188187" lon="9.45236187688944"><ele>44.0</ele><time>2026-04-25T06:41:14Z</time></trkpt><trkpt lat="39.49102510333638" lon="9.452307344628393"><ele>44.0</ele><time>2026-04-25T06:41:15Z</time></trkpt><trkpt lat="39.49118106982073" lon="9.45225824836821"><ele>44.0</ele><time>2026-04-25T06:41:16Z</time></trkpt><trkpt lat="39.49134183432403" lon="9.452218783667922"><ele>44.0</ele><time>2026-04-25T06:41:17Z</time></trkpt><trkpt lat="39.49150381069328" lon="9.452192576479876"><ele>43.0</ele><time>2026-04-25T06:41:18Z</time></trkpt><trkpt lat="39.491666440734875" lon="9.45217347495004"><ele>42.0</ele><time>2026-04-25T06:41:19Z</time></trkpt><trkpt lat="39.49182849986155" lon="9.452153964483387"><ele>41.0</ele><time>2026-04-25T06:41:20Z</time></trkpt><trkpt lat="39.49199209068008" lon="9.452133878200145"><ele>49.666666666666664</ele><time>2026-04-25T06:41:21Z</time></trkpt><trkpt lat="39.49215369669459" lon="9.452111567320484"><ele>58.33333333333333</ele><time>2026-04-25T06:41:22Z</time></trkpt><trkpt lat="39.49231848946176" lon="9.452089148227643"><ele>67.0</ele><time>2026-04-25T06:41:23Z</time></trkpt><trkpt lat="39.492480138062916" lon="9.452069639263996"><ele>67.0</ele><time>2026-04-25T06:41:24Z</time></trkpt><trkpt lat="39.49264201674074" lon="9.452051884997605"><ele>67.0</ele><time>2026-04-25T06:41:25Z</time></trkpt><trkpt lat="39.4928021564722" lon="9.452032354564892"><ele>67.0</ele><time>2026-04-25T06:41:26Z</time></trkpt><trkpt lat="39.49296380051313" lon="9.452007923914577"><ele>62.0</ele><time>2026-04-25T06:41:27Z</time></trkpt><trkpt lat="39.493123111100786" lon="9.45197509710264"><ele>57.0</ele><time>2026-04-25T06:41:28Z</time></trkpt><trkpt lat="39.493284191129206" lon="9.451940407962134"><ele>52.0</ele><time>2026-04-25T06:41:29Z</time></trkpt><trkpt lat="39.49344504321936" lon="9.45189248724961"><ele>52.0</ele><time>2026-04-25T06:41:30Z</time></trkpt><trkpt lat="39.493603284425625" lon="9.45183960383436"><ele>52.0</ele><time>2026-04-25T06:41:31Z</time></trkpt><trkpt lat="39.49376482532375" lon="9.451787717911714"><ele>52.0</ele><time>2026-04-25T06:41:32Z</time></trkpt><trkpt lat="39.49392448230356" lon="9.451733471652158"><ele>48.666666666666664</ele><time>2026-04-25T06:41:33Z</time></trkpt><trkpt lat="39.4940858425037" lon="9.451679153590117"><ele>45.33333333333333</ele><time>2026-04-25T06:41:34Z</time></trkpt><trkpt lat="39.494248869640955" lon="9.451628462919196"><ele>42.0</ele><time>2026-04-25T06:41:35Z</time></trkpt><trkpt lat="39.49441080504359" lon="9.451594008961264"><ele>42.0</ele><time>2026-04-25T06:41:36Z</time></trkpt><trkpt lat="39.494575457068564" lon="9.451573770714354"><ele>42.0</ele><time>2026-04-25T06:41:37Z</time></trkpt><trkpt lat="39.49473893815021" lon="9.451564753033693"><ele>42.0</ele><time>2026-04-25T06:41:38Z</time></trkpt><trkpt lat="39.4949008452992" lon="9.451564925231972"><ele>44.0</ele><time>2026-04-25T06:41:39Z</time></trkpt><trkpt lat="39.49506200583923" lon="9.451573729107189"><ele>46.0</ele><time>2026-04-25T06:41:40Z</time></trkpt><trkpt lat="39.4952215971104" lon="9.451582923683969"><ele>48.0</ele><time>2026-04-25T06:41:41Z</time></trkpt><trkpt lat="39.49537906592112" lon="9.451597500606493"><ele>48.33333333333333</ele><time>2026-04-25T06:41:42Z</time></trkpt><trkpt lat="39.495536768333054" lon="9.451619811729078"><ele>48.666666666666664</ele><time>2026-04-25T06:41:43Z</time></trkpt><trkpt lat="39.49569066674746" lon="9.451652226047578"><ele>49.0</ele><time>2026-04-25T06:41:44Z</time></trkpt><trkpt lat="39.49584206355438" lon="9.451691442592548"><ele>49.0</ele><time>2026-04-25T06:41:45Z</time></trkpt><trkpt lat="39.49598995151678" lon="9.451737819322332"><ele>49.0</ele><time>2026-04-25T06:41:46Z</time></trkpt><trkpt lat="39.49613679080575" lon="9.451787248473098"><ele>49.0</ele><time>2026-04-25T06:41:47Z</time></trkpt><trkpt lat="39.496283027642285" lon="9.451836290057681"><ele>52.0</ele><time>2026-04-25T06:41:48Z</time></trkpt><trkpt lat="39.49642981056842" lon="9.451883378246078"><ele>55.0</ele><time>2026-04-25T06:41:49Z</time></trkpt><trkpt lat="39.49657782164434" lon="9.451931065921832"><ele>58.0</ele><time>2026-04-25T06:41:50Z</time></trkpt><trkpt lat="39.496727578131434" lon="9.451973272727045"><ele>58.0</ele><time>2026-04-25T06:41:51Z</time></trkpt><trkpt lat="39.49687982858244" lon="9.452008332285033"><ele>58.0</ele><time>2026-04-25T06:41:52Z</time></trkpt><trkpt lat="39.49703400848361" lon="9.45204015620877"><ele>58.0</ele><time>2026-04-25T06:41:53Z</time></trkpt><trkpt lat="39.49718757924682" lon="9.452072152809855"><ele>60.666666666666664</ele><time>2026-04-25T06:41:54Z</time></trkpt><trkpt lat="39.49734206836181" lon="9.45210237981652"><ele>63.33333333333333</ele><time>2026-04-25T06:41:55Z</time></trkpt><trkpt lat="39.49749740245802" lon="9.452125318072712"><ele>66.0</ele><time>2026-04-25T06:41:56Z</time></trkpt><trkpt lat="39.497656301628126" lon="9.452138309472263"><ele>61.33333333333333</ele><time>2026-04-25T06:41:57Z</time></trkpt><trkpt lat="39.497816089451376" lon="9.452148001483103"><ele>56.666666666666664</ele><time>2026-04-25T06:41:58Z</time></trkpt><trkpt lat="39.49797620777418" lon="9.45215574540931"><ele>52.0</ele><time>2026-04-25T06:41:59Z</time></trkpt><trkpt lat="39.49813616149362" lon="9.452158337913163"><ele>52.0</ele><time>2026-04-25T06:42:00Z</time></trkpt><trkpt lat="39.49829726172127" lon="9.45216232380791"><ele>52.0</ele><time>2026-04-25T06:42:01Z</time></trkpt><trkpt lat="39.49845973961696" lon="9.452170224270471"><ele>52.0</ele><time>2026-04-25T06:42:02Z</time></trkpt><trkpt lat="39.498620557496096" lon="9.452173164324446"><ele>53.666666666666664</ele><time>2026-04-25T06:42:03Z</time></trkpt><trkpt lat="39.49878464825831" lon="9.452161449186969"><ele>55.33333333333333</ele><time>2026-04-25T06:42:04Z</time></trkpt><trkpt lat="39.4989430707183" lon="9.452146351942991"><ele>57.0</ele><time>2026-04-25T06:42:05Z</time></trkpt><trkpt lat="39.499102835295965" lon="9.45211847795201"><ele>61.66666666666667</ele><time>2026-04-25T06:42:06Z</time></trkpt><trkpt lat="39.499262912485726" lon="9.452082435842097"><ele>66.33333333333334</ele><time>2026-04-25T06:42:07Z</time></trkpt><trkpt lat="39.499420177152786" lon="9.452035707049264"><ele>71.0</ele><time>2026-04-25T06:42:08Z</time></trkpt><trkpt lat="39.499572955795465" lon="9.45197561765349"><ele>70.0</ele><time>2026-04-25T06:42:09Z</time></trkpt><trkpt lat="39.49972540959956" lon="9.451905314663247"><ele>69.0</ele><time>2026-04-25T06:42:10Z</time></trkpt><trkpt lat="39.499874630591805" lon="9.451828492440889"><ele>68.0</ele><time>2026-04-25T06:42:11Z</time></trkpt><trkpt lat="39.50001982167664" lon="9.451744765158084"><ele>68.0</ele><time>2026-04-25T06:42:12Z</time></trkpt><trkpt lat="39.500159799832296" lon="9.451646739571224"><ele>68.0</ele><time>2026-04-25T06:42:13Z</time></trkpt><trkpt lat="39.500294104075586" lon="9.451535837290082"><ele>68.0</ele><time>2026-04-25T06:42:14Z</time></trkpt><trkpt lat="39.500426228225685" lon="9.45142302590941"><ele>70.0</ele><time>2026-04-25T06:42:15Z</time></trkpt><trkpt lat="39.50055719854477" lon="9.451302975100338"><ele>72.0</ele><time>2026-04-25T06:42:16Z</time></trkpt><trkpt lat="39.50068289550525" lon="9.451177041832182"><ele>74.0</ele><time>2026-04-25T06:42:17Z</time></trkpt><trkpt lat="39.50080131528248" lon="9.451035932180785"><ele>74.0</ele><time>2026-04-25T06:42:18Z</time></trkpt><trkpt lat="39.50091349399584" lon="9.450887903082714"><ele>74.0</ele><time>2026-04-25T06:42:19Z</time></trkpt><trkpt lat="39.5010200199354" lon="9.450728227008115"><ele>74.0</ele><time>2026-04-25T06:42:20Z</time></trkpt><trkpt lat="39.50111945846501" lon="9.45056311654832"><ele>70.33333333333334</ele><time>2026-04-25T06:42:21Z</time></trkpt><trkpt lat="39.50121433550801" lon="9.450393180384102"><ele>66.66666666666667</ele><time>2026-04-25T06:42:22Z</time></trkpt><trkpt lat="39.50130371445346" lon="9.450215187707764"><ele>63.0</ele><time>2026-04-25T06:42:23Z</time></trkpt><trkpt lat="39.501387946520076" lon="9.450033753778069"><ele>63.0</ele><time>2026-04-25T06:42:24Z</time></trkpt><trkpt lat="39.50146667633649" lon="9.449847127098312"><ele>63.0</ele><time>2026-04-25T06:42:25Z</time></trkpt><trkpt lat="39.501533797465065" lon="9.449654075620606"><ele>63.0</ele><time>2026-04-25T06:42:26Z</time></trkpt><trkpt lat="39.50159155873813" lon="9.44945373961574"><ele>66.33333333333333</ele><time>2026-04-25T06:42:27Z</time></trkpt><trkpt lat="39.50164236252512" lon="9.449252565063075"><ele>69.66666666666666</ele><time>2026-04-25T06:42:28Z</time></trkpt><trkpt lat="39.50168551572172" lon="9.449048146421012"><ele>73.0</ele><time>2026-04-25T06:42:29Z</time></trkpt><trkpt lat="39.501715857641464" lon="9.448841008750895"><ele>77.33333333333333</ele><time>2026-04-25T06:42:30Z</time></trkpt><trkpt lat="39.50174328978403" lon="9.44863236228761"><ele>81.66666666666667</ele><time>2026-04-25T06:42:31Z</time></trkpt><trkpt lat="39.50176918853069" lon="9.448423724643256"><ele>86.0</ele><time>2026-04-25T06:42:32Z</time></trkpt><trkpt lat="39.501794137480985" lon="9.44821431595985"><ele>86.0</ele><time>2026-04-25T06:42:33Z</time></trkpt><trkpt lat="39.501818130993996" lon="9.448005345292756"><ele>86.0</ele><time>2026-04-25T06:42:34Z</time></trkpt><trkpt lat="39.50184517549822" lon="9.44779471788161"><ele>86.0</ele><time>2026-04-25T06:42:35Z</time></trkpt><trkpt lat="39.50187134716829" lon="9.44758540543206"><ele>87.0</ele><time>2026-04-25T06:42:36Z</time></trkpt><trkpt lat="39.50189466264495" lon="9.44737605986989"><ele>88.0</ele><time>2026-04-25T06:42:37Z</time></trkpt><trkpt lat="39.501916513842396" lon="9.447163484203761"><ele>89.0</ele><time>2026-04-25T06:42:38Z</time></trkpt><trkpt lat="39.50193833802724" lon="9.446950700195972"><ele>91.0</ele><time>2026-04-25T06:42:39Z</time></trkpt><trkpt lat="39.501962690699216" lon="9.446735814822938"><ele>93.0</ele><time>2026-04-25T06:42:40Z</time></trkpt><trkpt lat="39.50198770268284" lon="9.44652269109639"><ele>95.0</ele><time>2026-04-25T06:42:41Z</time></trkpt><trkpt lat="39.5020090845961" lon="9.446306403232553"><ele>95.66666666666667</ele><time>2026-04-25T06:42:42Z</time></trkpt><trkpt lat="39.50203170590204" lon="9.446088762022741"><ele>96.33333333333334</ele><time>2026-04-25T06:42:43Z</time></trkpt><trkpt lat="39.50205757429773" lon="9.445872646083782"><ele>97.0</ele><time>2026-04-25T06:42:44Z</time></trkpt><trkpt lat="39.502084951478565" lon="9.44565752615685"><ele>89.66666666666667</ele><time>2026-04-25T06:42:45Z</time></trkpt><trkpt lat="39.502108952208665" lon="9.445440002909596"><ele>82.33333333333334</ele><time>2026-04-25T06:42:46Z</time></trkpt><trkpt lat="39.502130130514566" lon="9.445221448928985"><ele>75.0</ele><time>2026-04-25T06:42:47Z</time></trkpt><trkpt lat="39.50215520712029" lon="9.44500222612912"><ele>75.0</ele><time>2026-04-25T06:42:48Z</time></trkpt><trkpt lat="39.502181954454315" lon="9.444785025595795"><ele>75.0</ele><time>2026-04-25T06:42:49Z</time></trkpt><trkpt lat="39.502208666504636" lon="9.444568375689473"><ele>75.0</ele><time>2026-04-25T06:42:50Z</time></trkpt><trkpt lat="39.502234692163725" lon="9.444349787472152"><ele>77.33333333333333</ele><time>2026-04-25T06:42:51Z</time></trkpt><trkpt lat="39.50226040850536" lon="9.444131298701821"><ele>79.66666666666666</ele><time>2026-04-25T06:42:52Z</time></trkpt><trkpt lat="39.50228579029654" lon="9.443915200292466"><ele>82.0</ele><time>2026-04-25T06:42:53Z</time></trkpt><trkpt lat="39.50230958655519" lon="9.443700238702208"><ele>82.66666666666666</ele><time>2026-04-25T06:42:54Z</time></trkpt><trkpt lat="39.502333186524766" lon="9.443488621677687"><ele>83.33333333333333</ele><time>2026-04-25T06:42:55Z</time></trkpt><trkpt lat="39.50235653063604" lon="9.4432763395376"><ele>84.0</ele><time>2026-04-25T06:42:56Z</time></trkpt><trkpt lat="39.502379980868426" lon="9.443061101167725"><ele>84.66666666666667</ele><time>2026-04-25T06:42:57Z</time></trkpt><trkpt lat="39.5024068754256" lon="9.442848347429294"><ele>85.33333333333334</ele><time>2026-04-25T06:42:58Z</time></trkpt><trkpt lat="39.5024318675886" lon="9.442633309544707"><ele>86.0</ele><time>2026-04-25T06:42:59Z</time></trkpt><trkpt lat="39.5024545365956" lon="9.442416649386148"><ele>86.0</ele><time>2026-04-25T06:43:00Z</time></trkpt><trkpt lat="39.50247711675763" lon="9.442201265844206"><ele>86.0</ele><time>2026-04-25T06:43:01Z</time></trkpt><trkpt lat="39.502502603315286" lon="9.441985992930498"><ele>86.0</ele><time>2026-04-25T06:43:02Z</time></trkpt><trkpt lat="39.50252822547089" lon="9.441770694192101"><ele>88.33333333333334</ele><time>2026-04-25T06:43:03Z</time></trkpt><trkpt lat="39.50255366507793" lon="9.441554800040697"><ele>90.66666666666667</ele><time>2026-04-25T06:43:04Z</time></trkpt><trkpt lat="39.502580021738446" lon="9.441342781895791"><ele>93.0</ele><time>2026-04-25T06:43:05Z</time></trkpt><trkpt lat="39.502605785518995" lon="9.4411312957373"><ele>93.66666666666667</ele><time>2026-04-25T06:43:06Z</time></trkpt><trkpt lat="39.50262862113064" lon="9.440918627911383"><ele>94.33333333333334</ele><time>2026-04-25T06:43:07Z</time></trkpt><trkpt lat="39.502654692248974" lon="9.4407077999397"><ele>95.0</ele><time>2026-04-25T06:43:08Z</time></trkpt><trkpt lat="39.50268748149626" lon="9.440494892434385"><ele>94.66666666666667</ele><time>2026-04-25T06:43:09Z</time></trkpt><trkpt lat="39.5027237254536" lon="9.440283832693419"><ele>94.33333333333333</ele><time>2026-04-25T06:43:10Z</time></trkpt><trkpt lat="39.502759454600195" lon="9.440071782895233"><ele>94.0</ele><time>2026-04-25T06:43:11Z</time></trkpt><trkpt lat="39.50279491813711" lon="9.439856906776527"><ele>94.0</ele><time>2026-04-25T06:43:12Z</time></trkpt><trkpt lat="39.50283512674802" lon="9.439643679258507"><ele>94.0</ele><time>2026-04-25T06:43:13Z</time></trkpt><trkpt lat="39.5028785099332" lon="9.439432940385675"><ele>94.0</ele><time>2026-04-25T06:43:14Z</time></trkpt><trkpt lat="39.50292491992253" lon="9.439221737073995"><ele>96.66666666666666</ele><time>2026-04-25T06:43:15Z</time></trkpt><trkpt lat="39.502970440411545" lon="9.439008132544272"><ele>99.33333333333333</ele><time>2026-04-25T06:43:16Z</time></trkpt><trkpt lat="39.50301573408624" lon="9.438793703513776"><ele>102.0</ele><time>2026-04-25T06:43:17Z</time></trkpt><trkpt lat="39.5030653255472" lon="9.438579977587425"><ele>102.0</ele><time>2026-04-25T06:43:18Z</time></trkpt><trkpt lat="39.50311951652115" lon="9.438367048148853"><ele>102.0</ele><time>2026-04-25T06:43:19Z</time></trkpt><trkpt lat="39.50317499109677" lon="9.438153337048737"><ele>102.0</ele><time>2026-04-25T06:43:20Z</time></trkpt><trkpt lat="39.503228235419684" lon="9.437936686065807"><ele>105.0</ele><time>2026-04-25T06:43:21Z</time></trkpt><trkpt lat="39.503279406138816" lon="9.437718090190716"><ele>108.0</ele><time>2026-04-25T06:43:22Z</time></trkpt><trkpt lat="39.5033235796035" lon="9.437493818528475"><ele>111.0</ele><time>2026-04-25T06:43:23Z</time></trkpt><trkpt lat="39.50335234629025" lon="9.437262630885893"><ele>105.0</ele><time>2026-04-25T06:43:24Z</time></trkpt><trkpt lat="39.50336267418284" lon="9.437025089547983"><ele>99.0</ele><time>2026-04-25T06:43:25Z</time></trkpt><trkpt lat="39.50335325784061" lon="9.43678495883655"><ele>93.0</ele><time>2026-04-25T06:43:26Z</time></trkpt><trkpt lat="39.50332548504715" lon="9.436546117104381"><ele>93.0</ele><time>2026-04-25T06:43:27Z</time></trkpt><trkpt lat="39.50328584163365" lon="9.436350154202914"><ele>93.0</ele><time>2026-04-25T06:43:28Z</time></trkpt><trkpt lat="39.503237620599634" lon="9.436134454284327"><ele>93.0</ele><time>2026-04-25T06:43:29Z</time></trkpt><trkpt lat="39.50318592420429" lon="9.43592002237305"><ele>87.66666666666667</ele><time>2026-04-25T06:43:30Z</time></trkpt><trkpt lat="39.50313734088593" lon="9.435702842046727"><ele>82.33333333333334</ele><time>2026-04-25T06:43:31Z</time></trkpt><trkpt lat="39.50310666606993" lon="9.435473694966705"><ele>77.0</ele><time>2026-04-25T06:43:32Z</time></trkpt><trkpt lat="39.5030930592373" lon="9.435248918061966"><ele>77.0</ele><time>2026-04-25T06:43:33Z</time></trkpt><trkpt lat="39.503090034909015" lon="9.435020512018129"><ele>77.0</ele><time>2026-04-25T06:43:34Z</time></trkpt><trkpt lat="39.50310376844536" lon="9.434793933339641"><ele>77.0</ele><time>2026-04-25T06:43:35Z</time></trkpt><trkpt lat="39.50313463164671" lon="9.434568283912496"><ele>77.0</ele><time>2026-04-25T06:43:36Z</time></trkpt><trkpt lat="39.503182972012844" lon="9.434346587630488"><ele>77.0</ele><time>2026-04-25T06:43:37Z</time></trkpt><trkpt lat="39.5032378411106" lon="9.434127039674419"><ele>77.0</ele><time>2026-04-25T06:43:38Z</time></trkpt><trkpt lat="39.50330106212016" lon="9.433912573309852"><ele>80.33333333333334</ele><time>2026-04-25T06:43:39Z</time></trkpt><trkpt lat="39.50336378171068" lon="9.433694726760695"><ele>83.66666666666667</ele><time>2026-04-25T06:43:40Z</time></trkpt><trkpt lat="39.50342604729102" lon="9.43347761780107"><ele>87.0</ele><time>2026-04-25T06:43:41Z</time></trkpt><trkpt lat="39.50348524450036" lon="9.433260479734367"><ele>87.0</ele><time>2026-04-25T06:43:42Z</time></trkpt><trkpt lat="39.503544485151956" lon="9.43304744612511"><ele>87.0</ele><time>2026-04-25T06:43:43Z</time></trkpt><trkpt lat="39.50360306208427" lon="9.432834545619123"><ele>87.0</ele><time>2026-04-25T06:43:44Z</time></trkpt><trkpt lat="39.50365066199728" lon="9.432619074139888"><ele>88.0</ele><time>2026-04-25T06:43:45Z</time></trkpt><trkpt lat="39.50368075612475" lon="9.432397490217106"><ele>89.0</ele><time>2026-04-25T06:43:46Z</time></trkpt><trkpt lat="39.5036950337283" lon="9.432173219206566"><ele>90.0</ele><time>2026-04-25T06:43:47Z</time></trkpt><trkpt lat="39.50369146344073" lon="9.431947317055245"><ele>90.0</ele><time>2026-04-25T06:43:48Z</time></trkpt><trkpt lat="39.503678681901704" lon="9.43172227814553"><ele>90.0</ele><time>2026-04-25T06:43:49Z</time></trkpt><trkpt lat="39.503663129754884" lon="9.431495637515988"><ele>90.0</ele><time>2026-04-25T06:43:50Z</time></trkpt><trkpt lat="39.503645316437016" lon="9.431270549196363"><ele>86.0</ele><time>2026-04-25T06:43:51Z</time></trkpt><trkpt lat="39.5036271759677" lon="9.43104481354166"><ele>82.0</ele><time>2026-04-25T06:43:52Z</time></trkpt><trkpt lat="39.50361020287263" lon="9.430820055503997"><ele>78.0</ele><time>2026-04-25T06:43:53Z</time></trkpt><trkpt lat="39.50359516154754" lon="9.430596483904786"><ele>77.0</ele><time>2026-04-25T06:43:54Z</time></trkpt><trkpt lat="39.50357723975952" lon="9.430372590143211"><ele>76.0</ele><time>2026-04-25T06:43:55Z</time></trkpt><trkpt lat="39.50355714362812" lon="9.430147719519503"><ele>75.0</ele><time>2026-04-25T06:43:56Z</time></trkpt><trkpt lat="39.50354054403125" lon="9.429922723501173"><ele>75.0</ele><time>2026-04-25T06:43:57Z</time></trkpt><trkpt lat="39.50352464399918" lon="9.429698998884211"><ele>75.0</ele><time>2026-04-25T06:43:58Z</time></trkpt><trkpt lat="39.503507162034424" lon="9.4294760775318"><ele>75.0</ele><time>2026-04-25T06:43:59Z</time></trkpt><trkpt lat="39.50348767502254" lon="9.429253155411239"><ele>76.66666666666667</ele><time>2026-04-25T06:44:00Z</time></trkpt><trkpt lat="39.50346858328159" lon="9.429029593355397"><ele>78.33333333333334</ele><time>2026-04-25T06:44:01Z</time></trkpt><trkpt lat="39.5034531673665" lon="9.428806607492062"><ele>80.0</ele><time>2026-04-25T06:44:02Z</time></trkpt><trkpt lat="39.50344431353928" lon="9.42858249574314"><ele>82.33333333333334</ele><time>2026-04-25T06:44:03Z</time></trkpt><trkpt lat="39.50344526106989" lon="9.42835841748175"><ele>84.66666666666667</ele><time>2026-04-25T06:44:04Z</time></trkpt><trkpt lat="39.50345728015514" lon="9.428132374015103"><ele>87.0</ele><time>2026-04-25T06:44:05Z</time></trkpt><trkpt lat="39.50347936811407" lon="9.427906149619231"><ele>87.33333333333333</ele><time>2026-04-25T06:44:06Z</time></trkpt><trkpt lat="39.50351128808451" lon="9.42768137881162"><ele>87.66666666666666</ele><time>2026-04-25T06:44:07Z</time></trkpt><trkpt lat="39.50355308539005" lon="9.427458643428908"><ele>88.0</ele><time>2026-04-25T06:44:08Z</time></trkpt><trkpt lat="39.503608452634765" lon="9.427239524010808"><ele>86.0</ele><time>2026-04-25T06:44:09Z</time></trkpt><trkpt lat="39.50367133435272" lon="9.427022745460587"><ele>84.0</ele><time>2026-04-25T06:44:10Z</time></trkpt><trkpt lat="39.50374610964659" lon="9.42681326648357"><ele>82.0</ele><time>2026-04-25T06:44:11Z</time></trkpt><trkpt lat="39.5038275889649" lon="9.426608857976792"><ele>76.66666666666666</ele><time>2026-04-25T06:44:12Z</time></trkpt><trkpt lat="39.50391176659585" lon="9.426403131576384"><ele>71.33333333333333</ele><time>2026-04-25T06:44:13Z</time></trkpt><trkpt lat="39.503998072069436" lon="9.426195863555307"><ele>66.0</ele><time>2026-04-25T06:44:14Z</time></trkpt><trkpt lat="39.50408504655376" lon="9.425991078941436"><ele>65.33333333333333</ele><time>2026-04-25T06:44:15Z</time></trkpt><trkpt lat="39.504172594768704" lon="9.425785085836678"><ele>64.66666666666666</ele><time>2026-04-25T06:44:16Z</time></trkpt><trkpt lat="39.50426086844624" lon="9.425578691525612"><ele>64.0</ele><time>2026-04-25T06:44:17Z</time></trkpt><trkpt lat="39.50434880190441" lon="9.425374269715673"><ele>63.33333333333333</ele><time>2026-04-25T06:44:18Z</time></trkpt><trkpt lat="39.504438406404645" lon="9.425169140115651"><ele>62.66666666666667</ele><time>2026-04-25T06:44:19Z</time></trkpt><trkpt lat="39.504525765187374" lon="9.42496624553295"><ele>62.0</ele><time>2026-04-25T06:44:20Z</time></trkpt><trkpt lat="39.504614552499206" lon="9.424760131228133"><ele>68.0</ele><time>2026-04-25T06:44:21Z</time></trkpt><trkpt lat="39.50470318635019" lon="9.424557407230322"><ele>74.0</ele><time>2026-04-25T06:44:22Z</time></trkpt><trkpt lat="39.504793706242744" lon="9.424355032625153"><ele>80.0</ele><time>2026-04-25T06:44:23Z</time></trkpt><trkpt lat="39.50488241822772" lon="9.42414795472399"><ele>80.0</ele><time>2026-04-25T06:44:24Z</time></trkpt><trkpt lat="39.50496441514746" lon="9.423943526603084"><ele>80.0</ele><time>2026-04-25T06:44:25Z</time></trkpt><trkpt lat="39.505046086608324" lon="9.423736082614786"><ele>80.0</ele><time>2026-04-25T06:44:26Z</time></trkpt><trkpt lat="39.5051293757638" lon="9.423530767352611"><ele>85.33333333333334</ele><time>2026-04-25T06:44:27Z</time></trkpt><trkpt lat="39.50521216758898" lon="9.42332674108977"><ele>90.66666666666667</ele><time>2026-04-25T06:44:28Z</time></trkpt><trkpt lat="39.50529052346963" lon="9.423120684097253"><ele>96.0</ele><time>2026-04-25T06:44:29Z</time></trkpt><trkpt lat="39.505366896526745" lon="9.422914012441751"><ele>87.66666666666667</ele><time>2026-04-25T06:44:30Z</time></trkpt><trkpt lat="39.50544335449174" lon="9.422708483958434"><ele>79.33333333333334</ele><time>2026-04-25T06:44:31Z</time></trkpt><trkpt lat="39.50551944373195" lon="9.422503699025846"><ele>71.0</ele><time>2026-04-25T06:44:32Z</time></trkpt><trkpt lat="39.50559560034346" lon="9.422294616785951"><ele>72.33333333333334</ele><time>2026-04-25T06:44:33.026Z</time></trkpt><trkpt lat="39.505664890118815" lon="9.422094279671322"><ele>73.66666666666667</ele><time>2026-04-25T06:44:34Z</time></trkpt><trkpt lat="39.50573707211843" lon="9.421871918182914"><ele>75.0</ele><time>2026-04-25T06:44:35Z</time></trkpt><trkpt lat="39.50580886610068" lon="9.42166224016593"><ele>75.0</ele><time>2026-04-25T06:44:36Z</time></trkpt><trkpt lat="39.50588339483388" lon="9.42145349382099"><ele>75.0</ele><time>2026-04-25T06:44:37Z</time></trkpt><trkpt lat="39.505952640760505" lon="9.421244114039334"><ele>75.0</ele><time>2026-04-25T06:44:38Z</time></trkpt><trkpt lat="39.50602179272407" lon="9.421033549462612"><ele>73.66666666666667</ele><time>2026-04-25T06:44:39Z</time></trkpt><trkpt lat="39.5060924719639" lon="9.420827360815702"><ele>72.33333333333334</ele><time>2026-04-25T06:44:40Z</time></trkpt><trkpt lat="39.50616806600037" lon="9.42062403268231"><ele>71.0</ele><time>2026-04-25T06:44:41Z</time></trkpt><trkpt lat="39.506247915448085" lon="9.420425225002806"><ele>71.0</ele><time>2026-04-25T06:44:42Z</time></trkpt><trkpt lat="39.506330151379984" lon="9.42023029437889"><ele>71.0</ele><time>2026-04-25T06:44:43Z</time></trkpt><trkpt lat="39.50641417786716" lon="9.420034569087385"><ele>71.0</ele><time>2026-04-25T06:44:44Z</time></trkpt><trkpt lat="39.50650478878936" lon="9.419846420690709"><ele>71.0</ele><time>2026-04-25T06:44:45Z</time></trkpt><trkpt lat="39.50660061678942" lon="9.419658579517877"><ele>71.0</ele><time>2026-04-25T06:44:46Z</time></trkpt><trkpt lat="39.50669299804532" lon="9.419472681159982"><ele>71.0</ele><time>2026-04-25T06:44:47Z</time></trkpt><trkpt lat="39.50679182856525" lon="9.419288918227961"><ele>73.66666666666667</ele><time>2026-04-25T06:44:48Z</time></trkpt><trkpt lat="39.50689242534487" lon="9.419107620721652"><ele>76.33333333333333</ele><time>2026-04-25T06:44:49Z</time></trkpt><trkpt lat="39.5070006107002" lon="9.41893450984579"><ele>79.0</ele><time>2026-04-25T06:44:50Z</time></trkpt><trkpt lat="39.50712798247194" lon="9.418779981603725"><ele>79.0</ele><time>2026-04-25T06:44:51Z</time></trkpt><trkpt lat="39.50726912727204" lon="9.418649190858066"><ele>79.0</ele><time>2026-04-25T06:44:52Z</time></trkpt><trkpt lat="39.507421463497025" lon="9.418532311055912"><ele>79.0</ele><time>2026-04-25T06:44:53Z</time></trkpt><trkpt lat="39.50758284512048" lon="9.418434202656103"><ele>79.0</ele><time>2026-04-25T06:44:54Z</time></trkpt><trkpt lat="39.50774997579131" lon="9.418350839991879"><ele>79.0</ele><time>2026-04-25T06:44:55Z</time></trkpt><trkpt lat="39.50792100505219" lon="9.418278705286893"><ele>79.0</ele><time>2026-04-25T06:44:56Z</time></trkpt><trkpt lat="39.50809070714617" lon="9.418211197247189"><ele>77.33333333333333</ele><time>2026-04-25T06:44:57Z</time></trkpt><trkpt lat="39.508256133351026" lon="9.418142210668286"><ele>75.66666666666667</ele><time>2026-04-25T06:44:58Z</time></trkpt><trkpt lat="39.508423231925796" lon="9.418067036802162"><ele>74.0</ele><time>2026-04-25T06:44:59Z</time></trkpt><trkpt lat="39.50858503109787" lon="9.417981940332531"><ele>86.0</ele><time>2026-04-25T06:45:00Z</time></trkpt><trkpt lat="39.50873862002996" lon="9.417877397284679"><ele>98.0</ele><time>2026-04-25T06:45:01Z</time></trkpt><trkpt lat="39.50888256051529" lon="9.417754096705018"><ele>110.0</ele><time>2026-04-25T06:45:02Z</time></trkpt><trkpt lat="39.50901843393031" lon="9.417611465689768"><ele>110.33333333333333</ele><time>2026-04-25T06:45:03Z</time></trkpt><trkpt lat="39.50914423289648" lon="9.417451950707902"><ele>110.66666666666666</ele><time>2026-04-25T06:45:04Z</time></trkpt><trkpt lat="39.50925992003118" lon="9.417277468538439"><ele>111.0</ele><time>2026-04-25T06:45:05Z</time></trkpt><trkpt lat="39.50936532001597" lon="9.417090406582744"><ele>119.66666666666666</ele><time>2026-04-25T06:45:06Z</time></trkpt><trkpt lat="39.5094563184904" lon="9.416888634554303"><ele>128.33333333333331</ele><time>2026-04-25T06:45:07Z</time></trkpt><trkpt lat="39.50953521531583" lon="9.416676421233577"><ele>137.0</ele><time>2026-04-25T06:45:08Z</time></trkpt><trkpt lat="39.50961035781323" lon="9.416461593224177"><ele>141.66666666666666</ele><time>2026-04-25T06:45:09Z</time></trkpt><trkpt lat="39.509688639507544" lon="9.41624186946064"><ele>146.33333333333334</ele><time>2026-04-25T06:45:10.025Z</time></trkpt><trkpt lat="39.5097640359197" lon="9.416028400788438"><ele>151.0</ele><time>2026-04-25T06:45:11.025Z</time></trkpt><trkpt lat="39.50983673248576" lon="9.415813791168635"><ele>151.0</ele><time>2026-04-25T06:45:12.026Z</time></trkpt><trkpt lat="39.50987122244346" lon="9.41570427198412"><ele>151.0</ele><time>2026-04-25T06:45:12.526Z</time></trkpt><trkpt lat="39.50993290426911" lon="9.415508435481666"><ele>151.0</ele><time>2026-04-25T06:45:13.426Z</time></trkpt><trkpt lat="39.510597967889794" lon="9.414113574143814"><ele>129.33333333333334</ele><time>2026-04-25T06:45:20.7Z</time></trkpt><trkpt lat="39.51063506275869" lon="9.413921120289768"><ele>107.66666666666667</ele><time>2026-04-25T06:45:21.65Z</time></trkpt><trkpt lat="39.51071127544828" lon="9.413719699503273"><ele>86.0</ele><time>2026-04-25T06:45:22.6Z</time></trkpt><trkpt lat="39.5107605047604" lon="9.413520623917492"><ele>86.0</ele><time>2026-04-25T06:45:23.55Z</time></trkpt><trkpt lat="39.51081880253149" lon="9.413322164223631"><ele>86.0</ele><time>2026-04-25T06:45:24.5Z</time></trkpt><trkpt lat="39.51087384301665" lon="9.413122967444428"><ele>86.0</ele><time>2026-04-25T06:45:25.45Z</time></trkpt><trkpt lat="39.51092046793104" lon="9.412918936183054"><ele>88.0</ele><time>2026-04-25T06:45:26.4Z</time></trkpt><trkpt lat="39.51096556138245" lon="9.412718829379273"><ele>90.0</ele><time>2026-04-25T06:45:27.35Z</time></trkpt><trkpt lat="39.51100615965853" lon="9.41251841319116"><ele>92.0</ele><time>2026-04-25T06:45:28.3Z</time></trkpt><trkpt lat="39.51104375123345" lon="9.412315332790252"><ele>92.66666666666667</ele><time>2026-04-25T06:45:29.25Z</time></trkpt><trkpt lat="39.51107962117821" lon="9.412112361906111"><ele>93.33333333333333</ele><time>2026-04-25T06:45:30.2Z</time></trkpt><trkpt lat="39.51111630961522" lon="9.41190902812098"><ele>94.0</ele><time>2026-04-25T06:45:31.15Z</time></trkpt><trkpt lat="39.51115218223378" lon="9.411704856870516"><ele>94.0</ele><time>2026-04-25T06:45:32.1Z</time></trkpt><trkpt lat="39.51118751615393" lon="9.411501509163221"><ele>94.0</ele><time>2026-04-25T06:45:33.05Z</time></trkpt><trkpt lat="39.51122500198115" lon="9.411301606154787"><ele>94.0</ele><time>2026-04-25T06:45:34Z</time></trkpt><trkpt lat="39.511267915884176" lon="9.411092319321167"><ele>90.66666666666666</ele><time>2026-04-25T06:45:35Z</time></trkpt><trkpt lat="39.5113165634552" lon="9.410882680941107"><ele>87.33333333333333</ele><time>2026-04-25T06:45:36Z</time></trkpt><trkpt lat="39.511373113739864" lon="9.410678988390446"><ele>84.0</ele><time>2026-04-25T06:45:37Z</time></trkpt><trkpt lat="39.511438704706165" lon="9.410480540681906"><ele>84.0</ele><time>2026-04-25T06:45:38Z</time></trkpt><trkpt lat="39.51151792640954" lon="9.410289577378567"><ele>84.0</ele><time>2026-04-25T06:45:39Z</time></trkpt><trkpt lat="39.511612061801834" lon="9.41011011354923"><ele>84.0</ele><time>2026-04-25T06:45:40Z</time></trkpt><trkpt lat="39.511721604462565" lon="9.409948390782475"><ele>84.0</ele><time>2026-04-25T06:45:41Z</time></trkpt><trkpt lat="39.51184331231609" lon="9.409802748752854"><ele>84.0</ele><time>2026-04-25T06:45:42Z</time></trkpt><trkpt lat="39.5119717820261" lon="9.409662531095906"><ele>84.0</ele><time>2026-04-25T06:45:43Z</time></trkpt><trkpt lat="39.51210707006622" lon="9.409536562692413"><ele>86.66666666666667</ele><time>2026-04-25T06:45:44Z</time></trkpt><trkpt lat="39.512248788157834" lon="9.409429957408584"><ele>89.33333333333334</ele><time>2026-04-25T06:45:45Z</time></trkpt><trkpt lat="39.51239795081578" lon="9.409336207661072"><ele>92.0</ele><time>2026-04-25T06:45:46Z</time></trkpt><trkpt lat="39.51254829227199" lon="9.409249635831179"><ele>92.0</ele><time>2026-04-25T06:45:47Z</time></trkpt><trkpt lat="39.512697822733614" lon="9.409166411948952"><ele>92.0</ele><time>2026-04-25T06:45:48Z</time></trkpt><trkpt lat="39.51284691891154" lon="9.409078745766834"><ele>92.0</ele><time>2026-04-25T06:45:49Z</time></trkpt><trkpt lat="39.51299303511345" lon="9.40898799734648"><ele>93.33333333333334</ele><time>2026-04-25T06:45:50Z</time></trkpt><trkpt lat="39.51313759661868" lon="9.40889620621462"><ele>94.66666666666667</ele><time>2026-04-25T06:45:51Z</time></trkpt><trkpt lat="39.51327914849129" lon="9.408796573794719"><ele>96.0</ele><time>2026-04-25T06:45:52Z</time></trkpt><trkpt lat="39.513414849158245" lon="9.40868230859092"><ele>96.0</ele><time>2026-04-25T06:45:53Z</time></trkpt><trkpt lat="39.51354830134178" lon="9.408549788511534"><ele>96.0</ele><time>2026-04-25T06:45:54Z</time></trkpt><trkpt lat="39.51367863383249" lon="9.40839786475304"><ele>96.0</ele><time>2026-04-25T06:45:55Z</time></trkpt><trkpt lat="39.51382514543255" lon="9.408255896873206"><ele>95.75</ele><time>2026-04-25T06:45:56Z</time></trkpt><trkpt lat="39.513915591558586" lon="9.40817472941324"><ele>95.5</ele><time>2026-04-25T06:45:57Z</time></trkpt><trkpt lat="39.514028442562285" lon="9.408030786874063"><ele>95.25</ele><time>2026-04-25T06:45:58Z</time></trkpt><trkpt lat="39.51414406571076" lon="9.407890298584679"><ele>95.0</ele><time>2026-04-25T06:45:59Z</time></trkpt><trkpt lat="39.51426188738115" lon="9.407747954843844"><ele>95.0</ele><time>2026-04-25T06:46:00Z</time></trkpt><trkpt lat="39.51438247834563" lon="9.407609677852722"><ele>95.0</ele><time>2026-04-25T06:46:01Z</time></trkpt><trkpt lat="39.51450867805505" lon="9.40747643367654"><ele>95.0</ele><time>2026-04-25T06:46:02Z</time></trkpt><trkpt lat="39.51464232543054" lon="9.407348145792227"><ele>95.66666666666667</ele><time>2026-04-25T06:46:03Z</time></trkpt><trkpt lat="39.514781407622806" lon="9.40722484726481"><ele>96.33333333333334</ele><time>2026-04-25T06:46:04Z</time></trkpt><trkpt lat="39.51492367150628" lon="9.4071029502713"><ele>97.0</ele><time>2026-04-25T06:46:05Z</time></trkpt><trkpt lat="39.51506618495678" lon="9.406981642442872"><ele>97.0</ele><time>2026-04-25T06:46:06Z</time></trkpt><trkpt lat="39.51521438907202" lon="9.406866600427067"><ele>97.0</ele><time>2026-04-25T06:46:07Z</time></trkpt><trkpt lat="39.5153663540743" lon="9.40675866192359"><ele>97.0</ele><time>2026-04-25T06:46:08Z</time></trkpt><trkpt lat="39.51550837877161" lon="9.406641686393021"><ele>103.0</ele><time>2026-04-25T06:46:09Z</time></trkpt><trkpt lat="39.515662419967086" lon="9.406541770791561"><ele>109.0</ele><time>2026-04-25T06:46:10Z</time></trkpt><trkpt lat="39.515810018399364" lon="9.406429419618906"><ele>115.0</ele><time>2026-04-25T06:46:11Z</time></trkpt><trkpt lat="39.51595743569457" lon="9.406317206178556"><ele>122.33333333333334</ele><time>2026-04-25T06:46:12Z</time></trkpt><trkpt lat="39.51610455557808" lon="9.406205219560746"><ele>129.66666666666666</ele><time>2026-04-25T06:46:13Z</time></trkpt><trkpt lat="39.51625192037188" lon="9.406093046420859"><ele>137.0</ele><time>2026-04-25T06:46:14Z</time></trkpt><trkpt lat="39.51640321863379" lon="9.40597834345265"><ele>137.0</ele><time>2026-04-25T06:46:15.026Z</time></trkpt><trkpt lat="39.516550995699454" lon="9.405866864494872"><ele>137.0</ele><time>2026-04-25T06:46:16.026Z</time></trkpt><trkpt lat="39.51787731142843" lon="9.40486362027594"><ele>118.66666666666666</ele><time>2026-04-25T06:46:24.35Z</time></trkpt><trkpt lat="39.5180299408593" lon="9.404757264714872"><ele>100.33333333333333</ele><time>2026-04-25T06:46:25.3Z</time></trkpt><trkpt lat="39.51819002106545" lon="9.404652554756039"><ele>82.0</ele><time>2026-04-25T06:46:26.25Z</time></trkpt><trkpt lat="39.51835267470038" lon="9.40455720598569"><ele>82.0</ele><time>2026-04-25T06:46:27.2Z</time></trkpt><trkpt lat="39.51851300234056" lon="9.404469912859069"><ele>82.0</ele><time>2026-04-25T06:46:28.15Z</time></trkpt><trkpt lat="39.518672277206655" lon="9.40437673045443"><ele>82.0</ele><time>2026-04-25T06:46:29.1Z</time></trkpt><trkpt lat="39.51883804287656" lon="9.404295117597272"><ele>76.33333333333333</ele><time>2026-04-25T06:46:30.05Z</time></trkpt><trkpt lat="39.519006847546855" lon="9.404216978021049"><ele>70.66666666666667</ele><time>2026-04-25T06:46:31Z</time></trkpt><trkpt lat="39.51918377487889" lon="9.404142335896148"><ele>65.0</ele><time>2026-04-25T06:46:32Z</time></trkpt><trkpt lat="39.51936025413387" lon="9.404076835706164"><ele>65.0</ele><time>2026-04-25T06:46:33Z</time></trkpt><trkpt lat="39.51953954483291" lon="9.404014312005536"><ele>65.0</ele><time>2026-04-25T06:46:34Z</time></trkpt><trkpt lat="39.51971580864423" lon="9.403960384890016"><ele>65.0</ele><time>2026-04-25T06:46:35Z</time></trkpt><trkpt lat="39.51989219649465" lon="9.403910907257448"><ele>65.0</ele><time>2026-04-25T06:46:36Z</time></trkpt><trkpt lat="39.52006951711877" lon="9.403865774964082"><ele>65.0</ele><time>2026-04-25T06:46:37Z</time></trkpt><trkpt lat="39.52025141407813" lon="9.403822180010645"><ele>65.0</ele><time>2026-04-25T06:46:38Z</time></trkpt><trkpt lat="39.52042776189166" lon="9.403791522753373"><ele>68.0</ele><time>2026-04-25T06:46:39Z</time></trkpt><trkpt lat="39.520607805008545" lon="9.403763425275137"><ele>71.0</ele><time>2026-04-25T06:46:40Z</time></trkpt><trkpt lat="39.5207882001381" lon="9.403733589796579"><ele>74.0</ele><time>2026-04-25T06:46:41Z</time></trkpt><trkpt lat="39.52096936946594" lon="9.403698531348754"><ele>74.0</ele><time>2026-04-25T06:46:42Z</time></trkpt><trkpt lat="39.52114959048747" lon="9.403664162488372"><ele>74.0</ele><time>2026-04-25T06:46:43Z</time></trkpt><trkpt lat="39.52132899802631" lon="9.403631019906223"><ele>74.0</ele><time>2026-04-25T06:46:44Z</time></trkpt><trkpt lat="39.52151187334612" lon="9.403598170398272"><ele>76.0</ele><time>2026-04-25T06:46:45Z</time></trkpt><trkpt lat="39.52169218533773" lon="9.403571433168274"><ele>78.0</ele><time>2026-04-25T06:46:46Z</time></trkpt><trkpt lat="39.52187564940145" lon="9.403538556634532"><ele>80.0</ele><time>2026-04-25T06:46:47Z</time></trkpt><trkpt lat="39.52205199318794" lon="9.40350904221652"><ele>78.33333333333334</ele><time>2026-04-25T06:46:48Z</time></trkpt><trkpt lat="39.52223277997116" lon="9.40346990449844"><ele>76.66666666666667</ele><time>2026-04-25T06:46:49Z</time></trkpt><trkpt lat="39.5224138937868" lon="9.40343730440406"><ele>75.0</ele><time>2026-04-25T06:46:50Z</time></trkpt><trkpt lat="39.52258796971861" lon="9.403410094344034"><ele>75.0</ele><time>2026-04-25T06:46:51Z</time></trkpt><trkpt lat="39.52276629686314" lon="9.403381367650647"><ele>75.0</ele><time>2026-04-25T06:46:52Z</time></trkpt><trkpt lat="39.52294293728259" lon="9.40335201442884"><ele>75.0</ele><time>2026-04-25T06:46:53Z</time></trkpt><trkpt lat="39.52311806310019" lon="9.403319187679356"><ele>73.66666666666667</ele><time>2026-04-25T06:46:54Z</time></trkpt><trkpt lat="39.52329257192513" lon="9.403291060142168"><ele>72.33333333333334</ele><time>2026-04-25T06:46:55Z</time></trkpt><trkpt lat="39.52346624038686" lon="9.403263077792133"><ele>71.0</ele><time>2026-04-25T06:46:56Z</time></trkpt><trkpt lat="39.52364314362733" lon="9.403235498144575"><ele>72.0</ele><time>2026-04-25T06:46:57Z</time></trkpt><trkpt lat="39.52382002235837" lon="9.403206418685308"><ele>73.0</ele><time>2026-04-25T06:46:58Z</time></trkpt><trkpt lat="39.523996756634105" lon="9.403184236174694"><ele>74.0</ele><time>2026-04-25T06:46:59Z</time></trkpt><trkpt lat="39.52417487417732" lon="9.403170634256577"><ele>74.0</ele><time>2026-04-25T06:47:00Z</time></trkpt><trkpt lat="39.524348793496884" lon="9.403170006516422"><ele>74.0</ele><time>2026-04-25T06:47:01Z</time></trkpt><trkpt lat="39.52452493747237" lon="9.403170646738177"><ele>74.0</ele><time>2026-04-25T06:47:02Z</time></trkpt><trkpt lat="39.52470644560879" lon="9.403172053521804"><ele>75.66666666666667</ele><time>2026-04-25T06:47:03Z</time></trkpt><trkpt lat="39.524885821758104" lon="9.403177927709335"><ele>77.33333333333333</ele><time>2026-04-25T06:47:04Z</time></trkpt><trkpt lat="39.52506239100321" lon="9.40319252176534"><ele>79.0</ele><time>2026-04-25T06:47:05Z</time></trkpt><trkpt lat="39.52523733650978" lon="9.403212477459304"><ele>80.0</ele><time>2026-04-25T06:47:06Z</time></trkpt><trkpt lat="39.525411699183145" lon="9.403240934674827"><ele>81.0</ele><time>2026-04-25T06:47:07Z</time></trkpt><trkpt lat="39.52558823154264" lon="9.403273475673782"><ele>82.0</ele><time>2026-04-25T06:47:08Z</time></trkpt><trkpt lat="39.52575963756087" lon="9.40330951802663"><ele>82.0</ele><time>2026-04-25T06:47:09Z</time></trkpt><trkpt lat="39.525931418220274" lon="9.403351172964731"><ele>82.0</ele><time>2026-04-25T06:47:10Z</time></trkpt><trkpt lat="39.526101966937276" lon="9.403390295411004"><ele>82.0</ele><time>2026-04-25T06:47:11Z</time></trkpt><trkpt lat="39.52627588500693" lon="9.403426636890703"><ele>83.33333333333333</ele><time>2026-04-25T06:47:12Z</time></trkpt><trkpt lat="39.526449112613406" lon="9.403460694827254"><ele>84.66666666666667</ele><time>2026-04-25T06:47:13Z</time></trkpt><trkpt lat="39.52662420748617" lon="9.403495790717844"><ele>86.0</ele><time>2026-04-25T06:47:14Z</time></trkpt><trkpt lat="39.52679614966771" lon="9.40353673030037"><ele>86.0</ele><time>2026-04-25T06:47:15Z</time></trkpt><trkpt lat="39.52697277214037" lon="9.403580300102346"><ele>86.0</ele><time>2026-04-25T06:47:16Z</time></trkpt><trkpt lat="39.527138028314965" lon="9.40361787902407"><ele>86.0</ele><time>2026-04-25T06:47:17Z</time></trkpt><trkpt lat="39.5273137760666" lon="9.40365260289349"><ele>86.66666666666667</ele><time>2026-04-25T06:47:18Z</time></trkpt><trkpt lat="39.52748580971835" lon="9.403684792370688"><ele>87.33333333333333</ele><time>2026-04-25T06:47:19Z</time></trkpt><trkpt lat="39.527654967113186" lon="9.403714024400408"><ele>88.0</ele><time>2026-04-25T06:47:20Z</time></trkpt><trkpt lat="39.527826424252716" lon="9.403729771741137"><ele>89.0</ele><time>2026-04-25T06:47:21Z</time></trkpt><trkpt lat="39.52800106036734" lon="9.403740032703853"><ele>90.0</ele><time>2026-04-25T06:47:22Z</time></trkpt><trkpt lat="39.528170894927236" lon="9.403744768901587"><ele>91.0</ele><time>2026-04-25T06:47:23Z</time></trkpt><trkpt lat="39.52834308715241" lon="9.403746115971305"><ele>91.0</ele><time>2026-04-25T06:47:24Z</time></trkpt><trkpt lat="39.52851180253869" lon="9.403740674572697"><ele>91.0</ele><time>2026-04-25T06:47:25Z</time></trkpt><trkpt lat="39.528680518948555" lon="9.40373242535539"><ele>91.0</ele><time>2026-04-25T06:47:26Z</time></trkpt><trkpt lat="39.528845627650114" lon="9.40371230730301"><ele>93.33333333333333</ele><time>2026-04-25T06:47:27Z</time></trkpt><trkpt lat="39.529009120119156" lon="9.40368245949246"><ele>95.66666666666666</ele><time>2026-04-25T06:47:28Z</time></trkpt><trkpt lat="39.529175139273065" lon="9.403651471458279"><ele>98.0</ele><time>2026-04-25T06:47:29Z</time></trkpt><trkpt lat="39.52933666026503" lon="9.40361135176058"><ele>98.0</ele><time>2026-04-25T06:47:30Z</time></trkpt><trkpt lat="39.52950032912002" lon="9.40356722265957"><ele>98.0</ele><time>2026-04-25T06:47:31Z</time></trkpt><trkpt lat="39.52966111297287" lon="9.40351441973672"><ele>98.0</ele><time>2026-04-25T06:47:32Z</time></trkpt><trkpt lat="39.529820098360894" lon="9.403452091355238"><ele>95.0</ele><time>2026-04-25T06:47:33Z</time></trkpt><trkpt lat="39.529980481077" lon="9.403386422607511"><ele>92.0</ele><time>2026-04-25T06:47:34Z</time></trkpt><trkpt lat="39.53013944618974" lon="9.403319602580977"><ele>89.0</ele><time>2026-04-25T06:47:35Z</time></trkpt><trkpt lat="39.53029957447021" lon="9.403244922216347"><ele>82.66666666666667</ele><time>2026-04-25T06:47:36Z</time></trkpt><trkpt lat="39.53045714580528" lon="9.403162728619336"><ele>76.33333333333333</ele><time>2026-04-25T06:47:37Z</time></trkpt><trkpt lat="39.53061576557132" lon="9.403069604557247"><ele>70.0</ele><time>2026-04-25T06:47:38Z</time></trkpt><trkpt lat="39.530770915264995" lon="9.402973502682617"><ele>70.0</ele><time>2026-04-25T06:47:39Z</time></trkpt><trkpt lat="39.530923627430866" lon="9.402867170600853"><ele>70.0</ele><time>2026-04-25T06:47:40Z</time></trkpt><trkpt lat="39.531076645785184" lon="9.402758461992905"><ele>70.0</ele><time>2026-04-25T06:47:41Z</time></trkpt><trkpt lat="39.5312239800308" lon="9.402641494264401"><ele>72.0</ele><time>2026-04-25T06:47:42Z</time></trkpt><trkpt lat="39.53136736361706" lon="9.40251340420899"><ele>74.0</ele><time>2026-04-25T06:47:43Z</time></trkpt><trkpt lat="39.53151023449365" lon="9.402402787797184"><ele>76.0</ele><time>2026-04-25T06:47:44Z</time></trkpt><trkpt lat="39.531656745525034" lon="9.402301143329865"><ele>76.0</ele><time>2026-04-25T06:47:45Z</time></trkpt><trkpt lat="39.53179098724456" lon="9.402185368405178"><ele>76.0</ele><time>2026-04-25T06:47:46Z</time></trkpt><trkpt lat="39.53191235821396" lon="9.40196741387477"><ele>76.0</ele><time>2026-04-25T06:47:47Z</time></trkpt><trkpt lat="39.532035130841614" lon="9.401817824565015"><ele>77.66666666666666</ele><time>2026-04-25T06:47:48Z</time></trkpt><trkpt lat="39.53215577674932" lon="9.401658441446646"><ele>79.33333333333333</ele><time>2026-04-25T06:47:49Z</time></trkpt><trkpt lat="39.5322780050795" lon="9.401498914503986"><ele>81.0</ele><time>2026-04-25T06:47:50Z</time></trkpt><trkpt lat="39.53240135992106" lon="9.40133708534226"><ele>80.33333333333333</ele><time>2026-04-25T06:47:51Z</time></trkpt><trkpt lat="39.53251825131511" lon="9.401176278542287"><ele>79.66666666666666</ele><time>2026-04-25T06:47:52Z</time></trkpt><trkpt lat="39.53263181697288" lon="9.401012111687644"><ele>79.0</ele><time>2026-04-25T06:47:53Z</time></trkpt><trkpt lat="39.53274454737333" lon="9.400842681823928"><ele>79.0</ele><time>2026-04-25T06:47:54Z</time></trkpt><trkpt lat="39.53285363423884" lon="9.400678027022986"><ele>79.0</ele><time>2026-04-25T06:47:55Z</time></trkpt><trkpt lat="39.53296542668657" lon="9.400512487284624"><ele>79.0</ele><time>2026-04-25T06:47:56Z</time></trkpt><trkpt lat="39.533075783582035" lon="9.400347573346796"><ele>80.66666666666666</ele><time>2026-04-25T06:47:57Z</time></trkpt><trkpt lat="39.53318362908687" lon="9.400180333725274"><ele>82.33333333333333</ele><time>2026-04-25T06:47:58Z</time></trkpt><trkpt lat="39.53329104296559" lon="9.400013884232564"><ele>84.0</ele><time>2026-04-25T06:47:59Z</time></trkpt><trkpt lat="39.53339871562072" lon="9.399845792788001"><ele>84.0</ele><time>2026-04-25T06:48:00Z</time></trkpt><trkpt lat="39.53350951055681" lon="9.39967991470396"><ele>84.0</ele><time>2026-04-25T06:48:01Z</time></trkpt><trkpt lat="39.53361750611024" lon="9.399511815313694"><ele>84.0</ele><time>2026-04-25T06:48:02Z</time></trkpt><trkpt lat="39.533726928950955" lon="9.399343837569385"><ele>81.66666666666667</ele><time>2026-04-25T06:48:03Z</time></trkpt><trkpt lat="39.53383634136383" lon="9.399174672950325"><ele>79.33333333333334</ele><time>2026-04-25T06:48:04Z</time></trkpt><trkpt lat="39.533946007339765" lon="9.399004860611521"><ele>77.0</ele><time>2026-04-25T06:48:05Z</time></trkpt><trkpt lat="39.53405369836494" lon="9.398835104261124"><ele>74.0</ele><time>2026-04-25T06:48:06Z</time></trkpt><trkpt lat="39.53416491038511" lon="9.398664037035143"><ele>71.0</ele><time>2026-04-25T06:48:07Z</time></trkpt><trkpt lat="39.53427580236064" lon="9.398496691109814"><ele>68.0</ele><time>2026-04-25T06:48:08Z</time></trkpt><trkpt lat="39.53438920842257" lon="9.398324430931833"><ele>68.0</ele><time>2026-04-25T06:48:09Z</time></trkpt><trkpt lat="39.534500798492296" lon="9.398153554965573"><ele>68.0</ele><time>2026-04-25T06:48:10Z</time></trkpt><trkpt lat="39.53461030541062" lon="9.397980085380468"><ele>68.0</ele><time>2026-04-25T06:48:11Z</time></trkpt><trkpt lat="39.534725323041656" lon="9.397809332102932"><ele>68.0</ele><time>2026-04-25T06:48:12Z</time></trkpt><trkpt lat="39.53483956319545" lon="9.397642192816594"><ele>68.0</ele><time>2026-04-25T06:48:13Z</time></trkpt><trkpt lat="39.53495422245464" lon="9.397471093116746"><ele>68.0</ele><time>2026-04-25T06:48:14Z</time></trkpt><trkpt lat="39.535065385532995" lon="9.39729898806869"><ele>71.33333333333334</ele><time>2026-04-25T06:48:15Z</time></trkpt><trkpt lat="39.53517665364454" lon="9.397125389217237"><ele>74.66666666666667</ele><time>2026-04-25T06:48:16Z</time></trkpt><trkpt lat="39.53528780791332" lon="9.396953947562814"><ele>78.0</ele><time>2026-04-25T06:48:17Z</time></trkpt><trkpt lat="39.535401166828564" lon="9.396783072315968"><ele>78.66666666666667</ele><time>2026-04-25T06:48:18Z</time></trkpt><trkpt lat="39.535512488288525" lon="9.396614115160556"><ele>79.33333333333334</ele><time>2026-04-25T06:48:19Z</time></trkpt><trkpt lat="39.53562443395511" lon="9.396443490528435"><ele>80.0</ele><time>2026-04-25T06:48:20Z</time></trkpt><trkpt lat="39.53573491279004" lon="9.39627465314072"><ele>86.33333333333334</ele><time>2026-04-25T06:48:21Z</time></trkpt><trkpt lat="39.53584557893784" lon="9.396102592994549"><ele>92.66666666666667</ele><time>2026-04-25T06:48:22Z</time></trkpt><trkpt lat="39.535957405487345" lon="9.395931588670345"><ele>99.0</ele><time>2026-04-25T06:48:23Z</time></trkpt><trkpt lat="39.536069403175524" lon="9.395760438564798"><ele>99.0</ele><time>2026-04-25T06:48:24Z</time></trkpt><trkpt lat="39.53618468204726" lon="9.395591313814691"><ele>99.0</ele><time>2026-04-25T06:48:25Z</time></trkpt><trkpt lat="39.5363007525584" lon="9.39543199550252"><ele>99.0</ele><time>2026-04-25T06:48:26Z</time></trkpt><trkpt lat="39.53643156264268" lon="9.395280222859075"><ele>105.66666666666666</ele><time>2026-04-25T06:48:27Z</time></trkpt><trkpt lat="39.53656805379618" lon="9.395147078087808"><ele>112.33333333333333</ele><time>2026-04-25T06:48:28Z</time></trkpt><trkpt lat="39.5367140877043" lon="9.395025590262554"><ele>119.0</ele><time>2026-04-25T06:48:29Z</time></trkpt><trkpt lat="39.53685913475091" lon="9.394906932284549"><ele>119.0</ele><time>2026-04-25T06:48:30Z</time></trkpt><trkpt lat="39.53699785851756" lon="9.394786821680798"><ele>119.0</ele><time>2026-04-25T06:48:31Z</time></trkpt><trkpt lat="39.53713654181507" lon="9.394665085998726"><ele>119.0</ele><time>2026-04-25T06:48:32Z</time></trkpt><trkpt lat="39.53727676742516" lon="9.394546804762097"><ele>120.33333333333333</ele><time>2026-04-25T06:48:33Z</time></trkpt><trkpt lat="39.5374165419135" lon="9.394428940569094"><ele>121.66666666666666</ele><time>2026-04-25T06:48:34Z</time></trkpt><trkpt lat="39.537558641293465" lon="9.394310920800606"><ele>123.0</ele><time>2026-04-25T06:48:35Z</time></trkpt><trkpt lat="39.537695870374584" lon="9.394191788361114"><ele>123.0</ele><time>2026-04-25T06:48:36Z</time></trkpt><trkpt lat="39.53783520424729" lon="9.394071286597526"><ele>123.0</ele><time>2026-04-25T06:48:37Z</time></trkpt><trkpt lat="39.53797464213496" lon="9.393949537206257"><ele>123.0</ele><time>2026-04-25T06:48:38Z</time></trkpt><trkpt lat="39.53811372478265" lon="9.39383112288676"><ele>127.66666666666666</ele><time>2026-04-25T06:48:39Z</time></trkpt><trkpt lat="39.538250359741035" lon="9.393706590272727"><ele>132.33333333333331</ele><time>2026-04-25T06:48:40Z</time></trkpt><trkpt lat="39.538380345194476" lon="9.393567139929296"><ele>137.0</ele><time>2026-04-25T06:48:41Z</time></trkpt><trkpt lat="39.53849244327791" lon="9.39341123815625"><ele>137.0</ele><time>2026-04-25T06:48:42Z</time></trkpt><trkpt lat="39.53860549793486" lon="9.393250848595533"><ele>137.0</ele><time>2026-04-25T06:48:43Z</time></trkpt><trkpt lat="39.53869120565725" lon="9.393058039220426"><ele>137.0</ele><time>2026-04-25T06:48:44Z</time></trkpt><trkpt lat="39.538741054907646" lon="9.392852157295291"><ele>132.33333333333331</ele><time>2026-04-25T06:48:45Z</time></trkpt><trkpt lat="39.538790262854384" lon="9.39264534646634"><ele>127.66666666666666</ele><time>2026-04-25T06:48:46Z</time></trkpt><trkpt lat="39.538834691535506" lon="9.392439697590985"><ele>123.0</ele><time>2026-04-25T06:48:47Z</time></trkpt><trkpt lat="39.53886930060434" lon="9.392222648878063"><ele>123.66666666666666</ele><time>2026-04-25T06:48:48Z</time></trkpt><trkpt lat="39.53891070255241" lon="9.392008024150886"><ele>124.33333333333333</ele><time>2026-04-25T06:48:49Z</time></trkpt><trkpt lat="39.53894736867244" lon="9.391787509416812"><ele>125.0</ele><time>2026-04-25T06:48:50Z</time></trkpt><trkpt lat="39.53898223157867" lon="9.391566357226848"><ele>125.0</ele><time>2026-04-25T06:48:51Z</time></trkpt><trkpt lat="39.539017882301096" lon="9.391344323429333"><ele>125.0</ele><time>2026-04-25T06:48:52Z</time></trkpt><trkpt lat="39.539054837313856" lon="9.39112330879076"><ele>125.0</ele><time>2026-04-25T06:48:53Z</time></trkpt><trkpt lat="39.53909242043983" lon="9.39090212895153"><ele>126.0</ele><time>2026-04-25T06:48:54Z</time></trkpt><trkpt lat="39.53913074358813" lon="9.390682097448723"><ele>127.0</ele><time>2026-04-25T06:48:55Z</time></trkpt><trkpt lat="39.53916895303043" lon="9.390459938681916"><ele>128.0</ele><time>2026-04-25T06:48:56Z</time></trkpt><trkpt lat="39.53920907785003" lon="9.390237827416811"><ele>130.0</ele><time>2026-04-25T06:48:57Z</time></trkpt><trkpt lat="39.53924733792985" lon="9.390015923762112"><ele>132.0</ele><time>2026-04-25T06:48:58Z</time></trkpt><trkpt lat="39.539286976778826" lon="9.389792238941087"><ele>134.0</ele><time>2026-04-25T06:48:59Z</time></trkpt><trkpt lat="39.53932342065463" lon="9.389571338203444"><ele>141.33333333333331</ele><time>2026-04-25T06:49:00Z</time></trkpt><trkpt lat="39.5393592976896" lon="9.389351131353914"><ele>148.66666666666666</ele><time>2026-04-25T06:49:01Z</time></trkpt><trkpt lat="39.5393946069118" lon="9.38913126642959"><ele>156.0</ele><time>2026-04-25T06:49:02Z</time></trkpt><trkpt lat="39.539419676726766" lon="9.388911284968554"><ele>160.0</ele><time>2026-04-25T06:49:03Z</time></trkpt><trkpt lat="39.53943461186117" lon="9.388689408146206"><ele>164.0</ele><time>2026-04-25T06:49:04Z</time></trkpt><trkpt lat="39.53944010286738" lon="9.388465159162955"><ele>168.0</ele><time>2026-04-25T06:49:05Z</time></trkpt><trkpt lat="39.53944069245463" lon="9.38823982919167"><ele>168.0</ele><time>2026-04-25T06:49:06Z</time></trkpt><trkpt lat="39.539440535507616" lon="9.38801559568585"><ele>168.0</ele><time>2026-04-25T06:49:07Z</time></trkpt><trkpt lat="39.53944142352361" lon="9.387789784092769"><ele>168.0</ele><time>2026-04-25T06:49:08Z</time></trkpt><trkpt lat="39.53944146006201" lon="9.387564590997181"><ele>168.66666666666666</ele><time>2026-04-25T06:49:09Z</time></trkpt><trkpt lat="39.539441723384186" lon="9.38734105649719"><ele>169.33333333333331</ele><time>2026-04-25T06:49:10Z</time></trkpt><trkpt lat="39.539439928202704" lon="9.387119119927682"><ele>170.0</ele><time>2026-04-25T06:49:11Z</time></trkpt><trkpt lat="39.539436750689596" lon="9.386896319626484"><ele>172.0</ele><time>2026-04-25T06:49:12Z</time></trkpt><trkpt lat="39.53943376148377" lon="9.38667217338129"><ele>174.0</ele><time>2026-04-25T06:49:13Z</time></trkpt><trkpt lat="39.53943488053476" lon="9.386448249375444"><ele>176.0</ele><time>2026-04-25T06:49:14Z</time></trkpt><trkpt lat="39.53944822131578" lon="9.386228299954505"><ele>177.0</ele><time>2026-04-25T06:49:15Z</time></trkpt><trkpt lat="39.53947698725556" lon="9.386011744281365"><ele>178.0</ele><time>2026-04-25T06:49:16Z</time></trkpt><trkpt lat="39.53952247656666" lon="9.385800901448663"><ele>179.0</ele><time>2026-04-25T06:49:17Z</time></trkpt><trkpt lat="39.5395946407547" lon="9.38560421988649"><ele>170.66666666666666</ele><time>2026-04-25T06:49:18Z</time></trkpt><trkpt lat="39.53967309589586" lon="9.385409737870388"><ele>162.33333333333334</ele><time>2026-04-25T06:49:19Z</time></trkpt><trkpt lat="39.539758484420226" lon="9.385219839620794"><ele>154.0</ele><time>2026-04-25T06:49:20Z</time></trkpt><trkpt lat="39.53984279373406" lon="9.385031858270512"><ele>154.0</ele><time>2026-04-25T06:49:21Z</time></trkpt><trkpt lat="39.539927018867296" lon="9.384842303342731"><ele>154.0</ele><time>2026-04-25T06:49:22Z</time></trkpt><trkpt lat="39.54001115022968" lon="9.384650801765579"><ele>154.0</ele><time>2026-04-25T06:49:23Z</time></trkpt><trkpt lat="39.54010087874331" lon="9.384461096680923"><ele>160.0</ele><time>2026-04-25T06:49:24Z</time></trkpt><trkpt lat="39.54018931666889" lon="9.384268892582798"><ele>166.0</ele><time>2026-04-25T06:49:25Z</time></trkpt><trkpt lat="39.54026478458635" lon="9.384068332877028"><ele>172.0</ele><time>2026-04-25T06:49:26Z</time></trkpt><trkpt lat="39.5403148706998" lon="9.383861468632178"><ele>176.33333333333334</ele><time>2026-04-25T06:49:27Z</time></trkpt><trkpt lat="39.540344424078754" lon="9.383644861263914"><ele>180.66666666666666</ele><time>2026-04-25T06:49:28Z</time></trkpt><trkpt lat="39.54035730453462" lon="9.383419538417293"><ele>185.0</ele><time>2026-04-25T06:49:29Z</time></trkpt><trkpt lat="39.54036351335456" lon="9.383192489073503"><ele>186.0</ele><time>2026-04-25T06:49:30Z</time></trkpt><trkpt lat="39.540375467763006" lon="9.382965091481575"><ele>187.0</ele><time>2026-04-25T06:49:31Z</time></trkpt><trkpt lat="39.54038989369992" lon="9.38273696300148"><ele>188.0</ele><time>2026-04-25T06:49:32Z</time></trkpt><trkpt lat="39.5403988143935" lon="9.382508739120961"><ele>173.0</ele><time>2026-04-25T06:49:33Z</time></trkpt><trkpt lat="39.54040626183772" lon="9.382283893475423"><ele>158.0</ele><time>2026-04-25T06:49:34Z</time></trkpt><trkpt lat="39.54041535919523" lon="9.382057277510116"><ele>143.0</ele><time>2026-04-25T06:49:35Z</time></trkpt><trkpt lat="39.54042357116025" lon="9.381834263331235"><ele>143.0</ele><time>2026-04-25T06:49:36Z</time></trkpt><trkpt lat="39.54043296504121" lon="9.381609259734295"><ele>143.0</ele><time>2026-04-25T06:49:37Z</time></trkpt><trkpt lat="39.54044755922101" lon="9.381385777632026"><ele>143.0</ele><time>2026-04-25T06:49:38Z</time></trkpt><trkpt lat="39.54048175775908" lon="9.381165721353215"><ele>146.66666666666666</ele><time>2026-04-25T06:49:39Z</time></trkpt><trkpt lat="39.54053445211613" lon="9.380958366999039"><ele>150.33333333333334</ele><time>2026-04-25T06:49:40Z</time></trkpt><trkpt lat="39.540610382597855" lon="9.380759702625152"><ele>154.0</ele><time>2026-04-25T06:49:41Z</time></trkpt><trkpt lat="39.54071185011334" lon="9.380579919985037"><ele>163.33333333333334</ele><time>2026-04-25T06:49:42Z</time></trkpt><trkpt lat="39.54083128290425" lon="9.380419038635083"><ele>172.66666666666666</ele><time>2026-04-25T06:49:43Z</time></trkpt><trkpt lat="39.540966328079875" lon="9.38028550858491"><ele>182.0</ele><time>2026-04-25T06:49:44Z</time></trkpt><trkpt lat="39.54110843959985" lon="9.380168558429943"><ele>174.66666666666666</ele><time>2026-04-25T06:49:45Z</time></trkpt><trkpt lat="39.54125531474602" lon="9.380066295398892"><ele>167.33333333333334</ele><time>2026-04-25T06:49:46Z</time></trkpt><trkpt lat="39.54140240260173" lon="9.379967806344325"><ele>160.0</ele><time>2026-04-25T06:49:47Z</time></trkpt><trkpt lat="39.54154867847533" lon="9.379871680276587"><ele>160.0</ele><time>2026-04-25T06:49:48Z</time></trkpt><trkpt lat="39.54168714775695" lon="9.37977003858018"><ele>160.0</ele><time>2026-04-25T06:49:49Z</time></trkpt><trkpt lat="39.54181336531042" lon="9.379643278091294"><ele>160.0</ele><time>2026-04-25T06:49:50Z</time></trkpt><trkpt lat="39.541927148080696" lon="9.379500404391777"><ele>157.66666666666669</ele><time>2026-04-25T06:49:51Z</time></trkpt><trkpt lat="39.54203472342727" lon="9.379341449746702"><ele>155.33333333333334</ele><time>2026-04-25T06:49:52Z</time></trkpt><trkpt lat="39.54212792860688" lon="9.379164597723138"><ele>153.0</ele><time>2026-04-25T06:49:53Z</time></trkpt><trkpt lat="39.54219864073139" lon="9.378975268895923"><ele>152.66666666666666</ele><time>2026-04-25T06:49:54Z</time></trkpt><trkpt lat="39.54224488009726" lon="9.378767203168078"><ele>152.33333333333331</ele><time>2026-04-25T06:49:55Z</time></trkpt><trkpt lat="39.54227578392441" lon="9.378554695930633"><ele>152.0</ele><time>2026-04-25T06:49:56Z</time></trkpt><trkpt lat="39.54228610241659" lon="9.37833619341632"><ele>152.0</ele><time>2026-04-25T06:49:57Z</time></trkpt><trkpt lat="39.54227007098824" lon="9.378116282480136"><ele>152.0</ele><time>2026-04-25T06:49:58Z</time></trkpt><trkpt lat="39.54223640244269" lon="9.377900693933704"><ele>152.0</ele><time>2026-04-25T06:49:59Z</time></trkpt><trkpt lat="39.54218345980803" lon="9.37769063266909"><ele>153.0</ele><time>2026-04-25T06:50:00Z</time></trkpt><trkpt lat="39.54210265430485" lon="9.377495367642572"><ele>154.0</ele><time>2026-04-25T06:50:01Z</time></trkpt><trkpt lat="39.5419992716681" lon="9.377314633862968"><ele>155.0</ele><time>2026-04-25T06:50:02Z</time></trkpt><trkpt lat="39.54188283726893" lon="9.37715140507236"><ele>155.0</ele><time>2026-04-25T06:50:03Z</time></trkpt><trkpt lat="39.541755753577576" lon="9.377008106880004"><ele>155.0</ele><time>2026-04-25T06:50:04Z</time></trkpt><trkpt lat="39.54161591710558" lon="9.376886598149124"><ele>155.0</ele><time>2026-04-25T06:50:05Z</time></trkpt><trkpt lat="39.541467796363584" lon="9.376788402264161"><ele>155.0</ele><time>2026-04-25T06:50:06Z</time></trkpt><trkpt lat="39.54131647131313" lon="9.376701497559365"><ele>155.0</ele><time>2026-04-25T06:50:07Z</time></trkpt><trkpt lat="39.54116733762153" lon="9.376609874897719"><ele>155.0</ele><time>2026-04-25T06:50:08Z</time></trkpt><trkpt lat="39.54102294903873" lon="9.376509356478582"><ele>157.33333333333331</ele><time>2026-04-25T06:50:09Z</time></trkpt><trkpt lat="39.5408894589858" lon="9.376393114671501"><ele>159.66666666666666</ele><time>2026-04-25T06:50:10Z</time></trkpt><trkpt lat="39.540767819138324" lon="9.37625881674348"><ele>162.0</ele><time>2026-04-25T06:50:11Z</time></trkpt><trkpt lat="39.54066120037563" lon="9.376102604035529"><ele>162.0</ele><time>2026-04-25T06:50:12Z</time></trkpt><trkpt lat="39.540586917168895" lon="9.375919081274162"><ele>162.0</ele><time>2026-04-25T06:50:13Z</time></trkpt><trkpt lat="39.54053453437566" lon="9.37572270984695"><ele>162.0</ele><time>2026-04-25T06:50:14Z</time></trkpt><trkpt lat="39.54046975699363" lon="9.37552332545174"><ele>159.33333333333334</ele><time>2026-04-25T06:50:15Z</time></trkpt><trkpt lat="39.54044767055185" lon="9.375309541714923"><ele>156.66666666666669</ele><time>2026-04-25T06:50:16Z</time></trkpt><trkpt lat="39.540457817641304" lon="9.375093220263457"><ele>154.0</ele><time>2026-04-25T06:50:17Z</time></trkpt><trkpt lat="39.540487936479906" lon="9.374882415374937"><ele>156.66666666666669</ele><time>2026-04-25T06:50:18Z</time></trkpt><trkpt lat="39.540532915206775" lon="9.374675364818398"><ele>159.33333333333334</ele><time>2026-04-25T06:50:19Z</time></trkpt><trkpt lat="39.540589132280196" lon="9.374470775745952"><ele>162.0</ele><time>2026-04-25T06:50:20Z</time></trkpt><trkpt lat="39.540646615380375" lon="9.374272002008"><ele>162.0</ele><time>2026-04-25T06:50:21Z</time></trkpt><trkpt lat="39.54069853109375" lon="9.374068561811963"><ele>162.0</ele><time>2026-04-25T06:50:22Z</time></trkpt><trkpt lat="39.54074015634296" lon="9.373861689241826"><ele>162.0</ele><time>2026-04-25T06:50:23Z</time></trkpt><trkpt lat="39.54076069430544" lon="9.373649780524287"><ele>163.0</ele><time>2026-04-25T06:50:24Z</time></trkpt><trkpt lat="39.54076247382154" lon="9.373436663835681"><ele>164.0</ele><time>2026-04-25T06:50:25Z</time></trkpt><trkpt lat="39.54074174252828" lon="9.373224226402368"><ele>165.0</ele><time>2026-04-25T06:50:26Z</time></trkpt><trkpt lat="39.54071008520657" lon="9.373013698255397"><ele>162.66666666666666</ele><time>2026-04-25T06:50:27Z</time></trkpt><trkpt lat="39.54067496781169" lon="9.372804021054636"><ele>160.33333333333331</ele><time>2026-04-25T06:50:28Z</time></trkpt><trkpt lat="39.54063507293186" lon="9.372593555079506"><ele>158.0</ele><time>2026-04-25T06:50:29Z</time></trkpt><trkpt lat="39.540591401918874" lon="9.372382215367399"><ele>158.33333333333331</ele><time>2026-04-25T06:50:30Z</time></trkpt><trkpt lat="39.540547162151626" lon="9.37217075481322"><ele>158.66666666666666</ele><time>2026-04-25T06:50:31Z</time></trkpt><trkpt lat="39.540504982870544" lon="9.371962643342465"><ele>159.0</ele><time>2026-04-25T06:50:32Z</time></trkpt><trkpt lat="39.540464387939636" lon="9.371751965627674"><ele>159.0</ele><time>2026-04-25T06:50:33Z</time></trkpt><trkpt lat="39.540426582853314" lon="9.371546213278107"><ele>159.0</ele><time>2026-04-25T06:50:34Z</time></trkpt><trkpt lat="39.54038529107803" lon="9.371341648515811"><ele>159.0</ele><time>2026-04-25T06:50:35Z</time></trkpt><trkpt lat="39.54034224925682" lon="9.371138227084383"><ele>169.0</ele><time>2026-04-25T06:50:36Z</time></trkpt><trkpt lat="39.540299143841" lon="9.370937789222545"><ele>179.0</ele><time>2026-04-25T06:50:37Z</time></trkpt><trkpt lat="39.54025624109335" lon="9.37073756875307"><ele>189.0</ele><time>2026-04-25T06:50:38Z</time></trkpt><trkpt lat="39.54021763286436" lon="9.370537975739362"><ele>188.0</ele><time>2026-04-25T06:50:39Z</time></trkpt><trkpt lat="39.54018464857497" lon="9.370336490473505"><ele>187.0</ele><time>2026-04-25T06:50:40Z</time></trkpt><trkpt lat="39.54017137890399" lon="9.37013031481949"><ele>186.0</ele><time>2026-04-25T06:50:41Z</time></trkpt><trkpt lat="39.54017862623367" lon="9.36992292661941"><ele>186.0</ele><time>2026-04-25T06:50:42Z</time></trkpt><trkpt lat="39.54020877625018" lon="9.369716657863124"><ele>186.0</ele><time>2026-04-25T06:50:43Z</time></trkpt><trkpt lat="39.540259466797636" lon="9.36951544067334"><ele>186.0</ele><time>2026-04-25T06:50:44Z</time></trkpt><trkpt lat="39.540330853824045" lon="9.369321301533045"><ele>187.0</ele><time>2026-04-25T06:50:45Z</time></trkpt><trkpt lat="39.540426867936944" lon="9.36914281196482"><ele>188.0</ele><time>2026-04-25T06:50:46Z</time></trkpt><trkpt lat="39.54054425994915" lon="9.368983028451465"><ele>189.0</ele><time>2026-04-25T06:50:47Z</time></trkpt><trkpt lat="39.540690952946264" lon="9.368857509001538"><ele>189.0</ele><time>2026-04-25T06:50:48Z</time></trkpt><trkpt lat="39.54084108675178" lon="9.368745723649562"><ele>189.0</ele><time>2026-04-25T06:50:49Z</time></trkpt><trkpt lat="39.54098794545102" lon="9.368667101576703"><ele>189.0</ele><time>2026-04-25T06:50:50Z</time></trkpt><trkpt lat="39.541152247647965" lon="9.368606826344681"><ele>182.33333333333334</ele><time>2026-04-25T06:50:51Z</time></trkpt><trkpt lat="39.54132223603722" lon="9.368570457661134"><ele>175.66666666666669</ele><time>2026-04-25T06:50:52Z</time></trkpt><trkpt lat="39.541487837669045" lon="9.368533958800942"><ele>169.0</ele><time>2026-04-25T06:50:53Z</time></trkpt><trkpt lat="39.54165429926894" lon="9.36849778006074"><ele>169.0</ele><time>2026-04-25T06:50:54Z</time></trkpt><trkpt lat="39.5418142777184" lon="9.368457622745009"><ele>169.0</ele><time>2026-04-25T06:50:55Z</time></trkpt><trkpt lat="39.541969406673495" lon="9.368410158448127"><ele>169.0</ele><time>2026-04-25T06:50:56Z</time></trkpt><trkpt lat="39.54211788269571" lon="9.368348434445801"><ele>165.66666666666669</ele><time>2026-04-25T06:50:57Z</time></trkpt><trkpt lat="39.542257983568305" lon="9.368259893650466"><ele>162.33333333333334</ele><time>2026-04-25T06:50:58Z</time></trkpt><trkpt lat="39.54239385415227" lon="9.368155447816372"><ele>159.0</ele><time>2026-04-25T06:50:59Z</time></trkpt><trkpt lat="39.542521622468165" lon="9.368026908566234"><ele>162.66666666666666</ele><time>2026-04-25T06:51:00Z</time></trkpt><trkpt lat="39.542637270927756" lon="9.367877742133897"><ele>166.33333333333331</ele><time>2026-04-25T06:51:01Z</time></trkpt><trkpt lat="39.542736642426334" lon="9.36771055887233"><ele>170.0</ele><time>2026-04-25T06:51:02Z</time></trkpt><trkpt lat="39.54281760291429" lon="9.36752565290431"><ele>165.66666666666666</ele><time>2026-04-25T06:51:03Z</time></trkpt><trkpt lat="39.54288245162058" lon="9.367332152944275"><ele>161.33333333333334</ele><time>2026-04-25T06:51:04Z</time></trkpt><trkpt lat="39.54293359172917" lon="9.367127488780996"><ele>157.0</ele><time>2026-04-25T06:51:05Z</time></trkpt><trkpt lat="39.54297359638953" lon="9.366920072114953"><ele>157.0</ele><time>2026-04-25T06:51:06Z</time></trkpt><trkpt lat="39.54300444332715" lon="9.36670297710259"><ele>157.0</ele><time>2026-04-25T06:51:07Z</time></trkpt><trkpt lat="39.54303274089467" lon="9.366487111962732"><ele>157.0</ele><time>2026-04-25T06:51:08Z</time></trkpt><trkpt lat="39.54306747224107" lon="9.366272890510501"><ele>156.66666666666669</ele><time>2026-04-25T06:51:09Z</time></trkpt><trkpt lat="39.54310357247053" lon="9.36605986088516"><ele>156.33333333333334</ele><time>2026-04-25T06:51:10Z</time></trkpt><trkpt lat="39.543141471713476" lon="9.365846851691623"><ele>156.0</ele><time>2026-04-25T06:51:11Z</time></trkpt><trkpt lat="39.543177055478196" lon="9.365637830536771"><ele>157.33333333333334</ele><time>2026-04-25T06:51:12Z</time></trkpt><trkpt lat="39.54320991116084" lon="9.365432865945975"><ele>158.66666666666669</ele><time>2026-04-25T06:51:13Z</time></trkpt><trkpt lat="39.54323902093747" lon="9.365228635088695"><ele>160.0</ele><time>2026-04-25T06:51:14Z</time></trkpt><trkpt lat="39.54327408040569" lon="9.365029028398412"><ele>160.0</ele><time>2026-04-25T06:51:15Z</time></trkpt><trkpt lat="39.54335266221983" lon="9.364856369276788"><ele>160.0</ele><time>2026-04-25T06:51:16Z</time></trkpt><trkpt lat="39.543433122744425" lon="9.364697795730438"><ele>160.0</ele><time>2026-04-25T06:51:17Z</time></trkpt><trkpt lat="39.54352708069445" lon="9.364552712524016"><ele>160.0</ele><time>2026-04-25T06:51:18Z</time></trkpt><trkpt lat="39.54363514494753" lon="9.364423653452056"><ele>158.25</ele><time>2026-04-25T06:51:19Z</time></trkpt><trkpt lat="39.54375545264588" lon="9.364315179915485"><ele>156.5</ele><time>2026-04-25T06:51:20Z</time></trkpt><trkpt lat="39.5438868650597" lon="9.364225961038978"><ele>154.75</ele><time>2026-04-25T06:51:21Z</time></trkpt><trkpt lat="39.544025131444855" lon="9.36416082961659"><ele>153.0</ele><time>2026-04-25T06:51:22Z</time></trkpt><trkpt lat="39.54417501554492" lon="9.364117484058552"><ele>153.0</ele><time>2026-04-25T06:51:23Z</time></trkpt><trkpt lat="39.5443339170738" lon="9.364098787819232"><ele>153.0</ele><time>2026-04-25T06:51:24Z</time></trkpt><trkpt lat="39.54449237345034" lon="9.364115492876772"><ele>153.0</ele><time>2026-04-25T06:51:25Z</time></trkpt><trkpt lat="39.54464015478551" lon="9.364160858019721"><ele>152.0</ele><time>2026-04-25T06:51:26Z</time></trkpt><trkpt lat="39.544792488531634" lon="9.36421808178054"><ele>151.0</ele><time>2026-04-25T06:51:27Z</time></trkpt><trkpt lat="39.54495127872693" lon="9.364278103404876"><ele>150.0</ele><time>2026-04-25T06:51:28Z</time></trkpt><trkpt lat="39.54510509847266" lon="9.364320957098283"><ele>150.0</ele><time>2026-04-25T06:51:29Z</time></trkpt><trkpt lat="39.545231042100184" lon="9.364346882089722"><ele>150.0</ele><time>2026-04-25T06:51:30Z</time></trkpt><trkpt lat="39.54539589959794" lon="9.364372653410237"><ele>150.0</ele><time>2026-04-25T06:51:31Z</time></trkpt><trkpt lat="39.545549881283065" lon="9.36435793348788"><ele>150.0</ele><time>2026-04-25T06:51:32Z</time></trkpt><trkpt lat="39.54570274297924" lon="9.36432176717315"><ele>145.0</ele><time>2026-04-25T06:51:33Z</time></trkpt><trkpt lat="39.545852788476225" lon="9.36424918607151"><ele>140.0</ele><time>2026-04-25T06:51:34Z</time></trkpt><trkpt lat="39.54597119458896" lon="9.364144325583682"><ele>135.0</ele><time>2026-04-25T06:51:35Z</time></trkpt><trkpt lat="39.546098136509364" lon="9.36403961240258"><ele>133.5</ele><time>2026-04-25T06:51:36Z</time></trkpt><trkpt lat="39.54623157206986" lon="9.363949542569776"><ele>132.0</ele><time>2026-04-25T06:51:37Z</time></trkpt><trkpt lat="39.546356282360044" lon="9.36386539133348"><ele>130.5</ele><time>2026-04-25T06:51:38Z</time></trkpt><trkpt lat="39.54648224908891" lon="9.36378002674686"><ele>129.0</ele><time>2026-04-25T06:51:39Z</time></trkpt><trkpt lat="39.546599945801425" lon="9.363685148637739"><ele>129.0</ele><time>2026-04-25T06:51:40Z</time></trkpt><trkpt lat="39.54671837420441" lon="9.363601004992901"><ele>129.0</ele><time>2026-04-25T06:51:41Z</time></trkpt><trkpt lat="39.54683714056842" lon="9.363524472931461"><ele>129.0</ele><time>2026-04-25T06:51:42Z</time></trkpt><trkpt lat="39.54694557263517" lon="9.363437157623295"><ele>129.0</ele><time>2026-04-25T06:51:43Z</time></trkpt><trkpt lat="39.547035068387636" lon="9.363321959665537"><ele>124.75</ele><time>2026-04-25T06:51:44Z</time></trkpt><trkpt lat="39.54709528942493" lon="9.363176356380894"><ele>120.5</ele><time>2026-04-25T06:51:45Z</time></trkpt><trkpt lat="39.547131975660164" lon="9.363022298367586"><ele>116.25</ele><time>2026-04-25T06:51:46Z</time></trkpt><trkpt lat="39.54715892239323" lon="9.362868988193293"><ele>112.0</ele><time>2026-04-25T06:51:47Z</time></trkpt><trkpt lat="39.54720378963269" lon="9.362724243899502"><ele>112.0</ele><time>2026-04-25T06:51:48Z</time></trkpt><trkpt lat="39.54723665137891" lon="9.36257724785394"><ele>112.0</ele><time>2026-04-25T06:51:49Z</time></trkpt><trkpt lat="39.54726637363091" lon="9.36243135173453"><ele>112.0</ele><time>2026-04-25T06:51:50Z</time></trkpt><trkpt lat="39.54727073036723" lon="9.362284860247168"><ele>112.0</ele><time>2026-04-25T06:51:51Z</time></trkpt><trkpt lat="39.54728533564734" lon="9.362148652343423"><ele>113.8</ele><time>2026-04-25T06:51:52Z</time></trkpt><trkpt lat="39.547313783330914" lon="9.362020922890917"><ele>115.6</ele><time>2026-04-25T06:51:53Z</time></trkpt><trkpt lat="39.54737150665003" lon="9.3619181124716"><ele>117.39999999999999</ele><time>2026-04-25T06:51:54Z</time></trkpt><trkpt lat="39.54747399548949" lon="9.361887127013997"><ele>119.19999999999999</ele><time>2026-04-25T06:51:55Z</time></trkpt><trkpt lat="39.547564097535606" lon="9.361850451922582"><ele>121.0</ele><time>2026-04-25T06:51:56Z</time></trkpt><trkpt lat="39.54765898002976" lon="9.36185664023155"><ele>121.0</ele><time>2026-04-25T06:51:57Z</time></trkpt><trkpt lat="39.54775591837307" lon="9.361872947202146"><ele>121.0</ele><time>2026-04-25T06:51:58Z</time></trkpt><trkpt lat="39.547859373126194" lon="9.361896131373017"><ele>121.0</ele><time>2026-04-25T06:51:59Z</time></trkpt><trkpt lat="39.547964607757685" lon="9.361921762613385"><ele>121.0</ele><time>2026-04-25T06:52:00Z</time></trkpt><trkpt lat="39.54807080665629" lon="9.361959278595833"><ele>121.0</ele><time>2026-04-25T06:52:01Z</time></trkpt><trkpt lat="39.54817580191268" lon="9.3619929403411"><ele>119.19999999999999</ele><time>2026-04-25T06:52:02Z</time></trkpt><trkpt lat="39.54827720872334" lon="9.36200706954771"><ele>117.39999999999999</ele><time>2026-04-25T06:52:03Z</time></trkpt><trkpt lat="39.548375470915154" lon="9.361995906081372"><ele>115.6</ele><time>2026-04-25T06:52:04Z</time></trkpt><trkpt lat="39.548466026141504" lon="9.361940261921003"><ele>113.8</ele><time>2026-04-25T06:52:05Z</time></trkpt><trkpt lat="39.548538012081224" lon="9.361844161308978"><ele>112.0</ele><time>2026-04-25T06:52:06Z</time></trkpt><trkpt lat="39.5486038233683" lon="9.36174708970342"><ele>112.0</ele><time>2026-04-25T06:52:07Z</time></trkpt><trkpt lat="39.54866525290654" lon="9.361651057854425"><ele>111.99999999999999</ele><time>2026-04-25T06:52:08Z</time></trkpt><trkpt lat="39.548717487643536" lon="9.361547099482097"><ele>111.99999999999999</ele><time>2026-04-25T06:52:09Z</time></trkpt><trkpt lat="39.548756710052814" lon="9.361432076209937"><ele>112.0</ele><time>2026-04-25T06:52:10Z</time></trkpt><trkpt lat="39.54878651266111" lon="9.361311626745763"><ele>112.0</ele><time>2026-04-25T06:52:11Z</time></trkpt><trkpt lat="39.54880933985745" lon="9.361187131155432"><ele>108.6</ele><time>2026-04-25T06:52:12Z</time></trkpt><trkpt lat="39.54882682025362" lon="9.361060310585387"><ele>105.19999999999999</ele><time>2026-04-25T06:52:13Z</time></trkpt><trkpt lat="39.54884409233522" lon="9.36093488065616"><ele>101.8</ele><time>2026-04-25T06:52:14Z</time></trkpt><trkpt lat="39.548850044857105" lon="9.360806140618504"><ele>98.4</ele><time>2026-04-25T06:52:15Z</time></trkpt><trkpt lat="39.54881791024833" lon="9.360684153958045"><ele>95.0</ele><time>2026-04-25T06:52:16Z</time></trkpt><trkpt lat="39.548762484871695" lon="9.360568726438517"><ele>94.6</ele><time>2026-04-25T06:52:17Z</time></trkpt><trkpt lat="39.54872086207061" lon="9.360448539000833"><ele>94.2</ele><time>2026-04-25T06:52:18Z</time></trkpt><trkpt lat="39.54864556365554" lon="9.36035798338955"><ele>93.80000000000001</ele><time>2026-04-25T06:52:19Z</time></trkpt><trkpt lat="39.548568031201334" lon="9.360279416992999"><ele>93.4</ele><time>2026-04-25T06:52:20Z</time></trkpt><trkpt lat="39.54847155191711" lon="9.360242302992205"><ele>93.0</ele><time>2026-04-25T06:52:21Z</time></trkpt><trkpt lat="39.54837677567762" lon="9.360242989821051"><ele>93.66666666666667</ele><time>2026-04-25T06:52:22Z</time></trkpt><trkpt lat="39.54829399268226" lon="9.360205832842919"><ele>94.33333333333334</ele><time>2026-04-25T06:52:23Z</time></trkpt><trkpt lat="39.54820462588086" lon="9.360208143105611"><ele>95.0</ele><time>2026-04-25T06:52:24Z</time></trkpt><trkpt lat="39.548126720552766" lon="9.360155718617955"><ele>95.66666666666667</ele><time>2026-04-25T06:52:25Z</time></trkpt><trkpt lat="39.54807233776609" lon="9.36006891105607"><ele>96.33333333333334</ele><time>2026-04-25T06:52:26Z</time></trkpt><trkpt lat="39.54801667117427" lon="9.360005289463919"><ele>97.0</ele><time>2026-04-25T06:52:27Z</time></trkpt><trkpt lat="39.54794888675915" lon="9.359892586048502"><ele>97.0</ele><time>2026-04-25T06:52:29Z</time></trkpt><trkpt lat="39.54793481418679" lon="9.359789370968954"><ele>97.0</ele><time>2026-04-25T06:52:31Z</time></trkpt><trkpt lat="39.547969956321175" lon="9.359677625232695"><ele>97.0</ele><time>2026-04-25T06:52:33Z</time></trkpt><trkpt lat="39.548031214093506" lon="9.35958344366107"><ele>97.0</ele><time>2026-04-25T06:52:35Z</time></trkpt><trkpt lat="39.548094356289496" lon="9.359525323831537"><ele>97.0</ele><time>2026-04-25T06:52:37Z</time></trkpt><trkpt lat="39.54823255788841" lon="9.359603729608379"><ele>97.0</ele><time>2026-04-25T06:52:40Z</time></trkpt><trkpt lat="39.548320380376396" lon="9.359723336728255"><ele>97.0</ele><time>2026-04-25T06:52:42Z</time></trkpt><trkpt lat="39.54838099338827" lon="9.359788518033959"><ele>97.0</ele><time>2026-04-25T06:52:43Z</time></trkpt><trkpt lat="39.54844421933427" lon="9.359861401438089"><ele>97.0</ele><time>2026-04-25T06:52:44Z</time></trkpt><trkpt lat="39.54850623663687" lon="9.359939264716143"><ele>97.0</ele><time>2026-04-25T06:52:45Z</time></trkpt><trkpt lat="39.54856923193342" lon="9.360017675521187"><ele>97.0</ele><time>2026-04-25T06:52:46Z</time></trkpt><trkpt lat="39.54863824111204" lon="9.360092943736772"><ele>97.0</ele><time>2026-04-25T06:52:47Z</time></trkpt><trkpt lat="39.54870948436221" lon="9.360168522550987"><ele>97.0</ele><time>2026-04-25T06:52:48Z</time></trkpt><trkpt lat="39.54877604291427" lon="9.360239445111073"><ele>97.0</ele><time>2026-04-25T06:52:49Z</time></trkpt><trkpt lat="39.54884107908292" lon="9.360318732790143"><ele>97.0</ele><time>2026-04-25T06:52:50Z</time></trkpt><trkpt lat="39.54890736783088" lon="9.360402691862552"><ele>96.6</ele><time>2026-04-25T06:52:51Z</time></trkpt><trkpt lat="39.54897919210991" lon="9.36048412701599"><ele>96.19999999999999</ele><time>2026-04-25T06:52:52Z</time></trkpt><trkpt lat="39.54905140626592" lon="9.360566039624857"><ele>95.8</ele><time>2026-04-25T06:52:53Z</time></trkpt><trkpt lat="39.54911786375692" lon="9.360646886388377"><ele>95.4</ele><time>2026-04-25T06:52:54Z</time></trkpt><trkpt lat="39.54918742612665" lon="9.360736351500202"><ele>95.0</ele><time>2026-04-25T06:52:55Z</time></trkpt><trkpt lat="39.54924676399719" lon="9.360832271247713"><ele>95.0</ele><time>2026-04-25T06:52:56Z</time></trkpt><trkpt lat="39.5492778690204" lon="9.360943918285507"><ele>95.0</ele><time>2026-04-25T06:52:57Z</time></trkpt><trkpt lat="39.54928949890053" lon="9.361070085895419"><ele>95.0</ele><time>2026-04-25T06:52:58Z</time></trkpt><trkpt lat="39.54930429665502" lon="9.361194938157817"><ele>95.0</ele><time>2026-04-25T06:52:59Z</time></trkpt><trkpt lat="39.54932466543711" lon="9.361316877447273"><ele>95.0</ele><time>2026-04-25T06:53:00Z</time></trkpt><trkpt lat="39.549339727978705" lon="9.361432303997644"><ele>95.16666666666667</ele><time>2026-04-25T06:53:01Z</time></trkpt><trkpt lat="39.549350948324296" lon="9.361545432453976"><ele>95.33333333333334</ele><time>2026-04-25T06:53:02Z</time></trkpt><trkpt lat="39.54936561055663" lon="9.361650549839153"><ele>95.5</ele><time>2026-04-25T06:53:03Z</time></trkpt><trkpt lat="39.54938203544818" lon="9.361755975596017"><ele>95.66666666666667</ele><time>2026-04-25T06:53:04Z</time></trkpt><trkpt lat="39.54939460105619" lon="9.361856570798302"><ele>95.83333333333333</ele><time>2026-04-25T06:53:05Z</time></trkpt><trkpt lat="39.549394769764966" lon="9.361956277851053"><ele>96.0</ele><time>2026-04-25T06:53:06Z</time></trkpt><trkpt lat="39.5493861586214" lon="9.362052802444547"><ele>96.0</ele><time>2026-04-25T06:53:07Z</time></trkpt><trkpt lat="39.54937262300135" lon="9.362135948190167"><ele>96.0</ele><time>2026-04-25T06:53:08Z</time></trkpt><trkpt lat="39.54936288136392" lon="9.362221544681935"><ele>96.0</ele><time>2026-04-25T06:53:09Z</time></trkpt><trkpt lat="39.54932938632015" lon="9.362361446088835"><ele>96.0</ele><time>2026-04-25T06:53:11Z</time></trkpt><trkpt lat="39.54948607166027" lon="9.362447049381643"><ele>96.0</ele><time>2026-04-25T06:53:13Z</time></trkpt><trkpt lat="39.5495635115139" lon="9.362409592008587"><ele>95.0</ele><time>2026-04-25T06:53:14Z</time></trkpt><trkpt lat="39.5496411456821" lon="9.362358633204213"><ele>94.0</ele><time>2026-04-25T06:53:15Z</time></trkpt><trkpt lat="39.54972415625923" lon="9.362323362663663"><ele>93.0</ele><time>2026-04-25T06:53:16Z</time></trkpt><trkpt lat="39.54981341070379" lon="9.362289242728608"><ele>92.0</ele><time>2026-04-25T06:53:17Z</time></trkpt><trkpt lat="39.54990769217637" lon="9.362251310905433"><ele>91.0</ele><time>2026-04-25T06:53:18Z</time></trkpt><trkpt lat="39.55000473986364" lon="9.362209468678959"><ele>90.8</ele><time>2026-04-25T06:53:19Z</time></trkpt><trkpt lat="39.55010203999334" lon="9.36216427950245"><ele>90.6</ele><time>2026-04-25T06:53:20Z</time></trkpt><trkpt lat="39.550198143586165" lon="9.362114052219916"><ele>90.4</ele><time>2026-04-25T06:53:21Z</time></trkpt><trkpt lat="39.550294800940826" lon="9.362066115723705"><ele>90.2</ele><time>2026-04-25T06:53:22Z</time></trkpt><trkpt lat="39.55039005716924" lon="9.362022753436309"><ele>90.0</ele><time>2026-04-25T06:53:23Z</time></trkpt><trkpt lat="39.55048316912573" lon="9.361970676286942"><ele>89.4</ele><time>2026-04-25T06:53:24Z</time></trkpt><trkpt lat="39.55057047462486" lon="9.36190022183163"><ele>88.8</ele><time>2026-04-25T06:53:25Z</time></trkpt><trkpt lat="39.55064785694789" lon="9.361810515807969"><ele>88.19999999999999</ele><time>2026-04-25T06:53:26Z</time></trkpt><trkpt lat="39.55071373008171" lon="9.361705194751012"><ele>87.6</ele><time>2026-04-25T06:53:27Z</time></trkpt><trkpt lat="39.55077593452847" lon="9.361599461018027"><ele>87.0</ele><time>2026-04-25T06:53:28Z</time></trkpt><trkpt lat="39.55083726638043" lon="9.361494838081166"><ele>87.0</ele><time>2026-04-25T06:53:29Z</time></trkpt><trkpt lat="39.55090096210321" lon="9.361394651806654"><ele>87.0</ele><time>2026-04-25T06:53:30Z</time></trkpt><trkpt lat="39.55096800912388" lon="9.361295635231501"><ele>87.0</ele><time>2026-04-25T06:53:31Z</time></trkpt><trkpt lat="39.55103519880299" lon="9.36119488013325"><ele>87.0</ele><time>2026-04-25T06:53:32Z</time></trkpt><trkpt lat="39.551099390128435" lon="9.361086556783222"><ele>87.0</ele><time>2026-04-25T06:53:33Z</time></trkpt><trkpt lat="39.55117604638984" lon="9.360991246251814"><ele>86.8</ele><time>2026-04-25T06:53:34Z</time></trkpt><trkpt lat="39.5512436045802" lon="9.360882478003617"><ele>86.6</ele><time>2026-04-25T06:53:35Z</time></trkpt><trkpt lat="39.55129606309347" lon="9.360758747950875"><ele>86.39999999999999</ele><time>2026-04-25T06:53:36Z</time></trkpt><trkpt lat="39.551360113366336" lon="9.360646854896407"><ele>86.19999999999999</ele><time>2026-04-25T06:53:37Z</time></trkpt><trkpt lat="39.551414985563525" lon="9.36053102919342"><ele>86.0</ele><time>2026-04-25T06:53:38Z</time></trkpt><trkpt lat="39.551460956696715" lon="9.360411717183723"><ele>86.0</ele><time>2026-04-25T06:53:39Z</time></trkpt><trkpt lat="39.55150072655717" lon="9.36028853533168"><ele>86.0</ele><time>2026-04-25T06:53:40Z</time></trkpt><trkpt lat="39.551550992505284" lon="9.360171581935097"><ele>86.0</ele><time>2026-04-25T06:53:41Z</time></trkpt><trkpt lat="39.55158834109388" lon="9.360047551998093"><ele>86.0</ele><time>2026-04-25T06:53:42Z</time></trkpt><trkpt lat="39.551614961233604" lon="9.359921441756436"><ele>86.0</ele><time>2026-04-25T06:53:43Z</time></trkpt><trkpt lat="39.55165572737043" lon="9.35979525644582"><ele>86.0</ele><time>2026-04-25T06:53:44Z</time></trkpt><trkpt lat="39.55169543240121" lon="9.359672035082122"><ele>86.0</ele><time>2026-04-25T06:53:45Z</time></trkpt><trkpt lat="39.551737866221956" lon="9.359547090505046"><ele>86.0</ele><time>2026-04-25T06:53:46Z</time></trkpt><trkpt lat="39.55177731603831" lon="9.35941926060747"><ele>86.0</ele><time>2026-04-25T06:53:47Z</time></trkpt><trkpt lat="39.551817382281264" lon="9.359289127217057"><ele>86.0</ele><time>2026-04-25T06:53:48Z</time></trkpt><trkpt lat="39.55185839588878" lon="9.359160081686753"><ele>86.0</ele><time>2026-04-25T06:53:49Z</time></trkpt><trkpt lat="39.55190401044302" lon="9.359029386213958"><ele>86.0</ele><time>2026-04-25T06:53:50Z</time></trkpt><trkpt lat="39.55194699456442" lon="9.358896864848058"><ele>86.0</ele><time>2026-04-25T06:53:51Z</time></trkpt><trkpt lat="39.55198906908412" lon="9.358757173153034"><ele>86.0</ele><time>2026-04-25T06:53:52Z</time></trkpt><trkpt lat="39.55203401448112" lon="9.358618369323342"><ele>85.75</ele><time>2026-04-25T06:53:53Z</time></trkpt><trkpt lat="39.552080447849626" lon="9.358474077813781"><ele>85.5</ele><time>2026-04-25T06:53:54Z</time></trkpt><trkpt lat="39.5521280034688" lon="9.358324148988167"><ele>85.25</ele><time>2026-04-25T06:53:55Z</time></trkpt><trkpt lat="39.55217755152617" lon="9.358168211943903"><ele>85.0</ele><time>2026-04-25T06:53:56Z</time></trkpt><trkpt lat="39.552228455283895" lon="9.358019368313503"><ele>85.0</ele><time>2026-04-25T06:53:57Z</time></trkpt><trkpt lat="39.55227850393278" lon="9.357866244567477"><ele>85.0</ele><time>2026-04-25T06:53:58Z</time></trkpt><trkpt lat="39.552328994050946" lon="9.357705265339895"><ele>85.0</ele><time>2026-04-25T06:53:59Z</time></trkpt><trkpt lat="39.55237960810161" lon="9.357540038286402"><ele>85.0</ele><time>2026-04-25T06:54:00Z</time></trkpt><trkpt lat="39.55243151897484" lon="9.35737244997272"><ele>85.0</ele><time>2026-04-25T06:54:01Z</time></trkpt><trkpt lat="39.5524867403014" lon="9.357203168659893"><ele>85.0</ele><time>2026-04-25T06:54:02Z</time></trkpt><trkpt lat="39.55254479799006" lon="9.35703051365247"><ele>85.0</ele><time>2026-04-25T06:54:03Z</time></trkpt><trkpt lat="39.55260318253941" lon="9.356854894277014"><ele>85.0</ele><time>2026-04-25T06:54:04Z</time></trkpt><trkpt lat="39.55266066177451" lon="9.35667268882578"><ele>85.0</ele><time>2026-04-25T06:54:05Z</time></trkpt><trkpt lat="39.55271248942922" lon="9.356499493962243"><ele>85.0</ele><time>2026-04-25T06:54:06Z</time></trkpt><trkpt lat="39.55276433372072" lon="9.356325581074245"><ele>85.0</ele><time>2026-04-25T06:54:07Z</time></trkpt><trkpt lat="39.552820442017165" lon="9.35615120493784"><ele>85.0</ele><time>2026-04-25T06:54:08Z</time></trkpt><trkpt lat="39.55288044248778" lon="9.355975015827905"><ele>85.33333333333333</ele><time>2026-04-25T06:54:09Z</time></trkpt><trkpt lat="39.55293933252287" lon="9.355797833069895"><ele>85.66666666666667</ele><time>2026-04-25T06:54:10Z</time></trkpt><trkpt lat="39.55299801827363" lon="9.355618208836114"><ele>86.0</ele><time>2026-04-25T06:54:11Z</time></trkpt><trkpt lat="39.553054285151035" lon="9.355436775505595"><ele>85.0</ele><time>2026-04-25T06:54:12Z</time></trkpt><trkpt lat="39.5531120285745" lon="9.355253561393829"><ele>84.0</ele><time>2026-04-25T06:54:13Z</time></trkpt><trkpt lat="39.553173421548344" lon="9.355073155793054"><ele>83.0</ele><time>2026-04-25T06:54:14Z</time></trkpt><trkpt lat="39.553234209510975" lon="9.354893621348944"><ele>83.0</ele><time>2026-04-25T06:54:15Z</time></trkpt><trkpt lat="39.5532907238826" lon="9.354710666727966"><ele>83.0</ele><time>2026-04-25T06:54:16Z</time></trkpt><trkpt lat="39.55334594342759" lon="9.35452657539273"><ele>83.0</ele><time>2026-04-25T06:54:17Z</time></trkpt><trkpt lat="39.553403280852486" lon="9.354344278069629"><ele>83.75</ele><time>2026-04-25T06:54:18Z</time></trkpt><trkpt lat="39.553461002324916" lon="9.35416380787793"><ele>84.5</ele><time>2026-04-25T06:54:19Z</time></trkpt><trkpt lat="39.5535134660392" lon="9.353989655776477"><ele>85.25</ele><time>2026-04-25T06:54:20Z</time></trkpt><trkpt lat="39.55358094588117" lon="9.353832871737223"><ele>86.0</ele><time>2026-04-25T06:54:21Z</time></trkpt><trkpt lat="39.553634738805584" lon="9.35367577629393"><ele>85.75</ele><time>2026-04-25T06:54:22Z</time></trkpt><trkpt lat="39.55369685136437" lon="9.35353984987054"><ele>85.5</ele><time>2026-04-25T06:54:23Z</time></trkpt><trkpt lat="39.55380008380463" lon="9.35345378956884"><ele>85.25</ele><time>2026-04-25T06:54:24Z</time></trkpt><trkpt lat="39.55391342312664" lon="9.353431642924889"><ele>85.0</ele><time>2026-04-25T06:54:25Z</time></trkpt><trkpt lat="39.55402889627623" lon="9.353461176687626"><ele>85.0</ele><time>2026-04-25T06:54:26Z</time></trkpt><trkpt lat="39.55414560680403" lon="9.353526685948124"><ele>85.0</ele><time>2026-04-25T06:54:27Z</time></trkpt><trkpt lat="39.55427118691322" lon="9.35358515605698"><ele>85.0</ele><time>2026-04-25T06:54:28Z</time></trkpt><trkpt lat="39.554402822116586" lon="9.353643359576377"><ele>85.0</ele><time>2026-04-25T06:54:29Z</time></trkpt><trkpt lat="39.5545369043049" lon="9.353700962142398"><ele>84.75</ele><time>2026-04-25T06:54:30Z</time></trkpt><trkpt lat="39.554673259783655" lon="9.353760655806129"><ele>84.5</ele><time>2026-04-25T06:54:31Z</time></trkpt><trkpt lat="39.5548095248166" lon="9.35382217319286"><ele>84.25</ele><time>2026-04-25T06:54:32Z</time></trkpt><trkpt lat="39.55494314178309" lon="9.353882748773938"><ele>84.0</ele><time>2026-04-25T06:54:33Z</time></trkpt><trkpt lat="39.555075457219715" lon="9.353938872129774"><ele>83.75</ele><time>2026-04-25T06:54:34Z</time></trkpt><trkpt lat="39.55520098959239" lon="9.35399311638215"><ele>83.5</ele><time>2026-04-25T06:54:35Z</time></trkpt><trkpt lat="39.5553213859573" lon="9.354043652680296"><ele>83.25</ele><time>2026-04-25T06:54:36Z</time></trkpt><trkpt lat="39.55544493246138" lon="9.354070278776373"><ele>83.0</ele><time>2026-04-25T06:54:37Z</time></trkpt><trkpt lat="39.55557490207321" lon="9.354058716693213"><ele>83.5</ele><time>2026-04-25T06:54:38Z</time></trkpt><trkpt lat="39.55570543919834" lon="9.354014399511238"><ele>84.0</ele><time>2026-04-25T06:54:39Z</time></trkpt><trkpt lat="39.555831580766856" lon="9.353932663401245"><ele>84.5</ele><time>2026-04-25T06:54:40Z</time></trkpt><trkpt lat="39.55594081307494" lon="9.35380672636392"><ele>85.0</ele><time>2026-04-25T06:54:41Z</time></trkpt><trkpt lat="39.55602714048991" lon="9.353646369429503"><ele>85.0</ele><time>2026-04-25T06:54:42Z</time></trkpt><trkpt lat="39.556099926925064" lon="9.35347764236701"><ele>85.0</ele><time>2026-04-25T06:54:43Z</time></trkpt><trkpt lat="39.55617744358682" lon="9.353310578270229"><ele>85.0</ele><time>2026-04-25T06:54:44Z</time></trkpt><trkpt lat="39.55626520817487" lon="9.353151196145276"><ele>86.0</ele><time>2026-04-25T06:54:45Z</time></trkpt><trkpt lat="39.55636080839719" lon="9.352996516765705"><ele>87.0</ele><time>2026-04-25T06:54:46Z</time></trkpt><trkpt lat="39.5564674310227" lon="9.352853205167746"><ele>88.0</ele><time>2026-04-25T06:54:47Z</time></trkpt><trkpt lat="39.55659066062296" lon="9.352732159026035"><ele>88.0</ele><time>2026-04-25T06:54:48Z</time></trkpt><trkpt lat="39.55672728667854" lon="9.352635675536447"><ele>88.0</ele><time>2026-04-25T06:54:49Z</time></trkpt><trkpt lat="39.55686704565187" lon="9.352550655917486"><ele>88.0</ele><time>2026-04-25T06:54:50Z</time></trkpt><trkpt lat="39.557007993077455" lon="9.352460455813228"><ele>88.0</ele><time>2026-04-25T06:54:51Z</time></trkpt><trkpt lat="39.55714753487621" lon="9.352369161979697"><ele>88.0</ele><time>2026-04-25T06:54:52Z</time></trkpt><trkpt lat="39.55728760067375" lon="9.35227726215576"><ele>88.0</ele><time>2026-04-25T06:54:53Z</time></trkpt><trkpt lat="39.55742829377153" lon="9.352182789213787"><ele>88.0</ele><time>2026-04-25T06:54:54Z</time></trkpt><trkpt lat="39.55757004266669" lon="9.352087089794464"><ele>88.0</ele><time>2026-04-25T06:54:55Z</time></trkpt><trkpt lat="39.557714589014786" lon="9.351993553170974"><ele>88.0</ele><time>2026-04-25T06:54:56Z</time></trkpt><trkpt lat="39.55785763365464" lon="9.351901818725416"><ele>88.33333333333333</ele><time>2026-04-25T06:54:57Z</time></trkpt><trkpt lat="39.55800272341868" lon="9.35180607712726"><ele>88.66666666666667</ele><time>2026-04-25T06:54:58Z</time></trkpt><trkpt lat="39.558148731487925" lon="9.351709352236684"><ele>89.0</ele><time>2026-04-25T06:54:59Z</time></trkpt><trkpt lat="39.55829772551599" lon="9.351601825784128"><ele>89.0</ele><time>2026-04-25T06:55:00Z</time></trkpt><trkpt lat="39.55845981159664" lon="9.35151648456003"><ele>89.0</ele><time>2026-04-25T06:55:01Z</time></trkpt><trkpt lat="39.55861926651134" lon="9.351412053806518"><ele>89.0</ele><time>2026-04-25T06:55:02Z</time></trkpt><trkpt lat="39.558735377064586" lon="9.351318248737163"><ele>89.33333333333334</ele><time>2026-04-25T06:55:03Z</time></trkpt><trkpt lat="39.55888235374172" lon="9.351226067196782"><ele>89.66666666666667</ele><time>2026-04-25T06:55:04Z</time></trkpt><trkpt lat="39.559030848365495" lon="9.351131794256704"><ele>90.0</ele><time>2026-04-25T06:55:05Z</time></trkpt><trkpt lat="39.559177558397245" lon="9.351037289761411"><ele>90.0</ele><time>2026-04-25T06:55:06Z</time></trkpt><trkpt lat="39.55932600266204" lon="9.350937137334682"><ele>90.0</ele><time>2026-04-25T06:55:07Z</time></trkpt><trkpt lat="39.559470397330465" lon="9.350839677498714"><ele>90.0</ele><time>2026-04-25T06:55:08Z</time></trkpt><trkpt lat="39.55961686687945" lon="9.350744663636803"><ele>89.66666666666667</ele><time>2026-04-25T06:55:09Z</time></trkpt><trkpt lat="39.559763769860766" lon="9.350654513994414"><ele>89.33333333333334</ele><time>2026-04-25T06:55:10Z</time></trkpt><trkpt lat="39.55991059306947" lon="9.35056106532106"><ele>89.0</ele><time>2026-04-25T06:55:11Z</time></trkpt><trkpt lat="39.56005250080859" lon="9.350465225263978"><ele>89.0</ele><time>2026-04-25T06:55:12Z</time></trkpt><trkpt lat="39.56019735794745" lon="9.350369521375669"><ele>89.0</ele><time>2026-04-25T06:55:13Z</time></trkpt><trkpt lat="39.560340810276045" lon="9.350277716291236"><ele>89.0</ele><time>2026-04-25T06:55:14Z</time></trkpt><trkpt lat="39.5604844411349" lon="9.350187411755996"><ele>89.0</ele><time>2026-04-25T06:55:15Z</time></trkpt><trkpt lat="39.560627222356366" lon="9.350090368507784"><ele>89.0</ele><time>2026-04-25T06:55:16Z</time></trkpt><trkpt lat="39.560769450120254" lon="9.35000026270261"><ele>89.0</ele><time>2026-04-25T06:55:17Z</time></trkpt><trkpt lat="39.560919706742446" lon="9.349929893438961"><ele>89.0</ele><time>2026-04-25T06:55:18Z</time></trkpt><trkpt lat="39.56108302909803" lon="9.349889406925202"><ele>89.0</ele><time>2026-04-25T06:55:19Z</time></trkpt><trkpt lat="39.56124974146047" lon="9.34986629995211"><ele>89.0</ele><time>2026-04-25T06:55:20Z</time></trkpt><trkpt lat="39.561417385403" lon="9.349888022250077"><ele>89.0</ele><time>2026-04-25T06:55:21Z</time></trkpt><trkpt lat="39.56158626033337" lon="9.349894237134764"><ele>89.0</ele><time>2026-04-25T06:55:22Z</time></trkpt><trkpt lat="39.561756119146004" lon="9.34990048824476"><ele>89.0</ele><time>2026-04-25T06:55:23Z</time></trkpt><trkpt lat="39.5619265693969" lon="9.349906761110045"><ele>90.33333333333334</ele><time>2026-04-25T06:55:24Z</time></trkpt><trkpt lat="39.56206776666772" lon="9.349908519104606"><ele>91.66666666666667</ele><time>2026-04-25T06:55:25Z</time></trkpt><trkpt lat="39.562234329267355" lon="9.349916529421332"><ele>93.0</ele><time>2026-04-25T06:55:26Z</time></trkpt><trkpt lat="39.562402466420274" lon="9.349923905719907"><ele>93.0</ele><time>2026-04-25T06:55:27Z</time></trkpt><trkpt lat="39.56256941954904" lon="9.349929829444406"><ele>93.0</ele><time>2026-04-25T06:55:28Z</time></trkpt><trkpt lat="39.56273530260446" lon="9.349932646592519"><ele>93.0</ele><time>2026-04-25T06:55:29Z</time></trkpt><trkpt lat="39.56290178031603" lon="9.349932905359159"><ele>93.66666666666667</ele><time>2026-04-25T06:55:30Z</time></trkpt><trkpt lat="39.563067937070755" lon="9.349934097745853"><ele>94.33333333333334</ele><time>2026-04-25T06:55:31Z</time></trkpt><trkpt lat="39.56323320080114" lon="9.3499402912196"><ele>95.0</ele><time>2026-04-25T06:55:32Z</time></trkpt><trkpt lat="39.563398872253295" lon="9.349955987917161"><ele>95.0</ele><time>2026-04-25T06:55:33Z</time></trkpt><trkpt lat="39.5635644656846" lon="9.349965914327518"><ele>95.0</ele><time>2026-04-25T06:55:34Z</time></trkpt><trkpt lat="39.56373115811061" lon="9.349970545225027"><ele>95.0</ele><time>2026-04-25T06:55:35Z</time></trkpt><trkpt lat="39.56389829545528" lon="9.349973628750917"><ele>95.66666666666667</ele><time>2026-04-25T06:55:36Z</time></trkpt><trkpt lat="39.564064646975595" lon="9.349980186907464"><ele>96.33333333333334</ele><time>2026-04-25T06:55:37Z</time></trkpt><trkpt lat="39.564231028724784" lon="9.349988817340789"><ele>97.0</ele><time>2026-04-25T06:55:38Z</time></trkpt><trkpt lat="39.56439753661522" lon="9.349993933249008"><ele>97.66666666666667</ele><time>2026-04-25T06:55:39Z</time></trkpt><trkpt lat="39.564563162759" lon="9.349995018741708"><ele>98.33333333333334</ele><time>2026-04-25T06:55:40Z</time></trkpt><trkpt lat="39.564729153436595" lon="9.349995573715551"><ele>99.0</ele><time>2026-04-25T06:55:41Z</time></trkpt><trkpt lat="39.56489347815042" lon="9.350003494497898"><ele>99.0</ele><time>2026-04-25T06:55:42Z</time></trkpt><trkpt lat="39.56505544615179" lon="9.350012057032705"><ele>99.0</ele><time>2026-04-25T06:55:43Z</time></trkpt><trkpt lat="39.565217846897724" lon="9.350019728925913"><ele>99.0</ele><time>2026-04-25T06:55:44Z</time></trkpt><trkpt lat="39.565381563338406" lon="9.3500267929537"><ele>100.33333333333334</ele><time>2026-04-25T06:55:45Z</time></trkpt><trkpt lat="39.565546228852575" lon="9.350033969587253"><ele>101.66666666666667</ele><time>2026-04-25T06:55:46Z</time></trkpt><trkpt lat="39.56570920793625" lon="9.350040542424773"><ele>103.0</ele><time>2026-04-25T06:55:47Z</time></trkpt><trkpt lat="39.56587475531563" lon="9.350044008929336"><ele>103.0</ele><time>2026-04-25T06:55:48Z</time></trkpt><trkpt lat="39.56603994189926" lon="9.350038253075587"><ele>103.0</ele><time>2026-04-25T06:55:49Z</time></trkpt><trkpt lat="39.56621169158985" lon="9.350021330757201"><ele>103.0</ele><time>2026-04-25T06:55:50Z</time></trkpt><trkpt lat="39.56636346363247" lon="9.349982083099993"><ele>104.0</ele><time>2026-04-25T06:55:51Z</time></trkpt><trkpt lat="39.56652337352779" lon="9.349921075907666"><ele>105.0</ele><time>2026-04-25T06:55:52Z</time></trkpt><trkpt lat="39.56667782478516" lon="9.349850475605532"><ele>106.0</ele><time>2026-04-25T06:55:53Z</time></trkpt><trkpt lat="39.56682937320969" lon="9.349778132643781"><ele>107.0</ele><time>2026-04-25T06:55:54Z</time></trkpt><trkpt lat="39.56698418057239" lon="9.34970761472416"><ele>108.0</ele><time>2026-04-25T06:55:55Z</time></trkpt><trkpt lat="39.567142221481255" lon="9.349643279963743"><ele>109.0</ele><time>2026-04-25T06:55:56Z</time></trkpt><trkpt lat="39.56730012336334" lon="9.349581409410682"><ele>109.0</ele><time>2026-04-25T06:55:57Z</time></trkpt><trkpt lat="39.567455947155494" lon="9.349508816788775"><ele>109.0</ele><time>2026-04-25T06:55:58Z</time></trkpt><trkpt lat="39.56760601519403" lon="9.349423858114225"><ele>109.0</ele><time>2026-04-25T06:55:59Z</time></trkpt><trkpt lat="39.56775343813294" lon="9.349337409606424"><ele>112.33333333333334</ele><time>2026-04-25T06:56:00Z</time></trkpt><trkpt lat="39.56789864537741" lon="9.349253134369983"><ele>115.66666666666666</ele><time>2026-04-25T06:56:01Z</time></trkpt><trkpt lat="39.56803987413905" lon="9.349168996755976"><ele>119.0</ele><time>2026-04-25T06:56:02Z</time></trkpt><trkpt lat="39.56817691914118" lon="9.34907850223069"><ele>119.0</ele><time>2026-04-25T06:56:03Z</time></trkpt><trkpt lat="39.56831532165214" lon="9.348990885906643"><ele>119.0</ele><time>2026-04-25T06:56:04Z</time></trkpt><trkpt lat="39.56846060114848" lon="9.348914151300612"><ele>119.0</ele><time>2026-04-25T06:56:05Z</time></trkpt><trkpt lat="39.56861176080568" lon="9.348851059037559"><ele>120.33333333333333</ele><time>2026-04-25T06:56:06Z</time></trkpt><trkpt lat="39.56876894807105" lon="9.348807035216359"><ele>121.66666666666666</ele><time>2026-04-25T06:56:07Z</time></trkpt><trkpt lat="39.56893281814465" lon="9.348785450793141"><ele>123.0</ele><time>2026-04-25T06:56:08Z</time></trkpt><trkpt lat="39.56909589770226" lon="9.348777390368712"><ele>123.0</ele><time>2026-04-25T06:56:09Z</time></trkpt><trkpt lat="39.56925908898855" lon="9.348771253688394"><ele>123.0</ele><time>2026-04-25T06:56:10Z</time></trkpt><trkpt lat="39.56942179559305" lon="9.348777291130215"><ele>123.0</ele><time>2026-04-25T06:56:11Z</time></trkpt><trkpt lat="39.56958339326979" lon="9.34879450574427"><ele>124.33333333333334</ele><time>2026-04-25T06:56:12Z</time></trkpt><trkpt lat="39.56974588369813" lon="9.34882121642605"><ele>125.66666666666667</ele><time>2026-04-25T06:56:13Z</time></trkpt><trkpt lat="39.56990621900171" lon="9.348856399746074"><ele>127.0</ele><time>2026-04-25T06:56:14Z</time></trkpt><trkpt lat="39.57006791713675" lon="9.348899138904946"><ele>128.66666666666669</ele><time>2026-04-25T06:56:15Z</time></trkpt><trkpt lat="39.570229861802126" lon="9.348942939743342"><ele>130.33333333333334</ele><time>2026-04-25T06:56:16Z</time></trkpt><trkpt lat="39.57039218375177" lon="9.348986264340171"><ele>132.0</ele><time>2026-04-25T06:56:17Z</time></trkpt><trkpt lat="39.57055382098592" lon="9.349030965944383"><ele>132.0</ele><time>2026-04-25T06:56:18Z</time></trkpt><trkpt lat="39.57071528163463" lon="9.349079220771298"><ele>132.0</ele><time>2026-04-25T06:56:19Z</time></trkpt><trkpt lat="39.570874480841574" lon="9.349127466216624"><ele>132.0</ele><time>2026-04-25T06:56:20Z</time></trkpt><trkpt lat="39.57103605027353" lon="9.349177329872411"><ele>133.0</ele><time>2026-04-25T06:56:21Z</time></trkpt><trkpt lat="39.57119581640229" lon="9.349226598209007"><ele>134.0</ele><time>2026-04-25T06:56:22Z</time></trkpt><trkpt lat="39.5713568991782" lon="9.349279751317995"><ele>135.0</ele><time>2026-04-25T06:56:23Z</time></trkpt><trkpt lat="39.57151562830467" lon="9.349339316589164"><ele>135.0</ele><time>2026-04-25T06:56:24Z</time></trkpt><trkpt lat="39.57167292924168" lon="9.349404288382118"><ele>135.0</ele><time>2026-04-25T06:56:25Z</time></trkpt><trkpt lat="39.57182818652526" lon="9.349469832260684"><ele>135.0</ele><time>2026-04-25T06:56:26Z</time></trkpt><trkpt lat="39.57198278771211" lon="9.349532866819844"><ele>138.0</ele><time>2026-04-25T06:56:27Z</time></trkpt><trkpt lat="39.57213806246654" lon="9.34959561071092"><ele>141.0</ele><time>2026-04-25T06:56:28Z</time></trkpt><trkpt lat="39.57228805353742" lon="9.349662850993187"><ele>144.0</ele><time>2026-04-25T06:56:29Z</time></trkpt><trkpt lat="39.57243642615598" lon="9.349741563420762"><ele>145.33333333333334</ele><time>2026-04-25T06:56:30Z</time></trkpt><trkpt lat="39.57257580500861" lon="9.349850789543586"><ele>146.66666666666669</ele><time>2026-04-25T06:56:31Z</time></trkpt><trkpt lat="39.57270575718073" lon="9.34997451744447"><ele>148.0</ele><time>2026-04-25T06:56:32Z</time></trkpt><trkpt lat="39.57283515261753" lon="9.350101918185599"><ele>148.33333333333334</ele><time>2026-04-25T06:56:33Z</time></trkpt><trkpt lat="39.57295730518835" lon="9.350240626605455"><ele>148.66666666666666</ele><time>2026-04-25T06:56:34Z</time></trkpt><trkpt lat="39.57305991348141" lon="9.350401819413555"><ele>149.0</ele><time>2026-04-25T06:56:35Z</time></trkpt><trkpt lat="39.57313018646718" lon="9.350584656114602"><ele>150.66666666666666</ele><time>2026-04-25T06:56:36Z</time></trkpt><trkpt lat="39.573189278096365" lon="9.350787493159473"><ele>152.33333333333334</ele><time>2026-04-25T06:56:37Z</time></trkpt><trkpt lat="39.57323109795623" lon="9.350988739523212"><ele>154.0</ele><time>2026-04-25T06:56:38Z</time></trkpt><trkpt lat="39.573271355244124" lon="9.351190506510115"><ele>156.66666666666669</ele><time>2026-04-25T06:56:39Z</time></trkpt><trkpt lat="39.57331935661012" lon="9.35138648899134"><ele>159.33333333333334</ele><time>2026-04-25T06:56:40Z</time></trkpt><trkpt lat="39.57337937364272" lon="9.351574312281448"><ele>162.0</ele><time>2026-04-25T06:56:41Z</time></trkpt><trkpt lat="39.57345614478295" lon="9.351756648388696"><ele>162.0</ele><time>2026-04-25T06:56:42Z</time></trkpt><trkpt lat="39.57354645520104" lon="9.351929276134335"><ele>162.0</ele><time>2026-04-25T06:56:43Z</time></trkpt><trkpt lat="39.57365626855121" lon="9.352087051916216"><ele>162.0</ele><time>2026-04-25T06:56:44Z</time></trkpt><trkpt lat="39.573773514839814" lon="9.35223796183284"><ele>163.0</ele><time>2026-04-25T06:56:45Z</time></trkpt><trkpt lat="39.57388972371526" lon="9.352389239996981"><ele>164.0</ele><time>2026-04-25T06:56:46Z</time></trkpt><trkpt lat="39.57400608790525" lon="9.352539978404806"><ele>165.0</ele><time>2026-04-25T06:56:47Z</time></trkpt><trkpt lat="39.57412021081796" lon="9.352691399133072"><ele>165.0</ele><time>2026-04-25T06:56:48Z</time></trkpt><trkpt lat="39.57423330799593" lon="9.352843187845945"><ele>165.0</ele><time>2026-04-25T06:56:49Z</time></trkpt><trkpt lat="39.57434798609905" lon="9.352990654048062"><ele>165.0</ele><time>2026-04-25T06:56:50Z</time></trkpt><trkpt lat="39.574469418807155" lon="9.353130126222641"><ele>165.33333333333334</ele><time>2026-04-25T06:56:51Z</time></trkpt><trkpt lat="39.57459654149713" lon="9.35326458224892"><ele>165.66666666666669</ele><time>2026-04-25T06:56:52Z</time></trkpt><trkpt lat="39.574725851967024" lon="9.353395303671364"><ele>166.0</ele><time>2026-04-25T06:56:53Z</time></trkpt><trkpt lat="39.5748659450284" lon="9.35351221113923"><ele>166.0</ele><time>2026-04-25T06:56:54Z</time></trkpt><trkpt lat="39.57501157427676" lon="9.353615179880693"><ele>166.0</ele><time>2026-04-25T06:56:55Z</time></trkpt><trkpt lat="39.57515958264104" lon="9.353713111453466"><ele>166.0</ele><time>2026-04-25T06:56:56Z</time></trkpt><trkpt lat="39.57530390613516" lon="9.353813833724953"><ele>168.33333333333334</ele><time>2026-04-25T06:56:57Z</time></trkpt><trkpt lat="39.57544688877382" lon="9.353910949109036"><ele>170.66666666666666</ele><time>2026-04-25T06:56:58Z</time></trkpt><trkpt lat="39.575596180949624" lon="9.3539953813324"><ele>173.0</ele><time>2026-04-25T06:56:59Z</time></trkpt><trkpt lat="39.57575065288249" lon="9.354063164744154"><ele>173.0</ele><time>2026-04-25T06:57:00Z</time></trkpt><trkpt lat="39.57590989974385" lon="9.354106705764616"><ele>173.0</ele><time>2026-04-25T06:57:01Z</time></trkpt><trkpt lat="39.57607254445312" lon="9.354129355284337"><ele>173.0</ele><time>2026-04-25T06:57:02Z</time></trkpt><trkpt lat="39.576235440329675" lon="9.354135121188941"><ele>175.33333333333331</ele><time>2026-04-25T06:57:03Z</time></trkpt><trkpt lat="39.57639991176842" lon="9.354131219230299"><ele>177.66666666666666</ele><time>2026-04-25T06:57:04Z</time></trkpt><trkpt lat="39.576561618595534" lon="9.35412991810597"><ele>180.0</ele><time>2026-04-25T06:57:05Z</time></trkpt><trkpt lat="39.5767232752186" lon="9.354130892864779"><ele>180.0</ele><time>2026-04-25T06:57:06Z</time></trkpt><trkpt lat="39.5768847648321" lon="9.354133459028915"><ele>180.0</ele><time>2026-04-25T06:57:07Z</time></trkpt><trkpt lat="39.57704602422894" lon="9.354134141048052"><ele>180.0</ele><time>2026-04-25T06:57:08Z</time></trkpt><trkpt lat="39.57721043507591" lon="9.354134058125563"><ele>181.66666666666666</ele><time>2026-04-25T06:57:09Z</time></trkpt><trkpt lat="39.57737300990618" lon="9.354131941023795"><ele>183.33333333333331</ele><time>2026-04-25T06:57:10Z</time></trkpt><trkpt lat="39.57753863823171" lon="9.354130478657083"><ele>185.0</ele><time>2026-04-25T06:57:11Z</time></trkpt><trkpt lat="39.577705126958456" lon="9.35413258562835"><ele>186.0</ele><time>2026-04-25T06:57:12Z</time></trkpt><trkpt lat="39.57787335362714" lon="9.354134805497853"><ele>187.0</ele><time>2026-04-25T06:57:13Z</time></trkpt><trkpt lat="39.57803984367731" lon="9.354134319297836"><ele>188.0</ele><time>2026-04-25T06:57:14Z</time></trkpt><trkpt lat="39.578207431625515" lon="9.354141648468811"><ele>188.0</ele><time>2026-04-25T06:57:15Z</time></trkpt><trkpt lat="39.57837263526539" lon="9.3541543981496"><ele>188.0</ele><time>2026-04-25T06:57:16Z</time></trkpt><trkpt lat="39.57853518455778" lon="9.354170911187653"><ele>188.0</ele><time>2026-04-25T06:57:17Z</time></trkpt><trkpt lat="39.57869764809746" lon="9.35417993267354"><ele>189.33333333333331</ele><time>2026-04-25T06:57:18Z</time></trkpt><trkpt lat="39.57885953932837" lon="9.354164735151052"><ele>190.66666666666666</ele><time>2026-04-25T06:57:19Z</time></trkpt><trkpt lat="39.579024850258364" lon="9.354131311687619"><ele>192.0</ele><time>2026-04-25T06:57:20Z</time></trkpt><trkpt lat="39.57918553891901" lon="9.35409131680792"><ele>192.0</ele><time>2026-04-25T06:57:21Z</time></trkpt><trkpt lat="39.579346922466975" lon="9.354049205747582"><ele>192.0</ele><time>2026-04-25T06:57:22Z</time></trkpt><trkpt lat="39.579507877617935" lon="9.35401223950699"><ele>192.0</ele><time>2026-04-25T06:57:23Z</time></trkpt><trkpt lat="39.57966855546606" lon="9.35397900748279"><ele>193.33333333333331</ele><time>2026-04-25T06:57:24Z</time></trkpt><trkpt lat="39.579828505826754" lon="9.353950042584515"><ele>194.66666666666666</ele><time>2026-04-25T06:57:25Z</time></trkpt><trkpt lat="39.57998589543802" lon="9.353927067485168"><ele>196.0</ele><time>2026-04-25T06:57:26Z</time></trkpt><trkpt lat="39.58014063711186" lon="9.353934630956628"><ele>196.0</ele><time>2026-04-25T06:57:27Z</time></trkpt><trkpt lat="39.58029179141071" lon="9.35397324345166"><ele>196.0</ele><time>2026-04-25T06:57:28Z</time></trkpt><trkpt lat="39.580438436547084" lon="9.354027023394657"><ele>196.0</ele><time>2026-04-25T06:57:29Z</time></trkpt><trkpt lat="39.58057981331722" lon="9.354097628940808"><ele>197.25</ele><time>2026-04-25T06:57:30Z</time></trkpt><trkpt lat="39.58070045948301" lon="9.354211331363095"><ele>198.5</ele><time>2026-04-25T06:57:31Z</time></trkpt><trkpt lat="39.58079981217509" lon="9.354340638663372"><ele>199.75</ele><time>2026-04-25T06:57:32Z</time></trkpt><trkpt lat="39.58086161683553" lon="9.354507269674636"><ele>201.0</ele><time>2026-04-25T06:57:33Z</time></trkpt><trkpt lat="39.580912067088946" lon="9.35468137226553"><ele>202.0</ele><time>2026-04-25T06:57:34Z</time></trkpt><trkpt lat="39.58095250684507" lon="9.354845064936876"><ele>203.0</ele><time>2026-04-25T06:57:35Z</time></trkpt><trkpt lat="39.58097529724783" lon="9.354995555490273"><ele>204.0</ele><time>2026-04-25T06:57:36Z</time></trkpt><trkpt lat="39.58099095973612" lon="9.355133667677455"><ele>205.0</ele><time>2026-04-25T06:57:37Z</time></trkpt><trkpt lat="39.58100852959652" lon="9.355253557386556"><ele>205.0</ele><time>2026-04-25T06:57:38Z</time></trkpt><trkpt lat="39.58102761845538" lon="9.355355007920718"><ele>205.0</ele><time>2026-04-25T06:57:39Z</time></trkpt><trkpt lat="39.581023533166004" lon="9.355439571910876"><ele>205.0</ele><time>2026-04-25T06:57:40Z</time></trkpt><trkpt lat="39.58105139998718" lon="9.355549719143406"><ele>205.0</ele><time>2026-04-25T06:57:42Z</time></trkpt><trkpt lat="39.58124883515568" lon="9.355507295286126"><ele>205.0</ele><time>2026-04-25T06:57:43Z</time></trkpt><trkpt lat="39.58133232648555" lon="9.355455838608638"><ele>203.2</ele><time>2026-04-25T06:57:44Z</time></trkpt><trkpt lat="39.58142508873827" lon="9.35540241614646"><ele>201.4</ele><time>2026-04-25T06:57:45Z</time></trkpt><trkpt lat="39.58153298687255" lon="9.35535168565149"><ele>199.60000000000002</ele><time>2026-04-25T06:57:46Z</time></trkpt><trkpt lat="39.58163409614945" lon="9.355293679703324"><ele>197.8</ele><time>2026-04-25T06:57:47Z</time></trkpt><trkpt lat="39.58173004609538" lon="9.355208306237701"><ele>196.0</ele><time>2026-04-25T06:57:48Z</time></trkpt><trkpt lat="39.581806199840166" lon="9.355082293598482"><ele>196.0</ele><time>2026-04-25T06:57:49Z</time></trkpt><trkpt lat="39.58186260927101" lon="9.354931761407682"><ele>196.0</ele><time>2026-04-25T06:57:50Z</time></trkpt><trkpt lat="39.58189571888924" lon="9.354767690537845"><ele>196.0</ele><time>2026-04-25T06:57:51Z</time></trkpt><trkpt lat="39.58190081141843" lon="9.354590987039964"><ele>196.0</ele><time>2026-04-25T06:57:52Z</time></trkpt><trkpt lat="39.5818925889049" lon="9.354411927301767"><ele>195.25</ele><time>2026-04-25T06:57:53Z</time></trkpt><trkpt lat="39.58188937498081" lon="9.354234579897128"><ele>194.5</ele><time>2026-04-25T06:57:54Z</time></trkpt><trkpt lat="39.58189343456407" lon="9.354056104565215"><ele>193.75</ele><time>2026-04-25T06:57:55Z</time></trkpt><trkpt lat="39.58190071260208" lon="9.35387798893419"><ele>193.0</ele><time>2026-04-25T06:57:56Z</time></trkpt><trkpt lat="39.58191242663712" lon="9.353698921080253"><ele>191.25</ele><time>2026-04-25T06:57:57Z</time></trkpt><trkpt lat="39.581925152614765" lon="9.353519126383864"><ele>189.5</ele><time>2026-04-25T06:57:58Z</time></trkpt><trkpt lat="39.58193743399044" lon="9.353335891223308"><ele>187.75</ele><time>2026-04-25T06:57:59Z</time></trkpt><trkpt lat="39.58197208121311" lon="9.353148852835524"><ele>186.0</ele><time>2026-04-25T06:58:00Z</time></trkpt><trkpt lat="39.58197504986451" lon="9.352958551337064"><ele>184.66666666666666</ele><time>2026-04-25T06:58:01Z</time></trkpt><trkpt lat="39.58199653693511" lon="9.352763871877787"><ele>183.33333333333331</ele><time>2026-04-25T06:58:02Z</time></trkpt><trkpt lat="39.58202209604547" lon="9.352570702489569"><ele>182.0</ele><time>2026-04-25T06:58:03Z</time></trkpt><trkpt lat="39.58204472755293" lon="9.35237244212639"><ele>186.33333333333331</ele><time>2026-04-25T06:58:04Z</time></trkpt><trkpt lat="39.582063200361766" lon="9.352176415990895"><ele>190.66666666666666</ele><time>2026-04-25T06:58:05Z</time></trkpt><trkpt lat="39.58208939988708" lon="9.35197872932933"><ele>195.0</ele><time>2026-04-25T06:58:06Z</time></trkpt><trkpt lat="39.58211713219042" lon="9.351782190254543"><ele>195.0</ele><time>2026-04-25T06:58:07Z</time></trkpt><trkpt lat="39.582138711902786" lon="9.351579065689906"><ele>195.0</ele><time>2026-04-25T06:58:08Z</time></trkpt><trkpt lat="39.582164247574156" lon="9.351378246234644"><ele>195.0</ele><time>2026-04-25T06:58:09Z</time></trkpt><trkpt lat="39.582186392235066" lon="9.351172565918837"><ele>192.66666666666666</ele><time>2026-04-25T06:58:10Z</time></trkpt><trkpt lat="39.582211250258496" lon="9.350967967865921"><ele>190.33333333333331</ele><time>2026-04-25T06:58:11Z</time></trkpt><trkpt lat="39.58223729818521" lon="9.350762432631782"><ele>188.0</ele><time>2026-04-25T06:58:12Z</time></trkpt><trkpt lat="39.58226189176532" lon="9.350557019527441"><ele>182.33333333333331</ele><time>2026-04-25T06:58:13Z</time></trkpt><trkpt lat="39.58228421860445" lon="9.350353908080242"><ele>176.66666666666666</ele><time>2026-04-25T06:58:14Z</time></trkpt><trkpt lat="39.58230896562344" lon="9.350149510911569"><ele>171.0</ele><time>2026-04-25T06:58:15Z</time></trkpt><trkpt lat="39.58233440999367" lon="9.349943718318565"><ele>171.0</ele><time>2026-04-25T06:58:16Z</time></trkpt><trkpt lat="39.58236120777462" lon="9.349743309689542"><ele>171.0</ele><time>2026-04-25T06:58:17Z</time></trkpt><trkpt lat="39.582383941366146" lon="9.349551142881745"><ele>171.0</ele><time>2026-04-25T06:58:18Z</time></trkpt><trkpt lat="39.58240301915214" lon="9.349350342211201"><ele>169.66666666666666</ele><time>2026-04-25T06:58:19Z</time></trkpt><trkpt lat="39.58244094773834" lon="9.349150295411093"><ele>168.33333333333331</ele><time>2026-04-25T06:58:20Z</time></trkpt><trkpt lat="39.5824534968273" lon="9.34894181109198"><ele>167.0</ele><time>2026-04-25T06:58:21Z</time></trkpt><trkpt lat="39.582489870297735" lon="9.348738524582139"><ele>167.0</ele><time>2026-04-25T06:58:22Z</time></trkpt><trkpt lat="39.58251028581836" lon="9.348531027131102"><ele>167.0</ele><time>2026-04-25T06:58:23Z</time></trkpt><trkpt lat="39.582524498302" lon="9.348323240009947"><ele>167.0</ele><time>2026-04-25T06:58:24Z</time></trkpt><trkpt lat="39.58254597328758" lon="9.348121004458793"><ele>168.33333333333331</ele><time>2026-04-25T06:58:25Z</time></trkpt><trkpt lat="39.58256009585714" lon="9.34791989071025"><ele>169.66666666666666</ele><time>2026-04-25T06:58:26Z</time></trkpt><trkpt lat="39.58255523278209" lon="9.34771960937474"><ele>171.0</ele><time>2026-04-25T06:58:27Z</time></trkpt><trkpt lat="39.58252900954167" lon="9.347521448424173"><ele>171.0</ele><time>2026-04-25T06:58:28Z</time></trkpt><trkpt lat="39.582489638333236" lon="9.347321165895085"><ele>171.0</ele><time>2026-04-25T06:58:29Z</time></trkpt><trkpt lat="39.58243834843861" lon="9.347128958832167"><ele>171.0</ele><time>2026-04-25T06:58:30Z</time></trkpt><trkpt lat="39.582365176157964" lon="9.346940656873407"><ele>172.0</ele><time>2026-04-25T06:58:31Z</time></trkpt><trkpt lat="39.58231242495645" lon="9.346752184647695"><ele>173.0</ele><time>2026-04-25T06:58:32Z</time></trkpt><trkpt lat="39.58225507688812" lon="9.346563269322866"><ele>174.0</ele><time>2026-04-25T06:58:33Z</time></trkpt><trkpt lat="39.58219696263681" lon="9.346372761421078"><ele>174.66666666666666</ele><time>2026-04-25T06:58:34Z</time></trkpt><trkpt lat="39.582143554550456" lon="9.346180902825369"><ele>175.33333333333331</ele><time>2026-04-25T06:58:35Z</time></trkpt><trkpt lat="39.582107541300815" lon="9.34598056178445"><ele>176.0</ele><time>2026-04-25T06:58:36Z</time></trkpt><trkpt lat="39.582058879447" lon="9.345788355358879"><ele>168.33333333333331</ele><time>2026-04-25T06:58:37Z</time></trkpt><trkpt lat="39.582010695244854" lon="9.345596440747908"><ele>160.66666666666666</ele><time>2026-04-25T06:58:38Z</time></trkpt><trkpt lat="39.58196333186733" lon="9.345407820201896"><ele>153.0</ele><time>2026-04-25T06:58:39Z</time></trkpt><trkpt lat="39.5819181233439" lon="9.345227795037372"><ele>153.0</ele><time>2026-04-25T06:58:40Z</time></trkpt><trkpt lat="39.58186911285188" lon="9.345032629921667"><ele>153.0</ele><time>2026-04-25T06:58:41Z</time></trkpt><trkpt lat="39.58182338408471" lon="9.344848665122262"><ele>153.0</ele><time>2026-04-25T06:58:42Z</time></trkpt><trkpt lat="39.581779499689205" lon="9.344666099217356"><ele>153.0</ele><time>2026-04-25T06:58:43Z</time></trkpt><trkpt lat="39.58172247736907" lon="9.344482995858328"><ele>153.0</ele><time>2026-04-25T06:58:44Z</time></trkpt><trkpt lat="39.58169711729884" lon="9.344287247531028"><ele>153.0</ele><time>2026-04-25T06:58:45Z</time></trkpt><trkpt lat="39.58165828932932" lon="9.344095031204702"><ele>153.0</ele><time>2026-04-25T06:58:46Z</time></trkpt><trkpt lat="39.58160730469948" lon="9.343902646403233"><ele>153.0</ele><time>2026-04-25T06:58:47Z</time></trkpt><trkpt lat="39.58158350897715" lon="9.343703582230068"><ele>153.0</ele><time>2026-04-25T06:58:48Z</time></trkpt><trkpt lat="39.581527391431315" lon="9.343513814776944"><ele>153.66666666666666</ele><time>2026-04-25T06:58:49Z</time></trkpt><trkpt lat="39.58148726205234" lon="9.343319543598685"><ele>154.33333333333331</ele><time>2026-04-25T06:58:50Z</time></trkpt><trkpt lat="39.58144308571166" lon="9.343128475111955"><ele>155.0</ele><time>2026-04-25T06:58:51Z</time></trkpt><trkpt lat="39.58140996342487" lon="9.342930921290396"><ele>156.0</ele><time>2026-04-25T06:58:52Z</time></trkpt><trkpt lat="39.58133680608747" lon="9.34275479401433"><ele>157.0</ele><time>2026-04-25T06:58:53Z</time></trkpt><trkpt lat="39.58126349741005" lon="9.342580731176463"><ele>158.0</ele><time>2026-04-25T06:58:54Z</time></trkpt><trkpt lat="39.581200703144205" lon="9.342400481203482"><ele>152.5</ele><time>2026-04-25T06:58:55Z</time></trkpt><trkpt lat="39.58112578786121" lon="9.342230615173786"><ele>147.0</ele><time>2026-04-25T06:58:56Z</time></trkpt><trkpt lat="39.581035312447234" lon="9.342073667686693"><ele>141.5</ele><time>2026-04-25T06:58:57Z</time></trkpt><trkpt lat="39.580963198811666" lon="9.341912658201352"><ele>136.0</ele><time>2026-04-25T06:58:58Z</time></trkpt><trkpt lat="39.58090717906199" lon="9.341747826619098"><ele>136.0</ele><time>2026-04-25T06:58:59Z</time></trkpt><trkpt lat="39.58083964840459" lon="9.341591234692805"><ele>136.0</ele><time>2026-04-25T06:59:00Z</time></trkpt><trkpt lat="39.58075972197802" lon="9.341443637288616"><ele>136.0</ele><time>2026-04-25T06:59:01Z</time></trkpt><trkpt lat="39.58069221548311" lon="9.341283150449392"><ele>136.0</ele><time>2026-04-25T06:59:02Z</time></trkpt><trkpt lat="39.58064133848012" lon="9.341116710552097"><ele>136.25</ele><time>2026-04-25T06:59:03Z</time></trkpt><trkpt lat="39.58058795441737" lon="9.340954782524935"><ele>136.5</ele><time>2026-04-25T06:59:04Z</time></trkpt><trkpt lat="39.580557673208816" lon="9.340792444178488"><ele>136.75</ele><time>2026-04-25T06:59:05Z</time></trkpt><trkpt lat="39.58056050050701" lon="9.34062543514927"><ele>137.0</ele><time>2026-04-25T06:59:06Z</time></trkpt><trkpt lat="39.58059708403166" lon="9.340465404847114"><ele>134.75</ele><time>2026-04-25T06:59:07Z</time></trkpt><trkpt lat="39.580619792949946" lon="9.340290095278089"><ele>132.5</ele><time>2026-04-25T06:59:08Z</time></trkpt><trkpt lat="39.580649664395544" lon="9.340115397710532"><ele>130.25</ele><time>2026-04-25T06:59:09Z</time></trkpt><trkpt lat="39.580642413654985" lon="9.339927782150397"><ele>128.0</ele><time>2026-04-25T06:59:10Z</time></trkpt><trkpt lat="39.58061071232784" lon="9.339743713162461"><ele>127.5</ele><time>2026-04-25T06:59:11Z</time></trkpt><trkpt lat="39.58056305694942" lon="9.33956192482239"><ele>127.0</ele><time>2026-04-25T06:59:12Z</time></trkpt><trkpt lat="39.58051181672126" lon="9.339380696716674"><ele>126.5</ele><time>2026-04-25T06:59:13Z</time></trkpt><trkpt lat="39.580471779238714" lon="9.339192985406845"><ele>126.0</ele><time>2026-04-25T06:59:14Z</time></trkpt><trkpt lat="39.58042032927128" lon="9.339011787730234"><ele>129.33333333333334</ele><time>2026-04-25T06:59:15Z</time></trkpt><trkpt lat="39.5803711140267" lon="9.338838460354735"><ele>132.66666666666669</ele><time>2026-04-25T06:59:16Z</time></trkpt><trkpt lat="39.58014498020089" lon="9.338757146765726"><ele>136.0</ele><time>2026-04-25T06:59:17Z</time></trkpt><trkpt lat="39.58002742478984" lon="9.33863649177048"><ele>136.0</ele><time>2026-04-25T06:59:18Z</time></trkpt><trkpt lat="39.579915522994696" lon="9.338519407539707"><ele>136.0</ele><time>2026-04-25T06:59:19Z</time></trkpt><trkpt lat="39.579816235916105" lon="9.338381353814013"><ele>136.0</ele><time>2026-04-25T06:59:20Z</time></trkpt><trkpt lat="39.57974310430997" lon="9.338221777564248"><ele>136.0</ele><time>2026-04-25T06:59:21Z</time></trkpt><trkpt lat="39.57967858358621" lon="9.33805369268804"><ele>132.75</ele><time>2026-04-25T06:59:22Z</time></trkpt><trkpt lat="39.579605706934025" lon="9.33788928614094"><ele>129.5</ele><time>2026-04-25T06:59:23Z</time></trkpt><trkpt lat="39.579535489785655" lon="9.337722804934351"><ele>126.25</ele><time>2026-04-25T06:59:24Z</time></trkpt><trkpt lat="39.579464245433485" lon="9.337550387953764"><ele>123.0</ele><time>2026-04-25T06:59:25Z</time></trkpt><trkpt lat="39.57939805056976" lon="9.337383106942884"><ele>123.0</ele><time>2026-04-25T06:59:26Z</time></trkpt><trkpt lat="39.579327508253044" lon="9.33721981181922"><ele>123.0</ele><time>2026-04-25T06:59:27Z</time></trkpt><trkpt lat="39.57923461423016" lon="9.337071689102318"><ele>123.0</ele><time>2026-04-25T06:59:28Z</time></trkpt><trkpt lat="39.579122220338796" lon="9.336946426416123"><ele>123.0</ele><time>2026-04-25T06:59:29Z</time></trkpt><trkpt lat="39.57899283426715" lon="9.336854722310415"><ele>122.0</ele><time>2026-04-25T06:59:30Z</time></trkpt><trkpt lat="39.57885310732738" lon="9.336783453930233"><ele>121.0</ele><time>2026-04-25T06:59:31Z</time></trkpt><trkpt lat="39.57872036639772" lon="9.336713328905352"><ele>120.0</ele><time>2026-04-25T06:59:32Z</time></trkpt><trkpt lat="39.57858879258732" lon="9.336633263262772"><ele>119.0</ele><time>2026-04-25T06:59:33Z</time></trkpt><trkpt lat="39.578462479102384" lon="9.336549366344874"><ele>119.0</ele><time>2026-04-25T06:59:34Z</time></trkpt><trkpt lat="39.57833656469322" lon="9.336467867784481"><ele>119.0</ele><time>2026-04-25T06:59:35Z</time></trkpt><trkpt lat="39.57821346951702" lon="9.336379339576139"><ele>119.0</ele><time>2026-04-25T06:59:36Z</time></trkpt><trkpt lat="39.57809364254148" lon="9.336283734733314"><ele>119.0</ele><time>2026-04-25T06:59:37Z</time></trkpt><trkpt lat="39.5779691228384" lon="9.336191923443405"><ele>119.25</ele><time>2026-04-25T06:59:38Z</time></trkpt><trkpt lat="39.57784593591843" lon="9.336096135675232"><ele>119.5</ele><time>2026-04-25T06:59:39Z</time></trkpt><trkpt lat="39.57772270174497" lon="9.336000138664245"><ele>119.75</ele><time>2026-04-25T06:59:40Z</time></trkpt><trkpt lat="39.57759928229596" lon="9.335904525466173"><ele>120.0</ele><time>2026-04-25T06:59:41Z</time></trkpt><trkpt lat="39.577477846712014" lon="9.335809572319192"><ele>120.0</ele><time>2026-04-25T06:59:42Z</time></trkpt><trkpt lat="39.577357775768036" lon="9.335713582610666"><ele>120.0</ele><time>2026-04-25T06:59:43Z</time></trkpt><trkpt lat="39.57723820031179" lon="9.335616574576422"><ele>120.0</ele><time>2026-04-25T06:59:44Z</time></trkpt><trkpt lat="39.577117370493234" lon="9.335521971591412"><ele>120.0</ele><time>2026-04-25T06:59:45Z</time></trkpt><trkpt lat="39.576995881382814" lon="9.33542930146146"><ele>119.0</ele><time>2026-04-25T06:59:46Z</time></trkpt><trkpt lat="39.57687391757651" lon="9.335336630581056"><ele>118.0</ele><time>2026-04-25T06:59:47Z</time></trkpt><trkpt lat="39.57675231660995" lon="9.335244466536981"><ele>117.0</ele><time>2026-04-25T06:59:48Z</time></trkpt><trkpt lat="39.57663321599866" lon="9.335148692108614"><ele>116.0</ele><time>2026-04-25T06:59:49Z</time></trkpt><trkpt lat="39.57650862401038" lon="9.335061912998198"><ele>116.0</ele><time>2026-04-25T06:59:50Z</time></trkpt><trkpt lat="39.57639000652382" lon="9.334967751674801"><ele>116.0</ele><time>2026-04-25T06:59:51Z</time></trkpt><trkpt lat="39.57628112982409" lon="9.334869264974087"><ele>116.0</ele><time>2026-04-25T06:59:52Z</time></trkpt><trkpt lat="39.57617626453914" lon="9.334761936702984"><ele>116.0</ele><time>2026-04-25T06:59:53Z</time></trkpt><trkpt lat="39.576081780994976" lon="9.334641001751221"><ele>115.5</ele><time>2026-04-25T06:59:54Z</time></trkpt><trkpt lat="39.57599954162252" lon="9.33450355183185"><ele>115.0</ele><time>2026-04-25T06:59:55Z</time></trkpt><trkpt lat="39.575931785048894" lon="9.334348783559626"><ele>114.5</ele><time>2026-04-25T06:59:56Z</time></trkpt><trkpt lat="39.575877187588915" lon="9.33418472835485"><ele>114.0</ele><time>2026-04-25T06:59:57Z</time></trkpt><trkpt lat="39.57582573529401" lon="9.334014812599092"><ele>115.5</ele><time>2026-04-25T06:59:58Z</time></trkpt><trkpt lat="39.57576940524067" lon="9.333845253132715"><ele>117.0</ele><time>2026-04-25T06:59:59Z</time></trkpt><trkpt lat="39.57571724791501" lon="9.333673438458009"><ele>118.5</ele><time>2026-04-25T07:00:00Z</time></trkpt><trkpt lat="39.57566842148519" lon="9.333501837498568"><ele>120.0</ele><time>2026-04-25T07:00:01Z</time></trkpt><trkpt lat="39.57563038529851" lon="9.333325659446144"><ele>120.0</ele><time>2026-04-25T07:00:02Z</time></trkpt><trkpt lat="39.57560697308706" lon="9.333147612038811"><ele>120.0</ele><time>2026-04-25T07:00:03Z</time></trkpt><trkpt lat="39.57559649415005" lon="9.33296436931495"><ele>120.0</ele><time>2026-04-25T07:00:04Z</time></trkpt><trkpt lat="39.57558643201671" lon="9.332779295983249"><ele>120.0</ele><time>2026-04-25T07:00:05Z</time></trkpt><trkpt lat="39.57557224842885" lon="9.332590679522323"><ele>121.0</ele><time>2026-04-25T07:00:06Z</time></trkpt><trkpt lat="39.575557869570744" lon="9.332402063370852"><ele>122.0</ele><time>2026-04-25T07:00:07Z</time></trkpt><trkpt lat="39.57554444758424" lon="9.332210130977908"><ele>123.0</ele><time>2026-04-25T07:00:08Z</time></trkpt><trkpt lat="39.57553052539951" lon="9.332018479568015"><ele>124.0</ele><time>2026-04-25T07:00:09Z</time></trkpt><trkpt lat="39.575514776004134" lon="9.331826021118111"><ele>124.0</ele><time>2026-04-25T07:00:10Z</time></trkpt><trkpt lat="39.57549955759879" lon="9.331631118241445"><ele>124.0</ele><time>2026-04-25T07:00:11Z</time></trkpt><trkpt lat="39.575485845002376" lon="9.33143304046087"><ele>124.0</ele><time>2026-04-25T07:00:12Z</time></trkpt><trkpt lat="39.57547097227942" lon="9.331231915618957"><ele>122.33333333333334</ele><time>2026-04-25T07:00:13Z</time></trkpt><trkpt lat="39.57545592745348" lon="9.331031235603032"><ele>120.66666666666666</ele><time>2026-04-25T07:00:14Z</time></trkpt><trkpt lat="39.57544183825925" lon="9.330828366642612"><ele>119.0</ele><time>2026-04-25T07:00:15Z</time></trkpt><trkpt lat="39.57542708780813" lon="9.330625460304226"><ele>116.66666666666666</ele><time>2026-04-25T07:00:16Z</time></trkpt><trkpt lat="39.575410283285926" lon="9.330418977818358"><ele>114.33333333333334</ele><time>2026-04-25T07:00:17Z</time></trkpt><trkpt lat="39.575390095815564" lon="9.330212194960389"><ele>112.0</ele><time>2026-04-25T07:00:18Z</time></trkpt><trkpt lat="39.575371942720565" lon="9.330005941110345"><ele>112.0</ele><time>2026-04-25T07:00:19Z</time></trkpt><trkpt lat="39.575358528091854" lon="9.329799320166822"><ele>112.0</ele><time>2026-04-25T07:00:20Z</time></trkpt><trkpt lat="39.5753430636717" lon="9.32959596200397"><ele>112.0</ele><time>2026-04-25T07:00:21Z</time></trkpt><trkpt lat="39.57532502704695" lon="9.329388532545867"><ele>107.0</ele><time>2026-04-25T07:00:22Z</time></trkpt><trkpt lat="39.575306266789966" lon="9.329183260361416"><ele>102.0</ele><time>2026-04-25T07:00:23Z</time></trkpt><trkpt lat="39.57529051458588" lon="9.328976484227093"><ele>97.0</ele><time>2026-04-25T07:00:24Z</time></trkpt><trkpt lat="39.57527799301909" lon="9.328764076481962"><ele>97.0</ele><time>2026-04-25T07:00:25Z</time></trkpt><trkpt lat="39.575265233133905" lon="9.328551399962997"><ele>97.0</ele><time>2026-04-25T07:00:26Z</time></trkpt><trkpt lat="39.575249858188506" lon="9.328338117915264"><ele>97.0</ele><time>2026-04-25T07:00:27Z</time></trkpt><trkpt lat="39.57522979693588" lon="9.328124188918567"><ele>98.33333333333334</ele><time>2026-04-25T07:00:28Z</time></trkpt><trkpt lat="39.57520854801738" lon="9.32790926932267"><ele>99.66666666666666</ele><time>2026-04-25T07:00:29Z</time></trkpt><trkpt lat="39.575194058285526" lon="9.32769414146146"><ele>101.0</ele><time>2026-04-25T07:00:30Z</time></trkpt><trkpt lat="39.57518039953553" lon="9.327479285290057"><ele>101.0</ele><time>2026-04-25T07:00:31Z</time></trkpt><trkpt lat="39.57516351642309" lon="9.327267012587356"><ele>101.0</ele><time>2026-04-25T07:00:32Z</time></trkpt><trkpt lat="39.57514623179071" lon="9.327061098605554"><ele>101.0</ele><time>2026-04-25T07:00:33Z</time></trkpt><trkpt lat="39.57512997233858" lon="9.32685567076407"><ele>103.0</ele><time>2026-04-25T07:00:34Z</time></trkpt><trkpt lat="39.57511367031752" lon="9.32665754213925"><ele>105.0</ele><time>2026-04-25T07:00:35Z</time></trkpt><trkpt lat="39.57509959198356" lon="9.326457800915122"><ele>107.0</ele><time>2026-04-25T07:00:36Z</time></trkpt><trkpt lat="39.5750885683293" lon="9.32626191080326"><ele>110.33333333333333</ele><time>2026-04-25T07:00:37Z</time></trkpt><trkpt lat="39.57508182473809" lon="9.326063197808597"><ele>113.66666666666666</ele><time>2026-04-25T07:00:38Z</time></trkpt><trkpt lat="39.57510827336338" lon="9.325875377408881"><ele>117.0</ele><time>2026-04-25T07:00:39Z</time></trkpt><trkpt lat="39.57515749382648" lon="9.325689932283352"><ele>116.33333333333334</ele><time>2026-04-25T07:00:40Z</time></trkpt><trkpt lat="39.575228804066754" lon="9.325515033123748"><ele>115.66666666666667</ele><time>2026-04-25T07:00:41Z</time></trkpt><trkpt lat="39.575308736317226" lon="9.32534625648864"><ele>115.0</ele><time>2026-04-25T07:00:42Z</time></trkpt><trkpt lat="39.57540019768559" lon="9.325189509754935"><ele>115.0</ele><time>2026-04-25T07:00:43Z</time></trkpt><trkpt lat="39.575496300364826" lon="9.325037932377281"><ele>115.0</ele><time>2026-04-25T07:00:44Z</time></trkpt><trkpt lat="39.575590153386344" lon="9.324885389006965"><ele>115.0</ele><time>2026-04-25T07:00:45Z</time></trkpt><trkpt lat="39.575680651513174" lon="9.32473331299388"><ele>117.25</ele><time>2026-04-25T07:00:46Z</time></trkpt><trkpt lat="39.57576725555081" lon="9.324579593353416"><ele>119.5</ele><time>2026-04-25T07:00:47Z</time></trkpt><trkpt lat="39.57585638568189" lon="9.324425246703067"><ele>121.75</ele><time>2026-04-25T07:00:48Z</time></trkpt><trkpt lat="39.57594666246934" lon="9.324274651602181"><ele>124.0</ele><time>2026-04-25T07:00:49Z</time></trkpt><trkpt lat="39.57603992738792" lon="9.324119664526439"><ele>124.0</ele><time>2026-04-25T07:00:50Z</time></trkpt><trkpt lat="39.576134978396176" lon="9.323962198153884"><ele>124.0</ele><time>2026-04-25T07:00:51Z</time></trkpt><trkpt lat="39.576231990326924" lon="9.323801457967505"><ele>124.0</ele><time>2026-04-25T07:00:52Z</time></trkpt><trkpt lat="39.57632711013278" lon="9.323633443018336"><ele>122.25</ele><time>2026-04-25T07:00:53Z</time></trkpt><trkpt lat="39.57639272653872" lon="9.323506276690178"><ele>120.5</ele><time>2026-04-25T07:00:54Z</time></trkpt><trkpt lat="39.576451979031994" lon="9.323328789899325"><ele>118.75</ele><time>2026-04-25T07:00:55Z</time></trkpt><trkpt lat="39.576494053975885" lon="9.323149246758433"><ele>117.0</ele><time>2026-04-25T07:00:56Z</time></trkpt><trkpt lat="39.57651332237936" lon="9.322961406207638"><ele>117.0</ele><time>2026-04-25T07:00:57Z</time></trkpt><trkpt lat="39.57651996638986" lon="9.32277060978033"><ele>117.0</ele><time>2026-04-25T07:00:58Z</time></trkpt><trkpt lat="39.57652981019552" lon="9.322576950585777"><ele>117.0</ele><time>2026-04-25T07:00:59Z</time></trkpt><trkpt lat="39.57654906571883" lon="9.322379543440547"><ele>116.0</ele><time>2026-04-25T07:01:00Z</time></trkpt><trkpt lat="39.576567452163154" lon="9.322177234096689"><ele>115.0</ele><time>2026-04-25T07:01:01Z</time></trkpt><trkpt lat="39.57658509831383" lon="9.32197091394396"><ele>114.0</ele><time>2026-04-25T07:01:02Z</time></trkpt><trkpt lat="39.576603466121234" lon="9.321765427333698"><ele>114.0</ele><time>2026-04-25T07:01:03Z</time></trkpt><trkpt lat="39.57662406708953" lon="9.321562717619"><ele>114.0</ele><time>2026-04-25T07:01:04Z</time></trkpt><trkpt lat="39.57664297134982" lon="9.321362126041201"><ele>114.0</ele><time>2026-04-25T07:01:05Z</time></trkpt><trkpt lat="39.57666163282447" lon="9.321164573673228"><ele>114.0</ele><time>2026-04-25T07:01:06Z</time></trkpt><trkpt lat="39.57668223495257" lon="9.32096371940712"><ele>114.0</ele><time>2026-04-25T07:01:07Z</time></trkpt><trkpt lat="39.576704443417455" lon="9.320756676356856"><ele>114.0</ele><time>2026-04-25T07:01:08Z</time></trkpt><trkpt lat="39.5767258858262" lon="9.320544814353154"><ele>112.33333333333334</ele><time>2026-04-25T07:01:09Z</time></trkpt><trkpt lat="39.57674509274919" lon="9.320331299737386"><ele>110.66666666666667</ele><time>2026-04-25T07:01:10Z</time></trkpt><trkpt lat="39.57676478852162" lon="9.320115355104925"><ele>109.0</ele><time>2026-04-25T07:01:11Z</time></trkpt><trkpt lat="39.57678889582693" lon="9.319895449639287"><ele>109.33333333333334</ele><time>2026-04-25T07:01:12Z</time></trkpt><trkpt lat="39.57681233055615" lon="9.319673923462817"><ele>109.66666666666666</ele><time>2026-04-25T07:01:13Z</time></trkpt><trkpt lat="39.57683119018365" lon="9.319461721767768"><ele>110.0</ele><time>2026-04-25T07:01:14Z</time></trkpt><trkpt lat="39.576852200881724" lon="9.319259015479911"><ele>110.0</ele><time>2026-04-25T07:01:15Z</time></trkpt><trkpt lat="39.57687738299271" lon="9.319058611987113"><ele>110.0</ele><time>2026-04-25T07:01:16Z</time></trkpt><trkpt lat="39.57688211252409" lon="9.318861481790002"><ele>110.0</ele><time>2026-04-25T07:01:17Z</time></trkpt><trkpt lat="39.57685415611308" lon="9.318662080585911"><ele>109.66666666666666</ele><time>2026-04-25T07:01:18Z</time></trkpt><trkpt lat="39.57681152822084" lon="9.318464498047652"><ele>109.33333333333334</ele><time>2026-04-25T07:01:19Z</time></trkpt><trkpt lat="39.5767550995042" lon="9.318268568386905"><ele>109.0</ele><time>2026-04-25T07:01:20Z</time></trkpt><trkpt lat="39.57669985677305" lon="9.318074034865647"><ele>108.33333333333334</ele><time>2026-04-25T07:01:21Z</time></trkpt><trkpt lat="39.57664958201024" lon="9.317878159092606"><ele>107.66666666666666</ele><time>2026-04-25T07:01:22Z</time></trkpt><trkpt lat="39.57660043068148" lon="9.317678428548481"><ele>107.0</ele><time>2026-04-25T07:01:23Z</time></trkpt><trkpt lat="39.57654837585886" lon="9.317479093308627"><ele>107.0</ele><time>2026-04-25T07:01:24Z</time></trkpt><trkpt lat="39.576485766452514" lon="9.317286777096301"><ele>107.0</ele><time>2026-04-25T07:01:25Z</time></trkpt><trkpt lat="39.576413454829165" lon="9.317103560303796"><ele>107.0</ele><time>2026-04-25T07:01:26Z</time></trkpt><trkpt lat="39.57633351788737" lon="9.316924851297639"><ele>106.33333333333333</ele><time>2026-04-25T07:01:27Z</time></trkpt><trkpt lat="39.57625830210889" lon="9.316745623599271"><ele>105.66666666666666</ele><time>2026-04-25T07:01:28Z</time></trkpt><trkpt lat="39.57618312056598" lon="9.316569305086315"><ele>105.0</ele><time>2026-04-25T07:01:29Z</time></trkpt><trkpt lat="39.57610617129243" lon="9.316397003750797"><ele>106.25</ele><time>2026-04-25T07:01:30Z</time></trkpt><trkpt lat="39.57603470060685" lon="9.316228421618316"><ele>107.5</ele><time>2026-04-25T07:01:31Z</time></trkpt><trkpt lat="39.575979064356524" lon="9.31606677714117"><ele>108.75</ele><time>2026-04-25T07:01:32Z</time></trkpt><trkpt lat="39.57593179661847" lon="9.315907179933754"><ele>110.0</ele><time>2026-04-25T07:01:33Z</time></trkpt><trkpt lat="39.57591123203204" lon="9.315727646725497"><ele>109.25</ele><time>2026-04-25T07:01:34Z</time></trkpt><trkpt lat="39.5759198729353" lon="9.315548658269304"><ele>108.5</ele><time>2026-04-25T07:01:35Z</time></trkpt><trkpt lat="39.5759579663862" lon="9.315364993775784"><ele>107.75</ele><time>2026-04-25T07:01:36Z</time></trkpt><trkpt lat="39.57602356217416" lon="9.315197169486037"><ele>107.0</ele><time>2026-04-25T07:01:37Z</time></trkpt><trkpt lat="39.57610315062205" lon="9.31502828296607"><ele>105.66666666666666</ele><time>2026-04-25T07:01:38Z</time></trkpt><trkpt lat="39.57620123291582" lon="9.314871601157524"><ele>104.33333333333334</ele><time>2026-04-25T07:01:39Z</time></trkpt><trkpt lat="39.576301346520495" lon="9.314720342358775"><ele>103.0</ele><time>2026-04-25T07:01:40Z</time></trkpt><trkpt lat="39.57640582717495" lon="9.31457291236534"><ele>107.33333333333334</ele><time>2026-04-25T07:01:41Z</time></trkpt><trkpt lat="39.57651479069675" lon="9.31442523060924"><ele>111.66666666666666</ele><time>2026-04-25T07:01:42Z</time></trkpt><trkpt lat="39.57662216286177" lon="9.314285885980631"><ele>116.0</ele><time>2026-04-25T07:01:43Z</time></trkpt><trkpt lat="39.57673231382651" lon="9.31414889307022"><ele>116.0</ele><time>2026-04-25T07:01:44Z</time></trkpt><trkpt lat="39.576841697531584" lon="9.314009519036329"><ele>116.0</ele><time>2026-04-25T07:01:45Z</time></trkpt><trkpt lat="39.57694437133226" lon="9.313875062039717"><ele>116.0</ele><time>2026-04-25T07:01:46Z</time></trkpt><trkpt lat="39.5770428921892" lon="9.313735663207975"><ele>116.0</ele><time>2026-04-25T07:01:47Z</time></trkpt><trkpt lat="39.57718244026193" lon="9.313619460950958"><ele>119.33333333333333</ele><time>2026-04-25T07:01:48Z</time></trkpt><trkpt lat="39.5772927538451" lon="9.313477056108844"><ele>122.66666666666666</ele><time>2026-04-25T07:01:49Z</time></trkpt><trkpt lat="39.57739560828121" lon="9.313322359789234"><ele>126.0</ele><time>2026-04-25T07:01:50Z</time></trkpt><trkpt lat="39.577524849610874" lon="9.31321384611164"><ele>126.0</ele><time>2026-04-25T07:01:51Z</time></trkpt><trkpt lat="39.57763364051818" lon="9.313072578919707"><ele>126.0</ele><time>2026-04-25T07:01:52Z</time></trkpt><trkpt lat="39.577734195661655" lon="9.312926580242488"><ele>126.0</ele><time>2026-04-25T07:01:53Z</time></trkpt><trkpt lat="39.57782391685594" lon="9.312770316391639"><ele>128.75</ele><time>2026-04-25T07:01:54Z</time></trkpt><trkpt lat="39.57791769677763" lon="9.312629203311545"><ele>131.5</ele><time>2026-04-25T07:01:55Z</time></trkpt><trkpt lat="39.578036542822176" lon="9.312541517178824"><ele>134.25</ele><time>2026-04-25T07:01:56Z</time></trkpt><trkpt lat="39.57816805295791" lon="9.312497423588713"><ele>137.0</ele><time>2026-04-25T07:01:57Z</time></trkpt><trkpt lat="39.57831731030027" lon="9.312504276084855"><ele>137.0</ele><time>2026-04-25T07:01:58Z</time></trkpt><trkpt lat="39.578467222553236" lon="9.312526894122254"><ele>137.0</ele><time>2026-04-25T07:01:59Z</time></trkpt><trkpt lat="39.57861880611998" lon="9.312552915339108"><ele>137.0</ele><time>2026-04-25T07:02:00Z</time></trkpt><trkpt lat="39.57876772429535" lon="9.31256640391592"><ele>135.75</ele><time>2026-04-25T07:02:01Z</time></trkpt><trkpt lat="39.57891383304041" lon="9.31256525794744"><ele>134.5</ele><time>2026-04-25T07:02:02Z</time></trkpt><trkpt lat="39.57905611465242" lon="9.31253763702579"><ele>133.25</ele><time>2026-04-25T07:02:03Z</time></trkpt><trkpt lat="39.57919329944127" lon="9.312456592308644"><ele>132.0</ele><time>2026-04-25T07:02:04Z</time></trkpt><trkpt lat="39.57932425092915" lon="9.31233918984755"><ele>132.33333333333334</ele><time>2026-04-25T07:02:05Z</time></trkpt><trkpt lat="39.5794521886486" lon="9.312206153586983"><ele>132.66666666666669</ele><time>2026-04-25T07:02:06Z</time></trkpt><trkpt lat="39.579584254532314" lon="9.312077767470072"><ele>133.0</ele><time>2026-04-25T07:02:07Z</time></trkpt><trkpt lat="39.579721139384276" lon="9.311952340240667"><ele>133.0</ele><time>2026-04-25T07:02:08Z</time></trkpt><trkpt lat="39.579859090954805" lon="9.311829571480747"><ele>133.0</ele><time>2026-04-25T07:02:09Z</time></trkpt><trkpt lat="39.579996112275296" lon="9.31170488842273"><ele>133.0</ele><time>2026-04-25T07:02:10Z</time></trkpt><trkpt lat="39.58013081602699" lon="9.311578287318266"><ele>133.0</ele><time>2026-04-25T07:02:11Z</time></trkpt><trkpt lat="39.58026327524646" lon="9.311452507849896"><ele>133.0</ele><time>2026-04-25T07:02:12Z</time></trkpt><trkpt lat="39.58039570537664" lon="9.311330816007656"><ele>133.0</ele><time>2026-04-25T07:02:13Z</time></trkpt><trkpt lat="39.58052862607941" lon="9.31121613834393"><ele>133.0</ele><time>2026-04-25T07:02:14Z</time></trkpt><trkpt lat="39.580662395358786" lon="9.311102510112292"><ele>133.0</ele><time>2026-04-25T07:02:15Z</time></trkpt><trkpt lat="39.580793722092864" lon="9.310985980676575"><ele>133.0</ele><time>2026-04-25T07:02:16Z</time></trkpt><trkpt lat="39.580925175682125" lon="9.310866304255505"><ele>133.0</ele><time>2026-04-25T07:02:17Z</time></trkpt><trkpt lat="39.581056681227984" lon="9.310749629870056"><ele>133.0</ele><time>2026-04-25T07:02:18Z</time></trkpt><trkpt lat="39.58118155878597" lon="9.310651428590424"><ele>133.0</ele><time>2026-04-25T07:02:19Z</time></trkpt><trkpt lat="39.58129406421848" lon="9.310560660271335"><ele>133.0</ele><time>2026-04-25T07:02:20Z</time></trkpt><trkpt lat="39.58137882373182" lon="9.310455725090641"><ele>134.4</ele><time>2026-04-25T07:02:21Z</time></trkpt><trkpt lat="39.58142469246821" lon="9.310324593733581"><ele>135.8</ele><time>2026-04-25T07:02:22Z</time></trkpt><trkpt lat="39.58142681724995" lon="9.31018629845351"><ele>137.2</ele><time>2026-04-25T07:02:23Z</time></trkpt><trkpt lat="39.58138137185971" lon="9.310056215834432"><ele>138.6</ele><time>2026-04-25T07:02:24Z</time></trkpt><trkpt lat="39.58130928541926" lon="9.30995317524378"><ele>140.0</ele><time>2026-04-25T07:02:25Z</time></trkpt><trkpt lat="39.581201663179435" lon="9.30990066064525"><ele>141.5</ele><time>2026-04-25T07:02:26Z</time></trkpt><trkpt lat="39.581082549399675" lon="9.309924249935255"><ele>143.0</ele><time>2026-04-25T07:02:27Z</time></trkpt><trkpt lat="39.58097181762903" lon="9.309992577781058"><ele>144.5</ele><time>2026-04-25T07:02:28Z</time></trkpt><trkpt lat="39.580888560374255" lon="9.31011033328029"><ele>146.0</ele><time>2026-04-25T07:02:29Z</time></trkpt><trkpt lat="39.58082728446113" lon="9.310246472084835"><ele>146.0</ele><time>2026-04-25T07:02:30Z</time></trkpt><trkpt lat="39.58075441124815" lon="9.310364409959941"><ele>146.0</ele><time>2026-04-25T07:02:31Z</time></trkpt><trkpt lat="39.58066461778366" lon="9.31046395589297"><ele>146.0</ele><time>2026-04-25T07:02:32Z</time></trkpt><trkpt lat="39.58056631680902" lon="9.310557099120302"><ele>146.0</ele><time>2026-04-25T07:02:33Z</time></trkpt><trkpt lat="39.58046224752202" lon="9.310643907528979"><ele>148.25</ele><time>2026-04-25T07:02:34Z</time></trkpt><trkpt lat="39.580357654171564" lon="9.310729770579998"><ele>150.5</ele><time>2026-04-25T07:02:35Z</time></trkpt><trkpt lat="39.58024907083158" lon="9.3108134801807"><ele>152.75</ele><time>2026-04-25T07:02:36Z</time></trkpt><trkpt lat="39.58013708986404" lon="9.310891724095493"><ele>155.0</ele><time>2026-04-25T07:02:37Z</time></trkpt><trkpt lat="39.5800255255226" lon="9.310973333123648"><ele>155.0</ele><time>2026-04-25T07:02:38Z</time></trkpt><trkpt lat="39.579909105635565" lon="9.311051337245269"><ele>155.0</ele><time>2026-04-25T07:02:39Z</time></trkpt><trkpt lat="39.57978891252006" lon="9.311123910543081"><ele>155.0</ele><time>2026-04-25T07:02:40Z</time></trkpt><trkpt lat="39.57966835886632" lon="9.311203361510572"><ele>155.0</ele><time>2026-04-25T07:02:41Z</time></trkpt><trkpt lat="39.57954921698141" lon="9.311290125505506"><ele>155.25</ele><time>2026-04-25T07:02:42Z</time></trkpt><trkpt lat="39.57942957884951" lon="9.311375243123443"><ele>155.5</ele><time>2026-04-25T07:02:43Z</time></trkpt><trkpt lat="39.579309951299194" lon="9.31145723510776"><ele>155.75</ele><time>2026-04-25T07:02:44Z</time></trkpt><trkpt lat="39.579188019560334" lon="9.31153607738667"><ele>156.0</ele><time>2026-04-25T07:02:45Z</time></trkpt><trkpt lat="39.579061794652" lon="9.311602041268415"><ele>156.0</ele><time>2026-04-25T07:02:46Z</time></trkpt><trkpt lat="39.57892841815133" lon="9.31163736068822"><ele>156.0</ele><time>2026-04-25T07:02:47Z</time></trkpt><trkpt lat="39.57879134304913" lon="9.311641958839578"><ele>156.0</ele><time>2026-04-25T07:02:48Z</time></trkpt><trkpt lat="39.578649489364054" lon="9.311619053677747"><ele>156.0</ele><time>2026-04-25T07:02:49Z</time></trkpt><trkpt lat="39.57850803756876" lon="9.311586504811045"><ele>157.5</ele><time>2026-04-25T07:02:50Z</time></trkpt><trkpt lat="39.578370054578606" lon="9.311545962897725"><ele>159.0</ele><time>2026-04-25T07:02:51Z</time></trkpt><trkpt lat="39.578233384659" lon="9.31150835668774"><ele>160.5</ele><time>2026-04-25T07:02:52Z</time></trkpt><trkpt lat="39.57809192253773" lon="9.311477459407564"><ele>162.0</ele><time>2026-04-25T07:02:53Z</time></trkpt><trkpt lat="39.577952549912894" lon="9.311439951340546"><ele>171.75</ele><time>2026-04-25T07:02:54Z</time></trkpt><trkpt lat="39.57781602643736" lon="9.31139627460614"><ele>181.5</ele><time>2026-04-25T07:02:55Z</time></trkpt><trkpt lat="39.577683222400175" lon="9.311358316511248"><ele>191.25</ele><time>2026-04-25T07:02:56Z</time></trkpt><trkpt lat="39.57755137166174" lon="9.311352138758611"><ele>201.0</ele><time>2026-04-25T07:02:57Z</time></trkpt><trkpt lat="39.5774151853703" lon="9.311384941019883"><ele>196.25</ele><time>2026-04-25T07:02:58Z</time></trkpt><trkpt lat="39.57728957999466" lon="9.311461659198892"><ele>191.5</ele><time>2026-04-25T07:02:59Z</time></trkpt><trkpt lat="39.577181357949954" lon="9.311581373563774"><ele>186.75</ele><time>2026-04-25T07:03:00Z</time></trkpt><trkpt lat="39.57709194500135" lon="9.311725303166925"><ele>182.0</ele><time>2026-04-25T07:03:01Z</time></trkpt><trkpt lat="39.57701644571783" lon="9.311870904806268"><ele>182.0</ele><time>2026-04-25T07:03:02Z</time></trkpt><trkpt lat="39.576941680055064" lon="9.31199133654961"><ele>182.0</ele><time>2026-04-25T07:03:03Z</time></trkpt><trkpt lat="39.57685114345692" lon="9.312054189527428"><ele>182.0</ele><time>2026-04-25T07:03:04Z</time></trkpt><trkpt lat="39.576747129432334" lon="9.312075463969823"><ele>182.0</ele><time>2026-04-25T07:03:05Z</time></trkpt><trkpt lat="39.576642879835795" lon="9.312040633719922"><ele>182.0</ele><time>2026-04-25T07:03:06Z</time></trkpt><trkpt lat="39.57655895931496" lon="9.31194199340687"><ele>182.0</ele><time>2026-04-25T07:03:07Z</time></trkpt><trkpt lat="39.57653172134107" lon="9.311811110528637"><ele>182.0</ele><time>2026-04-25T07:03:08Z</time></trkpt><trkpt lat="39.576557235013006" lon="9.311679070091971"><ele>182.0</ele><time>2026-04-25T07:03:09Z</time></trkpt><trkpt lat="39.57663570241505" lon="9.31157180907191"><ele>182.0</ele><time>2026-04-25T07:03:10Z</time></trkpt><trkpt lat="39.576736364069085" lon="9.311496513073243"><ele>182.0</ele><time>2026-04-25T07:03:11Z</time></trkpt><trkpt lat="39.57684031017328" lon="9.311400317606205"><ele>185.25</ele><time>2026-04-25T07:03:12Z</time></trkpt><trkpt lat="39.576939633994506" lon="9.311295889584386"><ele>188.5</ele><time>2026-04-25T07:03:13Z</time></trkpt><trkpt lat="39.57704176177948" lon="9.311190989987645"><ele>191.75</ele><time>2026-04-25T07:03:14Z</time></trkpt><trkpt lat="39.57714858914761" lon="9.311082034013362"><ele>195.0</ele><time>2026-04-25T07:03:15Z</time></trkpt><trkpt lat="39.577250282080946" lon="9.310976669955078"><ele>196.5</ele><time>2026-04-25T07:03:16Z</time></trkpt><trkpt lat="39.57735428607063" lon="9.310873503480456"><ele>198.0</ele><time>2026-04-25T07:03:17Z</time></trkpt><trkpt lat="39.57746054977332" lon="9.310764448390218"><ele>199.5</ele><time>2026-04-25T07:03:18Z</time></trkpt><trkpt lat="39.57756704930424" lon="9.310651560137414"><ele>201.0</ele><time>2026-04-25T07:03:19Z</time></trkpt><trkpt lat="39.57767370770857" lon="9.31053141882463"><ele>203.25</ele><time>2026-04-25T07:03:20Z</time></trkpt><trkpt lat="39.57777699943396" lon="9.310406182385547"><ele>205.5</ele><time>2026-04-25T07:03:21Z</time></trkpt><trkpt lat="39.577877812936144" lon="9.310273135607297"><ele>207.75</ele><time>2026-04-25T07:03:22Z</time></trkpt><trkpt lat="39.577981457519705" lon="9.310143492229358"><ele>210.0</ele><time>2026-04-25T07:03:23Z</time></trkpt><trkpt lat="39.57808596026764" lon="9.310012736970005"><ele>210.0</ele><time>2026-04-25T07:03:24Z</time></trkpt><trkpt lat="39.57818555935458" lon="9.309876851625258"><ele>210.0</ele><time>2026-04-25T07:03:25Z</time></trkpt><trkpt lat="39.57828483217741" lon="9.30974090032839"><ele>210.0</ele><time>2026-04-25T07:03:26Z</time></trkpt><trkpt lat="39.578386856289036" lon="9.309608512317388"><ele>210.0</ele><time>2026-04-25T07:03:27Z</time></trkpt><trkpt lat="39.578492644873315" lon="9.309481405745972"><ele>210.5</ele><time>2026-04-25T07:03:28Z</time></trkpt><trkpt lat="39.5785965442954" lon="9.309350760723524"><ele>211.0</ele><time>2026-04-25T07:03:29Z</time></trkpt><trkpt lat="39.57869928625277" lon="9.309215197597942"><ele>211.5</ele><time>2026-04-25T07:03:30Z</time></trkpt><trkpt lat="39.578800608713976" lon="9.3090785913151"><ele>212.0</ele><time>2026-04-25T07:03:31Z</time></trkpt><trkpt lat="39.578902673409075" lon="9.30894298462031"><ele>218.0</ele><time>2026-04-25T07:03:32Z</time></trkpt><trkpt lat="39.579006961728616" lon="9.308807505523788"><ele>224.0</ele><time>2026-04-25T07:03:33Z</time></trkpt><trkpt lat="39.57910878957977" lon="9.308671988884074"><ele>230.0</ele><time>2026-04-25T07:03:34Z</time></trkpt><trkpt lat="39.579202321284185" lon="9.308532298202875"><ele>236.0</ele><time>2026-04-25T07:03:35Z</time></trkpt><trkpt lat="39.579291913307806" lon="9.308399224945688"><ele>236.0</ele><time>2026-04-25T07:03:36Z</time></trkpt><trkpt lat="39.57936688664568" lon="9.308275058424968"><ele>236.00000000000003</ele><time>2026-04-25T07:03:37Z</time></trkpt><trkpt lat="39.57940977687172" lon="9.308148420828337"><ele>236.00000000000003</ele><time>2026-04-25T07:03:38Z</time></trkpt><trkpt lat="39.57940716574336" lon="9.308013777555917"><ele>236.0</ele><time>2026-04-25T07:03:39Z</time></trkpt><trkpt lat="39.57935803470044" lon="9.307893872419676"><ele>236.0</ele><time>2026-04-25T07:03:40Z</time></trkpt><trkpt lat="39.57927511089094" lon="9.30780657223522"><ele>239.5</ele><time>2026-04-25T07:03:41Z</time></trkpt><trkpt lat="39.5791724225429" lon="9.307767748304492"><ele>243.0</ele><time>2026-04-25T07:03:42Z</time></trkpt><trkpt lat="39.579057304009524" lon="9.30779783931402"><ele>246.5</ele><time>2026-04-25T07:03:43Z</time></trkpt><trkpt lat="39.578952292748944" lon="9.307878997273423"><ele>250.0</ele><time>2026-04-25T07:03:44Z</time></trkpt><trkpt lat="39.57884747513269" lon="9.30796441629843"><ele>250.0</ele><time>2026-04-25T07:03:45Z</time></trkpt><trkpt lat="39.5787380462676" lon="9.308053893896592"><ele>250.0</ele><time>2026-04-25T07:03:46Z</time></trkpt><trkpt lat="39.578625163454106" lon="9.30812127835648"><ele>250.0</ele><time>2026-04-25T07:03:47Z</time></trkpt><trkpt lat="39.57850547025374" lon="9.308179130792768"><ele>250.0</ele><time>2026-04-25T07:03:48Z</time></trkpt><trkpt lat="39.57838663744482" lon="9.308243047157298"><ele>250.75</ele><time>2026-04-25T07:03:49Z</time></trkpt><trkpt lat="39.57826932369196" lon="9.308312841889345"><ele>251.5</ele><time>2026-04-25T07:03:50Z</time></trkpt><trkpt lat="39.57815220235913" lon="9.308378799775616"><ele>252.25</ele><time>2026-04-25T07:03:51Z</time></trkpt><trkpt lat="39.57803675687923" lon="9.308441129399391"><ele>253.0</ele><time>2026-04-25T07:03:52Z</time></trkpt><trkpt lat="39.57792463561807" lon="9.308507787008473"><ele>258.25</ele><time>2026-04-25T07:03:53Z</time></trkpt><trkpt lat="39.577812666667896" lon="9.308586586557984"><ele>263.5</ele><time>2026-04-25T07:03:54Z</time></trkpt><trkpt lat="39.577696153045494" lon="9.308644605487727"><ele>268.75</ele><time>2026-04-25T07:03:55Z</time></trkpt><trkpt lat="39.57757153257037" lon="9.308676757099482"><ele>274.0</ele><time>2026-04-25T07:03:56Z</time></trkpt><trkpt lat="39.577442664745156" lon="9.308680988079239"><ele>274.0</ele><time>2026-04-25T07:03:57Z</time></trkpt><trkpt lat="39.577313198351625" lon="9.308656439947779"><ele>274.0</ele><time>2026-04-25T07:03:58Z</time></trkpt><trkpt lat="39.57718846681111" lon="9.308595995846586"><ele>274.0</ele><time>2026-04-25T07:03:59Z</time></trkpt><trkpt lat="39.57707144919027" lon="9.308499111516525"><ele>274.0</ele><time>2026-04-25T07:04:00Z</time></trkpt><trkpt lat="39.57696209683257" lon="9.308396471076128"><ele>271.75</ele><time>2026-04-25T07:04:01Z</time></trkpt><trkpt lat="39.57684896690386" lon="9.308297463973572"><ele>269.5</ele><time>2026-04-25T07:04:02Z</time></trkpt><trkpt lat="39.576737039872434" lon="9.30819661970081"><ele>267.25</ele><time>2026-04-25T07:04:03Z</time></trkpt><trkpt lat="39.57662675952898" lon="9.308098711569606"><ele>265.0</ele><time>2026-04-25T07:04:04Z</time></trkpt><trkpt lat="39.576514461831515" lon="9.308005970582004"><ele>266.25</ele><time>2026-04-25T07:04:05Z</time></trkpt><trkpt lat="39.576401291246746" lon="9.307912308696585"><ele>267.5</ele><time>2026-04-25T07:04:06Z</time></trkpt><trkpt lat="39.576290621204414" lon="9.307819130682182"><ele>268.75</ele><time>2026-04-25T07:04:07Z</time></trkpt><trkpt lat="39.576178226050445" lon="9.30773408584738"><ele>270.0</ele><time>2026-04-25T07:04:08Z</time></trkpt><trkpt lat="39.57606609746446" lon="9.307661178438133"><ele>270.0</ele><time>2026-04-25T07:04:09Z</time></trkpt><trkpt lat="39.57597219324437" lon="9.307567302717928"><ele>270.0</ele><time>2026-04-25T07:04:10Z</time></trkpt><trkpt lat="39.57592917656097" lon="9.307445310984235"><ele>270.0</ele><time>2026-04-25T07:04:11Z</time></trkpt><trkpt lat="39.57593157534505" lon="9.307326744194306"><ele>270.0</ele><time>2026-04-25T07:04:12Z</time></trkpt><trkpt lat="39.57597780589447" lon="9.307215986827211"><ele>270.0</ele><time>2026-04-25T07:04:13Z</time></trkpt><trkpt lat="39.57606354468887" lon="9.307137734445517"><ele>272.8</ele><time>2026-04-25T07:04:14Z</time></trkpt><trkpt lat="39.57616859009853" lon="9.30711663806242"><ele>275.6</ele><time>2026-04-25T07:04:15Z</time></trkpt><trkpt lat="39.57626263353219" lon="9.307161967318391"><ele>278.4</ele><time>2026-04-25T07:04:16Z</time></trkpt><trkpt lat="39.57634632772667" lon="9.307232846640726"><ele>281.2</ele><time>2026-04-25T07:04:17Z</time></trkpt><trkpt lat="39.576415157337756" lon="9.307326877929773"><ele>284.0</ele><time>2026-04-25T07:04:18Z</time></trkpt><trkpt lat="39.57651048733006" lon="9.307471584646079"><ele>286.0</ele><time>2026-04-25T07:04:19Z</time></trkpt><trkpt lat="39.57662555792336" lon="9.307581671256994"><ele>288.0</ele><time>2026-04-25T07:04:20Z</time></trkpt><trkpt lat="39.576738962376076" lon="9.307684379361339"><ele>290.0</ele><time>2026-04-25T07:04:21Z</time></trkpt><trkpt lat="39.57684688645734" lon="9.307793587133231"><ele>292.0</ele><time>2026-04-25T07:04:22Z</time></trkpt><trkpt lat="39.57696156191258" lon="9.307895767060941"><ele>294.25</ele><time>2026-04-25T07:04:23Z</time></trkpt><trkpt lat="39.577090387303" lon="9.307966339009559"><ele>296.5</ele><time>2026-04-25T07:04:24Z</time></trkpt><trkpt lat="39.57722682362039" lon="9.307992006128325"><ele>298.75</ele><time>2026-04-25T07:04:25Z</time></trkpt><trkpt lat="39.57736024924386" lon="9.307985262775352"><ele>301.0</ele><time>2026-04-25T07:04:26Z</time></trkpt><trkpt lat="39.577487550005934" lon="9.307917888955902"><ele>301.0</ele><time>2026-04-25T07:04:27Z</time></trkpt><trkpt lat="39.57759258057404" lon="9.307802019697279"><ele>301.0</ele><time>2026-04-25T07:04:28Z</time></trkpt><trkpt lat="39.577680546184794" lon="9.307654350191909"><ele>301.0</ele><time>2026-04-25T07:04:29Z</time></trkpt><trkpt lat="39.57775024721796" lon="9.307494977478745"><ele>301.0</ele><time>2026-04-25T07:04:30Z</time></trkpt><trkpt lat="39.57779894808792" lon="9.307318485604975"><ele>298.75</ele><time>2026-04-25T07:04:31Z</time></trkpt><trkpt lat="39.57783870629525" lon="9.307144714380424"><ele>296.5</ele><time>2026-04-25T07:04:32Z</time></trkpt><trkpt lat="39.57787829877108" lon="9.306976108868675"><ele>294.25</ele><time>2026-04-25T07:04:33Z</time></trkpt><trkpt lat="39.57791812657543" lon="9.306813821358682"><ele>292.0</ele><time>2026-04-25T07:04:34Z</time></trkpt><trkpt lat="39.57796586375277" lon="9.306656523045934"><ele>292.0</ele><time>2026-04-25T07:04:35Z</time></trkpt><trkpt lat="39.5780131802799" lon="9.306501088805813"><ele>292.0</ele><time>2026-04-25T07:04:36Z</time></trkpt><trkpt lat="39.578053013766464" lon="9.306345812516813"><ele>292.0</ele><time>2026-04-25T07:04:37Z</time></trkpt><trkpt lat="39.57809143815707" lon="9.306192475699085"><ele>292.0</ele><time>2026-04-25T07:04:38Z</time></trkpt><trkpt lat="39.57814023603639" lon="9.306044790445748"><ele>298.0</ele><time>2026-04-25T07:04:39Z</time></trkpt><trkpt lat="39.578200080453044" lon="9.305902232318756"><ele>304.0</ele><time>2026-04-25T07:04:40Z</time></trkpt><trkpt lat="39.578276609408526" lon="9.305771515207388"><ele>310.0</ele><time>2026-04-25T07:04:41Z</time></trkpt><trkpt lat="39.57838062620757" lon="9.305667437240778"><ele>316.0</ele><time>2026-04-25T07:04:42Z</time></trkpt><trkpt lat="39.57850423728303" lon="9.305602603798869"><ele>323.75</ele><time>2026-04-25T07:04:43Z</time></trkpt><trkpt lat="39.57863955976968" lon="9.305572140527152"><ele>331.5</ele><time>2026-04-25T07:04:44Z</time></trkpt><trkpt lat="39.57877733987248" lon="9.305551478547507"><ele>339.25</ele><time>2026-04-25T07:04:45Z</time></trkpt><trkpt lat="39.57891551757332" lon="9.305511179893248"><ele>347.0</ele><time>2026-04-25T07:04:46Z</time></trkpt><trkpt lat="39.5790555333758" lon="9.305483858819983"><ele>348.75</ele><time>2026-04-25T07:04:47Z</time></trkpt><trkpt lat="39.57920071241643" lon="9.305482049241375"><ele>350.5</ele><time>2026-04-25T07:04:48Z</time></trkpt><trkpt lat="39.57934067745545" lon="9.305492280125712"><ele>352.25</ele><time>2026-04-25T07:04:49Z</time></trkpt><trkpt lat="39.579478073367305" lon="9.305521044217084"><ele>354.0</ele><time>2026-04-25T07:04:50Z</time></trkpt><trkpt lat="39.57961507144418" lon="9.30555389568048"><ele>345.0</ele><time>2026-04-25T07:04:51Z</time></trkpt><trkpt lat="39.57974533127716" lon="9.305588615468986"><ele>336.0</ele><time>2026-04-25T07:04:52Z</time></trkpt><trkpt lat="39.57986268241168" lon="9.30562263721319"><ele>327.0</ele><time>2026-04-25T07:04:53Z</time></trkpt><trkpt lat="39.57997114926917" lon="9.305651365712594"><ele>318.0</ele><time>2026-04-25T07:04:54Z</time></trkpt><trkpt lat="39.58008185318863" lon="9.305677153180424"><ele>318.0</ele><time>2026-04-25T07:04:55Z</time></trkpt><trkpt lat="39.58020179390163" lon="9.305673510346587"><ele>318.0</ele><time>2026-04-25T07:04:56Z</time></trkpt><trkpt lat="39.58032716781136" lon="9.305633409832543"><ele>318.0</ele><time>2026-04-25T07:04:57Z</time></trkpt><trkpt lat="39.580454500494305" lon="9.305574724331866"><ele>318.0</ele><time>2026-04-25T07:04:58Z</time></trkpt><trkpt lat="39.580584824784445" lon="9.305507679532344"><ele>324.25</ele><time>2026-04-25T07:04:59Z</time></trkpt><trkpt lat="39.58071552337007" lon="9.305440672332555"><ele>330.5</ele><time>2026-04-25T07:05:00Z</time></trkpt><trkpt lat="39.5808446185122" lon="9.305379413778379"><ele>336.75</ele><time>2026-04-25T07:05:01Z</time></trkpt><trkpt lat="39.58096652395802" lon="9.305312845123852"><ele>343.0</ele><time>2026-04-25T07:05:02Z</time></trkpt><trkpt lat="39.581091198249574" lon="9.305246047029724"><ele>341.75</ele><time>2026-04-25T07:05:03Z</time></trkpt><trkpt lat="39.58122047678036" lon="9.305182627500894"><ele>340.5</ele><time>2026-04-25T07:05:04Z</time></trkpt><trkpt lat="39.581347944846335" lon="9.305119161808635"><ele>339.25</ele><time>2026-04-25T07:05:05Z</time></trkpt><trkpt lat="39.58147338731198" lon="9.305045889630192"><ele>338.0</ele><time>2026-04-25T07:05:06Z</time></trkpt><trkpt lat="39.581596570304235" lon="9.304974913077304"><ele>338.0</ele><time>2026-04-25T07:05:07Z</time></trkpt><trkpt lat="39.581723000902606" lon="9.304916474652037"><ele>338.0</ele><time>2026-04-25T07:05:08Z</time></trkpt><trkpt lat="39.5818460225127" lon="9.304855628435888"><ele>338.0</ele><time>2026-04-25T07:05:09Z</time></trkpt><trkpt lat="39.58196852233904" lon="9.30479317356324"><ele>338.0</ele><time>2026-04-25T07:05:10Z</time></trkpt><trkpt lat="39.58207285919973" lon="9.304719581389673"><ele>339.75</ele><time>2026-04-25T07:05:11Z</time></trkpt><trkpt lat="39.58215083059819" lon="9.304609815443486"><ele>341.5</ele><time>2026-04-25T07:05:12Z</time></trkpt><trkpt lat="39.58218774635216" lon="9.30446281012419"><ele>343.25</ele><time>2026-04-25T07:05:13Z</time></trkpt><trkpt lat="39.58218800924034" lon="9.304300784674377"><ele>345.0</ele><time>2026-04-25T07:05:14Z</time></trkpt><trkpt lat="39.582156503499704" lon="9.30413440867001"><ele>345.0</ele><time>2026-04-25T07:05:15Z</time></trkpt><trkpt lat="39.58208486622687" lon="9.303978731518638"><ele>345.0</ele><time>2026-04-25T07:05:16Z</time></trkpt><trkpt lat="39.58198450241848" lon="9.30383816373548"><ele>345.0</ele><time>2026-04-25T07:05:17Z</time></trkpt><trkpt lat="39.58188231996875" lon="9.303702580407629"><ele>345.0</ele><time>2026-04-25T07:05:18Z</time></trkpt><trkpt lat="39.58179001977224" lon="9.303563467586544"><ele>344.75</ele><time>2026-04-25T07:05:19Z</time></trkpt><trkpt lat="39.58170233457202" lon="9.303403672030331"><ele>344.5</ele><time>2026-04-25T07:05:20Z</time></trkpt><trkpt lat="39.58162004143535" lon="9.303257544344001"><ele>344.25</ele><time>2026-04-25T07:05:21Z</time></trkpt><trkpt lat="39.581521303187316" lon="9.30312488874984"><ele>344.0</ele><time>2026-04-25T07:05:22Z</time></trkpt><trkpt lat="39.58141261454981" lon="9.303004746738246"><ele>344.0</ele><time>2026-04-25T07:05:23Z</time></trkpt><trkpt lat="39.58129811657676" lon="9.302891379239226"><ele>344.0</ele><time>2026-04-25T07:05:24Z</time></trkpt><trkpt lat="39.581179685520965" lon="9.30277921785457"><ele>344.0</ele><time>2026-04-25T07:05:25Z</time></trkpt><trkpt lat="39.58106521485429" lon="9.30267338434963"><ele>344.0</ele><time>2026-04-25T07:05:26Z</time></trkpt><trkpt lat="39.58096556969543" lon="9.302560664889388"><ele>343.75</ele><time>2026-04-25T07:05:27Z</time></trkpt><trkpt lat="39.58085872497374" lon="9.302454182183094"><ele>343.5</ele><time>2026-04-25T07:05:28Z</time></trkpt><trkpt lat="39.58075547655806" lon="9.302340302974367"><ele>343.25</ele><time>2026-04-25T07:05:29Z</time></trkpt><trkpt lat="39.58065284581647" lon="9.302225633666188"><ele>343.0</ele><time>2026-04-25T07:05:30Z</time></trkpt><trkpt lat="39.58056209238848" lon="9.302090519454788"><ele>343.0</ele><time>2026-04-25T07:05:31Z</time></trkpt><trkpt lat="39.58048175321667" lon="9.301950201236876"><ele>343.0</ele><time>2026-04-25T07:05:32Z</time></trkpt><trkpt lat="39.58042177783948" lon="9.301793535815998"><ele>343.0</ele><time>2026-04-25T07:05:33Z</time></trkpt><trkpt lat="39.580366065523926" lon="9.301627236670885"><ele>343.0</ele><time>2026-04-25T07:05:34Z</time></trkpt><trkpt lat="39.580316059544046" lon="9.301455072335402"><ele>347.5</ele><time>2026-04-25T07:05:35Z</time></trkpt><trkpt lat="39.580267501231255" lon="9.301280586029154"><ele>352.0</ele><time>2026-04-25T07:05:36Z</time></trkpt><trkpt lat="39.580228946740874" lon="9.301105717511632"><ele>356.5</ele><time>2026-04-25T07:05:37Z</time></trkpt><trkpt lat="39.58020361586775" lon="9.300924286721951"><ele>361.0</ele><time>2026-04-25T07:05:38Z</time></trkpt><trkpt lat="39.58019064262118" lon="9.30074041296285"><ele>360.75</ele><time>2026-04-25T07:05:39Z</time></trkpt><trkpt lat="39.58018544098582" lon="9.300558764559003"><ele>360.5</ele><time>2026-04-25T07:05:40Z</time></trkpt><trkpt lat="39.58018364416798" lon="9.30037728625484"><ele>360.25</ele><time>2026-04-25T07:05:41Z</time></trkpt><trkpt lat="39.580181865414104" lon="9.300197632338014"><ele>360.0</ele><time>2026-04-25T07:05:42Z</time></trkpt><trkpt lat="39.58017935294866" lon="9.300017139369912"><ele>360.0</ele><time>2026-04-25T07:05:43Z</time></trkpt><trkpt lat="39.580175925785525" lon="9.2998377063845"><ele>360.0</ele><time>2026-04-25T07:05:44Z</time></trkpt><trkpt lat="39.580173561743706" lon="9.299659154804894"><ele>360.0</ele><time>2026-04-25T07:05:45Z</time></trkpt><trkpt lat="39.580175571555685" lon="9.299485624046081"><ele>360.0</ele><time>2026-04-25T07:05:46Z</time></trkpt><trkpt lat="39.58018927494559" lon="9.299316697237929"><ele>360.0</ele><time>2026-04-25T07:05:47Z</time></trkpt><trkpt lat="39.58021946526155" lon="9.29914641503162"><ele>360.0</ele><time>2026-04-25T07:05:48Z</time></trkpt><trkpt lat="39.5803271895119" lon="9.299020976638294"><ele>360.0</ele><time>2026-04-25T07:05:49Z</time></trkpt><trkpt lat="39.58044161346399" lon="9.29891865831957"><ele>360.0</ele><time>2026-04-25T07:05:50Z</time></trkpt><trkpt lat="39.580571189447596" lon="9.298839356514295"><ele>364.75</ele><time>2026-04-25T07:05:51Z</time></trkpt><trkpt lat="39.58070231247717" lon="9.298750647950353"><ele>369.5</ele><time>2026-04-25T07:05:52Z</time></trkpt><trkpt lat="39.580831340176076" lon="9.29868182260428"><ele>374.25</ele><time>2026-04-25T07:05:53Z</time></trkpt><trkpt lat="39.58095894767208" lon="9.298612836862713"><ele>379.0</ele><time>2026-04-25T07:05:54Z</time></trkpt><trkpt lat="39.58108236648614" lon="9.298542521339561"><ele>378.75</ele><time>2026-04-25T07:05:55Z</time></trkpt><trkpt lat="39.581208610475095" lon="9.298490763136787"><ele>378.5</ele><time>2026-04-25T07:05:56Z</time></trkpt><trkpt lat="39.58133931097842" lon="9.29846204334271"><ele>378.25</ele><time>2026-04-25T07:05:57Z</time></trkpt><trkpt lat="39.58147871297386" lon="9.298473073399107"><ele>378.0</ele><time>2026-04-25T07:05:58Z</time></trkpt><trkpt lat="39.58161133327246" lon="9.298501266864236"><ele>378.0</ele><time>2026-04-25T07:05:59Z</time></trkpt><trkpt lat="39.58172994164812" lon="9.29851653130959"><ele>378.0</ele><time>2026-04-25T07:06:00Z</time></trkpt><trkpt lat="39.58183580538663" lon="9.298464713445924"><ele>378.0</ele><time>2026-04-25T07:06:01Z</time></trkpt><trkpt lat="39.581923522655806" lon="9.298363936822735"><ele>378.0</ele><time>2026-04-25T07:06:02Z</time></trkpt><trkpt lat="39.581966498232596" lon="9.298215477079887"><ele>385.25</ele><time>2026-04-25T07:06:03Z</time></trkpt><trkpt lat="39.581955786905986" lon="9.298058915278997"><ele>392.5</ele><time>2026-04-25T07:06:04Z</time></trkpt><trkpt lat="39.5818916294155" lon="9.297920536859657"><ele>399.75</ele><time>2026-04-25T07:06:05Z</time></trkpt><trkpt lat="39.58178634454539" lon="9.297812151508607"><ele>407.0</ele><time>2026-04-25T07:06:06Z</time></trkpt><trkpt lat="39.581642095307544" lon="9.297774868260252"><ele>407.0</ele><time>2026-04-25T07:06:07Z</time></trkpt><trkpt lat="39.581500795555634" lon="9.297771497981012"><ele>407.0</ele><time>2026-04-25T07:06:08Z</time></trkpt><trkpt lat="39.58136766798561" lon="9.297804929607011"><ele>407.0</ele><time>2026-04-25T07:06:09Z</time></trkpt><trkpt lat="39.58124404652247" lon="9.297843048607993"><ele>407.0</ele><time>2026-04-25T07:06:10Z</time></trkpt><trkpt lat="39.58113053807127" lon="9.297851285914883"><ele>406.6</ele><time>2026-04-25T07:06:11Z</time></trkpt><trkpt lat="39.58102160226914" lon="9.297853280623059"><ele>406.20000000000005</ele><time>2026-04-25T07:06:12Z</time></trkpt><trkpt lat="39.58091730634053" lon="9.29783982688244"><ele>405.8</ele><time>2026-04-25T07:06:13Z</time></trkpt><trkpt lat="39.580814190046056" lon="9.297806865419302"><ele>405.4</ele><time>2026-04-25T07:06:14Z</time></trkpt><trkpt lat="39.58070846890868" lon="9.297757715380705"><ele>405.0</ele><time>2026-04-25T07:06:15Z</time></trkpt><trkpt lat="39.580599575950906" lon="9.29769190911229"><ele>405.0</ele><time>2026-04-25T07:06:16Z</time></trkpt><trkpt lat="39.58049247740558" lon="9.29761367615922"><ele>405.0</ele><time>2026-04-25T07:06:17Z</time></trkpt><trkpt lat="39.58037446730506" lon="9.297542518308708"><ele>405.0</ele><time>2026-04-25T07:06:18Z</time></trkpt><trkpt lat="39.58025906408552" lon="9.297466838790806"><ele>405.0</ele><time>2026-04-25T07:06:19Z</time></trkpt><trkpt lat="39.580142643813225" lon="9.2973912157836"><ele>402.75</ele><time>2026-04-25T07:06:20Z</time></trkpt><trkpt lat="39.580030527456856" lon="9.29731026054615"><ele>400.5</ele><time>2026-04-25T07:06:21Z</time></trkpt><trkpt lat="39.57992913976336" lon="9.297212503819894"><ele>398.25</ele><time>2026-04-25T07:06:22Z</time></trkpt><trkpt lat="39.57982900114826" lon="9.297113231935596"><ele>396.0</ele><time>2026-04-25T07:06:23Z</time></trkpt><trkpt lat="39.57973409685807" lon="9.297014499672803"><ele>393.8</ele><time>2026-04-25T07:06:24Z</time></trkpt><trkpt lat="39.579642053596984" lon="9.296923584873367"><ele>391.6</ele><time>2026-04-25T07:06:25Z</time></trkpt><trkpt lat="39.57957016749485" lon="9.29682556811592"><ele>389.4</ele><time>2026-04-25T07:06:26Z</time></trkpt><trkpt lat="39.57950633034033" lon="9.296738230580843"><ele>387.2</ele><time>2026-04-25T07:06:27Z</time></trkpt><trkpt lat="39.579452025059396" lon="9.296634541619575"><ele>385.0</ele><time>2026-04-25T07:06:28Z</time></trkpt><trkpt lat="39.579397200625586" lon="9.296508920488309"><ele>385.5</ele><time>2026-04-25T07:06:29Z</time></trkpt><trkpt lat="39.579388460324544" lon="9.296356159006233"><ele>386.0</ele><time>2026-04-25T07:06:30Z</time></trkpt><trkpt lat="39.57938609481072" lon="9.296209540087382"><ele>386.5</ele><time>2026-04-25T07:06:31Z</time></trkpt><trkpt lat="39.57941287017514" lon="9.296061841987509"><ele>387.0</ele><time>2026-04-25T07:06:32Z</time></trkpt><trkpt lat="39.57945814034206" lon="9.2959133704209"><ele>387.0</ele><time>2026-04-25T07:06:33Z</time></trkpt><trkpt lat="39.57949710456474" lon="9.295749433513723"><ele>387.0</ele><time>2026-04-25T07:06:34Z</time></trkpt><trkpt lat="39.57955112035289" lon="9.295586917734823"><ele>387.0</ele><time>2026-04-25T07:06:35Z</time></trkpt><trkpt lat="39.57960564782636" lon="9.295416359190163"><ele>387.0</ele><time>2026-04-25T07:06:36Z</time></trkpt><trkpt lat="39.57967843788226" lon="9.295251844633736"><ele>388.75</ele><time>2026-04-25T07:06:37Z</time></trkpt><trkpt lat="39.57973837806005" lon="9.295082160780895"><ele>390.5</ele><time>2026-04-25T07:06:38Z</time></trkpt><trkpt lat="39.57979969077981" lon="9.294918499475692"><ele>392.25</ele><time>2026-04-25T07:06:39Z</time></trkpt><trkpt lat="39.57985190619526" lon="9.294746147687222"><ele>394.0</ele><time>2026-04-25T07:06:40Z</time></trkpt><trkpt lat="39.579917223617294" lon="9.294588655932376"><ele>394.0</ele><time>2026-04-25T07:06:41Z</time></trkpt><trkpt lat="39.57997694113579" lon="9.294433631925394"><ele>394.0</ele><time>2026-04-25T07:06:42Z</time></trkpt><trkpt lat="39.58005042238505" lon="9.294295010462735"><ele>394.0</ele><time>2026-04-25T07:06:43Z</time></trkpt><trkpt lat="39.58010581297796" lon="9.294155117734414"><ele>394.0</ele><time>2026-04-25T07:06:44Z</time></trkpt><trkpt lat="39.58014186516542" lon="9.294011547863864"><ele>394.6</ele><time>2026-04-25T07:06:45Z</time></trkpt><trkpt lat="39.580200363946965" lon="9.293894120113679"><ele>395.2</ele><time>2026-04-25T07:06:46Z</time></trkpt><trkpt lat="39.58022397747565" lon="9.293753518879118"><ele>395.8</ele><time>2026-04-25T07:06:47Z</time></trkpt><trkpt lat="39.58020082773423" lon="9.293618147562531"><ele>396.40000000000003</ele><time>2026-04-25T07:06:48Z</time></trkpt><trkpt lat="39.58019208239313" lon="9.29348988982769"><ele>397.0</ele><time>2026-04-25T07:06:49Z</time></trkpt><trkpt lat="39.58013728966195" lon="9.293366364055874"><ele>397.0</ele><time>2026-04-25T07:06:50Z</time></trkpt><trkpt lat="39.58005208440247" lon="9.293273657921727"><ele>397.0</ele><time>2026-04-25T07:06:51Z</time></trkpt><trkpt lat="39.57995806287161" lon="9.293205630653354"><ele>397.0</ele><time>2026-04-25T07:06:52Z</time></trkpt><trkpt lat="39.579837834441165" lon="9.293169668833018"><ele>397.0</ele><time>2026-04-25T07:06:53Z</time></trkpt><trkpt lat="39.57970722847857" lon="9.293145166471914"><ele>397.0</ele><time>2026-04-25T07:06:54Z</time></trkpt><trkpt lat="39.57958820905842" lon="9.293113761969638"><ele>397.0</ele><time>2026-04-25T07:06:55Z</time></trkpt><trkpt lat="39.57948469074978" lon="9.293053164347173"><ele>397.0</ele><time>2026-04-25T07:06:56Z</time></trkpt><trkpt lat="39.57939304277832" lon="9.292994717896836"><ele>397.0</ele><time>2026-04-25T07:06:57Z</time></trkpt><trkpt lat="39.579308889248736" lon="9.292915865406206"><ele>397.0</ele><time>2026-04-25T07:06:58Z</time></trkpt><trkpt lat="39.57924368252742" lon="9.292803678161723"><ele>396.8</ele><time>2026-04-25T07:06:59Z</time></trkpt><trkpt lat="39.579208499699845" lon="9.292675220087473"><ele>396.6</ele><time>2026-04-25T07:07:00Z</time></trkpt><trkpt lat="39.57919785926751" lon="9.292544764734371"><ele>396.40000000000003</ele><time>2026-04-25T07:07:01Z</time></trkpt><trkpt lat="39.57920631340824" lon="9.292404122282921"><ele>396.20000000000005</ele><time>2026-04-25T07:07:02Z</time></trkpt><trkpt lat="39.57922936368076" lon="9.292256398752798"><ele>396.0</ele><time>2026-04-25T07:07:03Z</time></trkpt><trkpt lat="39.579261995639825" lon="9.292103270454463"><ele>396.0</ele><time>2026-04-25T07:07:04Z</time></trkpt><trkpt lat="39.57928641109607" lon="9.291941284184036"><ele>396.0</ele><time>2026-04-25T07:07:05Z</time></trkpt><trkpt lat="39.57932677933825" lon="9.29177889111916"><ele>396.0</ele><time>2026-04-25T07:07:06Z</time></trkpt><trkpt lat="39.57936534339105" lon="9.291614946789016"><ele>396.0</ele><time>2026-04-25T07:07:07Z</time></trkpt><trkpt lat="39.579420846100035" lon="9.291464163028623"><ele>396.5</ele><time>2026-04-25T07:07:08Z</time></trkpt><trkpt lat="39.57945560786866" lon="9.29131347761626"><ele>397.0</ele><time>2026-04-25T07:07:09Z</time></trkpt><trkpt lat="39.57946564148015" lon="9.291165260672514"><ele>397.5</ele><time>2026-04-25T07:07:10Z</time></trkpt><trkpt lat="39.57946212014216" lon="9.291024712416657"><ele>398.0</ele><time>2026-04-25T07:07:11Z</time></trkpt><trkpt lat="39.579418180991944" lon="9.29089982693001"><ele>398.0</ele><time>2026-04-25T07:07:12Z</time></trkpt><trkpt lat="39.57935193041137" lon="9.29079967683262"><ele>398.0</ele><time>2026-04-25T07:07:13Z</time></trkpt><trkpt lat="39.5792717803154" lon="9.290709779561254"><ele>398.0</ele><time>2026-04-25T07:07:14Z</time></trkpt><trkpt lat="39.579206356419846" lon="9.290599912099541"><ele>398.0</ele><time>2026-04-25T07:07:15Z</time></trkpt><trkpt lat="39.57913563710105" lon="9.290497433181262"><ele>398.0</ele><time>2026-04-25T07:07:16Z</time></trkpt><trkpt lat="39.57906613620417" lon="9.290392512010255"><ele>398.4</ele><time>2026-04-25T07:07:17Z</time></trkpt><trkpt lat="39.57900216559269" lon="9.290289191648192"><ele>398.79999999999995</ele><time>2026-04-25T07:07:18Z</time></trkpt><trkpt lat="39.57894369307682" lon="9.290186838890062"><ele>399.2</ele><time>2026-04-25T07:07:19Z</time></trkpt><trkpt lat="39.578896859199595" lon="9.29008148293448"><ele>399.6</ele><time>2026-04-25T07:07:20Z</time></trkpt><trkpt lat="39.5788748714189" lon="9.289981744934494"><ele>400.0</ele><time>2026-04-25T07:07:21Z</time></trkpt><trkpt lat="39.57889231152602" lon="9.289880554939872"><ele>400.00000000000006</ele><time>2026-04-25T07:07:22Z</time></trkpt><trkpt lat="39.578925039600456" lon="9.28977938135288"><ele>400.0</ele><time>2026-04-25T07:07:23Z</time></trkpt><trkpt lat="39.57896230526789" lon="9.289688229044145"><ele>400.0</ele><time>2026-04-25T07:07:24Z</time></trkpt><trkpt lat="39.5790047129642" lon="9.28961643733728"><ele>400.0</ele><time>2026-04-25T07:07:25Z</time></trkpt><trkpt lat="39.579041092524754" lon="9.289533174602568"><ele>400.00000000000006</ele><time>2026-04-25T07:07:26Z</time></trkpt><trkpt lat="39.579106853558585" lon="9.289470135009783"><ele>400.0</ele><time>2026-04-25T07:07:27Z</time></trkpt><trkpt lat="39.57918211732737" lon="9.28940174256528"><ele>401.6</ele><time>2026-04-25T07:07:28Z</time></trkpt><trkpt lat="39.57926216240699" lon="9.28932925794324"><ele>403.2</ele><time>2026-04-25T07:07:29Z</time></trkpt><trkpt lat="39.579348458434" lon="9.289248827016067"><ele>404.79999999999995</ele><time>2026-04-25T07:07:30Z</time></trkpt><trkpt lat="39.57943365145306" lon="9.289175013221989"><ele>406.4</ele><time>2026-04-25T07:07:31Z</time></trkpt><trkpt lat="39.5795201551727" lon="9.289096337102068"><ele>408.0</ele><time>2026-04-25T07:07:32Z</time></trkpt><trkpt lat="39.57960563034416" lon="9.289011378914994"><ele>408.0</ele><time>2026-04-25T07:07:33Z</time></trkpt><trkpt lat="39.579691005229066" lon="9.288926102133365"><ele>408.0</ele><time>2026-04-25T07:07:34Z</time></trkpt><trkpt lat="39.57977942069771" lon="9.28884478552836"><ele>408.0</ele><time>2026-04-25T07:07:35Z</time></trkpt><trkpt lat="39.57986604258339" lon="9.288761753275091"><ele>408.0</ele><time>2026-04-25T07:07:36Z</time></trkpt><trkpt lat="39.57995127729474" lon="9.288680981803745"><ele>408.0</ele><time>2026-04-25T07:07:37Z</time></trkpt><trkpt lat="39.58012646913157" lon="9.28853319990248"><ele>407.4</ele><time>2026-04-25T07:07:39Z</time></trkpt><trkpt lat="39.58020062799899" lon="9.28843558927788"><ele>406.79999999999995</ele><time>2026-04-25T07:07:40Z</time></trkpt><trkpt lat="39.58028919737758" lon="9.288357207395904"><ele>406.2</ele><time>2026-04-25T07:07:41Z</time></trkpt><trkpt lat="39.58037125823149" lon="9.288270257266579"><ele>405.6</ele><time>2026-04-25T07:07:42Z</time></trkpt><trkpt lat="39.58044054594105" lon="9.288170141206518"><ele>405.0</ele><time>2026-04-25T07:07:43Z</time></trkpt><trkpt lat="39.580491147700315" lon="9.288052375917857"><ele>405.0</ele><time>2026-04-25T07:07:44Z</time></trkpt><trkpt lat="39.580536097517474" lon="9.287936599926853"><ele>405.0</ele><time>2026-04-25T07:07:45Z</time></trkpt><trkpt lat="39.58051170830615" lon="9.287794977674492"><ele>405.0</ele><time>2026-04-25T07:07:46Z</time></trkpt><trkpt lat="39.58051186712974" lon="9.287665864094993"><ele>405.0</ele><time>2026-04-25T07:07:47Z</time></trkpt><trkpt lat="39.58047332056414" lon="9.287541032969585"><ele>405.0</ele><time>2026-04-25T07:07:48Z</time></trkpt><trkpt lat="39.58040102027435" lon="9.28744446971093"><ele>404.8</ele><time>2026-04-25T07:07:49Z</time></trkpt><trkpt lat="39.580320677888" lon="9.287360524868811"><ele>404.6</ele><time>2026-04-25T07:07:50Z</time></trkpt><trkpt lat="39.58023365106388" lon="9.287296725634674"><ele>404.4</ele><time>2026-04-25T07:07:51Z</time></trkpt><trkpt lat="39.58013954297125" lon="9.287252746708365"><ele>404.2</ele><time>2026-04-25T07:07:52Z</time></trkpt><trkpt lat="39.580042386013545" lon="9.287228702378496"><ele>404.0</ele><time>2026-04-25T07:07:53Z</time></trkpt><trkpt lat="39.57994503183857" lon="9.287205866502429"><ele>404.0</ele><time>2026-04-25T07:07:54Z</time></trkpt><trkpt lat="39.579849690322135" lon="9.287179380447423"><ele>404.0</ele><time>2026-04-25T07:07:55Z</time></trkpt><trkpt lat="39.57975546357785" lon="9.287153545262962"><ele>404.0</ele><time>2026-04-25T07:07:56Z</time></trkpt><trkpt lat="39.579659638071405" lon="9.287115421119942"><ele>404.0</ele><time>2026-04-25T07:07:57Z</time></trkpt><trkpt lat="39.5795700882576" lon="9.287092387279994"><ele>404.0</ele><time>2026-04-25T07:07:58Z</time></trkpt><trkpt lat="39.57948244991001" lon="9.28706782968515"><ele>403.49999999999994</ele><time>2026-04-25T07:07:59Z</time></trkpt><trkpt lat="39.579402927375675" lon="9.287058257630102"><ele>403.0</ele><time>2026-04-25T07:08:00Z</time></trkpt><trkpt lat="39.57933791217793" lon="9.287044166919392"><ele>402.5</ele><time>2026-04-25T07:08:01Z</time></trkpt><trkpt lat="39.57924226122178" lon="9.287076132483252"><ele>402.0</ele><time>2026-04-25T07:08:03Z</time></trkpt><trkpt lat="39.57915861301412" lon="9.287163979036986"><ele>401.49999999999994</ele><time>2026-04-25T07:08:05Z</time></trkpt><trkpt lat="39.57908883988534" lon="9.287247962708049"><ele>401.0</ele><time>2026-04-25T07:08:07Z</time></trkpt><trkpt lat="39.57901779279839" lon="9.287333479800699"><ele>398.8</ele><time>2026-04-25T07:08:09Z</time></trkpt><trkpt lat="39.578937134518355" lon="9.287430565534576"><ele>396.6</ele><time>2026-04-25T07:08:11Z</time></trkpt><trkpt lat="39.578868618863744" lon="9.287536545411486"><ele>394.4</ele><time>2026-04-25T07:08:13Z</time></trkpt><trkpt lat="39.578780559067226" lon="9.287604767277035"><ele>392.2</ele><time>2026-04-25T07:08:15Z</time></trkpt><trkpt lat="39.578692988423676" lon="9.287646614549578"><ele>390.0</ele><time>2026-04-25T07:08:17Z</time></trkpt><trkpt lat="39.5785940187282" lon="9.28763362638378"><ele>389.4</ele><time>2026-04-25T07:08:19Z</time></trkpt><trkpt lat="39.578498096548266" lon="9.28759145922762"><ele>388.8</ele><time>2026-04-25T07:08:21Z</time></trkpt><trkpt lat="39.578416368872595" lon="9.287534730509542"><ele>388.20000000000005</ele><time>2026-04-25T07:08:23Z</time></trkpt><trkpt lat="39.57836356937189" lon="9.287457356829925"><ele>387.6</ele><time>2026-04-25T07:08:25Z</time></trkpt><trkpt lat="39.578314857897794" lon="9.287368027218154"><ele>387.0</ele><time>2026-04-25T07:08:27Z</time></trkpt><trkpt lat="39.578250635585604" lon="9.287218432674253"><ele>388.0</ele><time>2026-04-25T07:08:29Z</time></trkpt><trkpt lat="39.57821467092203" lon="9.287126890634283"><ele>389.0</ele><time>2026-04-25T07:08:30Z</time></trkpt><trkpt lat="39.57817805952729" lon="9.287036374467034"><ele>390.0</ele><time>2026-04-25T07:08:31Z</time></trkpt><trkpt lat="39.578141274965915" lon="9.28694543122304"><ele>391.0</ele><time>2026-04-25T07:08:32Z</time></trkpt><trkpt lat="39.578115517731966" lon="9.28684794491745"><ele>392.0</ele><time>2026-04-25T07:08:33Z</time></trkpt><trkpt lat="39.578102741587685" lon="9.286755187189115"><ele>393.0</ele><time>2026-04-25T07:08:34Z</time></trkpt><trkpt lat="39.57809106997874" lon="9.286651023289826"><ele>393.0</ele><time>2026-04-25T07:08:35Z</time></trkpt><trkpt lat="39.57808647408897" lon="9.286542229898817"><ele>393.0</ele><time>2026-04-25T07:08:36Z</time></trkpt><trkpt lat="39.57809770660372" lon="9.286437730367778"><ele>393.0</ele><time>2026-04-25T07:08:37Z</time></trkpt><trkpt lat="39.578098547974086" lon="9.28632763744717"><ele>393.0</ele><time>2026-04-25T07:08:38Z</time></trkpt><trkpt lat="39.578132522796274" lon="9.286221170596493"><ele>393.0</ele><time>2026-04-25T07:08:39Z</time></trkpt><trkpt lat="39.57817824462354" lon="9.286122721779348"><ele>393.0</ele><time>2026-04-25T07:08:40Z</time></trkpt><trkpt lat="39.57823350312117" lon="9.28602780820357"><ele>392.0</ele><time>2026-04-25T07:08:41Z</time></trkpt><trkpt lat="39.57827749142088" lon="9.285911773347367"><ele>391.0</ele><time>2026-04-25T07:08:42Z</time></trkpt><trkpt lat="39.57832816624006" lon="9.285808653384429"><ele>390.0</ele><time>2026-04-25T07:08:43Z</time></trkpt><trkpt lat="39.57841164951003" lon="9.285744418716858"><ele>389.0</ele><time>2026-04-25T07:08:44Z</time></trkpt><trkpt lat="39.57849667042943" lon="9.285696160700086"><ele>388.0</ele><time>2026-04-25T07:08:45Z</time></trkpt><trkpt lat="39.57867532102033" lon="9.285573779718876"><ele>388.4</ele><time>2026-04-25T07:08:47Z</time></trkpt><trkpt lat="39.57876394227668" lon="9.285499237165023"><ele>388.79999999999995</ele><time>2026-04-25T07:08:48Z</time></trkpt><trkpt lat="39.578845230620296" lon="9.28541356266635"><ele>389.2</ele><time>2026-04-25T07:08:49Z</time></trkpt><trkpt lat="39.578923471273754" lon="9.28532434560735"><ele>389.6</ele><time>2026-04-25T07:08:50Z</time></trkpt><trkpt lat="39.57900029070248" lon="9.28523572452151"><ele>390.0</ele><time>2026-04-25T07:08:51Z</time></trkpt><trkpt lat="39.579075214041666" lon="9.285147739896868"><ele>390.0</ele><time>2026-04-25T07:08:52Z</time></trkpt><trkpt lat="39.5791511047777" lon="9.285057800663294"><ele>390.0</ele><time>2026-04-25T07:08:53Z</time></trkpt><trkpt lat="39.579225861853814" lon="9.284969204785845"><ele>390.0</ele><time>2026-04-25T07:08:54Z</time></trkpt><trkpt lat="39.579303833374965" lon="9.284877743165262"><ele>390.0</ele><time>2026-04-25T07:08:55Z</time></trkpt><trkpt lat="39.57938375324502" lon="9.284786339435085"><ele>390.0</ele><time>2026-04-25T07:08:56Z</time></trkpt><trkpt lat="39.57946372670217" lon="9.28469487445319"><ele>390.6</ele><time>2026-04-25T07:08:57Z</time></trkpt><trkpt lat="39.57954367367723" lon="9.284603439738724"><ele>391.2</ele><time>2026-04-25T07:08:58Z</time></trkpt><trkpt lat="39.57962423882146" lon="9.284511298090372"><ele>391.79999999999995</ele><time>2026-04-25T07:08:59Z</time></trkpt><trkpt lat="39.5797049383118" lon="9.28441900262403"><ele>392.4</ele><time>2026-04-25T07:09:00Z</time></trkpt><trkpt lat="39.57978493689759" lon="9.284325612021417"><ele>393.0</ele><time>2026-04-25T07:09:01Z</time></trkpt><trkpt lat="39.57986383111315" lon="9.284231798627731"><ele>393.0</ele><time>2026-04-25T07:09:02Z</time></trkpt><trkpt lat="39.58000520820864" lon="9.284029974632322"><ele>393.0</ele><time>2026-04-25T07:09:04Z</time></trkpt><trkpt lat="39.58006749984916" lon="9.2839417359018"><ele>393.0</ele><time>2026-04-25T07:09:05Z</time></trkpt><trkpt lat="39.58012504933713" lon="9.283843924680106"><ele>393.0</ele><time>2026-04-25T07:09:06Z</time></trkpt><trkpt lat="39.5801781025204" lon="9.283737036917067"><ele>393.0</ele><time>2026-04-25T07:09:07Z</time></trkpt><trkpt lat="39.58024916579385" lon="9.283636502977064"><ele>393.0</ele><time>2026-04-25T07:09:08Z</time></trkpt><trkpt lat="39.58030583307638" lon="9.283521528943492"><ele>393.0</ele><time>2026-04-25T07:09:09Z</time></trkpt><trkpt lat="39.58035070520255" lon="9.283389048649164"><ele>393.0</ele><time>2026-04-25T07:09:10Z</time></trkpt><trkpt lat="39.58041701295776" lon="9.283276070200063"><ele>393.0</ele><time>2026-04-25T07:09:11Z</time></trkpt><trkpt lat="39.58047404357343" lon="9.283156507471642"><ele>394.2</ele><time>2026-04-25T07:09:12Z</time></trkpt><trkpt lat="39.58053775395742" lon="9.283043739616039"><ele>395.4</ele><time>2026-04-25T07:09:13Z</time></trkpt><trkpt lat="39.580594153729805" lon="9.28292748815672"><ele>396.59999999999997</ele><time>2026-04-25T07:09:14Z</time></trkpt><trkpt lat="39.580638185329505" lon="9.28279839748798"><ele>397.79999999999995</ele><time>2026-04-25T07:09:15Z</time></trkpt><trkpt lat="39.58069970395447" lon="9.282682293642026"><ele>399.0</ele><time>2026-04-25T07:09:16Z</time></trkpt><trkpt lat="39.58075971710379" lon="9.282562609054262"><ele>399.0</ele><time>2026-04-25T07:09:17Z</time></trkpt><trkpt lat="39.58081776863328" lon="9.282444253523133"><ele>399.0</ele><time>2026-04-25T07:09:18Z</time></trkpt><trkpt lat="39.580873053157575" lon="9.282329120612456"><ele>399.0</ele><time>2026-04-25T07:09:19Z</time></trkpt><trkpt lat="39.58092597700362" lon="9.282208570822306"><ele>399.0</ele><time>2026-04-25T07:09:20Z</time></trkpt><trkpt lat="39.58096668372291" lon="9.282078015171036"><ele>399.0</ele><time>2026-04-25T07:09:21Z</time></trkpt><trkpt lat="39.58099005660002" lon="9.281938751872111"><ele>400.0</ele><time>2026-04-25T07:09:22Z</time></trkpt><trkpt lat="39.58099972673346" lon="9.281794063973289"><ele>401.0</ele><time>2026-04-25T07:09:23Z</time></trkpt><trkpt lat="39.58103201613956" lon="9.281652898668641"><ele>402.0</ele><time>2026-04-25T07:09:24Z</time></trkpt><trkpt lat="39.581044558879086" lon="9.28151019190823"><ele>403.0</ele><time>2026-04-25T07:09:25Z</time></trkpt><trkpt lat="39.58105945110275" lon="9.281359550287997"><ele>404.0</ele><time>2026-04-25T07:09:26Z</time></trkpt><trkpt lat="39.581074322229156" lon="9.281209844518237"><ele>405.0</ele><time>2026-04-25T07:09:27Z</time></trkpt><trkpt lat="39.581091595862446" lon="9.281059292074241"><ele>406.0</ele><time>2026-04-25T07:09:28Z</time></trkpt><trkpt lat="39.58111519515709" lon="9.28091416964292"><ele>407.0</ele><time>2026-04-25T07:09:29Z</time></trkpt><trkpt lat="39.581159205296956" lon="9.280775785316191"><ele>408.5</ele><time>2026-04-25T07:09:30Z</time></trkpt><trkpt lat="39.58121640102676" lon="9.280637230010456"><ele>410.0</ele><time>2026-04-25T07:09:31Z</time></trkpt><trkpt lat="39.5812808499004" lon="9.280502843675102"><ele>411.5</ele><time>2026-04-25T07:09:32Z</time></trkpt><trkpt lat="39.5813466619415" lon="9.280363803975163"><ele>413.0</ele><time>2026-04-25T07:09:33Z</time></trkpt><trkpt lat="39.58139845821914" lon="9.280213552003874"><ele>413.25</ele><time>2026-04-25T07:09:34Z</time></trkpt><trkpt lat="39.58146548499541" lon="9.280073659258987"><ele>413.5</ele><time>2026-04-25T07:09:35Z</time></trkpt><trkpt lat="39.581543483086065" lon="9.279947983983925"><ele>413.75</ele><time>2026-04-25T07:09:36Z</time></trkpt><trkpt lat="39.58160883047456" lon="9.279809925919405"><ele>414.0</ele><time>2026-04-25T07:09:37Z</time></trkpt><trkpt lat="39.58167315329159" lon="9.279674032435327"><ele>414.75</ele><time>2026-04-25T07:09:38Z</time></trkpt><trkpt lat="39.581737753023496" lon="9.279538154012979"><ele>415.5</ele><time>2026-04-25T07:09:39Z</time></trkpt><trkpt lat="39.58180248064582" lon="9.279402356130813"><ele>416.25</ele><time>2026-04-25T07:09:40Z</time></trkpt><trkpt lat="39.58185339203232" lon="9.279259605002135"><ele>417.0</ele><time>2026-04-25T07:09:41Z</time></trkpt><trkpt lat="39.58191626519704" lon="9.279131529104404"><ele>417.0</ele><time>2026-04-25T07:09:42Z</time></trkpt><trkpt lat="39.58198016368284" lon="9.279002716946358"><ele>417.0</ele><time>2026-04-25T07:09:43Z</time></trkpt><trkpt lat="39.58204617200988" lon="9.278864124006352"><ele>417.0</ele><time>2026-04-25T07:09:44Z</time></trkpt><trkpt lat="39.58211472829794" lon="9.278725621526878"><ele>417.0</ele><time>2026-04-25T07:09:45Z</time></trkpt><trkpt lat="39.58218254391947" lon="9.27858578282939"><ele>418.75</ele><time>2026-04-25T07:09:46Z</time></trkpt><trkpt lat="39.58224741118404" lon="9.278440260385398"><ele>420.5</ele><time>2026-04-25T07:09:47Z</time></trkpt><trkpt lat="39.582313601180395" lon="9.278295101180964"><ele>422.25</ele><time>2026-04-25T07:09:48Z</time></trkpt><trkpt lat="39.582387143000894" lon="9.278151828338988"><ele>424.0</ele><time>2026-04-25T07:09:49Z</time></trkpt><trkpt lat="39.58245948053607" lon="9.278006960886868"><ele>424.5</ele><time>2026-04-25T07:09:50Z</time></trkpt><trkpt lat="39.58252130048466" lon="9.277855247315479"><ele>425.0</ele><time>2026-04-25T07:09:51Z</time></trkpt><trkpt lat="39.582591031923535" lon="9.277708081437709"><ele>425.5</ele><time>2026-04-25T07:09:52Z</time></trkpt><trkpt lat="39.5826122442229" lon="9.277535314138442"><ele>426.0</ele><time>2026-04-25T07:09:53Z</time></trkpt><trkpt lat="39.58261895978394" lon="9.277364574428347"><ele>428.0</ele><time>2026-04-25T07:09:54Z</time></trkpt><trkpt lat="39.58258577209602" lon="9.277199590977467"><ele>430.0</ele><time>2026-04-25T07:09:55Z</time></trkpt><trkpt lat="39.582526453520536" lon="9.27704648507134"><ele>432.0</ele><time>2026-04-25T07:09:56Z</time></trkpt><trkpt lat="39.582455552233284" lon="9.276906403241343"><ele>434.0</ele><time>2026-04-25T07:09:57Z</time></trkpt><trkpt lat="39.58235705048764" lon="9.27679560395602"><ele>434.0</ele><time>2026-04-25T07:09:58Z</time></trkpt><trkpt lat="39.58223112328081" lon="9.276725065668163"><ele>434.0</ele><time>2026-04-25T07:09:59Z</time></trkpt><trkpt lat="39.582094256506345" lon="9.27671452587604"><ele>434.0</ele><time>2026-04-25T07:10:00Z</time></trkpt><trkpt lat="39.58195990271002" lon="9.276736867347768"><ele>434.0</ele><time>2026-04-25T07:10:01Z</time></trkpt><trkpt lat="39.58183077756767" lon="9.276802096581491"><ele>436.25</ele><time>2026-04-25T07:10:02Z</time></trkpt><trkpt lat="39.58170568141593" lon="9.276885259120597"><ele>438.5</ele><time>2026-04-25T07:10:03Z</time></trkpt><trkpt lat="39.58158611343011" lon="9.276973080377068"><ele>440.75</ele><time>2026-04-25T07:10:04Z</time></trkpt><trkpt lat="39.5814673124987" lon="9.277057122098034"><ele>443.0</ele><time>2026-04-25T07:10:05Z</time></trkpt><trkpt lat="39.58134956684381" lon="9.277134167805631"><ele>443.0</ele><time>2026-04-25T07:10:06Z</time></trkpt><trkpt lat="39.58123090090695" lon="9.277204219052951"><ele>443.0</ele><time>2026-04-25T07:10:07Z</time></trkpt><trkpt lat="39.58110959155681" lon="9.277262013428183"><ele>443.0</ele><time>2026-04-25T07:10:08Z</time></trkpt><trkpt lat="39.58097968225542" lon="9.277295729956522"><ele>443.0</ele><time>2026-04-25T07:10:09Z</time></trkpt><trkpt lat="39.58085203874952" lon="9.277256506805847"><ele>445.75</ele><time>2026-04-25T07:10:10Z</time></trkpt><trkpt lat="39.580747886803806" lon="9.277171691793967"><ele>448.5</ele><time>2026-04-25T07:10:11Z</time></trkpt><trkpt lat="39.5806442355757" lon="9.277064017205523"><ele>451.25</ele><time>2026-04-25T07:10:12Z</time></trkpt><trkpt lat="39.58054092133127" lon="9.27694053787142"><ele>454.0</ele><time>2026-04-25T07:10:13Z</time></trkpt><trkpt lat="39.58043667139098" lon="9.276817443700143"><ele>451.75</ele><time>2026-04-25T07:10:14Z</time></trkpt><trkpt lat="39.580331895766996" lon="9.276696921082387"><ele>449.5</ele><time>2026-04-25T07:10:15Z</time></trkpt><trkpt lat="39.58022478584701" lon="9.276581089309644"><ele>447.25</ele><time>2026-04-25T07:10:16Z</time></trkpt><trkpt lat="39.580108466319906" lon="9.276490558128426"><ele>445.0</ele><time>2026-04-25T07:10:17Z</time></trkpt><trkpt lat="39.58000984883775" lon="9.276370629025477"><ele>450.5</ele><time>2026-04-25T07:10:18Z</time></trkpt><trkpt lat="39.57990906632231" lon="9.276264534186765"><ele>456.0</ele><time>2026-04-25T07:10:19Z</time></trkpt><trkpt lat="39.57983678909567" lon="9.276130635221774"><ele>461.5</ele><time>2026-04-25T07:10:20Z</time></trkpt><trkpt lat="39.57979525639769" lon="9.27596887612173"><ele>467.0</ele><time>2026-04-25T07:10:21Z</time></trkpt><trkpt lat="39.57974480653278" lon="9.275802556587209"><ele>467.0</ele><time>2026-04-25T07:10:22Z</time></trkpt><trkpt lat="39.57969295211823" lon="9.27563884053231"><ele>467.0</ele><time>2026-04-25T07:10:23Z</time></trkpt><trkpt lat="39.57961419054803" lon="9.275494437680944"><ele>467.0</ele><time>2026-04-25T07:10:24Z</time></trkpt><trkpt lat="39.5795251127863" lon="9.275363151733261"><ele>467.0</ele><time>2026-04-25T07:10:25Z</time></trkpt><trkpt lat="39.579421884234314" lon="9.27526310691598"><ele>469.75</ele><time>2026-04-25T07:10:26Z</time></trkpt><trkpt lat="39.57929609131731" lon="9.2752262950065"><ele>472.5</ele><time>2026-04-25T07:10:27Z</time></trkpt><trkpt lat="39.57916356475907" lon="9.275259790118772"><ele>475.25</ele><time>2026-04-25T07:10:28Z</time></trkpt><trkpt lat="39.579046824842834" lon="9.275341011250827"><ele>478.0</ele><time>2026-04-25T07:10:29Z</time></trkpt><trkpt lat="39.57892636548986" lon="9.275393241688144"><ele>478.0</ele><time>2026-04-25T07:10:30Z</time></trkpt><trkpt lat="39.57880337920878" lon="9.275372566856092"><ele>478.0</ele><time>2026-04-25T07:10:31Z</time></trkpt><trkpt lat="39.578683645118176" lon="9.275329083672313"><ele>478.0</ele><time>2026-04-25T07:10:32Z</time></trkpt><trkpt lat="39.57857238419623" lon="9.275246269523631"><ele>478.0</ele><time>2026-04-25T07:10:33Z</time></trkpt><trkpt lat="39.57845532039393" lon="9.275167217877241"><ele>476.75</ele><time>2026-04-25T07:10:34Z</time></trkpt><trkpt lat="39.57832934845505" lon="9.275107182658163"><ele>475.5</ele><time>2026-04-25T07:10:35Z</time></trkpt><trkpt lat="39.57821996591136" lon="9.275013564397836"><ele>474.25</ele><time>2026-04-25T07:10:36Z</time></trkpt><trkpt lat="39.57810825291429" lon="9.274931829940632"><ele>473.0</ele><time>2026-04-25T07:10:37Z</time></trkpt><trkpt lat="39.57800704573867" lon="9.27483174569976"><ele>474.25</ele><time>2026-04-25T07:10:38Z</time></trkpt><trkpt lat="39.577933290279816" lon="9.274700139052483"><ele>475.5</ele><time>2026-04-25T07:10:39Z</time></trkpt><trkpt lat="39.57787559660864" lon="9.274551296088381"><ele>476.75</ele><time>2026-04-25T07:10:40Z</time></trkpt><trkpt lat="39.57782483843338" lon="9.274389435949178"><ele>478.0</ele><time>2026-04-25T07:10:41Z</time></trkpt><trkpt lat="39.57777367445847" lon="9.274228743828246"><ele>478.0</ele><time>2026-04-25T07:10:42Z</time></trkpt><trkpt lat="39.57770332976951" lon="9.274083346275885"><ele>478.0</ele><time>2026-04-25T07:10:43Z</time></trkpt><trkpt lat="39.577623610051894" lon="9.273950239415301"><ele>478.0</ele><time>2026-04-25T07:10:44Z</time></trkpt><trkpt lat="39.577522500952" lon="9.273837555541146"><ele>478.0</ele><time>2026-04-25T07:10:45Z</time></trkpt><trkpt lat="39.57741211768244" lon="9.273739274061128"><ele>484.0</ele><time>2026-04-25T07:10:46Z</time></trkpt><trkpt lat="39.57728792951168" lon="9.273678502465543"><ele>490.0</ele><time>2026-04-25T07:10:47Z</time></trkpt><trkpt lat="39.577154630607595" lon="9.273659154662484"><ele>496.0</ele><time>2026-04-25T07:10:48Z</time></trkpt><trkpt lat="39.57702255447445" lon="9.273650419811801"><ele>502.0</ele><time>2026-04-25T07:10:49Z</time></trkpt><trkpt lat="39.5768890998767" lon="9.273663981690737"><ele>502.0</ele><time>2026-04-25T07:10:50Z</time></trkpt><trkpt lat="39.57675726260439" lon="9.27369648887124"><ele>502.0</ele><time>2026-04-25T07:10:51Z</time></trkpt><trkpt lat="39.57662673953365" lon="9.273724651383919"><ele>502.0</ele><time>2026-04-25T07:10:52Z</time></trkpt><trkpt lat="39.57649886992079" lon="9.273735020237613"><ele>502.0</ele><time>2026-04-25T07:10:53Z</time></trkpt><trkpt lat="39.57637174802479" lon="9.27372199529083"><ele>502.0</ele><time>2026-04-25T07:10:54Z</time></trkpt><trkpt lat="39.57624954075456" lon="9.27368309014691"><ele>502.0</ele><time>2026-04-25T07:10:55Z</time></trkpt><trkpt lat="39.57614215606001" lon="9.273598588337224"><ele>502.0</ele><time>2026-04-25T07:10:56Z</time></trkpt><trkpt lat="39.576063700920876" lon="9.273477516815621"><ele>502.0</ele><time>2026-04-25T07:10:57Z</time></trkpt><trkpt lat="39.57596896711167" lon="9.273352008625254"><ele>500.0</ele><time>2026-04-25T07:10:58Z</time></trkpt><trkpt lat="39.575905934741584" lon="9.273209544683361"><ele>498.0</ele><time>2026-04-25T07:10:59Z</time></trkpt><trkpt lat="39.575822731064875" lon="9.2730662288365"><ele>496.0</ele><time>2026-04-25T07:11:00Z</time></trkpt><trkpt lat="39.57573294491005" lon="9.272934193886458"><ele>494.0</ele><time>2026-04-25T07:11:01Z</time></trkpt><trkpt lat="39.575654435216684" lon="9.27279850282339"><ele>496.25</ele><time>2026-04-25T07:11:02Z</time></trkpt><trkpt lat="39.575577413089576" lon="9.272663741162436"><ele>498.5</ele><time>2026-04-25T07:11:03Z</time></trkpt><trkpt lat="39.57549642847994" lon="9.272536181241517"><ele>500.75</ele><time>2026-04-25T07:11:04Z</time></trkpt><trkpt lat="39.575408998714984" lon="9.272425508658827"><ele>503.0</ele><time>2026-04-25T07:11:05Z</time></trkpt><trkpt lat="39.5753011617669" lon="9.272341735746087"><ele>503.0</ele><time>2026-04-25T07:11:06Z</time></trkpt><trkpt lat="39.57517696187155" lon="9.27228545956504"><ele>503.0</ele><time>2026-04-25T07:11:07Z</time></trkpt><trkpt lat="39.57505091688104" lon="9.272249514553462"><ele>503.0</ele><time>2026-04-25T07:11:08Z</time></trkpt><trkpt lat="39.57492984612644" lon="9.27220919151355"><ele>503.0</ele><time>2026-04-25T07:11:09Z</time></trkpt><trkpt lat="39.574831260736026" lon="9.272121246314185"><ele>504.25</ele><time>2026-04-25T07:11:10Z</time></trkpt><trkpt lat="39.57473205155295" lon="9.272028727248442"><ele>505.5</ele><time>2026-04-25T07:11:11Z</time></trkpt><trkpt lat="39.57464183892522" lon="9.271921306714486"><ele>506.75</ele><time>2026-04-25T07:11:12Z</time></trkpt><trkpt lat="39.57455356679317" lon="9.271802026465664"><ele>508.0</ele><time>2026-04-25T07:11:13Z</time></trkpt><trkpt lat="39.57446204298311" lon="9.271678718873318"><ele>508.0</ele><time>2026-04-25T07:11:14Z</time></trkpt><trkpt lat="39.57436964060211" lon="9.271553794932295"><ele>508.0</ele><time>2026-04-25T07:11:15Z</time></trkpt><trkpt lat="39.57427801486503" lon="9.271429141772066"><ele>508.0</ele><time>2026-04-25T07:11:16Z</time></trkpt><trkpt lat="39.57418557552356" lon="9.27130338167833"><ele>508.0</ele><time>2026-04-25T07:11:17Z</time></trkpt><trkpt lat="39.57409614528416" lon="9.2711841549621"><ele>509.4</ele><time>2026-04-25T07:11:18Z</time></trkpt><trkpt lat="39.57401379586182" lon="9.271077554189361"><ele>510.79999999999995</ele><time>2026-04-25T07:11:19Z</time></trkpt><trkpt lat="39.57393684378492" lon="9.270982188436093"><ele>512.2</ele><time>2026-04-25T07:11:20Z</time></trkpt><trkpt lat="39.573856485456446" lon="9.27091151406496"><ele>513.6</ele><time>2026-04-25T07:11:21Z</time></trkpt><trkpt lat="39.57380279934633" lon="9.270839104091253"><ele>515.0</ele><time>2026-04-25T07:11:22Z</time></trkpt><trkpt lat="39.57373475585198" lon="9.270769014760509"><ele>514.8</ele><time>2026-04-25T07:11:23Z</time></trkpt><trkpt lat="39.5736678943493" lon="9.270691417025356"><ele>514.6</ele><time>2026-04-25T07:11:24Z</time></trkpt><trkpt lat="39.573599355730146" lon="9.270608974060341"><ele>514.4</ele><time>2026-04-25T07:11:25Z</time></trkpt><trkpt lat="39.57352584809303" lon="9.270527087710231"><ele>514.2</ele><time>2026-04-25T07:11:26Z</time></trkpt><trkpt lat="39.5734494073045" lon="9.270445904849339"><ele>514.0</ele><time>2026-04-25T07:11:27Z</time></trkpt><trkpt lat="39.57337654392853" lon="9.270365422785607"><ele>513.4</ele><time>2026-04-25T07:11:28Z</time></trkpt><trkpt lat="39.57330353490096" lon="9.270293237631199"><ele>512.8</ele><time>2026-04-25T07:11:29Z</time></trkpt><trkpt lat="39.57322649113796" lon="9.270230309953169"><ele>512.2</ele><time>2026-04-25T07:11:30Z</time></trkpt><trkpt lat="39.57314334977953" lon="9.270185845532353"><ele>511.6</ele><time>2026-04-25T07:11:31Z</time></trkpt><trkpt lat="39.573052481005355" lon="9.270152180990241"><ele>511.0</ele><time>2026-04-25T07:11:32Z</time></trkpt><trkpt lat="39.57295182336189" lon="9.27013970362087"><ele>512.4</ele><time>2026-04-25T07:11:33Z</time></trkpt><trkpt lat="39.572850607822886" lon="9.270141777836272"><ele>513.8</ele><time>2026-04-25T07:11:34Z</time></trkpt><trkpt lat="39.572748031758195" lon="9.270160948343323"><ele>515.1999999999999</ele><time>2026-04-25T07:11:35Z</time></trkpt><trkpt lat="39.572644152939006" lon="9.270185881284515"><ele>516.6</ele><time>2026-04-25T07:11:36Z</time></trkpt><trkpt lat="39.57253938903259" lon="9.2702080803677"><ele>518.0</ele><time>2026-04-25T07:11:37Z</time></trkpt><trkpt lat="39.57243672769671" lon="9.270212186691381"><ele>518.0</ele><time>2026-04-25T07:11:38Z</time></trkpt><trkpt lat="39.57233143927153" lon="9.27019592671263"><ele>518.0</ele><time>2026-04-25T07:11:39Z</time></trkpt><trkpt lat="39.572225051343985" lon="9.270160131611553"><ele>518.0</ele><time>2026-04-25T07:11:40Z</time></trkpt><trkpt lat="39.57212122685904" lon="9.270110579393606"><ele>518.0</ele><time>2026-04-25T07:11:41Z</time></trkpt><trkpt lat="39.57202471949691" lon="9.27003691494106"><ele>518.0</ele><time>2026-04-25T07:11:42Z</time></trkpt><trkpt lat="39.57192616394052" lon="9.269969235047421"><ele>519.4</ele><time>2026-04-25T07:11:43Z</time></trkpt><trkpt lat="39.571832768708816" lon="9.26989387357398"><ele>520.8</ele><time>2026-04-25T07:11:44Z</time></trkpt><trkpt lat="39.57173693387353" lon="9.269820234562172"><ele>522.2</ele><time>2026-04-25T07:11:45Z</time></trkpt><trkpt lat="39.57163928379603" lon="9.269745727354309"><ele>523.6</ele><time>2026-04-25T07:11:46Z</time></trkpt><trkpt lat="39.571541620779875" lon="9.269669616517316"><ele>525.0</ele><time>2026-04-25T07:11:47Z</time></trkpt><trkpt lat="39.57144169432501" lon="9.269591873684934"><ele>525.0</ele><time>2026-04-25T07:11:48Z</time></trkpt><trkpt lat="39.57134164591444" lon="9.269516660903449"><ele>525.0</ele><time>2026-04-25T07:11:49Z</time></trkpt><trkpt lat="39.57123972210488" lon="9.269439564414109"><ele>525.0</ele><time>2026-04-25T07:11:50Z</time></trkpt><trkpt lat="39.57113754718245" lon="9.269362821465698"><ele>525.0</ele><time>2026-04-25T07:11:51Z</time></trkpt><trkpt lat="39.57103334488038" lon="9.269289640619975"><ele>527.75</ele><time>2026-04-25T07:11:52Z</time></trkpt><trkpt lat="39.57092691860677" lon="9.269221647640578"><ele>530.5</ele><time>2026-04-25T07:11:53Z</time></trkpt><trkpt lat="39.57081998648322" lon="9.269168472642814"><ele>533.25</ele><time>2026-04-25T07:11:54Z</time></trkpt><trkpt lat="39.570708884777254" lon="9.269145925946738"><ele>536.0</ele><time>2026-04-25T07:11:55Z</time></trkpt><trkpt lat="39.57060274071453" lon="9.269136952352925"><ele>536.0</ele><time>2026-04-25T07:11:56Z</time></trkpt><trkpt lat="39.570493302536164" lon="9.26914456886742"><ele>536.0</ele><time>2026-04-25T07:11:57Z</time></trkpt><trkpt lat="39.57038393075027" lon="9.269170421772023"><ele>536.0</ele><time>2026-04-25T07:11:58Z</time></trkpt><trkpt lat="39.570275407239635" lon="9.269214736277771"><ele>536.0</ele><time>2026-04-25T07:11:59Z</time></trkpt><trkpt lat="39.5701695350452" lon="9.269268778581983"><ele>536.0</ele><time>2026-04-25T07:12:00Z</time></trkpt><trkpt lat="39.57006178517647" lon="9.2693224737137"><ele>535.75</ele><time>2026-04-25T07:12:01Z</time></trkpt><trkpt lat="39.569951313340184" lon="9.269375582343999"><ele>535.5</ele><time>2026-04-25T07:12:02Z</time></trkpt><trkpt lat="39.569838980949264" lon="9.269429691695644"><ele>535.25</ele><time>2026-04-25T07:12:03Z</time></trkpt><trkpt lat="39.56972433123186" lon="9.269482797769895"><ele>535.0</ele><time>2026-04-25T07:12:04Z</time></trkpt><trkpt lat="39.56960637466737" lon="9.269530442666687"><ele>533.5</ele><time>2026-04-25T07:12:05Z</time></trkpt><trkpt lat="39.569487017394906" lon="9.269576827978767"><ele>532.0</ele><time>2026-04-25T07:12:06Z</time></trkpt><trkpt lat="39.56936928296193" lon="9.269631292998593"><ele>530.5</ele><time>2026-04-25T07:12:07Z</time></trkpt><trkpt lat="39.56925306971119" lon="9.26969127519054"><ele>529.0</ele><time>2026-04-25T07:12:08Z</time></trkpt><trkpt lat="39.569138371108956" lon="9.269754636125976"><ele>530.25</ele><time>2026-04-25T07:12:09Z</time></trkpt><trkpt lat="39.569022541682095" lon="9.269811833138537"><ele>531.5</ele><time>2026-04-25T07:12:10Z</time></trkpt><trkpt lat="39.5689050759197" lon="9.269866289688322"><ele>532.75</ele><time>2026-04-25T07:12:11Z</time></trkpt><trkpt lat="39.5687887133874" lon="9.269921431408905"><ele>534.0</ele><time>2026-04-25T07:12:12Z</time></trkpt><trkpt lat="39.568670519069784" lon="9.26997173443502"><ele>534.0</ele><time>2026-04-25T07:12:13Z</time></trkpt><trkpt lat="39.568549724045035" lon="9.270010801929061"><ele>534.0</ele><time>2026-04-25T07:12:14Z</time></trkpt><trkpt lat="39.568425063666574" lon="9.270034432249794"><ele>534.0</ele><time>2026-04-25T07:12:15Z</time></trkpt><trkpt lat="39.56829783990105" lon="9.270041025669627"><ele>534.0</ele><time>2026-04-25T07:12:16Z</time></trkpt><trkpt lat="39.5681825878866" lon="9.269974620964101"><ele>534.0</ele><time>2026-04-25T07:12:17Z</time></trkpt><trkpt lat="39.56806925588644" lon="9.269897972922793"><ele>534.0</ele><time>2026-04-25T07:12:18Z</time></trkpt><trkpt lat="39.56796640595161" lon="9.269793119021754"><ele>534.0</ele><time>2026-04-25T07:12:19Z</time></trkpt><trkpt lat="39.567882666015855" lon="9.269660373307552"><ele>534.0</ele><time>2026-04-25T07:12:20Z</time></trkpt><trkpt lat="39.56781402784849" lon="9.269516649874786"><ele>534.75</ele><time>2026-04-25T07:12:21Z</time></trkpt><trkpt lat="39.56774995167519" lon="9.2693614869511"><ele>535.5</ele><time>2026-04-25T07:12:22Z</time></trkpt><trkpt lat="39.56768730194505" lon="9.269204067314563"><ele>536.25</ele><time>2026-04-25T07:12:23Z</time></trkpt><trkpt lat="39.56762444947889" lon="9.269044280926675"><ele>537.0</ele><time>2026-04-25T07:12:24Z</time></trkpt><trkpt lat="39.56756243367214" lon="9.268886827042977"><ele>537.25</ele><time>2026-04-25T07:12:25Z</time></trkpt><trkpt lat="39.567500644593565" lon="9.26872994882345"><ele>537.5</ele><time>2026-04-25T07:12:26Z</time></trkpt><trkpt lat="39.56743816979893" lon="9.26857415092992"><ele>537.75</ele><time>2026-04-25T07:12:27Z</time></trkpt><trkpt lat="39.56737589614288" lon="9.268418943983143"><ele>538.0</ele><time>2026-04-25T07:12:28Z</time></trkpt><trkpt lat="39.56731370916116" lon="9.268263953060298"><ele>538.0</ele><time>2026-04-25T07:12:29Z</time></trkpt><trkpt lat="39.56725191012552" lon="9.268109124441215"><ele>538.0</ele><time>2026-04-25T07:12:30Z</time></trkpt><trkpt lat="39.5671768728773" lon="9.267962269142595"><ele>538.0</ele><time>2026-04-25T07:12:31Z</time></trkpt><trkpt lat="39.567128906799205" lon="9.267799953916356"><ele>538.0</ele><time>2026-04-25T07:12:32Z</time></trkpt><trkpt lat="39.56706637898637" lon="9.267642554405219"><ele>538.25</ele><time>2026-04-25T07:12:33Z</time></trkpt><trkpt lat="39.56700224067491" lon="9.267481077620747"><ele>538.5</ele><time>2026-04-25T07:12:34Z</time></trkpt><trkpt lat="39.56693717113321" lon="9.267317119868846"><ele>538.75</ele><time>2026-04-25T07:12:35Z</time></trkpt><trkpt lat="39.5668715892286" lon="9.267151152792007"><ele>539.0</ele><time>2026-04-25T07:12:36Z</time></trkpt><trkpt lat="39.56680557271315" lon="9.266984085851226"><ele>539.25</ele><time>2026-04-25T07:12:37Z</time></trkpt><trkpt lat="39.56673942587308" lon="9.266816689098968"><ele>539.5</ele><time>2026-04-25T07:12:38Z</time></trkpt><trkpt lat="39.56667346837184" lon="9.266649771501951"><ele>539.75</ele><time>2026-04-25T07:12:39Z</time></trkpt><trkpt lat="39.56660734892979" lon="9.266482444090554"><ele>540.0</ele><time>2026-04-25T07:12:40Z</time></trkpt><trkpt lat="39.56654164446155" lon="9.26631616684173"><ele>540.5</ele><time>2026-04-25T07:12:41Z</time></trkpt><trkpt lat="39.56647640594049" lon="9.266151068758576"><ele>541.0</ele><time>2026-04-25T07:12:42Z</time></trkpt><trkpt lat="39.56639821407855" lon="9.265995170047098"><ele>541.5</ele><time>2026-04-25T07:12:43Z</time></trkpt><trkpt lat="39.56633344099767" lon="9.265830091739552"><ele>542.0</ele><time>2026-04-25T07:12:44Z</time></trkpt><trkpt lat="39.56626612148759" lon="9.265665692885216"><ele>542.0</ele><time>2026-04-25T07:12:45Z</time></trkpt><trkpt lat="39.566214538223086" lon="9.265489719340493"><ele>542.0</ele><time>2026-04-25T07:12:46Z</time></trkpt><trkpt lat="39.56614771139195" lon="9.265321152564852"><ele>542.0</ele><time>2026-04-25T07:12:47Z</time></trkpt><trkpt lat="39.566081237831696" lon="9.265153476883803"><ele>542.0</ele><time>2026-04-25T07:12:48Z</time></trkpt><trkpt lat="39.56600272561326" lon="9.264994965701264"><ele>542.5</ele><time>2026-04-25T07:12:49Z</time></trkpt><trkpt lat="39.56593761286722" lon="9.264828286252024"><ele>543.0</ele><time>2026-04-25T07:12:50Z</time></trkpt><trkpt lat="39.565872756309474" lon="9.26465957205179"><ele>543.5</ele><time>2026-04-25T07:12:51Z</time></trkpt><trkpt lat="39.565808638529624" lon="9.264495859735769"><ele>544.0</ele><time>2026-04-25T07:12:52Z</time></trkpt><trkpt lat="39.56574299811222" lon="9.264331376274809"><ele>544.0</ele><time>2026-04-25T07:12:53Z</time></trkpt><trkpt lat="39.5656757428371" lon="9.264170045886909"><ele>544.0</ele><time>2026-04-25T07:12:54Z</time></trkpt><trkpt lat="39.56561702900478" lon="9.264005014995057"><ele>544.0</ele><time>2026-04-25T07:12:55Z</time></trkpt><trkpt lat="39.56555380129374" lon="9.263846427165147"><ele>544.0</ele><time>2026-04-25T07:12:56Z</time></trkpt><trkpt lat="39.5654893722704" lon="9.263683775129007"><ele>544.0</ele><time>2026-04-25T07:12:57Z</time></trkpt><trkpt lat="39.56542442053772" lon="9.263527972559752"><ele>544.0</ele><time>2026-04-25T07:12:58Z</time></trkpt><trkpt lat="39.56535962577423" lon="9.263369254199535"><ele>544.0</ele><time>2026-04-25T07:12:59Z</time></trkpt><trkpt lat="39.56529870209771" lon="9.26321070314229"><ele>544.0</ele><time>2026-04-25T07:13:00Z</time></trkpt><trkpt lat="39.5652354788561" lon="9.263050195362663"><ele>545.25</ele><time>2026-04-25T07:13:01Z</time></trkpt><trkpt lat="39.56516899815035" lon="9.262889377474998"><ele>546.5</ele><time>2026-04-25T07:13:02Z</time></trkpt><trkpt lat="39.565119401992824" lon="9.262716372339272"><ele>547.75</ele><time>2026-04-25T07:13:03Z</time></trkpt><trkpt lat="39.56503985415401" lon="9.262562214217999"><ele>549.0</ele><time>2026-04-25T07:13:04Z</time></trkpt><trkpt lat="39.5649781969559" lon="9.262396666797772"><ele>549.25</ele><time>2026-04-25T07:13:05Z</time></trkpt><trkpt lat="39.56490850464515" lon="9.262229658249165"><ele>549.5</ele><time>2026-04-25T07:13:06Z</time></trkpt><trkpt lat="39.564844198605876" lon="9.262063212435462"><ele>549.75</ele><time>2026-04-25T07:13:07Z</time></trkpt><trkpt lat="39.56477999863066" lon="9.261893582765323"><ele>550.0</ele><time>2026-04-25T07:13:08Z</time></trkpt><trkpt lat="39.56471394824295" lon="9.261722977363858"><ele>550.0</ele><time>2026-04-25T07:13:09Z</time></trkpt><trkpt lat="39.56464572621754" lon="9.26155319768609"><ele>550.0</ele><time>2026-04-25T07:13:10Z</time></trkpt><trkpt lat="39.56457694234381" lon="9.261382211677434"><ele>550.0</ele><time>2026-04-25T07:13:11Z</time></trkpt><trkpt lat="39.564506869066776" lon="9.26121235124932"><ele>550.0</ele><time>2026-04-25T07:13:12Z</time></trkpt><trkpt lat="39.56443915114634" lon="9.261043288710507"><ele>550.25</ele><time>2026-04-25T07:13:13Z</time></trkpt><trkpt lat="39.56437072460291" lon="9.260870627200607"><ele>550.5</ele><time>2026-04-25T07:13:14Z</time></trkpt><trkpt lat="39.56430433605536" lon="9.26070053716333"><ele>550.75</ele><time>2026-04-25T07:13:15Z</time></trkpt><trkpt lat="39.56423689008231" lon="9.260529708685441"><ele>551.0</ele><time>2026-04-25T07:13:16Z</time></trkpt><trkpt lat="39.56416779236145" lon="9.260361699020661"><ele>551.25</ele><time>2026-04-25T07:13:17Z</time></trkpt><trkpt lat="39.56411461078387" lon="9.260182855477321"><ele>551.5</ele><time>2026-04-25T07:13:18Z</time></trkpt><trkpt lat="39.56403392971163" lon="9.260020815064957"><ele>551.75</ele><time>2026-04-25T07:13:19Z</time></trkpt><trkpt lat="39.56396572781351" lon="9.259845870406135"><ele>552.0</ele><time>2026-04-25T07:13:20Z</time></trkpt><trkpt lat="39.563897598311954" lon="9.259673288060743"><ele>552.6666666666666</ele><time>2026-04-25T07:13:21Z</time></trkpt><trkpt lat="39.56382898507404" lon="9.259498517921223"><ele>553.3333333333333</ele><time>2026-04-25T07:13:22Z</time></trkpt><trkpt lat="39.56376128755781" lon="9.259324088612498"><ele>554.0</ele><time>2026-04-25T07:13:23Z</time></trkpt><trkpt lat="39.563692974117686" lon="9.259148669638947"><ele>554.0</ele><time>2026-04-25T07:13:24Z</time></trkpt><trkpt lat="39.56362427276971" lon="9.258975603098213"><ele>554.0</ele><time>2026-04-25T07:13:25Z</time></trkpt><trkpt lat="39.56355325944534" lon="9.258801518765974"><ele>554.0</ele><time>2026-04-25T07:13:26Z</time></trkpt><trkpt lat="39.56349871515902" lon="9.258621869369993"><ele>554.6666666666666</ele><time>2026-04-25T07:13:27Z</time></trkpt><trkpt lat="39.563430248588006" lon="9.258447995173375"><ele>555.3333333333334</ele><time>2026-04-25T07:13:28Z</time></trkpt><trkpt lat="39.56336159334455" lon="9.258274636158058"><ele>556.0</ele><time>2026-04-25T07:13:29Z</time></trkpt><trkpt lat="39.563291679692654" lon="9.25809648829915"><ele>556.0</ele><time>2026-04-25T07:13:30Z</time></trkpt><trkpt lat="39.56322383562845" lon="9.257923614568007"><ele>556.0</ele><time>2026-04-25T07:13:31Z</time></trkpt><trkpt lat="39.56315474290878" lon="9.257747558978785"><ele>556.0</ele><time>2026-04-25T07:13:32Z</time></trkpt><trkpt lat="39.56308694489079" lon="9.25756989250801"><ele>556.0</ele><time>2026-04-25T07:13:33Z</time></trkpt><trkpt lat="39.56302001200963" lon="9.25738727968205"><ele>556.0</ele><time>2026-04-25T07:13:34Z</time></trkpt><trkpt lat="39.562960118776104" lon="9.25721680615828"><ele>556.0</ele><time>2026-04-25T07:13:35Z</time></trkpt><trkpt lat="39.562896571951406" lon="9.25704757934518"><ele>556.0</ele><time>2026-04-25T07:13:36Z</time></trkpt><trkpt lat="39.562862312833246" lon="9.256869002545477"><ele>557.3333333333334</ele><time>2026-04-25T07:13:37Z</time></trkpt><trkpt lat="39.562836194238194" lon="9.256690926741655"><ele>558.6666666666666</ele><time>2026-04-25T07:13:38Z</time></trkpt><trkpt lat="39.5626988749468" lon="9.256496906497485"><ele>560.0</ele><time>2026-04-25T07:13:39Z</time></trkpt><trkpt lat="39.56265306832709" lon="9.256305088761316"><ele>560.3333333333333</ele><time>2026-04-25T07:13:40Z</time></trkpt><trkpt lat="39.5625923969812" lon="9.256119637613956"><ele>560.6666666666666</ele><time>2026-04-25T07:13:41Z</time></trkpt><trkpt lat="39.562531374451275" lon="9.255933113003293"><ele>561.0</ele><time>2026-04-25T07:13:42Z</time></trkpt><trkpt lat="39.56245834927932" lon="9.255758114379105"><ele>564.3333333333334</ele><time>2026-04-25T07:13:43Z</time></trkpt><trkpt lat="39.562399089116745" lon="9.255574947354987"><ele>567.6666666666667</ele><time>2026-04-25T07:13:44Z</time></trkpt><trkpt lat="39.56235278164817" lon="9.255384231586204"><ele>571.0</ele><time>2026-04-25T07:13:45Z</time></trkpt><trkpt lat="39.56229963838433" lon="9.255205939578362"><ele>571.0</ele><time>2026-04-25T07:13:46Z</time></trkpt><trkpt lat="39.562262482648784" lon="9.255023791252286"><ele>571.0</ele><time>2026-04-25T07:13:47Z</time></trkpt><trkpt lat="39.56225243999393" lon="9.254838397952163"><ele>571.0</ele><time>2026-04-25T07:13:48Z</time></trkpt><trkpt lat="39.56225715722783" lon="9.254652855220666"><ele>571.0</ele><time>2026-04-25T07:13:49Z</time></trkpt><trkpt lat="39.56226457787472" lon="9.254464586860799"><ele>573.0</ele><time>2026-04-25T07:13:50Z</time></trkpt><trkpt lat="39.56227337993441" lon="9.254271635578245"><ele>575.0</ele><time>2026-04-25T07:13:51Z</time></trkpt><trkpt lat="39.56228189128242" lon="9.254085057015477"><ele>577.0</ele><time>2026-04-25T07:13:52Z</time></trkpt><trkpt lat="39.5622885215636" lon="9.25389790946009"><ele>579.0</ele><time>2026-04-25T07:13:53Z</time></trkpt><trkpt lat="39.56226954353476" lon="9.253713191743005"><ele>580.0</ele><time>2026-04-25T07:13:54Z</time></trkpt><trkpt lat="39.562242897401724" lon="9.253546354475525"><ele>581.0</ele><time>2026-04-25T07:13:55Z</time></trkpt><trkpt lat="39.56217334306838" lon="9.253390249256068"><ele>582.0</ele><time>2026-04-25T07:13:56Z</time></trkpt><trkpt lat="39.5620645128457" lon="9.253267671958424"><ele>583.0</ele><time>2026-04-25T07:13:57Z</time></trkpt><trkpt lat="39.56192798570174" lon="9.253186934911048"><ele>585.75</ele><time>2026-04-25T07:13:58Z</time></trkpt><trkpt lat="39.56178951039149" lon="9.253111724614367"><ele>588.5</ele><time>2026-04-25T07:13:59Z</time></trkpt><trkpt lat="39.56165378160304" lon="9.253036327304635"><ele>591.25</ele><time>2026-04-25T07:14:00Z</time></trkpt><trkpt lat="39.56151160058755" lon="9.252975572305088"><ele>594.0</ele><time>2026-04-25T07:14:01Z</time></trkpt><trkpt lat="39.56139040864238" lon="9.252894081983486"><ele>594.0</ele><time>2026-04-25T07:14:02Z</time></trkpt><trkpt lat="39.56126885579659" lon="9.25281082003207"><ele>594.0</ele><time>2026-04-25T07:14:03Z</time></trkpt><trkpt lat="39.56114357549799" lon="9.252732928711279"><ele>594.0</ele><time>2026-04-25T07:14:04Z</time></trkpt><trkpt lat="39.561018987162456" lon="9.252655257643077"><ele>594.0</ele><time>2026-04-25T07:14:05Z</time></trkpt><trkpt lat="39.5608958021491" lon="9.252572914456087"><ele>594.75</ele><time>2026-04-25T07:14:06Z</time></trkpt><trkpt lat="39.560765010596164" lon="9.25250546452255"><ele>595.5</ele><time>2026-04-25T07:14:07Z</time></trkpt><trkpt lat="39.56062575619759" lon="9.252472460432823"><ele>596.25</ele><time>2026-04-25T07:14:08Z</time></trkpt><trkpt lat="39.560483980503726" lon="9.252491727626523"><ele>597.0</ele><time>2026-04-25T07:14:09Z</time></trkpt><trkpt lat="39.5603444784186" lon="9.252546350713368"><ele>600.25</ele><time>2026-04-25T07:14:10Z</time></trkpt><trkpt lat="39.560214859794065" lon="9.252628279247435"><ele>603.5</ele><time>2026-04-25T07:14:11Z</time></trkpt><trkpt lat="39.56008598081701" lon="9.252711134962855"><ele>606.75</ele><time>2026-04-25T07:14:12Z</time></trkpt><trkpt lat="39.55996183910734" lon="9.252783145713375"><ele>610.0</ele><time>2026-04-25T07:14:13Z</time></trkpt><trkpt lat="39.559840109427284" lon="9.252850190865445"><ele>610.0</ele><time>2026-04-25T07:14:14Z</time></trkpt><trkpt lat="39.55972072497745" lon="9.252906934255689"><ele>610.0</ele><time>2026-04-25T07:14:15Z</time></trkpt><trkpt lat="39.559598893361276" lon="9.252942585184066"><ele>610.0</ele><time>2026-04-25T07:14:16Z</time></trkpt><trkpt lat="39.559469484369664" lon="9.252945981709338"><ele>610.0</ele><time>2026-04-25T07:14:17Z</time></trkpt><trkpt lat="39.55933645436651" lon="9.252908777010267"><ele>613.0</ele><time>2026-04-25T07:14:18Z</time></trkpt><trkpt lat="39.55919651460467" lon="9.252903312486565"><ele>616.0</ele><time>2026-04-25T07:14:19Z</time></trkpt><trkpt lat="39.559060510561835" lon="9.252874199016237"><ele>619.0</ele><time>2026-04-25T07:14:20Z</time></trkpt><trkpt lat="39.55892744453493" lon="9.252840438865197"><ele>622.0</ele><time>2026-04-25T07:14:21Z</time></trkpt><trkpt lat="39.55879344597117" lon="9.252805183142405"><ele>621.5</ele><time>2026-04-25T07:14:22Z</time></trkpt><trkpt lat="39.558658593880196" lon="9.252774608037123"><ele>621.0</ele><time>2026-04-25T07:14:23Z</time></trkpt><trkpt lat="39.55852505011632" lon="9.252744617573018"><ele>620.5</ele><time>2026-04-25T07:14:24Z</time></trkpt><trkpt lat="39.55839353811203" lon="9.252697522630069"><ele>620.0</ele><time>2026-04-25T07:14:25Z</time></trkpt><trkpt lat="39.558264065274294" lon="9.252632347027554"><ele>620.0</ele><time>2026-04-25T07:14:26Z</time></trkpt><trkpt lat="39.55813228036618" lon="9.252560741075785"><ele>620.0</ele><time>2026-04-25T07:14:27Z</time></trkpt><trkpt lat="39.55800217089223" lon="9.252485410395542"><ele>620.0</ele><time>2026-04-25T07:14:28Z</time></trkpt><trkpt lat="39.55787783666191" lon="9.252401243359058"><ele>620.0</ele><time>2026-04-25T07:14:29Z</time></trkpt><trkpt lat="39.557752516921354" lon="9.252325211931982"><ele>621.0</ele><time>2026-04-25T07:14:30Z</time></trkpt><trkpt lat="39.55762230196676" lon="9.252270536524009"><ele>622.0</ele><time>2026-04-25T07:14:31Z</time></trkpt><trkpt lat="39.557484460235614" lon="9.252263209060729"><ele>623.0</ele><time>2026-04-25T07:14:32Z</time></trkpt><trkpt lat="39.55734784431325" lon="9.25231478667188"><ele>624.0</ele><time>2026-04-25T07:14:33Z</time></trkpt><trkpt lat="39.55721299106381" lon="9.252383351361717"><ele>624.0</ele><time>2026-04-25T07:14:34Z</time></trkpt><trkpt lat="39.55708302289869" lon="9.252449297849068"><ele>624.0</ele><time>2026-04-25T07:14:35Z</time></trkpt><trkpt lat="39.556951560564386" lon="9.25251178174348"><ele>624.0</ele><time>2026-04-25T07:14:36Z</time></trkpt><trkpt lat="39.556822783497914" lon="9.252569824856003"><ele>624.0</ele><time>2026-04-25T07:14:37Z</time></trkpt><trkpt lat="39.55669745528354" lon="9.252627080552628"><ele>627.25</ele><time>2026-04-25T07:14:38Z</time></trkpt><trkpt lat="39.556571609766486" lon="9.252680592567843"><ele>630.5</ele><time>2026-04-25T07:14:39Z</time></trkpt><trkpt lat="39.5564420786698" lon="9.252729694153679"><ele>633.75</ele><time>2026-04-25T07:14:40Z</time></trkpt><trkpt lat="39.55630691036416" lon="9.252774541400491"><ele>637.0</ele><time>2026-04-25T07:14:41Z</time></trkpt><trkpt lat="39.556168498882386" lon="9.252809260207"><ele>639.0</ele><time>2026-04-25T07:14:42Z</time></trkpt><trkpt lat="39.556023875206726" lon="9.25282191404411"><ele>641.0</ele><time>2026-04-25T07:14:43Z</time></trkpt><trkpt lat="39.55587735243441" lon="9.252813352781287"><ele>643.0</ele><time>2026-04-25T07:14:44Z</time></trkpt><trkpt lat="39.55573395826551" lon="9.252784628333037"><ele>645.0</ele><time>2026-04-25T07:14:45Z</time></trkpt><trkpt lat="39.555593403381756" lon="9.252731771922061"><ele>645.0</ele><time>2026-04-25T07:14:46Z</time></trkpt><trkpt lat="39.55545642788163" lon="9.252657858463293"><ele>645.0</ele><time>2026-04-25T07:14:47Z</time></trkpt><trkpt lat="39.555334784557125" lon="9.252543536989164"><ele>645.0</ele><time>2026-04-25T07:14:48Z</time></trkpt><trkpt lat="39.555214494294766" lon="9.252429681862978"><ele>645.0</ele><time>2026-04-25T07:14:49Z</time></trkpt><trkpt lat="39.5550982984487" lon="9.252305301209612"><ele>644.5</ele><time>2026-04-25T07:14:50Z</time></trkpt><trkpt lat="39.554976550599065" lon="9.252194087428652"><ele>644.0</ele><time>2026-04-25T07:14:51Z</time></trkpt><trkpt lat="39.55486446366923" lon="9.252070029932783"><ele>643.5</ele><time>2026-04-25T07:14:52Z</time></trkpt><trkpt lat="39.554755221338155" lon="9.251945134319646"><ele>643.0</ele><time>2026-04-25T07:14:53Z</time></trkpt><trkpt lat="39.55464754334602" lon="9.251817895976387"><ele>641.0</ele><time>2026-04-25T07:14:54Z</time></trkpt><trkpt lat="39.55453686503449" lon="9.251692052126733"><ele>639.0</ele><time>2026-04-25T07:14:55Z</time></trkpt><trkpt lat="39.55442394333746" lon="9.251567747162097"><ele>637.0</ele><time>2026-04-25T07:14:56Z</time></trkpt><trkpt lat="39.554309594084735" lon="9.25143955400667"><ele>635.0</ele><time>2026-04-25T07:14:57Z</time></trkpt><trkpt lat="39.55418973856353" lon="9.251316567821403"><ele>635.0</ele><time>2026-04-25T07:14:58Z</time></trkpt><trkpt lat="39.5540561614518" lon="9.251213882535522"><ele>635.0</ele><time>2026-04-25T07:14:59Z</time></trkpt><trkpt lat="39.55390829997357" lon="9.251150183934726"><ele>635.0</ele><time>2026-04-25T07:15:00Z</time></trkpt><trkpt lat="39.55375450931267" lon="9.251119661731263"><ele>634.3333333333333</ele><time>2026-04-25T07:15:01Z</time></trkpt><trkpt lat="39.55360087091389" lon="9.251117538189073"><ele>633.6666666666666</ele><time>2026-04-25T07:15:02Z</time></trkpt><trkpt lat="39.55344730074408" lon="9.251115305068911"><ele>633.0</ele><time>2026-04-25T07:15:03Z</time></trkpt><trkpt lat="39.553293191687814" lon="9.251109784882043"><ele>633.0</ele><time>2026-04-25T07:15:04Z</time></trkpt><trkpt lat="39.55314043142234" lon="9.251100712798854"><ele>633.0</ele><time>2026-04-25T07:15:05Z</time></trkpt><trkpt lat="39.55298933800324" lon="9.251089158082118"><ele>633.0</ele><time>2026-04-25T07:15:06Z</time></trkpt><trkpt lat="39.55284086558564" lon="9.251080900299948"><ele>632.75</ele><time>2026-04-25T07:15:07Z</time></trkpt><trkpt lat="39.552694370166684" lon="9.251074480468462"><ele>632.5</ele><time>2026-04-25T07:15:08Z</time></trkpt><trkpt lat="39.552551426777896" lon="9.251067921361729"><ele>632.25</ele><time>2026-04-25T07:15:09Z</time></trkpt><trkpt lat="39.55240815868924" lon="9.251068289944904"><ele>632.0</ele><time>2026-04-25T07:15:10Z</time></trkpt><trkpt lat="39.552265085813545" lon="9.25109524667332"><ele>632.0</ele><time>2026-04-25T07:15:11Z</time></trkpt><trkpt lat="39.55212438616148" lon="9.25114635646533"><ele>632.0</ele><time>2026-04-25T07:15:12Z</time></trkpt><trkpt lat="39.55199077681264" lon="9.251229835878483"><ele>632.0</ele><time>2026-04-25T07:15:13Z</time></trkpt><trkpt lat="39.551860413673495" lon="9.251325685996962"><ele>632.0</ele><time>2026-04-25T07:15:14Z</time></trkpt><trkpt lat="39.551729430248706" lon="9.251409666761724"><ele>632.0</ele><time>2026-04-25T07:15:15Z</time></trkpt><trkpt lat="39.55159775889714" lon="9.251487182349713"><ele>632.0</ele><time>2026-04-25T07:15:16Z</time></trkpt><trkpt lat="39.55146775350015" lon="9.251561896932616"><ele>632.0</ele><time>2026-04-25T07:15:17Z</time></trkpt><trkpt lat="39.55134092513106" lon="9.251639747621653"><ele>632.0</ele><time>2026-04-25T07:15:18Z</time></trkpt><trkpt lat="39.55121427622527" lon="9.251717061550748"><ele>634.25</ele><time>2026-04-25T07:15:19Z</time></trkpt><trkpt lat="39.55108642173854" lon="9.25179278984134"><ele>636.5</ele><time>2026-04-25T07:15:20Z</time></trkpt><trkpt lat="39.55096168838112" lon="9.25187115329404"><ele>638.75</ele><time>2026-04-25T07:15:21Z</time></trkpt><trkpt lat="39.55083750131045" lon="9.25195548141208"><ele>641.0</ele><time>2026-04-25T07:15:22Z</time></trkpt><trkpt lat="39.55070509918359" lon="9.252027129798442"><ele>641.0</ele><time>2026-04-25T07:15:23Z</time></trkpt><trkpt lat="39.550562702443166" lon="9.252068407248908"><ele>641.0</ele><time>2026-04-25T07:15:24Z</time></trkpt><trkpt lat="39.55041774969477" lon="9.252086699013162"><ele>641.0</ele><time>2026-04-25T07:15:25Z</time></trkpt><trkpt lat="39.55027121092103" lon="9.252049924123579"><ele>641.0</ele><time>2026-04-25T07:15:26Z</time></trkpt><trkpt lat="39.55012265137688" lon="9.252013298719035"><ele>641.6666666666666</ele><time>2026-04-25T07:15:27Z</time></trkpt><trkpt lat="39.54996994783804" lon="9.251991715379134"><ele>642.3333333333334</ele><time>2026-04-25T07:15:28Z</time></trkpt><trkpt lat="39.54981874289681" lon="9.251946356912837"><ele>643.0</ele><time>2026-04-25T07:15:29Z</time></trkpt><trkpt lat="39.54966747989845" lon="9.251907063335082"><ele>643.3333333333334</ele><time>2026-04-25T07:15:30Z</time></trkpt><trkpt lat="39.54951447417596" lon="9.251871511326318"><ele>643.6666666666666</ele><time>2026-04-25T07:15:31Z</time></trkpt><trkpt lat="39.54936342566463" lon="9.251836840821841"><ele>644.0</ele><time>2026-04-25T07:15:32Z</time></trkpt><trkpt lat="39.54921325197872" lon="9.2517994082721"><ele>644.0</ele><time>2026-04-25T07:15:33Z</time></trkpt><trkpt lat="39.54906472317677" lon="9.251762874171868"><ele>644.0</ele><time>2026-04-25T07:15:34Z</time></trkpt><trkpt lat="39.54891683004572" lon="9.251727103143498"><ele>644.0</ele><time>2026-04-25T07:15:35Z</time></trkpt><trkpt lat="39.54877296681687" lon="9.251687652877811"><ele>644.0</ele><time>2026-04-25T07:15:36Z</time></trkpt><trkpt lat="39.54862807993666" lon="9.251644286379305"><ele>644.6666666666666</ele><time>2026-04-25T07:15:37Z</time></trkpt><trkpt lat="39.548481083260974" lon="9.251605668711937"><ele>645.3333333333334</ele><time>2026-04-25T07:15:38Z</time></trkpt><trkpt lat="39.54833057099212" lon="9.251572171700417"><ele>646.0</ele><time>2026-04-25T07:15:39Z</time></trkpt><trkpt lat="39.54818117492634" lon="9.251537043932741"><ele>646.0</ele><time>2026-04-25T07:15:40Z</time></trkpt><trkpt lat="39.54803284716542" lon="9.25149701296854"><ele>646.0</ele><time>2026-04-25T07:15:41Z</time></trkpt><trkpt lat="39.5478838209934" lon="9.251454606191853"><ele>646.0</ele><time>2026-04-25T07:15:42Z</time></trkpt><trkpt lat="39.54773822139769" lon="9.251404673652441"><ele>649.0</ele><time>2026-04-25T07:15:43Z</time></trkpt><trkpt lat="39.547599259542615" lon="9.25131866347142"><ele>652.0</ele><time>2026-04-25T07:15:44Z</time></trkpt><trkpt lat="39.54745233101184" lon="9.25125908335488"><ele>655.0</ele><time>2026-04-25T07:15:45Z</time></trkpt><trkpt lat="39.54731551421419" lon="9.251173173211221"><ele>655.0</ele><time>2026-04-25T07:15:46Z</time></trkpt><trkpt lat="39.547179021065304" lon="9.2510835270419"><ele>655.0</ele><time>2026-04-25T07:15:47Z</time></trkpt><trkpt lat="39.547043152233506" lon="9.250992767676022"><ele>655.0</ele><time>2026-04-25T07:15:48Z</time></trkpt><trkpt lat="39.54690858570512" lon="9.25090337093265"><ele>653.6666666666667</ele><time>2026-04-25T07:15:49Z</time></trkpt><trkpt lat="39.546773449435925" lon="9.250812469485576"><ele>652.3333333333334</ele><time>2026-04-25T07:15:50Z</time></trkpt><trkpt lat="39.54663922184398" lon="9.25072224361733"><ele>651.0</ele><time>2026-04-25T07:15:51Z</time></trkpt><trkpt lat="39.546496850917016" lon="9.250648425204604"><ele>654.0</ele><time>2026-04-25T07:15:52Z</time></trkpt><trkpt lat="39.5463479512525" lon="9.250599083415448"><ele>657.0</ele><time>2026-04-25T07:15:53Z</time></trkpt><trkpt lat="39.54619541397637" lon="9.250573968972668"><ele>660.0</ele><time>2026-04-25T07:15:54Z</time></trkpt><trkpt lat="39.54604284903297" lon="9.250568633027019"><ele>660.0</ele><time>2026-04-25T07:15:55Z</time></trkpt><trkpt lat="39.545888750252026" lon="9.250577567122367"><ele>660.0</ele><time>2026-04-25T07:15:56Z</time></trkpt><trkpt lat="39.54573525350833" lon="9.250593092907598"><ele>660.0</ele><time>2026-04-25T07:15:57Z</time></trkpt><trkpt lat="39.545580315496004" lon="9.25060867751124"><ele>660.0</ele><time>2026-04-25T07:15:58Z</time></trkpt><trkpt lat="39.545427153575105" lon="9.250618651678955"><ele>660.0</ele><time>2026-04-25T07:15:59Z</time></trkpt><trkpt lat="39.5452728873201" lon="9.250624018782414"><ele>660.0</ele><time>2026-04-25T07:16:00Z</time></trkpt><trkpt lat="39.54511866123948" lon="9.250630333868932"><ele>656.3333333333334</ele><time>2026-04-25T07:16:01Z</time></trkpt><trkpt lat="39.54496293768477" lon="9.250640781950628"><ele>652.6666666666667</ele><time>2026-04-25T07:16:02Z</time></trkpt><trkpt lat="39.544809084231005" lon="9.250652876232708"><ele>649.0</ele><time>2026-04-25T07:16:03Z</time></trkpt><trkpt lat="39.54465904810705" lon="9.250661988269114"><ele>648.5</ele><time>2026-04-25T07:16:04Z</time></trkpt><trkpt lat="39.54451224859307" lon="9.250667506031977"><ele>648.0</ele><time>2026-04-25T07:16:05Z</time></trkpt><trkpt lat="39.54436700811171" lon="9.250669389986728"><ele>647.5</ele><time>2026-04-25T07:16:06Z</time></trkpt><trkpt lat="39.544224293547934" lon="9.25066601176984"><ele>647.0</ele><time>2026-04-25T07:16:07Z</time></trkpt><trkpt lat="39.544083080557144" lon="9.250649200797948"><ele>647.75</ele><time>2026-04-25T07:16:08Z</time></trkpt><trkpt lat="39.543942798316095" lon="9.250621308293804"><ele>648.5</ele><time>2026-04-25T07:16:09Z</time></trkpt><trkpt lat="39.54380339017016" lon="9.250582301795303"><ele>649.25</ele><time>2026-04-25T07:16:10Z</time></trkpt><trkpt lat="39.54366220202731" lon="9.25054068758159"><ele>650.0</ele><time>2026-04-25T07:16:11Z</time></trkpt><trkpt lat="39.54352119597285" lon="9.250497403447104"><ele>648.0</ele><time>2026-04-25T07:16:12Z</time></trkpt><trkpt lat="39.54338129080656" lon="9.250457248074264"><ele>646.0</ele><time>2026-04-25T07:16:13Z</time></trkpt><trkpt lat="39.5432431250443" lon="9.250419926890519"><ele>644.0</ele><time>2026-04-25T07:16:14Z</time></trkpt><trkpt lat="39.54310514836787" lon="9.250387763968419"><ele>642.0</ele><time>2026-04-25T07:16:15Z</time></trkpt><trkpt lat="39.54297017667646" lon="9.250353686602107"><ele>639.75</ele><time>2026-04-25T07:16:16Z</time></trkpt><trkpt lat="39.542835582110214" lon="9.250312481131177"><ele>637.5</ele><time>2026-04-25T07:16:17Z</time></trkpt><trkpt lat="39.542700464311324" lon="9.250269831244326"><ele>635.25</ele><time>2026-04-25T07:16:18Z</time></trkpt><trkpt lat="39.542565367500686" lon="9.250232247187409"><ele>633.0</ele><time>2026-04-25T07:16:19Z</time></trkpt><trkpt lat="39.54242822100488" lon="9.25018685813684"><ele>633.0</ele><time>2026-04-25T07:16:20Z</time></trkpt><trkpt lat="39.542293958156634" lon="9.250125504091626"><ele>633.0</ele><time>2026-04-25T07:16:21Z</time></trkpt><trkpt lat="39.54216415027782" lon="9.250043280794896"><ele>633.0</ele><time>2026-04-25T07:16:22Z</time></trkpt><trkpt lat="39.54204042463536" lon="9.249948243718329"><ele>633.0</ele><time>2026-04-25T07:16:23Z</time></trkpt><trkpt lat="39.541920953047466" lon="9.249839285181471"><ele>631.75</ele><time>2026-04-25T07:16:24Z</time></trkpt><trkpt lat="39.541812525573775" lon="9.249711677484896"><ele>630.5</ele><time>2026-04-25T07:16:25Z</time></trkpt><trkpt lat="39.54174765444357" lon="9.249538610367692"><ele>629.25</ele><time>2026-04-25T07:16:26Z</time></trkpt><trkpt lat="39.54169029487136" lon="9.249384673808251"><ele>628.0</ele><time>2026-04-25T07:16:27Z</time></trkpt><trkpt lat="39.541650687214506" lon="9.24920068157097"><ele>628.0</ele><time>2026-04-25T07:16:28Z</time></trkpt><trkpt lat="39.54161171784825" lon="9.249009479139376"><ele>628.0</ele><time>2026-04-25T07:16:29Z</time></trkpt><trkpt lat="39.54158238512833" lon="9.24881529659755"><ele>628.0</ele><time>2026-04-25T07:16:30Z</time></trkpt><trkpt lat="39.541554952218114" lon="9.248618472845802"><ele>627.3333333333334</ele><time>2026-04-25T07:16:31Z</time></trkpt><trkpt lat="39.54152803039296" lon="9.24842531597071"><ele>626.6666666666666</ele><time>2026-04-25T07:16:32Z</time></trkpt><trkpt lat="39.54150206790576" lon="9.248235044667599"><ele>626.0</ele><time>2026-04-25T07:16:33Z</time></trkpt><trkpt lat="39.541474784479384" lon="9.24804241403146"><ele>625.75</ele><time>2026-04-25T07:16:34Z</time></trkpt><trkpt lat="39.54144801088081" lon="9.247853437370322"><ele>625.5</ele><time>2026-04-25T07:16:35Z</time></trkpt><trkpt lat="39.54142153963488" lon="9.247666397687654"><ele>625.25</ele><time>2026-04-25T07:16:36Z</time></trkpt><trkpt lat="39.541394381433626" lon="9.24747417374622"><ele>625.0</ele><time>2026-04-25T07:16:37Z</time></trkpt><trkpt lat="39.54136654633475" lon="9.247277158764051"><ele>626.0</ele><time>2026-04-25T07:16:38Z</time></trkpt><trkpt lat="39.54133928639705" lon="9.247084214692737"><ele>627.0</ele><time>2026-04-25T07:16:39Z</time></trkpt><trkpt lat="39.54131259321491" lon="9.246890405219615"><ele>628.0</ele><time>2026-04-25T07:16:40Z</time></trkpt><trkpt lat="39.541284949789045" lon="9.246697691438627"><ele>628.0</ele><time>2026-04-25T07:16:41Z</time></trkpt><trkpt lat="39.541257797687486" lon="9.246506110825113"><ele>628.0</ele><time>2026-04-25T07:16:42Z</time></trkpt><trkpt lat="39.541232391330134" lon="9.246316551458753"><ele>628.0</ele><time>2026-04-25T07:16:43Z</time></trkpt><trkpt lat="39.54120529845416" lon="9.246127151819003"><ele>628.0</ele><time>2026-04-25T07:16:44Z</time></trkpt><trkpt lat="39.5411731230994" lon="9.245940604710357"><ele>629.0</ele><time>2026-04-25T07:16:45Z</time></trkpt><trkpt lat="39.54111519744005" lon="9.24576175054559"><ele>630.0</ele><time>2026-04-25T07:16:46Z</time></trkpt><trkpt lat="39.54106432038017" lon="9.245578103191944"><ele>631.0</ele><time>2026-04-25T07:16:47Z</time></trkpt><trkpt lat="39.54099837566971" lon="9.245404632490402"><ele>632.0</ele><time>2026-04-25T07:16:48Z</time></trkpt><trkpt lat="39.54092468663125" lon="9.24523743947376"><ele>634.0</ele><time>2026-04-25T07:16:49Z</time></trkpt><trkpt lat="39.5408373284667" lon="9.24508393739865"><ele>636.0</ele><time>2026-04-25T07:16:50Z</time></trkpt><trkpt lat="39.54077752886899" lon="9.24491831928105"><ele>638.0</ele><time>2026-04-25T07:16:51Z</time></trkpt><trkpt lat="39.540705894883914" lon="9.244760057612684"><ele>640.0</ele><time>2026-04-25T07:16:52Z</time></trkpt><trkpt lat="39.54064195711326" lon="9.244605564986456"><ele>642.5</ele><time>2026-04-25T07:16:53Z</time></trkpt><trkpt lat="39.5405902885054" lon="9.244444494212056"><ele>645.0</ele><time>2026-04-25T07:16:54Z</time></trkpt><trkpt lat="39.5405809970435" lon="9.24427282409654"><ele>647.5</ele><time>2026-04-25T07:16:55Z</time></trkpt><trkpt lat="39.5405913109817" lon="9.244104658125883"><ele>650.0</ele><time>2026-04-25T07:16:56Z</time></trkpt><trkpt lat="39.54062670334706" lon="9.24391456131264"><ele>650.6666666666666</ele><time>2026-04-25T07:16:57Z</time></trkpt><trkpt lat="39.54066342692294" lon="9.243722339368306"><ele>651.3333333333334</ele><time>2026-04-25T07:16:58Z</time></trkpt><trkpt lat="39.54070178880098" lon="9.24352619894053"><ele>652.0</ele><time>2026-04-25T07:16:59Z</time></trkpt><trkpt lat="39.540740558971606" lon="9.243329665550092"><ele>652.0</ele><time>2026-04-25T07:17:00Z</time></trkpt><trkpt lat="39.54077888872262" lon="9.243135292922442"><ele>652.0</ele><time>2026-04-25T07:17:01Z</time></trkpt><trkpt lat="39.5408177494596" lon="9.242938227663142"><ele>652.0</ele><time>2026-04-25T07:17:02Z</time></trkpt><trkpt lat="39.54085641321839" lon="9.242742161271929"><ele>653.25</ele><time>2026-04-25T07:17:03Z</time></trkpt><trkpt lat="39.54089372411694" lon="9.242549511125699"><ele>654.5</ele><time>2026-04-25T07:17:04Z</time></trkpt><trkpt lat="39.54091345600507" lon="9.242359336602684"><ele>655.75</ele><time>2026-04-25T07:17:05Z</time></trkpt><trkpt lat="39.54094864827913" lon="9.24217585705039"><ele>657.0</ele><time>2026-04-25T07:17:06Z</time></trkpt><trkpt lat="39.54096032664737" lon="9.241986976300401"><ele>659.0</ele><time>2026-04-25T07:17:07Z</time></trkpt><trkpt lat="39.54094952547829" lon="9.241795127977722"><ele>661.0</ele><time>2026-04-25T07:17:08Z</time></trkpt><trkpt lat="39.540907854647514" lon="9.241618644489948"><ele>663.0</ele><time>2026-04-25T07:17:09Z</time></trkpt><trkpt lat="39.540842621605684" lon="9.241440773519264"><ele>665.0</ele><time>2026-04-25T07:17:10Z</time></trkpt><trkpt lat="39.540759142007225" lon="9.241280841965514"><ele>667.25</ele><time>2026-04-25T07:17:11Z</time></trkpt><trkpt lat="39.540663295112346" lon="9.241133837836768"><ele>669.5</ele><time>2026-04-25T07:17:12Z</time></trkpt><trkpt lat="39.54056270013851" lon="9.240995288073881"><ele>671.75</ele><time>2026-04-25T07:17:13Z</time></trkpt><trkpt lat="39.540462590187396" lon="9.240857765289116"><ele>674.0</ele><time>2026-04-25T07:17:14Z</time></trkpt><trkpt lat="39.540376391902456" lon="9.240702131071542"><ele>674.75</ele><time>2026-04-25T07:17:15Z</time></trkpt><trkpt lat="39.540279082514516" lon="9.240561260971035"><ele>675.5</ele><time>2026-04-25T07:17:16Z</time></trkpt><trkpt lat="39.54017138221023" lon="9.240433103292204"><ele>676.25</ele><time>2026-04-25T07:17:17Z</time></trkpt><trkpt lat="39.540081726877204" lon="9.240288971385256"><ele>677.0</ele><time>2026-04-25T07:17:18Z</time></trkpt><trkpt lat="39.54000220448341" lon="9.240136131449407"><ele>677.0</ele><time>2026-04-25T07:17:19Z</time></trkpt><trkpt lat="39.539940295354" lon="9.239969754560263"><ele>677.0</ele><time>2026-04-25T07:17:20Z</time></trkpt><trkpt lat="39.53988874034746" lon="9.239792447835443"><ele>677.0</ele><time>2026-04-25T07:17:21Z</time></trkpt><trkpt lat="39.53984985736381" lon="9.239607012373243"><ele>677.0</ele><time>2026-04-25T07:17:22Z</time></trkpt><trkpt lat="39.53982632034237" lon="9.239416765090265"><ele>677.3333333333333</ele><time>2026-04-25T07:17:23Z</time></trkpt><trkpt lat="39.53980903947484" lon="9.239223565741709"><ele>677.6666666666666</ele><time>2026-04-25T07:17:24Z</time></trkpt><trkpt lat="39.539789028344245" lon="9.239030654393478"><ele>678.0</ele><time>2026-04-25T07:17:25Z</time></trkpt><trkpt lat="39.53976645807632" lon="9.238838933301013"><ele>678.0</ele><time>2026-04-25T07:17:26Z</time></trkpt><trkpt lat="39.53974564870328" lon="9.238650020455264"><ele>678.0</ele><time>2026-04-25T07:17:27Z</time></trkpt><trkpt lat="39.539723065959066" lon="9.238460443894402"><ele>678.0</ele><time>2026-04-25T07:17:28Z</time></trkpt><trkpt lat="39.53969918394544" lon="9.238269424714218"><ele>678.0</ele><time>2026-04-25T07:17:29Z</time></trkpt><trkpt lat="39.53967629173333" lon="9.23807395415169"><ele>677.3333333333334</ele><time>2026-04-25T07:17:30Z</time></trkpt><trkpt lat="39.53965310430028" lon="9.237877097151621"><ele>676.6666666666667</ele><time>2026-04-25T07:17:31Z</time></trkpt><trkpt lat="39.539630283032835" lon="9.237679902912419"><ele>676.0</ele><time>2026-04-25T07:17:32Z</time></trkpt><trkpt lat="39.539607912790416" lon="9.237485184067543"><ele>675.3333333333334</ele><time>2026-04-25T07:17:33Z</time></trkpt><trkpt lat="39.53958467976983" lon="9.237291151161173"><ele>674.6666666666666</ele><time>2026-04-25T07:17:34Z</time></trkpt><trkpt lat="39.53956162980646" lon="9.23709861581573"><ele>674.0</ele><time>2026-04-25T07:17:35Z</time></trkpt><trkpt lat="39.53953947403593" lon="9.236903251179507"><ele>672.0</ele><time>2026-04-25T07:17:36Z</time></trkpt><trkpt lat="39.539517842556826" lon="9.236705813528934"><ele>670.0</ele><time>2026-04-25T07:17:37Z</time></trkpt><trkpt lat="39.53949919669824" lon="9.236494900841189"><ele>668.0</ele><time>2026-04-25T07:17:38Z</time></trkpt><trkpt lat="39.539467801206435" lon="9.236310626254497"><ele>667.3333333333333</ele><time>2026-04-25T07:17:39Z</time></trkpt><trkpt lat="39.53944493795436" lon="9.236101782382034"><ele>666.6666666666666</ele><time>2026-04-25T07:17:40Z</time></trkpt><trkpt lat="39.53942156533236" lon="9.235901583917498"><ele>666.0</ele><time>2026-04-25T07:17:41Z</time></trkpt><trkpt lat="39.539402378771506" lon="9.235706988774188"><ele>664.6666666666666</ele><time>2026-04-25T07:17:42Z</time></trkpt><trkpt lat="39.53937957532472" lon="9.235507025524182"><ele>663.3333333333333</ele><time>2026-04-25T07:17:43Z</time></trkpt><trkpt lat="39.539357417221176" lon="9.235311137802995"><ele>662.0</ele><time>2026-04-25T07:17:44Z</time></trkpt><trkpt lat="39.53933632448609" lon="9.23511815105743"><ele>662.0</ele><time>2026-04-25T07:17:45Z</time></trkpt><trkpt lat="39.53931607996716" lon="9.23492406079625"><ele>662.0</ele><time>2026-04-25T07:17:46Z</time></trkpt><trkpt lat="39.53929657630141" lon="9.234734074235565"><ele>662.0</ele><time>2026-04-25T07:17:47Z</time></trkpt><trkpt lat="39.53927743745794" lon="9.234542169869151"><ele>662.0</ele><time>2026-04-25T07:17:48Z</time></trkpt><trkpt lat="39.53925920762687" lon="9.234353853441828"><ele>661.25</ele><time>2026-04-25T07:17:49Z</time></trkpt><trkpt lat="39.539242382223875" lon="9.234165859929359"><ele>660.5</ele><time>2026-04-25T07:17:50Z</time></trkpt><trkpt lat="39.53923879816238" lon="9.2339783642515"><ele>659.75</ele><time>2026-04-25T07:17:51Z</time></trkpt><trkpt lat="39.53925008663452" lon="9.23379610594331"><ele>659.0</ele><time>2026-04-25T07:17:52Z</time></trkpt><trkpt lat="39.53927168879003" lon="9.233609861384931"><ele>657.75</ele><time>2026-04-25T07:17:53Z</time></trkpt><trkpt lat="39.5393032822345" lon="9.233425961612069"><ele>656.5</ele><time>2026-04-25T07:17:54Z</time></trkpt><trkpt lat="39.53934429534031" lon="9.233247168894373"><ele>655.25</ele><time>2026-04-25T07:17:55Z</time></trkpt><trkpt lat="39.539385042731745" lon="9.23306678691138"><ele>654.0</ele><time>2026-04-25T07:17:56Z</time></trkpt><trkpt lat="39.5394339262457" lon="9.232886997006343"><ele>654.5</ele><time>2026-04-25T07:17:57Z</time></trkpt><trkpt lat="39.539503849998134" lon="9.232736423046273"><ele>655.0</ele><time>2026-04-25T07:17:58Z</time></trkpt><trkpt lat="39.539598474862196" lon="9.232607213501678"><ele>655.5</ele><time>2026-04-25T07:17:59Z</time></trkpt><trkpt lat="39.53971012178692" lon="9.232498297401454"><ele>656.0</ele><time>2026-04-25T07:18:00Z</time></trkpt><trkpt lat="39.53983942099215" lon="9.23241093253568"><ele>653.5</ele><time>2026-04-25T07:18:01Z</time></trkpt><trkpt lat="39.53995772409512" lon="9.232302860941198"><ele>651.0</ele><time>2026-04-25T07:18:02Z</time></trkpt><trkpt lat="39.5400588818283" lon="9.232158547368675"><ele>648.5</ele><time>2026-04-25T07:18:03Z</time></trkpt><trkpt lat="39.54013541640988" lon="9.231990321619449"><ele>646.0</ele><time>2026-04-25T07:18:04Z</time></trkpt><trkpt lat="39.540179422949905" lon="9.231787847244394"><ele>646.0</ele><time>2026-04-25T07:18:05Z</time></trkpt><trkpt lat="39.54020190919003" lon="9.23158314717894"><ele>646.0</ele><time>2026-04-25T07:18:06Z</time></trkpt><trkpt lat="39.54021710771128" lon="9.231377923565118"><ele>646.0</ele><time>2026-04-25T07:18:07Z</time></trkpt><trkpt lat="39.54023749230602" lon="9.23117679951636"><ele>643.6666666666667</ele><time>2026-04-25T07:18:08Z</time></trkpt><trkpt lat="39.540264440240556" lon="9.230982183900755"><ele>641.3333333333334</ele><time>2026-04-25T07:18:09Z</time></trkpt><trkpt lat="39.5402971809768" lon="9.230792545557573"><ele>639.0</ele><time>2026-04-25T07:18:10Z</time></trkpt><trkpt lat="39.54033760425356" lon="9.230592708701963"><ele>639.75</ele><time>2026-04-25T07:18:11Z</time></trkpt><trkpt lat="39.54039828036782" lon="9.230424160289028"><ele>640.5</ele><time>2026-04-25T07:18:12Z</time></trkpt><trkpt lat="39.540461064500356" lon="9.230244988871554"><ele>641.25</ele><time>2026-04-25T07:18:13Z</time></trkpt><trkpt lat="39.540514421819246" lon="9.230064214782852"><ele>642.0</ele><time>2026-04-25T07:18:14Z</time></trkpt><trkpt lat="39.54056716834702" lon="9.229881867666606"><ele>640.3333333333334</ele><time>2026-04-25T07:18:15Z</time></trkpt><trkpt lat="39.54062512177042" lon="9.229698547241899"><ele>638.6666666666667</ele><time>2026-04-25T07:18:16Z</time></trkpt><trkpt lat="39.54067968280883" lon="9.229511882530984"><ele>637.0</ele><time>2026-04-25T07:18:17Z</time></trkpt><trkpt lat="39.54072788990793" lon="9.229320039005831"><ele>637.0</ele><time>2026-04-25T07:18:18Z</time></trkpt><trkpt lat="39.540764638205545" lon="9.229124758623326"><ele>637.0</ele><time>2026-04-25T07:18:19Z</time></trkpt><trkpt lat="39.54078410875321" lon="9.228924072945146"><ele>637.0</ele><time>2026-04-25T07:18:20Z</time></trkpt><trkpt lat="39.54080528290183" lon="9.228724169739001"><ele>634.6666666666667</ele><time>2026-04-25T07:18:21Z</time></trkpt><trkpt lat="39.54083351109915" lon="9.228521945504351"><ele>632.3333333333334</ele><time>2026-04-25T07:18:22Z</time></trkpt><trkpt lat="39.54086079808574" lon="9.228322808172027"><ele>630.0</ele><time>2026-04-25T07:18:23Z</time></trkpt><trkpt lat="39.54088886705328" lon="9.22812933596345"><ele>629.0</ele><time>2026-04-25T07:18:24Z</time></trkpt><trkpt lat="39.54095950613576" lon="9.227961069206554"><ele>628.0</ele><time>2026-04-25T07:18:25Z</time></trkpt><trkpt lat="39.54103848900173" lon="9.22780337148167"><ele>627.0</ele><time>2026-04-25T07:18:26Z</time></trkpt><trkpt lat="39.541129657185174" lon="9.227660779117732"><ele>626.0</ele><time>2026-04-25T07:18:27Z</time></trkpt><trkpt lat="39.54123401398066" lon="9.227517044345877"><ele>626.0</ele><time>2026-04-25T07:18:28Z</time></trkpt><trkpt lat="39.54134141807015" lon="9.227369045371702"><ele>626.0</ele><time>2026-04-25T07:18:29Z</time></trkpt><trkpt lat="39.54143899960248" lon="9.227210701131918"><ele>626.0</ele><time>2026-04-25T07:18:30Z</time></trkpt><trkpt lat="39.5415451499694" lon="9.22706370168049"><ele>623.6666666666666</ele><time>2026-04-25T07:18:31Z</time></trkpt><trkpt lat="39.54164936453042" lon="9.226919068724124"><ele>621.3333333333334</ele><time>2026-04-25T07:18:32Z</time></trkpt><trkpt lat="39.54175256619818" lon="9.226775878670669"><ele>619.0</ele><time>2026-04-25T07:18:33Z</time></trkpt><trkpt lat="39.54185709564529" lon="9.226633378216063"><ele>619.0</ele><time>2026-04-25T07:18:34Z</time></trkpt><trkpt lat="39.541962145248874" lon="9.2264973330713"><ele>619.0</ele><time>2026-04-25T07:18:35Z</time></trkpt><trkpt lat="39.54207593487562" lon="9.226374691418767"><ele>619.0</ele><time>2026-04-25T07:18:36Z</time></trkpt><trkpt lat="39.54220067703541" lon="9.226271399093433"><ele>619.0</ele><time>2026-04-25T07:18:37Z</time></trkpt><trkpt lat="39.542342227574764" lon="9.226208037404351"><ele>616.0</ele><time>2026-04-25T07:18:38Z</time></trkpt><trkpt lat="39.54247750411814" lon="9.226120718651948"><ele>613.0</ele><time>2026-04-25T07:18:39Z</time></trkpt><trkpt lat="39.5426187277725" lon="9.22605715920739"><ele>610.0</ele><time>2026-04-25T07:18:40Z</time></trkpt><trkpt lat="39.54275723714507" lon="9.22598534838924"><ele>609.0</ele><time>2026-04-25T07:18:41Z</time></trkpt><trkpt lat="39.54289781311291" lon="9.225915432696759"><ele>608.0</ele><time>2026-04-25T07:18:42Z</time></trkpt><trkpt lat="39.543043074382865" lon="9.225845567112165"><ele>607.0</ele><time>2026-04-25T07:18:43Z</time></trkpt><trkpt lat="39.543191057074864" lon="9.225770592025224"><ele>607.0</ele><time>2026-04-25T07:18:44Z</time></trkpt><trkpt lat="39.543342319876345" lon="9.225693385247302"><ele>607.0</ele><time>2026-04-25T07:18:45Z</time></trkpt><trkpt lat="39.5434958618472" lon="9.225614119304574"><ele>607.0</ele><time>2026-04-25T07:18:46Z</time></trkpt><trkpt lat="39.54364885117938" lon="9.225535373594612"><ele>602.3333333333334</ele><time>2026-04-25T07:18:47Z</time></trkpt><trkpt lat="39.54380438797361" lon="9.225455905570445"><ele>597.6666666666666</ele><time>2026-04-25T07:18:48Z</time></trkpt><trkpt lat="39.54395482092144" lon="9.225379764094036"><ele>593.0</ele><time>2026-04-25T07:18:49Z</time></trkpt><trkpt lat="39.5441031381227" lon="9.225304162056402"><ele>593.0</ele><time>2026-04-25T07:18:50Z</time></trkpt><trkpt lat="39.54424630126333" lon="9.225227674112562"><ele>593.0</ele><time>2026-04-25T07:18:51Z</time></trkpt><trkpt lat="39.54438551047859" lon="9.225143461052546"><ele>593.0</ele><time>2026-04-25T07:18:52Z</time></trkpt><trkpt lat="39.54451343435678" lon="9.225041945965492"><ele>594.5</ele><time>2026-04-25T07:18:53Z</time></trkpt><trkpt lat="39.544635715882556" lon="9.224928593480014"><ele>596.0</ele><time>2026-04-25T07:18:54Z</time></trkpt><trkpt lat="39.54475837430487" lon="9.224818462674476"><ele>597.5</ele><time>2026-04-25T07:18:55Z</time></trkpt><trkpt lat="39.5448838728628" lon="9.224713734417135"><ele>599.0</ele><time>2026-04-25T07:18:56Z</time></trkpt><trkpt lat="39.54500919230346" lon="9.224610270926346"><ele>595.0</ele><time>2026-04-25T07:18:57Z</time></trkpt><trkpt lat="39.54513704306766" lon="9.224513081165586"><ele>591.0</ele><time>2026-04-25T07:18:58Z</time></trkpt><trkpt lat="39.545275850558575" lon="9.224445534933672"><ele>587.0</ele><time>2026-04-25T07:18:59Z</time></trkpt><trkpt lat="39.54542596079288" lon="9.224421880355251"><ele>583.0</ele><time>2026-04-25T07:19:00Z</time></trkpt><trkpt lat="39.54557646092331" lon="9.224426988632096"><ele>582.25</ele><time>2026-04-25T07:19:01Z</time></trkpt><trkpt lat="39.5457259797265" lon="9.224427246164018"><ele>581.5</ele><time>2026-04-25T07:19:02Z</time></trkpt><trkpt lat="39.54587464886955" lon="9.2244240022522"><ele>580.75</ele><time>2026-04-25T07:19:03Z</time></trkpt><trkpt lat="39.546024911198515" lon="9.224418861516975"><ele>580.0</ele><time>2026-04-25T07:19:04Z</time></trkpt><trkpt lat="39.546173627667685" lon="9.224400240204588"><ele>579.0</ele><time>2026-04-25T07:19:05Z</time></trkpt><trkpt lat="39.54631882274513" lon="9.224346277227374"><ele>578.0</ele><time>2026-04-25T07:19:06Z</time></trkpt><trkpt lat="39.54645768076578" lon="9.22426894920478"><ele>577.0</ele><time>2026-04-25T07:19:07Z</time></trkpt><trkpt lat="39.54657307255944" lon="9.224145500721448"><ele>577.0</ele><time>2026-04-25T07:19:08Z</time></trkpt><trkpt lat="39.54666325292748" lon="9.223995829023272"><ele>577.0</ele><time>2026-04-25T07:19:09Z</time></trkpt><trkpt lat="39.54672817988032" lon="9.223826081110337"><ele>577.0</ele><time>2026-04-25T07:19:10Z</time></trkpt><trkpt lat="39.54676977088934" lon="9.223652632092092"><ele>577.0</ele><time>2026-04-25T07:19:11Z</time></trkpt><trkpt lat="39.54680111250917" lon="9.223477179266549"><ele>575.5</ele><time>2026-04-25T07:19:12Z</time></trkpt><trkpt lat="39.54683761077486" lon="9.223306434247132"><ele>574.0</ele><time>2026-04-25T07:19:13Z</time></trkpt><trkpt lat="39.546873455626994" lon="9.223129390287738"><ele>572.5</ele><time>2026-04-25T07:19:14Z</time></trkpt><trkpt lat="39.5469034242478" lon="9.22294928384066"><ele>571.0</ele><time>2026-04-25T07:19:15Z</time></trkpt><trkpt lat="39.54693507854488" lon="9.222770784368272"><ele>570.75</ele><time>2026-04-25T07:19:16Z</time></trkpt><trkpt lat="39.54696932933089" lon="9.222591797331916"><ele>570.5</ele><time>2026-04-25T07:19:17Z</time></trkpt><trkpt lat="39.54700061068681" lon="9.222412498466277"><ele>570.25</ele><time>2026-04-25T07:19:18Z</time></trkpt><trkpt lat="39.5470305738373" lon="9.222229899715426"><ele>570.0</ele><time>2026-04-25T07:19:19Z</time></trkpt><trkpt lat="39.54706311638969" lon="9.222047641785549"><ele>572.0</ele><time>2026-04-25T07:19:20Z</time></trkpt><trkpt lat="39.547113415579" lon="9.221860743939724"><ele>574.0</ele><time>2026-04-25T07:19:21Z</time></trkpt><trkpt lat="39.54715092874623" lon="9.22166418686885"><ele>576.0</ele><time>2026-04-25T07:19:22Z</time></trkpt><trkpt lat="39.54718958491781" lon="9.221461640911032"><ele>576.0</ele><time>2026-04-25T07:19:23Z</time></trkpt><trkpt lat="39.54723034962081" lon="9.221254084401743"><ele>576.0</ele><time>2026-04-25T07:19:24Z</time></trkpt><trkpt lat="39.547271722840044" lon="9.221043709138174"><ele>576.0</ele><time>2026-04-25T07:19:25Z</time></trkpt><trkpt lat="39.547286533956246" lon="9.22090559062417"><ele>576.0</ele><time>2026-04-25T07:19:26Z</time></trkpt><trkpt lat="39.54732626721977" lon="9.220715540433437"><ele>576.0</ele><time>2026-04-25T07:19:27Z</time></trkpt><trkpt lat="39.54736267724217" lon="9.220519053519206"><ele>576.0</ele><time>2026-04-25T07:19:28Z</time></trkpt><trkpt lat="39.54739661693147" lon="9.220322223572397"><ele>576.0</ele><time>2026-04-25T07:19:29Z</time></trkpt><trkpt lat="39.54743604740859" lon="9.220124633733105"><ele>576.0</ele><time>2026-04-25T07:19:30Z</time></trkpt><trkpt lat="39.54747660521873" lon="9.21992729096704"><ele>576.0</ele><time>2026-04-25T07:19:31Z</time></trkpt><trkpt lat="39.547528469880156" lon="9.219731562097554"><ele>576.0</ele><time>2026-04-25T07:19:32Z</time></trkpt><trkpt lat="39.54756738922712" lon="9.219534061992336"><ele>576.6666666666666</ele><time>2026-04-25T07:19:33Z</time></trkpt><trkpt lat="39.54760571112988" lon="9.219338293199256"><ele>577.3333333333333</ele><time>2026-04-25T07:19:34Z</time></trkpt><trkpt lat="39.54762741181632" lon="9.219140953690928"><ele>578.0</ele><time>2026-04-25T07:19:35Z</time></trkpt><trkpt lat="39.547665370720786" lon="9.218952868189499"><ele>579.5</ele><time>2026-04-25T07:19:36Z</time></trkpt><trkpt lat="39.54771618838064" lon="9.218773916326468"><ele>581.0</ele><time>2026-04-25T07:19:37Z</time></trkpt><trkpt lat="39.54775257590919" lon="9.218588029269899"><ele>582.5</ele><time>2026-04-25T07:19:38Z</time></trkpt><trkpt lat="39.54778932034018" lon="9.218402346407723"><ele>584.0</ele><time>2026-04-25T07:19:39Z</time></trkpt><trkpt lat="39.54780990784168" lon="9.218207833191222"><ele>586.0</ele><time>2026-04-25T07:19:40Z</time></trkpt><trkpt lat="39.547844894946095" lon="9.218014904033549"><ele>588.0</ele><time>2026-04-25T07:19:41Z</time></trkpt><trkpt lat="39.54785952342684" lon="9.217814041775455"><ele>590.0</ele><time>2026-04-25T07:19:42Z</time></trkpt><trkpt lat="39.54785291255088" lon="9.217604275368888"><ele>590.0</ele><time>2026-04-25T07:19:43Z</time></trkpt><trkpt lat="39.547831142435896" lon="9.217397342912072"><ele>590.0</ele><time>2026-04-25T07:19:44Z</time></trkpt><trkpt lat="39.54780789653189" lon="9.217193363465524"><ele>590.0</ele><time>2026-04-25T07:19:45Z</time></trkpt><trkpt lat="39.547783405525536" lon="9.21699380756493"><ele>590.6666666666666</ele><time>2026-04-25T07:19:46Z</time></trkpt><trkpt lat="39.54775596924142" lon="9.216795433724242"><ele>591.3333333333334</ele><time>2026-04-25T07:19:47Z</time></trkpt><trkpt lat="39.54772972221689" lon="9.21659635501883"><ele>592.0</ele><time>2026-04-25T07:19:48Z</time></trkpt><trkpt lat="39.54772334789936" lon="9.216393190782696"><ele>592.3333333333334</ele><time>2026-04-25T07:19:49Z</time></trkpt><trkpt lat="39.547701389747246" lon="9.216197670455063"><ele>592.6666666666666</ele><time>2026-04-25T07:19:50Z</time></trkpt><trkpt lat="39.54767977593268" lon="9.216005216190116"><ele>593.0</ele><time>2026-04-25T07:19:51Z</time></trkpt><trkpt lat="39.54764287528713" lon="9.215820215719795"><ele>593.25</ele><time>2026-04-25T07:19:52Z</time></trkpt><trkpt lat="39.54760222892055" lon="9.215639675827092"><ele>593.5</ele><time>2026-04-25T07:19:53Z</time></trkpt><trkpt lat="39.547527997466666" lon="9.215472768993312"><ele>593.75</ele><time>2026-04-25T07:19:54Z</time></trkpt><trkpt lat="39.54743251874951" lon="9.215328598520664"><ele>594.0</ele><time>2026-04-25T07:19:55Z</time></trkpt><trkpt lat="39.5473198033728" lon="9.215215011287595"><ele>594.0</ele><time>2026-04-25T07:19:56Z</time></trkpt><trkpt lat="39.54719371031716" lon="9.215138624838637"><ele>594.0</ele><time>2026-04-25T07:19:57Z</time></trkpt><trkpt lat="39.54706152144616" lon="9.215090130242917"><ele>594.0</ele><time>2026-04-25T07:19:58Z</time></trkpt><trkpt lat="39.54692523879335" lon="9.215077288745492"><ele>594.0</ele><time>2026-04-25T07:19:59Z</time></trkpt><trkpt lat="39.54679495107669" lon="9.215097018203494"><ele>594.0</ele><time>2026-04-25T07:20:00Z</time></trkpt><trkpt lat="39.54666894768101" lon="9.215132898458917"><ele>594.0</ele><time>2026-04-25T07:20:01Z</time></trkpt><trkpt lat="39.54654557387496" lon="9.215171976865207"><ele>594.0</ele><time>2026-04-25T07:20:02Z</time></trkpt><trkpt lat="39.54641997285547" lon="9.215204530522938"><ele>594.0</ele><time>2026-04-25T07:20:03Z</time></trkpt><trkpt lat="39.54629186530759" lon="9.21523602862518"><ele>591.75</ele><time>2026-04-25T07:20:04Z</time></trkpt><trkpt lat="39.54616381616419" lon="9.21526155318285"><ele>589.5</ele><time>2026-04-25T07:20:05Z</time></trkpt><trkpt lat="39.54603556882602" lon="9.215287960515324"><ele>587.25</ele><time>2026-04-25T07:20:06Z</time></trkpt><trkpt lat="39.54590744498516" lon="9.215315210288091"><ele>585.0</ele><time>2026-04-25T07:20:07Z</time></trkpt><trkpt lat="39.545775819483744" lon="9.215335442250462"><ele>585.0</ele><time>2026-04-25T07:20:08Z</time></trkpt><trkpt lat="39.54563974959189" lon="9.215343826735737"><ele>585.0</ele><time>2026-04-25T07:20:09Z</time></trkpt><trkpt lat="39.54550093739522" lon="9.21534286052234"><ele>585.0</ele><time>2026-04-25T07:20:10Z</time></trkpt><trkpt lat="39.54535824614069" lon="9.215336408990172"><ele>585.0</ele><time>2026-04-25T07:20:11Z</time></trkpt><trkpt lat="39.54521273184135" lon="9.215336498305705"><ele>584.0</ele><time>2026-04-25T07:20:12Z</time></trkpt><trkpt lat="39.54506422544215" lon="9.21533986675223"><ele>583.0</ele><time>2026-04-25T07:20:13Z</time></trkpt><trkpt lat="39.5449144443865" lon="9.215345687498239"><ele>582.0</ele><time>2026-04-25T07:20:14Z</time></trkpt><trkpt lat="39.544765668726974" lon="9.215350588993735"><ele>581.0</ele><time>2026-04-25T07:20:15Z</time></trkpt><trkpt lat="39.54461657881516" lon="9.21535363746812"><ele>579.5</ele><time>2026-04-25T07:20:16Z</time></trkpt><trkpt lat="39.5444682185861" lon="9.215362254112103"><ele>578.0</ele><time>2026-04-25T07:20:17Z</time></trkpt><trkpt lat="39.544320353726555" lon="9.215377320100723"><ele>576.5</ele><time>2026-04-25T07:20:18Z</time></trkpt><trkpt lat="39.544174035606595" lon="9.215392458321654"><ele>575.0</ele><time>2026-04-25T07:20:19Z</time></trkpt><trkpt lat="39.54402777576438" lon="9.21540623915438"><ele>575.0</ele><time>2026-04-25T07:20:20Z</time></trkpt><trkpt lat="39.54388529261904" lon="9.215418024590644"><ele>575.0</ele><time>2026-04-25T07:20:21Z</time></trkpt><trkpt lat="39.543744583211954" lon="9.21543188815823"><ele>575.0</ele><time>2026-04-25T07:20:22Z</time></trkpt><trkpt lat="39.54360400015951" lon="9.215446123718355"><ele>575.0</ele><time>2026-04-25T07:20:23Z</time></trkpt><trkpt lat="39.54346540463333" lon="9.215454484636478"><ele>572.75</ele><time>2026-04-25T07:20:24Z</time></trkpt><trkpt lat="39.54332659664386" lon="9.215452253996181"><ele>570.5</ele><time>2026-04-25T07:20:25Z</time></trkpt><trkpt lat="39.543188813494545" lon="9.21543764410935"><ele>568.25</ele><time>2026-04-25T07:20:26Z</time></trkpt><trkpt lat="39.543049285739386" lon="9.215417311592462"><ele>566.0</ele><time>2026-04-25T07:20:27Z</time></trkpt><trkpt lat="39.54292086880209" lon="9.215352248220906"><ele>562.75</ele><time>2026-04-25T07:20:28Z</time></trkpt><trkpt lat="39.54281318411625" lon="9.215259078292979"><ele>559.5</ele><time>2026-04-25T07:20:29Z</time></trkpt><trkpt lat="39.542733669933625" lon="9.215129450409613"><ele>556.25</ele><time>2026-04-25T07:20:30Z</time></trkpt><trkpt lat="39.54267971078114" lon="9.214972329070212"><ele>553.0</ele><time>2026-04-25T07:20:31Z</time></trkpt><trkpt lat="39.54263493052062" lon="9.214807299927749"><ele>552.5</ele><time>2026-04-25T07:20:32Z</time></trkpt><trkpt lat="39.542585201100046" lon="9.214628189684671"><ele>552.0</ele><time>2026-04-25T07:20:33Z</time></trkpt><trkpt lat="39.542536958823256" lon="9.214454436643509"><ele>551.5</ele><time>2026-04-25T07:20:34Z</time></trkpt><trkpt lat="39.54248826237684" lon="9.214279043701701"><ele>551.0</ele><time>2026-04-25T07:20:35Z</time></trkpt><trkpt lat="39.54244083516095" lon="9.21410668443713"><ele>551.5</ele><time>2026-04-25T07:20:36Z</time></trkpt><trkpt lat="39.54239378645289" lon="9.213936140943693"><ele>552.0</ele><time>2026-04-25T07:20:37Z</time></trkpt><trkpt lat="39.542346377558815" lon="9.213763827307286"><ele>552.5</ele><time>2026-04-25T07:20:38Z</time></trkpt><trkpt lat="39.54230005539068" lon="9.213590032928115"><ele>553.0</ele><time>2026-04-25T07:20:39Z</time></trkpt><trkpt lat="39.54225882063478" lon="9.213411491057753"><ele>553.0</ele><time>2026-04-25T07:20:40Z</time></trkpt><trkpt lat="39.54224106159023" lon="9.213230646956914"><ele>553.0</ele><time>2026-04-25T07:20:41Z</time></trkpt><trkpt lat="39.54225109000269" lon="9.213049486754882"><ele>553.0</ele><time>2026-04-25T07:20:42Z</time></trkpt><trkpt lat="39.54227744666456" lon="9.212866953118988"><ele>553.0</ele><time>2026-04-25T07:20:43Z</time></trkpt><trkpt lat="39.54233227413055" lon="9.212700022183887"><ele>550.5</ele><time>2026-04-25T07:20:44Z</time></trkpt><trkpt lat="39.54241295210393" lon="9.212546657139509"><ele>548.0</ele><time>2026-04-25T07:20:45Z</time></trkpt><trkpt lat="39.54248812748894" lon="9.212384925228966"><ele>545.5</ele><time>2026-04-25T07:20:46Z</time></trkpt><trkpt lat="39.542579230827236" lon="9.212231684738958"><ele>543.0</ele><time>2026-04-25T07:20:47Z</time></trkpt><trkpt lat="39.542668439917364" lon="9.21208262652072"><ele>539.25</ele><time>2026-04-25T07:20:48Z</time></trkpt><trkpt lat="39.542748561396444" lon="9.211933893054413"><ele>535.5</ele><time>2026-04-25T07:20:49Z</time></trkpt><trkpt lat="39.54280016818846" lon="9.2117683171769"><ele>531.75</ele><time>2026-04-25T07:20:50Z</time></trkpt><trkpt lat="39.542810525305974" lon="9.211588904259951"><ele>528.0</ele><time>2026-04-25T07:20:51Z</time></trkpt><trkpt lat="39.5427578874768" lon="9.211412231729245"><ele>527.5</ele><time>2026-04-25T07:20:52Z</time></trkpt><trkpt lat="39.54267566249872" lon="9.211265139942423"><ele>527.0</ele><time>2026-04-25T07:20:53Z</time></trkpt><trkpt lat="39.542605147121385" lon="9.211117881806732"><ele>526.5</ele><time>2026-04-25T07:20:54Z</time></trkpt><trkpt lat="39.5425605205428" lon="9.210963396161139"><ele>526.0</ele><time>2026-04-25T07:20:55Z</time></trkpt><trkpt lat="39.54257111927357" lon="9.21079246251935"><ele>527.5</ele><time>2026-04-25T07:20:56Z</time></trkpt><trkpt lat="39.54257782862292" lon="9.210609343540844"><ele>529.0</ele><time>2026-04-25T07:20:57Z</time></trkpt><trkpt lat="39.542570062117775" lon="9.210435719563883"><ele>530.5</ele><time>2026-04-25T07:20:58Z</time></trkpt><trkpt lat="39.54249446384476" lon="9.21028001063568"><ele>532.0</ele><time>2026-04-25T07:20:59Z</time></trkpt><trkpt lat="39.54238610638473" lon="9.210170931922509"><ele>532.0</ele><time>2026-04-25T07:21:00Z</time></trkpt><trkpt lat="39.54225448228359" lon="9.21009530885833"><ele>532.0</ele><time>2026-04-25T07:21:01Z</time></trkpt><trkpt lat="39.542149787081854" lon="9.209993645233203"><ele>532.0</ele><time>2026-04-25T07:21:02Z</time></trkpt><trkpt lat="39.54203812280254" lon="9.209893566171111"><ele>532.0</ele><time>2026-04-25T07:21:03Z</time></trkpt><trkpt lat="39.54192613392535" lon="9.209793195039824"><ele>528.75</ele><time>2026-04-25T07:21:04Z</time></trkpt><trkpt lat="39.54181494621596" lon="9.209693542019673"><ele>525.5</ele><time>2026-04-25T07:21:05Z</time></trkpt><trkpt lat="39.54170783761995" lon="9.209589125026497"><ele>522.25</ele><time>2026-04-25T07:21:06Z</time></trkpt><trkpt lat="39.54161226275336" lon="9.209468603077172"><ele>519.0</ele><time>2026-04-25T07:21:07Z</time></trkpt><trkpt lat="39.54153465809677" lon="9.209329237809932"><ele>519.0</ele><time>2026-04-25T07:21:08Z</time></trkpt><trkpt lat="39.5414759815319" lon="9.209171509429131"><ele>519.0</ele><time>2026-04-25T07:21:09Z</time></trkpt><trkpt lat="39.54141553518514" lon="9.209008887129611"><ele>519.0</ele><time>2026-04-25T07:21:10Z</time></trkpt><trkpt lat="39.54135950619949" lon="9.208847869448288"><ele>519.0</ele><time>2026-04-25T07:21:11Z</time></trkpt><trkpt lat="39.541321211921904" lon="9.208678774331984"><ele>519.25</ele><time>2026-04-25T07:21:12Z</time></trkpt><trkpt lat="39.54130307493223" lon="9.208501446521888"><ele>519.5</ele><time>2026-04-25T07:21:13Z</time></trkpt><trkpt lat="39.541315079612275" lon="9.208323922334536"><ele>519.75</ele><time>2026-04-25T07:21:14Z</time></trkpt><trkpt lat="39.541312491246494" lon="9.208139516814859"><ele>520.0</ele><time>2026-04-25T07:21:15Z</time></trkpt><trkpt lat="39.541324007778925" lon="9.207958081883685"><ele>517.5</ele><time>2026-04-25T07:21:16Z</time></trkpt><trkpt lat="39.54133615618489" lon="9.207777468657097"><ele>515.0</ele><time>2026-04-25T07:21:17Z</time></trkpt><trkpt lat="39.54137601209483" lon="9.207604512752152"><ele>512.5</ele><time>2026-04-25T07:21:18Z</time></trkpt><trkpt lat="39.54142740703128" lon="9.207439414148142"><ele>510.0</ele><time>2026-04-25T07:21:19Z</time></trkpt><trkpt lat="39.5414830315759" lon="9.207271113142554"><ele>506.5</ele><time>2026-04-25T07:21:20Z</time></trkpt><trkpt lat="39.54155449174826" lon="9.20710975204369"><ele>503.0</ele><time>2026-04-25T07:21:21Z</time></trkpt><trkpt lat="39.541628736416975" lon="9.206948449255277"><ele>499.5</ele><time>2026-04-25T07:21:22Z</time></trkpt><trkpt lat="39.54169984293578" lon="9.206784856223914"><ele>496.0</ele><time>2026-04-25T07:21:23Z</time></trkpt><trkpt lat="39.541769874421625" lon="9.20661908392567"><ele>497.25</ele><time>2026-04-25T07:21:24Z</time></trkpt><trkpt lat="39.54184066437128" lon="9.206455900518577"><ele>498.5</ele><time>2026-04-25T07:21:25Z</time></trkpt><trkpt lat="39.54191160707444" lon="9.206293965109175"><ele>499.75</ele><time>2026-04-25T07:21:26Z</time></trkpt><trkpt lat="39.54198340396405" lon="9.206131192094857"><ele>501.0</ele><time>2026-04-25T07:21:27Z</time></trkpt><trkpt lat="39.54205689594702" lon="9.205973550261495"><ele>501.0</ele><time>2026-04-25T07:21:28Z</time></trkpt><trkpt lat="39.5421379234488" lon="9.205822364003817"><ele>501.0</ele><time>2026-04-25T07:21:29Z</time></trkpt><trkpt lat="39.54224385453291" lon="9.205685089435288"><ele>501.0</ele><time>2026-04-25T07:21:30Z</time></trkpt><trkpt lat="39.54234727295584" lon="9.20556749767859"><ele>501.0</ele><time>2026-04-25T07:21:31Z</time></trkpt><trkpt lat="39.54246083744033" lon="9.205457036081341"><ele>495.0</ele><time>2026-04-25T07:21:32Z</time></trkpt><trkpt lat="39.54257541554973" lon="9.205352710241387"><ele>489.0</ele><time>2026-04-25T07:21:33Z</time></trkpt><trkpt lat="39.542685760581264" lon="9.205241378459252"><ele>483.0</ele><time>2026-04-25T07:21:34Z</time></trkpt><trkpt lat="39.54277986183166" lon="9.205108480362844"><ele>477.0</ele><time>2026-04-25T07:21:35Z</time></trkpt><trkpt lat="39.542854946972525" lon="9.204954553535403"><ele>479.75</ele><time>2026-04-25T07:21:36Z</time></trkpt><trkpt lat="39.54290567556092" lon="9.204775607494666"><ele>482.5</ele><time>2026-04-25T07:21:37Z</time></trkpt><trkpt lat="39.54296114689375" lon="9.204595830840976"><ele>485.25</ele><time>2026-04-25T07:21:38Z</time></trkpt><trkpt lat="39.543025606814865" lon="9.20442666487381"><ele>488.0</ele><time>2026-04-25T07:21:39Z</time></trkpt><trkpt lat="39.543090530406445" lon="9.204257334266757"><ele>488.0</ele><time>2026-04-25T07:21:40Z</time></trkpt><trkpt lat="39.54315291311538" lon="9.204091011729627"><ele>488.0</ele><time>2026-04-25T07:21:41Z</time></trkpt><trkpt lat="39.54321375704924" lon="9.20392894632779"><ele>488.0</ele><time>2026-04-25T07:21:42Z</time></trkpt><trkpt lat="39.54326671633178" lon="9.203769330222691"><ele>488.0</ele><time>2026-04-25T07:21:43Z</time></trkpt><trkpt lat="39.543293148540734" lon="9.203611322354599"><ele>486.75</ele><time>2026-04-25T07:21:44Z</time></trkpt><trkpt lat="39.54330476042199" lon="9.203453555360108"><ele>485.5</ele><time>2026-04-25T07:21:45Z</time></trkpt><trkpt lat="39.543214402411415" lon="9.203307774155471"><ele>484.25</ele><time>2026-04-25T07:21:46Z</time></trkpt><trkpt lat="39.543118307488285" lon="9.203198663939144"><ele>483.0</ele><time>2026-04-25T07:21:47Z</time></trkpt><trkpt lat="39.54299830972068" lon="9.20313362511074"><ele>480.25</ele><time>2026-04-25T07:21:48Z</time></trkpt><trkpt lat="39.54286509690287" lon="9.203119928421227"><ele>477.5</ele><time>2026-04-25T07:21:49Z</time></trkpt><trkpt lat="39.542726634820376" lon="9.203135149750127"><ele>474.75</ele><time>2026-04-25T07:21:50Z</time></trkpt><trkpt lat="39.54258452885324" lon="9.203161267713847"><ele>472.0</ele><time>2026-04-25T07:21:51Z</time></trkpt><trkpt lat="39.542442190711526" lon="9.20317945444595"><ele>472.0</ele><time>2026-04-25T07:21:52Z</time></trkpt><trkpt lat="39.542300009383034" lon="9.203216899638457"><ele>472.0</ele><time>2026-04-25T07:21:53Z</time></trkpt><trkpt lat="39.54216524552383" lon="9.203265609722333"><ele>472.0</ele><time>2026-04-25T07:21:54Z</time></trkpt><trkpt lat="39.542038846066305" lon="9.20333801923044"><ele>472.0</ele><time>2026-04-25T07:21:55Z</time></trkpt><trkpt lat="39.54191996006708" lon="9.203427001106144"><ele>474.25</ele><time>2026-04-25T07:21:56Z</time></trkpt><trkpt lat="39.54179523455615" lon="9.203499648536612"><ele>476.5</ele><time>2026-04-25T07:21:57Z</time></trkpt><trkpt lat="39.54168278607835" lon="9.203590776534728"><ele>478.75</ele><time>2026-04-25T07:21:58Z</time></trkpt><trkpt lat="39.54157395476207" lon="9.203694066442731"><ele>481.0</ele><time>2026-04-25T07:21:59Z</time></trkpt><trkpt lat="39.54145262761799" lon="9.203781262337907"><ele>481.0</ele><time>2026-04-25T07:22:00Z</time></trkpt><trkpt lat="39.54132197298834" lon="9.203853919589552"><ele>481.0</ele><time>2026-04-25T07:22:01Z</time></trkpt><trkpt lat="39.54117839366491" lon="9.203902097673827"><ele>481.0</ele><time>2026-04-25T07:22:02Z</time></trkpt><trkpt lat="39.54102766974884" lon="9.203942674259645"><ele>481.0</ele><time>2026-04-25T07:22:03Z</time></trkpt><trkpt lat="39.540879561593506" lon="9.203977487258344"><ele>472.0</ele><time>2026-04-25T07:22:04Z</time></trkpt><trkpt lat="39.5407307648544" lon="9.204029562612194"><ele>463.0</ele><time>2026-04-25T07:22:05Z</time></trkpt><trkpt lat="39.540584968187005" lon="9.204097421522496"><ele>454.0</ele><time>2026-04-25T07:22:06Z</time></trkpt><trkpt lat="39.540442193425946" lon="9.204169665967747"><ele>456.6666666666667</ele><time>2026-04-25T07:22:07Z</time></trkpt><trkpt lat="39.54029644895241" lon="9.20424034291186"><ele>459.33333333333337</ele><time>2026-04-25T07:22:08Z</time></trkpt><trkpt lat="39.5401531832723" lon="9.20431070827577"><ele>462.0</ele><time>2026-04-25T07:22:09Z</time></trkpt><trkpt lat="39.5400117182228" lon="9.20438154744996"><ele>462.0</ele><time>2026-04-25T07:22:10Z</time></trkpt><trkpt lat="39.5398722980254" lon="9.204455976998263"><ele>462.0</ele><time>2026-04-25T07:22:11Z</time></trkpt><trkpt lat="39.539735340885386" lon="9.204531709492187"><ele>462.0</ele><time>2026-04-25T07:22:12Z</time></trkpt><trkpt lat="39.5395995877428" lon="9.204604624313372"><ele>462.0</ele><time>2026-04-25T07:22:13Z</time></trkpt><trkpt lat="39.53947244045135" lon="9.204667092640308"><ele>457.0</ele><time>2026-04-25T07:22:14Z</time></trkpt><trkpt lat="39.539347571659434" lon="9.20470707986275"><ele>452.0</ele><time>2026-04-25T07:22:15Z</time></trkpt><trkpt lat="39.53922924996069" lon="9.204680527169614"><ele>447.0</ele><time>2026-04-25T07:22:16Z</time></trkpt><trkpt lat="39.539137144595195" lon="9.20460660214229"><ele>442.0</ele><time>2026-04-25T07:22:17Z</time></trkpt><trkpt lat="39.53907345570094" lon="9.20447115992802"><ele>442.0</ele><time>2026-04-25T07:22:18Z</time></trkpt><trkpt lat="39.53905014308748" lon="9.204323223767595"><ele>442.0</ele><time>2026-04-25T07:22:19Z</time></trkpt><trkpt lat="39.53905152629185" lon="9.204171464156861"><ele>442.0</ele><time>2026-04-25T07:22:20Z</time></trkpt><trkpt lat="39.53904578496605" lon="9.204021669791276"><ele>442.0</ele><time>2026-04-25T07:22:21Z</time></trkpt><trkpt lat="39.53902977512086" lon="9.203851687231866"><ele>441.75</ele><time>2026-04-25T07:22:22Z</time></trkpt><trkpt lat="39.53901670678554" lon="9.203689988818759"><ele>441.5</ele><time>2026-04-25T07:22:23Z</time></trkpt><trkpt lat="39.53900268688876" lon="9.203526969508207"><ele>441.25</ele><time>2026-04-25T07:22:24Z</time></trkpt><trkpt lat="39.53898168488235" lon="9.20336470277515"><ele>441.0</ele><time>2026-04-25T07:22:25Z</time></trkpt><trkpt lat="39.538950613013206" lon="9.203203703912962"><ele>443.25</ele><time>2026-04-25T07:22:26Z</time></trkpt><trkpt lat="39.53890641566602" lon="9.203050056905733"><ele>445.5</ele><time>2026-04-25T07:22:27Z</time></trkpt><trkpt lat="39.53885188140896" lon="9.202904981430398"><ele>447.75</ele><time>2026-04-25T07:22:28Z</time></trkpt><trkpt lat="39.53878928103837" lon="9.20276504161094"><ele>450.0</ele><time>2026-04-25T07:22:29Z</time></trkpt><trkpt lat="39.53872752087654" lon="9.202626360461139"><ele>444.5</ele><time>2026-04-25T07:22:30Z</time></trkpt><trkpt lat="39.53866373534804" lon="9.202487129581819"><ele>439.0</ele><time>2026-04-25T07:22:31Z</time></trkpt><trkpt lat="39.53859950062291" lon="9.20234940777488"><ele>433.5</ele><time>2026-04-25T07:22:32Z</time></trkpt><trkpt lat="39.53853736589798" lon="9.202216081771214"><ele>428.0</ele><time>2026-04-25T07:22:33Z</time></trkpt><trkpt lat="39.53847888746275" lon="9.202084013480754"><ele>428.0</ele><time>2026-04-25T07:22:34Z</time></trkpt><trkpt lat="39.53841945894823" lon="9.201952711267777"><ele>428.0</ele><time>2026-04-25T07:22:35Z</time></trkpt><trkpt lat="39.53836122009629" lon="9.201822422472105"><ele>428.0</ele><time>2026-04-25T07:22:36Z</time></trkpt><trkpt lat="39.53830800704906" lon="9.201688201407325"><ele>428.0</ele><time>2026-04-25T07:22:37Z</time></trkpt><trkpt lat="39.53826801892523" lon="9.201547081840033"><ele>427.79999999999995</ele><time>2026-04-25T07:22:38Z</time></trkpt><trkpt lat="39.53824267351661" lon="9.201418510081561"><ele>427.59999999999997</ele><time>2026-04-25T07:22:39Z</time></trkpt><trkpt lat="39.53822636990988" lon="9.201317790121372"><ele>427.40000000000003</ele><time>2026-04-25T07:22:40Z</time></trkpt><trkpt lat="39.53821517253349" lon="9.201234495771482"><ele>427.20000000000005</ele><time>2026-04-25T07:22:41Z</time></trkpt><trkpt lat="39.53819774790856" lon="9.201093636532486"><ele>427.0</ele><time>2026-04-25T07:22:43Z</time></trkpt><trkpt lat="39.53817511461959" lon="9.20094768025911"><ele>427.00000000000006</ele><time>2026-04-25T07:22:45Z</time></trkpt><trkpt lat="39.53816019972755" lon="9.200866979729893"><ele>427.0</ele><time>2026-04-25T07:22:46Z</time></trkpt><trkpt lat="39.5381431949437" lon="9.200768250655063"><ele>427.0</ele><time>2026-04-25T07:22:47Z</time></trkpt><trkpt lat="39.538122882333255" lon="9.200660773239886"><ele>427.0</ele><time>2026-04-25T07:22:48Z</time></trkpt><trkpt lat="39.53809304601472" lon="9.200552855404059"><ele>427.00000000000006</ele><time>2026-04-25T07:22:49Z</time></trkpt><trkpt lat="39.53806561338408" lon="9.200434894078471"><ele>427.0</ele><time>2026-04-25T07:22:50Z</time></trkpt><trkpt lat="39.53803235978944" lon="9.200320923802455"><ele>426.6666666666667</ele><time>2026-04-25T07:22:51Z</time></trkpt><trkpt lat="39.5379903238989" lon="9.200215767073008"><ele>426.33333333333337</ele><time>2026-04-25T07:22:52Z</time></trkpt><trkpt lat="39.53794813247588" lon="9.200115715113393"><ele>426.0</ele><time>2026-04-25T07:22:53Z</time></trkpt><trkpt lat="39.5379079195264" lon="9.20001774291693"><ele>425.66666666666663</ele><time>2026-04-25T07:22:54Z</time></trkpt><trkpt lat="39.53786737106431" lon="9.199920252210651"><ele>425.3333333333333</ele><time>2026-04-25T07:22:55Z</time></trkpt><trkpt lat="39.53783412644533" lon="9.199820386126193"><ele>425.0</ele><time>2026-04-25T07:22:56Z</time></trkpt><trkpt lat="39.53780316526512" lon="9.199714311388973"><ele>423.16666666666663</ele><time>2026-04-25T07:22:57Z</time></trkpt><trkpt lat="39.537773331695064" lon="9.199605333966746"><ele>421.3333333333333</ele><time>2026-04-25T07:22:58Z</time></trkpt><trkpt lat="39.53774865100979" lon="9.199499233866186"><ele>419.5</ele><time>2026-04-25T07:22:59Z</time></trkpt><trkpt lat="39.53772974199737" lon="9.1993878045447"><ele>417.66666666666663</ele><time>2026-04-25T07:23:00Z</time></trkpt><trkpt lat="39.53771890039134" lon="9.199272713811816"><ele>415.8333333333333</ele><time>2026-04-25T07:23:01Z</time></trkpt><trkpt lat="39.5377192315991" lon="9.19915766606548"><ele>414.0</ele><time>2026-04-25T07:23:02Z</time></trkpt><trkpt lat="39.53775502501663" lon="9.199050296395967"><ele>413.6</ele><time>2026-04-25T07:23:03Z</time></trkpt><trkpt lat="39.537802591481636" lon="9.198948669358053"><ele>413.2</ele><time>2026-04-25T07:23:04Z</time></trkpt><trkpt lat="39.537850441709395" lon="9.198834775304848"><ele>412.8</ele><time>2026-04-25T07:23:05Z</time></trkpt><trkpt lat="39.53789651438258" lon="9.198725112118751"><ele>412.40000000000003</ele><time>2026-04-25T07:23:06Z</time></trkpt><trkpt lat="39.53794086964866" lon="9.198619537301175"><ele>412.0</ele><time>2026-04-25T07:23:07Z</time></trkpt><trkpt lat="39.537984114750536" lon="9.198515263182982"><ele>412.00000000000006</ele><time>2026-04-25T07:23:08Z</time></trkpt><trkpt lat="39.53801455107085" lon="9.198406617571278"><ele>412.0</ele><time>2026-04-25T07:23:09Z</time></trkpt><trkpt lat="39.538054296054476" lon="9.198305489081273"><ele>412.0</ele><time>2026-04-25T07:23:10Z</time></trkpt><trkpt lat="39.5380884596913" lon="9.198207713599446"><ele>412.0</ele><time>2026-04-25T07:23:11Z</time></trkpt><trkpt lat="39.5381283070776" lon="9.198119700421488"><ele>412.00000000000006</ele><time>2026-04-25T07:23:12Z</time></trkpt><trkpt lat="39.53814782559421" lon="9.198025618057997"><ele>412.0</ele><time>2026-04-25T07:23:13Z</time></trkpt><trkpt lat="39.538125966022484" lon="9.197876269178026"><ele>411.33333333333337</ele><time>2026-04-25T07:23:15Z</time></trkpt><trkpt lat="39.538169718376395" lon="9.19774372462495"><ele>410.6666666666667</ele><time>2026-04-25T07:23:17Z</time></trkpt><trkpt lat="39.53821733477709" lon="9.197686230641455"><ele>410.0</ele><time>2026-04-25T07:23:18Z</time></trkpt><trkpt lat="39.5382729316457" lon="9.197627052724258"><ele>409.33333333333337</ele><time>2026-04-25T07:23:19Z</time></trkpt><trkpt lat="39.538322458829775" lon="9.197559476953405"><ele>408.6666666666667</ele><time>2026-04-25T07:23:20Z</time></trkpt><trkpt lat="39.53839129914592" lon="9.197510958046836"><ele>408.0</ele><time>2026-04-25T07:23:21Z</time></trkpt><trkpt lat="39.53846088611696" lon="9.19748059292431"><ele>408.0</ele><time>2026-04-25T07:23:22Z</time></trkpt><trkpt lat="39.538527784753214" lon="9.197447982023215"><ele>408.0</ele><time>2026-04-25T07:23:23Z</time></trkpt><trkpt lat="39.53860838207849" lon="9.197407408139087"><ele>408.0</ele><time>2026-04-25T07:23:24Z</time></trkpt><trkpt lat="39.538658873818534" lon="9.197338938551024"><ele>408.0</ele><time>2026-04-25T07:23:25Z</time></trkpt><trkpt lat="39.538734530529425" lon="9.197250470045473"><ele>408.0</ele><time>2026-04-25T07:23:26Z</time></trkpt><trkpt lat="39.53882163081741" lon="9.197123222043897"><ele>407.6666666666667</ele><time>2026-04-25T07:23:28Z</time></trkpt><trkpt lat="39.53888864980926" lon="9.197038993299367"><ele>407.33333333333337</ele><time>2026-04-25T07:23:29Z</time></trkpt><trkpt lat="39.53895223970626" lon="9.196980999354876"><ele>407.0</ele><time>2026-04-25T07:23:30Z</time></trkpt><trkpt lat="39.539013728253906" lon="9.196904471286468"><ele>406.6666666666667</ele><time>2026-04-25T07:23:31Z</time></trkpt><trkpt lat="39.53908028913356" lon="9.196832547806933"><ele>406.33333333333337</ele><time>2026-04-25T07:23:32Z</time></trkpt><trkpt lat="39.539146821963776" lon="9.196765354173202"><ele>406.0</ele><time>2026-04-25T07:23:33Z</time></trkpt><trkpt lat="39.539210222124446" lon="9.196697130746028"><ele>406.00000000000006</ele><time>2026-04-25T07:23:34Z</time></trkpt><trkpt lat="39.539274294749546" lon="9.196630116411725"><ele>406.0</ele><time>2026-04-25T07:23:35Z</time></trkpt><trkpt lat="39.53933977625111" lon="9.196565414080721"><ele>406.0</ele><time>2026-04-25T07:23:36Z</time></trkpt><trkpt lat="39.539408282472564" lon="9.19649107144843"><ele>406.0</ele><time>2026-04-25T07:23:37Z</time></trkpt><trkpt lat="39.539485602943955" lon="9.196427116251144"><ele>406.00000000000006</ele><time>2026-04-25T07:23:38Z</time></trkpt><trkpt lat="39.53955853746711" lon="9.196358859288946"><ele>406.0</ele><time>2026-04-25T07:23:39Z</time></trkpt><trkpt lat="39.539629384243575" lon="9.196289620163517"><ele>404.8</ele><time>2026-04-25T07:23:40Z</time></trkpt><trkpt lat="39.53970570873148" lon="9.196221564141876"><ele>403.6</ele><time>2026-04-25T07:23:41Z</time></trkpt><trkpt lat="39.53977515486723" lon="9.196151957948935"><ele>402.4</ele><time>2026-04-25T07:23:42Z</time></trkpt><trkpt lat="39.53984506094937" lon="9.196075039828624"><ele>401.2</ele><time>2026-04-25T07:23:43Z</time></trkpt><trkpt lat="39.53991455036705" lon="9.195993974421134"><ele>400.0</ele><time>2026-04-25T07:23:44Z</time></trkpt><trkpt lat="39.53998484930536" lon="9.195912721402994"><ele>400.0</ele><time>2026-04-25T07:23:45Z</time></trkpt><trkpt lat="39.54005135239859" lon="9.195830948249025"><ele>400.0</ele><time>2026-04-25T07:23:46Z</time></trkpt><trkpt lat="39.54011734552655" lon="9.195750160431974"><ele>400.0</ele><time>2026-04-25T07:23:47Z</time></trkpt><trkpt lat="39.54018460762622" lon="9.195668333413286"><ele>400.0</ele><time>2026-04-25T07:23:48Z</time></trkpt><trkpt lat="39.54024699397437" lon="9.195577651954963"><ele>400.0</ele><time>2026-04-25T07:23:49Z</time></trkpt><trkpt lat="39.54031505427299" lon="9.195490942993844"><ele>399.2</ele><time>2026-04-25T07:23:50Z</time></trkpt><trkpt lat="39.54038481672777" lon="9.195407804206447"><ele>398.4</ele><time>2026-04-25T07:23:51Z</time></trkpt><trkpt lat="39.540460684588126" lon="9.195323526223468"><ele>397.6</ele><time>2026-04-25T07:23:52Z</time></trkpt><trkpt lat="39.540538540171326" lon="9.195242887272329"><ele>396.8</ele><time>2026-04-25T07:23:53Z</time></trkpt><trkpt lat="39.54061727189302" lon="9.19516650586732"><ele>396.0</ele><time>2026-04-25T07:23:54Z</time></trkpt><trkpt lat="39.54070108880414" lon="9.195099105106069"><ele>396.0</ele><time>2026-04-25T07:23:55Z</time></trkpt><trkpt lat="39.540782485968364" lon="9.195050099112272"><ele>396.0</ele><time>2026-04-25T07:23:56Z</time></trkpt><trkpt lat="39.54086112020779" lon="9.195028759602524"><ele>396.0</ele><time>2026-04-25T07:23:57Z</time></trkpt><trkpt lat="39.540931269475735" lon="9.195034650658306"><ele>396.0</ele><time>2026-04-25T07:23:58Z</time></trkpt><trkpt lat="39.5409944358833" lon="9.195057214460615"><ele>396.0</ele><time>2026-04-25T07:23:59Z</time></trkpt><trkpt lat="39.54112689301514" lon="9.194996976498924"><ele>396.0</ele><time>2026-04-25T07:24:01Z</time></trkpt><trkpt lat="39.541204059906576" lon="9.194923039075256"><ele>397.4</ele><time>2026-04-25T07:24:02Z</time></trkpt><trkpt lat="39.541283914665705" lon="9.194859964007739"><ele>398.8</ele><time>2026-04-25T07:24:03Z</time></trkpt><trkpt lat="39.5413702999856" lon="9.194809253575883"><ele>400.2</ele><time>2026-04-25T07:24:04Z</time></trkpt><trkpt lat="39.541463401438136" lon="9.194777541733345"><ele>401.59999999999997</ele><time>2026-04-25T07:24:05Z</time></trkpt><trkpt lat="39.54154156949717" lon="9.19473192209565"><ele>403.0</ele><time>2026-04-25T07:24:06Z</time></trkpt><trkpt lat="39.541641648061514" lon="9.194661709839396"><ele>399.75</ele><time>2026-04-25T07:24:07Z</time></trkpt><trkpt lat="39.54174984159783" lon="9.194576433686848"><ele>396.5</ele><time>2026-04-25T07:24:08Z</time></trkpt><trkpt lat="39.54185163734923" lon="9.194504183733416"><ele>393.25</ele><time>2026-04-25T07:24:09Z</time></trkpt><trkpt lat="39.54195159867498" lon="9.194430741853735"><ele>390.0</ele><time>2026-04-25T07:24:10Z</time></trkpt><trkpt lat="39.54205197703445" lon="9.194359851716973"><ele>390.0</ele><time>2026-04-25T07:24:11Z</time></trkpt><trkpt lat="39.542150402240715" lon="9.194289329172276"><ele>390.0</ele><time>2026-04-25T07:24:12Z</time></trkpt><trkpt lat="39.54224560727908" lon="9.194214459070784"><ele>390.0</ele><time>2026-04-25T07:24:13Z</time></trkpt><trkpt lat="39.5423297401305" lon="9.194123779098677"><ele>390.0</ele><time>2026-04-25T07:24:14Z</time></trkpt><trkpt lat="39.54239296412828" lon="9.194002906521291"><ele>390.0</ele><time>2026-04-25T07:24:15Z</time></trkpt><trkpt lat="39.54243330231682" lon="9.193860196861646"><ele>389.75</ele><time>2026-04-25T07:24:16Z</time></trkpt><trkpt lat="39.54245814320107" lon="9.193708099736185"><ele>389.5</ele><time>2026-04-25T07:24:17Z</time></trkpt><trkpt lat="39.5424757985789" lon="9.193557283712634"><ele>389.25</ele><time>2026-04-25T07:24:18Z</time></trkpt><trkpt lat="39.54249424313405" lon="9.193407996768673"><ele>389.0</ele><time>2026-04-25T07:24:19Z</time></trkpt><trkpt lat="39.54251253416225" lon="9.193260714276983"><ele>389.0</ele><time>2026-04-25T07:24:20Z</time></trkpt><trkpt lat="39.54253252812607" lon="9.19311656017388"><ele>389.0</ele><time>2026-04-25T07:24:21Z</time></trkpt><trkpt lat="39.542535963324546" lon="9.19298651869727"><ele>389.0</ele><time>2026-04-25T07:24:22Z</time></trkpt><trkpt lat="39.542499616957954" lon="9.19283808641548"><ele>389.0</ele><time>2026-04-25T07:24:23Z</time></trkpt><trkpt lat="39.54241858216518" lon="9.192728104003349"><ele>389.0</ele><time>2026-04-25T07:24:24Z</time></trkpt><trkpt lat="39.54232204264502" lon="9.19262992262292"><ele>389.0</ele><time>2026-04-25T07:24:25Z</time></trkpt><trkpt lat="39.54222821903002" lon="9.192541981632765"><ele>389.0</ele><time>2026-04-25T07:24:26Z</time></trkpt><trkpt lat="39.54215283351926" lon="9.192438733265822"><ele>389.0</ele><time>2026-04-25T07:24:27Z</time></trkpt><trkpt lat="39.54210659199473" lon="9.192323721017004"><ele>389.0</ele><time>2026-04-25T07:24:28Z</time></trkpt><trkpt lat="39.54212107260941" lon="9.1922147550835"><ele>388.2</ele><time>2026-04-25T07:24:29Z</time></trkpt><trkpt lat="39.54218265555416" lon="9.19213063400117"><ele>387.4</ele><time>2026-04-25T07:24:30Z</time></trkpt><trkpt lat="39.54227723463905" lon="9.192084711242188"><ele>386.6</ele><time>2026-04-25T07:24:31Z</time></trkpt><trkpt lat="39.542387296434825" lon="9.192096956013282"><ele>385.8</ele><time>2026-04-25T07:24:32Z</time></trkpt><trkpt lat="39.54248395660402" lon="9.192058601271986"><ele>385.0</ele><time>2026-04-25T07:24:33Z</time></trkpt><trkpt lat="39.542587361937024" lon="9.19203077630471"><ele>385.0</ele><time>2026-04-25T07:24:34Z</time></trkpt><trkpt lat="39.54269168339549" lon="9.192005631624395"><ele>385.0</ele><time>2026-04-25T07:24:35Z</time></trkpt><trkpt lat="39.54280100781243" lon="9.191976633332015"><ele>385.0</ele><time>2026-04-25T07:24:36Z</time></trkpt><trkpt lat="39.54291264574001" lon="9.19194635162536"><ele>385.0</ele><time>2026-04-25T07:24:37Z</time></trkpt><trkpt lat="39.54301446555202" lon="9.191913371584643"><ele>385.0</ele><time>2026-04-25T07:24:38Z</time></trkpt><trkpt lat="39.54310039013942" lon="9.191852181947612"><ele>387.8</ele><time>2026-04-25T07:24:39Z</time></trkpt><trkpt lat="39.543140719824784" lon="9.191737888838885"><ele>390.6</ele><time>2026-04-25T07:24:40Z</time></trkpt><trkpt lat="39.543145285934955" lon="9.191608649286552"><ele>393.4</ele><time>2026-04-25T07:24:41Z</time></trkpt><trkpt lat="39.5430939772554" lon="9.191479911698394"><ele>396.2</ele><time>2026-04-25T07:24:42Z</time></trkpt><trkpt lat="39.54303247529943" lon="9.191361903126744"><ele>399.0</ele><time>2026-04-25T07:24:43Z</time></trkpt><trkpt lat="39.54296149500903" lon="9.191255166744371"><ele>399.2</ele><time>2026-04-25T07:24:44Z</time></trkpt><trkpt lat="39.542889112167174" lon="9.191152616509562"><ele>399.4</ele><time>2026-04-25T07:24:45Z</time></trkpt><trkpt lat="39.54280757800257" lon="9.191060603637196"><ele>399.6</ele><time>2026-04-25T07:24:46Z</time></trkpt><trkpt lat="39.54272373968522" lon="9.190970844294348"><ele>399.8</ele><time>2026-04-25T07:24:47Z</time></trkpt><trkpt lat="39.54264499231716" lon="9.19088113008868"><ele>400.0</ele><time>2026-04-25T07:24:48Z</time></trkpt><trkpt lat="39.54257729791001" lon="9.190784418102924"><ele>397.2</ele><time>2026-04-25T07:24:49Z</time></trkpt><trkpt lat="39.54252192437119" lon="9.19067508715825"><ele>394.4</ele><time>2026-04-25T07:24:50Z</time></trkpt><trkpt lat="39.54252271357226" lon="9.190543560924592"><ele>391.6</ele><time>2026-04-25T07:24:51Z</time></trkpt><trkpt lat="39.54252474695704" lon="9.190413619435638"><ele>388.8</ele><time>2026-04-25T07:24:52Z</time></trkpt><trkpt lat="39.542521959652305" lon="9.190275471132534"><ele>386.0</ele><time>2026-04-25T07:24:53Z</time></trkpt><trkpt lat="39.54253731189747" lon="9.190132519960715"><ele>386.0</ele><time>2026-04-25T07:24:54Z</time></trkpt><trkpt lat="39.54254812984714" lon="9.189985548625994"><ele>386.0</ele><time>2026-04-25T07:24:55Z</time></trkpt><trkpt lat="39.54255728225093" lon="9.189836666611077"><ele>386.0</ele><time>2026-04-25T07:24:56Z</time></trkpt><trkpt lat="39.54256797497429" lon="9.189686677826566"><ele>386.0</ele><time>2026-04-25T07:24:57Z</time></trkpt><trkpt lat="39.54258296293524" lon="9.189541130383223"><ele>385.0</ele><time>2026-04-25T07:24:58Z</time></trkpt><trkpt lat="39.54259404317365" lon="9.189396889091032"><ele>384.0</ele><time>2026-04-25T07:24:59Z</time></trkpt><trkpt lat="39.5426023570959" lon="9.189253461963585"><ele>383.0</ele><time>2026-04-25T07:25:00Z</time></trkpt><trkpt lat="39.5426130249807" lon="9.18911089378596"><ele>382.0</ele><time>2026-04-25T07:25:01Z</time></trkpt><trkpt lat="39.542623115822906" lon="9.188966524095031"><ele>381.0</ele><time>2026-04-25T07:25:02Z</time></trkpt><trkpt lat="39.54263305959571" lon="9.188821779726604"><ele>380.6</ele><time>2026-04-25T07:25:03Z</time></trkpt><trkpt lat="39.542644681689474" lon="9.188677785756365"><ele>380.20000000000005</ele><time>2026-04-25T07:25:04Z</time></trkpt><trkpt lat="39.54265669009917" lon="9.188534780327192"><ele>379.79999999999995</ele><time>2026-04-25T07:25:05Z</time></trkpt><trkpt lat="39.542667120180475" lon="9.188390162290814"><ele>379.4</ele><time>2026-04-25T07:25:06Z</time></trkpt><trkpt lat="39.54267787321722" lon="9.188244629346071"><ele>379.0</ele><time>2026-04-25T07:25:07Z</time></trkpt><trkpt lat="39.54268961608294" lon="9.188096144653121"><ele>378.5</ele><time>2026-04-25T07:25:08Z</time></trkpt><trkpt lat="39.54269918976131" lon="9.187947201857995"><ele>378.0</ele><time>2026-04-25T07:25:09Z</time></trkpt><trkpt lat="39.542708275540924" lon="9.187794671479747"><ele>377.5</ele><time>2026-04-25T07:25:10Z</time></trkpt><trkpt lat="39.542717412254355" lon="9.187641848421562"><ele>377.0</ele><time>2026-04-25T07:25:11Z</time></trkpt><trkpt lat="39.54272822553343" lon="9.187486010096416"><ele>376.25</ele><time>2026-04-25T07:25:12Z</time></trkpt><trkpt lat="39.542740513377886" lon="9.187331132737109"><ele>375.5</ele><time>2026-04-25T07:25:13Z</time></trkpt><trkpt lat="39.54275157476138" lon="9.187175144107679"><ele>374.75</ele><time>2026-04-25T07:25:14Z</time></trkpt><trkpt lat="39.5427625643055" lon="9.187020167440615"><ele>374.0</ele><time>2026-04-25T07:25:15Z</time></trkpt><trkpt lat="39.542771441014416" lon="9.186865038752138"><ele>374.0</ele><time>2026-04-25T07:25:16Z</time></trkpt><trkpt lat="39.5427841187149" lon="9.18671365400955"><ele>374.0</ele><time>2026-04-25T07:25:17Z</time></trkpt><trkpt lat="39.54279098548795" lon="9.186559313611296"><ele>374.0</ele><time>2026-04-25T07:25:18Z</time></trkpt><trkpt lat="39.54278142020593" lon="9.186407320824983"><ele>374.0</ele><time>2026-04-25T07:25:19Z</time></trkpt><trkpt lat="39.542762798347894" lon="9.186256210418543"><ele>373.0</ele><time>2026-04-25T07:25:20Z</time></trkpt><trkpt lat="39.542736723432995" lon="9.186112845396778"><ele>372.0</ele><time>2026-04-25T07:25:21Z</time></trkpt><trkpt lat="39.54270955472553" lon="9.185964731306166"><ele>371.0</ele><time>2026-04-25T07:25:22Z</time></trkpt><trkpt lat="39.54267774175633" lon="9.185819585004657"><ele>370.0</ele><time>2026-04-25T07:25:23Z</time></trkpt><trkpt lat="39.542647694051205" lon="9.185676149025468"><ele>368.0</ele><time>2026-04-25T07:25:24Z</time></trkpt><trkpt lat="39.542619571481964" lon="9.185533193317568"><ele>366.0</ele><time>2026-04-25T07:25:25Z</time></trkpt><trkpt lat="39.542593019790566" lon="9.185389265820112"><ele>364.0</ele><time>2026-04-25T07:25:26Z</time></trkpt><trkpt lat="39.54256500646299" lon="9.185248953918856"><ele>362.0</ele><time>2026-04-25T07:25:27Z</time></trkpt><trkpt lat="39.54253657543486" lon="9.185105133852694"><ele>362.0</ele><time>2026-04-25T07:25:28Z</time></trkpt><trkpt lat="39.542508957184204" lon="9.184959190147074"><ele>362.0</ele><time>2026-04-25T07:25:29Z</time></trkpt><trkpt lat="39.542485815080674" lon="9.18480978846626"><ele>362.0</ele><time>2026-04-25T07:25:30Z</time></trkpt><trkpt lat="39.542467315417994" lon="9.184655192671524"><ele>362.0</ele><time>2026-04-25T07:25:31Z</time></trkpt><trkpt lat="39.54245805072314" lon="9.184499617522354"><ele>360.75</ele><time>2026-04-25T07:25:32Z</time></trkpt><trkpt lat="39.54244681180095" lon="9.18433920703705"><ele>359.5</ele><time>2026-04-25T07:25:33Z</time></trkpt><trkpt lat="39.54243532110675" lon="9.184180881066855"><ele>358.25</ele><time>2026-04-25T07:25:34Z</time></trkpt><trkpt lat="39.54242413657431" lon="9.184020257272413"><ele>357.0</ele><time>2026-04-25T07:25:35Z</time></trkpt><trkpt lat="39.542413736871865" lon="9.18385887655576"><ele>357.0</ele><time>2026-04-25T07:25:36Z</time></trkpt><trkpt lat="39.54240312208743" lon="9.18369743331782"><ele>357.0</ele><time>2026-04-25T07:25:37Z</time></trkpt><trkpt lat="39.54239261258051" lon="9.183535642261244"><ele>357.0</ele><time>2026-04-25T07:25:38Z</time></trkpt><trkpt lat="39.54238171999898" lon="9.183375296688334"><ele>357.0</ele><time>2026-04-25T07:25:39Z</time></trkpt><trkpt lat="39.542367151168904" lon="9.183217200329326"><ele>357.0</ele><time>2026-04-25T07:25:40Z</time></trkpt><trkpt lat="39.54234497963103" lon="9.183061439618694"><ele>357.0</ele><time>2026-04-25T07:25:41Z</time></trkpt><trkpt lat="39.542311309333975" lon="9.18290947477124"><ele>357.0</ele><time>2026-04-25T07:25:42Z</time></trkpt><trkpt lat="39.5422678533444" lon="9.182758059866005"><ele>357.0</ele><time>2026-04-25T07:25:43Z</time></trkpt><trkpt lat="39.54222276180216" lon="9.182607743810914"><ele>357.0</ele><time>2026-04-25T07:25:44Z</time></trkpt><trkpt lat="39.54217625088464" lon="9.18245681597983"><ele>357.0</ele><time>2026-04-25T07:25:45Z</time></trkpt><trkpt lat="39.542131072270735" lon="9.182301588223298"><ele>357.0</ele><time>2026-04-25T07:25:46Z</time></trkpt><trkpt lat="39.542091987862925" lon="9.182142180199866"><ele>357.0</ele><time>2026-04-25T07:25:47Z</time></trkpt><trkpt lat="39.54206321963337" lon="9.181981462535338"><ele>354.5</ele><time>2026-04-25T07:25:48Z</time></trkpt><trkpt lat="39.542041809285074" lon="9.181815184138511"><ele>352.0</ele><time>2026-04-25T07:25:49Z</time></trkpt><trkpt lat="39.542031549905886" lon="9.18164903071742"><ele>349.5</ele><time>2026-04-25T07:25:50Z</time></trkpt><trkpt lat="39.542024329431854" lon="9.181481476371108"><ele>347.0</ele><time>2026-04-25T07:25:51Z</time></trkpt><trkpt lat="39.54201984254348" lon="9.181322282707356"><ele>346.25</ele><time>2026-04-25T07:25:52Z</time></trkpt><trkpt lat="39.542018071282094" lon="9.181164154014594"><ele>345.5</ele><time>2026-04-25T07:25:53Z</time></trkpt><trkpt lat="39.54201353291025" lon="9.181007442307907"><ele>344.75</ele><time>2026-04-25T07:25:54Z</time></trkpt><trkpt lat="39.54200809428341" lon="9.180850721278846"><ele>344.0</ele><time>2026-04-25T07:25:55Z</time></trkpt><trkpt lat="39.54200757447439" lon="9.180692328946648"><ele>343.25</ele><time>2026-04-25T07:25:56Z</time></trkpt><trkpt lat="39.54201642923064" lon="9.180529629229483"><ele>342.5</ele><time>2026-04-25T07:25:57Z</time></trkpt><trkpt lat="39.542040569673134" lon="9.180365951637166"><ele>341.75</ele><time>2026-04-25T07:25:58Z</time></trkpt><trkpt lat="39.54207683975705" lon="9.18020420984546"><ele>341.0</ele><time>2026-04-25T07:25:59Z</time></trkpt><trkpt lat="39.54212062777694" lon="9.180045349854387"><ele>341.0</ele><time>2026-04-25T07:26:00Z</time></trkpt><trkpt lat="39.5421685401002" lon="9.179884187201319"><ele>341.0</ele><time>2026-04-25T07:26:01Z</time></trkpt><trkpt lat="39.54222578062977" lon="9.179730389420504"><ele>341.0</ele><time>2026-04-25T07:26:02Z</time></trkpt><trkpt lat="39.542294424433" lon="9.179583398751072"><ele>341.0</ele><time>2026-04-25T07:26:03Z</time></trkpt><trkpt lat="39.54236486906133" lon="9.179436663626552"><ele>337.5</ele><time>2026-04-25T07:26:04Z</time></trkpt><trkpt lat="39.54243307811968" lon="9.179289697847194"><ele>334.0</ele><time>2026-04-25T07:26:05Z</time></trkpt><trkpt lat="39.542493427226" lon="9.179132764639462"><ele>330.5</ele><time>2026-04-25T07:26:06Z</time></trkpt><trkpt lat="39.54254001149494" lon="9.178971374694164"><ele>327.0</ele><time>2026-04-25T07:26:07Z</time></trkpt><trkpt lat="39.542551568487205" lon="9.178791054900117"><ele>324.75</ele><time>2026-04-25T07:26:08Z</time></trkpt><trkpt lat="39.5425436574142" lon="9.178609544614586"><ele>322.5</ele><time>2026-04-25T07:26:09Z</time></trkpt><trkpt lat="39.54253042761535" lon="9.17842896021828"><ele>320.25</ele><time>2026-04-25T07:26:10Z</time></trkpt><trkpt lat="39.542517025320265" lon="9.178247729415212"><ele>318.0</ele><time>2026-04-25T07:26:11Z</time></trkpt><trkpt lat="39.5425031823192" lon="9.178064980204713"><ele>316.75</ele><time>2026-04-25T07:26:12Z</time></trkpt><trkpt lat="39.542489075205886" lon="9.177882199422568"><ele>315.5</ele><time>2026-04-25T07:26:13Z</time></trkpt><trkpt lat="39.542475763719885" lon="9.17769846199953"><ele>314.25</ele><time>2026-04-25T07:26:14Z</time></trkpt><trkpt lat="39.54246369538475" lon="9.177516453201381"><ele>313.0</ele><time>2026-04-25T07:26:15Z</time></trkpt><trkpt lat="39.54244709933395" lon="9.17733346474979"><ele>313.0</ele><time>2026-04-25T07:26:16Z</time></trkpt><trkpt lat="39.54240591288958" lon="9.177160838279876"><ele>313.0</ele><time>2026-04-25T07:26:17Z</time></trkpt><trkpt lat="39.542340737876586" lon="9.17700106524358"><ele>313.0</ele><time>2026-04-25T07:26:18Z</time></trkpt><trkpt lat="39.54225445022822" lon="9.176861120630976"><ele>313.0</ele><time>2026-04-25T07:26:19Z</time></trkpt><trkpt lat="39.54215347590277" lon="9.17673710314362"><ele>313.0</ele><time>2026-04-25T07:26:20Z</time></trkpt><trkpt lat="39.54204846640083" lon="9.176623537077113"><ele>313.0</ele><time>2026-04-25T07:26:21Z</time></trkpt><trkpt lat="39.54194483166865" lon="9.176513351765378"><ele>313.0</ele><time>2026-04-25T07:26:22Z</time></trkpt><trkpt lat="39.54185995111632" lon="9.176391109060766"><ele>313.0</ele><time>2026-04-25T07:26:23Z</time></trkpt><trkpt lat="39.54181656956138" lon="9.1762462931762"><ele>309.5</ele><time>2026-04-25T07:26:24Z</time></trkpt><trkpt lat="39.541821759413374" lon="9.17607973615175"><ele>306.0</ele><time>2026-04-25T07:26:25Z</time></trkpt><trkpt lat="39.54187271990501" lon="9.175919995197432"><ele>302.5</ele><time>2026-04-25T07:26:26Z</time></trkpt><trkpt lat="39.54194436687897" lon="9.175762248590747"><ele>299.0</ele><time>2026-04-25T07:26:27Z</time></trkpt><trkpt lat="39.54200542364327" lon="9.175596184150784"><ele>299.0</ele><time>2026-04-25T07:26:28Z</time></trkpt><trkpt lat="39.54206863502669" lon="9.175424436973161"><ele>299.0</ele><time>2026-04-25T07:26:29Z</time></trkpt><trkpt lat="39.54213683136386" lon="9.175254545883128"><ele>299.0</ele><time>2026-04-25T07:26:30Z</time></trkpt><trkpt lat="39.54220397096867" lon="9.175085970591764"><ele>299.0</ele><time>2026-04-25T07:26:31Z</time></trkpt><trkpt lat="39.542270781816605" lon="9.174920123171804"><ele>297.0</ele><time>2026-04-25T07:26:32Z</time></trkpt><trkpt lat="39.54233808180847" lon="9.174753681512321"><ele>295.0</ele><time>2026-04-25T07:26:33Z</time></trkpt><trkpt lat="39.54240566931666" lon="9.174587179609434"><ele>293.0</ele><time>2026-04-25T07:26:34Z</time></trkpt><trkpt lat="39.54247168867499" lon="9.174419153952769"><ele>291.0</ele><time>2026-04-25T07:26:35Z</time></trkpt><trkpt lat="39.54254368826156" lon="9.174255596842803"><ele>291.0</ele><time>2026-04-25T07:26:36Z</time></trkpt><trkpt lat="39.54263576606397" lon="9.174112792698145"><ele>291.0</ele><time>2026-04-25T07:26:37Z</time></trkpt><trkpt lat="39.542755718148484" lon="9.17400809009463"><ele>291.0</ele><time>2026-04-25T07:26:38Z</time></trkpt><trkpt lat="39.54288630174621" lon="9.173938487606152"><ele>291.0</ele><time>2026-04-25T07:26:39Z</time></trkpt><trkpt lat="39.54300362288913" lon="9.173862342676422"><ele>290.0</ele><time>2026-04-25T07:26:40Z</time></trkpt><trkpt lat="39.543107995643624" lon="9.17375535671593"><ele>289.0</ele><time>2026-04-25T07:26:41Z</time></trkpt><trkpt lat="39.543177155358975" lon="9.173610056461243"><ele>288.0</ele><time>2026-04-25T07:26:42Z</time></trkpt><trkpt lat="39.54319207087241" lon="9.173438470535256"><ele>287.0</ele><time>2026-04-25T07:26:43Z</time></trkpt><trkpt lat="39.54316651515633" lon="9.173256258574355"><ele>286.5</ele><time>2026-04-25T07:26:44Z</time></trkpt><trkpt lat="39.54316951281274" lon="9.17306652107781"><ele>286.0</ele><time>2026-04-25T07:26:45Z</time></trkpt><trkpt lat="39.543151780225415" lon="9.172880783973795"><ele>285.5</ele><time>2026-04-25T07:26:46Z</time></trkpt><trkpt lat="39.54314613295335" lon="9.172689507069787"><ele>285.0</ele><time>2026-04-25T07:26:47Z</time></trkpt><trkpt lat="39.54314000509567" lon="9.172500423081992"><ele>286.0</ele><time>2026-04-25T07:26:48Z</time></trkpt><trkpt lat="39.54310506941594" lon="9.172315664864378"><ele>287.0</ele><time>2026-04-25T07:26:49Z</time></trkpt><trkpt lat="39.54301879571573" lon="9.172159370774963"><ele>288.0</ele><time>2026-04-25T07:26:50Z</time></trkpt><trkpt lat="39.54290241338623" lon="9.172032652126074"><ele>289.0</ele><time>2026-04-25T07:26:51Z</time></trkpt><trkpt lat="39.54278688875137" lon="9.17190358800291"><ele>288.3333333333333</ele><time>2026-04-25T07:26:52Z</time></trkpt><trkpt lat="39.54267293287143" lon="9.171777623556375"><ele>287.6666666666667</ele><time>2026-04-25T07:26:53Z</time></trkpt><trkpt lat="39.54255822855558" lon="9.171647347641667"><ele>287.0</ele><time>2026-04-25T07:26:54Z</time></trkpt><trkpt lat="39.54244254148122" lon="9.171519161035254"><ele>287.0</ele><time>2026-04-25T07:26:55Z</time></trkpt><trkpt lat="39.54232687862044" lon="9.171391096446486"><ele>287.0</ele><time>2026-04-25T07:26:56Z</time></trkpt><trkpt lat="39.54221303100467" lon="9.171261573187579"><ele>287.0</ele><time>2026-04-25T07:26:57Z</time></trkpt><trkpt lat="39.54209708901814" lon="9.171132521031677"><ele>280.6666666666667</ele><time>2026-04-25T07:26:58Z</time></trkpt><trkpt lat="39.54198166635626" lon="9.171006486185293"><ele>274.3333333333333</ele><time>2026-04-25T07:26:59Z</time></trkpt><trkpt lat="39.541865761602075" lon="9.170878506248192"><ele>268.0</ele><time>2026-04-25T07:27:00Z</time></trkpt><trkpt lat="39.54175148902789" lon="9.170745779332947"><ele>271.66666666666663</ele><time>2026-04-25T07:27:01Z</time></trkpt><trkpt lat="39.54163774211036" lon="9.170614493379778"><ele>275.3333333333333</ele><time>2026-04-25T07:27:02Z</time></trkpt><trkpt lat="39.54152068353962" lon="9.170488039978574"><ele>279.0</ele><time>2026-04-25T07:27:03Z</time></trkpt><trkpt lat="39.541413793356796" lon="9.170345634227536"><ele>279.0</ele><time>2026-04-25T07:27:04Z</time></trkpt><trkpt lat="39.541285006648465" lon="9.170240867444145"><ele>279.0</ele><time>2026-04-25T07:27:05Z</time></trkpt><trkpt lat="39.54115560984177" lon="9.170142273507606"><ele>279.0</ele><time>2026-04-25T07:27:06Z</time></trkpt><trkpt lat="39.54102335669532" lon="9.170054124383242"><ele>276.5</ele><time>2026-04-25T07:27:07Z</time></trkpt><trkpt lat="39.540911842070294" lon="9.169929531136665"><ele>274.0</ele><time>2026-04-25T07:27:08Z</time></trkpt><trkpt lat="39.54083199268105" lon="9.169781908079925"><ele>271.5</ele><time>2026-04-25T07:27:09Z</time></trkpt><trkpt lat="39.540752455858275" lon="9.169614754888583"><ele>269.0</ele><time>2026-04-25T07:27:10Z</time></trkpt><trkpt lat="39.54065297111353" lon="9.169461671729547"><ele>269.0</ele><time>2026-04-25T07:27:11Z</time></trkpt><trkpt lat="39.54054841875324" lon="9.169325650179063"><ele>269.0</ele><time>2026-04-25T07:27:12Z</time></trkpt><trkpt lat="39.54041308679296" lon="9.16923917810143"><ele>269.0</ele><time>2026-04-25T07:27:13Z</time></trkpt><trkpt lat="39.540261406963225" lon="9.169198924004117"><ele>268.25</ele><time>2026-04-25T07:27:14Z</time></trkpt><trkpt lat="39.54010589015423" lon="9.16917445514436"><ele>267.5</ele><time>2026-04-25T07:27:15Z</time></trkpt><trkpt lat="39.539963975315466" lon="9.16912280170092"><ele>266.75</ele><time>2026-04-25T07:27:16Z</time></trkpt><trkpt lat="39.539848631736035" lon="9.169009640893252"><ele>266.0</ele><time>2026-04-25T07:27:17Z</time></trkpt><trkpt lat="39.53974884219585" lon="9.168878170075786"><ele>266.0</ele><time>2026-04-25T07:27:18Z</time></trkpt><trkpt lat="39.53966594993421" lon="9.168717277721523"><ele>266.0</ele><time>2026-04-25T07:27:19Z</time></trkpt><trkpt lat="39.539594579440575" lon="9.168537154301527"><ele>266.0</ele><time>2026-04-25T07:27:20Z</time></trkpt><trkpt lat="39.5395159502829" lon="9.16835854373985"><ele>263.6666666666667</ele><time>2026-04-25T07:27:21Z</time></trkpt><trkpt lat="39.539419478549036" lon="9.168195971844565"><ele>261.3333333333333</ele><time>2026-04-25T07:27:22Z</time></trkpt><trkpt lat="39.53930766982909" lon="9.168046134653851"><ele>259.0</ele><time>2026-04-25T07:27:23Z</time></trkpt><trkpt lat="39.539182744370265" lon="9.167912234439207"><ele>259.0</ele><time>2026-04-25T07:27:24Z</time></trkpt><trkpt lat="39.53906393175148" lon="9.167784077232955"><ele>259.0</ele><time>2026-04-25T07:27:25Z</time></trkpt><trkpt lat="39.53898921538894" lon="9.167601809123767"><ele>259.0</ele><time>2026-04-25T07:27:26Z</time></trkpt><trkpt lat="39.53891102862321" lon="9.167421852164706"><ele>260.66666666666663</ele><time>2026-04-25T07:27:27Z</time></trkpt><trkpt lat="39.5388184374298" lon="9.167249813286716"><ele>262.3333333333333</ele><time>2026-04-25T07:27:28Z</time></trkpt><trkpt lat="39.53874536980977" lon="9.167075981223304"><ele>264.0</ele><time>2026-04-25T07:27:29Z</time></trkpt><trkpt lat="39.53867202692272" lon="9.166907827764613"><ele>261.25</ele><time>2026-04-25T07:27:30Z</time></trkpt><trkpt lat="39.53860154422292" lon="9.166741283261892"><ele>258.5</ele><time>2026-04-25T07:27:31Z</time></trkpt><trkpt lat="39.53853646358454" lon="9.166572369600635"><ele>255.75</ele><time>2026-04-25T07:27:32Z</time></trkpt><trkpt lat="39.5384521831581" lon="9.166410028837946"><ele>253.0</ele><time>2026-04-25T07:27:33Z</time></trkpt><trkpt lat="39.53833913024486" lon="9.166283432438583"><ele>253.0</ele><time>2026-04-25T07:27:34Z</time></trkpt><trkpt lat="39.53822161437164" lon="9.166155440743019"><ele>253.0</ele><time>2026-04-25T07:27:35Z</time></trkpt><trkpt lat="39.53810701846156" lon="9.166024686438192"><ele>253.0</ele><time>2026-04-25T07:27:36Z</time></trkpt><trkpt lat="39.53800149664722" lon="9.165880647318282"><ele>253.0</ele><time>2026-04-25T07:27:37Z</time></trkpt><trkpt lat="39.53791342280741" lon="9.165716443813997"><ele>253.0</ele><time>2026-04-25T07:27:38Z</time></trkpt><trkpt lat="39.53784534075082" lon="9.165528416464268"><ele>253.0</ele><time>2026-04-25T07:27:39Z</time></trkpt><trkpt lat="39.537792748596445" lon="9.16532767521116"><ele>249.66666666666666</ele><time>2026-04-25T07:27:40Z</time></trkpt><trkpt lat="39.53775084407752" lon="9.165118616133745"><ele>246.33333333333331</ele><time>2026-04-25T07:27:41Z</time></trkpt><trkpt lat="39.53771024900331" lon="9.164907024884686"><ele>243.0</ele><time>2026-04-25T07:27:42Z</time></trkpt><trkpt lat="39.5376709353031" lon="9.164692183747178"><ele>243.0</ele><time>2026-04-25T07:27:43Z</time></trkpt><trkpt lat="39.53762945553536" lon="9.164477617290698"><ele>243.0</ele><time>2026-04-25T07:27:44Z</time></trkpt><trkpt lat="39.53758800550445" lon="9.164266605142542"><ele>243.0</ele><time>2026-04-25T07:27:45Z</time></trkpt><trkpt lat="39.53754968869611" lon="9.16405748484989"><ele>242.66666666666669</ele><time>2026-04-25T07:27:46Z</time></trkpt><trkpt lat="39.537510658892856" lon="9.163849107954817"><ele>242.33333333333334</ele><time>2026-04-25T07:27:47Z</time></trkpt><trkpt lat="39.537469190165744" lon="9.163641269545236"><ele>242.0</ele><time>2026-04-25T07:27:48Z</time></trkpt><trkpt lat="39.53742803959667" lon="9.163437777968161"><ele>242.0</ele><time>2026-04-25T07:27:49Z</time></trkpt><trkpt lat="39.53738695579106" lon="9.16322772428307"><ele>242.0</ele><time>2026-04-25T07:27:50Z</time></trkpt><trkpt lat="39.537346271475556" lon="9.163016771558395"><ele>242.0</ele><time>2026-04-25T07:27:51Z</time></trkpt><trkpt lat="39.537305948505505" lon="9.16280400650821"><ele>241.0</ele><time>2026-04-25T07:27:52Z</time></trkpt><trkpt lat="39.537265856389354" lon="9.162591230530031"><ele>240.0</ele><time>2026-04-25T07:27:53Z</time></trkpt><trkpt lat="39.53722458137827" lon="9.162380466383498"><ele>239.0</ele><time>2026-04-25T07:27:54Z</time></trkpt><trkpt lat="39.53718277121722" lon="9.16217149304537"><ele>237.33333333333334</ele><time>2026-04-25T07:27:55Z</time></trkpt><trkpt lat="39.537141427369306" lon="9.161963388076744"><ele>235.66666666666669</ele><time>2026-04-25T07:27:56Z</time></trkpt><trkpt lat="39.53710194147766" lon="9.161754009653984"><ele>234.0</ele><time>2026-04-25T07:27:57Z</time></trkpt><trkpt lat="39.537062842289274" lon="9.161548322912376"><ele>233.0</ele><time>2026-04-25T07:27:58Z</time></trkpt><trkpt lat="39.53701908740726" lon="9.161345330588686"><ele>232.0</ele><time>2026-04-25T07:27:59Z</time></trkpt><trkpt lat="39.536996451283194" lon="9.16113811585595"><ele>231.0</ele><time>2026-04-25T07:28:00Z</time></trkpt><trkpt lat="39.53697016650128" lon="9.160933831899731"><ele>231.0</ele><time>2026-04-25T07:28:01Z</time></trkpt><trkpt lat="39.536964114119066" lon="9.160726323119727"><ele>231.0</ele><time>2026-04-25T07:28:02Z</time></trkpt><trkpt lat="39.53697455086959" lon="9.16051224191629"><ele>231.0</ele><time>2026-04-25T07:28:03Z</time></trkpt><trkpt lat="39.53699562234848" lon="9.160296666987593"><ele>228.66666666666669</ele><time>2026-04-25T07:28:04Z</time></trkpt><trkpt lat="39.5370128296401" lon="9.160092479254686"><ele>226.33333333333334</ele><time>2026-04-25T07:28:05Z</time></trkpt><trkpt lat="39.537014551821656" lon="9.159871232995018"><ele>224.0</ele><time>2026-04-25T07:28:06Z</time></trkpt><trkpt lat="39.537005506756" lon="9.159663731145617"><ele>223.0</ele><time>2026-04-25T07:28:07Z</time></trkpt><trkpt lat="39.53696991898395" lon="9.159455486293314"><ele>222.0</ele><time>2026-04-25T07:28:08Z</time></trkpt><trkpt lat="39.536905746655044" lon="9.159257564082235"><ele>221.0</ele><time>2026-04-25T07:28:09Z</time></trkpt><trkpt lat="39.53683051232276" lon="9.15906807775643"><ele>219.33333333333334</ele><time>2026-04-25T07:28:10Z</time></trkpt><trkpt lat="39.536755034834776" lon="9.158884169492472"><ele>217.66666666666669</ele><time>2026-04-25T07:28:11Z</time></trkpt><trkpt lat="39.536684933631236" lon="9.158699631867757"><ele>216.0</ele><time>2026-04-25T07:28:12Z</time></trkpt><trkpt lat="39.53661827052019" lon="9.158515981132528"><ele>216.0</ele><time>2026-04-25T07:28:13Z</time></trkpt><trkpt lat="39.536554297835806" lon="9.158333720850878"><ele>216.0</ele><time>2026-04-25T07:28:14Z</time></trkpt><trkpt lat="39.53648861010299" lon="9.158155266625094"><ele>216.0</ele><time>2026-04-25T07:28:15Z</time></trkpt><trkpt lat="39.53642276531874" lon="9.157979722654371"><ele>214.5</ele><time>2026-04-25T07:28:16Z</time></trkpt><trkpt lat="39.536357971059424" lon="9.157804611272514"><ele>213.0</ele><time>2026-04-25T07:28:17Z</time></trkpt><trkpt lat="39.536293995055345" lon="9.157630984980289"><ele>211.5</ele><time>2026-04-25T07:28:18Z</time></trkpt><trkpt lat="39.53623053651502" lon="9.157459037763203"><ele>210.0</ele><time>2026-04-25T07:28:19Z</time></trkpt><trkpt lat="39.53616833174887" lon="9.157289060131493"><ele>209.0</ele><time>2026-04-25T07:28:20Z</time></trkpt><trkpt lat="39.5361072540435" lon="9.157121428337202"><ele>208.0</ele><time>2026-04-25T07:28:21Z</time></trkpt><trkpt lat="39.53604518015046" lon="9.15695235273941"><ele>207.0</ele><time>2026-04-25T07:28:22Z</time></trkpt><trkpt lat="39.535997351193345" lon="9.156774318685676"><ele>206.0</ele><time>2026-04-25T07:28:23Z</time></trkpt><trkpt lat="39.53593460068807" lon="9.156603282946342"><ele>205.25</ele><time>2026-04-25T07:28:24Z</time></trkpt><trkpt lat="39.53587211094209" lon="9.156432957950878"><ele>204.5</ele><time>2026-04-25T07:28:25Z</time></trkpt><trkpt lat="39.5357949809498" lon="9.156271607070146"><ele>203.75</ele><time>2026-04-25T07:28:26Z</time></trkpt><trkpt lat="39.53574799810825" lon="9.156093843766643"><ele>203.0</ele><time>2026-04-25T07:28:27Z</time></trkpt><trkpt lat="39.53568748736024" lon="9.155928173818406"><ele>203.0</ele><time>2026-04-25T07:28:28Z</time></trkpt><trkpt lat="39.53562868334658" lon="9.155767176628466"><ele>203.0</ele><time>2026-04-25T07:28:29Z</time></trkpt><trkpt lat="39.53555705075085" lon="9.155618188770244"><ele>203.0</ele><time>2026-04-25T07:28:30Z</time></trkpt><trkpt lat="39.535502960297876" lon="9.155465041769004"><ele>203.0</ele><time>2026-04-25T07:28:31Z</time></trkpt><trkpt lat="39.53544935982661" lon="9.155316024983666"><ele>202.8</ele><time>2026-04-25T07:28:32Z</time></trkpt><trkpt lat="39.53539929446939" lon="9.15517235184214"><ele>202.60000000000002</ele><time>2026-04-25T07:28:33Z</time></trkpt><trkpt lat="39.53535079660728" lon="9.155035128123163"><ele>202.39999999999998</ele><time>2026-04-25T07:28:34Z</time></trkpt><trkpt lat="39.53530302134619" lon="9.154908196132011"><ele>202.2</ele><time>2026-04-25T07:28:35Z</time></trkpt><trkpt lat="39.535254123057086" lon="9.154791615618059"><ele>202.0</ele><time>2026-04-25T07:28:36Z</time></trkpt><trkpt lat="39.53522416821286" lon="9.154672183201065"><ele>202.0</ele><time>2026-04-25T07:28:37Z</time></trkpt><trkpt lat="39.535188398768376" lon="9.154565742068135"><ele>202.0</ele><time>2026-04-25T07:28:38Z</time></trkpt><trkpt lat="39.53515688710159" lon="9.154457984881413"><ele>202.0</ele><time>2026-04-25T07:28:39Z</time></trkpt><trkpt lat="39.5351130446269" lon="9.154345872474803"><ele>202.0</ele><time>2026-04-25T07:28:40Z</time></trkpt><trkpt lat="39.535092757271016" lon="9.154225308235079"><ele>202.0</ele><time>2026-04-25T07:28:41Z</time></trkpt><trkpt lat="39.5350638844196" lon="9.154101906816972"><ele>201.0</ele><time>2026-04-25T07:28:42Z</time></trkpt><trkpt lat="39.535036335790046" lon="9.153983608785147"><ele>200.0</ele><time>2026-04-25T07:28:43Z</time></trkpt><trkpt lat="39.53500929944396" lon="9.15386199453646"><ele>199.0</ele><time>2026-04-25T07:28:44Z</time></trkpt><trkpt lat="39.53498550304919" lon="9.153735150851626"><ele>198.0</ele><time>2026-04-25T07:28:45Z</time></trkpt><trkpt lat="39.53495892521132" lon="9.153610703646663"><ele>197.0</ele><time>2026-04-25T07:28:46Z</time></trkpt><trkpt lat="39.53493613956977" lon="9.153486106166193"><ele>197.0</ele><time>2026-04-25T07:28:47Z</time></trkpt><trkpt lat="39.534923962282186" lon="9.153361636983144"><ele>197.0</ele><time>2026-04-25T07:28:48Z</time></trkpt><trkpt lat="39.53496046796463" lon="9.153239612934106"><ele>197.0</ele><time>2026-04-25T07:28:49Z</time></trkpt><trkpt lat="39.53499991855596" lon="9.153121087004338"><ele>197.0</ele><time>2026-04-25T07:28:50Z</time></trkpt><trkpt lat="39.535029385044595" lon="9.152985959989563"><ele>197.0</ele><time>2026-04-25T07:28:51Z</time></trkpt><trkpt lat="39.53508012037346" lon="9.152854783677657"><ele>196.0</ele><time>2026-04-25T07:28:52Z</time></trkpt><trkpt lat="39.53512398758722" lon="9.152712925222959"><ele>195.0</ele><time>2026-04-25T07:28:53Z</time></trkpt><trkpt lat="39.535169514409766" lon="9.15257066475137"><ele>194.0</ele><time>2026-04-25T07:28:54Z</time></trkpt><trkpt lat="39.535217680709884" lon="9.152429681822335"><ele>193.0</ele><time>2026-04-25T07:28:55Z</time></trkpt><trkpt lat="39.53526786190546" lon="9.152290787686018"><ele>193.0</ele><time>2026-04-25T07:28:56Z</time></trkpt><trkpt lat="39.53531685368208" lon="9.152139062287622"><ele>193.0</ele><time>2026-04-25T07:28:57Z</time></trkpt><trkpt lat="39.53536715038133" lon="9.151986553219325"><ele>193.0</ele><time>2026-04-25T07:28:58Z</time></trkpt><trkpt lat="39.53541242237955" lon="9.151845279347373"><ele>193.0</ele><time>2026-04-25T07:28:59Z</time></trkpt><trkpt lat="39.535454555593475" lon="9.151698633485433"><ele>193.0</ele><time>2026-04-25T07:29:00Z</time></trkpt><trkpt lat="39.5354873524793" lon="9.151544112810763"><ele>193.0</ele><time>2026-04-25T07:29:01Z</time></trkpt><trkpt lat="39.53550478461889" lon="9.151379090432219"><ele>193.0</ele><time>2026-04-25T07:29:02Z</time></trkpt><trkpt lat="39.53550155477372" lon="9.151208093670247"><ele>193.0</ele><time>2026-04-25T07:29:03Z</time></trkpt><trkpt lat="39.53547855479039" lon="9.151033896467988"><ele>193.0</ele><time>2026-04-25T07:29:04Z</time></trkpt><trkpt lat="39.53543405326046" lon="9.15086224986902"><ele>193.0</ele><time>2026-04-25T07:29:05Z</time></trkpt><trkpt lat="39.535383393149644" lon="9.150694302900089"><ele>193.0</ele><time>2026-04-25T07:29:06Z</time></trkpt><trkpt lat="39.53533192481815" lon="9.15052308749385"><ele>193.0</ele><time>2026-04-25T07:29:07Z</time></trkpt><trkpt lat="39.53528630847333" lon="9.150349787696145"><ele>193.0</ele><time>2026-04-25T07:29:08Z</time></trkpt><trkpt lat="39.53524201940502" lon="9.150177323058276"><ele>193.0</ele><time>2026-04-25T07:29:09Z</time></trkpt><trkpt lat="39.535196090832066" lon="9.150008671839915"><ele>193.0</ele><time>2026-04-25T07:29:10Z</time></trkpt><trkpt lat="39.535148788656684" lon="9.14984076487278"><ele>193.0</ele><time>2026-04-25T07:29:11Z</time></trkpt><trkpt lat="39.535103367314456" lon="9.149673605168386"><ele>193.5</ele><time>2026-04-25T07:29:12Z</time></trkpt><trkpt lat="39.53506281740877" lon="9.149504006262525"><ele>194.0</ele><time>2026-04-25T07:29:13Z</time></trkpt><trkpt lat="39.53502410248929" lon="9.149332477831246"><ele>194.5</ele><time>2026-04-25T07:29:14Z</time></trkpt><trkpt lat="39.5349807849423" lon="9.149161690052384"><ele>195.0</ele><time>2026-04-25T07:29:15Z</time></trkpt><trkpt lat="39.53493240257429" lon="9.148989289551436"><ele>196.0</ele><time>2026-04-25T07:29:16Z</time></trkpt><trkpt lat="39.53488574713605" lon="9.14881183040235"><ele>197.0</ele><time>2026-04-25T07:29:17Z</time></trkpt><trkpt lat="39.53483800892709" lon="9.148631482221298"><ele>198.0</ele><time>2026-04-25T07:29:18Z</time></trkpt><trkpt lat="39.53478752653706" lon="9.148445967513979"><ele>199.0</ele><time>2026-04-25T07:29:19Z</time></trkpt><trkpt lat="39.53474106712903" lon="9.148257907399309"><ele>200.0</ele><time>2026-04-25T07:29:20Z</time></trkpt><trkpt lat="39.53469221655107" lon="9.148071401120118"><ele>201.0</ele><time>2026-04-25T07:29:21Z</time></trkpt><trkpt lat="39.53463735395587" lon="9.14788492235491"><ele>202.0</ele><time>2026-04-25T07:29:22Z</time></trkpt><trkpt lat="39.53458293401588" lon="9.14769605813677"><ele>201.33333333333331</ele><time>2026-04-25T07:29:23Z</time></trkpt><trkpt lat="39.534531174196" lon="9.147506122700968"><ele>200.66666666666669</ele><time>2026-04-25T07:29:24Z</time></trkpt><trkpt lat="39.534470374762016" lon="9.14732289175531"><ele>200.0</ele><time>2026-04-25T07:29:25Z</time></trkpt><trkpt lat="39.53438184811323" lon="9.147149720630448"><ele>199.66666666666669</ele><time>2026-04-25T07:29:26Z</time></trkpt><trkpt lat="39.53429594417932" lon="9.14697836168144"><ele>199.33333333333331</ele><time>2026-04-25T07:29:27Z</time></trkpt><trkpt lat="39.53421221095762" lon="9.14679889987245"><ele>199.0</ele><time>2026-04-25T07:29:28Z</time></trkpt><trkpt lat="39.534123692289995" lon="9.146618750839496"><ele>199.0</ele><time>2026-04-25T07:29:29Z</time></trkpt><trkpt lat="39.534033818992434" lon="9.146441086686895"><ele>199.0</ele><time>2026-04-25T07:29:30Z</time></trkpt><trkpt lat="39.533945143344944" lon="9.146260984894132"><ele>199.0</ele><time>2026-04-25T07:29:31Z</time></trkpt><trkpt lat="39.53385547641872" lon="9.146082470860904"><ele>199.0</ele><time>2026-04-25T07:29:32Z</time></trkpt><trkpt lat="39.5337652075268" lon="9.145900099001837"><ele>199.0</ele><time>2026-04-25T07:29:33Z</time></trkpt><trkpt lat="39.53367795244864" lon="9.145718008604735"><ele>199.0</ele><time>2026-04-25T07:29:34Z</time></trkpt><trkpt lat="39.53359091081771" lon="9.14553220580019"><ele>199.0</ele><time>2026-04-25T07:29:35Z</time></trkpt><trkpt lat="39.53350318165908" lon="9.145347803653138"><ele>199.0</ele><time>2026-04-25T07:29:36Z</time></trkpt><trkpt lat="39.53341468735884" lon="9.145165540131828"><ele>199.0</ele><time>2026-04-25T07:29:37Z</time></trkpt><trkpt lat="39.5333258756864" lon="9.144982872693477"><ele>200.0</ele><time>2026-04-25T07:29:38Z</time></trkpt><trkpt lat="39.53323727586924" lon="9.144800415913648"><ele>201.0</ele><time>2026-04-25T07:29:39Z</time></trkpt><trkpt lat="39.53315027808177" lon="9.144615934877338"><ele>202.0</ele><time>2026-04-25T07:29:40Z</time></trkpt><trkpt lat="39.533062354016934" lon="9.144431392226368"><ele>202.0</ele><time>2026-04-25T07:29:41Z</time></trkpt><trkpt lat="39.53297060125549" lon="9.14425428095969"><ele>202.0</ele><time>2026-04-25T07:29:42Z</time></trkpt><trkpt lat="39.53289260719082" lon="9.144062578052717"><ele>202.0</ele><time>2026-04-25T07:29:43Z</time></trkpt><trkpt lat="39.53280456558182" lon="9.143880413747484"><ele>202.0</ele><time>2026-04-25T07:29:44Z</time></trkpt><trkpt lat="39.53270646932307" lon="9.143713742718107"><ele>202.0</ele><time>2026-04-25T07:29:45Z</time></trkpt><trkpt lat="39.53261645236847" lon="9.143532250445812"><ele>202.0</ele><time>2026-04-25T07:29:46Z</time></trkpt><trkpt lat="39.53253251269907" lon="9.143352823697718"><ele>202.0</ele><time>2026-04-25T07:29:47Z</time></trkpt><trkpt lat="39.53246110877698" lon="9.143157561655714"><ele>202.0</ele><time>2026-04-25T07:29:48Z</time></trkpt><trkpt lat="39.53241092289263" lon="9.1429527503818"><ele>202.0</ele><time>2026-04-25T07:29:49Z</time></trkpt><trkpt lat="39.53237505419074" lon="9.142739415583929"><ele>202.0</ele><time>2026-04-25T07:29:50Z</time></trkpt><trkpt lat="39.532356260837304" lon="9.142519201675814"><ele>202.0</ele><time>2026-04-25T07:29:51Z</time></trkpt><trkpt lat="39.53234220085344" lon="9.142294955535961"><ele>202.0</ele><time>2026-04-25T07:29:52Z</time></trkpt><trkpt lat="39.53233233985921" lon="9.142069735230448"><ele>202.0</ele><time>2026-04-25T07:29:53Z</time></trkpt><trkpt lat="39.5323231437055" lon="9.14184804711254"><ele>202.0</ele><time>2026-04-25T07:29:54Z</time></trkpt><trkpt lat="39.532314730159406" lon="9.141624897373879"><ele>202.0</ele><time>2026-04-25T07:29:55Z</time></trkpt><trkpt lat="39.53231006767087" lon="9.141404786044733"><ele>200.66666666666666</ele><time>2026-04-25T07:29:56Z</time></trkpt><trkpt lat="39.5323011386322" lon="9.141189136977271"><ele>199.33333333333331</ele><time>2026-04-25T07:29:57Z</time></trkpt><trkpt lat="39.532289546378834" lon="9.140974997195306"><ele>198.0</ele><time>2026-04-25T07:29:58Z</time></trkpt><trkpt lat="39.532278161114746" lon="9.140764629771727"><ele>197.25</ele><time>2026-04-25T07:29:59Z</time></trkpt><trkpt lat="39.532267417947445" lon="9.140560618132506"><ele>196.5</ele><time>2026-04-25T07:30:00Z</time></trkpt><trkpt lat="39.53225613822198" lon="9.14036149070953"><ele>195.75</ele><time>2026-04-25T07:30:01Z</time></trkpt><trkpt lat="39.532251662816506" lon="9.140197976326318"><ele>195.0</ele><time>2026-04-25T07:30:02Z</time></trkpt><trkpt lat="39.53224233044314" lon="9.140024625247237"><ele>195.0</ele><time>2026-04-25T07:30:03Z</time></trkpt><trkpt lat="39.532235499439466" lon="9.13985410845486"><ele>195.0</ele><time>2026-04-25T07:30:04Z</time></trkpt><trkpt lat="39.5322328734518" lon="9.139683299743107"><ele>195.0</ele><time>2026-04-25T07:30:05Z</time></trkpt><trkpt lat="39.53223060753884" lon="9.139512073639228"><ele>195.0</ele><time>2026-04-25T07:30:06Z</time></trkpt><trkpt lat="39.532227165537954" lon="9.13934066887774"><ele>195.0</ele><time>2026-04-25T07:30:07Z</time></trkpt><trkpt lat="39.53222639343029" lon="9.139168248631465"><ele>195.0</ele><time>2026-04-25T07:30:08Z</time></trkpt><trkpt lat="39.53223032229186" lon="9.13899700089595"><ele>195.0</ele><time>2026-04-25T07:30:09Z</time></trkpt><trkpt lat="39.532237110757535" lon="9.138827695051807"><ele>195.0</ele><time>2026-04-25T07:30:10Z</time></trkpt><trkpt lat="39.532244052372015" lon="9.138658739567044"><ele>195.25</ele><time>2026-04-25T07:30:11Z</time></trkpt><trkpt lat="39.532249941673975" lon="9.138490555622399"><ele>195.5</ele><time>2026-04-25T07:30:12Z</time></trkpt><trkpt lat="39.53225633242297" lon="9.138322372480797"><ele>195.75</ele><time>2026-04-25T07:30:13Z</time></trkpt><trkpt lat="39.53226409699987" lon="9.13815294776312"><ele>196.0</ele><time>2026-04-25T07:30:14Z</time></trkpt><trkpt lat="39.53227002822509" lon="9.137985764275951"><ele>195.25</ele><time>2026-04-25T07:30:15Z</time></trkpt><trkpt lat="39.532274781165285" lon="9.137817595139202"><ele>194.5</ele><time>2026-04-25T07:30:16Z</time></trkpt><trkpt lat="39.53228050161451" lon="9.137649850903639"><ele>193.75</ele><time>2026-04-25T07:30:17Z</time></trkpt><trkpt lat="39.5322844257938" lon="9.137484362039274"><ele>193.0</ele><time>2026-04-25T07:30:18Z</time></trkpt><trkpt lat="39.53228872061817" lon="9.137321170674175"><ele>192.25</ele><time>2026-04-25T07:30:19Z</time></trkpt><trkpt lat="39.53229063840304" lon="9.13715835740436"><ele>191.5</ele><time>2026-04-25T07:30:20Z</time></trkpt><trkpt lat="39.53229583565728" lon="9.136999354566118"><ele>190.75</ele><time>2026-04-25T07:30:21Z</time></trkpt><trkpt lat="39.53230360024368" lon="9.136842814112821"><ele>190.0</ele><time>2026-04-25T07:30:22Z</time></trkpt><trkpt lat="39.53230840858772" lon="9.136698094026974"><ele>189.8</ele><time>2026-04-25T07:30:23Z</time></trkpt><trkpt lat="39.532314997821594" lon="9.136552201567717"><ele>189.6</ele><time>2026-04-25T07:30:24Z</time></trkpt><trkpt lat="39.53232321673546" lon="9.136409513913412"><ele>189.39999999999998</ele><time>2026-04-25T07:30:25Z</time></trkpt><trkpt lat="39.53233225029188" lon="9.136272818715703"><ele>189.2</ele><time>2026-04-25T07:30:26Z</time></trkpt><trkpt lat="39.53233751337582" lon="9.136143935782716"><ele>189.0</ele><time>2026-04-25T07:30:27Z</time></trkpt><trkpt lat="39.53234195014601" lon="9.13602120123607"><ele>189.0</ele><time>2026-04-25T07:30:28Z</time></trkpt><trkpt lat="39.53235223957535" lon="9.135895621532688"><ele>189.0</ele><time>2026-04-25T07:30:29Z</time></trkpt><trkpt lat="39.53236552200215" lon="9.13577654630215"><ele>189.0</ele><time>2026-04-25T07:30:30Z</time></trkpt><trkpt lat="39.53238462717648" lon="9.13565026437573"><ele>189.0</ele><time>2026-04-25T07:30:31Z</time></trkpt><trkpt lat="39.53240918036499" lon="9.135528726288722"><ele>189.0</ele><time>2026-04-25T07:30:32Z</time></trkpt><trkpt lat="39.53243584761881" lon="9.135410970643"><ele>189.0</ele><time>2026-04-25T07:30:33Z</time></trkpt><trkpt lat="39.53246489921718" lon="9.13529858870293"><ele>189.0</ele><time>2026-04-25T07:30:34Z</time></trkpt><trkpt lat="39.53249501494862" lon="9.135186726801555"><ele>189.0</ele><time>2026-04-25T07:30:35Z</time></trkpt><trkpt lat="39.53252404056431" lon="9.135073794645741"><ele>189.0</ele><time>2026-04-25T07:30:36Z</time></trkpt><trkpt lat="39.53254914837958" lon="9.134953931191918"><ele>189.0</ele><time>2026-04-25T07:30:37Z</time></trkpt><trkpt lat="39.532582568636705" lon="9.134835828756483"><ele>189.0</ele><time>2026-04-25T07:30:38Z</time></trkpt><trkpt lat="39.53261363477798" lon="9.134729632843928"><ele>189.0</ele><time>2026-04-25T07:30:39Z</time></trkpt><trkpt lat="39.532638831302414" lon="9.134613824953806"><ele>189.0</ele><time>2026-04-25T07:30:40Z</time></trkpt><trkpt lat="39.532660412311365" lon="9.13450104898206"><ele>189.0</ele><time>2026-04-25T07:30:41Z</time></trkpt><trkpt lat="39.53268993653083" lon="9.134391604692603"><ele>189.0</ele><time>2026-04-25T07:30:42Z</time></trkpt><trkpt lat="39.532716140254614" lon="9.134293270344843"><ele>189.0</ele><time>2026-04-25T07:30:43Z</time></trkpt><trkpt lat="39.53273555098488" lon="9.134212230498989"><ele>189.0</ele><time>2026-04-25T07:30:44Z</time></trkpt><trkpt lat="39.53275147518087" lon="9.134125032682936"><ele>189.0</ele><time>2026-04-25T07:30:46Z</time></trkpt><trkpt lat="39.53278106652438" lon="9.134032372597723"><ele>189.0</ele><time>2026-04-25T07:30:50Z</time></trkpt><trkpt lat="39.53281501006766" lon="9.133926114566803"><ele>189.0</ele><time>2026-04-25T07:30:52Z</time></trkpt><trkpt lat="39.532849989483466" lon="9.133760219774"><ele>189.0</ele><time>2026-04-25T07:30:54Z</time></trkpt><trkpt lat="39.532867411098984" lon="9.133655561363366"><ele>189.39999999999998</ele><time>2026-04-25T07:30:55Z</time></trkpt><trkpt lat="39.532889366824286" lon="9.133543311810786"><ele>189.8</ele><time>2026-04-25T07:30:56Z</time></trkpt><trkpt lat="39.53292027203956" lon="9.13342457159765"><ele>190.2</ele><time>2026-04-25T07:30:57Z</time></trkpt><trkpt lat="39.53295228581172" lon="9.13330080246949"><ele>190.60000000000002</ele><time>2026-04-25T07:30:58Z</time></trkpt><trkpt lat="39.53298511744515" lon="9.13317720856099"><ele>191.0</ele><time>2026-04-25T07:30:59Z</time></trkpt><trkpt lat="39.53302347335764" lon="9.133050055747384"><ele>191.8</ele><time>2026-04-25T07:31:00Z</time></trkpt><trkpt lat="39.53306590850857" lon="9.132925797006909"><ele>192.60000000000002</ele><time>2026-04-25T07:31:01Z</time></trkpt><trkpt lat="39.5331046087639" lon="9.132798658458428"><ele>193.4</ele><time>2026-04-25T07:31:02Z</time></trkpt><trkpt lat="39.533138497076735" lon="9.132671675548748"><ele>194.2</ele><time>2026-04-25T07:31:03Z</time></trkpt><trkpt lat="39.53317391325279" lon="9.132544220710194"><ele>195.0</ele><time>2026-04-25T07:31:04Z</time></trkpt><trkpt lat="39.5332110756537" lon="9.132420267397798"><ele>195.8</ele><time>2026-04-25T07:31:05Z</time></trkpt><trkpt lat="39.53324291726328" lon="9.132301367772188"><ele>196.6</ele><time>2026-04-25T07:31:06Z</time></trkpt><trkpt lat="39.533270048656604" lon="9.132194912445652"><ele>197.39999999999998</ele><time>2026-04-25T07:31:07Z</time></trkpt><trkpt lat="39.533292924544284" lon="9.132101222734244"><ele>198.2</ele><time>2026-04-25T07:31:08Z</time></trkpt><trkpt lat="39.53333273927556" lon="9.131966828698292"><ele>199.0</ele><time>2026-04-25T07:31:10Z</time></trkpt><trkpt lat="39.53332470777442" lon="9.131803374150847"><ele>199.0</ele><time>2026-04-25T07:31:12Z</time></trkpt><trkpt lat="39.5333004375112" lon="9.131714880303702"><ele>199.0</ele><time>2026-04-25T07:31:13Z</time></trkpt><trkpt lat="39.53327100554077" lon="9.131621134159458"><ele>199.0</ele><time>2026-04-25T07:31:14Z</time></trkpt><trkpt lat="39.53323387762573" lon="9.13149462492496"><ele>199.0</ele><time>2026-04-25T07:31:16Z</time></trkpt><trkpt lat="39.53317279638877" lon="9.131394254745834"><ele>199.0</ele><time>2026-04-25T07:31:52Z</time></trkpt><trkpt lat="39.53313134260429" lon="9.131258736774992"><ele>199.79999999999998</ele><time>2026-04-25T07:31:54Z</time></trkpt><trkpt lat="39.53312374631248" lon="9.131126853153571"><ele>200.6</ele><time>2026-04-25T07:31:56Z</time></trkpt><trkpt lat="39.53319448113816" lon="9.131013765407957"><ele>201.4</ele><time>2026-04-25T07:31:58Z</time></trkpt><trkpt lat="39.53324869434239" lon="9.130944783928692"><ele>202.2</ele><time>2026-04-25T07:31:59Z</time></trkpt><trkpt lat="39.53330431891061" lon="9.130858802164791"><ele>203.0</ele><time>2026-04-25T07:32:00Z</time></trkpt><trkpt lat="39.533351000624805" lon="9.130777220396693"><ele>203.00000000000003</ele><time>2026-04-25T07:32:01Z</time></trkpt><trkpt lat="39.533399036765154" lon="9.130692637230876"><ele>203.0</ele><time>2026-04-25T07:32:02Z</time></trkpt><trkpt lat="39.53344886645146" lon="9.130608965979556"><ele>203.0</ele><time>2026-04-25T07:32:03Z</time></trkpt><trkpt lat="39.53350050846783" lon="9.130531244804374"><ele>203.0</ele><time>2026-04-25T07:32:04Z</time></trkpt><trkpt lat="39.53355971129138" lon="9.130466019536561"><ele>203.00000000000003</ele><time>2026-04-25T07:32:05Z</time></trkpt><trkpt lat="39.53362791379312" lon="9.130426125934138"><ele>203.0</ele><time>2026-04-25T07:32:06Z</time></trkpt><trkpt lat="39.53369286410083" lon="9.130400063043732"><ele>202.83333333333334</ele><time>2026-04-25T07:32:07Z</time></trkpt><trkpt lat="39.53376611864807" lon="9.130386449148444"><ele>202.66666666666669</ele><time>2026-04-25T07:32:08Z</time></trkpt><trkpt lat="39.53384488197133" lon="9.13038399047439"><ele>202.5</ele><time>2026-04-25T07:32:09Z</time></trkpt><trkpt lat="39.53392308535536" lon="9.13039998856544"><ele>202.33333333333331</ele><time>2026-04-25T07:32:10Z</time></trkpt><trkpt lat="39.534000624224916" lon="9.13043396883907"><ele>202.16666666666666</ele><time>2026-04-25T07:32:11Z</time></trkpt><trkpt lat="39.53407695850007" lon="9.1304725147535"><ele>202.0</ele><time>2026-04-25T07:32:12Z</time></trkpt><trkpt lat="39.53415152259772" lon="9.130508266582371"><ele>201.99999999999997</ele><time>2026-04-25T07:32:13Z</time></trkpt><trkpt lat="39.53422903312104" lon="9.130542025821033"><ele>202.0</ele><time>2026-04-25T07:32:14Z</time></trkpt><trkpt lat="39.53430629354241" lon="9.130568869720785"><ele>202.0</ele><time>2026-04-25T07:32:15Z</time></trkpt><trkpt lat="39.53438560572336" lon="9.130584522443298"><ele>202.0</ele><time>2026-04-25T07:32:16Z</time></trkpt><trkpt lat="39.5344658155319" lon="9.130582627481022"><ele>201.99999999999997</ele><time>2026-04-25T07:32:17Z</time></trkpt><trkpt lat="39.534545004979776" lon="9.130572635416355"><ele>202.0</ele><time>2026-04-25T07:32:18Z</time></trkpt><trkpt lat="39.534628099910705" lon="9.130558770446136"><ele>202.16666666666666</ele><time>2026-04-25T07:32:19Z</time></trkpt><trkpt lat="39.534712019806065" lon="9.13054133509847"><ele>202.33333333333331</ele><time>2026-04-25T07:32:20Z</time></trkpt><trkpt lat="39.53479802629637" lon="9.130533475425194"><ele>202.5</ele><time>2026-04-25T07:32:21Z</time></trkpt><trkpt lat="39.534887000987815" lon="9.13053197354601"><ele>202.66666666666669</ele><time>2026-04-25T07:32:22Z</time></trkpt><trkpt lat="39.53497827576369" lon="9.130532742103401"><ele>202.83333333333334</ele><time>2026-04-25T07:32:23Z</time></trkpt><trkpt lat="39.53506947702676" lon="9.130533569120336"><ele>203.0</ele><time>2026-04-25T07:32:24Z</time></trkpt><trkpt lat="39.53516930052763" lon="9.130531233725222"><ele>203.0</ele><time>2026-04-25T07:32:25Z</time></trkpt><trkpt lat="39.53527077222045" lon="9.130528670453582"><ele>203.0</ele><time>2026-04-25T07:32:26Z</time></trkpt><trkpt lat="39.53537432797134" lon="9.130524650110983"><ele>203.0</ele><time>2026-04-25T07:32:27Z</time></trkpt><trkpt lat="39.53548023469588" lon="9.130524223242757"><ele>203.0</ele><time>2026-04-25T07:32:28Z</time></trkpt><trkpt lat="39.535591581382924" lon="9.13052592417865"><ele>203.0</ele><time>2026-04-25T07:32:29Z</time></trkpt><trkpt lat="39.53570238332909" lon="9.130525177792231"><ele>203.0</ele><time>2026-04-25T07:32:30Z</time></trkpt><trkpt lat="39.535815186831584" lon="9.130519336449941"><ele>203.0</ele><time>2026-04-25T07:32:31Z</time></trkpt><trkpt lat="39.535931971632614" lon="9.13052233764549"><ele>203.0</ele><time>2026-04-25T07:32:32Z</time></trkpt><trkpt lat="39.53604745249455" lon="9.13052650405867"><ele>203.0</ele><time>2026-04-25T07:32:33Z</time></trkpt><trkpt lat="39.53616220877328" lon="9.130523292639086"><ele>202.75</ele><time>2026-04-25T07:32:34Z</time></trkpt><trkpt lat="39.53627670245374" lon="9.13051947908377"><ele>202.5</ele><time>2026-04-25T07:32:35Z</time></trkpt><trkpt lat="39.536390089144554" lon="9.130517518976237"><ele>202.25</ele><time>2026-04-25T07:32:36Z</time></trkpt><trkpt lat="39.53650495647169" lon="9.130514909312906"><ele>202.0</ele><time>2026-04-25T07:32:37Z</time></trkpt><trkpt lat="39.53661874667675" lon="9.130512309399416"><ele>202.0</ele><time>2026-04-25T07:32:38Z</time></trkpt><trkpt lat="39.53673332832893" lon="9.130504252849088"><ele>202.0</ele><time>2026-04-25T07:32:39Z</time></trkpt><trkpt lat="39.53685010956127" lon="9.130502215113138"><ele>202.0</ele><time>2026-04-25T07:32:40Z</time></trkpt><trkpt lat="39.536969535500866" lon="9.130505929844835"><ele>202.0</ele><time>2026-04-25T07:32:41Z</time></trkpt><trkpt lat="39.53708608216967" lon="9.130501222408139"><ele>201.6</ele><time>2026-04-25T07:32:42Z</time></trkpt><trkpt lat="39.53719687676608" lon="9.130498318933135"><ele>201.2</ele><time>2026-04-25T07:32:43Z</time></trkpt><trkpt lat="39.53730587188991" lon="9.130497181225975"><ele>200.8</ele><time>2026-04-25T07:32:44Z</time></trkpt><trkpt lat="39.5374094854042" lon="9.130495530402621"><ele>200.4</ele><time>2026-04-25T07:32:45Z</time></trkpt><trkpt lat="39.53750538148517" lon="9.130496171275285"><ele>200.0</ele><time>2026-04-25T07:32:46Z</time></trkpt><trkpt lat="39.537598413655864" lon="9.13049857189803"><ele>200.0</ele><time>2026-04-25T07:32:47Z</time></trkpt><trkpt lat="39.53768755330213" lon="9.130507724606833"><ele>200.0</ele><time>2026-04-25T07:32:48Z</time></trkpt><trkpt lat="39.53777590138033" lon="9.1305193934925"><ele>200.0</ele><time>2026-04-25T07:32:49Z</time></trkpt><trkpt lat="39.537864832974236" lon="9.130533606123736"><ele>200.0</ele><time>2026-04-25T07:32:50Z</time></trkpt><trkpt lat="39.53795710399884" lon="9.13055310713208"><ele>200.0</ele><time>2026-04-25T07:32:51Z</time></trkpt><trkpt lat="39.53804738551628" lon="9.130569431248796"><ele>199.66666666666669</ele><time>2026-04-25T07:32:52Z</time></trkpt><trkpt lat="39.53813294411606" lon="9.130588013192705"><ele>199.33333333333334</ele><time>2026-04-25T07:32:53Z</time></trkpt><trkpt lat="39.53821564509091" lon="9.130607154390082"><ele>199.0</ele><time>2026-04-25T07:32:54Z</time></trkpt><trkpt lat="39.53830130666907" lon="9.130624054608004"><ele>198.66666666666669</ele><time>2026-04-25T07:32:55Z</time></trkpt><trkpt lat="39.53838558374287" lon="9.130637570329908"><ele>198.33333333333334</ele><time>2026-04-25T07:32:56Z</time></trkpt><trkpt lat="39.53847272272662" lon="9.130654409950852"><ele>198.0</ele><time>2026-04-25T07:32:57Z</time></trkpt><trkpt lat="39.538559053260094" lon="9.130670321425598"><ele>198.0</ele><time>2026-04-25T07:32:58Z</time></trkpt><trkpt lat="39.53864818292672" lon="9.130683433306544"><ele>198.0</ele><time>2026-04-25T07:32:59Z</time></trkpt><trkpt lat="39.538737164685315" lon="9.13070423602554"><ele>198.0</ele><time>2026-04-25T07:33:00Z</time></trkpt><trkpt lat="39.538830408328266" lon="9.130721286173042"><ele>198.0</ele><time>2026-04-25T07:33:01Z</time></trkpt><trkpt lat="39.538924643853825" lon="9.130734993668046"><ele>198.0</ele><time>2026-04-25T07:33:02Z</time></trkpt><trkpt lat="39.53902490127728" lon="9.130749613459205"><ele>199.0</ele><time>2026-04-25T07:33:03Z</time></trkpt><trkpt lat="39.53912581399693" lon="9.130770739537756"><ele>200.0</ele><time>2026-04-25T07:33:04Z</time></trkpt><trkpt lat="39.539227861605596" lon="9.130795094735253"><ele>201.0</ele><time>2026-04-25T07:33:05Z</time></trkpt><trkpt lat="39.53933552056742" lon="9.130815553149201"><ele>202.0</ele><time>2026-04-25T07:33:06Z</time></trkpt><trkpt lat="39.539443784885755" lon="9.130835272143115"><ele>203.0</ele><time>2026-04-25T07:33:07Z</time></trkpt><trkpt lat="39.53955017759117" lon="9.130860823082816"><ele>203.5</ele><time>2026-04-25T07:33:08Z</time></trkpt><trkpt lat="39.53966525194574" lon="9.130888794814764"><ele>204.0</ele><time>2026-04-25T07:33:09Z</time></trkpt><trkpt lat="39.53977776075393" lon="9.130908689953007"><ele>204.5</ele><time>2026-04-25T07:33:10Z</time></trkpt><trkpt lat="39.539892720012034" lon="9.130926399002025"><ele>205.0</ele><time>2026-04-25T07:33:11Z</time></trkpt><trkpt lat="39.54000747857141" lon="9.130943990684159"><ele>205.0</ele><time>2026-04-25T07:33:12Z</time></trkpt><trkpt lat="39.54012255803924" lon="9.13096749122782"><ele>205.0</ele><time>2026-04-25T07:33:13Z</time></trkpt><trkpt lat="39.54023718834664" lon="9.130990484095863"><ele>205.0</ele><time>2026-04-25T07:33:14Z</time></trkpt><trkpt lat="39.540351477000094" lon="9.131007691081349"><ele>205.0</ele><time>2026-04-25T07:33:15Z</time></trkpt><trkpt lat="39.540464221944994" lon="9.131023686132638"><ele>205.2</ele><time>2026-04-25T07:33:16Z</time></trkpt><trkpt lat="39.54057624166469" lon="9.131044537023055"><ele>205.4</ele><time>2026-04-25T07:33:17Z</time></trkpt><trkpt lat="39.540686472399635" lon="9.131072331262123"><ele>205.60000000000002</ele><time>2026-04-25T07:33:18Z</time></trkpt><trkpt lat="39.54079764522947" lon="9.131095941087672"><ele>205.8</ele><time>2026-04-25T07:33:19Z</time></trkpt><trkpt lat="39.540906882309045" lon="9.131120815324445"><ele>206.0</ele><time>2026-04-25T07:33:20Z</time></trkpt><trkpt lat="39.54101975469443" lon="9.131144086714798"><ele>206.0</ele><time>2026-04-25T07:33:21Z</time></trkpt><trkpt lat="39.5411289000048" lon="9.131159866242962"><ele>206.0</ele><time>2026-04-25T07:33:22Z</time></trkpt><trkpt lat="39.54123976559114" lon="9.131175092130734"><ele>206.0</ele><time>2026-04-25T07:33:23Z</time></trkpt><trkpt lat="39.54135021001244" lon="9.131195544105404"><ele>206.0</ele><time>2026-04-25T07:33:24Z</time></trkpt><trkpt lat="39.541460949339864" lon="9.13121728296489"><ele>206.0</ele><time>2026-04-25T07:33:25Z</time></trkpt><trkpt lat="39.5415726707124" lon="9.13123292248218"><ele>206.25</ele><time>2026-04-25T07:33:26Z</time></trkpt><trkpt lat="39.54168561564779" lon="9.131252114288587"><ele>206.5</ele><time>2026-04-25T07:33:27Z</time></trkpt><trkpt lat="39.541797431947195" lon="9.131274525496213"><ele>206.75</ele><time>2026-04-25T07:33:28Z</time></trkpt><trkpt lat="39.54191098023899" lon="9.13130077480926"><ele>207.0</ele><time>2026-04-25T07:33:29Z</time></trkpt><trkpt lat="39.54202393851638" lon="9.131323437834256"><ele>207.0</ele><time>2026-04-25T07:33:30Z</time></trkpt><trkpt lat="39.542139020788476" lon="9.131339256935924"><ele>207.0</ele><time>2026-04-25T07:33:31Z</time></trkpt><trkpt lat="39.542253446895174" lon="9.131360440870962"><ele>207.0</ele><time>2026-04-25T07:33:32Z</time></trkpt><trkpt lat="39.54236525443098" lon="9.131385831469032"><ele>207.0</ele><time>2026-04-25T07:33:33Z</time></trkpt><trkpt lat="39.542479481877685" lon="9.131403167216245"><ele>207.0</ele><time>2026-04-25T07:33:34Z</time></trkpt><trkpt lat="39.5425911088615" lon="9.131416114588"><ele>207.0</ele><time>2026-04-25T07:33:35Z</time></trkpt><trkpt lat="39.54270323061851" lon="9.13143752451253"><ele>207.0</ele><time>2026-04-25T07:33:36Z</time></trkpt><trkpt lat="39.54281386767803" lon="9.131462817461912"><ele>207.0</ele><time>2026-04-25T07:33:37Z</time></trkpt><trkpt lat="39.542925772271936" lon="9.131482099491768"><ele>207.0</ele><time>2026-04-25T07:33:38Z</time></trkpt><trkpt lat="39.54303768939528" lon="9.131499313686696"><ele>207.0</ele><time>2026-04-25T07:33:39Z</time></trkpt><trkpt lat="39.54315221950511" lon="9.131520772897108"><ele>207.0</ele><time>2026-04-25T07:33:40Z</time></trkpt><trkpt lat="39.543265275506585" lon="9.131544969450276"><ele>207.0</ele><time>2026-04-25T07:33:41Z</time></trkpt><trkpt lat="39.54337825388328" lon="9.131562275805015"><ele>207.0</ele><time>2026-04-25T07:33:42Z</time></trkpt><trkpt lat="39.543495044207184" lon="9.131575885250982"><ele>207.0</ele><time>2026-04-25T07:33:43Z</time></trkpt><trkpt lat="39.543611512323935" lon="9.131584073825392"><ele>207.0</ele><time>2026-04-25T07:33:44Z</time></trkpt><trkpt lat="39.54372575375556" lon="9.131597618823633"><ele>207.0</ele><time>2026-04-25T07:33:45Z</time></trkpt><trkpt lat="39.543832476405235" lon="9.131610992067069"><ele>207.2</ele><time>2026-04-25T07:33:46Z</time></trkpt><trkpt lat="39.54393861336254" lon="9.131618698563269"><ele>207.39999999999998</ele><time>2026-04-25T07:33:47Z</time></trkpt><trkpt lat="39.544039331736805" lon="9.13162592508821"><ele>207.60000000000002</ele><time>2026-04-25T07:33:48Z</time></trkpt><trkpt lat="39.54413032097586" lon="9.131647345547432"><ele>207.8</ele><time>2026-04-25T07:33:49Z</time></trkpt><trkpt lat="39.544209307150474" lon="9.131686309639747"><ele>208.0</ele><time>2026-04-25T07:33:50Z</time></trkpt><trkpt lat="39.54427502446406" lon="9.131741248279267"><ele>207.99999999999997</ele><time>2026-04-25T07:33:51Z</time></trkpt><trkpt lat="39.54433581357783" lon="9.131794340962992"><ele>208.0</ele><time>2026-04-25T07:33:52Z</time></trkpt><trkpt lat="39.54439912835792" lon="9.13183710019866"><ele>208.0</ele><time>2026-04-25T07:33:53Z</time></trkpt><trkpt lat="39.544474901501516" lon="9.13184234257452"><ele>208.0</ele><time>2026-04-25T07:33:54Z</time></trkpt><trkpt lat="39.54454200093917" lon="9.131814253999188"><ele>207.99999999999997</ele><time>2026-04-25T07:33:55Z</time></trkpt><trkpt lat="39.5445728583594" lon="9.131730333265091"><ele>208.0</ele><time>2026-04-25T07:33:56Z</time></trkpt><trkpt lat="39.54466674132247" lon="9.131703532923947"><ele>208.2</ele><time>2026-04-25T07:33:57Z</time></trkpt><trkpt lat="39.54475883596107" lon="9.131679087577991"><ele>208.4</ele><time>2026-04-25T07:33:58Z</time></trkpt><trkpt lat="39.54485471796534" lon="9.131658634901028"><ele>208.6</ele><time>2026-04-25T07:33:59Z</time></trkpt><trkpt lat="39.544950185369245" lon="9.131639011326085"><ele>208.79999999999998</ele><time>2026-04-25T07:34:00Z</time></trkpt><trkpt lat="39.545053025241494" lon="9.131628363108549"><ele>209.0</ele><time>2026-04-25T07:34:01Z</time></trkpt><trkpt lat="39.545161917893026" lon="9.131634006896459"><ele>209.0</ele><time>2026-04-25T07:34:02Z</time></trkpt><trkpt lat="39.545273182093126" lon="9.131636056722659"><ele>209.0</ele><time>2026-04-25T07:34:03Z</time></trkpt><trkpt lat="39.54538838201591" lon="9.13163440248813"><ele>209.0</ele><time>2026-04-25T07:34:04Z</time></trkpt><trkpt lat="39.54550566348002" lon="9.131634728073415"><ele>209.0</ele><time>2026-04-25T07:34:05Z</time></trkpt><trkpt lat="39.54562552714326" lon="9.13163762922929"><ele>209.25</ele><time>2026-04-25T07:34:06Z</time></trkpt><trkpt lat="39.54574763369219" lon="9.13163927860108"><ele>209.5</ele><time>2026-04-25T07:34:07Z</time></trkpt><trkpt lat="39.54587172543825" lon="9.131640358002963"><ele>209.75</ele><time>2026-04-25T07:34:08Z</time></trkpt><trkpt lat="39.545995749498914" lon="9.131640754770514"><ele>210.0</ele><time>2026-04-25T07:34:09Z</time></trkpt><trkpt lat="39.54611900459252" lon="9.131647053551834"><ele>210.5</ele><time>2026-04-25T07:34:10Z</time></trkpt><trkpt lat="39.54624289642038" lon="9.131656776683688"><ele>211.0</ele><time>2026-04-25T07:34:11Z</time></trkpt><trkpt lat="39.54636314979618" lon="9.1316611144536"><ele>211.5</ele><time>2026-04-25T07:34:12Z</time></trkpt><trkpt lat="39.546482014434936" lon="9.131658911481573"><ele>212.0</ele><time>2026-04-25T07:34:13Z</time></trkpt><trkpt lat="39.54660258868175" lon="9.131655658298973"><ele>212.0</ele><time>2026-04-25T07:34:14Z</time></trkpt><trkpt lat="39.5467243730511" lon="9.13165711159483"><ele>212.0</ele><time>2026-04-25T07:34:15Z</time></trkpt><trkpt lat="39.54684717049163" lon="9.131664033703734"><ele>212.0</ele><time>2026-04-25T07:34:16Z</time></trkpt><trkpt lat="39.546967582532304" lon="9.131672298661131"><ele>212.0</ele><time>2026-04-25T07:34:17Z</time></trkpt><trkpt lat="39.547083588465476" lon="9.13167851549578"><ele>211.5</ele><time>2026-04-25T07:34:18Z</time></trkpt><trkpt lat="39.547198735174916" lon="9.131687578905725"><ele>211.0</ele><time>2026-04-25T07:34:19Z</time></trkpt><trkpt lat="39.547313852115266" lon="9.131696470825773"><ele>210.5</ele><time>2026-04-25T07:34:20Z</time></trkpt><trkpt lat="39.54742957439093" lon="9.1317022233528"><ele>210.0</ele><time>2026-04-25T07:34:21Z</time></trkpt><trkpt lat="39.54754752767994" lon="9.131706053691003"><ele>210.0</ele><time>2026-04-25T07:34:22Z</time></trkpt><trkpt lat="39.547666428226734" lon="9.131708596144739"><ele>210.0</ele><time>2026-04-25T07:34:23Z</time></trkpt><trkpt lat="39.54778511260212" lon="9.131710677198074"><ele>210.0</ele><time>2026-04-25T07:34:24Z</time></trkpt><trkpt lat="39.54790345270377" lon="9.131713220520943"><ele>210.0</ele><time>2026-04-25T07:34:25Z</time></trkpt><trkpt lat="39.54802207475997" lon="9.131717582739537"><ele>211.0</ele><time>2026-04-25T07:34:26Z</time></trkpt><trkpt lat="39.54814289072885" lon="9.131723525672154"><ele>212.0</ele><time>2026-04-25T07:34:27Z</time></trkpt><trkpt lat="39.54826643903246" lon="9.13172646012559"><ele>213.0</ele><time>2026-04-25T07:34:28Z</time></trkpt><trkpt lat="39.54839092729407" lon="9.13172819366488"><ele>214.0</ele><time>2026-04-25T07:34:29Z</time></trkpt><trkpt lat="39.54851671830568" lon="9.131729616780852"><ele>214.0</ele><time>2026-04-25T07:34:30Z</time></trkpt><trkpt lat="39.54864520590645" lon="9.131729938726421"><ele>214.0</ele><time>2026-04-25T07:34:31Z</time></trkpt><trkpt lat="39.54877399375498" lon="9.131726031231622"><ele>214.0</ele><time>2026-04-25T07:34:32Z</time></trkpt><trkpt lat="39.5489052190774" lon="9.131719329916153"><ele>214.0</ele><time>2026-04-25T07:34:33Z</time></trkpt><trkpt lat="39.549036304938284" lon="9.131713317919958"><ele>214.0</ele><time>2026-04-25T07:34:34Z</time></trkpt><trkpt lat="39.549167894678526" lon="9.131707865179555"><ele>214.0</ele><time>2026-04-25T07:34:35Z</time></trkpt><trkpt lat="39.549302200529766" lon="9.131698424220993"><ele>214.0</ele><time>2026-04-25T07:34:36Z</time></trkpt><trkpt lat="39.549435738950606" lon="9.131690140639046"><ele>214.0</ele><time>2026-04-25T07:34:37Z</time></trkpt><trkpt lat="39.549571014725046" lon="9.131685742267882"><ele>214.0</ele><time>2026-04-25T07:34:38Z</time></trkpt><trkpt lat="39.54970647488076" lon="9.131681242099226"><ele>214.0</ele><time>2026-04-25T07:34:39Z</time></trkpt><trkpt lat="39.549843030529274" lon="9.131670577900762"><ele>214.0</ele><time>2026-04-25T07:34:40Z</time></trkpt><trkpt lat="39.54998068977853" lon="9.131660378845337"><ele>214.0</ele><time>2026-04-25T07:34:41Z</time></trkpt><trkpt lat="39.55011833009631" lon="9.131653923884297"><ele>214.0</ele><time>2026-04-25T07:34:42Z</time></trkpt><trkpt lat="39.55025642644275" lon="9.131646672935663"><ele>214.0</ele><time>2026-04-25T07:34:43Z</time></trkpt><trkpt lat="39.550394745524734" lon="9.131636913931391"><ele>214.0</ele><time>2026-04-25T07:34:44Z</time></trkpt><trkpt lat="39.55053389563441" lon="9.131627924654303"><ele>214.0</ele><time>2026-04-25T07:34:45Z</time></trkpt><trkpt lat="39.55067362630182" lon="9.131618265519409"><ele>214.5</ele><time>2026-04-25T07:34:46Z</time></trkpt><trkpt lat="39.55081396144467" lon="9.131613426321476"><ele>215.0</ele><time>2026-04-25T07:34:47Z</time></trkpt><trkpt lat="39.55095330975229" lon="9.131615663659396"><ele>215.5</ele><time>2026-04-25T07:34:48Z</time></trkpt><trkpt lat="39.551094640611986" lon="9.131608173101627"><ele>216.0</ele><time>2026-04-25T07:34:49Z</time></trkpt><trkpt lat="39.551234742379044" lon="9.131597329677327"><ele>216.5</ele><time>2026-04-25T07:34:50Z</time></trkpt><trkpt lat="39.551375404248546" lon="9.131590108215478"><ele>217.0</ele><time>2026-04-25T07:34:51Z</time></trkpt><trkpt lat="39.551515353428044" lon="9.131583211929994"><ele>217.5</ele><time>2026-04-25T07:34:52Z</time></trkpt><trkpt lat="39.55165718813589" lon="9.131574774551776"><ele>218.0</ele><time>2026-04-25T07:34:53Z</time></trkpt><trkpt lat="39.55179874028689" lon="9.131570983685796"><ele>218.0</ele><time>2026-04-25T07:34:54Z</time></trkpt><trkpt lat="39.55194348384481" lon="9.131564961041633"><ele>218.0</ele><time>2026-04-25T07:34:55Z</time></trkpt><trkpt lat="39.55208743385898" lon="9.131551464254713"><ele>218.0</ele><time>2026-04-25T07:34:56Z</time></trkpt><trkpt lat="39.552235927958044" lon="9.131537779505427"><ele>218.0</ele><time>2026-04-25T07:34:57Z</time></trkpt><trkpt lat="39.552385640295086" lon="9.131522682712339"><ele>218.66666666666669</ele><time>2026-04-25T07:34:58Z</time></trkpt><trkpt lat="39.55253722351786" lon="9.131503570583112"><ele>219.33333333333331</ele><time>2026-04-25T07:34:59Z</time></trkpt><trkpt lat="39.552689191465404" lon="9.131483004722496"><ele>220.0</ele><time>2026-04-25T07:35:00Z</time></trkpt><trkpt lat="39.552842929975384" lon="9.131492326612914"><ele>220.25</ele><time>2026-04-25T07:35:01Z</time></trkpt><trkpt lat="39.5529582598713" lon="9.131502189233814"><ele>220.5</ele><time>2026-04-25T07:35:02Z</time></trkpt><trkpt lat="39.553124116375216" lon="9.131477338715044"><ele>220.75</ele><time>2026-04-25T07:35:03Z</time></trkpt><trkpt lat="39.553272219260016" lon="9.131473976080969"><ele>221.0</ele><time>2026-04-25T07:35:04Z</time></trkpt><trkpt lat="39.55342202232289" lon="9.131460839989098"><ele>221.0</ele><time>2026-04-25T07:35:05Z</time></trkpt><trkpt lat="39.553573127786386" lon="9.131455804741272"><ele>221.0</ele><time>2026-04-25T07:35:06Z</time></trkpt><trkpt lat="39.55372278233286" lon="9.131447822579553"><ele>221.0</ele><time>2026-04-25T07:35:07Z</time></trkpt><trkpt lat="39.55387237355588" lon="9.131435808357793"><ele>221.33333333333334</ele><time>2026-04-25T07:35:08Z</time></trkpt><trkpt lat="39.554022327092646" lon="9.131424812678954"><ele>221.66666666666669</ele><time>2026-04-25T07:35:09Z</time></trkpt><trkpt lat="39.55416872628168" lon="9.131419185674625"><ele>222.0</ele><time>2026-04-25T07:35:10Z</time></trkpt><trkpt lat="39.55432196574892" lon="9.131401155451792"><ele>222.0</ele><time>2026-04-25T07:35:11Z</time></trkpt><trkpt lat="39.55447114677002" lon="9.13139379392542"><ele>222.0</ele><time>2026-04-25T07:35:12Z</time></trkpt><trkpt lat="39.55461767230614" lon="9.131383955870794"><ele>222.0</ele><time>2026-04-25T07:35:13Z</time></trkpt><trkpt lat="39.55476734336875" lon="9.131371004241855"><ele>222.0</ele><time>2026-04-25T07:35:14Z</time></trkpt><trkpt lat="39.55490020104026" lon="9.13136961186338"><ele>222.0</ele><time>2026-04-25T07:35:15Z</time></trkpt><trkpt lat="39.55504209617632" lon="9.131360890038945"><ele>222.0</ele><time>2026-04-25T07:35:16Z</time></trkpt><trkpt lat="39.555181196103305" lon="9.131347425896434"><ele>222.0</ele><time>2026-04-25T07:35:17Z</time></trkpt><trkpt lat="39.55531995811643" lon="9.131336669966554"><ele>222.0</ele><time>2026-04-25T07:35:18Z</time></trkpt><trkpt lat="39.55546561896558" lon="9.131328008247305"><ele>222.0</ele><time>2026-04-25T07:35:19Z</time></trkpt><trkpt lat="39.555611966461136" lon="9.131321691024318"><ele>222.0</ele><time>2026-04-25T07:35:20Z</time></trkpt><trkpt lat="39.55576106987561" lon="9.131310633954339"><ele>222.0</ele><time>2026-04-25T07:35:21Z</time></trkpt><trkpt lat="39.555913066261894" lon="9.131302437869769"><ele>222.0</ele><time>2026-04-25T07:35:22Z</time></trkpt><trkpt lat="39.556068248062196" lon="9.131296703780778"><ele>222.33333333333331</ele><time>2026-04-25T07:35:23Z</time></trkpt><trkpt lat="39.556221134923845" lon="9.131291020307371"><ele>222.66666666666666</ele><time>2026-04-25T07:35:24Z</time></trkpt><trkpt lat="39.55637227076596" lon="9.131278578819682"><ele>223.0</ele><time>2026-04-25T07:35:25Z</time></trkpt><trkpt lat="39.55652162191942" lon="9.13127159281422"><ele>223.0</ele><time>2026-04-25T07:35:26Z</time></trkpt><trkpt lat="39.55666919446697" lon="9.131266946733726"><ele>223.0</ele><time>2026-04-25T07:35:27Z</time></trkpt><trkpt lat="39.5568137031402" lon="9.131258354290289"><ele>223.0</ele><time>2026-04-25T07:35:28Z</time></trkpt><trkpt lat="39.55695705445897" lon="9.131249940732653"><ele>223.0</ele><time>2026-04-25T07:35:29Z</time></trkpt><trkpt lat="39.557101384889926" lon="9.131240673770902"><ele>223.0</ele><time>2026-04-25T07:35:30Z</time></trkpt><trkpt lat="39.55724526827841" lon="9.131231115945372"><ele>223.0</ele><time>2026-04-25T07:35:31Z</time></trkpt><trkpt lat="39.557391821281236" lon="9.131224311839851"><ele>223.0</ele><time>2026-04-25T07:35:32Z</time></trkpt><trkpt lat="39.55753435064037" lon="9.131215617494954"><ele>223.0</ele><time>2026-04-25T07:35:33Z</time></trkpt><trkpt lat="39.557673677829584" lon="9.131203208129078"><ele>223.0</ele><time>2026-04-25T07:35:34Z</time></trkpt><trkpt lat="39.55781458770709" lon="9.131195308377299"><ele>223.0</ele><time>2026-04-25T07:35:35Z</time></trkpt><trkpt lat="39.557956414838635" lon="9.131190495588166"><ele>223.0</ele><time>2026-04-25T07:35:36Z</time></trkpt><trkpt lat="39.558094125757194" lon="9.1311786052332"><ele>223.0</ele><time>2026-04-25T07:35:37Z</time></trkpt><trkpt lat="39.55822904310425" lon="9.131163866225418"><ele>224.25</ele><time>2026-04-25T07:35:38Z</time></trkpt><trkpt lat="39.55836724366671" lon="9.131158133090288"><ele>225.5</ele><time>2026-04-25T07:35:39Z</time></trkpt><trkpt lat="39.55848988023407" lon="9.131153743260887"><ele>226.75</ele><time>2026-04-25T07:35:40Z</time></trkpt><trkpt lat="39.55860677573011" lon="9.131151599222282"><ele>228.0</ele><time>2026-04-25T07:35:41Z</time></trkpt><trkpt lat="39.55871901156921" lon="9.13114165466933"><ele>228.60000000000002</ele><time>2026-04-25T07:35:42Z</time></trkpt><trkpt lat="39.55882456268455" lon="9.131135228602647"><ele>229.20000000000002</ele><time>2026-04-25T07:35:43Z</time></trkpt><trkpt lat="39.5589301093084" lon="9.131127815945325"><ele>229.8</ele><time>2026-04-25T07:35:44Z</time></trkpt><trkpt lat="39.55903496967793" lon="9.13111676295"><ele>230.4</ele><time>2026-04-25T07:35:45Z</time></trkpt><trkpt lat="39.559142057480805" lon="9.131104230020174"><ele>231.0</ele><time>2026-04-25T07:35:46Z</time></trkpt><trkpt lat="39.55924432156782" lon="9.131093864300178"><ele>231.0</ele><time>2026-04-25T07:35:47Z</time></trkpt><trkpt lat="39.55934255409321" lon="9.13109606704974"><ele>231.00000000000003</ele><time>2026-04-25T07:35:48Z</time></trkpt><trkpt lat="39.5594376311059" lon="9.131085408751137"><ele>231.00000000000003</ele><time>2026-04-25T07:35:49Z</time></trkpt><trkpt lat="39.55953887549769" lon="9.13106932627041"><ele>231.0</ele><time>2026-04-25T07:35:50Z</time></trkpt><trkpt lat="39.55963407105649" lon="9.131064596885523"><ele>231.0</ele><time>2026-04-25T07:35:51Z</time></trkpt><trkpt lat="39.55972653655315" lon="9.131065246682729"><ele>231.33333333333334</ele><time>2026-04-25T07:35:52Z</time></trkpt><trkpt lat="39.55981696102613" lon="9.131055956100088"><ele>231.66666666666669</ele><time>2026-04-25T07:35:53Z</time></trkpt><trkpt lat="39.559910601808575" lon="9.13105291126302"><ele>232.0</ele><time>2026-04-25T07:35:54Z</time></trkpt><trkpt lat="39.55999631954707" lon="9.131048565117876"><ele>232.33333333333334</ele><time>2026-04-25T07:35:55Z</time></trkpt><trkpt lat="39.560074879053985" lon="9.131047515604243"><ele>232.66666666666669</ele><time>2026-04-25T07:35:56Z</time></trkpt><trkpt lat="39.560154855122676" lon="9.131041033588817"><ele>233.0</ele><time>2026-04-25T07:35:57Z</time></trkpt><trkpt lat="39.56023908264287" lon="9.131030962556084"><ele>233.0</ele><time>2026-04-25T07:35:58Z</time></trkpt><trkpt lat="39.56033130102553" lon="9.131020410277701"><ele>233.0</ele><time>2026-04-25T07:35:59Z</time></trkpt><trkpt lat="39.560424628500506" lon="9.13100980174106"><ele>233.0</ele><time>2026-04-25T07:36:00Z</time></trkpt><trkpt lat="39.56052384259555" lon="9.131003211908569"><ele>233.0</ele><time>2026-04-25T07:36:01Z</time></trkpt><trkpt lat="39.560621442367044" lon="9.131007717005232"><ele>233.0</ele><time>2026-04-25T07:36:02Z</time></trkpt><trkpt lat="39.560721865759" lon="9.13101139786582"><ele>234.0</ele><time>2026-04-25T07:36:03Z</time></trkpt><trkpt lat="39.5608213252419" lon="9.131013387749405"><ele>235.0</ele><time>2026-04-25T07:36:04Z</time></trkpt><trkpt lat="39.56091805410312" lon="9.131024731450463"><ele>236.0</ele><time>2026-04-25T07:36:05Z</time></trkpt><trkpt lat="39.56100971220738" lon="9.13105608633704"><ele>237.0</ele><time>2026-04-25T07:36:06Z</time></trkpt><trkpt lat="39.56109321820839" lon="9.131114314025421"><ele>238.0</ele><time>2026-04-25T07:36:07Z</time></trkpt><trkpt lat="39.561162669675326" lon="9.131196560567375"><ele>239.60000000000002</ele><time>2026-04-25T07:36:08Z</time></trkpt><trkpt lat="39.56121333861713" lon="9.131308837790439"><ele>241.20000000000002</ele><time>2026-04-25T07:36:09Z</time></trkpt><trkpt lat="39.561266292444515" lon="9.131417525126524"><ele>242.8</ele><time>2026-04-25T07:36:10Z</time></trkpt><trkpt lat="39.56132536462628" lon="9.131519425448445"><ele>244.4</ele><time>2026-04-25T07:36:11Z</time></trkpt><trkpt lat="39.561385904530596" lon="9.131618513892949"><ele>246.0</ele><time>2026-04-25T07:36:12Z</time></trkpt><trkpt lat="39.56145472977617" lon="9.131709778427446"><ele>246.0</ele><time>2026-04-25T07:36:13Z</time></trkpt><trkpt lat="39.56153496102635" lon="9.131779073527069"><ele>246.00000000000003</ele><time>2026-04-25T07:36:14Z</time></trkpt><trkpt lat="39.56162323554486" lon="9.131826423638907"><ele>246.00000000000003</ele><time>2026-04-25T07:36:15Z</time></trkpt><trkpt lat="39.5617161442252" lon="9.131854636321943"><ele>246.0</ele><time>2026-04-25T07:36:16Z</time></trkpt><trkpt lat="39.561808228225026" lon="9.131884561185151"><ele>246.0</ele><time>2026-04-25T07:36:17Z</time></trkpt><trkpt lat="39.56190178090755" lon="9.1319179412796"><ele>246.0</ele><time>2026-04-25T07:36:18Z</time></trkpt><trkpt lat="39.56199494228421" lon="9.131952789112423"><ele>246.00000000000003</ele><time>2026-04-25T07:36:19Z</time></trkpt><trkpt lat="39.56208580524253" lon="9.131983828444413"><ele>246.00000000000003</ele><time>2026-04-25T07:36:20Z</time></trkpt><trkpt lat="39.56217461263891" lon="9.132016673185793"><ele>246.0</ele><time>2026-04-25T07:36:21Z</time></trkpt><trkpt lat="39.56226149337603" lon="9.13205509162828"><ele>246.0</ele><time>2026-04-25T07:36:22Z</time></trkpt><trkpt lat="39.5623453915562" lon="9.132109070351548"><ele>247.0</ele><time>2026-04-25T07:36:23Z</time></trkpt><trkpt lat="39.56242721840168" lon="9.132171079126206"><ele>248.00000000000003</ele><time>2026-04-25T07:36:24Z</time></trkpt><trkpt lat="39.56250889860836" lon="9.132237786400582"><ele>249.00000000000003</ele><time>2026-04-25T07:36:25Z</time></trkpt><trkpt lat="39.56258429795851" lon="9.132306590197228"><ele>250.0</ele><time>2026-04-25T07:36:26Z</time></trkpt><trkpt lat="39.56266579362129" lon="9.132368786075068"><ele>251.0</ele><time>2026-04-25T07:36:27Z</time></trkpt><trkpt lat="39.562754854973804" lon="9.132410586998006"><ele>251.00000000000003</ele><time>2026-04-25T07:36:28Z</time></trkpt><trkpt lat="39.56284309657508" lon="9.132435777636555"><ele>251.0</ele><time>2026-04-25T07:36:29Z</time></trkpt><trkpt lat="39.562918929167985" lon="9.132463468071247"><ele>251.0</ele><time>2026-04-25T07:36:30Z</time></trkpt><trkpt lat="39.56298793998048" lon="9.132507592031493"><ele>251.0</ele><time>2026-04-25T07:36:31Z</time></trkpt><trkpt lat="39.56305720673916" lon="9.132572879242595"><ele>251.00000000000003</ele><time>2026-04-25T07:36:32Z</time></trkpt><trkpt lat="39.563130081414414" lon="9.132638458256228"><ele>251.0</ele><time>2026-04-25T07:36:33Z</time></trkpt><trkpt lat="39.56320918934085" lon="9.132700927078004"><ele>251.16666666666669</ele><time>2026-04-25T07:36:34Z</time></trkpt><trkpt lat="39.56328041740384" lon="9.13276531368301"><ele>251.33333333333334</ele><time>2026-04-25T07:36:35Z</time></trkpt><trkpt lat="39.56333567193871" lon="9.132835217172405"><ele>251.5</ele><time>2026-04-25T07:36:36Z</time></trkpt><trkpt lat="39.563370271378076" lon="9.132922207721586"><ele>251.66666666666669</ele><time>2026-04-25T07:36:37Z</time></trkpt><trkpt lat="39.563386516892955" lon="9.133026907737026"><ele>251.83333333333334</ele><time>2026-04-25T07:36:38Z</time></trkpt><trkpt lat="39.56340027723526" lon="9.133138525186535"><ele>252.0</ele><time>2026-04-25T07:36:39Z</time></trkpt><trkpt lat="39.56342570627239" lon="9.13325190927722"><ele>252.0</ele><time>2026-04-25T07:36:40Z</time></trkpt><trkpt lat="39.56344371376172" lon="9.133371163787764"><ele>252.0</ele><time>2026-04-25T07:36:41Z</time></trkpt><trkpt lat="39.563453179850704" lon="9.133492355494711"><ele>252.0</ele><time>2026-04-25T07:36:42Z</time></trkpt><trkpt lat="39.56350688422069" lon="9.133600713110612"><ele>252.0</ele><time>2026-04-25T07:36:43Z</time></trkpt><trkpt lat="39.56355979725327" lon="9.133696585314532"><ele>252.0</ele><time>2026-04-25T07:36:44Z</time></trkpt><trkpt lat="39.56361629550808" lon="9.133795636838334"><ele>252.0</ele><time>2026-04-25T07:36:45Z</time></trkpt><trkpt lat="39.563671286647775" lon="9.133891750489683"><ele>252.0</ele><time>2026-04-25T07:36:46Z</time></trkpt><trkpt lat="39.56372013476426" lon="9.133984853737424"><ele>252.0</ele><time>2026-04-25T07:36:47Z</time></trkpt><trkpt lat="39.56376853488991" lon="9.134066166319068"><ele>252.0</ele><time>2026-04-25T07:36:48Z</time></trkpt><trkpt lat="39.563811115992316" lon="9.134140035780213"><ele>252.0</ele><time>2026-04-25T07:36:49Z</time></trkpt><trkpt lat="39.563847464131086" lon="9.134247031798697"><ele>252.0</ele><time>2026-04-25T07:36:51Z</time></trkpt><trkpt lat="39.56384987729227" lon="9.134332318162283"><ele>252.5</ele><time>2026-04-25T07:36:53Z</time></trkpt><trkpt lat="39.563829412615966" lon="9.13447421576806"><ele>253.0</ele><time>2026-04-25T07:36:55Z</time></trkpt><trkpt lat="39.56383721384978" lon="9.134567501571913"><ele>253.5</ele><time>2026-04-25T07:36:56Z</time></trkpt><trkpt lat="39.563846213995554" lon="9.134672252100971"><ele>254.0</ele><time>2026-04-25T07:36:57Z</time></trkpt><trkpt lat="39.56385588337845" lon="9.134784792275768"><ele>254.5</ele><time>2026-04-25T07:36:58Z</time></trkpt><trkpt lat="39.563866905139946" lon="9.134907794960172"><ele>255.0</ele><time>2026-04-25T07:36:59Z</time></trkpt><trkpt lat="39.56389255476947" lon="9.135036716496757"><ele>255.0</ele><time>2026-04-25T07:37:00Z</time></trkpt><trkpt lat="39.56390513579609" lon="9.135172209746393"><ele>255.0</ele><time>2026-04-25T07:37:01Z</time></trkpt><trkpt lat="39.56391760813014" lon="9.135311094784253"><ele>255.0</ele><time>2026-04-25T07:37:02Z</time></trkpt><trkpt lat="39.56392640511119" lon="9.135454578645154"><ele>255.0</ele><time>2026-04-25T07:37:03Z</time></trkpt><trkpt lat="39.56393734391906" lon="9.13560297772099"><ele>255.0</ele><time>2026-04-25T07:37:04Z</time></trkpt><trkpt lat="39.56394961082066" lon="9.135749909359015"><ele>254.4</ele><time>2026-04-25T07:37:05Z</time></trkpt><trkpt lat="39.56396434637864" lon="9.135885236559577"><ele>253.8</ele><time>2026-04-25T07:37:06Z</time></trkpt><trkpt lat="39.56397713437105" lon="9.136010112146357"><ele>253.2</ele><time>2026-04-25T07:37:07Z</time></trkpt><trkpt lat="39.56397717368482" lon="9.136139489461643"><ele>252.6</ele><time>2026-04-25T07:37:08Z</time></trkpt><trkpt lat="39.56400060040069" lon="9.13625014413242"><ele>252.0</ele><time>2026-04-25T07:37:09Z</time></trkpt><trkpt lat="39.56400425034985" lon="9.136383356949459"><ele>252.0</ele><time>2026-04-25T07:37:10Z</time></trkpt><trkpt lat="39.564003502316105" lon="9.136526333310226"><ele>252.0</ele><time>2026-04-25T07:37:11Z</time></trkpt><trkpt lat="39.56398963743469" lon="9.136675151752533"><ele>252.0</ele><time>2026-04-25T07:37:12Z</time></trkpt><trkpt lat="39.56395671037626" lon="9.136828277848723"><ele>252.0</ele><time>2026-04-25T07:37:13Z</time></trkpt><trkpt lat="39.56391974762169" lon="9.136980330731763"><ele>251.75</ele><time>2026-04-25T07:37:14Z</time></trkpt><trkpt lat="39.56386743112123" lon="9.137131751964606"><ele>251.5</ele><time>2026-04-25T07:37:15Z</time></trkpt><trkpt lat="39.563807555388294" lon="9.137281633697121"><ele>251.25</ele><time>2026-04-25T07:37:16Z</time></trkpt><trkpt lat="39.563742507575824" lon="9.13743060345448"><ele>251.0</ele><time>2026-04-25T07:37:17Z</time></trkpt><trkpt lat="39.56368265802647" lon="9.137579523073432"><ele>249.75</ele><time>2026-04-25T07:37:18Z</time></trkpt><trkpt lat="39.56361481244712" lon="9.13773029206121"><ele>248.5</ele><time>2026-04-25T07:37:19Z</time></trkpt><trkpt lat="39.56356882214167" lon="9.137889423637256"><ele>247.25</ele><time>2026-04-25T07:37:20Z</time></trkpt><trkpt lat="39.56350241728845" lon="9.138039559891526"><ele>246.0</ele><time>2026-04-25T07:37:21Z</time></trkpt><trkpt lat="39.56344442524397" lon="9.138201330845543"><ele>246.25</ele><time>2026-04-25T07:37:22Z</time></trkpt><trkpt lat="39.56340022985097" lon="9.138372933897676"><ele>246.5</ele><time>2026-04-25T07:37:23Z</time></trkpt><trkpt lat="39.56336547098429" lon="9.138550968447282"><ele>246.75</ele><time>2026-04-25T07:37:24Z</time></trkpt><trkpt lat="39.56334478570511" lon="9.138732962430536"><ele>247.0</ele><time>2026-04-25T07:37:25Z</time></trkpt><trkpt lat="39.563337761476866" lon="9.138917825578242"><ele>246.75</ele><time>2026-04-25T07:37:26Z</time></trkpt><trkpt lat="39.56334205174577" lon="9.13910450389749"><ele>246.5</ele><time>2026-04-25T07:37:27Z</time></trkpt><trkpt lat="39.56335551150695" lon="9.139289289595297"><ele>246.25</ele><time>2026-04-25T07:37:28Z</time></trkpt><trkpt lat="39.56337055403095" lon="9.139471430388522"><ele>246.0</ele><time>2026-04-25T07:37:29Z</time></trkpt><trkpt lat="39.563382991911986" lon="9.139654141220555"><ele>246.0</ele><time>2026-04-25T07:37:30Z</time></trkpt><trkpt lat="39.56339387631766" lon="9.139836413536829"><ele>246.0</ele><time>2026-04-25T07:37:31Z</time></trkpt><trkpt lat="39.563406949341896" lon="9.140017817175664"><ele>246.0</ele><time>2026-04-25T07:37:32Z</time></trkpt><trkpt lat="39.56341866034845" lon="9.140197397876763"><ele>246.0</ele><time>2026-04-25T07:37:33Z</time></trkpt><trkpt lat="39.56343110640845" lon="9.140378109419066"><ele>245.75</ele><time>2026-04-25T07:37:34Z</time></trkpt><trkpt lat="39.56344468265971" lon="9.140554950375433"><ele>245.5</ele><time>2026-04-25T07:37:35Z</time></trkpt><trkpt lat="39.56345479771634" lon="9.140729076209594"><ele>245.25</ele><time>2026-04-25T07:37:36Z</time></trkpt><trkpt lat="39.56346402741304" lon="9.140900675859815"><ele>245.0</ele><time>2026-04-25T07:37:37Z</time></trkpt><trkpt lat="39.563477299138654" lon="9.141067281796959"><ele>245.0</ele><time>2026-04-25T07:37:38Z</time></trkpt><trkpt lat="39.56349122251588" lon="9.141230302196384"><ele>245.0</ele><time>2026-04-25T07:37:39Z</time></trkpt><trkpt lat="39.5635039852822" lon="9.1413757195926"><ele>245.0</ele><time>2026-04-25T07:37:40Z</time></trkpt><trkpt lat="39.56350449957894" lon="9.141498121799605"><ele>245.0</ele><time>2026-04-25T07:37:41Z</time></trkpt><trkpt lat="39.56352184775355" lon="9.141616558976555"><ele>245.0</ele><time>2026-04-25T07:37:42Z</time></trkpt><trkpt lat="39.56352040846326" lon="9.141723664839047"><ele>245.2</ele><time>2026-04-25T07:37:43Z</time></trkpt><trkpt lat="39.5635230411762" lon="9.141818964433154"><ele>245.4</ele><time>2026-04-25T07:37:44Z</time></trkpt><trkpt lat="39.563535214782014" lon="9.141949467127391"><ele>245.60000000000002</ele><time>2026-04-25T07:37:45Z</time></trkpt><trkpt lat="39.56354046891472" lon="9.142087953291421"><ele>245.8</ele><time>2026-04-25T07:37:46Z</time></trkpt><trkpt lat="39.563546317610694" lon="9.142243122954644"><ele>246.0</ele><time>2026-04-25T07:37:47Z</time></trkpt><trkpt lat="39.563551274622675" lon="9.142400039011603"><ele>245.25</ele><time>2026-04-25T07:37:48Z</time></trkpt><trkpt lat="39.563564539995596" lon="9.14256642153326"><ele>244.5</ele><time>2026-04-25T07:37:49Z</time></trkpt><trkpt lat="39.563578706320925" lon="9.142734876046728"><ele>243.75</ele><time>2026-04-25T07:37:50Z</time></trkpt><trkpt lat="39.56359346504052" lon="9.142906095152565"><ele>243.0</ele><time>2026-04-25T07:37:51Z</time></trkpt><trkpt lat="39.56360600603137" lon="9.143085485704487"><ele>242.25</ele><time>2026-04-25T07:37:52Z</time></trkpt><trkpt lat="39.56361681298631" lon="9.143268757595152"><ele>241.5</ele><time>2026-04-25T07:37:53Z</time></trkpt><trkpt lat="39.563631168311346" lon="9.14345511040382"><ele>240.75</ele><time>2026-04-25T07:37:54Z</time></trkpt><trkpt lat="39.563648294840334" lon="9.143644965320846"><ele>240.0</ele><time>2026-04-25T07:37:55Z</time></trkpt><trkpt lat="39.56366312358674" lon="9.14383804712161"><ele>240.0</ele><time>2026-04-25T07:37:56Z</time></trkpt><trkpt lat="39.56367491843536" lon="9.144031066877869"><ele>240.0</ele><time>2026-04-25T07:37:57Z</time></trkpt><trkpt lat="39.56368560013583" lon="9.144226434068303"><ele>240.0</ele><time>2026-04-25T07:37:58Z</time></trkpt><trkpt lat="39.56369683307925" lon="9.144419723321091"><ele>240.5</ele><time>2026-04-25T07:37:59Z</time></trkpt><trkpt lat="39.563708919093465" lon="9.144612167024105"><ele>241.0</ele><time>2026-04-25T07:38:00Z</time></trkpt><trkpt lat="39.563721594114504" lon="9.144804007594567"><ele>241.5</ele><time>2026-04-25T07:38:01Z</time></trkpt><trkpt lat="39.563734906883234" lon="9.144997377833581"><ele>242.0</ele><time>2026-04-25T07:38:02Z</time></trkpt><trkpt lat="39.56374847270204" lon="9.145189884939777"><ele>242.0</ele><time>2026-04-25T07:38:03Z</time></trkpt><trkpt lat="39.56376241099021" lon="9.145380505816417"><ele>242.0</ele><time>2026-04-25T07:38:04Z</time></trkpt><trkpt lat="39.56377665069077" lon="9.14557314252865"><ele>242.0</ele><time>2026-04-25T07:38:05Z</time></trkpt><trkpt lat="39.56379018956562" lon="9.145767714179492"><ele>242.0</ele><time>2026-04-25T07:38:06Z</time></trkpt><trkpt lat="39.5638027797158" lon="9.145959934039006"><ele>242.25</ele><time>2026-04-25T07:38:07Z</time></trkpt><trkpt lat="39.56381495446128" lon="9.146152138859767"><ele>242.5</ele><time>2026-04-25T07:38:08Z</time></trkpt><trkpt lat="39.56382844666178" lon="9.146343821145443"><ele>242.75</ele><time>2026-04-25T07:38:09Z</time></trkpt><trkpt lat="39.563842167083884" lon="9.146534346562234"><ele>243.0</ele><time>2026-04-25T07:38:10Z</time></trkpt><trkpt lat="39.563852512302816" lon="9.146724249906436"><ele>243.25</ele><time>2026-04-25T07:38:11Z</time></trkpt><trkpt lat="39.56386187150898" lon="9.146914748836444"><ele>243.5</ele><time>2026-04-25T07:38:12Z</time></trkpt><trkpt lat="39.56387347380634" lon="9.147107607081454"><ele>243.75</ele><time>2026-04-25T07:38:13Z</time></trkpt><trkpt lat="39.563887386513066" lon="9.147300851404735"><ele>244.0</ele><time>2026-04-25T07:38:14Z</time></trkpt><trkpt lat="39.56390386527354" lon="9.147494230922119"><ele>244.0</ele><time>2026-04-25T07:38:15Z</time></trkpt><trkpt lat="39.56391511452391" lon="9.147691157936597"><ele>244.0</ele><time>2026-04-25T07:38:16Z</time></trkpt><trkpt lat="39.563928359036034" lon="9.14789282765003"><ele>244.0</ele><time>2026-04-25T07:38:17Z</time></trkpt><trkpt lat="39.56394397211122" lon="9.148100685907549"><ele>244.0</ele><time>2026-04-25T07:38:18Z</time></trkpt><trkpt lat="39.56395735326766" lon="9.148303739815043"><ele>244.0</ele><time>2026-04-25T07:38:19Z</time></trkpt><trkpt lat="39.56397043757691" lon="9.148514005032265"><ele>244.0</ele><time>2026-04-25T07:38:20Z</time></trkpt><trkpt lat="39.56398372503956" lon="9.148728933399566"><ele>244.0</ele><time>2026-04-25T07:38:21Z</time></trkpt><trkpt lat="39.56399815186201" lon="9.14894101461981"><ele>244.0</ele><time>2026-04-25T07:38:22Z</time></trkpt><trkpt lat="39.56401139093639" lon="9.149158062431374"><ele>244.0</ele><time>2026-04-25T07:38:23Z</time></trkpt><trkpt lat="39.56402516017709" lon="9.149373866796418"><ele>243.66666666666666</ele><time>2026-04-25T07:38:24Z</time></trkpt><trkpt lat="39.5640390557705" lon="9.149590541839304"><ele>243.33333333333331</ele><time>2026-04-25T07:38:25Z</time></trkpt><trkpt lat="39.564051489271414" lon="9.149807077506535"><ele>243.0</ele><time>2026-04-25T07:38:26Z</time></trkpt><trkpt lat="39.56406566175707" lon="9.15002464674691"><ele>243.0</ele><time>2026-04-25T07:38:27Z</time></trkpt><trkpt lat="39.564082011256176" lon="9.150239781323238"><ele>243.0</ele><time>2026-04-25T07:38:28Z</time></trkpt><trkpt lat="39.564093145914704" lon="9.150457845440625"><ele>243.0</ele><time>2026-04-25T07:38:29Z</time></trkpt><trkpt lat="39.5641087477107" lon="9.150675338205637"><ele>243.0</ele><time>2026-04-25T07:38:30Z</time></trkpt><trkpt lat="39.56412402089876" lon="9.150892225394385"><ele>243.0</ele><time>2026-04-25T07:38:31Z</time></trkpt><trkpt lat="39.56413568402017" lon="9.15111051902774"><ele>243.0</ele><time>2026-04-25T07:38:32Z</time></trkpt><trkpt lat="39.56415251748103" lon="9.151328729029366"><ele>243.66666666666669</ele><time>2026-04-25T07:38:33Z</time></trkpt><trkpt lat="39.56417268341434" lon="9.151546862228832"><ele>244.33333333333334</ele><time>2026-04-25T07:38:34Z</time></trkpt><trkpt lat="39.56418446048284" lon="9.151768010875507"><ele>245.0</ele><time>2026-04-25T07:38:35Z</time></trkpt><trkpt lat="39.5641980350706" lon="9.151983156946775"><ele>245.0</ele><time>2026-04-25T07:38:36Z</time></trkpt><trkpt lat="39.56422319808602" lon="9.152200456063635"><ele>245.0</ele><time>2026-04-25T07:38:37Z</time></trkpt><trkpt lat="39.564230626803194" lon="9.15241635322146"><ele>245.0</ele><time>2026-04-25T07:38:38Z</time></trkpt><trkpt lat="39.56424628250141" lon="9.152628612150208"><ele>244.66666666666669</ele><time>2026-04-25T07:38:39Z</time></trkpt><trkpt lat="39.56426273351146" lon="9.15285414848377"><ele>244.33333333333331</ele><time>2026-04-25T07:38:40Z</time></trkpt><trkpt lat="39.56427407533809" lon="9.153069904866358"><ele>244.0</ele><time>2026-04-25T07:38:41Z</time></trkpt><trkpt lat="39.56428715203713" lon="9.153291710062236"><ele>243.66666666666666</ele><time>2026-04-25T07:38:42Z</time></trkpt><trkpt lat="39.564301666174025" lon="9.15351292703908"><ele>243.33333333333331</ele><time>2026-04-25T07:38:43Z</time></trkpt><trkpt lat="39.56431711931876" lon="9.153732599679557"><ele>243.0</ele><time>2026-04-25T07:38:44Z</time></trkpt><trkpt lat="39.564333010378654" lon="9.153952126624866"><ele>241.33333333333331</ele><time>2026-04-25T07:38:45Z</time></trkpt><trkpt lat="39.56434926443137" lon="9.15417410806297"><ele>239.66666666666666</ele><time>2026-04-25T07:38:46Z</time></trkpt><trkpt lat="39.56436344908991" lon="9.154397442045617"><ele>238.0</ele><time>2026-04-25T07:38:47Z</time></trkpt><trkpt lat="39.56437824138336" lon="9.154623230312074"><ele>238.0</ele><time>2026-04-25T07:38:48Z</time></trkpt><trkpt lat="39.56439198106054" lon="9.154846693943108"><ele>238.0</ele><time>2026-04-25T07:38:49Z</time></trkpt><trkpt lat="39.56440486063094" lon="9.155069269310438"><ele>238.0</ele><time>2026-04-25T07:38:50Z</time></trkpt><trkpt lat="39.56441768329594" lon="9.155290350376422"><ele>238.0</ele><time>2026-04-25T07:38:51Z</time></trkpt><trkpt lat="39.5644314706971" lon="9.155511474352307"><ele>238.0</ele><time>2026-04-25T07:38:52Z</time></trkpt><trkpt lat="39.56444536233173" lon="9.15573125704442"><ele>238.0</ele><time>2026-04-25T07:38:53Z</time></trkpt><trkpt lat="39.56445977775665" lon="9.155951386277078"><ele>238.0</ele><time>2026-04-25T07:38:54Z</time></trkpt><trkpt lat="39.56447434568933" lon="9.156168719093872"><ele>238.0</ele><time>2026-04-25T07:38:55Z</time></trkpt><trkpt lat="39.56449015172995" lon="9.156387545300504"><ele>238.0</ele><time>2026-04-25T07:38:56Z</time></trkpt><trkpt lat="39.56450554303869" lon="9.156604242929664"><ele>239.0</ele><time>2026-04-25T07:38:57Z</time></trkpt><trkpt lat="39.56452018783718" lon="9.156823537985877"><ele>240.0</ele><time>2026-04-25T07:38:58Z</time></trkpt><trkpt lat="39.56453449430313" lon="9.157043973016185"><ele>241.0</ele><time>2026-04-25T07:38:59Z</time></trkpt><trkpt lat="39.56454793150911" lon="9.15726368621775"><ele>242.0</ele><time>2026-04-25T07:39:00Z</time></trkpt><trkpt lat="39.56456179465602" lon="9.15748377604305"><ele>243.0</ele><time>2026-04-25T07:39:01Z</time></trkpt><trkpt lat="39.56457604560775" lon="9.157700605125328"><ele>244.0</ele><time>2026-04-25T07:39:02Z</time></trkpt><trkpt lat="39.56459026423894" lon="9.157920556544244"><ele>244.0</ele><time>2026-04-25T07:39:03Z</time></trkpt><trkpt lat="39.56460677456476" lon="9.158142901893074"><ele>244.0</ele><time>2026-04-25T07:39:04Z</time></trkpt><trkpt lat="39.56462276970097" lon="9.158364405192811"><ele>244.0</ele><time>2026-04-25T07:39:05Z</time></trkpt><trkpt lat="39.5646364796408" lon="9.158585858053923"><ele>245.33333333333331</ele><time>2026-04-25T07:39:06Z</time></trkpt><trkpt lat="39.56464929500327" lon="9.158805635157147"><ele>246.66666666666669</ele><time>2026-04-25T07:39:07Z</time></trkpt><trkpt lat="39.56466182558833" lon="9.159023515566261"><ele>248.0</ele><time>2026-04-25T07:39:08Z</time></trkpt><trkpt lat="39.564676072826735" lon="9.159238271851658"><ele>248.66666666666669</ele><time>2026-04-25T07:39:09Z</time></trkpt><trkpt lat="39.56469083376246" lon="9.159449747896883"><ele>249.33333333333331</ele><time>2026-04-25T07:39:10Z</time></trkpt><trkpt lat="39.564705468488" lon="9.159662573962539"><ele>250.0</ele><time>2026-04-25T07:39:11Z</time></trkpt><trkpt lat="39.564718544069954" lon="9.159870449590596"><ele>250.33333333333331</ele><time>2026-04-25T07:39:12Z</time></trkpt><trkpt lat="39.56473136685404" lon="9.16008003272307"><ele>250.66666666666669</ele><time>2026-04-25T07:39:13Z</time></trkpt><trkpt lat="39.56474676146117" lon="9.160282720724323"><ele>251.0</ele><time>2026-04-25T07:39:14Z</time></trkpt><trkpt lat="39.56475994179729" lon="9.160482456235444"><ele>251.0</ele><time>2026-04-25T07:39:15Z</time></trkpt><trkpt lat="39.564773419063016" lon="9.160681350607243"><ele>251.0</ele><time>2026-04-25T07:39:16Z</time></trkpt><trkpt lat="39.56478684041921" lon="9.160880406436762"><ele>251.0</ele><time>2026-04-25T07:39:17Z</time></trkpt><trkpt lat="39.56480049637819" lon="9.161077666874913"><ele>252.0</ele><time>2026-04-25T07:39:18Z</time></trkpt><trkpt lat="39.56481497872654" lon="9.16127311616519"><ele>253.0</ele><time>2026-04-25T07:39:19Z</time></trkpt><trkpt lat="39.56482804047698" lon="9.161467224250512"><ele>254.0</ele><time>2026-04-25T07:39:20Z</time></trkpt><trkpt lat="39.56483993849779" lon="9.16165931170861"><ele>254.5</ele><time>2026-04-25T07:39:21Z</time></trkpt><trkpt lat="39.56485276754918" lon="9.161847212622357"><ele>255.0</ele><time>2026-04-25T07:39:22Z</time></trkpt><trkpt lat="39.5648641958895" lon="9.162030120813286"><ele>255.5</ele><time>2026-04-25T07:39:23Z</time></trkpt><trkpt lat="39.56487592367865" lon="9.162212852829722"><ele>256.0</ele><time>2026-04-25T07:39:24Z</time></trkpt><trkpt lat="39.56488825322283" lon="9.16239561584134"><ele>256.0</ele><time>2026-04-25T07:39:25Z</time></trkpt><trkpt lat="39.564899833348925" lon="9.162576226000294"><ele>256.0</ele><time>2026-04-25T07:39:26Z</time></trkpt><trkpt lat="39.56491058927196" lon="9.162754014727438"><ele>256.0</ele><time>2026-04-25T07:39:27Z</time></trkpt><trkpt lat="39.56492302487494" lon="9.162934532505146"><ele>256.0</ele><time>2026-04-25T07:39:28Z</time></trkpt><trkpt lat="39.56493834635302" lon="9.163108964665739"><ele>256.25</ele><time>2026-04-25T07:39:29Z</time></trkpt><trkpt lat="39.56495612781638" lon="9.16328274320031"><ele>256.5</ele><time>2026-04-25T07:39:30Z</time></trkpt><trkpt lat="39.56498130938229" lon="9.163455107593323"><ele>256.75</ele><time>2026-04-25T07:39:31Z</time></trkpt><trkpt lat="39.5650175902662" lon="9.163623123156494"><ele>257.0</ele><time>2026-04-25T07:39:32Z</time></trkpt><trkpt lat="39.5650572685989" lon="9.163789434078247"><ele>257.0</ele><time>2026-04-25T07:39:33Z</time></trkpt><trkpt lat="39.565099254571486" lon="9.163954764113456"><ele>257.0</ele><time>2026-04-25T07:39:34Z</time></trkpt><trkpt lat="39.56514897729552" lon="9.164115479785613"><ele>257.0</ele><time>2026-04-25T07:39:35Z</time></trkpt><trkpt lat="39.56520639474497" lon="9.164269918401489"><ele>257.0</ele><time>2026-04-25T07:39:36Z</time></trkpt><trkpt lat="39.56526623092216" lon="9.164422227307217"><ele>257.25</ele><time>2026-04-25T07:39:37Z</time></trkpt><trkpt lat="39.56532884803836" lon="9.164568702114385"><ele>257.5</ele><time>2026-04-25T07:39:38Z</time></trkpt><trkpt lat="39.56539667171066" lon="9.16470745065616"><ele>257.75</ele><time>2026-04-25T07:39:39Z</time></trkpt><trkpt lat="39.565457737915146" lon="9.16484117619054"><ele>258.0</ele><time>2026-04-25T07:39:40Z</time></trkpt><trkpt lat="39.565522304936216" lon="9.164965839533938"><ele>258.6</ele><time>2026-04-25T07:39:41Z</time></trkpt><trkpt lat="39.56558652675397" lon="9.165080115019373"><ele>259.20000000000005</ele><time>2026-04-25T07:39:42Z</time></trkpt><trkpt lat="39.56564970107141" lon="9.165184985174154"><ele>259.8</ele><time>2026-04-25T07:39:43Z</time></trkpt><trkpt lat="39.565714295758475" lon="9.165277768877615"><ele>260.40000000000003</ele><time>2026-04-25T07:39:44Z</time></trkpt><trkpt lat="39.5657876596295" lon="9.16534350714039"><ele>261.0</ele><time>2026-04-25T07:39:45Z</time></trkpt><trkpt lat="39.56587374602478" lon="9.165378488474023"><ele>261.0</ele><time>2026-04-25T07:39:46Z</time></trkpt><trkpt lat="39.56596744777055" lon="9.165390332338177"><ele>261.0</ele><time>2026-04-25T07:39:47Z</time></trkpt><trkpt lat="39.56606342041534" lon="9.165392977568388"><ele>261.0</ele><time>2026-04-25T07:39:48Z</time></trkpt><trkpt lat="39.5661580262927" lon="9.165364696380685"><ele>261.0</ele><time>2026-04-25T07:39:49Z</time></trkpt><trkpt lat="39.56624486431633" lon="9.165294368313974"><ele>261.0</ele><time>2026-04-25T07:39:50Z</time></trkpt><trkpt lat="39.56632585581991" lon="9.165207244766165"><ele>261.25</ele><time>2026-04-25T07:39:51Z</time></trkpt><trkpt lat="39.56641102434319" lon="9.165120957407373"><ele>261.5</ele><time>2026-04-25T07:39:52Z</time></trkpt><trkpt lat="39.56650059785864" lon="9.165032334264605"><ele>261.75</ele><time>2026-04-25T07:39:53Z</time></trkpt><trkpt lat="39.56659655245716" lon="9.164945111422146"><ele>262.0</ele><time>2026-04-25T07:39:54Z</time></trkpt><trkpt lat="39.56669130686958" lon="9.164853974617774"><ele>262.0</ele><time>2026-04-25T07:39:55Z</time></trkpt><trkpt lat="39.56678873933464" lon="9.164763401461038"><ele>262.0</ele><time>2026-04-25T07:39:56Z</time></trkpt><trkpt lat="39.56688742729651" lon="9.164671117745772"><ele>262.0</ele><time>2026-04-25T07:39:57Z</time></trkpt><trkpt lat="39.56698606439721" lon="9.164574400870132"><ele>262.0</ele><time>2026-04-25T07:39:58Z</time></trkpt><trkpt lat="39.56708717879771" lon="9.164480310159343"><ele>263.0</ele><time>2026-04-25T07:39:59Z</time></trkpt><trkpt lat="39.5671892015837" lon="9.164386166004544"><ele>264.0</ele><time>2026-04-25T07:40:00Z</time></trkpt><trkpt lat="39.56729065374082" lon="9.164290358596475"><ele>265.0</ele><time>2026-04-25T07:40:01Z</time></trkpt><trkpt lat="39.56739340794168" lon="9.164194120595157"><ele>266.0</ele><time>2026-04-25T07:40:02Z</time></trkpt><trkpt lat="39.5674975607664" lon="9.164102023616689"><ele>265.5</ele><time>2026-04-25T07:40:03Z</time></trkpt><trkpt lat="39.56760556386497" lon="9.164013563412581"><ele>265.0</ele><time>2026-04-25T07:40:04Z</time></trkpt><trkpt lat="39.5677186550092" lon="9.163930097170324"><ele>264.5</ele><time>2026-04-25T07:40:05Z</time></trkpt><trkpt lat="39.56783374207438" lon="9.163848320959056"><ele>264.0</ele><time>2026-04-25T07:40:06Z</time></trkpt><trkpt lat="39.56794827379457" lon="9.163772735213577"><ele>264.0</ele><time>2026-04-25T07:40:07Z</time></trkpt><trkpt lat="39.56806431224094" lon="9.163703497716117"><ele>264.0</ele><time>2026-04-25T07:40:08Z</time></trkpt><trkpt lat="39.56819722678369" lon="9.163646789014985"><ele>264.0</ele><time>2026-04-25T07:40:09Z</time></trkpt><trkpt lat="39.56832848403473" lon="9.163599858340241"><ele>264.0</ele><time>2026-04-25T07:40:10Z</time></trkpt><trkpt lat="39.568462962162904" lon="9.163565228708983"><ele>264.0</ele><time>2026-04-25T07:40:11Z</time></trkpt><trkpt lat="39.568601070199506" lon="9.163546956502275"><ele>264.0</ele><time>2026-04-25T07:40:12Z</time></trkpt><trkpt lat="39.56874058448663" lon="9.163538421988168"><ele>264.0</ele><time>2026-04-25T07:40:13Z</time></trkpt><trkpt lat="39.568880634561104" lon="9.163537990526672"><ele>264.0</ele><time>2026-04-25T07:40:14Z</time></trkpt><trkpt lat="39.569021880172755" lon="9.163563844494263"><ele>264.5</ele><time>2026-04-25T07:40:15Z</time></trkpt><trkpt lat="39.569164235436425" lon="9.163590661502345"><ele>265.0</ele><time>2026-04-25T07:40:16Z</time></trkpt><trkpt lat="39.56930773757668" lon="9.16361547952995"><ele>265.5</ele><time>2026-04-25T07:40:17Z</time></trkpt><trkpt lat="39.569451269340185" lon="9.163639803503528"><ele>266.0</ele><time>2026-04-25T07:40:18Z</time></trkpt><trkpt lat="39.56959684514272" lon="9.163666788005742"><ele>266.25</ele><time>2026-04-25T07:40:19Z</time></trkpt><trkpt lat="39.569741100074" lon="9.163703912668566"><ele>266.5</ele><time>2026-04-25T07:40:20Z</time></trkpt><trkpt lat="39.56989118796549" lon="9.163742240515138"><ele>266.75</ele><time>2026-04-25T07:40:21Z</time></trkpt><trkpt lat="39.57003774521354" lon="9.163776242694668"><ele>267.0</ele><time>2026-04-25T07:40:22Z</time></trkpt><trkpt lat="39.57018491741597" lon="9.163809805986238"><ele>267.0</ele><time>2026-04-25T07:40:23Z</time></trkpt><trkpt lat="39.570336226853726" lon="9.163838929031037"><ele>267.0</ele><time>2026-04-25T07:40:24Z</time></trkpt><trkpt lat="39.57048391426899" lon="9.163870075164585"><ele>267.0</ele><time>2026-04-25T07:40:25Z</time></trkpt><trkpt lat="39.57063467608292" lon="9.163902233343762"><ele>268.6666666666667</ele><time>2026-04-25T07:40:26Z</time></trkpt><trkpt lat="39.57078829200473" lon="9.16393678114107"><ele>270.33333333333337</ele><time>2026-04-25T07:40:27Z</time></trkpt><trkpt lat="39.570944126186824" lon="9.163969170170773"><ele>272.0</ele><time>2026-04-25T07:40:28Z</time></trkpt><trkpt lat="39.57110081820227" lon="9.164005248977302"><ele>273.33333333333337</ele><time>2026-04-25T07:40:29Z</time></trkpt><trkpt lat="39.57125814535123" lon="9.164036733855406"><ele>274.6666666666667</ele><time>2026-04-25T07:40:30Z</time></trkpt><trkpt lat="39.57141339838303" lon="9.16407626400698"><ele>276.0</ele><time>2026-04-25T07:40:31Z</time></trkpt><trkpt lat="39.57157121915196" lon="9.16410995654079"><ele>276.0</ele><time>2026-04-25T07:40:32Z</time></trkpt><trkpt lat="39.57172942544756" lon="9.164142339151844"><ele>276.0</ele><time>2026-04-25T07:40:33Z</time></trkpt><trkpt lat="39.57189021591492" lon="9.164176222674826"><ele>276.0</ele><time>2026-04-25T07:40:34Z</time></trkpt><trkpt lat="39.57205303510552" lon="9.164209743026754"><ele>278.3333333333333</ele><time>2026-04-25T07:40:35Z</time></trkpt><trkpt lat="39.57221482776578" lon="9.164242451496316"><ele>280.66666666666663</ele><time>2026-04-25T07:40:36Z</time></trkpt><trkpt lat="39.572376016534314" lon="9.164275990461727"><ele>283.0</ele><time>2026-04-25T07:40:37Z</time></trkpt><trkpt lat="39.5725384140923" lon="9.164311722221415"><ele>283.0</ele><time>2026-04-25T07:40:38Z</time></trkpt><trkpt lat="39.57270213983951" lon="9.164348889001626"><ele>283.0</ele><time>2026-04-25T07:40:39Z</time></trkpt><trkpt lat="39.57286487433793" lon="9.164386881208076"><ele>283.0</ele><time>2026-04-25T07:40:40Z</time></trkpt><trkpt lat="39.57303046945216" lon="9.164420184121482"><ele>285.0</ele><time>2026-04-25T07:40:41Z</time></trkpt><trkpt lat="39.57319819237633" lon="9.164454859894416"><ele>287.0</ele><time>2026-04-25T07:40:42Z</time></trkpt><trkpt lat="39.57336156422878" lon="9.164492773798985"><ele>289.0</ele><time>2026-04-25T07:40:43Z</time></trkpt><trkpt lat="39.57352880142175" lon="9.164528100426978"><ele>290.3333333333333</ele><time>2026-04-25T07:40:44Z</time></trkpt><trkpt lat="39.573692570288635" lon="9.164564270509416"><ele>291.6666666666667</ele><time>2026-04-25T07:40:45Z</time></trkpt><trkpt lat="39.573855115318864" lon="9.164598783341859"><ele>293.0</ele><time>2026-04-25T07:40:46Z</time></trkpt><trkpt lat="39.57401411789343" lon="9.164636921008594"><ele>293.0</ele><time>2026-04-25T07:40:47Z</time></trkpt><trkpt lat="39.574177534044516" lon="9.164667616461468"><ele>293.0</ele><time>2026-04-25T07:40:48Z</time></trkpt><trkpt lat="39.574342009566436" lon="9.164684956469221"><ele>293.0</ele><time>2026-04-25T07:40:49Z</time></trkpt><trkpt lat="39.57451123486952" lon="9.16469465572532"><ele>294.33333333333337</ele><time>2026-04-25T07:40:50Z</time></trkpt><trkpt lat="39.5746785216484" lon="9.164709565871892"><ele>295.6666666666667</ele><time>2026-04-25T07:40:51Z</time></trkpt><trkpt lat="39.574846517519006" lon="9.164724643615116"><ele>297.0</ele><time>2026-04-25T07:40:52Z</time></trkpt><trkpt lat="39.57501254004572" lon="9.16473628326254"><ele>297.0</ele><time>2026-04-25T07:40:53Z</time></trkpt><trkpt lat="39.575183944952954" lon="9.164736357464077"><ele>297.0</ele><time>2026-04-25T07:40:54Z</time></trkpt><trkpt lat="39.57535600452942" lon="9.164738255465409"><ele>297.0</ele><time>2026-04-25T07:40:55Z</time></trkpt><trkpt lat="39.575526792641135" lon="9.16472787296663"><ele>296.0</ele><time>2026-04-25T07:40:56Z</time></trkpt><trkpt lat="39.575702173921215" lon="9.164699985897311"><ele>295.0</ele><time>2026-04-25T07:40:57Z</time></trkpt><trkpt lat="39.57587984620534" lon="9.164659467287704"><ele>294.0</ele><time>2026-04-25T07:40:58Z</time></trkpt><trkpt lat="39.57605930085665" lon="9.164616554108646"><ele>293.6666666666667</ele><time>2026-04-25T07:40:59Z</time></trkpt><trkpt lat="39.576239464331834" lon="9.164578137073777"><ele>293.33333333333337</ele><time>2026-04-25T07:41:00Z</time></trkpt><trkpt lat="39.57642337009423" lon="9.164540025372593"><ele>293.0</ele><time>2026-04-25T07:41:01Z</time></trkpt><trkpt lat="39.57660722605609" lon="9.164511585631644"><ele>293.0</ele><time>2026-04-25T07:41:02Z</time></trkpt><trkpt lat="39.57679196309374" lon="9.164479259945624"><ele>293.0</ele><time>2026-04-25T07:41:03Z</time></trkpt><trkpt lat="39.57697346925849" lon="9.164440402199672"><ele>293.0</ele><time>2026-04-25T07:41:04Z</time></trkpt><trkpt lat="39.57715698786488" lon="9.164399185338043"><ele>292.33333333333337</ele><time>2026-04-25T07:41:05Z</time></trkpt><trkpt lat="39.577340750855" lon="9.164366229975748"><ele>291.6666666666667</ele><time>2026-04-25T07:41:06Z</time></trkpt><trkpt lat="39.57752360261466" lon="9.164329191594605"><ele>291.0</ele><time>2026-04-25T07:41:07Z</time></trkpt><trkpt lat="39.57770660914662" lon="9.164294277989253"><ele>290.3333333333333</ele><time>2026-04-25T07:41:08Z</time></trkpt><trkpt lat="39.57788488047791" lon="9.164264375921384"><ele>289.66666666666663</ele><time>2026-04-25T07:41:09Z</time></trkpt><trkpt lat="39.57805978668173" lon="9.164236390738127"><ele>289.0</ele><time>2026-04-25T07:41:10Z</time></trkpt><trkpt lat="39.57822889017302" lon="9.164199701831222"><ele>289.0</ele><time>2026-04-25T07:41:11Z</time></trkpt><trkpt lat="39.578398912682886" lon="9.164180634858935"><ele>289.0</ele><time>2026-04-25T07:41:12Z</time></trkpt><trkpt lat="39.578574747960666" lon="9.16420043744552"><ele>289.0</ele><time>2026-04-25T07:41:13Z</time></trkpt><trkpt lat="39.57875038684694" lon="9.164248362728419"><ele>290.66666666666663</ele><time>2026-04-25T07:41:14Z</time></trkpt><trkpt lat="39.57892436386646" lon="9.164310330130792"><ele>292.3333333333333</ele><time>2026-04-25T07:41:15Z</time></trkpt><trkpt lat="39.57909521158463" lon="9.16438408444486"><ele>294.0</ele><time>2026-04-25T07:41:16Z</time></trkpt><trkpt lat="39.579266396359" lon="9.164451480826447"><ele>294.0</ele><time>2026-04-25T07:41:17Z</time></trkpt><trkpt lat="39.57944212499601" lon="9.164516518958253"><ele>294.0</ele><time>2026-04-25T07:41:18Z</time></trkpt><trkpt lat="39.57961703924081" lon="9.164579971416325"><ele>294.0</ele><time>2026-04-25T07:41:19Z</time></trkpt><trkpt lat="39.57979515429596" lon="9.16464281450074"><ele>297.3333333333333</ele><time>2026-04-25T07:41:20Z</time></trkpt><trkpt lat="39.57997357952928" lon="9.164703559409384"><ele>300.66666666666663</ele><time>2026-04-25T07:41:21Z</time></trkpt><trkpt lat="39.58015135154042" lon="9.164766967990655"><ele>304.0</ele><time>2026-04-25T07:41:22Z</time></trkpt><trkpt lat="39.58032615002424" lon="9.164834800516472"><ele>301.0</ele><time>2026-04-25T07:41:23Z</time></trkpt><trkpt lat="39.580500542895386" lon="9.164902497098911"><ele>298.0</ele><time>2026-04-25T07:41:24Z</time></trkpt><trkpt lat="39.58067382902128" lon="9.164964391763826"><ele>295.0</ele><time>2026-04-25T07:41:25Z</time></trkpt><trkpt lat="39.580845617719405" lon="9.165025775561718"><ele>295.0</ele><time>2026-04-25T07:41:26Z</time></trkpt><trkpt lat="39.58101456617306" lon="9.165086264022829"><ele>295.0</ele><time>2026-04-25T07:41:27Z</time></trkpt><trkpt lat="39.58117826165567" lon="9.165147951455873"><ele>295.0</ele><time>2026-04-25T07:41:28Z</time></trkpt><trkpt lat="39.58133830088831" lon="9.165215446812807"><ele>295.66666666666663</ele><time>2026-04-25T07:41:29Z</time></trkpt><trkpt lat="39.5814987551294" lon="9.165275373033523"><ele>296.3333333333333</ele><time>2026-04-25T07:41:30Z</time></trkpt><trkpt lat="39.581665064972285" lon="9.165302934205158"><ele>297.0</ele><time>2026-04-25T07:41:31Z</time></trkpt><trkpt lat="39.581839021206264" lon="9.165290999723778"><ele>295.3333333333333</ele><time>2026-04-25T07:41:32Z</time></trkpt><trkpt lat="39.58201594654715" lon="9.165237876454956"><ele>293.66666666666663</ele><time>2026-04-25T07:41:33Z</time></trkpt><trkpt lat="39.58218792572037" lon="9.16515756735226"><ele>292.0</ele><time>2026-04-25T07:41:34Z</time></trkpt><trkpt lat="39.582357210292514" lon="9.165073458569482"><ele>292.0</ele><time>2026-04-25T07:41:35Z</time></trkpt><trkpt lat="39.582528452579176" lon="9.165005207695797"><ele>292.0</ele><time>2026-04-25T07:41:36Z</time></trkpt><trkpt lat="39.58269391997254" lon="9.164945861772772"><ele>292.0</ele><time>2026-04-25T07:41:37Z</time></trkpt><trkpt lat="39.58285641073743" lon="9.164877274457195"><ele>294.66666666666663</ele><time>2026-04-25T07:41:38Z</time></trkpt><trkpt lat="39.58301197491063" lon="9.16479034742233"><ele>297.3333333333333</ele><time>2026-04-25T07:41:39Z</time></trkpt><trkpt lat="39.58315096938574" lon="9.16467600197516"><ele>300.0</ele><time>2026-04-25T07:41:40Z</time></trkpt><trkpt lat="39.58327471197689" lon="9.164554678100561"><ele>300.0</ele><time>2026-04-25T07:41:41Z</time></trkpt><trkpt lat="39.58339260400207" lon="9.164452600968405"><ele>300.0</ele><time>2026-04-25T07:41:42Z</time></trkpt><trkpt lat="39.583525286815764" lon="9.164381792390735"><ele>300.0</ele><time>2026-04-25T07:41:43Z</time></trkpt><trkpt lat="39.583673470642445" lon="9.164350069907476"><ele>300.0</ele><time>2026-04-25T07:41:44Z</time></trkpt><trkpt lat="39.583832832198006" lon="9.164355563232373"><ele>295.6666666666667</ele><time>2026-04-25T07:41:45Z</time></trkpt><trkpt lat="39.58399081344542" lon="9.164396419354238"><ele>291.33333333333337</ele><time>2026-04-25T07:41:46Z</time></trkpt><trkpt lat="39.584138984186325" lon="9.16448808695519"><ele>287.0</ele><time>2026-04-25T07:41:47Z</time></trkpt><trkpt lat="39.58428813345687" lon="9.164570919332178"><ele>287.0</ele><time>2026-04-25T07:41:48Z</time></trkpt><trkpt lat="39.584409212881" lon="9.164682913682748"><ele>287.0</ele><time>2026-04-25T07:41:49Z</time></trkpt><trkpt lat="39.58449816786551" lon="9.16481786827121"><ele>287.0</ele><time>2026-04-25T07:41:50Z</time></trkpt><trkpt lat="39.584519243472165" lon="9.164991684877279"><ele>287.0</ele><time>2026-04-25T07:41:51Z</time></trkpt><trkpt lat="39.584512775994625" lon="9.165161843620051"><ele>286.6666666666667</ele><time>2026-04-25T07:41:52Z</time></trkpt><trkpt lat="39.584477351305765" lon="9.165340293680641"><ele>286.3333333333333</ele><time>2026-04-25T07:41:53Z</time></trkpt><trkpt lat="39.584416344421825" lon="9.165526012926625"><ele>286.0</ele><time>2026-04-25T07:41:54Z</time></trkpt><trkpt lat="39.584336170543395" lon="9.165708544468751"><ele>287.3333333333333</ele><time>2026-04-25T07:41:55Z</time></trkpt><trkpt lat="39.58425868389802" lon="9.16589721666557"><ele>288.6666666666667</ele><time>2026-04-25T07:41:56Z</time></trkpt><trkpt lat="39.5841859064726" lon="9.166088030306366"><ele>290.0</ele><time>2026-04-25T07:41:57Z</time></trkpt><trkpt lat="39.58411346864609" lon="9.166270419683212"><ele>290.0</ele><time>2026-04-25T07:41:58Z</time></trkpt><trkpt lat="39.584047832024396" lon="9.166441211157526"><ele>290.0</ele><time>2026-04-25T07:41:59Z</time></trkpt><trkpt lat="39.58401404093299" lon="9.16661092138063"><ele>290.0</ele><time>2026-04-25T07:42:00Z</time></trkpt><trkpt lat="39.584031348004466" lon="9.166776725919867"><ele>290.0</ele><time>2026-04-25T07:42:01Z</time></trkpt><trkpt lat="39.58410175178177" lon="9.166919706291994"><ele>292.0</ele><time>2026-04-25T07:42:02Z</time></trkpt><trkpt lat="39.584211603287756" lon="9.167036054801269"><ele>294.0</ele><time>2026-04-25T07:42:03Z</time></trkpt><trkpt lat="39.5843310728407" lon="9.16710261498092"><ele>296.0</ele><time>2026-04-25T07:42:04Z</time></trkpt><trkpt lat="39.58446378835038" lon="9.167109326335346"><ele>298.0</ele><time>2026-04-25T07:42:05Z</time></trkpt><trkpt lat="39.584595430789406" lon="9.167049984457954"><ele>302.3333333333333</ele><time>2026-04-25T07:42:06Z</time></trkpt><trkpt lat="39.58471150896095" lon="9.166931485029599"><ele>306.6666666666667</ele><time>2026-04-25T07:42:07Z</time></trkpt><trkpt lat="39.584808142943295" lon="9.16677139898634"><ele>311.0</ele><time>2026-04-25T07:42:08Z</time></trkpt><trkpt lat="39.58490119806009" lon="9.166599556368013"><ele>308.33333333333337</ele><time>2026-04-25T07:42:09Z</time></trkpt><trkpt lat="39.58500715532229" lon="9.166458519964719"><ele>305.6666666666667</ele><time>2026-04-25T07:42:10Z</time></trkpt><trkpt lat="39.58512942509166" lon="9.16631884298028"><ele>303.0</ele><time>2026-04-25T07:42:11Z</time></trkpt><trkpt lat="39.58525704649024" lon="9.166188123500307"><ele>306.3333333333333</ele><time>2026-04-25T07:42:12Z</time></trkpt><trkpt lat="39.58538781319327" lon="9.166059719249587"><ele>309.66666666666663</ele><time>2026-04-25T07:42:13Z</time></trkpt><trkpt lat="39.58551929394398" lon="9.165934703191228"><ele>313.0</ele><time>2026-04-25T07:42:14Z</time></trkpt><trkpt lat="39.58565457297902" lon="9.165814031956819"><ele>313.0</ele><time>2026-04-25T07:42:15Z</time></trkpt><trkpt lat="39.58580073416915" lon="9.165715733662275"><ele>313.0</ele><time>2026-04-25T07:42:16Z</time></trkpt><trkpt lat="39.585964544266616" lon="9.165658161016793"><ele>313.0</ele><time>2026-04-25T07:42:17Z</time></trkpt><trkpt lat="39.58613245616453" lon="9.165614568836974"><ele>313.3333333333333</ele><time>2026-04-25T07:42:18Z</time></trkpt><trkpt lat="39.58629994905893" lon="9.165559239257364"><ele>313.6666666666667</ele><time>2026-04-25T07:42:19Z</time></trkpt><trkpt lat="39.586464736921016" lon="9.165508038936895"><ele>314.0</ele><time>2026-04-25T07:42:20Z</time></trkpt><trkpt lat="39.58663082677761" lon="9.165463138738145"><ele>314.0</ele><time>2026-04-25T07:42:21Z</time></trkpt><trkpt lat="39.58679189074411" lon="9.165394825361092"><ele>314.0</ele><time>2026-04-25T07:42:22Z</time></trkpt><trkpt lat="39.58693635819152" lon="9.165276838025045"><ele>314.0</ele><time>2026-04-25T07:42:23Z</time></trkpt><trkpt lat="39.58706312690283" lon="9.165123979727163"><ele>316.33333333333337</ele><time>2026-04-25T07:42:24Z</time></trkpt><trkpt lat="39.5871790805378" lon="9.164973439551401"><ele>318.6666666666667</ele><time>2026-04-25T07:42:25Z</time></trkpt><trkpt lat="39.58730315445167" lon="9.164845704226241"><ele>321.0</ele><time>2026-04-25T07:42:26Z</time></trkpt><trkpt lat="39.58742533683829" lon="9.164726430230976"><ele>321.0</ele><time>2026-04-25T07:42:27Z</time></trkpt><trkpt lat="39.5875426765391" lon="9.164624985185847"><ele>321.0</ele><time>2026-04-25T07:42:28Z</time></trkpt><trkpt lat="39.58766886700928" lon="9.164574870744012"><ele>321.0</ele><time>2026-04-25T07:42:29Z</time></trkpt><trkpt lat="39.58780329666653" lon="9.164605219306432"><ele>321.0</ele><time>2026-04-25T07:42:30Z</time></trkpt><trkpt lat="39.587924533357125" lon="9.164662435325512"><ele>321.75</ele><time>2026-04-25T07:42:31Z</time></trkpt><trkpt lat="39.58804430373789" lon="9.164762579892681"><ele>322.5</ele><time>2026-04-25T07:42:32Z</time></trkpt><trkpt lat="39.58813334981168" lon="9.164923339215173"><ele>323.25</ele><time>2026-04-25T07:42:33Z</time></trkpt><trkpt lat="39.58816240716941" lon="9.165112746076971"><ele>324.0</ele><time>2026-04-25T07:42:34Z</time></trkpt><trkpt lat="39.58814976085" lon="9.165293223676597"><ele>324.0</ele><time>2026-04-25T07:42:35Z</time></trkpt><trkpt lat="39.5881336710916" lon="9.165496757693107"><ele>324.0</ele><time>2026-04-25T07:42:36Z</time></trkpt><trkpt lat="39.5881195164617" lon="9.165694519203518"><ele>324.0</ele><time>2026-04-25T07:42:37Z</time></trkpt><trkpt lat="39.58810574967047" lon="9.165894494464952"><ele>325.3333333333333</ele><time>2026-04-25T07:42:38Z</time></trkpt><trkpt lat="39.5880890825146" lon="9.16609167247373"><ele>326.66666666666663</ele><time>2026-04-25T07:42:39Z</time></trkpt><trkpt lat="39.58806662914066" lon="9.166285410602988"><ele>328.0</ele><time>2026-04-25T07:42:40Z</time></trkpt><trkpt lat="39.58805152448559" lon="9.166474978968447"><ele>328.0</ele><time>2026-04-25T07:42:41Z</time></trkpt><trkpt lat="39.58802441493455" lon="9.1666548380368"><ele>328.0</ele><time>2026-04-25T07:42:42Z</time></trkpt><trkpt lat="39.58795517701657" lon="9.166808774683565"><ele>328.0</ele><time>2026-04-25T07:42:43Z</time></trkpt><trkpt lat="39.5878551628224" lon="9.166929723326525"><ele>328.0</ele><time>2026-04-25T07:42:44Z</time></trkpt><trkpt lat="39.58774433999864" lon="9.167023190491953"><ele>331.0</ele><time>2026-04-25T07:42:45Z</time></trkpt><trkpt lat="39.58761799011099" lon="9.167061130309616"><ele>334.0</ele><time>2026-04-25T07:42:46Z</time></trkpt><trkpt lat="39.58747406220237" lon="9.167060628026482"><ele>337.0</ele><time>2026-04-25T07:42:47Z</time></trkpt><trkpt lat="39.58731980000258" lon="9.16705354432474"><ele>340.0</ele><time>2026-04-25T07:42:48Z</time></trkpt><trkpt lat="39.5871648297024" lon="9.167053469566312"><ele>340.0</ele><time>2026-04-25T07:42:49Z</time></trkpt><trkpt lat="39.58701093927529" lon="9.167067467803927"><ele>340.0</ele><time>2026-04-25T07:42:50Z</time></trkpt><trkpt lat="39.586863789112655" lon="9.167115107773293"><ele>340.0</ele><time>2026-04-25T07:42:51Z</time></trkpt><trkpt lat="39.58671547452713" lon="9.16718891079899"><ele>339.5</ele><time>2026-04-25T07:42:52Z</time></trkpt><trkpt lat="39.58657256057385" lon="9.167269430061179"><ele>339.0</ele><time>2026-04-25T07:42:53Z</time></trkpt><trkpt lat="39.58643628450439" lon="9.167349715993334"><ele>338.5</ele><time>2026-04-25T07:42:54Z</time></trkpt><trkpt lat="39.58630640365348" lon="9.167421309732891"><ele>338.0</ele><time>2026-04-25T07:42:55Z</time></trkpt><trkpt lat="39.5861893785171" lon="9.167499635675279"><ele>339.0</ele><time>2026-04-25T07:42:56Z</time></trkpt><trkpt lat="39.58609323469801" lon="9.16762144184365"><ele>340.0</ele><time>2026-04-25T07:42:57Z</time></trkpt><trkpt lat="39.58603246525799" lon="9.167777123733899"><ele>341.0</ele><time>2026-04-25T07:42:58Z</time></trkpt><trkpt lat="39.58601872886948" lon="9.16794246953888"><ele>342.0</ele><time>2026-04-25T07:42:59Z</time></trkpt><trkpt lat="39.5860633369762" lon="9.168108672452064"><ele>346.25</ele><time>2026-04-25T07:43:00Z</time></trkpt><trkpt lat="39.58613554654232" lon="9.16825557460216"><ele>350.5</ele><time>2026-04-25T07:43:01Z</time></trkpt><trkpt lat="39.58625129507392" lon="9.168351016556297"><ele>354.75</ele><time>2026-04-25T07:43:02Z</time></trkpt><trkpt lat="39.586378793269" lon="9.1683836264146"><ele>359.0</ele><time>2026-04-25T07:43:03Z</time></trkpt><trkpt lat="39.586511183558656" lon="9.168352312183154"><ele>358.0</ele><time>2026-04-25T07:43:04Z</time></trkpt><trkpt lat="39.586634756391334" lon="9.168287880242689"><ele>357.0</ele><time>2026-04-25T07:43:05Z</time></trkpt><trkpt lat="39.58675599889697" lon="9.168223719522816"><ele>356.0</ele><time>2026-04-25T07:43:06Z</time></trkpt><trkpt lat="39.58688835972414" lon="9.168194640200296"><ele>355.0</ele><time>2026-04-25T07:43:07Z</time></trkpt><trkpt lat="39.587019254453345" lon="9.168233828182474"><ele>355.0</ele><time>2026-04-25T07:43:08Z</time></trkpt><trkpt lat="39.58712840433191" lon="9.168337147368904"><ele>355.0</ele><time>2026-04-25T07:43:09Z</time></trkpt><trkpt lat="39.58721187219807" lon="9.168472343969892"><ele>355.0</ele><time>2026-04-25T07:43:10Z</time></trkpt><trkpt lat="39.58724760859641" lon="9.16864047768036"><ele>355.0</ele><time>2026-04-25T07:43:11Z</time></trkpt><trkpt lat="39.58725950188464" lon="9.168810423104201"><ele>355.0</ele><time>2026-04-25T07:43:12Z</time></trkpt><trkpt lat="39.58728210565158" lon="9.168978089998795"><ele>355.0</ele><time>2026-04-25T07:43:13Z</time></trkpt><trkpt lat="39.58731120599526" lon="9.169147349342387"><ele>355.0</ele><time>2026-04-25T07:43:14Z</time></trkpt><trkpt lat="39.58734326756138" lon="9.169316717813524"><ele>355.0</ele><time>2026-04-25T07:43:15Z</time></trkpt><trkpt lat="39.58739543929809" lon="9.169479589125077"><ele>357.25</ele><time>2026-04-25T07:43:16Z</time></trkpt><trkpt lat="39.5874653749028" lon="9.169635360907874"><ele>359.5</ele><time>2026-04-25T07:43:17Z</time></trkpt><trkpt lat="39.58754874564955" lon="9.169778742707619"><ele>361.75</ele><time>2026-04-25T07:43:18Z</time></trkpt><trkpt lat="39.587641335356395" lon="9.169914234531058"><ele>364.0</ele><time>2026-04-25T07:43:19Z</time></trkpt><trkpt lat="39.58773512827899" lon="9.170050344625741"><ele>366.75</ele><time>2026-04-25T07:43:20Z</time></trkpt><trkpt lat="39.58782660817201" lon="9.1701920551817"><ele>369.5</ele><time>2026-04-25T07:43:21Z</time></trkpt><trkpt lat="39.58790561041762" lon="9.170344144827592"><ele>372.25</ele><time>2026-04-25T07:43:22Z</time></trkpt><trkpt lat="39.58796395963414" lon="9.170507383938151"><ele>375.0</ele><time>2026-04-25T07:43:23Z</time></trkpt><trkpt lat="39.58800997925479" lon="9.170679566004118"><ele>372.5</ele><time>2026-04-25T07:43:24Z</time></trkpt><trkpt lat="39.5880456499203" lon="9.170852131400904"><ele>370.0</ele><time>2026-04-25T07:43:25Z</time></trkpt><trkpt lat="39.588088061878686" lon="9.17102529951206"><ele>367.5</ele><time>2026-04-25T07:43:26Z</time></trkpt><trkpt lat="39.58812697589922" lon="9.171198934851294"><ele>365.0</ele><time>2026-04-25T07:43:27Z</time></trkpt><trkpt lat="39.588165917330755" lon="9.171371860198699"><ele>368.0</ele><time>2026-04-25T07:43:28Z</time></trkpt><trkpt lat="39.58820598706861" lon="9.17154536576661"><ele>371.0</ele><time>2026-04-25T07:43:29Z</time></trkpt><trkpt lat="39.588248159537365" lon="9.171718642048294"><ele>374.0</ele><time>2026-04-25T07:43:30Z</time></trkpt><trkpt lat="39.58829640810389" lon="9.17189246200556"><ele>377.0</ele><time>2026-04-25T07:43:31Z</time></trkpt><trkpt lat="39.58835122351624" lon="9.17206248471209"><ele>377.0</ele><time>2026-04-25T07:43:32Z</time></trkpt><trkpt lat="39.58841166219706" lon="9.172229991927043"><ele>377.0</ele><time>2026-04-25T07:43:33Z</time></trkpt><trkpt lat="39.588469097594775" lon="9.172398052229077"><ele>377.0</ele><time>2026-04-25T07:43:34Z</time></trkpt><trkpt lat="39.58852511536478" lon="9.172567986625975"><ele>377.0</ele><time>2026-04-25T07:43:35Z</time></trkpt><trkpt lat="39.588587117346805" lon="9.172735849360317"><ele>376.0</ele><time>2026-04-25T07:43:36Z</time></trkpt><trkpt lat="39.58864836500297" lon="9.172903288400704"><ele>375.0</ele><time>2026-04-25T07:43:37Z</time></trkpt><trkpt lat="39.58870436461433" lon="9.173071844379384"><ele>374.0</ele><time>2026-04-25T07:43:38Z</time></trkpt><trkpt lat="39.588752157631845" lon="9.173244052798653"><ele>373.0</ele><time>2026-04-25T07:43:39Z</time></trkpt><trkpt lat="39.588783787099814" lon="9.173419773528135"><ele>373.0</ele><time>2026-04-25T07:43:40Z</time></trkpt><trkpt lat="39.588795303762325" lon="9.173598125752031"><ele>373.0</ele><time>2026-04-25T07:43:41Z</time></trkpt><trkpt lat="39.588792705538886" lon="9.173772135057629"><ele>373.0</ele><time>2026-04-25T07:43:42Z</time></trkpt><trkpt lat="39.58879258513643" lon="9.173946038053934"><ele>373.0</ele><time>2026-04-25T07:43:43Z</time></trkpt><trkpt lat="39.58879165571012" lon="9.17412204615475"><ele>374.5</ele><time>2026-04-25T07:43:44Z</time></trkpt><trkpt lat="39.58879071399002" lon="9.174297353886425"><ele>376.0</ele><time>2026-04-25T07:43:45Z</time></trkpt><trkpt lat="39.588791506536964" lon="9.174474805513894"><ele>377.5</ele><time>2026-04-25T07:43:46Z</time></trkpt><trkpt lat="39.58879189286708" lon="9.174652944339423"><ele>379.0</ele><time>2026-04-25T07:43:47Z</time></trkpt><trkpt lat="39.58879804038973" lon="9.174834536034908"><ele>380.25</ele><time>2026-04-25T07:43:48Z</time></trkpt><trkpt lat="39.58881942430019" lon="9.175016142913806"><ele>381.5</ele><time>2026-04-25T07:43:49Z</time></trkpt><trkpt lat="39.58885002865451" lon="9.175196632997888"><ele>382.75</ele><time>2026-04-25T07:43:50Z</time></trkpt><trkpt lat="39.58889004936994" lon="9.175380350535958"><ele>384.0</ele><time>2026-04-25T07:43:51Z</time></trkpt><trkpt lat="39.58892272378944" lon="9.175558522743415"><ele>386.5</ele><time>2026-04-25T07:43:52Z</time></trkpt><trkpt lat="39.588963431753584" lon="9.17574144152935"><ele>389.0</ele><time>2026-04-25T07:43:53Z</time></trkpt><trkpt lat="39.589003313889265" lon="9.175922689610749"><ele>391.5</ele><time>2026-04-25T07:43:54Z</time></trkpt><trkpt lat="39.58905385079181" lon="9.176097909944675"><ele>394.0</ele><time>2026-04-25T07:43:55Z</time></trkpt><trkpt lat="39.589116229796" lon="9.176267447878162"><ele>394.0</ele><time>2026-04-25T07:43:56Z</time></trkpt><trkpt lat="39.589195803199374" lon="9.17642930775884"><ele>394.0</ele><time>2026-04-25T07:43:57Z</time></trkpt><trkpt lat="39.589288603446015" lon="9.176577689104656"><ele>394.0</ele><time>2026-04-25T07:43:58Z</time></trkpt><trkpt lat="39.589397031589726" lon="9.176710735580055"><ele>394.0</ele><time>2026-04-25T07:43:59Z</time></trkpt><trkpt lat="39.589516299541444" lon="9.176826998338983"><ele>395.25</ele><time>2026-04-25T07:44:00Z</time></trkpt><trkpt lat="39.58964079640871" lon="9.176929527160263"><ele>396.5</ele><time>2026-04-25T07:44:01Z</time></trkpt><trkpt lat="39.58976557356503" lon="9.177029752856974"><ele>397.75</ele><time>2026-04-25T07:44:02Z</time></trkpt><trkpt lat="39.58988837064302" lon="9.17713220141732"><ele>399.0</ele><time>2026-04-25T07:44:03Z</time></trkpt><trkpt lat="39.59001072857609" lon="9.177236487729104"><ele>399.0</ele><time>2026-04-25T07:44:04Z</time></trkpt><trkpt lat="39.590132968433196" lon="9.177339923106816"><ele>399.0</ele><time>2026-04-25T07:44:05Z</time></trkpt><trkpt lat="39.59025847814507" lon="9.177445724676975"><ele>399.0</ele><time>2026-04-25T07:44:06Z</time></trkpt><trkpt lat="39.59038158442716" lon="9.177552807089274"><ele>399.0</ele><time>2026-04-25T07:44:07Z</time></trkpt><trkpt lat="39.59050455128665" lon="9.177656339967156"><ele>400.5</ele><time>2026-04-25T07:44:08Z</time></trkpt><trkpt lat="39.59062390727104" lon="9.177761228204519"><ele>402.0</ele><time>2026-04-25T07:44:09Z</time></trkpt><trkpt lat="39.59073315473983" lon="9.177878605498373"><ele>403.5</ele><time>2026-04-25T07:44:10Z</time></trkpt><trkpt lat="39.590826789977605" lon="9.17801660502861"><ele>405.0</ele><time>2026-04-25T07:44:11Z</time></trkpt><trkpt lat="39.59090991158521" lon="9.178166810510287"><ele>403.75</ele><time>2026-04-25T07:44:12Z</time></trkpt><trkpt lat="39.59098754386729" lon="9.178328978836023"><ele>402.5</ele><time>2026-04-25T07:44:13Z</time></trkpt><trkpt lat="39.59106023968569" lon="9.178494782876736"><ele>401.25</ele><time>2026-04-25T07:44:14Z</time></trkpt><trkpt lat="39.59113808656544" lon="9.178662414770987"><ele>400.0</ele><time>2026-04-25T07:44:15Z</time></trkpt><trkpt lat="39.59121734167615" lon="9.178827160642237"><ele>400.0</ele><time>2026-04-25T07:44:16Z</time></trkpt><trkpt lat="39.59129379158138" lon="9.178993745535285"><ele>400.0</ele><time>2026-04-25T07:44:17Z</time></trkpt><trkpt lat="39.59136423362199" lon="9.179161330925862"><ele>400.0</ele><time>2026-04-25T07:44:18Z</time></trkpt><trkpt lat="39.591437923819754" lon="9.179328137543038"><ele>400.0</ele><time>2026-04-25T07:44:19Z</time></trkpt><trkpt lat="39.59150837999216" lon="9.17949472629476"><ele>403.6666666666667</ele><time>2026-04-25T07:44:20Z</time></trkpt><trkpt lat="39.59156934051785" lon="9.179669878787442"><ele>407.33333333333337</ele><time>2026-04-25T07:44:21Z</time></trkpt><trkpt lat="39.5916199409601" lon="9.179851955964766"><ele>411.0</ele><time>2026-04-25T07:44:22Z</time></trkpt><trkpt lat="39.591655781748855" lon="9.180044803203515"><ele>413.5</ele><time>2026-04-25T07:44:23Z</time></trkpt><trkpt lat="39.59168136368438" lon="9.180239112047047"><ele>416.0</ele><time>2026-04-25T07:44:24Z</time></trkpt><trkpt lat="39.59170407183329" lon="9.180430069143009"><ele>418.5</ele><time>2026-04-25T07:44:25Z</time></trkpt><trkpt lat="39.591730243450066" lon="9.180614694596978"><ele>421.0</ele><time>2026-04-25T07:44:26Z</time></trkpt><trkpt lat="39.59177210657823" lon="9.180790915914615"><ele>421.25</ele><time>2026-04-25T07:44:27Z</time></trkpt><trkpt lat="39.59183717732049" lon="9.180948724444765"><ele>421.5</ele><time>2026-04-25T07:44:28Z</time></trkpt><trkpt lat="39.59190389416422" lon="9.181101218768315"><ele>421.75</ele><time>2026-04-25T07:44:29Z</time></trkpt><trkpt lat="39.59202097851602" lon="9.181211261870038"><ele>422.0</ele><time>2026-04-25T07:44:30Z</time></trkpt><trkpt lat="39.592164916137044" lon="9.181279050027623"><ele>422.0</ele><time>2026-04-25T07:44:31Z</time></trkpt><trkpt lat="39.59231357404745" lon="9.181324998639635"><ele>422.0</ele><time>2026-04-25T07:44:32Z</time></trkpt><trkpt lat="39.59244992927986" lon="9.181385894605183"><ele>422.0</ele><time>2026-04-25T07:44:33Z</time></trkpt><trkpt lat="39.59257346599531" lon="9.18147511881165"><ele>422.0</ele><time>2026-04-25T07:44:34Z</time></trkpt><trkpt lat="39.59269419806153" lon="9.18157925483753"><ele>424.0</ele><time>2026-04-25T07:44:35Z</time></trkpt><trkpt lat="39.59278493502215" lon="9.181721505380704"><ele>426.0</ele><time>2026-04-25T07:44:36Z</time></trkpt><trkpt lat="39.59289100775297" lon="9.181845618470525"><ele>428.0</ele><time>2026-04-25T07:44:37Z</time></trkpt><trkpt lat="39.59298059667074" lon="9.181985383069525"><ele>430.0</ele><time>2026-04-25T07:44:38Z</time></trkpt><trkpt lat="39.59307518090307" lon="9.182113036697414"><ele>430.0</ele><time>2026-04-25T07:44:39Z</time></trkpt><trkpt lat="39.593185793005276" lon="9.182208578116043"><ele>430.0</ele><time>2026-04-25T07:44:40Z</time></trkpt><trkpt lat="39.59330875527649" lon="9.182271177588195"><ele>430.0</ele><time>2026-04-25T07:44:41Z</time></trkpt><trkpt lat="39.59343456826268" lon="9.182311054063025"><ele>430.0</ele><time>2026-04-25T07:44:42Z</time></trkpt><trkpt lat="39.59355043629325" lon="9.18234278293483"><ele>431.8</ele><time>2026-04-25T07:44:43Z</time></trkpt><trkpt lat="39.59365030017208" lon="9.182371230929894"><ele>433.6</ele><time>2026-04-25T07:44:44Z</time></trkpt><trkpt lat="39.59374103306033" lon="9.182402156734348"><ele>435.4</ele><time>2026-04-25T07:44:45Z</time></trkpt><trkpt lat="39.59383123726274" lon="9.182437943530426"><ele>437.2</ele><time>2026-04-25T07:44:46Z</time></trkpt><trkpt lat="39.593915846670775" lon="9.182483420498757"><ele>439.0</ele><time>2026-04-25T07:44:47Z</time></trkpt><trkpt lat="39.593996456609325" lon="9.182537803049746"><ele>439.50000000000006</ele><time>2026-04-25T07:44:48Z</time></trkpt><trkpt lat="39.59407431908849" lon="9.182606921015516"><ele>440.0</ele><time>2026-04-25T07:44:49Z</time></trkpt><trkpt lat="39.594154397816304" lon="9.182671601772604"><ele>440.5</ele><time>2026-04-25T07:44:50Z</time></trkpt><trkpt lat="39.594229487767386" lon="9.182745861705472"><ele>441.0</ele><time>2026-04-25T07:44:51Z</time></trkpt><trkpt lat="39.59429652385099" lon="9.182814503573427"><ele>441.50000000000006</ele><time>2026-04-25T07:44:52Z</time></trkpt><trkpt lat="39.59436500827008" lon="9.182868818153855"><ele>442.0</ele><time>2026-04-25T07:44:53Z</time></trkpt><trkpt lat="39.59442990518957" lon="9.182921343056087"><ele>442.00000000000006</ele><time>2026-04-25T07:44:54Z</time></trkpt><trkpt lat="39.59448417327484" lon="9.182966198922115"><ele>442.0</ele><time>2026-04-25T07:44:55Z</time></trkpt><trkpt lat="39.594578639467365" lon="9.183034492234304"><ele>442.0</ele><time>2026-04-25T07:44:57Z</time></trkpt><trkpt lat="39.594681912792076" lon="9.18306781691455"><ele>442.0</ele><time>2026-04-25T07:44:59Z</time></trkpt><trkpt lat="39.594746933825014" lon="9.183050601664062"><ele>442.00000000000006</ele><time>2026-04-25T07:45:00Z</time></trkpt><trkpt lat="39.59482221200603" lon="9.183020009891974"><ele>442.0</ele><time>2026-04-25T07:45:01Z</time></trkpt><trkpt lat="39.594903391191515" lon="9.182991347069649"><ele>442.6666666666667</ele><time>2026-04-25T07:45:02Z</time></trkpt><trkpt lat="39.59498933107695" lon="9.182967909437746"><ele>443.33333333333337</ele><time>2026-04-25T07:45:03Z</time></trkpt><trkpt lat="39.59507930589708" lon="9.182952503516077"><ele>444.0</ele><time>2026-04-25T07:45:04Z</time></trkpt><trkpt lat="39.59516781218611" lon="9.182956614962928"><ele>444.66666666666663</ele><time>2026-04-25T07:45:05Z</time></trkpt><trkpt lat="39.59525744481458" lon="9.182972342510936"><ele>445.3333333333333</ele><time>2026-04-25T07:45:06Z</time></trkpt><trkpt lat="39.595344425846505" lon="9.182994203442949"><ele>446.0</ele><time>2026-04-25T07:45:07Z</time></trkpt><trkpt lat="39.59542618131516" lon="9.183016879883912"><ele>447.0</ele><time>2026-04-25T07:45:08Z</time></trkpt><trkpt lat="39.595490052772305" lon="9.183042738764284"><ele>448.0</ele><time>2026-04-25T07:45:09Z</time></trkpt><trkpt lat="39.595568489889864" lon="9.18311740557167"><ele>449.0</ele><time>2026-04-25T07:45:11Z</time></trkpt><trkpt lat="39.59562189816071" lon="9.183196939394753"><ele>450.0</ele><time>2026-04-25T07:45:13Z</time></trkpt><trkpt lat="39.59568163781975" lon="9.183293362322146"><ele>451.0</ele><time>2026-04-25T07:45:15Z</time></trkpt><trkpt lat="39.59575981330907" lon="9.183409248150834"><ele>451.00000000000006</ele><time>2026-04-25T07:45:17Z</time></trkpt><trkpt lat="39.595829912621205" lon="9.183557079582453"><ele>451.0</ele><time>2026-04-25T07:45:19Z</time></trkpt><trkpt lat="39.59586367263377" lon="9.183646473631466"><ele>451.0</ele><time>2026-04-25T07:45:20Z</time></trkpt><trkpt lat="39.59586657387352" lon="9.183736077928463"><ele>451.0</ele><time>2026-04-25T07:45:21Z</time></trkpt><trkpt lat="39.59586885498727" lon="9.183833846665069"><ele>451.00000000000006</ele><time>2026-04-25T07:45:22Z</time></trkpt><trkpt lat="39.595876431957024" lon="9.183937672974418"><ele>451.0</ele><time>2026-04-25T07:45:23Z</time></trkpt><trkpt lat="39.59588927916239" lon="9.184042648665855"><ele>451.00000000000006</ele><time>2026-04-25T07:45:24Z</time></trkpt><trkpt lat="39.595898232718035" lon="9.184145554925502"><ele>451.0</ele><time>2026-04-25T07:45:25Z</time></trkpt><trkpt lat="39.59590168971364" lon="9.18423818314838"><ele>451.0</ele><time>2026-04-25T07:45:26Z</time></trkpt><trkpt lat="39.59591429840395" lon="9.184326812432666"><ele>451.0</ele><time>2026-04-25T07:45:27Z</time></trkpt><trkpt lat="39.59596308042204" lon="9.18441010182522"><ele>451.00000000000006</ele><time>2026-04-25T07:45:28Z</time></trkpt><trkpt lat="39.59602503422369" lon="9.184487840975759"><ele>451.0</ele><time>2026-04-25T07:45:29Z</time></trkpt><trkpt lat="39.596089236419374" lon="9.184557131389711"><ele>451.0</ele><time>2026-04-25T07:45:30Z</time></trkpt><trkpt lat="39.596139788292255" lon="9.184649704678119"><ele>451.0</ele><time>2026-04-25T07:45:31Z</time></trkpt><trkpt lat="39.596206595598446" lon="9.18473265787182"><ele>451.0</ele><time>2026-04-25T07:45:32Z</time></trkpt><trkpt lat="39.596272056448385" lon="9.18481963048317"><ele>451.0</ele><time>2026-04-25T07:45:33Z</time></trkpt><trkpt lat="39.59633406938231" lon="9.18491986005399"><ele>451.0</ele><time>2026-04-25T07:45:34Z</time></trkpt><trkpt lat="39.59640007619582" lon="9.185014488379357"><ele>451.6</ele><time>2026-04-25T07:45:35Z</time></trkpt><trkpt lat="39.59646676648356" lon="9.185111855514695"><ele>452.20000000000005</ele><time>2026-04-25T07:45:36Z</time></trkpt><trkpt lat="39.596532787935736" lon="9.185209134851577"><ele>452.79999999999995</ele><time>2026-04-25T07:45:37Z</time></trkpt><trkpt lat="39.59659905294532" lon="9.185294591667672"><ele>453.4</ele><time>2026-04-25T07:45:38Z</time></trkpt><trkpt lat="39.59666652052566" lon="9.185376384834182"><ele>454.0</ele><time>2026-04-25T07:45:39Z</time></trkpt><trkpt lat="39.596742252226" lon="9.185446132157642"><ele>454.0</ele><time>2026-04-25T07:45:40Z</time></trkpt><trkpt lat="39.59682126493342" lon="9.185499282754403"><ele>454.0</ele><time>2026-04-25T07:45:41Z</time></trkpt><trkpt lat="39.596910402358276" lon="9.185548346736821"><ele>454.0</ele><time>2026-04-25T07:45:42Z</time></trkpt><trkpt lat="39.59701039742244" lon="9.185584126694684"><ele>454.0</ele><time>2026-04-25T07:45:43Z</time></trkpt><trkpt lat="39.597106631413105" lon="9.185633184463008"><ele>454.0</ele><time>2026-04-25T07:45:44Z</time></trkpt><trkpt lat="39.597202550908804" lon="9.185682841856847"><ele>453.4</ele><time>2026-04-25T07:45:45Z</time></trkpt><trkpt lat="39.59730075493864" lon="9.185738737838388"><ele>452.79999999999995</ele><time>2026-04-25T07:45:46Z</time></trkpt><trkpt lat="39.59740153919942" lon="9.185791627669907"><ele>452.20000000000005</ele><time>2026-04-25T07:45:47Z</time></trkpt><trkpt lat="39.59750879258669" lon="9.185840850508008"><ele>451.6</ele><time>2026-04-25T07:45:48Z</time></trkpt><trkpt lat="39.59761656078624" lon="9.185893826019237"><ele>451.0</ele><time>2026-04-25T07:45:49Z</time></trkpt><trkpt lat="39.597727193537565" lon="9.185947322726758"><ele>451.0</ele><time>2026-04-25T07:45:50Z</time></trkpt><trkpt lat="39.59783475897669" lon="9.185999277565358"><ele>451.0</ele><time>2026-04-25T07:45:51Z</time></trkpt><trkpt lat="39.597941882550835" lon="9.186050112109855"><ele>451.0</ele><time>2026-04-25T07:45:52Z</time></trkpt><trkpt lat="39.59804510075069" lon="9.186100619234644"><ele>451.0</ele><time>2026-04-25T07:45:53Z</time></trkpt><trkpt lat="39.598147868708175" lon="9.186150951020176"><ele>451.0</ele><time>2026-04-25T07:45:54Z</time></trkpt><trkpt lat="39.59824617830581" lon="9.186203579924655"><ele>451.20000000000005</ele><time>2026-04-25T07:45:55Z</time></trkpt><trkpt lat="39.59834341086967" lon="9.186251837559107"><ele>451.40000000000003</ele><time>2026-04-25T07:45:56Z</time></trkpt><trkpt lat="39.59843909917867" lon="9.18630786596431"><ele>451.6</ele><time>2026-04-25T07:45:57Z</time></trkpt><trkpt lat="39.598535669546614" lon="9.186365272589907"><ele>451.8</ele><time>2026-04-25T07:45:58Z</time></trkpt><trkpt lat="39.59862959909147" lon="9.186424289762321"><ele>452.0</ele><time>2026-04-25T07:45:59Z</time></trkpt><trkpt lat="39.598726282437" lon="9.186481428279544"><ele>450.8</ele><time>2026-04-25T07:46:00Z</time></trkpt><trkpt lat="39.59881621940194" lon="9.18653722115759"><ele>449.6</ele><time>2026-04-25T07:46:01Z</time></trkpt><trkpt lat="39.59890591952377" lon="9.186589535309901"><ele>448.40000000000003</ele><time>2026-04-25T07:46:02Z</time></trkpt><trkpt lat="39.59899349330077" lon="9.186643179484175"><ele>447.20000000000005</ele><time>2026-04-25T07:46:03Z</time></trkpt><trkpt lat="39.59907955880649" lon="9.186694252224568"><ele>446.0</ele><time>2026-04-25T07:46:04Z</time></trkpt><trkpt lat="39.599161334811484" lon="9.186742170005385"><ele>446.0</ele><time>2026-04-25T07:46:05Z</time></trkpt><trkpt lat="39.59923281518858" lon="9.186808700583798"><ele>446.0</ele><time>2026-04-25T07:46:06Z</time></trkpt><trkpt lat="39.59931078431691" lon="9.18685789627381"><ele>446.0</ele><time>2026-04-25T07:46:07Z</time></trkpt><trkpt lat="39.59939405908766" lon="9.186910457336776"><ele>446.0</ele><time>2026-04-25T07:46:08Z</time></trkpt><trkpt lat="39.599477502919754" lon="9.186963125144747"><ele>446.0</ele><time>2026-04-25T07:46:09Z</time></trkpt><trkpt lat="39.5995662318842" lon="9.187019128778704"><ele>444.8</ele><time>2026-04-25T07:46:10Z</time></trkpt><trkpt lat="39.59965435209894" lon="9.187074498405204"><ele>443.6</ele><time>2026-04-25T07:46:11Z</time></trkpt><trkpt lat="39.5997452156506" lon="9.187131532993451"><ele>442.4</ele><time>2026-04-25T07:46:12Z</time></trkpt><trkpt lat="39.59983619086228" lon="9.187175689400318"><ele>441.2</ele><time>2026-04-25T07:46:13Z</time></trkpt><trkpt lat="39.599928636586675" lon="9.18723106608181"><ele>440.0</ele><time>2026-04-25T07:46:14Z</time></trkpt><trkpt lat="39.6000156677536" lon="9.187282180785843"><ele>440.0</ele><time>2026-04-25T07:46:15Z</time></trkpt><trkpt lat="39.60010282110389" lon="9.187337231257542"><ele>440.0</ele><time>2026-04-25T07:46:16Z</time></trkpt><trkpt lat="39.600187640381044" lon="9.187388183951198"><ele>440.0</ele><time>2026-04-25T07:46:17Z</time></trkpt><trkpt lat="39.600266751839754" lon="9.187438600902883"><ele>440.0</ele><time>2026-04-25T07:46:18Z</time></trkpt><trkpt lat="39.60034724418875" lon="9.187488989504851"><ele>440.0</ele><time>2026-04-25T07:46:19Z</time></trkpt><trkpt lat="39.600426789536115" lon="9.187538607498476"><ele>439.8</ele><time>2026-04-25T07:46:20Z</time></trkpt><trkpt lat="39.600508008985805" lon="9.187590976510236"><ele>439.6</ele><time>2026-04-25T07:46:21Z</time></trkpt><trkpt lat="39.600593757353344" lon="9.187647835920345"><ele>439.4</ele><time>2026-04-25T07:46:22Z</time></trkpt><trkpt lat="39.60067536386728" lon="9.187704074311718"><ele>439.2</ele><time>2026-04-25T07:46:23Z</time></trkpt><trkpt lat="39.600767591685674" lon="9.18775886500672"><ele>439.0</ele><time>2026-04-25T07:46:24Z</time></trkpt><trkpt lat="39.60085483354039" lon="9.187811301409184"><ele>439.0</ele><time>2026-04-25T07:46:25Z</time></trkpt><trkpt lat="39.60094075665321" lon="9.187871424435713"><ele>439.0</ele><time>2026-04-25T07:46:26Z</time></trkpt><trkpt lat="39.601023868177" lon="9.187925521568589"><ele>439.0</ele><time>2026-04-25T07:46:27Z</time></trkpt><trkpt lat="39.601111531611906" lon="9.187976695008661"><ele>439.0</ele><time>2026-04-25T07:46:28Z</time></trkpt><trkpt lat="39.6012024048395" lon="9.188027352279882"><ele>439.0</ele><time>2026-04-25T07:46:29Z</time></trkpt><trkpt lat="39.60128772763398" lon="9.188104466136002"><ele>439.0</ele><time>2026-04-25T07:46:30Z</time></trkpt><trkpt lat="39.60138312294757" lon="9.188146059686058"><ele>439.0</ele><time>2026-04-25T07:46:31Z</time></trkpt><trkpt lat="39.60147944073769" lon="9.18820619542731"><ele>439.0</ele><time>2026-04-25T07:46:32Z</time></trkpt><trkpt lat="39.601569377036654" lon="9.188273973761724"><ele>439.0</ele><time>2026-04-25T07:46:33Z</time></trkpt><trkpt lat="39.601667487798416" lon="9.188332200780073"><ele>439.0</ele><time>2026-04-25T07:46:34Z</time></trkpt><trkpt lat="39.601762215233634" lon="9.188391692020234"><ele>439.0</ele><time>2026-04-25T07:46:35Z</time></trkpt><trkpt lat="39.601858242584264" lon="9.188451638520617"><ele>439.0</ele><time>2026-04-25T07:46:36Z</time></trkpt><trkpt lat="39.60194684790193" lon="9.188508268743565"><ele>439.0</ele><time>2026-04-25T07:46:37Z</time></trkpt><trkpt lat="39.60202566794937" lon="9.188555782064984"><ele>439.0</ele><time>2026-04-25T07:46:38Z</time></trkpt><trkpt lat="39.60211637213269" lon="9.188615308018619"><ele>439.0</ele><time>2026-04-25T07:46:40Z</time></trkpt><trkpt lat="39.60219176268809" lon="9.18846715813293"><ele>439.00000000000006</ele><time>2026-04-25T07:46:43Z</time></trkpt><trkpt lat="39.60218717218633" lon="9.188332767250527"><ele>439.0</ele><time>2026-04-25T07:46:45Z</time></trkpt><trkpt lat="39.60218553501049" lon="9.188238659132262"><ele>439.0</ele><time>2026-04-25T07:46:46Z</time></trkpt><trkpt lat="39.60218548220649" lon="9.18813829422883"><ele>439.0</ele><time>2026-04-25T07:46:47Z</time></trkpt><trkpt lat="39.60219045340352" lon="9.188029014335903"><ele>439.00000000000006</ele><time>2026-04-25T07:46:48Z</time></trkpt><trkpt lat="39.60219415412625" lon="9.187914112692127"><ele>439.0</ele><time>2026-04-25T07:46:49Z</time></trkpt><trkpt lat="39.60219027331952" lon="9.187789142372333"><ele>439.2</ele><time>2026-04-25T07:46:50Z</time></trkpt><trkpt lat="39.60219217769266" lon="9.187661526122062"><ele>439.4</ele><time>2026-04-25T07:46:51Z</time></trkpt><trkpt lat="39.60219448433115" lon="9.187540405553362"><ele>439.6</ele><time>2026-04-25T07:46:52Z</time></trkpt><trkpt lat="39.60219935012144" lon="9.187414453474432"><ele>439.8</ele><time>2026-04-25T07:46:53Z</time></trkpt><trkpt lat="39.60220126273359" lon="9.187284820364853"><ele>440.0</ele><time>2026-04-25T07:46:54Z</time></trkpt><trkpt lat="39.60220313561852" lon="9.18715216081212"><ele>439.4</ele><time>2026-04-25T07:46:55Z</time></trkpt><trkpt lat="39.60220845209459" lon="9.187021775942997"><ele>438.8</ele><time>2026-04-25T07:46:56Z</time></trkpt><trkpt lat="39.60221478329266" lon="9.186886386949675"><ele>438.20000000000005</ele><time>2026-04-25T07:46:57Z</time></trkpt><trkpt lat="39.60221451790437" lon="9.186745437720605"><ele>437.6</ele><time>2026-04-25T07:46:58Z</time></trkpt><trkpt lat="39.60221467618857" lon="9.186604261572953"><ele>437.0</ele><time>2026-04-25T07:46:59Z</time></trkpt><trkpt lat="39.60221618927636" lon="9.18646343889979"><ele>435.75</ele><time>2026-04-25T07:47:00Z</time></trkpt><trkpt lat="39.602217144922285" lon="9.186314750807712"><ele>434.5</ele><time>2026-04-25T07:47:01Z</time></trkpt><trkpt lat="39.60221712203929" lon="9.186163435146637"><ele>433.25</ele><time>2026-04-25T07:47:02Z</time></trkpt><trkpt lat="39.60221786963524" lon="9.186013452019953"><ele>432.0</ele><time>2026-04-25T07:47:03Z</time></trkpt><trkpt lat="39.60221855767441" lon="9.185860769381748"><ele>432.0</ele><time>2026-04-25T07:47:04Z</time></trkpt><trkpt lat="39.60222023530405" lon="9.185704771139639"><ele>432.0</ele><time>2026-04-25T07:47:05Z</time></trkpt><trkpt lat="39.60222653736932" lon="9.185549991145853"><ele>432.0</ele><time>2026-04-25T07:47:06Z</time></trkpt><trkpt lat="39.6022305196325" lon="9.18538742230092"><ele>432.0</ele><time>2026-04-25T07:47:07Z</time></trkpt><trkpt lat="39.60223480841158" lon="9.185222625887413"><ele>430.5</ele><time>2026-04-25T07:47:08Z</time></trkpt><trkpt lat="39.60223983321156" lon="9.185055827428078"><ele>429.0</ele><time>2026-04-25T07:47:09Z</time></trkpt><trkpt lat="39.60224470322682" lon="9.184887221924365"><ele>427.5</ele><time>2026-04-25T07:47:10Z</time></trkpt><trkpt lat="39.60225046192767" lon="9.184716745176633"><ele>426.0</ele><time>2026-04-25T07:47:11Z</time></trkpt><trkpt lat="39.60225812606377" lon="9.184541280059758"><ele>425.5</ele><time>2026-04-25T07:47:12Z</time></trkpt><trkpt lat="39.60226634826939" lon="9.184362861702937"><ele>425.0</ele><time>2026-04-25T07:47:13Z</time></trkpt><trkpt lat="39.602284582280184" lon="9.184182816789502"><ele>424.5</ele><time>2026-04-25T07:47:14Z</time></trkpt><trkpt lat="39.60232113781146" lon="9.184000286031827"><ele>424.0</ele><time>2026-04-25T07:47:15Z</time></trkpt><trkpt lat="39.60236423911029" lon="9.183822674432486"><ele>425.6666666666667</ele><time>2026-04-25T07:47:16Z</time></trkpt><trkpt lat="39.602414138698634" lon="9.183640042633083"><ele>427.33333333333337</ele><time>2026-04-25T07:47:17Z</time></trkpt><trkpt lat="39.602480092153876" lon="9.18345485781651"><ele>429.0</ele><time>2026-04-25T07:47:18Z</time></trkpt><trkpt lat="39.6025575542848" lon="9.183267511449914"><ele>429.66666666666663</ele><time>2026-04-25T07:47:19Z</time></trkpt><trkpt lat="39.60264713275701" lon="9.183084116379806"><ele>430.3333333333333</ele><time>2026-04-25T07:47:20Z</time></trkpt><trkpt lat="39.60274555345277" lon="9.182910372149397"><ele>431.0</ele><time>2026-04-25T07:47:21Z</time></trkpt><trkpt lat="39.60285420704726" lon="9.18274424627718"><ele>431.0</ele><time>2026-04-25T07:47:22Z</time></trkpt><trkpt lat="39.60297859332213" lon="9.182583317902571"><ele>431.0</ele><time>2026-04-25T07:47:23Z</time></trkpt><trkpt lat="39.60311551679204" lon="9.18242225319873"><ele>431.0</ele><time>2026-04-25T07:47:24Z</time></trkpt><trkpt lat="39.603248709106204" lon="9.18225155061518"><ele>434.3333333333333</ele><time>2026-04-25T07:47:25Z</time></trkpt><trkpt lat="39.603384012700516" lon="9.182067383834356"><ele>437.66666666666663</ele><time>2026-04-25T07:47:26Z</time></trkpt><trkpt lat="39.6035204457428" lon="9.181889337234294"><ele>441.0</ele><time>2026-04-25T07:47:27Z</time></trkpt><trkpt lat="39.60365703723297" lon="9.181727212094698"><ele>441.33333333333337</ele><time>2026-04-25T07:47:28Z</time></trkpt><trkpt lat="39.60378943220477" lon="9.18157333612446"><ele>441.6666666666667</ele><time>2026-04-25T07:47:29Z</time></trkpt><trkpt lat="39.60392056716168" lon="9.181406567627985"><ele>442.0</ele><time>2026-04-25T07:47:30Z</time></trkpt><trkpt lat="39.60404593937339" lon="9.181233619963741"><ele>442.0</ele><time>2026-04-25T07:47:31Z</time></trkpt><trkpt lat="39.604176385794496" lon="9.181059397253412"><ele>442.0</ele><time>2026-04-25T07:47:32Z</time></trkpt><trkpt lat="39.604308877589396" lon="9.180886491877615"><ele>442.0</ele><time>2026-04-25T07:47:33Z</time></trkpt><trkpt lat="39.604445781024324" lon="9.18071398751039"><ele>442.0</ele><time>2026-04-25T07:47:34Z</time></trkpt><trkpt lat="39.604583367995666" lon="9.180539617416631"><ele>442.0</ele><time>2026-04-25T07:47:35Z</time></trkpt><trkpt lat="39.604722169028136" lon="9.180366194748634"><ele>442.0</ele><time>2026-04-25T07:47:36Z</time></trkpt><trkpt lat="39.60486350572405" lon="9.180194663403741"><ele>442.0</ele><time>2026-04-25T07:47:37Z</time></trkpt><trkpt lat="39.605009491239095" lon="9.18002682901444"><ele>442.0</ele><time>2026-04-25T07:47:38Z</time></trkpt><trkpt lat="39.60515805084752" lon="9.179856723991017"><ele>442.0</ele><time>2026-04-25T07:47:39Z</time></trkpt><trkpt lat="39.605309186226954" lon="9.179676907380221"><ele>442.33333333333337</ele><time>2026-04-25T07:47:40Z</time></trkpt><trkpt lat="39.60546275549066" lon="9.179498650523286"><ele>442.66666666666663</ele><time>2026-04-25T07:47:41Z</time></trkpt><trkpt lat="39.60562015286247" lon="9.17932548364498"><ele>443.0</ele><time>2026-04-25T07:47:42Z</time></trkpt><trkpt lat="39.605782262066036" lon="9.179154007237793"><ele>443.66666666666663</ele><time>2026-04-25T07:47:43Z</time></trkpt><trkpt lat="39.60594780905998" lon="9.178981345011692"><ele>444.33333333333337</ele><time>2026-04-25T07:47:44Z</time></trkpt><trkpt lat="39.606110554342095" lon="9.178813913370586"><ele>445.0</ele><time>2026-04-25T07:47:45Z</time></trkpt><trkpt lat="39.60627048176788" lon="9.17864733506174"><ele>445.0</ele><time>2026-04-25T07:47:46Z</time></trkpt><trkpt lat="39.60642627772804" lon="9.178484333628914"><ele>445.0</ele><time>2026-04-25T07:47:47Z</time></trkpt><trkpt lat="39.606579533512836" lon="9.17832709451079"><ele>445.0</ele><time>2026-04-25T07:47:48Z</time></trkpt><trkpt lat="39.60673201182585" lon="9.178171244311496"><ele>444.0</ele><time>2026-04-25T07:47:49Z</time></trkpt><trkpt lat="39.60688452173075" lon="9.178013698877367"><ele>443.0</ele><time>2026-04-25T07:47:50Z</time></trkpt><trkpt lat="39.6070352070352" lon="9.177853881716583"><ele>442.0</ele><time>2026-04-25T07:47:51Z</time></trkpt><trkpt lat="39.60718535161107" lon="9.177691427920331"><ele>442.0</ele><time>2026-04-25T07:47:52Z</time></trkpt><trkpt lat="39.60734229506708" lon="9.17753237042909"><ele>442.0</ele><time>2026-04-25T07:47:53Z</time></trkpt><trkpt lat="39.60750623321425" lon="9.1773796519386"><ele>442.0</ele><time>2026-04-25T07:47:54Z</time></trkpt><trkpt lat="39.60767287868894" lon="9.17723297213304"><ele>442.0</ele><time>2026-04-25T07:47:55Z</time></trkpt><trkpt lat="39.60784265038501" lon="9.177095987460168"><ele>442.0</ele><time>2026-04-25T07:47:56Z</time></trkpt><trkpt lat="39.6080136315799" lon="9.17696622911347"><ele>442.0</ele><time>2026-04-25T07:47:57Z</time></trkpt><trkpt lat="39.60818479150994" lon="9.176839798042622"><ele>442.0</ele><time>2026-04-25T07:47:58Z</time></trkpt><trkpt lat="39.60835589380334" lon="9.17672125452518"><ele>442.0</ele><time>2026-04-25T07:47:59Z</time></trkpt><trkpt lat="39.60852902039429" lon="9.176609762129138"><ele>442.0</ele><time>2026-04-25T07:48:00Z</time></trkpt><trkpt lat="39.608703374384106" lon="9.176504092944347"><ele>442.0</ele><time>2026-04-25T07:48:01Z</time></trkpt><trkpt lat="39.608878062200496" lon="9.176400963210682"><ele>442.0</ele><time>2026-04-25T07:48:02Z</time></trkpt><trkpt lat="39.609050999649504" lon="9.176294571983348"><ele>442.0</ele><time>2026-04-25T07:48:03Z</time></trkpt><trkpt lat="39.60922394119863" lon="9.176189461369104"><ele>442.0</ele><time>2026-04-25T07:48:04Z</time></trkpt><trkpt lat="39.609397774222515" lon="9.176086101930329"><ele>442.0</ele><time>2026-04-25T07:48:05Z</time></trkpt><trkpt lat="39.609571227501945" lon="9.175985717532157"><ele>442.0</ele><time>2026-04-25T07:48:06Z</time></trkpt><trkpt lat="39.60974417429106" lon="9.175881267529851"><ele>442.6666666666667</ele><time>2026-04-25T07:48:07Z</time></trkpt><trkpt lat="39.60991321471998" lon="9.175778644067107"><ele>443.33333333333337</ele><time>2026-04-25T07:48:08Z</time></trkpt><trkpt lat="39.61008240421291" lon="9.175678178685924"><ele>444.0</ele><time>2026-04-25T07:48:09Z</time></trkpt><trkpt lat="39.610252782033825" lon="9.175577110723866"><ele>446.33333333333337</ele><time>2026-04-25T07:48:10Z</time></trkpt><trkpt lat="39.61042163602855" lon="9.175474151784444"><ele>448.6666666666667</ele><time>2026-04-25T07:48:11Z</time></trkpt><trkpt lat="39.610591177691646" lon="9.175370171740633"><ele>451.0</ele><time>2026-04-25T07:48:12Z</time></trkpt><trkpt lat="39.61076161695436" lon="9.175264094873137"><ele>451.0</ele><time>2026-04-25T07:48:13Z</time></trkpt><trkpt lat="39.61093135914105" lon="9.175161123081057"><ele>451.0</ele><time>2026-04-25T07:48:14Z</time></trkpt><trkpt lat="39.61109875858091" lon="9.175060477880002"><ele>451.0</ele><time>2026-04-25T07:48:15Z</time></trkpt><trkpt lat="39.611268684769676" lon="9.174957873279808"><ele>453.0</ele><time>2026-04-25T07:48:16Z</time></trkpt><trkpt lat="39.61143928758906" lon="9.174852014430117"><ele>455.0</ele><time>2026-04-25T07:48:17Z</time></trkpt><trkpt lat="39.61161042429966" lon="9.17474761909345"><ele>457.0</ele><time>2026-04-25T07:48:18Z</time></trkpt><trkpt lat="39.61178395187866" lon="9.174645279212768"><ele>457.0</ele><time>2026-04-25T07:48:19Z</time></trkpt><trkpt lat="39.61195718993473" lon="9.174537509591707"><ele>457.0</ele><time>2026-04-25T07:48:20Z</time></trkpt><trkpt lat="39.612128842586884" lon="9.174420195391802"><ele>457.0</ele><time>2026-04-25T07:48:21Z</time></trkpt><trkpt lat="39.612295779289084" lon="9.174297430308798"><ele>457.33333333333337</ele><time>2026-04-25T07:48:22Z</time></trkpt><trkpt lat="39.612455979707576" lon="9.174165188237474"><ele>457.66666666666663</ele><time>2026-04-25T07:48:23Z</time></trkpt><trkpt lat="39.612611283580634" lon="9.174021192417785"><ele>458.0</ele><time>2026-04-25T07:48:24Z</time></trkpt><trkpt lat="39.612760145439154" lon="9.17386857561575"><ele>456.66666666666663</ele><time>2026-04-25T07:48:25Z</time></trkpt><trkpt lat="39.612905168523596" lon="9.173704369134581"><ele>455.33333333333337</ele><time>2026-04-25T07:48:26Z</time></trkpt><trkpt lat="39.61304290094457" lon="9.173527683658374"><ele>454.0</ele><time>2026-04-25T07:48:27Z</time></trkpt><trkpt lat="39.61317573720803" lon="9.173343881250318"><ele>453.33333333333337</ele><time>2026-04-25T07:48:28Z</time></trkpt><trkpt lat="39.61330269293401" lon="9.173150251281442"><ele>452.66666666666663</ele><time>2026-04-25T07:48:29Z</time></trkpt><trkpt lat="39.61342111004652" lon="9.172949950648652"><ele>452.0</ele><time>2026-04-25T07:48:30Z</time></trkpt><trkpt lat="39.6135297150915" lon="9.172741135290291"><ele>452.0</ele><time>2026-04-25T07:48:31Z</time></trkpt><trkpt lat="39.613630596683024" lon="9.17252333429475"><ele>452.0</ele><time>2026-04-25T07:48:32Z</time></trkpt><trkpt lat="39.61372979185951" lon="9.17230223614033"><ele>452.0</ele><time>2026-04-25T07:48:33Z</time></trkpt><trkpt lat="39.61382653019426" lon="9.172078207513733"><ele>452.66666666666663</ele><time>2026-04-25T07:48:34Z</time></trkpt><trkpt lat="39.61391894294127" lon="9.17184834548737"><ele>453.33333333333337</ele><time>2026-04-25T07:48:35Z</time></trkpt><trkpt lat="39.61400774611936" lon="9.17161783053001"><ele>454.0</ele><time>2026-04-25T07:48:36Z</time></trkpt><trkpt lat="39.614097073034074" lon="9.171386831851178"><ele>454.0</ele><time>2026-04-25T07:48:37Z</time></trkpt><trkpt lat="39.61418724007359" lon="9.171154575989862"><ele>454.0</ele><time>2026-04-25T07:48:38Z</time></trkpt><trkpt lat="39.61427169764945" lon="9.170916546708922"><ele>454.0</ele><time>2026-04-25T07:48:39Z</time></trkpt><trkpt lat="39.61434713269617" lon="9.170668067494075"><ele>453.6666666666667</ele><time>2026-04-25T07:48:40Z</time></trkpt><trkpt lat="39.61441508948746" lon="9.170412253624574"><ele>453.33333333333337</ele><time>2026-04-25T07:48:41Z</time></trkpt><trkpt lat="39.61447798024078" lon="9.17015262231156"><ele>453.0</ele><time>2026-04-25T07:48:42Z</time></trkpt><trkpt lat="39.6145360741391" lon="9.16989053121464"><ele>452.0</ele><time>2026-04-25T07:48:43Z</time></trkpt><trkpt lat="39.61457847282873" lon="9.169621175684993"><ele>451.0</ele><time>2026-04-25T07:48:44Z</time></trkpt><trkpt lat="39.61460521836657" lon="9.169352961584073"><ele>450.0</ele><time>2026-04-25T07:48:45Z</time></trkpt><trkpt lat="39.61463196105715" lon="9.169080879840944"><ele>449.66666666666663</ele><time>2026-04-25T07:48:46Z</time></trkpt><trkpt lat="39.61466093165706" lon="9.168809744697713"><ele>449.3333333333333</ele><time>2026-04-25T07:48:47Z</time></trkpt><trkpt lat="39.614691194853215" lon="9.168535322558338"><ele>449.0</ele><time>2026-04-25T07:48:48Z</time></trkpt><trkpt lat="39.61472116788995" lon="9.168261490830467"><ele>449.3333333333333</ele><time>2026-04-25T07:48:49Z</time></trkpt><trkpt lat="39.61475121328108" lon="9.167989795985752"><ele>449.66666666666663</ele><time>2026-04-25T07:48:50Z</time></trkpt><trkpt lat="39.61478146442356" lon="9.167718893285608"><ele>450.0</ele><time>2026-04-25T07:48:51Z</time></trkpt><trkpt lat="39.61481350403561" lon="9.167453335845702"><ele>451.66666666666663</ele><time>2026-04-25T07:48:52Z</time></trkpt><trkpt lat="39.614850395355575" lon="9.167191567575228"><ele>453.3333333333333</ele><time>2026-04-25T07:48:53Z</time></trkpt><trkpt lat="39.614902839786005" lon="9.166934798534786"><ele>455.0</ele><time>2026-04-25T07:48:54Z</time></trkpt><trkpt lat="39.61496579399775" lon="9.166685496399664"><ele>454.66666666666663</ele><time>2026-04-25T07:48:55Z</time></trkpt><trkpt lat="39.6150371489754" lon="9.16643859045907"><ele>454.33333333333337</ele><time>2026-04-25T07:48:56Z</time></trkpt><trkpt lat="39.61512512106694" lon="9.166201432612793"><ele>454.0</ele><time>2026-04-25T07:48:57Z</time></trkpt><trkpt lat="39.61522548230221" lon="9.165970830094867"><ele>454.0</ele><time>2026-04-25T07:48:58Z</time></trkpt><trkpt lat="39.61533608578165" lon="9.165748270869615"><ele>454.0</ele><time>2026-04-25T07:48:59Z</time></trkpt><trkpt lat="39.61545882964562" lon="9.165534475386174"><ele>454.0</ele><time>2026-04-25T07:49:00Z</time></trkpt><trkpt lat="39.615588539638445" lon="9.165329819770855"><ele>454.0</ele><time>2026-04-25T07:49:01Z</time></trkpt><trkpt lat="39.61573012453783" lon="9.165140255067415"><ele>454.0</ele><time>2026-04-25T07:49:02Z</time></trkpt><trkpt lat="39.6158845886761" lon="9.16496504252771"><ele>454.0</ele><time>2026-04-25T07:49:03Z</time></trkpt><trkpt lat="39.61604580502204" lon="9.164797108952337"><ele>453.6666666666667</ele><time>2026-04-25T07:49:04Z</time></trkpt><trkpt lat="39.61620643134702" lon="9.164630222650624"><ele>453.33333333333337</ele><time>2026-04-25T07:49:05Z</time></trkpt><trkpt lat="39.61636671267475" lon="9.164462503020543"><ele>453.0</ele><time>2026-04-25T07:49:06Z</time></trkpt><trkpt lat="39.61652705380015" lon="9.164296647558228"><ele>453.0</ele><time>2026-04-25T07:49:07Z</time></trkpt><trkpt lat="39.616687015275595" lon="9.164133668620632"><ele>453.0</ele><time>2026-04-25T07:49:08Z</time></trkpt><trkpt lat="39.61684643102344" lon="9.16396935407231"><ele>453.0</ele><time>2026-04-25T07:49:09Z</time></trkpt><trkpt lat="39.61701500764542" lon="9.163820360468511"><ele>451.66666666666663</ele><time>2026-04-25T07:49:10Z</time></trkpt><trkpt lat="39.61717307094743" lon="9.163658127833154"><ele>450.3333333333333</ele><time>2026-04-25T07:49:11Z</time></trkpt><trkpt lat="39.617321536776586" lon="9.163479224724616"><ele>449.0</ele><time>2026-04-25T07:49:12Z</time></trkpt><trkpt lat="39.6174795400067" lon="9.163318313579326"><ele>449.3333333333333</ele><time>2026-04-25T07:49:13Z</time></trkpt><trkpt lat="39.61763749115262" lon="9.16316421465711"><ele>449.66666666666663</ele><time>2026-04-25T07:49:14Z</time></trkpt><trkpt lat="39.61779428102699" lon="9.163010379852633"><ele>450.0</ele><time>2026-04-25T07:49:15Z</time></trkpt><trkpt lat="39.61794713538473" lon="9.162852565285572"><ele>450.33333333333337</ele><time>2026-04-25T07:49:16Z</time></trkpt><trkpt lat="39.61809716531758" lon="9.162695151830631"><ele>450.6666666666667</ele><time>2026-04-25T07:49:17Z</time></trkpt><trkpt lat="39.618249853903066" lon="9.162541743244397"><ele>451.0</ele><time>2026-04-25T07:49:18Z</time></trkpt><trkpt lat="39.61840673309739" lon="9.162397160507485"><ele>452.0</ele><time>2026-04-25T07:49:19Z</time></trkpt><trkpt lat="39.61856976022735" lon="9.162253567729007"><ele>453.0</ele><time>2026-04-25T07:49:20Z</time></trkpt><trkpt lat="39.618736193461025" lon="9.162123894444552"><ele>454.0</ele><time>2026-04-25T07:49:21Z</time></trkpt><trkpt lat="39.61891025481283" lon="9.162014360082967"><ele>454.0</ele><time>2026-04-25T07:49:22Z</time></trkpt><trkpt lat="39.61908945065375" lon="9.161912560176885"><ele>454.0</ele><time>2026-04-25T07:49:23Z</time></trkpt><trkpt lat="39.61926884391896" lon="9.16182201753635"><ele>454.0</ele><time>2026-04-25T07:49:24Z</time></trkpt><trkpt lat="39.61945001429089" lon="9.161753866740828"><ele>454.6666666666667</ele><time>2026-04-25T07:49:25Z</time></trkpt><trkpt lat="39.619634692694945" lon="9.161700884211522"><ele>455.33333333333337</ele><time>2026-04-25T07:49:26Z</time></trkpt><trkpt lat="39.61981639529679" lon="9.161662395800047"><ele>456.0</ele><time>2026-04-25T07:49:27Z</time></trkpt><trkpt lat="39.61998768773107" lon="9.16164354210365"><ele>456.0</ele><time>2026-04-25T07:49:28Z</time></trkpt><trkpt lat="39.62015882865446" lon="9.161630370041237"><ele>456.0</ele><time>2026-04-25T07:49:29Z</time></trkpt><trkpt lat="39.620335302086396" lon="9.161627958951122"><ele>456.0</ele><time>2026-04-25T07:49:30Z</time></trkpt><trkpt lat="39.62051733199341" lon="9.161646161186285"><ele>456.33333333333337</ele><time>2026-04-25T07:49:31Z</time></trkpt><trkpt lat="39.620703325190036" lon="9.16167825537348"><ele>456.6666666666667</ele><time>2026-04-25T07:49:32Z</time></trkpt><trkpt lat="39.62088732183197" lon="9.161727873905617"><ele>457.0</ele><time>2026-04-25T07:49:33Z</time></trkpt><trkpt lat="39.6210695477426" lon="9.161791369755829"><ele>457.6666666666667</ele><time>2026-04-25T07:49:34Z</time></trkpt><trkpt lat="39.621249511262654" lon="9.161871013211782"><ele>458.33333333333337</ele><time>2026-04-25T07:49:35Z</time></trkpt><trkpt lat="39.62142508998864" lon="9.161966429202312"><ele>459.0</ele><time>2026-04-25T07:49:36Z</time></trkpt><trkpt lat="39.62159911079908" lon="9.16206143646854"><ele>459.0</ele><time>2026-04-25T07:49:37Z</time></trkpt><trkpt lat="39.62177383974479" lon="9.162157128570023"><ele>459.0</ele><time>2026-04-25T07:49:38Z</time></trkpt><trkpt lat="39.62195001685297" lon="9.16225222938898"><ele>459.0</ele><time>2026-04-25T07:49:39Z</time></trkpt><trkpt lat="39.62213001119267" lon="9.162346901930679"><ele>458.66666666666663</ele><time>2026-04-25T07:49:40Z</time></trkpt><trkpt lat="39.622309254322644" lon="9.162448015834137"><ele>458.3333333333333</ele><time>2026-04-25T07:49:41Z</time></trkpt><trkpt lat="39.62249424417118" lon="9.162545934175903"><ele>458.0</ele><time>2026-04-25T07:49:42Z</time></trkpt><trkpt lat="39.62267784258059" lon="9.162641523865966"><ele>457.66666666666663</ele><time>2026-04-25T07:49:43Z</time></trkpt><trkpt lat="39.62286635839311" lon="9.162737327818759"><ele>457.33333333333337</ele><time>2026-04-25T07:49:44Z</time></trkpt><trkpt lat="39.623055297530904" lon="9.162833880028645"><ele>457.0</ele><time>2026-04-25T07:49:45Z</time></trkpt><trkpt lat="39.62324189628403" lon="9.162936420985515"><ele>457.0</ele><time>2026-04-25T07:49:46Z</time></trkpt><trkpt lat="39.62342850254713" lon="9.16303951699645"><ele>457.0</ele><time>2026-04-25T07:49:47Z</time></trkpt><trkpt lat="39.62361559580808" lon="9.163139375597558"><ele>457.0</ele><time>2026-04-25T07:49:48Z</time></trkpt><trkpt lat="39.62380127900584" lon="9.163237309967972"><ele>458.33333333333337</ele><time>2026-04-25T07:49:49Z</time></trkpt><trkpt lat="39.62398534467618" lon="9.163333976097439"><ele>459.66666666666663</ele><time>2026-04-25T07:49:50Z</time></trkpt><trkpt lat="39.62416982447636" lon="9.163427379268345"><ele>461.0</ele><time>2026-04-25T07:49:51Z</time></trkpt><trkpt lat="39.6243584340622" lon="9.163514282873162"><ele>461.66666666666663</ele><time>2026-04-25T07:49:52Z</time></trkpt><trkpt lat="39.62455039483072" lon="9.163585337766808"><ele>462.33333333333337</ele><time>2026-04-25T07:49:53Z</time></trkpt><trkpt lat="39.624744722512254" lon="9.163639013086865"><ele>463.0</ele><time>2026-04-25T07:49:54Z</time></trkpt><trkpt lat="39.62494313297299" lon="9.16367800442757"><ele>463.0</ele><time>2026-04-25T07:49:55Z</time></trkpt><trkpt lat="39.625143454147484" lon="9.163704906830423"><ele>463.0</ele><time>2026-04-25T07:49:56Z</time></trkpt><trkpt lat="39.62534473296757" lon="9.163717357272686"><ele>463.0</ele><time>2026-04-25T07:49:57Z</time></trkpt><trkpt lat="39.62554559119723" lon="9.163708011891472"><ele>462.6666666666667</ele><time>2026-04-25T07:49:58Z</time></trkpt><trkpt lat="39.625746000493734" lon="9.163683234938347"><ele>462.33333333333337</ele><time>2026-04-25T07:49:59Z</time></trkpt><trkpt lat="39.62594476829642" lon="9.163654889842455"><ele>462.0</ele><time>2026-04-25T07:50:00Z</time></trkpt><trkpt lat="39.62613978125567" lon="9.163612941391229"><ele>462.33333333333337</ele><time>2026-04-25T07:50:01Z</time></trkpt><trkpt lat="39.62633257701504" lon="9.163549134041707"><ele>462.6666666666667</ele><time>2026-04-25T07:50:02Z</time></trkpt><trkpt lat="39.62652273203804" lon="9.163474392244787"><ele>463.0</ele><time>2026-04-25T07:50:03Z</time></trkpt><trkpt lat="39.626712564932376" lon="9.16339566859224"><ele>463.0</ele><time>2026-04-25T07:50:04Z</time></trkpt><trkpt lat="39.62690399184574" lon="9.16331471541937"><ele>463.0</ele><time>2026-04-25T07:50:05Z</time></trkpt><trkpt lat="39.627096170381996" lon="9.163229728770489"><ele>463.0</ele><time>2026-04-25T07:50:06Z</time></trkpt><trkpt lat="39.627288209417806" lon="9.163142144339577"><ele>463.0</ele><time>2026-04-25T07:50:07Z</time></trkpt><trkpt lat="39.627477361023516" lon="9.163053967801822"><ele>463.0</ele><time>2026-04-25T07:50:08Z</time></trkpt><trkpt lat="39.62766299264853" lon="9.162968051540613"><ele>463.0</ele><time>2026-04-25T07:50:09Z</time></trkpt><trkpt lat="39.62785326195032" lon="9.162887376293083"><ele>461.6666666666667</ele><time>2026-04-25T07:50:10Z</time></trkpt><trkpt lat="39.62804365066119" lon="9.162804816015344"><ele>460.33333333333337</ele><time>2026-04-25T07:50:11Z</time></trkpt><trkpt lat="39.62823504022939" lon="9.162718942078293"><ele>459.0</ele><time>2026-04-25T07:50:12Z</time></trkpt><trkpt lat="39.62842466717601" lon="9.162634633831663"><ele>459.0</ele><time>2026-04-25T07:50:13Z</time></trkpt><trkpt lat="39.62861330506916" lon="9.16255491809409"><ele>459.0</ele><time>2026-04-25T07:50:14Z</time></trkpt><trkpt lat="39.62879955126204" lon="9.162479960877203"><ele>459.0</ele><time>2026-04-25T07:50:15Z</time></trkpt><trkpt lat="39.62898227345557" lon="9.16240493583831"><ele>458.0</ele><time>2026-04-25T07:50:16Z</time></trkpt><trkpt lat="39.6291605729472" lon="9.162319545264474"><ele>457.0</ele><time>2026-04-25T07:50:17Z</time></trkpt><trkpt lat="39.62933769390545" lon="9.162235618407937"><ele>456.0</ele><time>2026-04-25T07:50:18Z</time></trkpt><trkpt lat="39.629517277517714" lon="9.162161873902336"><ele>455.66666666666663</ele><time>2026-04-25T07:50:19Z</time></trkpt><trkpt lat="39.62969387794849" lon="9.162076500930326"><ele>455.3333333333333</ele><time>2026-04-25T07:50:20Z</time></trkpt><trkpt lat="39.629866107296415" lon="9.16196932031735"><ele>455.0</ele><time>2026-04-25T07:50:21Z</time></trkpt><trkpt lat="39.63003370905066" lon="9.161852198890438"><ele>455.0</ele><time>2026-04-25T07:50:22Z</time></trkpt><trkpt lat="39.63019339757242" lon="9.161720171186639"><ele>455.0</ele><time>2026-04-25T07:50:23Z</time></trkpt><trkpt lat="39.63034899145546" lon="9.161582195160761"><ele>455.0</ele><time>2026-04-25T07:50:24Z</time></trkpt><trkpt lat="39.63049992674284" lon="9.161439641958058"><ele>456.0</ele><time>2026-04-25T07:50:25Z</time></trkpt><trkpt lat="39.63064029789794" lon="9.161277584414638"><ele>457.0</ele><time>2026-04-25T07:50:26Z</time></trkpt><trkpt lat="39.63076730814556" lon="9.16109840594771"><ele>458.0</ele><time>2026-04-25T07:50:27Z</time></trkpt><trkpt lat="39.63088624128754" lon="9.160911328075148"><ele>458.0</ele><time>2026-04-25T07:50:28Z</time></trkpt><trkpt lat="39.63100343068359" lon="9.16071945383242"><ele>458.0</ele><time>2026-04-25T07:50:29Z</time></trkpt><trkpt lat="39.63112060066606" lon="9.160526017997022"><ele>458.0</ele><time>2026-04-25T07:50:30Z</time></trkpt><trkpt lat="39.63124091120804" lon="9.160334963111943"><ele>458.0</ele><time>2026-04-25T07:50:31Z</time></trkpt><trkpt lat="39.631360047904366" lon="9.160145005807868"><ele>458.0</ele><time>2026-04-25T07:50:32Z</time></trkpt><trkpt lat="39.63147987082996" lon="9.159954235118304"><ele>458.0</ele><time>2026-04-25T07:50:33Z</time></trkpt><trkpt lat="39.63159840543233" lon="9.159762232784669"><ele>457.66666666666663</ele><time>2026-04-25T07:50:34Z</time></trkpt><trkpt lat="39.63171816936284" lon="9.159563555910639"><ele>457.33333333333337</ele><time>2026-04-25T07:50:35Z</time></trkpt><trkpt lat="39.631837010269926" lon="9.159363140080188"><ele>457.0</ele><time>2026-04-25T07:50:36Z</time></trkpt><trkpt lat="39.63195640370045" lon="9.159167511552786"><ele>456.6666666666667</ele><time>2026-04-25T07:50:37Z</time></trkpt><trkpt lat="39.63207552337145" lon="9.158974184501558"><ele>456.33333333333337</ele><time>2026-04-25T07:50:38Z</time></trkpt><trkpt lat="39.63219603442865" lon="9.158782919930099"><ele>456.0</ele><time>2026-04-25T07:50:39Z</time></trkpt><trkpt lat="39.63231329506832" lon="9.158591148430698"><ele>456.0</ele><time>2026-04-25T07:50:40Z</time></trkpt><trkpt lat="39.63243009087791" lon="9.158399837801127"><ele>456.0</ele><time>2026-04-25T07:50:41Z</time></trkpt><trkpt lat="39.632549332595026" lon="9.158207617142958"><ele>456.0</ele><time>2026-04-25T07:50:42Z</time></trkpt><trkpt lat="39.632670487189365" lon="9.158016038319266"><ele>456.0</ele><time>2026-04-25T07:50:43Z</time></trkpt><trkpt lat="39.63279273480379" lon="9.1578210945953"><ele>456.0</ele><time>2026-04-25T07:50:44Z</time></trkpt><trkpt lat="39.63291470485826" lon="9.157625775063442"><ele>456.0</ele><time>2026-04-25T07:50:45Z</time></trkpt><trkpt lat="39.633036093110924" lon="9.157427740309071"><ele>456.0</ele><time>2026-04-25T07:50:46Z</time></trkpt><trkpt lat="39.633158761563344" lon="9.15722957606428"><ele>456.0</ele><time>2026-04-25T07:50:47Z</time></trkpt><trkpt lat="39.63327928451917" lon="9.157033628088515"><ele>456.0</ele><time>2026-04-25T07:50:48Z</time></trkpt><trkpt lat="39.63339973710639" lon="9.156835477330219"><ele>456.0</ele><time>2026-04-25T07:50:49Z</time></trkpt><trkpt lat="39.6335208462235" lon="9.156641615296673"><ele>456.0</ele><time>2026-04-25T07:50:50Z</time></trkpt><trkpt lat="39.63364973117296" lon="9.156452719090595"><ele>456.0</ele><time>2026-04-25T07:50:51Z</time></trkpt><trkpt lat="39.633783080476974" lon="9.156268264654507"><ele>456.0</ele><time>2026-04-25T07:50:52Z</time></trkpt><trkpt lat="39.63392005522393" lon="9.156086735975162"><ele>456.0</ele><time>2026-04-25T07:50:53Z</time></trkpt><trkpt lat="39.63405991131447" lon="9.155909180893335"><ele>456.0</ele><time>2026-04-25T07:50:54Z</time></trkpt><trkpt lat="39.63420182247257" lon="9.15573605073416"><ele>455.33333333333337</ele><time>2026-04-25T07:50:55Z</time></trkpt><trkpt lat="39.63434591930793" lon="9.155568076107228"><ele>454.6666666666667</ele><time>2026-04-25T07:50:56Z</time></trkpt><trkpt lat="39.63449475718997" lon="9.155406224369326"><ele>454.0</ele><time>2026-04-25T07:50:57Z</time></trkpt><trkpt lat="39.63464624855688" lon="9.155250700045396"><ele>454.6666666666667</ele><time>2026-04-25T07:50:58Z</time></trkpt><trkpt lat="39.63480290226543" lon="9.155098260368453"><ele>455.33333333333337</ele><time>2026-04-25T07:50:59Z</time></trkpt><trkpt lat="39.63496074886764" lon="9.154953147244841"><ele>456.0</ele><time>2026-04-25T07:51:00Z</time></trkpt><trkpt lat="39.63511870258754" lon="9.154812955070202"><ele>456.0</ele><time>2026-04-25T07:51:01Z</time></trkpt><trkpt lat="39.63528356840177" lon="9.154674383246654"><ele>456.0</ele><time>2026-04-25T07:51:02Z</time></trkpt><trkpt lat="39.63544775699351" lon="9.154535416269507"><ele>456.0</ele><time>2026-04-25T07:51:03Z</time></trkpt><trkpt lat="39.6356119385942" lon="9.154396627296803"><ele>456.0</ele><time>2026-04-25T07:51:04Z</time></trkpt><trkpt lat="39.63577714230636" lon="9.154257099084445"><ele>456.0</ele><time>2026-04-25T07:51:05Z</time></trkpt><trkpt lat="39.635945131128516" lon="9.154118138196024"><ele>456.0</ele><time>2026-04-25T07:51:06Z</time></trkpt><trkpt lat="39.63611236792844" lon="9.153980215594567"><ele>457.0</ele><time>2026-04-25T07:51:07Z</time></trkpt><trkpt lat="39.63627967214757" lon="9.153843686130994"><ele>458.0</ele><time>2026-04-25T07:51:08Z</time></trkpt><trkpt lat="39.63644751684847" lon="9.153704136523578"><ele>459.0</ele><time>2026-04-25T07:51:09Z</time></trkpt><trkpt lat="39.63661237568824" lon="9.153563961250407"><ele>459.0</ele><time>2026-04-25T07:51:10Z</time></trkpt><trkpt lat="39.636778883725064" lon="9.153425645480363"><ele>459.0</ele><time>2026-04-25T07:51:11Z</time></trkpt><trkpt lat="39.63694337659241" lon="9.153289596619908"><ele>459.0</ele><time>2026-04-25T07:51:12Z</time></trkpt><trkpt lat="39.63710777167162" lon="9.15314975427348"><ele>460.33333333333337</ele><time>2026-04-25T07:51:13Z</time></trkpt><trkpt lat="39.63726925227575" lon="9.153012790902645"><ele>461.6666666666667</ele><time>2026-04-25T07:51:14Z</time></trkpt><trkpt lat="39.63743066133293" lon="9.152875525096318"><ele>463.0</ele><time>2026-04-25T07:51:15Z</time></trkpt><trkpt lat="39.637592227119754" lon="9.152743931843593"><ele>463.0</ele><time>2026-04-25T07:51:16Z</time></trkpt><trkpt lat="39.637753723446735" lon="9.152615545276491"><ele>463.0</ele><time>2026-04-25T07:51:17Z</time></trkpt><trkpt lat="39.63791420449652" lon="9.152478696768158"><ele>463.0</ele><time>2026-04-25T07:51:18Z</time></trkpt><trkpt lat="39.63807336074495" lon="9.152343124887592"><ele>463.0</ele><time>2026-04-25T07:51:19Z</time></trkpt><trkpt lat="39.638233213996216" lon="9.152208207940188"><ele>463.0</ele><time>2026-04-25T07:51:20Z</time></trkpt><trkpt lat="39.638396632501475" lon="9.152081622782779"><ele>463.0</ele><time>2026-04-25T07:51:21Z</time></trkpt><trkpt lat="39.63856068405143" lon="9.151947969393827"><ele>463.0</ele><time>2026-04-25T07:51:22Z</time></trkpt><trkpt lat="39.638725249060684" lon="9.151813371995065"><ele>463.0</ele><time>2026-04-25T07:51:23Z</time></trkpt><trkpt lat="39.63889015268184" lon="9.151676417718827"><ele>463.0</ele><time>2026-04-25T07:51:24Z</time></trkpt><trkpt lat="39.63905317963635" lon="9.151537114775058"><ele>463.33333333333337</ele><time>2026-04-25T07:51:25Z</time></trkpt><trkpt lat="39.63921460807184" lon="9.151397861530034"><ele>463.66666666666663</ele><time>2026-04-25T07:51:26Z</time></trkpt><trkpt lat="39.639377547336544" lon="9.151260395795347"><ele>464.0</ele><time>2026-04-25T07:51:27Z</time></trkpt><trkpt lat="39.63954158067649" lon="9.151123452526155"><ele>464.0</ele><time>2026-04-25T07:51:28Z</time></trkpt><trkpt lat="39.63970418641119" lon="9.150990632403827"><ele>464.0</ele><time>2026-04-25T07:51:29Z</time></trkpt><trkpt lat="39.6398645596169" lon="9.150853806776508"><ele>464.0</ele><time>2026-04-25T07:51:30Z</time></trkpt><trkpt lat="39.640024710752336" lon="9.150713521076964"><ele>464.0</ele><time>2026-04-25T07:51:31Z</time></trkpt><trkpt lat="39.640176529974546" lon="9.150567654866423"><ele>464.0</ele><time>2026-04-25T07:51:32Z</time></trkpt><trkpt lat="39.64032807462679" lon="9.150417405852927"><ele>464.0</ele><time>2026-04-25T07:51:33Z</time></trkpt><trkpt lat="39.64047412292363" lon="9.150258954749363"><ele>464.0</ele><time>2026-04-25T07:51:34Z</time></trkpt><trkpt lat="39.64061913389674" lon="9.150097491187342"><ele>464.0</ele><time>2026-04-25T07:51:35Z</time></trkpt><trkpt lat="39.640761967655074" lon="9.149931224795097"><ele>464.0</ele><time>2026-04-25T07:51:36Z</time></trkpt><trkpt lat="39.64089659598659" lon="9.149761516253003"><ele>464.3333333333333</ele><time>2026-04-25T07:51:37Z</time></trkpt><trkpt lat="39.64102761071799" lon="9.149584399851477"><ele>464.66666666666663</ele><time>2026-04-25T07:51:38Z</time></trkpt><trkpt lat="39.64115223005492" lon="9.149400947937847"><ele>465.0</ele><time>2026-04-25T07:51:39Z</time></trkpt><trkpt lat="39.64127167203368" lon="9.14921453056532"><ele>464.0</ele><time>2026-04-25T07:51:40Z</time></trkpt><trkpt lat="39.64138622179503" lon="9.149021176339796"><ele>463.0</ele><time>2026-04-25T07:51:41Z</time></trkpt><trkpt lat="39.64149759908614" lon="9.148819458912747"><ele>462.0</ele><time>2026-04-25T07:51:42Z</time></trkpt><trkpt lat="39.64160477865187" lon="9.148614779931666"><ele>462.0</ele><time>2026-04-25T07:51:43Z</time></trkpt><trkpt lat="39.6417093625727" lon="9.148409277868938"><ele>462.0</ele><time>2026-04-25T07:51:44Z</time></trkpt><trkpt lat="39.641810719791536" lon="9.148202496257902"><ele>462.0</ele><time>2026-04-25T07:51:45Z</time></trkpt><trkpt lat="39.641909045402905" lon="9.147993263666766"><ele>462.0</ele><time>2026-04-25T07:51:46Z</time></trkpt><trkpt lat="39.642006443909246" lon="9.147786054454613"><ele>462.0</ele><time>2026-04-25T07:51:47Z</time></trkpt><trkpt lat="39.64210689843002" lon="9.147579866788476"><ele>462.0</ele><time>2026-04-25T07:51:48Z</time></trkpt><trkpt lat="39.642204260121254" lon="9.147374548283372"><ele>462.0</ele><time>2026-04-25T07:51:49Z</time></trkpt><trkpt lat="39.64230187491656" lon="9.147170387573018"><ele>462.0</ele><time>2026-04-25T07:51:50Z</time></trkpt><trkpt lat="39.642403803227566" lon="9.14696577767091"><ele>462.0</ele><time>2026-04-25T07:51:51Z</time></trkpt><trkpt lat="39.642504615005606" lon="9.14676487462156"><ele>462.0</ele><time>2026-04-25T07:51:52Z</time></trkpt><trkpt lat="39.64260018079643" lon="9.146559740553739"><ele>462.0</ele><time>2026-04-25T07:51:53Z</time></trkpt><trkpt lat="39.64270084844459" lon="9.146355528629709"><ele>462.0</ele><time>2026-04-25T07:51:54Z</time></trkpt><trkpt lat="39.642800522364766" lon="9.146150766583206"><ele>461.33333333333337</ele><time>2026-04-25T07:51:55Z</time></trkpt><trkpt lat="39.64289935356442" lon="9.145940844951891"><ele>460.6666666666667</ele><time>2026-04-25T07:51:56Z</time></trkpt><trkpt lat="39.64299864923203" lon="9.145731332385651"><ele>460.0</ele><time>2026-04-25T07:51:57Z</time></trkpt><trkpt lat="39.643097618661045" lon="9.145522704838571"><ele>460.0</ele><time>2026-04-25T07:51:58Z</time></trkpt><trkpt lat="39.6431958657711" lon="9.145312709690902"><ele>460.0</ele><time>2026-04-25T07:51:59Z</time></trkpt><trkpt lat="39.64330833986465" lon="9.145114083111027"><ele>460.0</ele><time>2026-04-25T07:52:00Z</time></trkpt><trkpt lat="39.64339720671118" lon="9.144895250029695"><ele>460.33333333333337</ele><time>2026-04-25T07:52:01Z</time></trkpt><trkpt lat="39.6435011211633" lon="9.144688417800891"><ele>460.66666666666663</ele><time>2026-04-25T07:52:02Z</time></trkpt><trkpt lat="39.64359840372617" lon="9.14448122104494"><ele>461.0</ele><time>2026-04-25T07:52:03Z</time></trkpt><trkpt lat="39.64369794440071" lon="9.144272420576428"><ele>460.3333333333333</ele><time>2026-04-25T07:52:04Z</time></trkpt><trkpt lat="39.64379855908979" lon="9.144061206160671"><ele>459.66666666666663</ele><time>2026-04-25T07:52:05Z</time></trkpt><trkpt lat="39.64390303646418" lon="9.14385511075863"><ele>459.0</ele><time>2026-04-25T07:52:06Z</time></trkpt><trkpt lat="39.644008338592975" lon="9.143648979588168"><ele>459.0</ele><time>2026-04-25T07:52:07Z</time></trkpt><trkpt lat="39.64412418327309" lon="9.143452836426885"><ele>459.0</ele><time>2026-04-25T07:52:08Z</time></trkpt><trkpt lat="39.64424713567845" lon="9.143264411485314"><ele>459.0</ele><time>2026-04-25T07:52:09Z</time></trkpt><trkpt lat="39.644370208856415" lon="9.143075891770073"><ele>458.66666666666663</ele><time>2026-04-25T07:52:10Z</time></trkpt><trkpt lat="39.644500295141874" lon="9.142891583956512"><ele>458.3333333333333</ele><time>2026-04-25T07:52:11Z</time></trkpt><trkpt lat="39.64463456746517" lon="9.142711262742658"><ele>458.0</ele><time>2026-04-25T07:52:12Z</time></trkpt><trkpt lat="39.64476884147754" lon="9.142533774641702"><ele>458.66666666666663</ele><time>2026-04-25T07:52:13Z</time></trkpt><trkpt lat="39.64490366768591" lon="9.14235866529177"><ele>459.33333333333337</ele><time>2026-04-25T07:52:14Z</time></trkpt><trkpt lat="39.64504057204374" lon="9.142185103280822"><ele>460.0</ele><time>2026-04-25T07:52:15Z</time></trkpt><trkpt lat="39.64517648942551" lon="9.14201248411219"><ele>460.0</ele><time>2026-04-25T07:52:16Z</time></trkpt><trkpt lat="39.645314756689594" lon="9.14184320279406"><ele>460.0</ele><time>2026-04-25T07:52:17Z</time></trkpt><trkpt lat="39.64545948184587" lon="9.141685626393965"><ele>460.0</ele><time>2026-04-25T07:52:18Z</time></trkpt><trkpt lat="39.64560989131541" lon="9.14154422325081"><ele>460.0</ele><time>2026-04-25T07:52:19Z</time></trkpt><trkpt lat="39.645758087896766" lon="9.141396205193116"><ele>460.0</ele><time>2026-04-25T07:52:20Z</time></trkpt><trkpt lat="39.645915750635425" lon="9.141261547483275"><ele>460.0</ele><time>2026-04-25T07:52:21Z</time></trkpt><trkpt lat="39.646070962431125" lon="9.141130022969037"><ele>460.0</ele><time>2026-04-25T07:52:22Z</time></trkpt><trkpt lat="39.64624232029648" lon="9.141031767797502"><ele>460.0</ele><time>2026-04-25T07:52:23Z</time></trkpt><trkpt lat="39.64641449446166" lon="9.140941381827163"><ele>460.0</ele><time>2026-04-25T07:52:24Z</time></trkpt><trkpt lat="39.64658623437305" lon="9.1408533247803"><ele>460.0</ele><time>2026-04-25T07:52:25Z</time></trkpt><trkpt lat="39.64675714978548" lon="9.14076648243813"><ele>460.0</ele><time>2026-04-25T07:52:26Z</time></trkpt><trkpt lat="39.64693004535041" lon="9.140676513762578"><ele>460.0</ele><time>2026-04-25T07:52:27Z</time></trkpt><trkpt lat="39.647101603471526" lon="9.140586357822988"><ele>460.6666666666667</ele><time>2026-04-25T07:52:28Z</time></trkpt><trkpt lat="39.64726522283292" lon="9.140497865815908"><ele>461.33333333333337</ele><time>2026-04-25T07:52:29Z</time></trkpt><trkpt lat="39.647419771269156" lon="9.140413910127759"><ele>462.0</ele><time>2026-04-25T07:52:30Z</time></trkpt><trkpt lat="39.647560137325286" lon="9.140324755075302"><ele>462.0</ele><time>2026-04-25T07:52:31Z</time></trkpt><trkpt lat="39.64767975263944" lon="9.14021173221471"><ele>462.0</ele><time>2026-04-25T07:52:32Z</time></trkpt><trkpt lat="39.64777952923808" lon="9.140086827331332"><ele>462.0</ele><time>2026-04-25T07:52:33Z</time></trkpt><trkpt lat="39.64786644031272" lon="9.139958301974696"><ele>462.0</ele><time>2026-04-25T07:52:34Z</time></trkpt><trkpt lat="39.647945808607616" lon="9.139833957348296"><ele>461.5</ele><time>2026-04-25T07:52:35Z</time></trkpt><trkpt lat="39.6480175815414" lon="9.139711521575354"><ele>461.0</ele><time>2026-04-25T07:52:36Z</time></trkpt><trkpt lat="39.648086272953655" lon="9.13959061709294"><ele>460.5</ele><time>2026-04-25T07:52:37Z</time></trkpt><trkpt lat="39.64816260863641" lon="9.139463241385208"><ele>460.0</ele><time>2026-04-25T07:52:38Z</time></trkpt><trkpt lat="39.64824739697253" lon="9.139328713805968"><ele>460.0</ele><time>2026-04-25T07:52:39Z</time></trkpt><trkpt lat="39.6483371522307" lon="9.139185702719038"><ele>460.0</ele><time>2026-04-25T07:52:40Z</time></trkpt><trkpt lat="39.64843158972946" lon="9.139030885246585"><ele>460.0</ele><time>2026-04-25T07:52:41Z</time></trkpt><trkpt lat="39.64852358243733" lon="9.138866107895796"><ele>459.33333333333337</ele><time>2026-04-25T07:52:42Z</time></trkpt><trkpt lat="39.64862469067843" lon="9.138697602818176"><ele>458.66666666666663</ele><time>2026-04-25T07:52:43Z</time></trkpt><trkpt lat="39.64872881958538" lon="9.138528287083583"><ele>458.0</ele><time>2026-04-25T07:52:44Z</time></trkpt><trkpt lat="39.64883207170189" lon="9.138356092046063"><ele>457.0</ele><time>2026-04-25T07:52:45Z</time></trkpt><trkpt lat="39.648934595223736" lon="9.13818618664228"><ele>456.0</ele><time>2026-04-25T07:52:46Z</time></trkpt><trkpt lat="39.64903772509609" lon="9.138016870182222"><ele>455.0</ele><time>2026-04-25T07:52:47Z</time></trkpt><trkpt lat="39.64914108360129" lon="9.137847252971287"><ele>455.0</ele><time>2026-04-25T07:52:48Z</time></trkpt><trkpt lat="39.64924450538511" lon="9.13767930813717"><ele>455.0</ele><time>2026-04-25T07:52:49Z</time></trkpt><trkpt lat="39.649349033053625" lon="9.13750400749693"><ele>455.0</ele><time>2026-04-25T07:52:50Z</time></trkpt><trkpt lat="39.649456973017486" lon="9.137325749248014"><ele>455.3333333333333</ele><time>2026-04-25T07:52:51Z</time></trkpt><trkpt lat="39.649571405498236" lon="9.137150298251592"><ele>455.66666666666663</ele><time>2026-04-25T07:52:52Z</time></trkpt><trkpt lat="39.64969173995504" lon="9.136979289201612"><ele>456.0</ele><time>2026-04-25T07:52:53Z</time></trkpt><trkpt lat="39.649817707852506" lon="9.136814884385466"><ele>456.0</ele><time>2026-04-25T07:52:54Z</time></trkpt><trkpt lat="39.649945989355096" lon="9.136653123922407"><ele>456.0</ele><time>2026-04-25T07:52:55Z</time></trkpt><trkpt lat="39.65007364688315" lon="9.136489801591019"><ele>456.0</ele><time>2026-04-25T07:52:56Z</time></trkpt><trkpt lat="39.65020081810162" lon="9.136331225524689"><ele>456.0</ele><time>2026-04-25T07:52:57Z</time></trkpt><trkpt lat="39.65031698979944" lon="9.136172284164697"><ele>456.0</ele><time>2026-04-25T07:52:58Z</time></trkpt><trkpt lat="39.65041101482371" lon="9.135992378250629"><ele>456.0</ele><time>2026-04-25T07:52:59Z</time></trkpt><trkpt lat="39.65048478705966" lon="9.1357995290073"><ele>454.66666666666663</ele><time>2026-04-25T07:53:00Z</time></trkpt><trkpt lat="39.65055276533785" lon="9.135605251161518"><ele>453.3333333333333</ele><time>2026-04-25T07:53:01Z</time></trkpt><trkpt lat="39.65061468537929" lon="9.135404969391823"><ele>452.0</ele><time>2026-04-25T07:53:02Z</time></trkpt><trkpt lat="39.650673534274155" lon="9.13520347415622"><ele>452.0</ele><time>2026-04-25T07:53:03Z</time></trkpt><trkpt lat="39.65075268036332" lon="9.135016952608309"><ele>452.0</ele><time>2026-04-25T07:53:04Z</time></trkpt><trkpt lat="39.6508172990689" lon="9.134821413034395"><ele>452.0</ele><time>2026-04-25T07:53:05Z</time></trkpt><trkpt lat="39.650879095794494" lon="9.13463247566612"><ele>451.0</ele><time>2026-04-25T07:53:06Z</time></trkpt><trkpt lat="39.65092583900584" lon="9.134439753875768"><ele>450.0</ele><time>2026-04-25T07:53:07Z</time></trkpt><trkpt lat="39.65099231236436" lon="9.134266105068763"><ele>449.0</ele><time>2026-04-25T07:53:08Z</time></trkpt><trkpt lat="39.651060679987395" lon="9.134098266800375"><ele>450.75</ele><time>2026-04-25T07:53:09Z</time></trkpt><trkpt lat="39.65113632706296" lon="9.13394069205667"><ele>452.5</ele><time>2026-04-25T07:53:10Z</time></trkpt><trkpt lat="39.65121607256474" lon="9.133793713858202"><ele>454.25</ele><time>2026-04-25T07:53:11Z</time></trkpt><trkpt lat="39.65129402951643" lon="9.133646203469661"><ele>456.0</ele><time>2026-04-25T07:53:12Z</time></trkpt><trkpt lat="39.65138082436109" lon="9.133509584621972"><ele>456.0</ele><time>2026-04-25T07:53:13Z</time></trkpt><trkpt lat="39.65147875741287" lon="9.133385091837308"><ele>456.0</ele><time>2026-04-25T07:53:14Z</time></trkpt><trkpt lat="39.651581793900235" lon="9.133284176136486"><ele>456.0</ele><time>2026-04-25T07:53:15Z</time></trkpt><trkpt lat="39.651678741079415" lon="9.13319889299095"><ele>456.0</ele><time>2026-04-25T07:53:16Z</time></trkpt><trkpt lat="39.65176774296833" lon="9.133116808572302"><ele>457.20000000000005</ele><time>2026-04-25T07:53:17Z</time></trkpt><trkpt lat="39.65185162355568" lon="9.133031696090697"><ele>458.40000000000003</ele><time>2026-04-25T07:53:18Z</time></trkpt><trkpt lat="39.651926743965184" lon="9.132935571553993"><ele>459.6</ele><time>2026-04-25T07:53:19Z</time></trkpt><trkpt lat="39.6519912689077" lon="9.132830500297851"><ele>460.8</ele><time>2026-04-25T07:53:20Z</time></trkpt><trkpt lat="39.652050381775496" lon="9.132727045398628"><ele>462.0</ele><time>2026-04-25T07:53:21Z</time></trkpt><trkpt lat="39.65210349558998" lon="9.132618902644209"><ele>462.20000000000005</ele><time>2026-04-25T07:53:22Z</time></trkpt><trkpt lat="39.65214100065643" lon="9.132500104665532"><ele>462.40000000000003</ele><time>2026-04-25T07:53:23Z</time></trkpt><trkpt lat="39.65215887428531" lon="9.13236986013106"><ele>462.59999999999997</ele><time>2026-04-25T07:53:24Z</time></trkpt><trkpt lat="39.65215051537534" lon="9.132233438945885"><ele>462.79999999999995</ele><time>2026-04-25T07:53:25Z</time></trkpt><trkpt lat="39.65213860460464" lon="9.132097165063165"><ele>463.0</ele><time>2026-04-25T07:53:26Z</time></trkpt><trkpt lat="39.65213312678192" lon="9.131964321441526"><ele>463.79999999999995</ele><time>2026-04-25T07:53:27Z</time></trkpt><trkpt lat="39.652133458649466" lon="9.131830548339257"><ele>464.59999999999997</ele><time>2026-04-25T07:53:28Z</time></trkpt><trkpt lat="39.65214064687566" lon="9.131700541536585"><ele>465.40000000000003</ele><time>2026-04-25T07:53:29Z</time></trkpt><trkpt lat="39.65215921607557" lon="9.131582887168754"><ele>466.20000000000005</ele><time>2026-04-25T07:53:30Z</time></trkpt><trkpt lat="39.652190295232174" lon="9.131475678194667"><ele>467.0</ele><time>2026-04-25T07:53:31Z</time></trkpt><trkpt lat="39.65222272953763" lon="9.131377636658316"><ele>467.16666666666663</ele><time>2026-04-25T07:53:32Z</time></trkpt><trkpt lat="39.652252536725996" lon="9.131280505026009"><ele>467.3333333333333</ele><time>2026-04-25T07:53:33Z</time></trkpt><trkpt lat="39.65227785773539" lon="9.131187851570525"><ele>467.5</ele><time>2026-04-25T07:53:34Z</time></trkpt><trkpt lat="39.65230142951462" lon="9.131098216311884"><ele>467.66666666666663</ele><time>2026-04-25T07:53:35Z</time></trkpt><trkpt lat="39.652323271751094" lon="9.131012042752356"><ele>467.8333333333333</ele><time>2026-04-25T07:53:36Z</time></trkpt><trkpt lat="39.65234311166032" lon="9.130926257159334"><ele>468.0</ele><time>2026-04-25T07:53:37Z</time></trkpt><trkpt lat="39.652368980971055" lon="9.130805802385588"><ele>468.0</ele><time>2026-04-25T07:53:39Z</time></trkpt><trkpt lat="39.65240955522569" lon="9.13073207237081"><ele>467.99999999999994</ele><time>2026-04-25T07:53:50Z</time></trkpt><trkpt lat="39.652561021939036" lon="9.13076395673132"><ele>467.99999999999994</ele><time>2026-04-25T07:53:52Z</time></trkpt><trkpt lat="39.65262995357464" lon="9.130768488615178"><ele>468.0</ele><time>2026-04-25T07:53:53Z</time></trkpt><trkpt lat="39.65270696142459" lon="9.130763723576813"><ele>468.0</ele><time>2026-04-25T07:53:54Z</time></trkpt><trkpt lat="39.652787784429954" lon="9.130756039776841"><ele>468.6666666666667</ele><time>2026-04-25T07:53:55Z</time></trkpt><trkpt lat="39.65287596162787" lon="9.130740601707588"><ele>469.33333333333337</ele><time>2026-04-25T07:53:56Z</time></trkpt><trkpt lat="39.65295288030169" lon="9.130713359044563"><ele>470.0</ele><time>2026-04-25T07:53:57Z</time></trkpt><trkpt lat="39.65302304179832" lon="9.130666551975818"><ele>470.6666666666667</ele><time>2026-04-25T07:53:58Z</time></trkpt><trkpt lat="39.65308403100914" lon="9.130607012702868"><ele>471.33333333333337</ele><time>2026-04-25T07:53:59Z</time></trkpt><trkpt lat="39.653140621062704" lon="9.13054352174489"><ele>472.0</ele><time>2026-04-25T07:54:00Z</time></trkpt><trkpt lat="39.65319281056874" lon="9.130473713184754"><ele>472.0</ele><time>2026-04-25T07:54:01Z</time></trkpt><trkpt lat="39.653242332780856" lon="9.130405664179998"><ele>472.0</ele><time>2026-04-25T07:54:02Z</time></trkpt><trkpt lat="39.65329602918271" lon="9.130340336886109"><ele>472.0</ele><time>2026-04-25T07:54:03Z</time></trkpt><trkpt lat="39.65335000210403" lon="9.130276492884217"><ele>472.0</ele><time>2026-04-25T07:54:04Z</time></trkpt><trkpt lat="39.65340014509249" lon="9.13021303613216"><ele>472.0</ele><time>2026-04-25T07:54:05Z</time></trkpt><trkpt lat="39.653448305513166" lon="9.130152458137129"><ele>472.0</ele><time>2026-04-25T07:54:06Z</time></trkpt><trkpt lat="39.653500051775886" lon="9.130103874932468"><ele>472.0</ele><time>2026-04-25T07:54:07Z</time></trkpt><trkpt lat="39.65356448113722" lon="9.130076526158376"><ele>472.85714285714283</ele><time>2026-04-25T07:54:08Z</time></trkpt><trkpt lat="39.65362834701234" lon="9.130049556752777"><ele>473.7142857142858</ele><time>2026-04-25T07:54:09Z</time></trkpt><trkpt lat="39.65369926816088" lon="9.130047886133259"><ele>474.5714285714286</ele><time>2026-04-25T07:54:10Z</time></trkpt><trkpt lat="39.65377300875784" lon="9.130030197586565"><ele>475.42857142857144</ele><time>2026-04-25T07:54:11Z</time></trkpt><trkpt lat="39.65384513589809" lon="9.129991029645419"><ele>476.28571428571433</ele><time>2026-04-25T07:54:12Z</time></trkpt><trkpt lat="39.653925083727216" lon="9.12998553487843"><ele>477.1428571428572</ele><time>2026-04-25T07:54:13Z</time></trkpt><trkpt lat="39.6539992860282" lon="9.129958227772219"><ele>478.00000000000006</ele><time>2026-04-25T07:54:14Z</time></trkpt><trkpt lat="39.65408062896239" lon="9.12993036394346"><ele>477.6666666666667</ele><time>2026-04-25T07:54:15Z</time></trkpt><trkpt lat="39.65415211667916" lon="9.129890621079204"><ele>477.33333333333337</ele><time>2026-04-25T07:54:16Z</time></trkpt><trkpt lat="39.654227202842954" lon="9.129832840837045"><ele>477.0</ele><time>2026-04-25T07:54:17Z</time></trkpt><trkpt lat="39.65430757442337" lon="9.129774150145685"><ele>476.66666666666663</ele><time>2026-04-25T07:54:18Z</time></trkpt><trkpt lat="39.654385922887954" lon="9.129718649564904"><ele>476.3333333333333</ele><time>2026-04-25T07:54:19Z</time></trkpt><trkpt lat="39.65446236266151" lon="9.129662592082086"><ele>476.0</ele><time>2026-04-25T07:54:20Z</time></trkpt><trkpt lat="39.65453933962717" lon="9.129603609172882"><ele>476.8</ele><time>2026-04-25T07:54:21Z</time></trkpt><trkpt lat="39.654619214135" lon="9.129551300718171"><ele>477.6</ele><time>2026-04-25T07:54:22Z</time></trkpt><trkpt lat="39.6547016116707" lon="9.129498708087409"><ele>478.4</ele><time>2026-04-25T07:54:23Z</time></trkpt><trkpt lat="39.654787280549634" lon="9.12944731074242"><ele>479.2</ele><time>2026-04-25T07:54:24Z</time></trkpt><trkpt lat="39.65487082194455" lon="9.129391325073993"><ele>480.0</ele><time>2026-04-25T07:54:25Z</time></trkpt><trkpt lat="39.65495049504818" lon="9.129337072399357"><ele>480.0</ele><time>2026-04-25T07:54:26Z</time></trkpt><trkpt lat="39.65502696993258" lon="9.129286043481436"><ele>480.0</ele><time>2026-04-25T07:54:27Z</time></trkpt><trkpt lat="39.65510109929712" lon="9.129237743858209"><ele>480.0</ele><time>2026-04-25T07:54:28Z</time></trkpt><trkpt lat="39.65517401205072" lon="9.129204475591168"><ele>480.0</ele><time>2026-04-25T07:54:29Z</time></trkpt><trkpt lat="39.6552449339105" lon="9.129192268822186"><ele>480.0</ele><time>2026-04-25T07:54:30Z</time></trkpt><trkpt lat="39.65531900683605" lon="9.129204636321617"><ele>480.0</ele><time>2026-04-25T07:54:31Z</time></trkpt><trkpt lat="39.6553975972662" lon="9.129219053916495"><ele>480.3333333333333</ele><time>2026-04-25T07:54:32Z</time></trkpt><trkpt lat="39.65548094758604" lon="9.129228684445083"><ele>480.66666666666663</ele><time>2026-04-25T07:54:33Z</time></trkpt><trkpt lat="39.655565271880945" lon="9.12924016650457"><ele>481.0</ele><time>2026-04-25T07:54:34Z</time></trkpt><trkpt lat="39.655647115512956" lon="9.129252685391263"><ele>481.3333333333333</ele><time>2026-04-25T07:54:35Z</time></trkpt><trkpt lat="39.655726572550854" lon="9.129267478934063"><ele>481.66666666666663</ele><time>2026-04-25T07:54:36Z</time></trkpt><trkpt lat="39.65580704086016" lon="9.129286776973084"><ele>482.0</ele><time>2026-04-25T07:54:37Z</time></trkpt><trkpt lat="39.65588343291232" lon="9.129310372366874"><ele>481.99999999999994</ele><time>2026-04-25T07:54:38Z</time></trkpt><trkpt lat="39.65596182989049" lon="9.129327601993817"><ele>482.0</ele><time>2026-04-25T07:54:39Z</time></trkpt><trkpt lat="39.656040536029735" lon="9.129343945988198"><ele>482.0</ele><time>2026-04-25T07:54:40Z</time></trkpt><trkpt lat="39.656123815433816" lon="9.129360815278838"><ele>482.0</ele><time>2026-04-25T07:54:41Z</time></trkpt><trkpt lat="39.65620716236029" lon="9.129380421433416"><ele>481.99999999999994</ele><time>2026-04-25T07:54:42Z</time></trkpt><trkpt lat="39.65629051795512" lon="9.129404127944893"><ele>482.0</ele><time>2026-04-25T07:54:43Z</time></trkpt><trkpt lat="39.656375042015085" lon="9.129430077156945"><ele>482.49999999999994</ele><time>2026-04-25T07:54:44Z</time></trkpt><trkpt lat="39.656460737717985" lon="9.129455289702117"><ele>483.0</ele><time>2026-04-25T07:54:45Z</time></trkpt><trkpt lat="39.65654595801948" lon="9.129483622581283"><ele>483.5</ele><time>2026-04-25T07:54:46Z</time></trkpt><trkpt lat="39.65663250669469" lon="9.129515163803026"><ele>484.0</ele><time>2026-04-25T07:54:47Z</time></trkpt><trkpt lat="39.65671991385718" lon="9.129545933326565"><ele>484.49999999999994</ele><time>2026-04-25T07:54:48Z</time></trkpt><trkpt lat="39.656807179157965" lon="9.129579562665864"><ele>485.0</ele><time>2026-04-25T07:54:49Z</time></trkpt><trkpt lat="39.65689470933221" lon="9.129614879040448"><ele>485.8</ele><time>2026-04-25T07:54:50Z</time></trkpt><trkpt lat="39.656983198905195" lon="9.129647203420106"><ele>486.6</ele><time>2026-04-25T07:54:51Z</time></trkpt><trkpt lat="39.65707244600265" lon="9.129677806351268"><ele>487.4</ele><time>2026-04-25T07:54:52Z</time></trkpt><trkpt lat="39.65716245926752" lon="9.129710354582162"><ele>488.2</ele><time>2026-04-25T07:54:53Z</time></trkpt><trkpt lat="39.65725233156536" lon="9.129744764734323"><ele>489.0</ele><time>2026-04-25T07:54:54Z</time></trkpt><trkpt lat="39.65734289138637" lon="9.129777003645922"><ele>489.0</ele><time>2026-04-25T07:54:55Z</time></trkpt><trkpt lat="39.65743456486313" lon="9.129809654158835"><ele>489.0</ele><time>2026-04-25T07:54:56Z</time></trkpt><trkpt lat="39.65752644507609" lon="9.129838463123214"><ele>489.0</ele><time>2026-04-25T07:54:57Z</time></trkpt><trkpt lat="39.65761862869596" lon="9.129867503078321"><ele>489.0</ele><time>2026-04-25T07:54:58Z</time></trkpt><trkpt lat="39.657709580063944" lon="9.12990185048848"><ele>489.0</ele><time>2026-04-25T07:54:59Z</time></trkpt><trkpt lat="39.65779994445255" lon="9.129938335142613"><ele>488.79999999999995</ele><time>2026-04-25T07:55:00Z</time></trkpt><trkpt lat="39.657893298405" lon="9.129973855270066"><ele>488.59999999999997</ele><time>2026-04-25T07:55:01Z</time></trkpt><trkpt lat="39.657983075559194" lon="9.130008726978128"><ele>488.4</ele><time>2026-04-25T07:55:02Z</time></trkpt><trkpt lat="39.65807151873859" lon="9.130042218474651"><ele>488.2</ele><time>2026-04-25T07:55:03Z</time></trkpt><trkpt lat="39.65815804425262" lon="9.130080452992098"><ele>488.0</ele><time>2026-04-25T07:55:04Z</time></trkpt><trkpt lat="39.658244453287125" lon="9.130117473154382"><ele>488.0</ele><time>2026-04-25T07:55:05Z</time></trkpt><trkpt lat="39.65833163161837" lon="9.130148979169872"><ele>487.99999999999994</ele><time>2026-04-25T07:55:06Z</time></trkpt><trkpt lat="39.658422479967726" lon="9.130179003258581"><ele>487.99999999999994</ele><time>2026-04-25T07:55:07Z</time></trkpt><trkpt lat="39.658512922651454" lon="9.130211799190405"><ele>488.0</ele><time>2026-04-25T07:55:08Z</time></trkpt><trkpt lat="39.658602841136315" lon="9.130243904243496"><ele>488.0</ele><time>2026-04-25T07:55:09Z</time></trkpt><trkpt lat="39.65869381491607" lon="9.130271411981804"><ele>488.4</ele><time>2026-04-25T07:55:10Z</time></trkpt><trkpt lat="39.65878455471233" lon="9.130301647840803"><ele>488.79999999999995</ele><time>2026-04-25T07:55:11Z</time></trkpt><trkpt lat="39.65887428051106" lon="9.13034404948134"><ele>489.2</ele><time>2026-04-25T07:55:12Z</time></trkpt><trkpt lat="39.658962848370756" lon="9.130394656877478"><ele>489.6</ele><time>2026-04-25T07:55:13Z</time></trkpt><trkpt lat="39.6590527316928" lon="9.13045918585423"><ele>490.0</ele><time>2026-04-25T07:55:14Z</time></trkpt><trkpt lat="39.65913660995537" lon="9.130534812300256"><ele>490.0</ele><time>2026-04-25T07:55:15Z</time></trkpt><trkpt lat="39.659215928460384" lon="9.130625566336677"><ele>490.0</ele><time>2026-04-25T07:55:16Z</time></trkpt><trkpt lat="39.65929253987125" lon="9.130712258987275"><ele>490.0</ele><time>2026-04-25T07:55:17Z</time></trkpt><trkpt lat="39.65937289742402" lon="9.130802700162025"><ele>490.0</ele><time>2026-04-25T07:55:18Z</time></trkpt><trkpt lat="39.65944853010778" lon="9.130889255933"><ele>490.0</ele><time>2026-04-25T07:55:19Z</time></trkpt><trkpt lat="39.659524324093915" lon="9.130975038109522"><ele>490.2</ele><time>2026-04-25T07:55:20Z</time></trkpt><trkpt lat="39.65959920301814" lon="9.131057326534956"><ele>490.4</ele><time>2026-04-25T07:55:21Z</time></trkpt><trkpt lat="39.659670004147216" lon="9.131140088997164"><ele>490.6</ele><time>2026-04-25T07:55:22Z</time></trkpt><trkpt lat="39.65973708679536" lon="9.131221280186981"><ele>490.8</ele><time>2026-04-25T07:55:23Z</time></trkpt><trkpt lat="39.65979913446629" lon="9.13129803641398"><ele>491.0</ele><time>2026-04-25T07:55:24Z</time></trkpt><trkpt lat="39.65985969204867" lon="9.131369101164026"><ele>491.0</ele><time>2026-04-25T07:55:25Z</time></trkpt><trkpt lat="39.659918628072795" lon="9.131434915623904"><ele>490.99999999999994</ele><time>2026-04-25T07:55:26Z</time></trkpt><trkpt lat="39.65997530076794" lon="9.131494240902937"><ele>491.0</ele><time>2026-04-25T07:55:27Z</time></trkpt><trkpt lat="39.66003446043762" lon="9.13154648199227"><ele>491.0</ele><time>2026-04-25T07:55:28Z</time></trkpt><trkpt lat="39.66010343583591" lon="9.13157457651255"><ele>490.99999999999994</ele><time>2026-04-25T07:55:29Z</time></trkpt><trkpt lat="39.660175617652726" lon="9.13159737250846"><ele>491.0</ele><time>2026-04-25T07:55:30Z</time></trkpt><trkpt lat="39.660251774200574" lon="9.131616295620704"><ele>491.0</ele><time>2026-04-25T07:55:31Z</time></trkpt><trkpt lat="39.660332243094935" lon="9.131637467158924"><ele>491.16666666666663</ele><time>2026-04-25T07:55:32Z</time></trkpt><trkpt lat="39.66041266952908" lon="9.131653905026143"><ele>491.3333333333333</ele><time>2026-04-25T07:55:33Z</time></trkpt><trkpt lat="39.66049319165243" lon="9.131673944892484"><ele>491.5</ele><time>2026-04-25T07:55:34Z</time></trkpt><trkpt lat="39.66057091525685" lon="9.131697535743822"><ele>491.66666666666663</ele><time>2026-04-25T07:55:35Z</time></trkpt><trkpt lat="39.66064614057506" lon="9.131717470750866"><ele>491.8333333333333</ele><time>2026-04-25T07:55:36Z</time></trkpt><trkpt lat="39.660719469166544" lon="9.131732585608022"><ele>492.0</ele><time>2026-04-25T07:55:37Z</time></trkpt><trkpt lat="39.66079252567763" lon="9.131750156617642"><ele>492.0</ele><time>2026-04-25T07:55:38Z</time></trkpt><trkpt lat="39.6608722832369" lon="9.13177177941054"><ele>492.0</ele><time>2026-04-25T07:55:39Z</time></trkpt><trkpt lat="39.66095602629726" lon="9.131794672614284"><ele>492.0</ele><time>2026-04-25T07:55:40Z</time></trkpt><trkpt lat="39.661043424991405" lon="9.13181602980281"><ele>492.0</ele><time>2026-04-25T07:55:41Z</time></trkpt><trkpt lat="39.66113170801407" lon="9.131838419746513"><ele>492.0</ele><time>2026-04-25T07:55:42Z</time></trkpt><trkpt lat="39.66121784221877" lon="9.131862371490891"><ele>492.0</ele><time>2026-04-25T07:55:43Z</time></trkpt><trkpt lat="39.66130322287903" lon="9.131887764239195"><ele>492.0</ele><time>2026-04-25T07:55:44Z</time></trkpt><trkpt lat="39.66138970607588" lon="9.131910679666698"><ele>492.00000000000006</ele><time>2026-04-25T07:55:45Z</time></trkpt><trkpt lat="39.661469597550195" lon="9.131930104211007"><ele>492.00000000000006</ele><time>2026-04-25T07:55:46Z</time></trkpt><trkpt lat="39.66153974593832" lon="9.131947491022721"><ele>492.0</ele><time>2026-04-25T07:55:47Z</time></trkpt><trkpt lat="39.66163332026981" lon="9.132024863583192"><ele>492.0</ele><time>2026-04-25T07:55:49Z</time></trkpt><trkpt lat="39.66167719694372" lon="9.13217780240829"><ele>492.0</ele><time>2026-04-25T07:55:51Z</time></trkpt><trkpt lat="39.66169862440482" lon="9.132259365263192"><ele>492.0</ele><time>2026-04-25T07:55:52Z</time></trkpt><trkpt lat="39.66172843828008" lon="9.132347325548308"><ele>492.0</ele><time>2026-04-25T07:55:53Z</time></trkpt><trkpt lat="39.66175947347629" lon="9.13243547076509"><ele>492.0</ele><time>2026-04-25T07:55:54Z</time></trkpt><trkpt lat="39.66179178412172" lon="9.132529234211237"><ele>492.0</ele><time>2026-04-25T07:55:55Z</time></trkpt><trkpt lat="39.661820507231" lon="9.132625899210574"><ele>492.0</ele><time>2026-04-25T07:55:56Z</time></trkpt><trkpt lat="39.66185185878915" lon="9.132720938621958"><ele>492.00000000000006</ele><time>2026-04-25T07:55:57Z</time></trkpt><trkpt lat="39.66188586359918" lon="9.132809448009661"><ele>492.0</ele><time>2026-04-25T07:55:58Z</time></trkpt><trkpt lat="39.66192375743548" lon="9.13289265409862"><ele>492.00000000000006</ele><time>2026-04-25T07:55:59Z</time></trkpt><trkpt lat="39.66196742874598" lon="9.132967070182097"><ele>492.00000000000006</ele><time>2026-04-25T07:56:00Z</time></trkpt><trkpt lat="39.66201224244691" lon="9.133040690981838"><ele>492.0</ele><time>2026-04-25T07:56:01Z</time></trkpt><trkpt lat="39.66205888534044" lon="9.13310794157064"><ele>492.00000000000006</ele><time>2026-04-25T07:56:02Z</time></trkpt><trkpt lat="39.66210657403497" lon="9.133165394719326"><ele>492.00000000000006</ele><time>2026-04-25T07:56:03Z</time></trkpt><trkpt lat="39.66218780326217" lon="9.133246442796018"><ele>492.0</ele><time>2026-04-25T07:56:05Z</time></trkpt><trkpt lat="39.66225137674038" lon="9.133301392268653"><ele>492.0</ele><time>2026-04-25T07:56:07Z</time></trkpt><trkpt lat="39.662319738039734" lon="9.133353079439463"><ele>492.0</ele><time>2026-04-25T07:56:29Z</time></trkpt><trkpt lat="39.66239585207054" lon="9.13337540129242"><ele>492.0</ele><time>2026-04-25T07:56:56Z</time></trkpt><trkpt lat="39.6623295865828" lon="9.133338353630641"><ele>492.0</ele><time>2026-04-25T07:57:00Z</time></trkpt><trkpt lat="39.66221881135791" lon="9.133264283710576"><ele>492.0</ele><time>2026-04-25T07:57:02Z</time></trkpt><trkpt lat="39.662153202326074" lon="9.133205831096141"><ele>492.0</ele><time>2026-04-25T07:57:03Z</time></trkpt><trkpt lat="39.66209304258121" lon="9.133156202547699"><ele>492.0</ele><time>2026-04-25T07:57:04Z</time></trkpt><trkpt lat="39.66203616114809" lon="9.132880308174078"><ele>492.0</ele><time>2026-04-25T07:57:05Z</time></trkpt><trkpt lat="39.66207948116937" lon="9.13269676451283"><ele>492.0</ele><time>2026-04-25T07:57:06Z</time></trkpt><trkpt lat="39.66201385540028" lon="9.132589757274094"><ele>492.0</ele><time>2026-04-25T07:57:07Z</time></trkpt><trkpt lat="39.66195008536592" lon="9.132485772898649"><ele>492.00000000000006</ele><time>2026-04-25T07:57:08Z</time></trkpt><trkpt lat="39.66187412055078" lon="9.132385580175429"><ele>492.00000000000006</ele><time>2026-04-25T07:57:09Z</time></trkpt><trkpt lat="39.66176483507749" lon="9.132349865464182"><ele>492.0</ele><time>2026-04-25T07:57:10Z</time></trkpt><trkpt lat="39.661725896306095" lon="9.132241877041734"><ele>492.0</ele><time>2026-04-25T07:57:11Z</time></trkpt><trkpt lat="39.661693549112925" lon="9.132154844039155"><ele>492.0</ele><time>2026-04-25T07:57:12Z</time></trkpt><trkpt lat="39.661655492042804" lon="9.132031033577505"><ele>492.00000000000006</ele><time>2026-04-25T07:57:14Z</time></trkpt><trkpt lat="39.66161226180564" lon="9.131947891050501"><ele>492.00000000000006</ele><time>2026-04-25T07:57:16Z</time></trkpt><trkpt lat="39.66153197257925" lon="9.131908548745743"><ele>492.0</ele><time>2026-04-25T07:57:18Z</time></trkpt><trkpt lat="39.661405675100866" lon="9.131884584752523"><ele>492.0</ele><time>2026-04-25T07:57:20Z</time></trkpt><trkpt lat="39.661330921242886" lon="9.131868945857223"><ele>492.0</ele><time>2026-04-25T07:57:21Z</time></trkpt><trkpt lat="39.66124672292468" lon="9.131847079304613"><ele>492.00000000000006</ele><time>2026-04-25T07:57:22Z</time></trkpt><trkpt lat="39.661159551168986" lon="9.13182029913329"><ele>492.00000000000006</ele><time>2026-04-25T07:57:23Z</time></trkpt><trkpt lat="39.66106380176028" lon="9.131796209001317"><ele>492.0</ele><time>2026-04-25T07:57:24Z</time></trkpt><trkpt lat="39.66096371176599" lon="9.13177368413873"><ele>492.0</ele><time>2026-04-25T07:57:25Z</time></trkpt><trkpt lat="39.66086042035695" lon="9.131746483387174"><ele>492.0</ele><time>2026-04-25T07:57:26Z</time></trkpt><trkpt lat="39.66075315585513" lon="9.131720833844664"><ele>492.00000000000006</ele><time>2026-04-25T07:57:27Z</time></trkpt><trkpt lat="39.66064404098668" lon="9.13169191136117"><ele>492.00000000000006</ele><time>2026-04-25T07:57:28Z</time></trkpt><trkpt lat="39.660532247064985" lon="9.131665306344052"><ele>492.0</ele><time>2026-04-25T07:57:29Z</time></trkpt><trkpt lat="39.66042575524795" lon="9.131638795833698"><ele>492.0</ele><time>2026-04-25T07:57:30Z</time></trkpt><trkpt lat="39.66033198197051" lon="9.131609868774316"><ele>492.20000000000005</ele><time>2026-04-25T07:57:31Z</time></trkpt><trkpt lat="39.66025248044702" lon="9.131587253465993"><ele>492.40000000000003</ele><time>2026-04-25T07:57:32Z</time></trkpt><trkpt lat="39.66016422266687" lon="9.131520233409336"><ele>492.59999999999997</ele><time>2026-04-25T07:57:34Z</time></trkpt><trkpt lat="39.660114037828414" lon="9.131450202252989"><ele>492.79999999999995</ele><time>2026-04-25T07:57:36Z</time></trkpt><trkpt lat="39.66006642982165" lon="9.131391520947979"><ele>493.0</ele><time>2026-04-25T07:57:40Z</time></trkpt><trkpt lat="39.66016456515641" lon="9.13117364247215"><ele>492.59999999999997</ele><time>2026-04-25T07:57:57Z</time></trkpt><trkpt lat="39.66021916974993" lon="9.131094755651544"><ele>492.19999999999993</ele><time>2026-04-25T07:57:58Z</time></trkpt><trkpt lat="39.66027781755347" lon="9.131002612253813"><ele>491.8</ele><time>2026-04-25T07:57:59Z</time></trkpt><trkpt lat="39.66035072186332" lon="9.130897367155214"><ele>491.4</ele><time>2026-04-25T07:58:00Z</time></trkpt><trkpt lat="39.66042737309525" lon="9.130794456992303"><ele>491.0</ele><time>2026-04-25T07:58:01Z</time></trkpt><trkpt lat="39.66050940692432" lon="9.13068518037685"><ele>490.0</ele><time>2026-04-25T07:58:02Z</time></trkpt><trkpt lat="39.660594447408016" lon="9.130574976569553"><ele>489.0</ele><time>2026-04-25T07:58:03Z</time></trkpt><trkpt lat="39.660678161588876" lon="9.130468513019192"><ele>488.0</ele><time>2026-04-25T07:58:04Z</time></trkpt><trkpt lat="39.66076363546009" lon="9.130361020877997"><ele>487.0</ele><time>2026-04-25T07:58:05Z</time></trkpt><trkpt lat="39.660851656248894" lon="9.130252084396362"><ele>487.0</ele><time>2026-04-25T07:58:06Z</time></trkpt><trkpt lat="39.66094069426574" lon="9.130138923691533"><ele>487.0</ele><time>2026-04-25T07:58:07Z</time></trkpt><trkpt lat="39.66102978415773" lon="9.13001733327334"><ele>487.0</ele><time>2026-04-25T07:58:08Z</time></trkpt><trkpt lat="39.661122724429525" lon="9.129889791102446"><ele>487.0</ele><time>2026-04-25T07:58:09Z</time></trkpt><trkpt lat="39.66122010919751" lon="9.129764320616346"><ele>486.0</ele><time>2026-04-25T07:58:10Z</time></trkpt><trkpt lat="39.66131718886287" lon="9.129641172677474"><ele>485.0</ele><time>2026-04-25T07:58:11Z</time></trkpt><trkpt lat="39.6614173841981" lon="9.129517188851992"><ele>484.0</ele><time>2026-04-25T07:58:12Z</time></trkpt><trkpt lat="39.661506398231175" lon="9.129379175138645"><ele>483.0</ele><time>2026-04-25T07:58:13Z</time></trkpt><trkpt lat="39.66157330962218" lon="9.129226428537262"><ele>483.0</ele><time>2026-04-25T07:58:14Z</time></trkpt><trkpt lat="39.66161097493042" lon="9.129059622055932"><ele>483.0</ele><time>2026-04-25T07:58:15Z</time></trkpt><trkpt lat="39.661615662490334" lon="9.12888504003396"><ele>483.0</ele><time>2026-04-25T07:58:16Z</time></trkpt><trkpt lat="39.66161310751126" lon="9.128710918395653"><ele>483.0</ele><time>2026-04-25T07:58:17Z</time></trkpt><trkpt lat="39.66160898648113" lon="9.128539076446655"><ele>482.5</ele><time>2026-04-25T07:58:18Z</time></trkpt><trkpt lat="39.66160890366541" lon="9.128362613064192"><ele>482.0</ele><time>2026-04-25T07:58:19Z</time></trkpt><trkpt lat="39.66161061061088" lon="9.128185215521096"><ele>481.5</ele><time>2026-04-25T07:58:20Z</time></trkpt><trkpt lat="39.66160901341826" lon="9.128006059368"><ele>481.0</ele><time>2026-04-25T07:58:21Z</time></trkpt><trkpt lat="39.66160464805448" lon="9.12782072671967"><ele>480.5</ele><time>2026-04-25T07:58:22Z</time></trkpt><trkpt lat="39.66160086548662" lon="9.12763404851874"><ele>480.0</ele><time>2026-04-25T07:58:23Z</time></trkpt><trkpt lat="39.66159442145806" lon="9.127444879382226"><ele>479.5</ele><time>2026-04-25T07:58:24Z</time></trkpt><trkpt lat="39.661589593054856" lon="9.127253186711512"><ele>479.0</ele><time>2026-04-25T07:58:25Z</time></trkpt><trkpt lat="39.66158681624463" lon="9.12706036917603"><ele>478.5</ele><time>2026-04-25T07:58:26Z</time></trkpt><trkpt lat="39.66158447179688" lon="9.126866788293455"><ele>478.0</ele><time>2026-04-25T07:58:27Z</time></trkpt><trkpt lat="39.66158162609081" lon="9.126673855184938"><ele>477.5</ele><time>2026-04-25T07:58:28Z</time></trkpt><trkpt lat="39.66157744450125" lon="9.126482200388093"><ele>477.0</ele><time>2026-04-25T07:58:29Z</time></trkpt><trkpt lat="39.66157258543065" lon="9.126291347110216"><ele>476.25</ele><time>2026-04-25T07:58:30Z</time></trkpt><trkpt lat="39.661569244543266" lon="9.126099276301643"><ele>475.5</ele><time>2026-04-25T07:58:31Z</time></trkpt><trkpt lat="39.661567766134134" lon="9.125908835203067"><ele>474.75</ele><time>2026-04-25T07:58:32Z</time></trkpt><trkpt lat="39.6615636328435" lon="9.125719571502437"><ele>474.0</ele><time>2026-04-25T07:58:33Z</time></trkpt><trkpt lat="39.66155827640193" lon="9.125530494759115"><ele>474.0</ele><time>2026-04-25T07:58:34Z</time></trkpt><trkpt lat="39.66155721744631" lon="9.125343929836763"><ele>474.0</ele><time>2026-04-25T07:58:35Z</time></trkpt><trkpt lat="39.66155917498095" lon="9.12515802388021"><ele>474.0</ele><time>2026-04-25T07:58:36Z</time></trkpt><trkpt lat="39.661556444013954" lon="9.124975176741403"><ele>474.0</ele><time>2026-04-25T07:58:37Z</time></trkpt><trkpt lat="39.66154494076477" lon="9.124790312598124"><ele>474.25</ele><time>2026-04-25T07:58:38Z</time></trkpt><trkpt lat="39.66152200477925" lon="9.12460850299267"><ele>474.5</ele><time>2026-04-25T07:58:39Z</time></trkpt><trkpt lat="39.66148017019112" lon="9.12442916076579"><ele>474.75</ele><time>2026-04-25T07:58:40Z</time></trkpt><trkpt lat="39.661424569810656" lon="9.124254950578916"><ele>475.0</ele><time>2026-04-25T07:58:41Z</time></trkpt><trkpt lat="39.661359376150166" lon="9.124085717457886"><ele>475.0</ele><time>2026-04-25T07:58:42Z</time></trkpt><trkpt lat="39.66129121003021" lon="9.123920217177728"><ele>475.0</ele><time>2026-04-25T07:58:43Z</time></trkpt><trkpt lat="39.6612238346204" lon="9.123753750511723"><ele>475.0</ele><time>2026-04-25T07:58:44Z</time></trkpt><trkpt lat="39.66115792713628" lon="9.123589186720901"><ele>475.0</ele><time>2026-04-25T07:58:45Z</time></trkpt><trkpt lat="39.66109259017885" lon="9.12342666197755"><ele>474.25</ele><time>2026-04-25T07:58:46Z</time></trkpt><trkpt lat="39.661028864354265" lon="9.12326209409743"><ele>473.5</ele><time>2026-04-25T07:58:47Z</time></trkpt><trkpt lat="39.66096500488632" lon="9.123100286520483"><ele>472.75</ele><time>2026-04-25T07:58:48Z</time></trkpt><trkpt lat="39.660903249417814" lon="9.122939064067713"><ele>472.0</ele><time>2026-04-25T07:58:49Z</time></trkpt><trkpt lat="39.66083932111323" lon="9.12277786653058"><ele>472.0</ele><time>2026-04-25T07:58:50Z</time></trkpt><trkpt lat="39.660773631315145" lon="9.122616540375999"><ele>472.0</ele><time>2026-04-25T07:58:51Z</time></trkpt><trkpt lat="39.66070517428583" lon="9.122455846429022"><ele>472.0</ele><time>2026-04-25T07:58:52Z</time></trkpt><trkpt lat="39.66063441133582" lon="9.12229398397942"><ele>472.0</ele><time>2026-04-25T07:58:53Z</time></trkpt><trkpt lat="39.66056243299197" lon="9.122132487522256"><ele>472.75</ele><time>2026-04-25T07:58:54Z</time></trkpt><trkpt lat="39.660482270007435" lon="9.121975034711598"><ele>473.5</ele><time>2026-04-25T07:58:55Z</time></trkpt><trkpt lat="39.66039440221772" lon="9.121821907737521"><ele>474.25</ele><time>2026-04-25T07:58:56Z</time></trkpt><trkpt lat="39.660287810589395" lon="9.121686983675884"><ele>475.0</ele><time>2026-04-25T07:58:57Z</time></trkpt><trkpt lat="39.660186763372614" lon="9.121546184369503"><ele>472.5</ele><time>2026-04-25T07:58:58Z</time></trkpt><trkpt lat="39.66008260535052" lon="9.1214134418226"><ele>470.0</ele><time>2026-04-25T07:58:59Z</time></trkpt><trkpt lat="39.659978619689866" lon="9.121284876253693"><ele>467.5</ele><time>2026-04-25T07:59:00Z</time></trkpt><trkpt lat="39.65987885281727" lon="9.121153060718276"><ele>465.0</ele><time>2026-04-25T07:59:01Z</time></trkpt><trkpt lat="39.659781677162805" lon="9.121020347961446"><ele>465.0</ele><time>2026-04-25T07:59:02Z</time></trkpt><trkpt lat="39.65969518852716" lon="9.12088206768135"><ele>465.0</ele><time>2026-04-25T07:59:03Z</time></trkpt><trkpt lat="39.659626598152485" lon="9.120734294151156"><ele>465.0</ele><time>2026-04-25T07:59:04Z</time></trkpt><trkpt lat="39.65960244937151" lon="9.120564834429887"><ele>465.0</ele><time>2026-04-25T07:59:05Z</time></trkpt><trkpt lat="39.65959329744613" lon="9.120389429224497"><ele>464.75</ele><time>2026-04-25T07:59:06Z</time></trkpt><trkpt lat="39.65959101585348" lon="9.120206248597906"><ele>464.5</ele><time>2026-04-25T07:59:07Z</time></trkpt><trkpt lat="39.659592128304226" lon="9.120019531668092"><ele>464.25</ele><time>2026-04-25T07:59:08Z</time></trkpt><trkpt lat="39.65959125243955" lon="9.119829875664387"><ele>464.0</ele><time>2026-04-25T07:59:09Z</time></trkpt><trkpt lat="39.65958568605621" lon="9.119639951323121"><ele>463.0</ele><time>2026-04-25T07:59:10Z</time></trkpt><trkpt lat="39.65958012072383" lon="9.119453089624765"><ele>462.0</ele><time>2026-04-25T07:59:11Z</time></trkpt><trkpt lat="39.65957933411364" lon="9.119266238897328"><ele>461.0</ele><time>2026-04-25T07:59:12Z</time></trkpt><trkpt lat="39.65957687303744" lon="9.119077582001918"><ele>460.0</ele><time>2026-04-25T07:59:13Z</time></trkpt><trkpt lat="39.659575031272446" lon="9.118889200196683"><ele>459.0</ele><time>2026-04-25T07:59:14Z</time></trkpt><trkpt lat="39.65957625924744" lon="9.11870122947603"><ele>458.0</ele><time>2026-04-25T07:59:15Z</time></trkpt><trkpt lat="39.65958174016695" lon="9.118512045598909"><ele>457.0</ele><time>2026-04-25T07:59:16Z</time></trkpt><trkpt lat="39.659594050276176" lon="9.118321157569492"><ele>456.0</ele><time>2026-04-25T07:59:17Z</time></trkpt><trkpt lat="39.65960924503602" lon="9.118127945567265"><ele>454.66666666666663</ele><time>2026-04-25T07:59:18Z</time></trkpt><trkpt lat="39.65962622333607" lon="9.117934330032238"><ele>453.3333333333333</ele><time>2026-04-25T07:59:19Z</time></trkpt><trkpt lat="39.659644705504206" lon="9.117735801484276"><ele>452.0</ele><time>2026-04-25T07:59:20Z</time></trkpt><trkpt lat="39.65966485802926" lon="9.117538555577378"><ele>450.66666666666663</ele><time>2026-04-25T07:59:21Z</time></trkpt><trkpt lat="39.65968569648041" lon="9.11733798490575"><ele>449.33333333333337</ele><time>2026-04-25T07:59:22Z</time></trkpt><trkpt lat="39.65970796193101" lon="9.11713905658843"><ele>448.0</ele><time>2026-04-25T07:59:23Z</time></trkpt><trkpt lat="39.65973207307577" lon="9.116938561030286"><ele>448.0</ele><time>2026-04-25T07:59:24Z</time></trkpt><trkpt lat="39.65975272057015" lon="9.11673713736753"><ele>448.0</ele><time>2026-04-25T07:59:25Z</time></trkpt><trkpt lat="39.659772554641165" lon="9.116535039632534"><ele>448.0</ele><time>2026-04-25T07:59:26Z</time></trkpt><trkpt lat="39.65979403601395" lon="9.116333224708523"><ele>447.33333333333337</ele><time>2026-04-25T07:59:27Z</time></trkpt><trkpt lat="39.65981747695513" lon="9.116130231521979"><ele>446.66666666666663</ele><time>2026-04-25T07:59:28Z</time></trkpt><trkpt lat="39.659836447480664" lon="9.115927228884974"><ele>446.0</ele><time>2026-04-25T07:59:29Z</time></trkpt><trkpt lat="39.659855375240724" lon="9.115722446628665"><ele>445.0</ele><time>2026-04-25T07:59:30Z</time></trkpt><trkpt lat="39.659875171288526" lon="9.115518405481444"><ele>444.0</ele><time>2026-04-25T07:59:31Z</time></trkpt><trkpt lat="39.659896259185366" lon="9.115314026104018"><ele>443.0</ele><time>2026-04-25T07:59:32Z</time></trkpt><trkpt lat="39.65992036832028" lon="9.115108444198167"><ele>442.3333333333333</ele><time>2026-04-25T07:59:33Z</time></trkpt><trkpt lat="39.659945904792075" lon="9.114904259273127"><ele>441.66666666666663</ele><time>2026-04-25T07:59:34Z</time></trkpt><trkpt lat="39.65996775965786" lon="9.114697195975296"><ele>441.0</ele><time>2026-04-25T07:59:35Z</time></trkpt><trkpt lat="39.6599855202317" lon="9.1144851308046"><ele>441.0</ele><time>2026-04-25T07:59:36Z</time></trkpt><trkpt lat="39.66000923605071" lon="9.114277426147607"><ele>441.0</ele><time>2026-04-25T07:59:37Z</time></trkpt><trkpt lat="39.66003403824968" lon="9.114068287402642"><ele>441.0</ele><time>2026-04-25T07:59:38Z</time></trkpt><trkpt lat="39.660057023035364" lon="9.113863540084813"><ele>441.0</ele><time>2026-04-25T07:59:39Z</time></trkpt><trkpt lat="39.6600771173795" lon="9.11365858986188"><ele>441.0</ele><time>2026-04-25T07:59:40Z</time></trkpt><trkpt lat="39.66008819267031" lon="9.113454493403953"><ele>441.0</ele><time>2026-04-25T07:59:41Z</time></trkpt><trkpt lat="39.66007448554845" lon="9.113256827685694"><ele>441.33333333333337</ele><time>2026-04-25T07:59:42Z</time></trkpt><trkpt lat="39.66002117834828" lon="9.113066200166191"><ele>441.6666666666667</ele><time>2026-04-25T07:59:43Z</time></trkpt><trkpt lat="39.65992967351843" lon="9.11289824923808"><ele>442.0</ele><time>2026-04-25T07:59:44Z</time></trkpt><trkpt lat="39.659813763294956" lon="9.112755800341185"><ele>442.0</ele><time>2026-04-25T07:59:45Z</time></trkpt><trkpt lat="39.65968719924247" lon="9.112625425940278"><ele>442.0</ele><time>2026-04-25T07:59:46Z</time></trkpt><trkpt lat="39.65955857586957" lon="9.112500603157347"><ele>442.0</ele><time>2026-04-25T07:59:47Z</time></trkpt><trkpt lat="39.659434497706634" lon="9.112379880628474"><ele>442.0</ele><time>2026-04-25T07:59:48Z</time></trkpt><trkpt lat="39.65932518065695" lon="9.112242278168267"><ele>442.0</ele><time>2026-04-25T07:59:49Z</time></trkpt><trkpt lat="39.65919443108941" lon="9.112133081681025"><ele>442.0</ele><time>2026-04-25T07:59:50Z</time></trkpt><trkpt lat="39.659075566279526" lon="9.112005200989406"><ele>442.0</ele><time>2026-04-25T07:59:51Z</time></trkpt><trkpt lat="39.65895638101931" lon="9.111876146982015"><ele>442.0</ele><time>2026-04-25T07:59:52Z</time></trkpt><trkpt lat="39.658832816923855" lon="9.11175236556269"><ele>442.0</ele><time>2026-04-25T07:59:53Z</time></trkpt><trkpt lat="39.658706835781345" lon="9.111630482516354"><ele>441.33333333333337</ele><time>2026-04-25T07:59:54Z</time></trkpt><trkpt lat="39.65858631257338" lon="9.111496929474802"><ele>440.66666666666663</ele><time>2026-04-25T07:59:55Z</time></trkpt><trkpt lat="39.65848207723603" lon="9.111339935490806"><ele>440.0</ele><time>2026-04-25T07:59:56Z</time></trkpt><trkpt lat="39.658392196521966" lon="9.111170102705847"><ele>440.0</ele><time>2026-04-25T07:59:57Z</time></trkpt><trkpt lat="39.65831156491418" lon="9.110990798165757"><ele>440.0</ele><time>2026-04-25T07:59:58Z</time></trkpt><trkpt lat="39.65822782840411" lon="9.110806080562956"><ele>440.0</ele><time>2026-04-25T07:59:59Z</time></trkpt><trkpt lat="39.658143675614234" lon="9.110622375760881"><ele>439.3333333333333</ele><time>2026-04-25T08:00:00Z</time></trkpt><trkpt lat="39.65805870016609" lon="9.110436335866469"><ele>438.66666666666663</ele><time>2026-04-25T08:00:01Z</time></trkpt><trkpt lat="39.657974835110195" lon="9.11024218912377"><ele>438.0</ele><time>2026-04-25T08:00:02Z</time></trkpt><trkpt lat="39.657891159897346" lon="9.110046528361167"><ele>438.0</ele><time>2026-04-25T08:00:03Z</time></trkpt><trkpt lat="39.657803302180454" lon="9.109851066421927"><ele>438.0</ele><time>2026-04-25T08:00:04Z</time></trkpt><trkpt lat="39.6577152089729" lon="9.109656028022664"><ele>438.0</ele><time>2026-04-25T08:00:05Z</time></trkpt><trkpt lat="39.657630749480695" lon="9.109458944664869"><ele>437.0</ele><time>2026-04-25T08:00:06Z</time></trkpt><trkpt lat="39.65754630186536" lon="9.109261635957848"><ele>436.0</ele><time>2026-04-25T08:00:07Z</time></trkpt><trkpt lat="39.65747035889619" lon="9.109061398946551"><ele>435.0</ele><time>2026-04-25T08:00:08Z</time></trkpt><trkpt lat="39.657419272722734" lon="9.108849949527986"><ele>435.0</ele><time>2026-04-25T08:00:09Z</time></trkpt><trkpt lat="39.65738069493185" lon="9.108634554178906"><ele>435.0</ele><time>2026-04-25T08:00:10Z</time></trkpt><trkpt lat="39.65733903512726" lon="9.108422288872609"><ele>435.0</ele><time>2026-04-25T08:00:11Z</time></trkpt><trkpt lat="39.65729684182275" lon="9.108207795041283"><ele>435.33333333333337</ele><time>2026-04-25T08:00:12Z</time></trkpt><trkpt lat="39.65725523496744" lon="9.10799334706421"><ele>435.6666666666667</ele><time>2026-04-25T08:00:13Z</time></trkpt><trkpt lat="39.65721483540542" lon="9.107775344528282"><ele>436.0</ele><time>2026-04-25T08:00:14Z</time></trkpt><trkpt lat="39.65717792829518" lon="9.107554789122274"><ele>435.33333333333337</ele><time>2026-04-25T08:00:15Z</time></trkpt><trkpt lat="39.65714230030582" lon="9.107333267423792"><ele>434.66666666666663</ele><time>2026-04-25T08:00:16Z</time></trkpt><trkpt lat="39.65710429209149" lon="9.107113307079253"><ele>434.0</ele><time>2026-04-25T08:00:17Z</time></trkpt><trkpt lat="39.65706178106398" lon="9.106891618685356"><ele>434.0</ele><time>2026-04-25T08:00:18Z</time></trkpt><trkpt lat="39.65701933068655" lon="9.10667209192639"><ele>434.0</ele><time>2026-04-25T08:00:19Z</time></trkpt><trkpt lat="39.65697871451763" lon="9.106448950471796"><ele>434.0</ele><time>2026-04-25T08:00:20Z</time></trkpt><trkpt lat="39.65694203778446" lon="9.106227577356877"><ele>433.66666666666663</ele><time>2026-04-25T08:00:21Z</time></trkpt><trkpt lat="39.65690373178926" lon="9.10600392390036"><ele>433.33333333333337</ele><time>2026-04-25T08:00:22Z</time></trkpt><trkpt lat="39.65686293563741" lon="9.105776728215607"><ele>433.0</ele><time>2026-04-25T08:00:23Z</time></trkpt><trkpt lat="39.65682155629552" lon="9.105552877349938"><ele>433.6666666666667</ele><time>2026-04-25T08:00:24Z</time></trkpt><trkpt lat="39.656781012861565" lon="9.1053289000296"><ele>434.33333333333337</ele><time>2026-04-25T08:00:25Z</time></trkpt><trkpt lat="39.65674176782531" lon="9.105105956202168"><ele>435.0</ele><time>2026-04-25T08:00:26Z</time></trkpt><trkpt lat="39.65670028342163" lon="9.104883698486207"><ele>435.33333333333337</ele><time>2026-04-25T08:00:27Z</time></trkpt><trkpt lat="39.656657415236765" lon="9.10466108557678"><ele>435.6666666666667</ele><time>2026-04-25T08:00:28Z</time></trkpt><trkpt lat="39.65661402702161" lon="9.104436754380567"><ele>436.0</ele><time>2026-04-25T08:00:29Z</time></trkpt><trkpt lat="39.65657318059383" lon="9.104214167050726"><ele>435.0</ele><time>2026-04-25T08:00:30Z</time></trkpt><trkpt lat="39.65653401091" lon="9.103993249845631"><ele>434.0</ele><time>2026-04-25T08:00:31Z</time></trkpt><trkpt lat="39.6564930721171" lon="9.10377248292341"><ele>433.0</ele><time>2026-04-25T08:00:32Z</time></trkpt><trkpt lat="39.65645185915596" lon="9.103553746101866"><ele>433.0</ele><time>2026-04-25T08:00:33Z</time></trkpt><trkpt lat="39.65641073128859" lon="9.103336986269902"><ele>433.0</ele><time>2026-04-25T08:00:34Z</time></trkpt><trkpt lat="39.65637109774285" lon="9.103121819339322"><ele>433.0</ele><time>2026-04-25T08:00:35Z</time></trkpt><trkpt lat="39.6563324991404" lon="9.102906643105483"><ele>432.6666666666667</ele><time>2026-04-25T08:00:36Z</time></trkpt><trkpt lat="39.65629595232792" lon="9.102692304527123"><ele>432.33333333333337</ele><time>2026-04-25T08:00:37Z</time></trkpt><trkpt lat="39.6562590469985" lon="9.10248342142079"><ele>432.0</ele><time>2026-04-25T08:00:38Z</time></trkpt><trkpt lat="39.65622021255868" lon="9.102276495463776"><ele>432.0</ele><time>2026-04-25T08:00:39Z</time></trkpt><trkpt lat="39.65618292479911" lon="9.10206794113588"><ele>432.0</ele><time>2026-04-25T08:00:40Z</time></trkpt><trkpt lat="39.65614784566418" lon="9.101860559648735"><ele>432.0</ele><time>2026-04-25T08:00:41Z</time></trkpt><trkpt lat="39.65611113440969" lon="9.101650000979564"><ele>431.66666666666663</ele><time>2026-04-25T08:00:42Z</time></trkpt><trkpt lat="39.656072615095205" lon="9.101441589167912"><ele>431.3333333333333</ele><time>2026-04-25T08:00:43Z</time></trkpt><trkpt lat="39.656032685344314" lon="9.101230847107226"><ele>431.0</ele><time>2026-04-25T08:00:44Z</time></trkpt><trkpt lat="39.655991996673116" lon="9.10101845616365"><ele>431.0</ele><time>2026-04-25T08:00:45Z</time></trkpt><trkpt lat="39.65595299605952" lon="9.10080704901926"><ele>431.0</ele><time>2026-04-25T08:00:46Z</time></trkpt><trkpt lat="39.65591632667606" lon="9.100591401336569"><ele>431.0</ele><time>2026-04-25T08:00:47Z</time></trkpt><trkpt lat="39.65587882820575" lon="9.100375662678662"><ele>430.0</ele><time>2026-04-25T08:00:48Z</time></trkpt><trkpt lat="39.655839990848484" lon="9.100161201771389"><ele>429.0</ele><time>2026-04-25T08:00:49Z</time></trkpt><trkpt lat="39.6557995968999" lon="9.099947008483857"><ele>428.0</ele><time>2026-04-25T08:00:50Z</time></trkpt><trkpt lat="39.655759919113166" lon="9.09973513681535"><ele>427.66666666666663</ele><time>2026-04-25T08:00:51Z</time></trkpt><trkpt lat="39.65572111926316" lon="9.099519760864236"><ele>427.33333333333337</ele><time>2026-04-25T08:00:52Z</time></trkpt><trkpt lat="39.65568295424321" lon="9.099304593278688"><ele>427.0</ele><time>2026-04-25T08:00:53Z</time></trkpt><trkpt lat="39.65564531928677" lon="9.099091689951058"><ele>427.0</ele><time>2026-04-25T08:00:54Z</time></trkpt><trkpt lat="39.655607306137064" lon="9.098877962268904"><ele>427.0</ele><time>2026-04-25T08:00:55Z</time></trkpt><trkpt lat="39.65556971149104" lon="9.098665417112446"><ele>427.0</ele><time>2026-04-25T08:00:56Z</time></trkpt><trkpt lat="39.65553172200908" lon="9.098451257661704"><ele>426.6666666666667</ele><time>2026-04-25T08:00:57Z</time></trkpt><trkpt lat="39.65549358477138" lon="9.098236315956099"><ele>426.33333333333337</ele><time>2026-04-25T08:00:58Z</time></trkpt><trkpt lat="39.65545432316282" lon="9.098020602798547"><ele>426.0</ele><time>2026-04-25T08:00:59Z</time></trkpt><trkpt lat="39.65541465635542" lon="9.097806173323473"><ele>426.0</ele><time>2026-04-25T08:01:00Z</time></trkpt><trkpt lat="39.655377460755304" lon="9.097592773219235"><ele>426.0</ele><time>2026-04-25T08:01:01Z</time></trkpt><trkpt lat="39.65534011384665" lon="9.097378609545073"><ele>426.0</ele><time>2026-04-25T08:01:02Z</time></trkpt><trkpt lat="39.6553012291545" lon="9.097163941557163"><ele>424.33333333333337</ele><time>2026-04-25T08:01:03Z</time></trkpt><trkpt lat="39.65525984858019" lon="9.096949517030717"><ele>422.6666666666667</ele><time>2026-04-25T08:01:04Z</time></trkpt><trkpt lat="39.65522026013821" lon="9.096735298453462"><ele>421.0</ele><time>2026-04-25T08:01:05Z</time></trkpt><trkpt lat="39.65518194394775" lon="9.096523136000023"><ele>420.6666666666667</ele><time>2026-04-25T08:01:06Z</time></trkpt><trkpt lat="39.655143884523895" lon="9.09630969984297"><ele>420.33333333333337</ele><time>2026-04-25T08:01:07Z</time></trkpt><trkpt lat="39.655104332485045" lon="9.096097740431494"><ele>420.0</ele><time>2026-04-25T08:01:08Z</time></trkpt><trkpt lat="39.65506673853077" lon="9.095887639940495"><ele>420.0</ele><time>2026-04-25T08:01:09Z</time></trkpt><trkpt lat="39.65502952660843" lon="9.095680403180049"><ele>420.0</ele><time>2026-04-25T08:01:10Z</time></trkpt><trkpt lat="39.654992663573985" lon="9.095473705386842"><ele>420.0</ele><time>2026-04-25T08:01:11Z</time></trkpt><trkpt lat="39.65495676932811" lon="9.095268192850815"><ele>420.0</ele><time>2026-04-25T08:01:12Z</time></trkpt><trkpt lat="39.65491978412878" lon="9.095062813158744"><ele>420.0</ele><time>2026-04-25T08:01:13Z</time></trkpt><trkpt lat="39.654881199848205" lon="9.094853046822136"><ele>420.0</ele><time>2026-04-25T08:01:14Z</time></trkpt><trkpt lat="39.65484180978657" lon="9.094640556503096"><ele>420.0</ele><time>2026-04-25T08:01:15Z</time></trkpt><trkpt lat="39.65481614902306" lon="9.094423776514603"><ele>420.0</ele><time>2026-04-25T08:01:16Z</time></trkpt><trkpt lat="39.65475160568363" lon="9.094232240824352"><ele>420.0</ele><time>2026-04-25T08:01:17Z</time></trkpt><trkpt lat="39.65466931802106" lon="9.094047447283447"><ele>419.33333333333337</ele><time>2026-04-25T08:01:18Z</time></trkpt><trkpt lat="39.654566352864954" lon="9.093873074071883"><ele>418.6666666666667</ele><time>2026-04-25T08:01:19Z</time></trkpt><trkpt lat="39.65445223428745" lon="9.093715571780917"><ele>418.0</ele><time>2026-04-25T08:01:20Z</time></trkpt><trkpt lat="39.65433334527369" lon="9.093554317203738"><ele>417.6666666666667</ele><time>2026-04-25T08:01:21Z</time></trkpt><trkpt lat="39.65421898775049" lon="9.093390737780947"><ele>417.33333333333337</ele><time>2026-04-25T08:01:22Z</time></trkpt><trkpt lat="39.65410317969508" lon="9.093226571048508"><ele>417.0</ele><time>2026-04-25T08:01:23Z</time></trkpt><trkpt lat="39.65398595960079" lon="9.093069780502601"><ele>414.33333333333337</ele><time>2026-04-25T08:01:24Z</time></trkpt><trkpt lat="39.653871969538926" lon="9.092912907074899"><ele>411.6666666666667</ele><time>2026-04-25T08:01:25Z</time></trkpt><trkpt lat="39.653760794527635" lon="9.092754355106779"><ele>409.0</ele><time>2026-04-25T08:01:26Z</time></trkpt><trkpt lat="39.65364818384508" lon="9.092598771542956"><ele>408.33333333333337</ele><time>2026-04-25T08:01:27Z</time></trkpt><trkpt lat="39.65354731508853" lon="9.092430173700839"><ele>407.66666666666663</ele><time>2026-04-25T08:01:28Z</time></trkpt><trkpt lat="39.65343667315758" lon="9.092273463110542"><ele>407.0</ele><time>2026-04-25T08:01:29Z</time></trkpt><trkpt lat="39.65331770384544" lon="9.09212395336949"><ele>407.0</ele><time>2026-04-25T08:01:30Z</time></trkpt><trkpt lat="39.65321410951155" lon="9.091956144223179"><ele>407.0</ele><time>2026-04-25T08:01:31Z</time></trkpt><trkpt lat="39.65311395594906" lon="9.091782500487534"><ele>407.0</ele><time>2026-04-25T08:01:32Z</time></trkpt><trkpt lat="39.65303104262504" lon="9.091596379806425"><ele>406.66666666666663</ele><time>2026-04-25T08:01:33Z</time></trkpt><trkpt lat="39.65293490380114" lon="9.091415865546397"><ele>406.33333333333337</ele><time>2026-04-25T08:01:34Z</time></trkpt><trkpt lat="39.652836971743994" lon="9.091232969297986"><ele>406.0</ele><time>2026-04-25T08:01:35Z</time></trkpt><trkpt lat="39.65273988695148" lon="9.091049472562158"><ele>406.0</ele><time>2026-04-25T08:01:36Z</time></trkpt><trkpt lat="39.65264310350454" lon="9.090865009681393"><ele>406.0</ele><time>2026-04-25T08:01:37Z</time></trkpt><trkpt lat="39.652576589836926" lon="9.090658197758705"><ele>406.0</ele><time>2026-04-25T08:01:38Z</time></trkpt><trkpt lat="39.65251645599705" lon="9.090446504846728"><ele>406.33333333333337</ele><time>2026-04-25T08:01:39Z</time></trkpt><trkpt lat="39.65245282840961" lon="9.090234902550803"><ele>406.66666666666663</ele><time>2026-04-25T08:01:40Z</time></trkpt><trkpt lat="39.652407148052035" lon="9.090014753203777"><ele>407.0</ele><time>2026-04-25T08:01:41Z</time></trkpt><trkpt lat="39.652357467503876" lon="9.089808670377256"><ele>408.66666666666663</ele><time>2026-04-25T08:01:42Z</time></trkpt><trkpt lat="39.65234826138397" lon="9.089613871317233"><ele>410.33333333333337</ele><time>2026-04-25T08:01:43Z</time></trkpt><trkpt lat="39.65237615834626" lon="9.089413138647549"><ele>412.0</ele><time>2026-04-25T08:01:44Z</time></trkpt><trkpt lat="39.65241853660652" lon="9.089217364131557"><ele>412.0</ele><time>2026-04-25T08:01:45Z</time></trkpt><trkpt lat="39.65246128389302" lon="9.089009086425758"><ele>412.0</ele><time>2026-04-25T08:01:46Z</time></trkpt><trkpt lat="39.65251658796292" lon="9.088803050439727"><ele>412.0</ele><time>2026-04-25T08:01:47Z</time></trkpt><trkpt lat="39.65257107448171" lon="9.088590668828381"><ele>412.0</ele><time>2026-04-25T08:01:48Z</time></trkpt><trkpt lat="39.65262556156089" lon="9.088372823623594"><ele>412.0</ele><time>2026-04-25T08:01:49Z</time></trkpt><trkpt lat="39.65268125999887" lon="9.088159160737035"><ele>412.0</ele><time>2026-04-25T08:01:50Z</time></trkpt><trkpt lat="39.65274134333853" lon="9.087945826349408"><ele>410.6666666666667</ele><time>2026-04-25T08:01:51Z</time></trkpt><trkpt lat="39.65279880005614" lon="9.087731653519034"><ele>409.33333333333337</ele><time>2026-04-25T08:01:52Z</time></trkpt><trkpt lat="39.65285555545225" lon="9.087516837010323"><ele>408.0</ele><time>2026-04-25T08:01:53Z</time></trkpt><trkpt lat="39.65291150872622" lon="9.087302739461462"><ele>408.0</ele><time>2026-04-25T08:01:54Z</time></trkpt><trkpt lat="39.65296768908391" lon="9.087089675123698"><ele>408.0</ele><time>2026-04-25T08:01:55Z</time></trkpt><trkpt lat="39.65302949143289" lon="9.086882532502822"><ele>408.0</ele><time>2026-04-25T08:01:56Z</time></trkpt><trkpt lat="39.653085299413455" lon="9.08667170610587"><ele>407.33333333333337</ele><time>2026-04-25T08:01:57Z</time></trkpt><trkpt lat="39.65313583427014" lon="9.086458574334221"><ele>406.6666666666667</ele><time>2026-04-25T08:01:58Z</time></trkpt><trkpt lat="39.653195129542" lon="9.086245205249742"><ele>406.0</ele><time>2026-04-25T08:01:59Z</time></trkpt><trkpt lat="39.65325272997793" lon="9.086033418229235"><ele>406.0</ele><time>2026-04-25T08:02:00Z</time></trkpt><trkpt lat="39.65330367751517" lon="9.08581925584264"><ele>406.0</ele><time>2026-04-25T08:02:01Z</time></trkpt><trkpt lat="39.65335577284287" lon="9.085606108796084"><ele>406.0</ele><time>2026-04-25T08:02:02Z</time></trkpt><trkpt lat="39.65341142441069" lon="9.085395960109814"><ele>406.0</ele><time>2026-04-25T08:02:03Z</time></trkpt><trkpt lat="39.65346813260756" lon="9.085185189274025"><ele>406.0</ele><time>2026-04-25T08:02:04Z</time></trkpt><trkpt lat="39.65352630985087" lon="9.084980187034317"><ele>406.0</ele><time>2026-04-25T08:02:05Z</time></trkpt><trkpt lat="39.65358076956414" lon="9.084773486455854"><ele>404.33333333333337</ele><time>2026-04-25T08:02:06Z</time></trkpt><trkpt lat="39.65363483610236" lon="9.084564954868268"><ele>402.66666666666663</ele><time>2026-04-25T08:02:07Z</time></trkpt><trkpt lat="39.653688593925786" lon="9.084356586590948"><ele>401.0</ele><time>2026-04-25T08:02:08Z</time></trkpt><trkpt lat="39.653742580871175" lon="9.084148844364748"><ele>400.3333333333333</ele><time>2026-04-25T08:02:09Z</time></trkpt><trkpt lat="39.65379519714904" lon="9.083942163303693"><ele>399.66666666666663</ele><time>2026-04-25T08:02:10Z</time></trkpt><trkpt lat="39.653847783844014" lon="9.083733834798599"><ele>399.0</ele><time>2026-04-25T08:02:11Z</time></trkpt><trkpt lat="39.65390110807152" lon="9.083524559176693"><ele>399.0</ele><time>2026-04-25T08:02:12Z</time></trkpt><trkpt lat="39.65395535827787" lon="9.083316475838576"><ele>399.0</ele><time>2026-04-25T08:02:13Z</time></trkpt><trkpt lat="39.65400900194151" lon="9.083110908397058"><ele>399.0</ele><time>2026-04-25T08:02:14Z</time></trkpt><trkpt lat="39.65407781558437" lon="9.082911123196832"><ele>399.0</ele><time>2026-04-25T08:02:15Z</time></trkpt><trkpt lat="39.654115754454516" lon="9.082703199945927"><ele>399.0</ele><time>2026-04-25T08:02:16Z</time></trkpt><trkpt lat="39.65417414090962" lon="9.082509179566909"><ele>399.0</ele><time>2026-04-25T08:02:17Z</time></trkpt><trkpt lat="39.65423309528739" lon="9.082311542708295"><ele>399.0</ele><time>2026-04-25T08:02:18Z</time></trkpt><trkpt lat="39.65428441728939" lon="9.082105968480954"><ele>399.0</ele><time>2026-04-25T08:02:19Z</time></trkpt><trkpt lat="39.65433475296861" lon="9.081901951417079"><ele>399.0</ele><time>2026-04-25T08:02:20Z</time></trkpt><trkpt lat="39.65438830495411" lon="9.081694804542956"><ele>398.0</ele><time>2026-04-25T08:02:21Z</time></trkpt><trkpt lat="39.654443270189745" lon="9.08148839935766"><ele>397.0</ele><time>2026-04-25T08:02:22Z</time></trkpt><trkpt lat="39.65449755658402" lon="9.081276105388117"><ele>396.0</ele><time>2026-04-25T08:02:23Z</time></trkpt><trkpt lat="39.65455251036864" lon="9.081063375563883"><ele>395.66666666666663</ele><time>2026-04-25T08:02:24Z</time></trkpt><trkpt lat="39.65460837469411" lon="9.08084949009269"><ele>395.3333333333333</ele><time>2026-04-25T08:02:25Z</time></trkpt><trkpt lat="39.65466359110228" lon="9.0806363553154"><ele>395.0</ele><time>2026-04-25T08:02:26Z</time></trkpt><trkpt lat="39.65471831611884" lon="9.08042546959344"><ele>394.3333333333333</ele><time>2026-04-25T08:02:27Z</time></trkpt><trkpt lat="39.654773913439115" lon="9.080214741989476"><ele>393.66666666666663</ele><time>2026-04-25T08:02:28Z</time></trkpt><trkpt lat="39.654830572163114" lon="9.080005049575202"><ele>393.0</ele><time>2026-04-25T08:02:29Z</time></trkpt><trkpt lat="39.65488793730486" lon="9.07979782814346"><ele>391.33333333333337</ele><time>2026-04-25T08:02:30Z</time></trkpt><trkpt lat="39.65494769147815" lon="9.079589523828929"><ele>389.6666666666667</ele><time>2026-04-25T08:02:31Z</time></trkpt><trkpt lat="39.65501202787768" lon="9.079383425037264"><ele>388.0</ele><time>2026-04-25T08:02:32Z</time></trkpt><trkpt lat="39.655080004263425" lon="9.079179211241899"><ele>386.33333333333337</ele><time>2026-04-25T08:02:33Z</time></trkpt><trkpt lat="39.655147538676026" lon="9.078976743155854"><ele>384.6666666666667</ele><time>2026-04-25T08:02:34Z</time></trkpt><trkpt lat="39.65521517822558" lon="9.078778778373698"><ele>383.0</ele><time>2026-04-25T08:02:35Z</time></trkpt><trkpt lat="39.65526378312393" lon="9.078576205605673"><ele>383.6666666666667</ele><time>2026-04-25T08:02:36Z</time></trkpt><trkpt lat="39.65530175023262" lon="9.078373359948205"><ele>384.33333333333337</ele><time>2026-04-25T08:02:37Z</time></trkpt><trkpt lat="39.65531274399104" lon="9.07815789129088"><ele>385.0</ele><time>2026-04-25T08:02:38Z</time></trkpt><trkpt lat="39.65532211943402" lon="9.077944927760758"><ele>385.0</ele><time>2026-04-25T08:02:39Z</time></trkpt><trkpt lat="39.65532978485887" lon="9.077725886042538"><ele>385.0</ele><time>2026-04-25T08:02:40Z</time></trkpt><trkpt lat="39.65537967591704" lon="9.077515691519462"><ele>385.0</ele><time>2026-04-25T08:02:41Z</time></trkpt><trkpt lat="39.655434804073316" lon="9.077309389388313"><ele>383.33333333333337</ele><time>2026-04-25T08:02:42Z</time></trkpt><trkpt lat="39.65548638080285" lon="9.077100853476653"><ele>381.6666666666667</ele><time>2026-04-25T08:02:43Z</time></trkpt><trkpt lat="39.655555295119505" lon="9.076896436831852"><ele>380.0</ele><time>2026-04-25T08:02:44Z</time></trkpt><trkpt lat="39.65561048110581" lon="9.076684670772227"><ele>377.33333333333337</ele><time>2026-04-25T08:02:45Z</time></trkpt><trkpt lat="39.65564978709536" lon="9.076465596222615"><ele>374.6666666666667</ele><time>2026-04-25T08:02:46Z</time></trkpt><trkpt lat="39.65573623037535" lon="9.076268388480415"><ele>372.0</ele><time>2026-04-25T08:02:47Z</time></trkpt><trkpt lat="39.655824261712176" lon="9.076075868837382"><ele>372.0</ele><time>2026-04-25T08:02:48Z</time></trkpt><trkpt lat="39.655937966368434" lon="9.07589829453374"><ele>372.0</ele><time>2026-04-25T08:02:49Z</time></trkpt><trkpt lat="39.65605065171694" lon="9.075719998989198"><ele>372.0</ele><time>2026-04-25T08:02:50Z</time></trkpt><trkpt lat="39.656153280865695" lon="9.075531247829911"><ele>371.6666666666667</ele><time>2026-04-25T08:02:51Z</time></trkpt><trkpt lat="39.65623770119376" lon="9.075323446195661"><ele>371.33333333333337</ele><time>2026-04-25T08:02:52Z</time></trkpt><trkpt lat="39.65631178864561" lon="9.075106426599419"><ele>371.0</ele><time>2026-04-25T08:02:53Z</time></trkpt><trkpt lat="39.656385890309316" lon="9.074891259453295"><ele>370.0</ele><time>2026-04-25T08:02:54Z</time></trkpt><trkpt lat="39.65644321673547" lon="9.074664168515104"><ele>369.0</ele><time>2026-04-25T08:02:55Z</time></trkpt><trkpt lat="39.6564634379285" lon="9.074426415100847"><ele>368.0</ele><time>2026-04-25T08:02:56Z</time></trkpt><trkpt lat="39.65646328825508" lon="9.074182509845436"><ele>366.33333333333337</ele><time>2026-04-25T08:02:57Z</time></trkpt><trkpt lat="39.65647408295896" lon="9.073940106756314"><ele>364.6666666666667</ele><time>2026-04-25T08:02:58Z</time></trkpt><trkpt lat="39.656466177951216" lon="9.073698668474325"><ele>363.0</ele><time>2026-04-25T08:02:59Z</time></trkpt><trkpt lat="39.65644119082692" lon="9.073458774023496"><ele>362.0</ele><time>2026-04-25T08:03:00Z</time></trkpt><trkpt lat="39.6564344102955" lon="9.073222810705937"><ele>361.0</ele><time>2026-04-25T08:03:01Z</time></trkpt><trkpt lat="39.656425077878225" lon="9.072988456084124"><ele>360.0</ele><time>2026-04-25T08:03:02Z</time></trkpt><trkpt lat="39.65643272720444" lon="9.072755841935102"><ele>360.0</ele><time>2026-04-25T08:03:03Z</time></trkpt><trkpt lat="39.65640949412499" lon="9.072525724673579"><ele>360.0</ele><time>2026-04-25T08:03:04Z</time></trkpt><trkpt lat="39.65640446430026" lon="9.072297081443319"><ele>360.0</ele><time>2026-04-25T08:03:05Z</time></trkpt><trkpt lat="39.65639877850463" lon="9.072066513096008"><ele>358.6666666666667</ele><time>2026-04-25T08:03:06Z</time></trkpt><trkpt lat="39.65638875695693" lon="9.071834870165457"><ele>357.33333333333337</ele><time>2026-04-25T08:03:07Z</time></trkpt><trkpt lat="39.656378724983014" lon="9.071598238635652"><ele>356.0</ele><time>2026-04-25T08:03:08Z</time></trkpt><trkpt lat="39.656371942079424" lon="9.071363567868529"><ele>354.6666666666667</ele><time>2026-04-25T08:03:09Z</time></trkpt><trkpt lat="39.656363864263504" lon="9.071123742103085"><ele>353.3333333333333</ele><time>2026-04-25T08:03:10Z</time></trkpt><trkpt lat="39.65635648122263" lon="9.070885514090207"><ele>352.0</ele><time>2026-04-25T08:03:11Z</time></trkpt><trkpt lat="39.65635033957904" lon="9.070641727811958"><ele>351.0</ele><time>2026-04-25T08:03:12Z</time></trkpt><trkpt lat="39.656343399228945" lon="9.07040029542011"><ele>350.0</ele><time>2026-04-25T08:03:13Z</time></trkpt><trkpt lat="39.65633270571019" lon="9.070158084013629"><ele>349.0</ele><time>2026-04-25T08:03:14Z</time></trkpt><trkpt lat="39.656312170631914" lon="9.06991595774549"><ele>348.3333333333333</ele><time>2026-04-25T08:03:15Z</time></trkpt><trkpt lat="39.6562838766467" lon="9.069679060224342"><ele>347.6666666666667</ele><time>2026-04-25T08:03:16Z</time></trkpt><trkpt lat="39.656254585567446" lon="9.069441698217743"><ele>347.0</ele><time>2026-04-25T08:03:17Z</time></trkpt><trkpt lat="39.656242436551466" lon="9.069200916595815"><ele>345.0</ele><time>2026-04-25T08:03:18Z</time></trkpt><trkpt lat="39.656255043060554" lon="9.068963900265908"><ele>343.0</ele><time>2026-04-25T08:03:19Z</time></trkpt><trkpt lat="39.65627959709158" lon="9.068726987406071"><ele>341.0</ele><time>2026-04-25T08:03:20Z</time></trkpt><trkpt lat="39.65629737107119" lon="9.06849252066606"><ele>339.33333333333337</ele><time>2026-04-25T08:03:21Z</time></trkpt><trkpt lat="39.656287254518844" lon="9.06825519015619"><ele>337.6666666666667</ele><time>2026-04-25T08:03:22Z</time></trkpt><trkpt lat="39.65623981670009" lon="9.068023359329434"><ele>336.0</ele><time>2026-04-25T08:03:23Z</time></trkpt><trkpt lat="39.65620809264584" lon="9.067791665999952"><ele>336.0</ele><time>2026-04-25T08:03:24Z</time></trkpt><trkpt lat="39.65616234790837" lon="9.067561207858407"><ele>336.0</ele><time>2026-04-25T08:03:25Z</time></trkpt><trkpt lat="39.656101034051254" lon="9.067337835666864"><ele>336.0</ele><time>2026-04-25T08:03:26Z</time></trkpt><trkpt lat="39.65605721079384" lon="9.067104467198355"><ele>334.0</ele><time>2026-04-25T08:03:27Z</time></trkpt><trkpt lat="39.656011305673566" lon="9.066873111670922"><ele>332.0</ele><time>2026-04-25T08:03:28Z</time></trkpt><trkpt lat="39.65596332566571" lon="9.06663732757048"><ele>330.0</ele><time>2026-04-25T08:03:29Z</time></trkpt><trkpt lat="39.65591616610339" lon="9.066403835651716"><ele>329.6666666666667</ele><time>2026-04-25T08:03:30Z</time></trkpt><trkpt lat="39.6558858362978" lon="9.066165329576526"><ele>329.33333333333337</ele><time>2026-04-25T08:03:31Z</time></trkpt><trkpt lat="39.65582372207102" lon="9.065935160387514"><ele>329.0</ele><time>2026-04-25T08:03:32Z</time></trkpt><trkpt lat="39.65577945847113" lon="9.065702174813381"><ele>328.0</ele><time>2026-04-25T08:03:33Z</time></trkpt><trkpt lat="39.65573505047397" lon="9.065469848423435"><ele>327.0</ele><time>2026-04-25T08:03:34Z</time></trkpt><trkpt lat="39.6556893754397" lon="9.06523634875636"><ele>326.0</ele><time>2026-04-25T08:03:35Z</time></trkpt><trkpt lat="39.65564267257631" lon="9.065008103025207"><ele>324.6666666666667</ele><time>2026-04-25T08:03:36Z</time></trkpt><trkpt lat="39.65559569247508" lon="9.064777720258736"><ele>323.3333333333333</ele><time>2026-04-25T08:03:37Z</time></trkpt><trkpt lat="39.655566737325046" lon="9.064544857968516"><ele>322.0</ele><time>2026-04-25T08:03:38Z</time></trkpt><trkpt lat="39.65552130959883" lon="9.064315268059897"><ele>321.0</ele><time>2026-04-25T08:03:39Z</time></trkpt><trkpt lat="39.65547577063507" lon="9.06408942838973"><ele>320.0</ele><time>2026-04-25T08:03:40Z</time></trkpt><trkpt lat="39.655413952746706" lon="9.063867724513528"><ele>319.0</ele><time>2026-04-25T08:03:41Z</time></trkpt><trkpt lat="39.65537222449505" lon="9.063641437577067"><ele>319.0</ele><time>2026-04-25T08:03:42Z</time></trkpt><trkpt lat="39.65532987619485" lon="9.063411835053397"><ele>319.0</ele><time>2026-04-25T08:03:43Z</time></trkpt><trkpt lat="39.65528375463188" lon="9.063183340899087"><ele>319.0</ele><time>2026-04-25T08:03:44Z</time></trkpt><trkpt lat="39.65523373692693" lon="9.062954956834579"><ele>316.3333333333333</ele><time>2026-04-25T08:03:45Z</time></trkpt><trkpt lat="39.65519940297702" lon="9.062716810793775"><ele>313.6666666666667</ele><time>2026-04-25T08:03:46Z</time></trkpt><trkpt lat="39.65513870785801" lon="9.062495328476619"><ele>311.0</ele><time>2026-04-25T08:03:47Z</time></trkpt><trkpt lat="39.65509748958488" lon="9.062272477367998"><ele>310.6666666666667</ele><time>2026-04-25T08:03:48Z</time></trkpt><trkpt lat="39.65505935577584" lon="9.062052278638497"><ele>310.3333333333333</ele><time>2026-04-25T08:03:49Z</time></trkpt><trkpt lat="39.65501533488903" lon="9.061836834121072"><ele>310.0</ele><time>2026-04-25T08:03:50Z</time></trkpt><trkpt lat="39.654972439522915" lon="9.06162708176753"><ele>311.66666666666663</ele><time>2026-04-25T08:03:51Z</time></trkpt><trkpt lat="39.65493321985027" lon="9.061425618492851"><ele>313.3333333333333</ele><time>2026-04-25T08:03:52Z</time></trkpt><trkpt lat="39.65489205580925" lon="9.061235035128911"><ele>315.0</ele><time>2026-04-25T08:03:53Z</time></trkpt><trkpt lat="39.65485292480188" lon="9.061056841070728"><ele>315.0</ele><time>2026-04-25T08:03:54Z</time></trkpt><trkpt lat="39.65483177593126" lon="9.06088186127735"><ele>315.0</ele><time>2026-04-25T08:03:55Z</time></trkpt><trkpt lat="39.65479721038566" lon="9.060706467377118"><ele>315.0</ele><time>2026-04-25T08:03:56Z</time></trkpt><trkpt lat="39.65474826206468" lon="9.060528828734162"><ele>315.0</ele><time>2026-04-25T08:03:57Z</time></trkpt><trkpt lat="39.65471718894665" lon="9.06034462693984"><ele>315.3333333333333</ele><time>2026-04-25T08:03:58Z</time></trkpt><trkpt lat="39.65467888592995" lon="9.060156351184974"><ele>315.66666666666663</ele><time>2026-04-25T08:03:59Z</time></trkpt><trkpt lat="39.65463527827446" lon="9.059961422924498"><ele>316.0</ele><time>2026-04-25T08:04:00Z</time></trkpt><trkpt lat="39.654594609027505" lon="9.05975915692799"><ele>316.0</ele><time>2026-04-25T08:04:01Z</time></trkpt><trkpt lat="39.654553551144296" lon="9.059549108543704"><ele>316.0</ele><time>2026-04-25T08:04:02Z</time></trkpt><trkpt lat="39.65450930198492" lon="9.059333368315704"><ele>316.0</ele><time>2026-04-25T08:04:03Z</time></trkpt><trkpt lat="39.65447485523705" lon="9.059118460722068"><ele>313.3333333333333</ele><time>2026-04-25T08:04:04Z</time></trkpt><trkpt lat="39.654429799460154" lon="9.058899185960344"><ele>310.6666666666667</ele><time>2026-04-25T08:04:05Z</time></trkpt><trkpt lat="39.654379785158476" lon="9.058676684879293"><ele>308.0</ele><time>2026-04-25T08:04:06Z</time></trkpt><trkpt lat="39.65433187251907" lon="9.058450169101638"><ele>308.0</ele><time>2026-04-25T08:04:07Z</time></trkpt><trkpt lat="39.65430083162043" lon="9.058216995948154"><ele>308.0</ele><time>2026-04-25T08:04:08Z</time></trkpt><trkpt lat="39.65425493447743" lon="9.05798651719409"><ele>308.0</ele><time>2026-04-25T08:04:09Z</time></trkpt><trkpt lat="39.65420979091145" lon="9.057759822662561"><ele>308.0</ele><time>2026-04-25T08:04:10Z</time></trkpt><trkpt lat="39.65414958118606" lon="9.057537737283585"><ele>308.0</ele><time>2026-04-25T08:04:11Z</time></trkpt><trkpt lat="39.65410572796947" lon="9.057311564360475"><ele>308.0</ele><time>2026-04-25T08:04:12Z</time></trkpt><trkpt lat="39.65406034128788" lon="9.057083886279447"><ele>308.0</ele><time>2026-04-25T08:04:13Z</time></trkpt><trkpt lat="39.65401486077214" lon="9.056854076316458"><ele>308.0</ele><time>2026-04-25T08:04:14Z</time></trkpt><trkpt lat="39.65397153947" lon="9.05662726507435"><ele>308.0</ele><time>2026-04-25T08:04:15Z</time></trkpt><trkpt lat="39.65392852939147" lon="9.056401139789084"><ele>308.6666666666667</ele><time>2026-04-25T08:04:16Z</time></trkpt><trkpt lat="39.65388256100808" lon="9.056173193357829"><ele>309.3333333333333</ele><time>2026-04-25T08:04:17Z</time></trkpt><trkpt lat="39.6538377758854" lon="9.05594968241809"><ele>310.0</ele><time>2026-04-25T08:04:18Z</time></trkpt><trkpt lat="39.65379506041493" lon="9.055722928114326"><ele>311.66666666666663</ele><time>2026-04-25T08:04:19Z</time></trkpt><trkpt lat="39.65375251957521" lon="9.055494782496952"><ele>313.3333333333333</ele><time>2026-04-25T08:04:20Z</time></trkpt><trkpt lat="39.653709221086814" lon="9.05526764076682"><ele>315.0</ele><time>2026-04-25T08:04:21Z</time></trkpt><trkpt lat="39.65366485461045" lon="9.055040466118406"><ele>316.3333333333333</ele><time>2026-04-25T08:04:22Z</time></trkpt><trkpt lat="39.65361997538651" lon="9.054810761316846"><ele>317.66666666666663</ele><time>2026-04-25T08:04:23Z</time></trkpt><trkpt lat="39.65357472324246" lon="9.054582211652068"><ele>319.0</ele><time>2026-04-25T08:04:24Z</time></trkpt><trkpt lat="39.653527305990956" lon="9.05434996862392"><ele>320.3333333333333</ele><time>2026-04-25T08:04:25Z</time></trkpt><trkpt lat="39.65348069584823" lon="9.05412137017706"><ele>321.6666666666667</ele><time>2026-04-25T08:04:26Z</time></trkpt><trkpt lat="39.65343268516631" lon="9.053889350161011"><ele>323.0</ele><time>2026-04-25T08:04:27Z</time></trkpt><trkpt lat="39.653399506747355" lon="9.05365366640363"><ele>323.0</ele><time>2026-04-25T08:04:28Z</time></trkpt><trkpt lat="39.65335360904534" lon="9.053423942370737"><ele>323.0</ele><time>2026-04-25T08:04:29Z</time></trkpt><trkpt lat="39.65330694208165" lon="9.053192253408472"><ele>323.0</ele><time>2026-04-25T08:04:30Z</time></trkpt><trkpt lat="39.65324650937695" lon="9.05296715300263"><ele>324.0</ele><time>2026-04-25T08:04:31Z</time></trkpt><trkpt lat="39.65320115439271" lon="9.052738726831311"><ele>325.0</ele><time>2026-04-25T08:04:32Z</time></trkpt><trkpt lat="39.653153953238956" lon="9.052512980856525"><ele>326.0</ele><time>2026-04-25T08:04:33Z</time></trkpt><trkpt lat="39.653125713776305" lon="9.05228291325886"><ele>328.0</ele><time>2026-04-25T08:04:34Z</time></trkpt><trkpt lat="39.65308030767518" lon="9.05205637398286"><ele>330.0</ele><time>2026-04-25T08:04:35Z</time></trkpt><trkpt lat="39.653023891015444" lon="9.051838123685343"><ele>332.0</ele><time>2026-04-25T08:04:36Z</time></trkpt><trkpt lat="39.65299195207314" lon="9.051615551913807"><ele>333.6666666666667</ele><time>2026-04-25T08:04:37Z</time></trkpt><trkpt lat="39.65294834994112" lon="9.051398012989551"><ele>335.3333333333333</ele><time>2026-04-25T08:04:38Z</time></trkpt><trkpt lat="39.65290416465333" lon="9.051183908845646"><ele>337.0</ele><time>2026-04-25T08:04:39Z</time></trkpt><trkpt lat="39.65284305555618" lon="9.050989244479783"><ele>334.3333333333333</ele><time>2026-04-25T08:04:40Z</time></trkpt><trkpt lat="39.65278271863554" lon="9.050784452040812"><ele>331.6666666666667</ele><time>2026-04-25T08:04:41Z</time></trkpt><trkpt lat="39.65271023889806" lon="9.050592937913049"><ele>329.0</ele><time>2026-04-25T08:04:42Z</time></trkpt><trkpt lat="39.65263240972291" lon="9.05040074802595"><ele>329.0</ele><time>2026-04-25T08:04:43Z</time></trkpt><trkpt lat="39.652557532750514" lon="9.050203892820674"><ele>329.0</ele><time>2026-04-25T08:04:44Z</time></trkpt><trkpt lat="39.65247969575418" lon="9.050002464679768"><ele>329.0</ele><time>2026-04-25T08:04:45Z</time></trkpt><trkpt lat="39.65239587982008" lon="9.049804104053836"><ele>328.6666666666667</ele><time>2026-04-25T08:04:46Z</time></trkpt><trkpt lat="39.652314444655175" lon="9.049602641426727"><ele>328.3333333333333</ele><time>2026-04-25T08:04:47Z</time></trkpt><trkpt lat="39.65224897534933" lon="9.049389171446608"><ele>328.0</ele><time>2026-04-25T08:04:48Z</time></trkpt><trkpt lat="39.65217060767882" lon="9.049185377791403"><ele>328.0</ele><time>2026-04-25T08:04:49Z</time></trkpt><trkpt lat="39.65209314681932" lon="9.048980937238737"><ele>328.0</ele><time>2026-04-25T08:04:50Z</time></trkpt><trkpt lat="39.652016144425176" lon="9.048777706794626"><ele>328.0</ele><time>2026-04-25T08:04:51Z</time></trkpt><trkpt lat="39.6519402515356" lon="9.048576029047231"><ele>325.0</ele><time>2026-04-25T08:04:52Z</time></trkpt><trkpt lat="39.65185863185521" lon="9.048378825509195"><ele>322.0</ele><time>2026-04-25T08:04:53Z</time></trkpt><trkpt lat="39.65180585719705" lon="9.048167908216284"><ele>319.0</ele><time>2026-04-25T08:04:54Z</time></trkpt><trkpt lat="39.651768588931624" lon="9.0479508041267"><ele>318.0</ele><time>2026-04-25T08:04:55Z</time></trkpt><trkpt lat="39.651737965167335" lon="9.047733196872967"><ele>317.0</ele><time>2026-04-25T08:04:56Z</time></trkpt><trkpt lat="39.65172780383785" lon="9.04751234852569"><ele>316.0</ele><time>2026-04-25T08:04:57Z</time></trkpt><trkpt lat="39.65170285962589" lon="9.04729182071492"><ele>314.66666666666663</ele><time>2026-04-25T08:04:58Z</time></trkpt><trkpt lat="39.65167791569793" lon="9.047071295365546"><ele>313.3333333333333</ele><time>2026-04-25T08:04:59Z</time></trkpt><trkpt lat="39.65165303839579" lon="9.046851359135488"><ele>312.0</ele><time>2026-04-25T08:05:00Z</time></trkpt><trkpt lat="39.65161158820163" lon="9.04663163304494"><ele>311.3333333333333</ele><time>2026-04-25T08:05:01Z</time></trkpt><trkpt lat="39.65158795527081" lon="9.046409159452942"><ele>310.66666666666663</ele><time>2026-04-25T08:05:02Z</time></trkpt><trkpt lat="39.65156360998879" lon="9.046187457087667"><ele>310.0</ele><time>2026-04-25T08:05:03Z</time></trkpt><trkpt lat="39.651537604842304" lon="9.04596297767077"><ele>309.0</ele><time>2026-04-25T08:05:04Z</time></trkpt><trkpt lat="39.651528011617216" lon="9.045735805666354"><ele>308.0</ele><time>2026-04-25T08:05:05Z</time></trkpt><trkpt lat="39.65150330030102" lon="9.04551113244313"><ele>307.0</ele><time>2026-04-25T08:05:06Z</time></trkpt><trkpt lat="39.6514785560298" lon="9.045285624917602"><ele>307.0</ele><time>2026-04-25T08:05:07Z</time></trkpt><trkpt lat="39.651454694687764" lon="9.045061779094919"><ele>307.0</ele><time>2026-04-25T08:05:08Z</time></trkpt><trkpt lat="39.65142017168344" lon="9.044839879289842"><ele>307.0</ele><time>2026-04-25T08:05:09Z</time></trkpt><trkpt lat="39.65142388748355" lon="9.044613172948262"><ele>306.3333333333333</ele><time>2026-04-25T08:05:10Z</time></trkpt><trkpt lat="39.65144171015865" lon="9.044387365181489"><ele>305.6666666666667</ele><time>2026-04-25T08:05:11Z</time></trkpt><trkpt lat="39.65145901897871" lon="9.044159794881017"><ele>305.0</ele><time>2026-04-25T08:05:12Z</time></trkpt><trkpt lat="39.651475899447846" lon="9.043930165201738"><ele>304.0</ele><time>2026-04-25T08:05:13Z</time></trkpt><trkpt lat="39.65149489424084" lon="9.043698531736876"><ele>303.0</ele><time>2026-04-25T08:05:14Z</time></trkpt><trkpt lat="39.65151273807829" lon="9.043465648306316"><ele>302.0</ele><time>2026-04-25T08:05:15Z</time></trkpt><trkpt lat="39.651548952936906" lon="9.043232677709405"><ele>302.0</ele><time>2026-04-25T08:05:16Z</time></trkpt><trkpt lat="39.65156756918134" lon="9.04300540421888"><ele>302.0</ele><time>2026-04-25T08:05:17Z</time></trkpt><trkpt lat="39.651584027099894" lon="9.04278843302902"><ele>302.0</ele><time>2026-04-25T08:05:18Z</time></trkpt><trkpt lat="39.65159195700518" lon="9.042568836772755"><ele>303.33333333333337</ele><time>2026-04-25T08:05:19Z</time></trkpt><trkpt lat="39.65155647269853" lon="9.042370535619689"><ele>304.6666666666667</ele><time>2026-04-25T08:05:20Z</time></trkpt><trkpt lat="39.65147552761375" lon="9.042186477561867"><ele>306.0</ele><time>2026-04-25T08:05:21Z</time></trkpt><trkpt lat="39.651362280958246" lon="9.04203048140893"><ele>306.0</ele><time>2026-04-25T08:05:22Z</time></trkpt><trkpt lat="39.65124162013736" lon="9.041882839539415"><ele>306.0</ele><time>2026-04-25T08:05:23Z</time></trkpt><trkpt lat="39.651121227875294" lon="9.041735855181974"><ele>306.0</ele><time>2026-04-25T08:05:24Z</time></trkpt><trkpt lat="39.65099884587196" lon="9.041584990623722"><ele>305.6666666666667</ele><time>2026-04-25T08:05:25Z</time></trkpt><trkpt lat="39.65086374780163" lon="9.041449508831489"><ele>305.33333333333337</ele><time>2026-04-25T08:05:26Z</time></trkpt><trkpt lat="39.65074892014503" lon="9.04127980676762"><ele>305.0</ele><time>2026-04-25T08:05:27Z</time></trkpt><trkpt lat="39.65062259854847" lon="9.041130293307981"><ele>305.0</ele><time>2026-04-25T08:05:28Z</time></trkpt><trkpt lat="39.650503031221696" lon="9.040976056798733"><ele>305.0</ele><time>2026-04-25T08:05:29Z</time></trkpt><trkpt lat="39.65040012046885" lon="9.040811097231774"><ele>305.0</ele><time>2026-04-25T08:05:30Z</time></trkpt><trkpt lat="39.650309156351796" lon="9.040629839373372"><ele>302.6666666666667</ele><time>2026-04-25T08:05:31Z</time></trkpt><trkpt lat="39.65025619263397" lon="9.040419036486613"><ele>300.3333333333333</ele><time>2026-04-25T08:05:32Z</time></trkpt><trkpt lat="39.650208949200966" lon="9.040199358432549"><ele>298.0</ele><time>2026-04-25T08:05:33Z</time></trkpt><trkpt lat="39.65017991847741" lon="9.039973943802764"><ele>298.66666666666663</ele><time>2026-04-25T08:05:34Z</time></trkpt><trkpt lat="39.65013453450869" lon="9.03975184792583"><ele>299.3333333333333</ele><time>2026-04-25T08:05:35Z</time></trkpt><trkpt lat="39.65008720754896" lon="9.039526593820753"><ele>300.0</ele><time>2026-04-25T08:05:36Z</time></trkpt><trkpt lat="39.650039759812934" lon="9.039300764816314"><ele>300.3333333333333</ele><time>2026-04-25T08:05:37Z</time></trkpt><trkpt lat="39.649994250819624" lon="9.03907304578048"><ele>300.66666666666663</ele><time>2026-04-25T08:05:38Z</time></trkpt><trkpt lat="39.64993461411556" lon="9.038853274250464"><ele>301.0</ele><time>2026-04-25T08:05:39Z</time></trkpt><trkpt lat="39.649888591467274" lon="9.038626850567605"><ele>301.0</ele><time>2026-04-25T08:05:40Z</time></trkpt><trkpt lat="39.64985512065964" lon="9.03839493923034"><ele>301.0</ele><time>2026-04-25T08:05:41Z</time></trkpt><trkpt lat="39.64980821478306" lon="9.038167714855454"><ele>301.0</ele><time>2026-04-25T08:05:42Z</time></trkpt><trkpt lat="39.649760662860366" lon="9.037937360866348"><ele>300.0</ele><time>2026-04-25T08:05:43Z</time></trkpt><trkpt lat="39.64969985963933" lon="9.037713329324323"><ele>299.0</ele><time>2026-04-25T08:05:44Z</time></trkpt><trkpt lat="39.64965192627471" lon="9.0374821152184"><ele>298.0</ele><time>2026-04-25T08:05:45Z</time></trkpt><trkpt lat="39.649603044835295" lon="9.037253506910552"><ele>297.66666666666663</ele><time>2026-04-25T08:05:46Z</time></trkpt><trkpt lat="39.649561431541755" lon="9.037024608159381"><ele>297.3333333333333</ele><time>2026-04-25T08:05:47Z</time></trkpt><trkpt lat="39.64948222294552" lon="9.03681094450556"><ele>297.0</ele><time>2026-04-25T08:05:48Z</time></trkpt><trkpt lat="39.64939281318945" lon="9.036605128510148"><ele>297.6666666666667</ele><time>2026-04-25T08:05:49Z</time></trkpt><trkpt lat="39.64930185970399" lon="9.036400799543104"><ele>298.33333333333337</ele><time>2026-04-25T08:05:50Z</time></trkpt><trkpt lat="39.649196753922695" lon="9.036207047215125"><ele>299.0</ele><time>2026-04-25T08:05:51Z</time></trkpt><trkpt lat="39.64911875065407" lon="9.035987870295635"><ele>300.0</ele><time>2026-04-25T08:05:52Z</time></trkpt><trkpt lat="39.6490252980754" lon="9.035778547627418"><ele>301.0</ele><time>2026-04-25T08:05:53Z</time></trkpt><trkpt lat="39.64893225097929" lon="9.035570133112467"><ele>302.0</ele><time>2026-04-25T08:05:54Z</time></trkpt><trkpt lat="39.6488377925038" lon="9.035358557368344"><ele>302.0</ele><time>2026-04-25T08:05:55Z</time></trkpt><trkpt lat="39.64873216954062" lon="9.035158214868924"><ele>302.0</ele><time>2026-04-25T08:05:56Z</time></trkpt><trkpt lat="39.648640497554545" lon="9.034944813346973"><ele>302.0</ele><time>2026-04-25T08:05:57Z</time></trkpt><trkpt lat="39.648545147778876" lon="9.034733001493775"><ele>303.0</ele><time>2026-04-25T08:05:58Z</time></trkpt><trkpt lat="39.648448705596195" lon="9.034522179609837"><ele>304.0</ele><time>2026-04-25T08:05:59Z</time></trkpt><trkpt lat="39.64835230296295" lon="9.034309214207363"><ele>305.0</ele><time>2026-04-25T08:06:00Z</time></trkpt><trkpt lat="39.648256595982474" lon="9.034093575414918"><ele>306.0</ele><time>2026-04-25T08:06:01Z</time></trkpt><trkpt lat="39.648161019791395" lon="9.033876793914768"><ele>307.0</ele><time>2026-04-25T08:06:02Z</time></trkpt><trkpt lat="39.6480649536706" lon="9.033658965048794"><ele>308.0</ele><time>2026-04-25T08:06:03Z</time></trkpt><trkpt lat="39.6479678113909" lon="9.033441259227601"><ele>309.0</ele><time>2026-04-25T08:06:04Z</time></trkpt><trkpt lat="39.6478693534061" lon="9.03322148121947"><ele>310.0</ele><time>2026-04-25T08:06:05Z</time></trkpt><trkpt lat="39.64777009599102" lon="9.032999698800145"><ele>311.0</ele><time>2026-04-25T08:06:06Z</time></trkpt><trkpt lat="39.64768454001477" lon="9.032767448209002"><ele>311.33333333333337</ele><time>2026-04-25T08:06:07Z</time></trkpt><trkpt lat="39.64756980369451" lon="9.032555871680676"><ele>311.6666666666667</ele><time>2026-04-25T08:06:08Z</time></trkpt><trkpt lat="39.647471782671154" lon="9.03233207809213"><ele>312.0</ele><time>2026-04-25T08:06:09Z</time></trkpt><trkpt lat="39.6473735087385" lon="9.032106996483257"><ele>313.3333333333333</ele><time>2026-04-25T08:06:10Z</time></trkpt><trkpt lat="39.64727209336343" lon="9.031881225944952"><ele>314.66666666666663</ele><time>2026-04-25T08:06:11Z</time></trkpt><trkpt lat="39.64718433883613" lon="9.031646740674027"><ele>316.0</ele><time>2026-04-25T08:06:12Z</time></trkpt><trkpt lat="39.64708709953602" lon="9.031422186789928"><ele>316.3333333333333</ele><time>2026-04-25T08:06:13Z</time></trkpt><trkpt lat="39.64698831242184" lon="9.031198222515552"><ele>316.6666666666667</ele><time>2026-04-25T08:06:14Z</time></trkpt><trkpt lat="39.64688938549131" lon="9.030977514546336"><ele>317.0</ele><time>2026-04-25T08:06:15Z</time></trkpt><trkpt lat="39.646790324381" lon="9.030756271915553"><ele>319.0</ele><time>2026-04-25T08:06:16Z</time></trkpt><trkpt lat="39.64669244932011" lon="9.030537428538512"><ele>321.0</ele><time>2026-04-25T08:06:17Z</time></trkpt><trkpt lat="39.646583849715384" lon="9.030329929468238"><ele>323.0</ele><time>2026-04-25T08:06:18Z</time></trkpt><trkpt lat="39.64649046177295" lon="9.030115541575904"><ele>324.0</ele><time>2026-04-25T08:06:19Z</time></trkpt><trkpt lat="39.64640817141735" lon="9.029900028953978"><ele>325.0</ele><time>2026-04-25T08:06:20Z</time></trkpt><trkpt lat="39.64631673361178" lon="9.029690981735392"><ele>326.0</ele><time>2026-04-25T08:06:21Z</time></trkpt><trkpt lat="39.64622998074392" lon="9.029482213403185"><ele>326.0</ele><time>2026-04-25T08:06:22Z</time></trkpt><trkpt lat="39.64614924065163" lon="9.029271421543072"><ele>326.0</ele><time>2026-04-25T08:06:23Z</time></trkpt><trkpt lat="39.64611246315605" lon="9.02903318182241"><ele>326.0</ele><time>2026-04-25T08:06:24Z</time></trkpt><trkpt lat="39.646060166236424" lon="9.028799885998989"><ele>324.6666666666667</ele><time>2026-04-25T08:06:25Z</time></trkpt><trkpt lat="39.64602531596653" lon="9.028562483340936"><ele>323.3333333333333</ele><time>2026-04-25T08:06:26Z</time></trkpt><trkpt lat="39.645991499651494" lon="9.028334031563897"><ele>322.0</ele><time>2026-04-25T08:06:27Z</time></trkpt><trkpt lat="39.64597382450641" lon="9.028109589950615"><ele>321.0</ele><time>2026-04-25T08:06:28Z</time></trkpt><trkpt lat="39.64597278501843" lon="9.027882531898047"><ele>320.0</ele><time>2026-04-25T08:06:29Z</time></trkpt><trkpt lat="39.6459797268858" lon="9.027648614575748"><ele>319.0</ele><time>2026-04-25T08:06:30Z</time></trkpt><trkpt lat="39.645985752301044" lon="9.02740811448041"><ele>318.0</ele><time>2026-04-25T08:06:31Z</time></trkpt><trkpt lat="39.64599046770427" lon="9.027166652054206"><ele>317.0</ele><time>2026-04-25T08:06:32Z</time></trkpt><trkpt lat="39.6459996958616" lon="9.026925089142514"><ele>316.0</ele><time>2026-04-25T08:06:33Z</time></trkpt><trkpt lat="39.64601046251283" lon="9.026687744490964"><ele>315.0</ele><time>2026-04-25T08:06:34Z</time></trkpt><trkpt lat="39.64601571990155" lon="9.026453437805644"><ele>314.0</ele><time>2026-04-25T08:06:35Z</time></trkpt><trkpt lat="39.64600070160282" lon="9.02622487759514"><ele>313.0</ele><time>2026-04-25T08:06:36Z</time></trkpt><trkpt lat="39.64596279964749" lon="9.026010558232226"><ele>311.66666666666663</ele><time>2026-04-25T08:06:37Z</time></trkpt><trkpt lat="39.645911560428765" lon="9.0257978050923"><ele>310.3333333333333</ele><time>2026-04-25T08:06:38Z</time></trkpt><trkpt lat="39.64584642541779" lon="9.025586161120858"><ele>309.0</ele><time>2026-04-25T08:06:39Z</time></trkpt><trkpt lat="39.64577346006947" lon="9.02537080488424"><ele>309.0</ele><time>2026-04-25T08:06:40Z</time></trkpt><trkpt lat="39.645690865417286" lon="9.025164923370077"><ele>309.0</ele><time>2026-04-25T08:06:41Z</time></trkpt><trkpt lat="39.64559361732264" lon="9.024969342751861"><ele>309.0</ele><time>2026-04-25T08:06:42Z</time></trkpt><trkpt lat="39.6455000591749" lon="9.024777385300856"><ele>308.0</ele><time>2026-04-25T08:06:43Z</time></trkpt><trkpt lat="39.64540807639382" lon="9.024590783722443"><ele>307.0</ele><time>2026-04-25T08:06:44Z</time></trkpt><trkpt lat="39.64531663382899" lon="9.024406330618822"><ele>306.0</ele><time>2026-04-25T08:06:45Z</time></trkpt><trkpt lat="39.64522912890932" lon="9.024222050013057"><ele>306.6666666666667</ele><time>2026-04-25T08:06:46Z</time></trkpt><trkpt lat="39.64513616793737" lon="9.02404632029963"><ele>307.33333333333337</ele><time>2026-04-25T08:06:47Z</time></trkpt><trkpt lat="39.64502446041159" lon="9.023885800496757"><ele>308.0</ele><time>2026-04-25T08:06:48Z</time></trkpt><trkpt lat="39.64490076274838" lon="9.023739722373852"><ele>308.0</ele><time>2026-04-25T08:06:49Z</time></trkpt><trkpt lat="39.644793099730265" lon="9.023575967084135"><ele>308.0</ele><time>2026-04-25T08:06:50Z</time></trkpt><trkpt lat="39.64466755879091" lon="9.02343642578036"><ele>308.0</ele><time>2026-04-25T08:06:51Z</time></trkpt><trkpt lat="39.64456183002209" lon="9.023284259605882"><ele>308.6666666666667</ele><time>2026-04-25T08:06:52Z</time></trkpt><trkpt lat="39.64446301722663" lon="9.023125830691198"><ele>309.3333333333333</ele><time>2026-04-25T08:06:53Z</time></trkpt><trkpt lat="39.64438721321821" lon="9.022952119514038"><ele>310.0</ele><time>2026-04-25T08:06:54Z</time></trkpt><trkpt lat="39.644334907391475" lon="9.022770546490046"><ele>305.0</ele><time>2026-04-25T08:06:55Z</time></trkpt><trkpt lat="39.64429440775223" lon="9.022576298833156"><ele>300.0</ele><time>2026-04-25T08:06:56Z</time></trkpt><trkpt lat="39.644273073226366" lon="9.022379894701372"><ele>295.0</ele><time>2026-04-25T08:06:57Z</time></trkpt><trkpt lat="39.6442765258558" lon="9.022175826660945"><ele>294.0</ele><time>2026-04-25T08:06:58Z</time></trkpt><trkpt lat="39.6442900874432" lon="9.021967157922806"><ele>293.0</ele><time>2026-04-25T08:06:59Z</time></trkpt><trkpt lat="39.64430959194811" lon="9.021746973414343"><ele>292.0</ele><time>2026-04-25T08:07:00Z</time></trkpt><trkpt lat="39.64433490876198" lon="9.021522972583066"><ele>290.3333333333333</ele><time>2026-04-25T08:07:01Z</time></trkpt><trkpt lat="39.64435705302174" lon="9.021291275793923"><ele>288.6666666666667</ele><time>2026-04-25T08:07:02Z</time></trkpt><trkpt lat="39.64437409028105" lon="9.021060051937905"><ele>287.0</ele><time>2026-04-25T08:07:03Z</time></trkpt><trkpt lat="39.64439995045787" lon="9.020827600227527"><ele>285.33333333333337</ele><time>2026-04-25T08:07:04Z</time></trkpt><trkpt lat="39.64442862429375" lon="9.02058942011013"><ele>283.6666666666667</ele><time>2026-04-25T08:07:05Z</time></trkpt><trkpt lat="39.64444444814561" lon="9.020349631490367"><ele>282.0</ele><time>2026-04-25T08:07:06Z</time></trkpt><trkpt lat="39.64444108553455" lon="9.020107535865513"><ele>281.6666666666667</ele><time>2026-04-25T08:07:07Z</time></trkpt><trkpt lat="39.644438693251935" lon="9.019866561116757"><ele>281.33333333333337</ele><time>2026-04-25T08:07:08Z</time></trkpt><trkpt lat="39.64443790957397" lon="9.019629088758725"><ele>281.0</ele><time>2026-04-25T08:07:09Z</time></trkpt><trkpt lat="39.64443602960806" lon="9.01939826798257"><ele>281.0</ele><time>2026-04-25T08:07:10Z</time></trkpt><trkpt lat="39.64443335711295" lon="9.019178859423139"><ele>281.0</ele><time>2026-04-25T08:07:11Z</time></trkpt><trkpt lat="39.644390317712386" lon="9.018982125519036"><ele>281.0</ele><time>2026-04-25T08:07:12Z</time></trkpt><trkpt lat="39.644304759091085" lon="9.01881585287926"><ele>282.33333333333337</ele><time>2026-04-25T08:07:13Z</time></trkpt><trkpt lat="39.64418614455509" lon="9.01868997763061"><ele>283.6666666666667</ele><time>2026-04-25T08:07:14Z</time></trkpt><trkpt lat="39.64407197831078" lon="9.01854576445796"><ele>285.0</ele><time>2026-04-25T08:07:15Z</time></trkpt><trkpt lat="39.64394171045844" lon="9.018427247961075"><ele>285.25</ele><time>2026-04-25T08:07:16Z</time></trkpt><trkpt lat="39.64384917368464" lon="9.018275199286721"><ele>285.5</ele><time>2026-04-25T08:07:17Z</time></trkpt><trkpt lat="39.64379232534298" lon="9.018106363559312"><ele>285.75</ele><time>2026-04-25T08:07:18Z</time></trkpt><trkpt lat="39.643765337245185" lon="9.017915372919536"><ele>286.0</ele><time>2026-04-25T08:07:19Z</time></trkpt><trkpt lat="39.64378244222358" lon="9.017715952325192"><ele>286.0</ele><time>2026-04-25T08:07:20Z</time></trkpt><trkpt lat="39.64377636964562" lon="9.017508637844415"><ele>286.0</ele><time>2026-04-25T08:07:21Z</time></trkpt><trkpt lat="39.64377990778805" lon="9.017301066254625"><ele>286.0</ele><time>2026-04-25T08:07:22Z</time></trkpt><trkpt lat="39.6437842444863" lon="9.017091054816994"><ele>284.3333333333333</ele><time>2026-04-25T08:07:23Z</time></trkpt><trkpt lat="39.64378851492187" lon="9.016883909327161"><ele>282.6666666666667</ele><time>2026-04-25T08:07:24Z</time></trkpt><trkpt lat="39.643791499458494" lon="9.016683539180706"><ele>281.0</ele><time>2026-04-25T08:07:25Z</time></trkpt><trkpt lat="39.64379191492348" lon="9.016489829866796"><ele>278.6666666666667</ele><time>2026-04-25T08:07:26Z</time></trkpt><trkpt lat="39.64378258249313" lon="9.016296926017901"><ele>276.3333333333333</ele><time>2026-04-25T08:07:27Z</time></trkpt><trkpt lat="39.6437566966933" lon="9.01609945138427"><ele>274.0</ele><time>2026-04-25T08:07:28Z</time></trkpt><trkpt lat="39.643720619904364" lon="9.015898843653341"><ele>273.3333333333333</ele><time>2026-04-25T08:07:29Z</time></trkpt><trkpt lat="39.64369260344749" lon="9.015693174908883"><ele>272.6666666666667</ele><time>2026-04-25T08:07:30Z</time></trkpt><trkpt lat="39.64366098848631" lon="9.015478088953968"><ele>272.0</ele><time>2026-04-25T08:07:31Z</time></trkpt><trkpt lat="39.64362686565373" lon="9.015263499565046"><ele>272.0</ele><time>2026-04-25T08:07:32Z</time></trkpt><trkpt lat="39.64358978501923" lon="9.015042362299"><ele>272.0</ele><time>2026-04-25T08:07:33Z</time></trkpt><trkpt lat="39.64355492452171" lon="9.014817254024333"><ele>272.0</ele><time>2026-04-25T08:07:34Z</time></trkpt><trkpt lat="39.64352324352425" lon="9.014590709861377"><ele>270.6666666666667</ele><time>2026-04-25T08:07:35Z</time></trkpt><trkpt lat="39.643482918351026" lon="9.014361649707611"><ele>269.3333333333333</ele><time>2026-04-25T08:07:36Z</time></trkpt><trkpt lat="39.643439940960505" lon="9.01413075759525"><ele>268.0</ele><time>2026-04-25T08:07:37Z</time></trkpt><trkpt lat="39.64339659553437" lon="9.013908195747188"><ele>268.0</ele><time>2026-04-25T08:07:38Z</time></trkpt><trkpt lat="39.64334230760807" lon="9.01369072826708"><ele>268.0</ele><time>2026-04-25T08:07:39Z</time></trkpt><trkpt lat="39.64328417429164" lon="9.013481596598975"><ele>268.0</ele><time>2026-04-25T08:07:40Z</time></trkpt><trkpt lat="39.643227031692625" lon="9.013274927249789"><ele>269.3333333333333</ele><time>2026-04-25T08:07:41Z</time></trkpt><trkpt lat="39.64317616973943" lon="9.01307676547929"><ele>270.6666666666667</ele><time>2026-04-25T08:07:42Z</time></trkpt><trkpt lat="39.64313553515337" lon="9.012881934991249"><ele>272.0</ele><time>2026-04-25T08:07:43Z</time></trkpt><trkpt lat="39.64310897567363" lon="9.012691570720646"><ele>272.0</ele><time>2026-04-25T08:07:44Z</time></trkpt><trkpt lat="39.64310500735021" lon="9.012502521745095"><ele>272.0</ele><time>2026-04-25T08:07:45Z</time></trkpt><trkpt lat="39.643124049939" lon="9.012309526864891"><ele>272.0</ele><time>2026-04-25T08:07:46Z</time></trkpt><trkpt lat="39.643157857080624" lon="9.012115581203606"><ele>272.0</ele><time>2026-04-25T08:07:47Z</time></trkpt><trkpt lat="39.643197522918385" lon="9.011920159474416"><ele>271.33333333333337</ele><time>2026-04-25T08:07:48Z</time></trkpt><trkpt lat="39.64323279461938" lon="9.01172485733879"><ele>270.6666666666667</ele><time>2026-04-25T08:07:49Z</time></trkpt><trkpt lat="39.64325928404112" lon="9.011528687707758"><ele>270.0</ele><time>2026-04-25T08:07:50Z</time></trkpt><trkpt lat="39.64327669275493" lon="9.011334238802766"><ele>270.0</ele><time>2026-04-25T08:07:51Z</time></trkpt><trkpt lat="39.64328397357406" lon="9.01113966197176"><ele>270.0</ele><time>2026-04-25T08:07:52Z</time></trkpt><trkpt lat="39.643284084273176" lon="9.010946001813917"><ele>270.0</ele><time>2026-04-25T08:07:53Z</time></trkpt><trkpt lat="39.64328248661342" lon="9.010755955579564"><ele>270.0</ele><time>2026-04-25T08:07:54Z</time></trkpt><trkpt lat="39.643284621882344" lon="9.01057047150192"><ele>270.0</ele><time>2026-04-25T08:07:55Z</time></trkpt><trkpt lat="39.64328682418129" lon="9.010390100325543"><ele>270.0</ele><time>2026-04-25T08:07:56Z</time></trkpt><trkpt lat="39.643288208462955" lon="9.010214239061458"><ele>270.0</ele><time>2026-04-25T08:07:57Z</time></trkpt><trkpt lat="39.643288811432775" lon="9.010042226066954"><ele>270.0</ele><time>2026-04-25T08:07:58Z</time></trkpt><trkpt lat="39.643286499520094" lon="9.00987751991484"><ele>270.75</ele><time>2026-04-25T08:07:59Z</time></trkpt><trkpt lat="39.64328508781261" lon="9.009716303802223"><ele>271.5</ele><time>2026-04-25T08:08:00Z</time></trkpt><trkpt lat="39.64328245108893" lon="9.009554940013771"><ele>272.25</ele><time>2026-04-25T08:08:01Z</time></trkpt><trkpt lat="39.64327767727504" lon="9.00939713948717"><ele>273.0</ele><time>2026-04-25T08:08:02Z</time></trkpt><trkpt lat="39.643272783905076" lon="9.00923958868232"><ele>273.75</ele><time>2026-04-25T08:08:03Z</time></trkpt><trkpt lat="39.64327091528634" lon="9.009082494575958"><ele>274.5</ele><time>2026-04-25T08:08:04Z</time></trkpt><trkpt lat="39.643269602205166" lon="9.008925067647137"><ele>275.25</ele><time>2026-04-25T08:08:05Z</time></trkpt><trkpt lat="39.64326812620456" lon="9.0087674877696"><ele>276.0</ele><time>2026-04-25T08:08:06Z</time></trkpt><trkpt lat="39.64326697275348" lon="9.008613636795289"><ele>276.0</ele><time>2026-04-25T08:08:07Z</time></trkpt><trkpt lat="39.64326307933142" lon="9.008469032345715"><ele>276.0</ele><time>2026-04-25T08:08:08Z</time></trkpt><trkpt lat="39.64325516934157" lon="9.008340592776525"><ele>276.0</ele><time>2026-04-25T08:08:09Z</time></trkpt><trkpt lat="39.643247244072285" lon="9.008224402951733"><ele>276.0</ele><time>2026-04-25T08:08:10Z</time></trkpt><trkpt lat="39.643240743748265" lon="9.008127975697997"><ele>276.0</ele><time>2026-04-25T08:08:11Z</time></trkpt><trkpt lat="39.64326285498391" lon="9.007996392959805"><ele>276.0</ele><time>2026-04-25T08:08:13Z</time></trkpt><trkpt lat="39.64330922233886" lon="9.007907611883155"><ele>276.0</ele><time>2026-04-25T08:08:15Z</time></trkpt><trkpt lat="39.64336098178158" lon="9.007810414416424"><ele>276.0</ele><time>2026-04-25T08:08:17Z</time></trkpt><trkpt lat="39.643399410539466" lon="9.007672569384535"><ele>276.0</ele><time>2026-04-25T08:08:19Z</time></trkpt><trkpt lat="39.6434132265687" lon="9.007581378704447"><ele>276.0</ele><time>2026-04-25T08:08:20Z</time></trkpt><trkpt lat="39.64344706241235" lon="9.007499116276897"><ele>276.0</ele><time>2026-04-25T08:08:21Z</time></trkpt><trkpt lat="39.64348267959392" lon="9.007405512020643"><ele>275.8333333333333</ele><time>2026-04-25T08:08:22Z</time></trkpt><trkpt lat="39.64351800298112" lon="9.007307295340519"><ele>275.6666666666667</ele><time>2026-04-25T08:08:23Z</time></trkpt><trkpt lat="39.64354853510686" lon="9.007203990097361"><ele>275.5</ele><time>2026-04-25T08:08:24Z</time></trkpt><trkpt lat="39.6435806601899" lon="9.007095487790226"><ele>275.33333333333337</ele><time>2026-04-25T08:08:25Z</time></trkpt><trkpt lat="39.64361176805375" lon="9.006984990247592"><ele>275.1666666666667</ele><time>2026-04-25T08:08:26Z</time></trkpt><trkpt lat="39.643646978147224" lon="9.006869981256916"><ele>275.0</ele><time>2026-04-25T08:08:27Z</time></trkpt><trkpt lat="39.64368142679608" lon="9.006752279804441"><ele>275.6</ele><time>2026-04-25T08:08:28Z</time></trkpt><trkpt lat="39.643713328440576" lon="9.006641419848776"><ele>276.2</ele><time>2026-04-25T08:08:29Z</time></trkpt><trkpt lat="39.643749655848964" lon="9.006524427564814"><ele>276.8</ele><time>2026-04-25T08:08:30Z</time></trkpt><trkpt lat="39.64378460477104" lon="9.00640945800002"><ele>277.4</ele><time>2026-04-25T08:08:31Z</time></trkpt><trkpt lat="39.64381075154757" lon="9.006302747725172"><ele>278.0</ele><time>2026-04-25T08:08:32Z</time></trkpt><trkpt lat="39.643843913099055" lon="9.006188789212885"><ele>278.0</ele><time>2026-04-25T08:08:33Z</time></trkpt><trkpt lat="39.6438786482283" lon="9.006078575338975"><ele>278.0</ele><time>2026-04-25T08:08:34Z</time></trkpt><trkpt lat="39.64391332279243" lon="9.005964336776897"><ele>278.0</ele><time>2026-04-25T08:08:35Z</time></trkpt><trkpt lat="39.64394377368772" lon="9.0058505178273"><ele>278.0</ele><time>2026-04-25T08:08:36Z</time></trkpt><trkpt lat="39.64397146800322" lon="9.00574128224265"><ele>278.0</ele><time>2026-04-25T08:08:37Z</time></trkpt><trkpt lat="39.64400158514035" lon="9.005636623979917"><ele>277.4</ele><time>2026-04-25T08:08:38Z</time></trkpt><trkpt lat="39.64403935571811" lon="9.005513370085733"><ele>276.8</ele><time>2026-04-25T08:08:39Z</time></trkpt><trkpt lat="39.644072460114046" lon="9.005404301345571"><ele>276.2</ele><time>2026-04-25T08:08:40Z</time></trkpt><trkpt lat="39.644109031597345" lon="9.005286087821018"><ele>275.6</ele><time>2026-04-25T08:08:41Z</time></trkpt><trkpt lat="39.64414641856646" lon="9.005167616506188"><ele>275.0</ele><time>2026-04-25T08:08:42Z</time></trkpt><trkpt lat="39.644182559720726" lon="9.00505317282001"><ele>275.2</ele><time>2026-04-25T08:08:43Z</time></trkpt><trkpt lat="39.64421826701135" lon="9.004937548307083"><ele>275.4</ele><time>2026-04-25T08:08:44Z</time></trkpt><trkpt lat="39.64425351069024" lon="9.004824631347693"><ele>275.6</ele><time>2026-04-25T08:08:45Z</time></trkpt><trkpt lat="39.64428534129891" lon="9.00470998552506"><ele>275.8</ele><time>2026-04-25T08:08:46Z</time></trkpt><trkpt lat="39.6443122580846" lon="9.004601518935463"><ele>276.0</ele><time>2026-04-25T08:08:47Z</time></trkpt><trkpt lat="39.64434964811267" lon="9.004487191895068"><ele>276.0</ele><time>2026-04-25T08:08:48Z</time></trkpt><trkpt lat="39.64438688792557" lon="9.004368749274912"><ele>276.0</ele><time>2026-04-25T08:08:49Z</time></trkpt><trkpt lat="39.64441541630351" lon="9.00425677576523"><ele>276.0</ele><time>2026-04-25T08:08:50Z</time></trkpt><trkpt lat="39.64445114495448" lon="9.004136336162311"><ele>276.0</ele><time>2026-04-25T08:08:51Z</time></trkpt><trkpt lat="39.64448753408414" lon="9.004016507154393"><ele>276.0</ele><time>2026-04-25T08:08:52Z</time></trkpt><trkpt lat="39.64452600435986" lon="9.00389390711102"><ele>276.8333333333333</ele><time>2026-04-25T08:08:53Z</time></trkpt><trkpt lat="39.644559923225636" lon="9.003773440682028"><ele>277.6666666666667</ele><time>2026-04-25T08:08:54Z</time></trkpt><trkpt lat="39.644597815267645" lon="9.003662801840543"><ele>278.5</ele><time>2026-04-25T08:08:55Z</time></trkpt><trkpt lat="39.64462969237439" lon="9.003553430342714"><ele>279.33333333333337</ele><time>2026-04-25T08:08:56Z</time></trkpt><trkpt lat="39.64466034264115" lon="9.00345336600499"><ele>280.1666666666667</ele><time>2026-04-25T08:08:57Z</time></trkpt><trkpt lat="39.64468665566134" lon="9.003356427901004"><ele>281.0</ele><time>2026-04-25T08:08:58Z</time></trkpt><trkpt lat="39.64471192035201" lon="9.003272371968414"><ele>281.0</ele><time>2026-04-25T08:08:59Z</time></trkpt><trkpt lat="39.644723859265014" lon="9.003165938757277"><ele>281.0</ele><time>2026-04-25T08:09:01Z</time></trkpt><trkpt lat="39.64462919355085" lon="9.003125726084157"><ele>281.0</ele><time>2026-04-25T08:09:05Z</time></trkpt><trkpt lat="39.644579097693175" lon="9.003275390307426"><ele>281.0</ele><time>2026-04-25T08:09:07Z</time></trkpt><trkpt lat="39.64453624508941" lon="9.003359302726553"><ele>281.0</ele><time>2026-04-25T08:09:08Z</time></trkpt><trkpt lat="39.64448717435671" lon="9.003439281479238"><ele>280.83333333333337</ele><time>2026-04-25T08:09:09Z</time></trkpt><trkpt lat="39.64443841550386" lon="9.003516033920997"><ele>280.6666666666667</ele><time>2026-04-25T08:09:10Z</time></trkpt><trkpt lat="39.644395456341016" lon="9.003580273979226"><ele>280.5</ele><time>2026-04-25T08:09:11Z</time></trkpt><trkpt lat="39.64431334403795" lon="9.003697949470364"><ele>280.3333333333333</ele><time>2026-04-25T08:09:13Z</time></trkpt><trkpt lat="39.64427375624921" lon="9.00376345578493"><ele>280.16666666666663</ele><time>2026-04-25T08:09:14Z</time></trkpt><trkpt lat="39.64423369414944" lon="9.003832645410032"><ele>280.0</ele><time>2026-04-25T08:09:15Z</time></trkpt><trkpt lat="39.644197703464854" lon="9.003906016999103"><ele>280.0</ele><time>2026-04-25T08:09:16Z</time></trkpt><trkpt lat="39.64416590328331" lon="9.004021663384236"><ele>280.0</ele><time>2026-04-25T08:09:18Z</time></trkpt><trkpt lat="39.64414473773276" lon="9.004109670510802"><ele>280.0</ele><time>2026-04-25T08:09:21Z</time></trkpt><trkpt lat="39.64412552006107" lon="9.004194476641748"><ele>280.0</ele><time>2026-04-25T08:09:25Z</time></trkpt><trkpt lat="39.64409498741776" lon="9.004274555798725"><ele>280.0</ele><time>2026-04-25T08:09:28Z</time></trkpt><trkpt lat="39.644141205250484" lon="9.004201879952753"><ele>280.0</ele><time>2026-04-25T08:09:33Z</time></trkpt><trkpt lat="39.64416109444783" lon="9.004114110414056"><ele>280.0</ele><time>2026-04-25T08:09:35Z</time></trkpt><trkpt lat="39.64418251841541" lon="9.004025885310705"><ele>280.0</ele><time>2026-04-25T08:09:37Z</time></trkpt><trkpt lat="39.64420854500857" lon="9.003939867517422"><ele>280.0</ele><time>2026-04-25T08:09:39Z</time></trkpt><trkpt lat="39.64423717462645" lon="9.003857720145232"><ele>280.0</ele><time>2026-04-25T08:09:42Z</time></trkpt><trkpt lat="39.64413461235579" lon="9.003844614238423"><ele>280.0</ele><time>2026-04-25T08:09:44Z</time></trkpt><trkpt lat="39.64439544784734" lon="9.003634584028857"><ele>280.0</ele><time>2026-04-25T08:09:47Z</time></trkpt><trkpt lat="39.64446221970998" lon="9.003545283268787"><ele>280.0</ele><time>2026-04-25T08:09:50Z</time></trkpt><trkpt lat="39.64453328702557" lon="9.003444910400125"><ele>280.0</ele><time>2026-04-25T08:09:52Z</time></trkpt><trkpt lat="39.6445719238894" lon="9.003348739322735"><ele>280.0</ele><time>2026-04-25T08:09:53Z</time></trkpt><trkpt lat="39.6446151389916" lon="9.003258139508057"><ele>280.0</ele><time>2026-04-25T08:09:54Z</time></trkpt><trkpt lat="39.64465421399394" lon="9.003189080591742"><ele>280.0</ele><time>2026-04-25T08:09:55Z</time></trkpt><trkpt lat="39.64469929574133" lon="9.003114288651854"><ele>280.6</ele><time>2026-04-25T08:09:57Z</time></trkpt><trkpt lat="39.64476008182079" lon="9.002982834166216"><ele>281.2</ele><time>2026-04-25T08:09:59Z</time></trkpt><trkpt lat="39.644801049247285" lon="9.002870039410167"><ele>281.8</ele><time>2026-04-25T08:10:00Z</time></trkpt><trkpt lat="39.644845784650244" lon="9.002740069645622"><ele>282.4</ele><time>2026-04-25T08:10:01Z</time></trkpt><trkpt lat="39.64488861781473" lon="9.002622731020713"><ele>283.0</ele><time>2026-04-25T08:10:02Z</time></trkpt><trkpt lat="39.644929464407326" lon="9.002504174135757"><ele>283.16666666666663</ele><time>2026-04-25T08:10:03Z</time></trkpt><trkpt lat="39.64496934706906" lon="9.002387517582095"><ele>283.3333333333333</ele><time>2026-04-25T08:10:04Z</time></trkpt><trkpt lat="39.644994203396585" lon="9.002284466625074"><ele>283.5</ele><time>2026-04-25T08:10:05Z</time></trkpt><trkpt lat="39.645029260630125" lon="9.002187998708866"><ele>283.6666666666667</ele><time>2026-04-25T08:10:06Z</time></trkpt><trkpt lat="39.645058634938586" lon="9.002111971384979"><ele>283.83333333333337</ele><time>2026-04-25T08:10:07Z</time></trkpt><trkpt lat="39.64511414238111" lon="9.002025217238248"><ele>284.0</ele><time>2026-04-25T08:10:09Z</time></trkpt><trkpt lat="39.64497308970457" lon="9.00190527176918"><ele>284.0</ele><time>2026-04-25T08:10:11Z</time></trkpt><trkpt lat="39.64489886558793" lon="9.001875323640373"><ele>284.0</ele><time>2026-04-25T08:10:12Z</time></trkpt><trkpt lat="39.64481374949532" lon="9.001866314498042"><ele>284.0</ele><time>2026-04-25T08:10:13Z</time></trkpt><trkpt lat="39.64472752211503" lon="9.001841965327518"><ele>284.0</ele><time>2026-04-25T08:10:14Z</time></trkpt><trkpt lat="39.644638219026994" lon="9.001829088775663"><ele>284.0</ele><time>2026-04-25T08:10:15Z</time></trkpt><trkpt lat="39.64454709941711" lon="9.001815950295711"><ele>284.0</ele><time>2026-04-25T08:10:16Z</time></trkpt><trkpt lat="39.64445470573932" lon="9.001805681483791"><ele>284.0</ele><time>2026-04-25T08:10:17Z</time></trkpt><trkpt lat="39.64437289732887" lon="9.001801895655836"><ele>284.0</ele><time>2026-04-25T08:10:18Z</time></trkpt><trkpt lat="39.64429803327681" lon="9.001795297296674"><ele>284.0</ele><time>2026-04-25T08:10:19Z</time></trkpt><trkpt lat="39.64422718048515" lon="9.001772061958361"><ele>284.0</ele><time>2026-04-25T08:10:20Z</time></trkpt><trkpt lat="39.64415395984088" lon="9.001732517620459"><ele>284.0</ele><time>2026-04-25T08:10:21Z</time></trkpt><trkpt lat="39.64406805278897" lon="9.001698077130635"><ele>284.0</ele><time>2026-04-25T08:10:22Z</time></trkpt><trkpt lat="39.643983768402265" lon="9.001658123269348"><ele>284.1666666666667</ele><time>2026-04-25T08:10:23Z</time></trkpt><trkpt lat="39.64389858296832" lon="9.001616225582142"><ele>284.33333333333337</ele><time>2026-04-25T08:10:24Z</time></trkpt><trkpt lat="39.64381363026701" lon="9.001575106125529"><ele>284.5</ele><time>2026-04-25T08:10:25Z</time></trkpt><trkpt lat="39.64373513338334" lon="9.001546817405112"><ele>284.6666666666667</ele><time>2026-04-25T08:10:26Z</time></trkpt><trkpt lat="39.6436614737724" lon="9.001506373750447"><ele>284.8333333333333</ele><time>2026-04-25T08:10:27Z</time></trkpt><trkpt lat="39.64359457056632" lon="9.00149499347773"><ele>285.0</ele><time>2026-04-25T08:10:28Z</time></trkpt><trkpt lat="39.64352846411881" lon="9.00151564650138"><ele>284.1666666666667</ele><time>2026-04-25T08:10:29Z</time></trkpt><trkpt lat="39.64345947615957" lon="9.001508655886871"><ele>283.3333333333333</ele><time>2026-04-25T08:10:30Z</time></trkpt><trkpt lat="39.64338608534356" lon="9.001501612658341"><ele>282.5</ele><time>2026-04-25T08:10:31Z</time></trkpt><trkpt lat="39.64330930793679" lon="9.00148771201122"><ele>281.66666666666663</ele><time>2026-04-25T08:10:32Z</time></trkpt><trkpt lat="39.643231085436824" lon="9.001459980641124"><ele>280.8333333333333</ele><time>2026-04-25T08:10:33Z</time></trkpt><trkpt lat="39.6431543326445" lon="9.001418112531528"><ele>280.0</ele><time>2026-04-25T08:10:34Z</time></trkpt><trkpt lat="39.64307383703613" lon="9.001376987185024"><ele>280.0</ele><time>2026-04-25T08:10:35Z</time></trkpt><trkpt lat="39.64299101838337" lon="9.0013347309549"><ele>280.0</ele><time>2026-04-25T08:10:36Z</time></trkpt><trkpt lat="39.642904585574435" lon="9.001293423921622"><ele>280.0</ele><time>2026-04-25T08:10:37Z</time></trkpt><trkpt lat="39.642816901107516" lon="9.001247838963584"><ele>280.0</ele><time>2026-04-25T08:10:38Z</time></trkpt><trkpt lat="39.64272723656935" lon="9.001203618219545"><ele>280.0</ele><time>2026-04-25T08:10:39Z</time></trkpt><trkpt lat="39.642635739871125" lon="9.001160384615478"><ele>279.5</ele><time>2026-04-25T08:10:40Z</time></trkpt><trkpt lat="39.64254525213798" lon="9.001119707919367"><ele>279.0</ele><time>2026-04-25T08:10:41Z</time></trkpt><trkpt lat="39.642461695171406" lon="9.001078830294112"><ele>278.5</ele><time>2026-04-25T08:10:42Z</time></trkpt><trkpt lat="39.64239210101704" lon="9.001044647196265"><ele>278.0</ele><time>2026-04-25T08:10:43Z</time></trkpt><trkpt lat="39.6423309339555" lon="9.001017491375524"><ele>277.5</ele><time>2026-04-25T08:10:44Z</time></trkpt><trkpt lat="39.64226542185452" lon="9.000990563923402"><ele>277.0</ele><time>2026-04-25T08:10:46Z</time></trkpt><trkpt lat="39.64228020478141" lon="9.000866381912529"><ele>276.0</ele><time>2026-04-25T08:10:48Z</time></trkpt><trkpt lat="39.64236890234136" lon="9.000714137953935"><ele>275.0</ele><time>2026-04-25T08:10:50Z</time></trkpt><trkpt lat="39.64242611577401" lon="9.000611489267126"><ele>274.0</ele><time>2026-04-25T08:10:51Z</time></trkpt><trkpt lat="39.64248472191307" lon="9.000494219270168"><ele>273.0</ele><time>2026-04-25T08:10:52Z</time></trkpt><trkpt lat="39.6425488658168" lon="9.000362418046585"><ele>273.0</ele><time>2026-04-25T08:10:53Z</time></trkpt><trkpt lat="39.64261483008558" lon="9.000220244397822"><ele>273.0</ele><time>2026-04-25T08:10:54Z</time></trkpt><trkpt lat="39.64267636592695" lon="9.000064371102827"><ele>273.0</ele><time>2026-04-25T08:10:55Z</time></trkpt><trkpt lat="39.6427321710521" lon="8.999897724006276"><ele>273.0</ele><time>2026-04-25T08:10:56Z</time></trkpt><trkpt lat="39.642785652370215" lon="8.999715225113427"><ele>272.6666666666667</ele><time>2026-04-25T08:10:57Z</time></trkpt><trkpt lat="39.64284115730931" lon="8.999529719628283"><ele>272.33333333333337</ele><time>2026-04-25T08:10:58Z</time></trkpt><trkpt lat="39.64290187968973" lon="8.999346903677848"><ele>272.0</ele><time>2026-04-25T08:10:59Z</time></trkpt><trkpt lat="39.64296719482243" lon="8.999157609117999"><ele>270.33333333333337</ele><time>2026-04-25T08:11:00Z</time></trkpt><trkpt lat="39.64303527278583" lon="8.998960564664394"><ele>268.6666666666667</ele><time>2026-04-25T08:11:01Z</time></trkpt><trkpt lat="39.64310515723515" lon="8.998757107071427"><ele>267.0</ele><time>2026-04-25T08:11:02Z</time></trkpt><trkpt lat="39.64317950292292" lon="8.998552774622999"><ele>267.0</ele><time>2026-04-25T08:11:03Z</time></trkpt><trkpt lat="39.643262299673104" lon="8.998347741592385"><ele>267.0</ele><time>2026-04-25T08:11:04Z</time></trkpt><trkpt lat="39.64335345803796" lon="8.998145814166474"><ele>267.0</ele><time>2026-04-25T08:11:05Z</time></trkpt><trkpt lat="39.6434495187482" lon="8.99793833699013"><ele>267.0</ele><time>2026-04-25T08:11:06Z</time></trkpt><trkpt lat="39.64354722591281" lon="8.997730694740376"><ele>267.0</ele><time>2026-04-25T08:11:07Z</time></trkpt><trkpt lat="39.64364602806826" lon="8.997516466471211"><ele>267.0</ele><time>2026-04-25T08:11:08Z</time></trkpt><trkpt lat="39.643744276812534" lon="8.997301380134633"><ele>264.6666666666667</ele><time>2026-04-25T08:11:09Z</time></trkpt><trkpt lat="39.643838309252644" lon="8.997093861515028"><ele>262.33333333333337</ele><time>2026-04-25T08:11:10Z</time></trkpt><trkpt lat="39.64392357569229" lon="8.996893184710204"><ele>260.0</ele><time>2026-04-25T08:11:11Z</time></trkpt><trkpt lat="39.64398603391061" lon="8.996686670715176"><ele>258.33333333333337</ele><time>2026-04-25T08:11:12Z</time></trkpt><trkpt lat="39.64402207077623" lon="8.996455179546059"><ele>256.6666666666667</ele><time>2026-04-25T08:11:13Z</time></trkpt><trkpt lat="39.64404711722667" lon="8.996217992649685"><ele>255.0</ele><time>2026-04-25T08:11:14Z</time></trkpt><trkpt lat="39.6440815917561" lon="8.995985250234007"><ele>253.0</ele><time>2026-04-25T08:11:15Z</time></trkpt><trkpt lat="39.64412154251077" lon="8.995758939318879"><ele>251.0</ele><time>2026-04-25T08:11:16Z</time></trkpt><trkpt lat="39.644168452204006" lon="8.99553428745509"><ele>249.0</ele><time>2026-04-25T08:11:17Z</time></trkpt><trkpt lat="39.644226868819956" lon="8.995316841954613"><ele>249.0</ele><time>2026-04-25T08:11:18Z</time></trkpt><trkpt lat="39.64430468637216" lon="8.995102513298365"><ele>249.0</ele><time>2026-04-25T08:11:19Z</time></trkpt><trkpt lat="39.64438838037499" lon="8.994893471076336"><ele>249.0</ele><time>2026-04-25T08:11:20Z</time></trkpt><trkpt lat="39.64445451098659" lon="8.99466484319386"><ele>246.33333333333331</ele><time>2026-04-25T08:11:21Z</time></trkpt><trkpt lat="39.64449695340257" lon="8.994425030209682"><ele>243.66666666666666</ele><time>2026-04-25T08:11:22Z</time></trkpt><trkpt lat="39.644520410432676" lon="8.994181088901062"><ele>241.0</ele><time>2026-04-25T08:11:23Z</time></trkpt><trkpt lat="39.64453019824156" lon="8.993930697926078"><ele>237.33333333333331</ele><time>2026-04-25T08:11:24Z</time></trkpt><trkpt lat="39.64454279173877" lon="8.993685972459687"><ele>233.66666666666669</ele><time>2026-04-25T08:11:25Z</time></trkpt><trkpt lat="39.64454603486972" lon="8.993447940786604"><ele>230.0</ele><time>2026-04-25T08:11:26Z</time></trkpt><trkpt lat="39.64452659053555" lon="8.993217177754973"><ele>227.66666666666669</ele><time>2026-04-25T08:11:27Z</time></trkpt><trkpt lat="39.64448018802837" lon="8.993019382339105"><ele>225.33333333333331</ele><time>2026-04-25T08:11:28Z</time></trkpt><trkpt lat="39.644407861148686" lon="8.992850703318517"><ele>223.0</ele><time>2026-04-25T08:11:29Z</time></trkpt><trkpt lat="39.64429587250205" lon="8.992720236668509"><ele>224.25</ele><time>2026-04-25T08:11:30Z</time></trkpt><trkpt lat="39.64417484036524" lon="8.992627432180655"><ele>225.5</ele><time>2026-04-25T08:11:31Z</time></trkpt><trkpt lat="39.64407285692397" lon="8.992539040608463"><ele>226.75</ele><time>2026-04-25T08:11:32Z</time></trkpt><trkpt lat="39.644028777723705" lon="8.992409621075495"><ele>228.0</ele><time>2026-04-25T08:11:33Z</time></trkpt><trkpt lat="39.64401939811483" lon="8.99227168133702"><ele>228.0</ele><time>2026-04-25T08:11:34Z</time></trkpt><trkpt lat="39.64406507552579" lon="8.992125079114164"><ele>228.0</ele><time>2026-04-25T08:11:35Z</time></trkpt><trkpt lat="39.64415103743463" lon="8.991994372743928"><ele>228.0</ele><time>2026-04-25T08:11:36Z</time></trkpt><trkpt lat="39.644241090282776" lon="8.991838274913027"><ele>228.0</ele><time>2026-04-25T08:11:37Z</time></trkpt><trkpt lat="39.64432353415119" lon="8.99166738903149"><ele>229.0</ele><time>2026-04-25T08:11:38Z</time></trkpt><trkpt lat="39.64441573172344" lon="8.991501866301677"><ele>230.0</ele><time>2026-04-25T08:11:39Z</time></trkpt><trkpt lat="39.64449763181444" lon="8.99133623403394"><ele>231.0</ele><time>2026-04-25T08:11:40Z</time></trkpt><trkpt lat="39.6445791424066" lon="8.991170693458537"><ele>224.0</ele><time>2026-04-25T08:11:41Z</time></trkpt><trkpt lat="39.64464914709193" lon="8.99099636570909"><ele>217.0</ele><time>2026-04-25T08:11:42Z</time></trkpt><trkpt lat="39.64469970464904" lon="8.99080683665228"><ele>210.0</ele><time>2026-04-25T08:11:43Z</time></trkpt><trkpt lat="39.644741306910504" lon="8.990608618165869"><ele>209.33333333333331</ele><time>2026-04-25T08:11:44Z</time></trkpt><trkpt lat="39.644767584615806" lon="8.99040501154982"><ele>208.66666666666666</ele><time>2026-04-25T08:11:45Z</time></trkpt><trkpt lat="39.64477558336429" lon="8.990193146414905"><ele>208.0</ele><time>2026-04-25T08:11:46Z</time></trkpt><trkpt lat="39.64476372177169" lon="8.989975850845255"><ele>207.0</ele><time>2026-04-25T08:11:47Z</time></trkpt><trkpt lat="39.644733434868435" lon="8.989757957586175"><ele>206.0</ele><time>2026-04-25T08:11:48Z</time></trkpt><trkpt lat="39.64469116524039" lon="8.989552982651725"><ele>205.0</ele><time>2026-04-25T08:11:49Z</time></trkpt><trkpt lat="39.644635046121934" lon="8.989372334900573"><ele>205.0</ele><time>2026-04-25T08:11:50Z</time></trkpt><trkpt lat="39.644574187272724" lon="8.98921070629574"><ele>205.0</ele><time>2026-04-25T08:11:51Z</time></trkpt><trkpt lat="39.644516271812265" lon="8.98906295304261"><ele>205.0</ele><time>2026-04-25T08:11:52Z</time></trkpt><trkpt lat="39.64446908386728" lon="8.98893265698009"><ele>205.0</ele><time>2026-04-25T08:11:53Z</time></trkpt><trkpt lat="39.644423298279996" lon="8.988810808732028"><ele>205.33333333333331</ele><time>2026-04-25T08:11:54Z</time></trkpt><trkpt lat="39.64437829923466" lon="8.98869797271392"><ele>205.66666666666666</ele><time>2026-04-25T08:11:55Z</time></trkpt><trkpt lat="39.64434274631766" lon="8.988597021618489"><ele>206.0</ele><time>2026-04-25T08:11:56Z</time></trkpt><trkpt lat="39.644313883636286" lon="8.988496590365752"><ele>206.33333333333331</ele><time>2026-04-25T08:11:57Z</time></trkpt><trkpt lat="39.644294579510905" lon="8.988392169116077"><ele>206.66666666666666</ele><time>2026-04-25T08:11:58Z</time></trkpt><trkpt lat="39.6442916844988" lon="8.988279507208542"><ele>207.0</ele><time>2026-04-25T08:11:59Z</time></trkpt><trkpt lat="39.64429976768496" lon="8.988146275747173"><ele>207.0</ele><time>2026-04-25T08:12:00Z</time></trkpt><trkpt lat="39.64430966080315" lon="8.987988054495675"><ele>207.0</ele><time>2026-04-25T08:12:01Z</time></trkpt><trkpt lat="39.64433600154221" lon="8.987803133139419"><ele>207.0</ele><time>2026-04-25T08:12:02Z</time></trkpt><trkpt lat="39.644352237317236" lon="8.987598613578397"><ele>207.0</ele><time>2026-04-25T08:12:03Z</time></trkpt><trkpt lat="39.64435243760944" lon="8.987388755478992"><ele>205.33333333333331</ele><time>2026-04-25T08:12:04Z</time></trkpt><trkpt lat="39.64437423589248" lon="8.987180172970442"><ele>203.66666666666666</ele><time>2026-04-25T08:12:05Z</time></trkpt><trkpt lat="39.64439126700945" lon="8.986980788115744"><ele>202.0</ele><time>2026-04-25T08:12:06Z</time></trkpt><trkpt lat="39.644407123769476" lon="8.986791850208558"><ele>201.25</ele><time>2026-04-25T08:12:07Z</time></trkpt><trkpt lat="39.64441924829741" lon="8.986612069517316"><ele>200.5</ele><time>2026-04-25T08:12:08Z</time></trkpt><trkpt lat="39.644423615361646" lon="8.986433435096785"><ele>199.75</ele><time>2026-04-25T08:12:09Z</time></trkpt><trkpt lat="39.644418693771236" lon="8.986259248723721"><ele>199.0</ele><time>2026-04-25T08:12:10Z</time></trkpt><trkpt lat="39.644400094806876" lon="8.986085322720873"><ele>199.0</ele><time>2026-04-25T08:12:11Z</time></trkpt><trkpt lat="39.64436977889942" lon="8.98591292724426"><ele>199.0</ele><time>2026-04-25T08:12:12Z</time></trkpt><trkpt lat="39.644335938997145" lon="8.985733967237838"><ele>199.0</ele><time>2026-04-25T08:12:13Z</time></trkpt><trkpt lat="39.64430053483728" lon="8.985554081859755"><ele>199.0</ele><time>2026-04-25T08:12:14Z</time></trkpt><trkpt lat="39.644268701009466" lon="8.985374790689942"><ele>197.25</ele><time>2026-04-25T08:12:15Z</time></trkpt><trkpt lat="39.64424249845016" lon="8.985210442290809"><ele>195.5</ele><time>2026-04-25T08:12:16Z</time></trkpt><trkpt lat="39.64421137431779" lon="8.985057789779022"><ele>193.75</ele><time>2026-04-25T08:12:17Z</time></trkpt><trkpt lat="39.6441685552526" lon="8.984918037476952"><ele>192.0</ele><time>2026-04-25T08:12:18Z</time></trkpt><trkpt lat="39.644123100442336" lon="8.984802164827757"><ele>189.5</ele><time>2026-04-25T08:12:19Z</time></trkpt><trkpt lat="39.64407408901431" lon="8.98469757383121"><ele>187.0</ele><time>2026-04-25T08:12:20Z</time></trkpt><trkpt lat="39.643984899202074" lon="8.984554526428195"><ele>184.5</ele><time>2026-04-25T08:12:21Z</time></trkpt><trkpt lat="39.64391095871693" lon="8.984446520342107"><ele>182.0</ele><time>2026-04-25T08:12:22Z</time></trkpt><trkpt lat="39.643821531633144" lon="8.984354423894985"><ele>182.0</ele><time>2026-04-25T08:12:23Z</time></trkpt><trkpt lat="39.64375561592385" lon="8.984232560034464"><ele>182.0</ele><time>2026-04-25T08:12:24Z</time></trkpt><trkpt lat="39.643676941291844" lon="8.984124398362905"><ele>182.0</ele><time>2026-04-25T08:12:25Z</time></trkpt><trkpt lat="39.64360710544484" lon="8.984030805332083"><ele>182.0</ele><time>2026-04-25T08:12:26Z</time></trkpt><trkpt lat="39.643533811118175" lon="8.983962598851464"><ele>182.0</ele><time>2026-04-25T08:12:27Z</time></trkpt><trkpt lat="39.64349428495433" lon="8.98387577862009"><ele>181.33333333333331</ele><time>2026-04-25T08:12:28Z</time></trkpt><trkpt lat="39.64343987702406" lon="8.983813719287916"><ele>180.66666666666666</ele><time>2026-04-25T08:12:29Z</time></trkpt><trkpt lat="39.64342297094" lon="8.983726304449526"><ele>180.0</ele><time>2026-04-25T08:12:30Z</time></trkpt><trkpt lat="39.64343463742469" lon="8.983630855893026"><ele>179.33333333333334</ele><time>2026-04-25T08:12:31Z</time></trkpt><trkpt lat="39.643477580038" lon="8.983545095867958"><ele>178.66666666666669</ele><time>2026-04-25T08:12:32Z</time></trkpt><trkpt lat="39.64356214597417" lon="8.983474701882647"><ele>178.0</ele><time>2026-04-25T08:12:33Z</time></trkpt><trkpt lat="39.64367205292281" lon="8.983423938508539"><ele>176.0</ele><time>2026-04-25T08:12:34Z</time></trkpt><trkpt lat="39.64378750218918" lon="8.983372669566599"><ele>174.0</ele><time>2026-04-25T08:12:35Z</time></trkpt><trkpt lat="39.64390886887606" lon="8.983306658069852"><ele>172.0</ele><time>2026-04-25T08:12:36Z</time></trkpt><trkpt lat="39.64403828274411" lon="8.983230286606844"><ele>170.0</ele><time>2026-04-25T08:12:37Z</time></trkpt><trkpt lat="39.64417734682895" lon="8.983155178177785"><ele>169.0</ele><time>2026-04-25T08:12:38Z</time></trkpt><trkpt lat="39.644321391701745" lon="8.983082708270212"><ele>168.0</ele><time>2026-04-25T08:12:39Z</time></trkpt><trkpt lat="39.644471214034425" lon="8.983004341300035"><ele>167.0</ele><time>2026-04-25T08:12:40Z</time></trkpt><trkpt lat="39.644616702813494" lon="8.982923678492"><ele>167.0</ele><time>2026-04-25T08:12:41Z</time></trkpt><trkpt lat="39.64475206904772" lon="8.982845579598196"><ele>167.0</ele><time>2026-04-25T08:12:42Z</time></trkpt><trkpt lat="39.64488906084885" lon="8.982771643913646"><ele>167.0</ele><time>2026-04-25T08:12:43Z</time></trkpt><trkpt lat="39.645031096200384" lon="8.982702470170604"><ele>167.0</ele><time>2026-04-25T08:12:44Z</time></trkpt><trkpt lat="39.645176315459615" lon="8.982647886544367"><ele>169.33333333333331</ele><time>2026-04-25T08:12:45Z</time></trkpt><trkpt lat="39.64532983879274" lon="8.982609530246114"><ele>171.66666666666666</ele><time>2026-04-25T08:12:46Z</time></trkpt><trkpt lat="39.64549360797344" lon="8.982595862393598"><ele>174.0</ele><time>2026-04-25T08:12:47Z</time></trkpt><trkpt lat="39.64568056921193" lon="8.982590177141146"><ele>174.0</ele><time>2026-04-25T08:12:48Z</time></trkpt><trkpt lat="39.645889745529935" lon="8.98257885168967"><ele>174.0</ele><time>2026-04-25T08:12:49Z</time></trkpt><trkpt lat="39.646107251623704" lon="8.982578965059995"><ele>174.0</ele><time>2026-04-25T08:12:50Z</time></trkpt><trkpt lat="39.64631162057067" lon="8.982587235089012"><ele>172.33333333333334</ele><time>2026-04-25T08:12:51Z</time></trkpt><trkpt lat="39.64650860462888" lon="8.982592030341726"><ele>170.66666666666669</ele><time>2026-04-25T08:12:52Z</time></trkpt><trkpt lat="39.646699215871756" lon="8.982591995523599"><ele>169.0</ele><time>2026-04-25T08:12:53Z</time></trkpt><trkpt lat="39.64688397039172" lon="8.982601654983956"><ele>166.0</ele><time>2026-04-25T08:12:54Z</time></trkpt><trkpt lat="39.64706104029843" lon="8.98263872539931"><ele>163.0</ele><time>2026-04-25T08:12:55Z</time></trkpt><trkpt lat="39.647221930855494" lon="8.98270006651582"><ele>160.0</ele><time>2026-04-25T08:12:56Z</time></trkpt><trkpt lat="39.64736648882591" lon="8.982758025589469"><ele>160.0</ele><time>2026-04-25T08:12:57Z</time></trkpt><trkpt lat="39.6475010261742" lon="8.982792561426242"><ele>160.0</ele><time>2026-04-25T08:12:58Z</time></trkpt><trkpt lat="39.64762174642622" lon="8.982794986588381"><ele>160.0</ele><time>2026-04-25T08:12:59Z</time></trkpt><trkpt lat="39.647723420646216" lon="8.982742404699929"><ele>160.0</ele><time>2026-04-25T08:13:00Z</time></trkpt><trkpt lat="39.64778875367583" lon="8.982640271471098"><ele>158.75</ele><time>2026-04-25T08:13:01Z</time></trkpt><trkpt lat="39.64780966310798" lon="8.982508408345689"><ele>157.5</ele><time>2026-04-25T08:13:02Z</time></trkpt><trkpt lat="39.64777713064754" lon="8.982344838605552"><ele>156.25</ele><time>2026-04-25T08:13:03Z</time></trkpt><trkpt lat="39.647709691015926" lon="8.982175093238705"><ele>155.0</ele><time>2026-04-25T08:13:04Z</time></trkpt><trkpt lat="39.64763978200408" lon="8.982007967036047"><ele>153.0</ele><time>2026-04-25T08:13:05Z</time></trkpt><trkpt lat="39.647586753075956" lon="8.981809649351522"><ele>151.0</ele><time>2026-04-25T08:13:06Z</time></trkpt><trkpt lat="39.64751823121071" lon="8.981610081813516"><ele>149.0</ele><time>2026-04-25T08:13:07Z</time></trkpt><trkpt lat="39.64743375298029" lon="8.981412345011277"><ele>147.33333333333331</ele><time>2026-04-25T08:13:08Z</time></trkpt><trkpt lat="39.64736259458546" lon="8.981207627286675"><ele>145.66666666666666</ele><time>2026-04-25T08:13:09Z</time></trkpt><trkpt lat="39.64729331835218" lon="8.981005076635132"><ele>144.0</ele><time>2026-04-25T08:13:10Z</time></trkpt><trkpt lat="39.647233327249914" lon="8.980799035175599"><ele>142.66666666666666</ele><time>2026-04-25T08:13:11Z</time></trkpt><trkpt lat="39.647197933709585" lon="8.980580849251123"><ele>141.33333333333331</ele><time>2026-04-25T08:13:12Z</time></trkpt><trkpt lat="39.64718596429847" lon="8.980337095454956"><ele>140.0</ele><time>2026-04-25T08:13:13Z</time></trkpt><trkpt lat="39.64718134062685" lon="8.980085646815125"><ele>137.66666666666666</ele><time>2026-04-25T08:13:14Z</time></trkpt><trkpt lat="39.6471774199053" lon="8.979815309643405"><ele>135.33333333333334</ele><time>2026-04-25T08:13:15Z</time></trkpt><trkpt lat="39.64717636741545" lon="8.97953566876575"><ele>133.0</ele><time>2026-04-25T08:13:16Z</time></trkpt><trkpt lat="39.64717614081008" lon="8.979258549052973"><ele>131.33333333333334</ele><time>2026-04-25T08:13:17Z</time></trkpt><trkpt lat="39.64717287722882" lon="8.978981486867553"><ele>129.66666666666666</ele><time>2026-04-25T08:13:18Z</time></trkpt><trkpt lat="39.64716423350463" lon="8.978711186919803"><ele>128.0</ele><time>2026-04-25T08:13:19Z</time></trkpt><trkpt lat="39.64715604664515" lon="8.978445549320123"><ele>127.66666666666666</ele><time>2026-04-25T08:13:20Z</time></trkpt><trkpt lat="39.64715364711816" lon="8.978184661206916"><ele>127.33333333333334</ele><time>2026-04-25T08:13:21Z</time></trkpt><trkpt lat="39.64716836754144" lon="8.9779361188003"><ele>127.0</ele><time>2026-04-25T08:13:22Z</time></trkpt><trkpt lat="39.64721357455571" lon="8.977694088680405"><ele>126.66666666666667</ele><time>2026-04-25T08:13:23Z</time></trkpt><trkpt lat="39.64728299536954" lon="8.977462075956705"><ele>126.33333333333334</ele><time>2026-04-25T08:13:24Z</time></trkpt><trkpt lat="39.64735742753858" lon="8.977227423801729"><ele>126.0</ele><time>2026-04-25T08:13:25Z</time></trkpt><trkpt lat="39.64742958026721" lon="8.976988990330371"><ele>126.0</ele><time>2026-04-25T08:13:26Z</time></trkpt><trkpt lat="39.647503724052235" lon="8.97675243782129"><ele>126.0</ele><time>2026-04-25T08:13:27Z</time></trkpt><trkpt lat="39.64757482407126" lon="8.976525268910672"><ele>126.0</ele><time>2026-04-25T08:13:28Z</time></trkpt><trkpt lat="39.647646654595064" lon="8.976298194392092"><ele>126.66666666666666</ele><time>2026-04-25T08:13:29Z</time></trkpt><trkpt lat="39.64771861239288" lon="8.976072601228283"><ele>127.33333333333333</ele><time>2026-04-25T08:13:30Z</time></trkpt><trkpt lat="39.64779099766308" lon="8.975845609589708"><ele>128.0</ele><time>2026-04-25T08:13:31Z</time></trkpt><trkpt lat="39.64786030358676" lon="8.975611872338414"><ele>130.33333333333331</ele><time>2026-04-25T08:13:32Z</time></trkpt><trkpt lat="39.6479215529564" lon="8.975373693995751"><ele>132.66666666666666</ele><time>2026-04-25T08:13:33Z</time></trkpt><trkpt lat="39.64797302057956" lon="8.975141956925086"><ele>135.0</ele><time>2026-04-25T08:13:34Z</time></trkpt><trkpt lat="39.64801979158404" lon="8.974921672755913"><ele>135.66666666666666</ele><time>2026-04-25T08:13:35Z</time></trkpt><trkpt lat="39.648066155876485" lon="8.974711705004557"><ele>136.33333333333331</ele><time>2026-04-25T08:13:36Z</time></trkpt><trkpt lat="39.64811562918894" lon="8.974509183015332"><ele>137.0</ele><time>2026-04-25T08:13:37Z</time></trkpt><trkpt lat="39.648162886203096" lon="8.974310812889833"><ele>137.25</ele><time>2026-04-25T08:13:38Z</time></trkpt><trkpt lat="39.64820544164178" lon="8.974122948200163"><ele>137.5</ele><time>2026-04-25T08:13:39Z</time></trkpt><trkpt lat="39.64824468458941" lon="8.973949472715212"><ele>137.75</ele><time>2026-04-25T08:13:40Z</time></trkpt><trkpt lat="39.64828249028683" lon="8.973794354914578"><ele>138.0</ele><time>2026-04-25T08:13:41Z</time></trkpt><trkpt lat="39.648326400399064" lon="8.973651431041155"><ele>138.0</ele><time>2026-04-25T08:13:42Z</time></trkpt><trkpt lat="39.648378969256534" lon="8.97352784507718"><ele>138.0</ele><time>2026-04-25T08:13:43Z</time></trkpt><trkpt lat="39.64841539778903" lon="8.97342835069572"><ele>138.0</ele><time>2026-04-25T08:13:44Z</time></trkpt><trkpt lat="39.64851287331084" lon="8.973390509496781"><ele>138.0</ele><time>2026-04-25T08:13:45Z</time></trkpt><trkpt lat="39.648588708207235" lon="8.973376401230235"><ele>138.0</ele><time>2026-04-25T08:13:46Z</time></trkpt><trkpt lat="39.64867483116766" lon="8.973397089189003"><ele>138.5</ele><time>2026-04-25T08:13:47Z</time></trkpt><trkpt lat="39.64876529597666" lon="8.973429869291312"><ele>139.0</ele><time>2026-04-25T08:13:48Z</time></trkpt><trkpt lat="39.6488613210832" lon="8.973461477418619"><ele>139.5</ele><time>2026-04-25T08:13:49Z</time></trkpt><trkpt lat="39.648935099487666" lon="8.973478620127848"><ele>140.0</ele><time>2026-04-25T08:13:50Z</time></trkpt><trkpt lat="39.64902698046832" lon="8.973499374837601"><ele>140.5</ele><time>2026-04-25T08:13:52Z</time></trkpt><trkpt lat="39.64910432306012" lon="8.973520844872617"><ele>141.0</ele><time>2026-04-25T08:13:54Z</time></trkpt><trkpt lat="39.64920098564048" lon="8.973540565176688"><ele>141.0</ele><time>2026-04-25T08:13:56Z</time></trkpt><trkpt lat="39.649333071143516" lon="8.973569320650332"><ele>141.0</ele><time>2026-04-25T08:13:58Z</time></trkpt><trkpt lat="39.6494010162539" lon="8.973584016625493"><ele>141.0</ele><time>2026-04-25T08:13:59Z</time></trkpt><trkpt lat="39.649466776242626" lon="8.973592466251976"><ele>141.0</ele><time>2026-04-25T08:14:00Z</time></trkpt><trkpt lat="39.64954703928942" lon="8.973597445442449"><ele>141.0</ele><time>2026-04-25T08:14:01Z</time></trkpt><trkpt lat="39.64963145893168" lon="8.973599692187436"><ele>141.0</ele><time>2026-04-25T08:14:02Z</time></trkpt><trkpt lat="39.64973171833639" lon="8.973600497451747"><ele>141.75</ele><time>2026-04-25T08:14:03Z</time></trkpt><trkpt lat="39.64985230880255" lon="8.97359407561733"><ele>142.5</ele><time>2026-04-25T08:14:04Z</time></trkpt><trkpt lat="39.6499714148734" lon="8.973583092481798"><ele>143.25</ele><time>2026-04-25T08:14:05Z</time></trkpt><trkpt lat="39.65009794429776" lon="8.973570145252031"><ele>144.0</ele><time>2026-04-25T08:14:06Z</time></trkpt><trkpt lat="39.65022619008488" lon="8.97355213446654"><ele>144.5</ele><time>2026-04-25T08:14:07Z</time></trkpt><trkpt lat="39.650360454127956" lon="8.973532272537046"><ele>145.0</ele><time>2026-04-25T08:14:08Z</time></trkpt><trkpt lat="39.650500489060036" lon="8.973503613638472"><ele>145.5</ele><time>2026-04-25T08:14:09Z</time></trkpt><trkpt lat="39.65064510232915" lon="8.97346745247966"><ele>146.0</ele><time>2026-04-25T08:14:10Z</time></trkpt><trkpt lat="39.65079247751138" lon="8.973427608877993"><ele>146.0</ele><time>2026-04-25T08:14:11Z</time></trkpt><trkpt lat="39.65094176459725" lon="8.973386959809883"><ele>146.0</ele><time>2026-04-25T08:14:12Z</time></trkpt><trkpt lat="39.65109552907027" lon="8.973344281752217"><ele>146.0</ele><time>2026-04-25T08:14:13Z</time></trkpt><trkpt lat="39.65125131414064" lon="8.973300496016073"><ele>143.0</ele><time>2026-04-25T08:14:14Z</time></trkpt><trkpt lat="39.651412439560914" lon="8.973255598726052"><ele>140.0</ele><time>2026-04-25T08:14:15Z</time></trkpt><trkpt lat="39.651578021707834" lon="8.97320855341642"><ele>137.0</ele><time>2026-04-25T08:14:16Z</time></trkpt><trkpt lat="39.651743645045194" lon="8.973161636211206"><ele>137.0</ele><time>2026-04-25T08:14:17Z</time></trkpt><trkpt lat="39.65190520339262" lon="8.973116010475714"><ele>137.0</ele><time>2026-04-25T08:14:18Z</time></trkpt><trkpt lat="39.65206864470028" lon="8.973072338687809"><ele>137.0</ele><time>2026-04-25T08:14:19Z</time></trkpt><trkpt lat="39.65223532705881" lon="8.973031438958284"><ele>136.33333333333331</ele><time>2026-04-25T08:14:20Z</time></trkpt><trkpt lat="39.6524022160332" lon="8.97299202235329"><ele>135.66666666666666</ele><time>2026-04-25T08:14:21Z</time></trkpt><trkpt lat="39.65257279963799" lon="8.972947087304046"><ele>135.0</ele><time>2026-04-25T08:14:22Z</time></trkpt><trkpt lat="39.65274476791103" lon="8.972901696685131"><ele>134.0</ele><time>2026-04-25T08:14:23Z</time></trkpt><trkpt lat="39.65291796548892" lon="8.972857304541545"><ele>133.0</ele><time>2026-04-25T08:14:24Z</time></trkpt><trkpt lat="39.653091834661566" lon="8.972811457653862"><ele>132.0</ele><time>2026-04-25T08:14:25Z</time></trkpt><trkpt lat="39.65326783519588" lon="8.972762868924491"><ele>132.0</ele><time>2026-04-25T08:14:26Z</time></trkpt><trkpt lat="39.653445543785935" lon="8.972718355743964"><ele>132.0</ele><time>2026-04-25T08:14:27Z</time></trkpt><trkpt lat="39.65362235924486" lon="8.972675854093314"><ele>132.0</ele><time>2026-04-25T08:14:28Z</time></trkpt><trkpt lat="39.65380025707263" lon="8.972629792375795"><ele>133.0</ele><time>2026-04-25T08:14:29Z</time></trkpt><trkpt lat="39.65397952842733" lon="8.972580899707175"><ele>134.0</ele><time>2026-04-25T08:14:30Z</time></trkpt><trkpt lat="39.654157651654494" lon="8.972534190447277"><ele>135.0</ele><time>2026-04-25T08:14:31Z</time></trkpt><trkpt lat="39.65433879112007" lon="8.97248740831644"><ele>137.66666666666666</ele><time>2026-04-25T08:14:32Z</time></trkpt><trkpt lat="39.65452132836711" lon="8.972441782500994"><ele>140.33333333333331</ele><time>2026-04-25T08:14:33Z</time></trkpt><trkpt lat="39.654706951203046" lon="8.972397156284933"><ele>143.0</ele><time>2026-04-25T08:14:34Z</time></trkpt><trkpt lat="39.65489442359766" lon="8.972349540320888"><ele>143.0</ele><time>2026-04-25T08:14:35Z</time></trkpt><trkpt lat="39.65508184201171" lon="8.972298920444185"><ele>143.0</ele><time>2026-04-25T08:14:36Z</time></trkpt><trkpt lat="39.655272103807505" lon="8.972242872375704"><ele>143.0</ele><time>2026-04-25T08:14:37Z</time></trkpt><trkpt lat="39.65545958822445" lon="8.972185186775468"><ele>141.0</ele><time>2026-04-25T08:14:38Z</time></trkpt><trkpt lat="39.65564939425514" lon="8.972128843756591"><ele>139.0</ele><time>2026-04-25T08:14:39Z</time></trkpt><trkpt lat="39.65584065697156" lon="8.972073982340715"><ele>137.0</ele><time>2026-04-25T08:14:40Z</time></trkpt><trkpt lat="39.656029548358724" lon="8.972020225042893"><ele>136.0</ele><time>2026-04-25T08:14:41Z</time></trkpt><trkpt lat="39.656220730416095" lon="8.971967351481698"><ele>135.0</ele><time>2026-04-25T08:14:42Z</time></trkpt><trkpt lat="39.65641221351086" lon="8.971913547994728"><ele>134.0</ele><time>2026-04-25T08:14:43Z</time></trkpt><trkpt lat="39.65660810085843" lon="8.971860167859106"><ele>134.0</ele><time>2026-04-25T08:14:44Z</time></trkpt><trkpt lat="39.65680504633203" lon="8.97181377624795"><ele>134.0</ele><time>2026-04-25T08:14:45Z</time></trkpt><trkpt lat="39.657003386223415" lon="8.971775654249944"><ele>134.0</ele><time>2026-04-25T08:14:46Z</time></trkpt><trkpt lat="39.65720591275486" lon="8.971759877092733"><ele>134.0</ele><time>2026-04-25T08:14:47Z</time></trkpt><trkpt lat="39.657410848154605" lon="8.971766264291556"><ele>134.0</ele><time>2026-04-25T08:14:48Z</time></trkpt><trkpt lat="39.65761869471352" lon="8.971798795701378"><ele>134.0</ele><time>2026-04-25T08:14:49Z</time></trkpt><trkpt lat="39.657830124785846" lon="8.971846895671375"><ele>136.33333333333331</ele><time>2026-04-25T08:14:50Z</time></trkpt><trkpt lat="39.6580362768676" lon="8.971915035357108"><ele>138.66666666666666</ele><time>2026-04-25T08:14:51Z</time></trkpt><trkpt lat="39.658247853383166" lon="8.972012000818507"><ele>141.0</ele><time>2026-04-25T08:14:52Z</time></trkpt><trkpt lat="39.65844184153049" lon="8.97215664547728"><ele>141.0</ele><time>2026-04-25T08:14:53Z</time></trkpt><trkpt lat="39.65861027967012" lon="8.972342195890088"><ele>141.0</ele><time>2026-04-25T08:14:54Z</time></trkpt><trkpt lat="39.65876704693452" lon="8.972541983831972"><ele>141.0</ele><time>2026-04-25T08:14:55Z</time></trkpt><trkpt lat="39.65892139437465" lon="8.972735841573716"><ele>142.0</ele><time>2026-04-25T08:14:56Z</time></trkpt><trkpt lat="39.659072013827355" lon="8.972925325011174"><ele>143.0</ele><time>2026-04-25T08:14:57Z</time></trkpt><trkpt lat="39.65920952560504" lon="8.973127768608329"><ele>144.0</ele><time>2026-04-25T08:14:58Z</time></trkpt><trkpt lat="39.65934076229252" lon="8.9733350163159"><ele>148.66666666666666</ele><time>2026-04-25T08:14:59Z</time></trkpt><trkpt lat="39.65947138043536" lon="8.973538937559919"><ele>153.33333333333331</ele><time>2026-04-25T08:15:00Z</time></trkpt><trkpt lat="39.65959173740066" lon="8.973752227813053"><ele>158.0</ele><time>2026-04-25T08:15:01Z</time></trkpt><trkpt lat="39.65969396087128" lon="8.973982383267053"><ele>155.0</ele><time>2026-04-25T08:15:02Z</time></trkpt><trkpt lat="39.65977753003696" lon="8.974224007323404"><ele>152.0</ele><time>2026-04-25T08:15:03Z</time></trkpt><trkpt lat="39.6598489615465" lon="8.97447362783112"><ele>149.0</ele><time>2026-04-25T08:15:04Z</time></trkpt><trkpt lat="39.65991259681813" lon="8.974726958761304"><ele>149.0</ele><time>2026-04-25T08:15:05Z</time></trkpt><trkpt lat="39.659970082934905" lon="8.974978554199842"><ele>149.0</ele><time>2026-04-25T08:15:06Z</time></trkpt><trkpt lat="39.660021947857224" lon="8.975236408581525"><ele>149.0</ele><time>2026-04-25T08:15:07Z</time></trkpt><trkpt lat="39.66006998551603" lon="8.975494054926989"><ele>147.0</ele><time>2026-04-25T08:15:08Z</time></trkpt><trkpt lat="39.66011898257617" lon="8.975753659262663"><ele>145.0</ele><time>2026-04-25T08:15:09Z</time></trkpt><trkpt lat="39.66016854985932" lon="8.976016137294229"><ele>143.0</ele><time>2026-04-25T08:15:10Z</time></trkpt><trkpt lat="39.66021717028751" lon="8.97627931049506"><ele>143.0</ele><time>2026-04-25T08:15:11Z</time></trkpt><trkpt lat="39.66026644460919" lon="8.976544912695491"><ele>143.0</ele><time>2026-04-25T08:15:12Z</time></trkpt><trkpt lat="39.66031544562093" lon="8.976812649701575"><ele>143.0</ele><time>2026-04-25T08:15:13Z</time></trkpt><trkpt lat="39.66036322296784" lon="8.977080171914979"><ele>146.0</ele><time>2026-04-25T08:15:14Z</time></trkpt><trkpt lat="39.66041291897583" lon="8.977350730555168"><ele>149.0</ele><time>2026-04-25T08:15:15Z</time></trkpt><trkpt lat="39.66046505488008" lon="8.97761861156659"><ele>152.0</ele><time>2026-04-25T08:15:16Z</time></trkpt><trkpt lat="39.66051759278165" lon="8.977885327117251"><ele>152.0</ele><time>2026-04-25T08:15:17Z</time></trkpt><trkpt lat="39.660569379244805" lon="8.978150769868108"><ele>152.0</ele><time>2026-04-25T08:15:18Z</time></trkpt><trkpt lat="39.66062162207992" lon="8.97841629354952"><ele>152.0</ele><time>2026-04-25T08:15:19Z</time></trkpt><trkpt lat="39.66067187480999" lon="8.978679691831372"><ele>152.0</ele><time>2026-04-25T08:15:20Z</time></trkpt><trkpt lat="39.660719112256" lon="8.978936139228281"><ele>152.0</ele><time>2026-04-25T08:15:21Z</time></trkpt><trkpt lat="39.66076371425162" lon="8.979184286078322"><ele>152.0</ele><time>2026-04-25T08:15:22Z</time></trkpt><trkpt lat="39.66080584457642" lon="8.979416275883914"><ele>152.0</ele><time>2026-04-25T08:15:23Z</time></trkpt><trkpt lat="39.66084547025939" lon="8.979633277286776"><ele>152.0</ele><time>2026-04-25T08:15:24Z</time></trkpt><trkpt lat="39.660890622135156" lon="8.979835085031795"><ele>152.0</ele><time>2026-04-25T08:15:25Z</time></trkpt><trkpt lat="39.660944069246575" lon="8.980017607764047"><ele>150.0</ele><time>2026-04-25T08:15:26Z</time></trkpt><trkpt lat="39.66100761208481" lon="8.98018076528511"><ele>148.0</ele><time>2026-04-25T08:15:27Z</time></trkpt><trkpt lat="39.661089719077815" lon="8.980338387522252"><ele>146.0</ele><time>2026-04-25T08:15:28Z</time></trkpt><trkpt lat="39.66120127851465" lon="8.98051458882467"><ele>146.0</ele><time>2026-04-25T08:15:29Z</time></trkpt><trkpt lat="39.66132516077171" lon="8.980684687141506"><ele>146.0</ele><time>2026-04-25T08:15:30Z</time></trkpt><trkpt lat="39.661461379002674" lon="8.980828453029808"><ele>146.0</ele><time>2026-04-25T08:15:31Z</time></trkpt><trkpt lat="39.66161382858667" lon="8.980930278059569"><ele>144.0</ele><time>2026-04-25T08:15:32Z</time></trkpt><trkpt lat="39.66177771864394" lon="8.98099818120791"><ele>142.0</ele><time>2026-04-25T08:15:33Z</time></trkpt><trkpt lat="39.66195214025183" lon="8.981029421660448"><ele>140.0</ele><time>2026-04-25T08:15:34Z</time></trkpt><trkpt lat="39.66213519025174" lon="8.981025218680259"><ele>140.0</ele><time>2026-04-25T08:15:35Z</time></trkpt><trkpt lat="39.66232052989732" lon="8.980996737935609"><ele>140.0</ele><time>2026-04-25T08:15:36Z</time></trkpt><trkpt lat="39.66250965052474" lon="8.980951855504003"><ele>140.0</ele><time>2026-04-25T08:15:37Z</time></trkpt><trkpt lat="39.66269763223808" lon="8.980894649184073"><ele>141.66666666666666</ele><time>2026-04-25T08:15:38Z</time></trkpt><trkpt lat="39.662886249737205" lon="8.980817054922252"><ele>143.33333333333334</ele><time>2026-04-25T08:15:39Z</time></trkpt><trkpt lat="39.66307304821586" lon="8.980727845972561"><ele>145.0</ele><time>2026-04-25T08:15:40Z</time></trkpt><trkpt lat="39.663260116633744" lon="8.980634820473899"><ele>145.0</ele><time>2026-04-25T08:15:41Z</time></trkpt><trkpt lat="39.66344515360492" lon="8.980546010432738"><ele>145.0</ele><time>2026-04-25T08:15:42Z</time></trkpt><trkpt lat="39.66362970787725" lon="8.980456210599836"><ele>145.0</ele><time>2026-04-25T08:15:43Z</time></trkpt><trkpt lat="39.66381640048624" lon="8.980374571163225"><ele>143.66666666666669</ele><time>2026-04-25T08:15:44Z</time></trkpt><trkpt lat="39.66400609109187" lon="8.980303404290659"><ele>142.33333333333334</ele><time>2026-04-25T08:15:45Z</time></trkpt><trkpt lat="39.664198633493655" lon="8.980234909594737"><ele>141.0</ele><time>2026-04-25T08:15:46Z</time></trkpt><trkpt lat="39.664390662457535" lon="8.98016944951819"><ele>140.33333333333334</ele><time>2026-04-25T08:15:47Z</time></trkpt><trkpt lat="39.66458499705706" lon="8.980114564509126"><ele>139.66666666666669</ele><time>2026-04-25T08:15:48Z</time></trkpt><trkpt lat="39.664780345714036" lon="8.980076185281078"><ele>139.0</ele><time>2026-04-25T08:15:49Z</time></trkpt><trkpt lat="39.6649746262302" lon="8.980048709602054"><ele>139.0</ele><time>2026-04-25T08:15:50Z</time></trkpt><trkpt lat="39.665161592993655" lon="8.980026564892341"><ele>139.0</ele><time>2026-04-25T08:15:51Z</time></trkpt><trkpt lat="39.665340259867776" lon="8.980008434090498"><ele>139.0</ele><time>2026-04-25T08:15:52Z</time></trkpt><trkpt lat="39.66550947342357" lon="8.979995265314303"><ele>141.33333333333334</ele><time>2026-04-25T08:15:53Z</time></trkpt><trkpt lat="39.66567339863708" lon="8.97998416167365"><ele>143.66666666666666</ele><time>2026-04-25T08:15:54Z</time></trkpt><trkpt lat="39.665831674086455" lon="8.979976759176344"><ele>146.0</ele><time>2026-04-25T08:15:55Z</time></trkpt><trkpt lat="39.66598847148621" lon="8.979972864344404"><ele>144.66666666666666</ele><time>2026-04-25T08:15:56Z</time></trkpt><trkpt lat="39.66614952451885" lon="8.979968106894274"><ele>143.33333333333334</ele><time>2026-04-25T08:15:57Z</time></trkpt><trkpt lat="39.66631493818513" lon="8.979963397848133"><ele>142.0</ele><time>2026-04-25T08:15:58Z</time></trkpt><trkpt lat="39.666486603782396" lon="8.979957389280228"><ele>142.0</ele><time>2026-04-25T08:15:59Z</time></trkpt><trkpt lat="39.666663017372606" lon="8.97994499509293"><ele>142.0</ele><time>2026-04-25T08:16:00Z</time></trkpt><trkpt lat="39.66684511850085" lon="8.979921036594163"><ele>142.0</ele><time>2026-04-25T08:16:01Z</time></trkpt><trkpt lat="39.6670309549922" lon="8.979885641833267"><ele>142.33333333333334</ele><time>2026-04-25T08:16:02Z</time></trkpt><trkpt lat="39.66716617416351" lon="8.979897572297926"><ele>142.66666666666666</ele><time>2026-04-25T08:16:03Z</time></trkpt><trkpt lat="39.66734129816199" lon="8.97986046286312"><ele>143.0</ele><time>2026-04-25T08:16:04Z</time></trkpt><trkpt lat="39.66751861761268" lon="8.979818545886982"><ele>143.0</ele><time>2026-04-25T08:16:05Z</time></trkpt><trkpt lat="39.66769739903367" lon="8.979772686977938"><ele>143.0</ele><time>2026-04-25T08:16:06Z</time></trkpt><trkpt lat="39.667912918671036" lon="8.979705313779492"><ele>143.0</ele><time>2026-04-25T08:16:07Z</time></trkpt><trkpt lat="39.66807744511981" lon="8.979667891907534"><ele>143.0</ele><time>2026-04-25T08:16:08Z</time></trkpt><trkpt lat="39.66824338054907" lon="8.979619753607075"><ele>143.0</ele><time>2026-04-25T08:16:09Z</time></trkpt><trkpt lat="39.668419711304324" lon="8.979564280859647"><ele>143.0</ele><time>2026-04-25T08:16:10Z</time></trkpt><trkpt lat="39.66859326083271" lon="8.979497654508641"><ele>142.33333333333331</ele><time>2026-04-25T08:16:11Z</time></trkpt><trkpt lat="39.66876226279759" lon="8.97942390404075"><ele>141.66666666666666</ele><time>2026-04-25T08:16:12Z</time></trkpt><trkpt lat="39.66892888779901" lon="8.979346376749822"><ele>141.0</ele><time>2026-04-25T08:16:13Z</time></trkpt><trkpt lat="39.669097173327756" lon="8.979267486449187"><ele>143.0</ele><time>2026-04-25T08:16:14Z</time></trkpt><trkpt lat="39.669267508495125" lon="8.979183262946854"><ele>145.0</ele><time>2026-04-25T08:16:15Z</time></trkpt><trkpt lat="39.66944040671318" lon="8.97909305191901"><ele>147.0</ele><time>2026-04-25T08:16:16Z</time></trkpt><trkpt lat="39.6696170050641" lon="8.979000404127362"><ele>147.0</ele><time>2026-04-25T08:16:17Z</time></trkpt><trkpt lat="39.66978507647292" lon="8.97891615147646"><ele>147.0</ele><time>2026-04-25T08:16:18Z</time></trkpt><trkpt lat="39.66994930000411" lon="8.978833543057329"><ele>147.0</ele><time>2026-04-25T08:16:19Z</time></trkpt><trkpt lat="39.670104533238295" lon="8.978750142356082"><ele>147.0</ele><time>2026-04-25T08:16:20Z</time></trkpt><trkpt lat="39.670261075895425" lon="8.978668896690769"><ele>147.0</ele><time>2026-04-25T08:16:21Z</time></trkpt><trkpt lat="39.670419479897156" lon="8.978587242578861"><ele>147.0</ele><time>2026-04-25T08:16:22Z</time></trkpt><trkpt lat="39.67057850763335" lon="8.97851323841267"><ele>145.0</ele><time>2026-04-25T08:16:23Z</time></trkpt><trkpt lat="39.67073767678216" lon="8.97845657981116"><ele>143.0</ele><time>2026-04-25T08:16:24Z</time></trkpt><trkpt lat="39.67089760857122" lon="8.978414378078252"><ele>141.0</ele><time>2026-04-25T08:16:25Z</time></trkpt><trkpt lat="39.67106042742236" lon="8.97838269109892"><ele>141.66666666666666</ele><time>2026-04-25T08:16:26Z</time></trkpt><trkpt lat="39.671218439339775" lon="8.978366423600356"><ele>142.33333333333331</ele><time>2026-04-25T08:16:27Z</time></trkpt><trkpt lat="39.67136919887471" lon="8.978364347993764"><ele>143.0</ele><time>2026-04-25T08:16:28Z</time></trkpt><trkpt lat="39.67151142309934" lon="8.978375805487042"><ele>143.0</ele><time>2026-04-25T08:16:29Z</time></trkpt><trkpt lat="39.671647473399844" lon="8.978396082577413"><ele>143.0</ele><time>2026-04-25T08:16:30Z</time></trkpt><trkpt lat="39.671787431469426" lon="8.97842068523184"><ele>143.0</ele><time>2026-04-25T08:16:31Z</time></trkpt><trkpt lat="39.67192815059127" lon="8.978453919275028"><ele>143.0</ele><time>2026-04-25T08:16:32Z</time></trkpt><trkpt lat="39.672067868602774" lon="8.978501989897225"><ele>143.0</ele><time>2026-04-25T08:16:33Z</time></trkpt><trkpt lat="39.67220892215354" lon="8.978561531625902"><ele>143.0</ele><time>2026-04-25T08:16:34Z</time></trkpt><trkpt lat="39.67234831542403" lon="8.97863453623926"><ele>143.0</ele><time>2026-04-25T08:16:35Z</time></trkpt><trkpt lat="39.67248433076508" lon="8.978726808192658"><ele>143.0</ele><time>2026-04-25T08:16:36Z</time></trkpt><trkpt lat="39.67261449965269" lon="8.978832545261785"><ele>143.0</ele><time>2026-04-25T08:16:37Z</time></trkpt><trkpt lat="39.67274514364705" lon="8.97893712530462"><ele>143.0</ele><time>2026-04-25T08:16:38Z</time></trkpt><trkpt lat="39.672874226273855" lon="8.979044179686689"><ele>143.0</ele><time>2026-04-25T08:16:39Z</time></trkpt><trkpt lat="39.67300371536554" lon="8.979157448232911"><ele>143.0</ele><time>2026-04-25T08:16:40Z</time></trkpt><trkpt lat="39.67313072735063" lon="8.979270950518234"><ele>143.0</ele><time>2026-04-25T08:16:41Z</time></trkpt><trkpt lat="39.67325952052264" lon="8.979385350982005"><ele>143.0</ele><time>2026-04-25T08:16:42Z</time></trkpt><trkpt lat="39.673388797182035" lon="8.979495636244476"><ele>143.0</ele><time>2026-04-25T08:16:43Z</time></trkpt><trkpt lat="39.67351665367763" lon="8.979604172032495"><ele>143.0</ele><time>2026-04-25T08:16:44Z</time></trkpt><trkpt lat="39.673641534474115" lon="8.979707378355952"><ele>143.0</ele><time>2026-04-25T08:16:45Z</time></trkpt><trkpt lat="39.673760585720856" lon="8.979810579351"><ele>143.0</ele><time>2026-04-25T08:16:46Z</time></trkpt><trkpt lat="39.67387627801517" lon="8.979910460696063"><ele>143.0</ele><time>2026-04-25T08:16:47Z</time></trkpt><trkpt lat="39.67398858991397" lon="8.980006221972383"><ele>143.0</ele><time>2026-04-25T08:16:48Z</time></trkpt><trkpt lat="39.6740979093264" lon="8.980097622161999"><ele>143.0</ele><time>2026-04-25T08:16:49Z</time></trkpt><trkpt lat="39.67420344266723" lon="8.98018581636402"><ele>143.0</ele><time>2026-04-25T08:16:50Z</time></trkpt><trkpt lat="39.67430476285784" lon="8.980273229800288"><ele>143.0</ele><time>2026-04-25T08:16:51Z</time></trkpt><trkpt lat="39.67440485397025" lon="8.980356195697857"><ele>143.0</ele><time>2026-04-25T08:16:52Z</time></trkpt><trkpt lat="39.67450178884641" lon="8.980439857686472"><ele>142.75</ele><time>2026-04-25T08:16:53Z</time></trkpt><trkpt lat="39.6745976278383" lon="8.980518589767215"><ele>142.5</ele><time>2026-04-25T08:16:54Z</time></trkpt><trkpt lat="39.6746931546805" lon="8.980597815601548"><ele>142.25</ele><time>2026-04-25T08:16:55Z</time></trkpt><trkpt lat="39.674787693229035" lon="8.980682966734086"><ele>142.0</ele><time>2026-04-25T08:16:56Z</time></trkpt><trkpt lat="39.67488405007731" lon="8.980765288441765"><ele>142.0</ele><time>2026-04-25T08:16:57Z</time></trkpt><trkpt lat="39.67498286471848" lon="8.980848485181594"><ele>142.0</ele><time>2026-04-25T08:16:58Z</time></trkpt><trkpt lat="39.67508239331239" lon="8.980930443970177"><ele>142.0</ele><time>2026-04-25T08:16:59Z</time></trkpt><trkpt lat="39.67518147788479" lon="8.981009869463152"><ele>142.0</ele><time>2026-04-25T08:17:00Z</time></trkpt><trkpt lat="39.67527975565949" lon="8.98108924986861"><ele>142.25</ele><time>2026-04-25T08:17:01Z</time></trkpt><trkpt lat="39.67537715161525" lon="8.98116688892714"><ele>142.5</ele><time>2026-04-25T08:17:02Z</time></trkpt><trkpt lat="39.675473940575706" lon="8.981243778648924"><ele>142.75</ele><time>2026-04-25T08:17:03Z</time></trkpt><trkpt lat="39.67557233952551" lon="8.981324867813711"><ele>143.0</ele><time>2026-04-25T08:17:04Z</time></trkpt><trkpt lat="39.67567337313341" lon="8.981403518457032"><ele>143.0</ele><time>2026-04-25T08:17:05Z</time></trkpt><trkpt lat="39.67577629682091" lon="8.981484664310846"><ele>143.0</ele><time>2026-04-25T08:17:06Z</time></trkpt><trkpt lat="39.67588015174882" lon="8.981568124221505"><ele>143.0</ele><time>2026-04-25T08:17:07Z</time></trkpt><trkpt lat="39.675982029749" lon="8.981655885219164"><ele>143.0</ele><time>2026-04-25T08:17:08Z</time></trkpt><trkpt lat="39.6760836030443" lon="8.981740711514467"><ele>143.25</ele><time>2026-04-25T08:17:09Z</time></trkpt><trkpt lat="39.6761832552487" lon="8.98182512522765"><ele>143.5</ele><time>2026-04-25T08:17:10Z</time></trkpt><trkpt lat="39.67628336039264" lon="8.981907306016339"><ele>143.75</ele><time>2026-04-25T08:17:11Z</time></trkpt><trkpt lat="39.676380271889165" lon="8.981989232668463"><ele>144.0</ele><time>2026-04-25T08:17:12Z</time></trkpt><trkpt lat="39.676474682566905" lon="8.982070512502917"><ele>144.0</ele><time>2026-04-25T08:17:13Z</time></trkpt><trkpt lat="39.67656313306407" lon="8.982148892691685"><ele>144.0</ele><time>2026-04-25T08:17:14Z</time></trkpt><trkpt lat="39.676650265905934" lon="8.982218012991481"><ele>144.0</ele><time>2026-04-25T08:17:15Z</time></trkpt><trkpt lat="39.676730287296024" lon="8.98227973577538"><ele>144.0</ele><time>2026-04-25T08:17:16Z</time></trkpt><trkpt lat="39.67680556281229" lon="8.982337780987313"><ele>144.0</ele><time>2026-04-25T08:17:17Z</time></trkpt><trkpt lat="39.676878138544375" lon="8.982381853292688"><ele>144.0</ele><time>2026-04-25T08:17:18Z</time></trkpt><trkpt lat="39.676931333665365" lon="8.982451926541902"><ele>144.0</ele><time>2026-04-25T08:17:19Z</time></trkpt><trkpt lat="39.677030514407825" lon="8.982406988427721"><ele>144.0</ele><time>2026-04-25T08:17:20Z</time></trkpt><trkpt lat="39.677104091969746" lon="8.982379520131268"><ele>144.0</ele><time>2026-04-25T08:17:21Z</time></trkpt><trkpt lat="39.67717777645397" lon="8.982330777148855"><ele>144.0</ele><time>2026-04-25T08:17:22Z</time></trkpt><trkpt lat="39.67725272221003" lon="8.982279308235736"><ele>144.0</ele><time>2026-04-25T08:17:23Z</time></trkpt><trkpt lat="39.677329459898175" lon="8.98223948633548"><ele>144.0</ele><time>2026-04-25T08:17:24Z</time></trkpt><trkpt lat="39.67741477457515" lon="8.982206391724057"><ele>144.0</ele><time>2026-04-25T08:17:25Z</time></trkpt><trkpt lat="39.677504540348224" lon="8.982190360281837"><ele>144.0</ele><time>2026-04-25T08:17:26Z</time></trkpt><trkpt lat="39.67759702593418" lon="8.982185788466632"><ele>144.0</ele><time>2026-04-25T08:17:27Z</time></trkpt><trkpt lat="39.677693752249986" lon="8.982188271088301"><ele>144.0</ele><time>2026-04-25T08:17:28Z</time></trkpt><trkpt lat="39.677785376690935" lon="8.982193156613848"><ele>144.8</ele><time>2026-04-25T08:17:29Z</time></trkpt><trkpt lat="39.67787919202501" lon="8.982198677767759"><ele>145.60000000000002</ele><time>2026-04-25T08:17:30Z</time></trkpt><trkpt lat="39.67797594563882" lon="8.982201684427844"><ele>146.4</ele><time>2026-04-25T08:17:31Z</time></trkpt><trkpt lat="39.67807286506512" lon="8.982206313707726"><ele>147.20000000000002</ele><time>2026-04-25T08:17:32Z</time></trkpt><trkpt lat="39.67817429511158" lon="8.982208481066632"><ele>148.0</ele><time>2026-04-25T08:17:33Z</time></trkpt><trkpt lat="39.678276837719366" lon="8.982214467083432"><ele>148.0</ele><time>2026-04-25T08:17:34Z</time></trkpt><trkpt lat="39.67838334840767" lon="8.982217800729263"><ele>148.0</ele><time>2026-04-25T08:17:35Z</time></trkpt><trkpt lat="39.67849076434125" lon="8.982221866207437"><ele>148.0</ele><time>2026-04-25T08:17:36Z</time></trkpt><trkpt lat="39.678600419783876" lon="8.982224276396355"><ele>148.0</ele><time>2026-04-25T08:17:37Z</time></trkpt><trkpt lat="39.67871159768245" lon="8.982227305192824"><ele>148.0</ele><time>2026-04-25T08:17:38Z</time></trkpt><trkpt lat="39.67882576412079" lon="8.98223034126843"><ele>148.75</ele><time>2026-04-25T08:17:39Z</time></trkpt><trkpt lat="39.67893903542832" lon="8.982232780423244"><ele>149.5</ele><time>2026-04-25T08:17:40Z</time></trkpt><trkpt lat="39.67905417635694" lon="8.982236727458277"><ele>150.25</ele><time>2026-04-25T08:17:41Z</time></trkpt><trkpt lat="39.679169295784135" lon="8.982243472390747"><ele>151.0</ele><time>2026-04-25T08:17:42Z</time></trkpt><trkpt lat="39.67928695455591" lon="8.982248169076481"><ele>151.0</ele><time>2026-04-25T08:17:43Z</time></trkpt><trkpt lat="39.67940465498511" lon="8.982248298402952"><ele>151.0</ele><time>2026-04-25T08:17:44Z</time></trkpt><trkpt lat="39.67952368712862" lon="8.982249599393915"><ele>151.0</ele><time>2026-04-25T08:17:45Z</time></trkpt><trkpt lat="39.679641684127894" lon="8.982255554262498"><ele>151.0</ele><time>2026-04-25T08:17:46Z</time></trkpt><trkpt lat="39.67975857337286" lon="8.982262796266149"><ele>152.0</ele><time>2026-04-25T08:17:47Z</time></trkpt><trkpt lat="39.67987660585793" lon="8.98226904273062"><ele>153.0</ele><time>2026-04-25T08:17:48Z</time></trkpt><trkpt lat="39.67999467257816" lon="8.9822713208546"><ele>154.0</ele><time>2026-04-25T08:17:49Z</time></trkpt><trkpt lat="39.68011322640268" lon="8.982274148579076"><ele>155.0</ele><time>2026-04-25T08:17:50Z</time></trkpt><trkpt lat="39.680233075901135" lon="8.982281390433698"><ele>156.5</ele><time>2026-04-25T08:17:51Z</time></trkpt><trkpt lat="39.680351293657246" lon="8.982286095972853"><ele>158.0</ele><time>2026-04-25T08:17:52Z</time></trkpt><trkpt lat="39.680471037720935" lon="8.982288406349808"><ele>159.5</ele><time>2026-04-25T08:17:53Z</time></trkpt><trkpt lat="39.68058993746719" lon="8.982290155069554"><ele>161.0</ele><time>2026-04-25T08:17:54Z</time></trkpt><trkpt lat="39.68070914515259" lon="8.982293872548256"><ele>161.0</ele><time>2026-04-25T08:17:55Z</time></trkpt><trkpt lat="39.68082655476138" lon="8.982298171766448"><ele>161.0</ele><time>2026-04-25T08:17:56Z</time></trkpt><trkpt lat="39.68094214747362" lon="8.982302148860509"><ele>161.0</ele><time>2026-04-25T08:17:57Z</time></trkpt><trkpt lat="39.68105524291384" lon="8.982306050339984"><ele>161.0</ele><time>2026-04-25T08:17:58Z</time></trkpt><trkpt lat="39.68116757735116" lon="8.98230994264213"><ele>161.75</ele><time>2026-04-25T08:17:59Z</time></trkpt><trkpt lat="39.68128095281325" lon="8.982313540509605"><ele>162.5</ele><time>2026-04-25T08:18:00Z</time></trkpt><trkpt lat="39.68139321158171" lon="8.98231647215081"><ele>163.25</ele><time>2026-04-25T08:18:01Z</time></trkpt><trkpt lat="39.68150759399182" lon="8.982322898519406"><ele>164.0</ele><time>2026-04-25T08:18:02Z</time></trkpt><trkpt lat="39.681623855628054" lon="8.982332101572933"><ele>164.0</ele><time>2026-04-25T08:18:03Z</time></trkpt><trkpt lat="39.68174481479504" lon="8.982339090455037"><ele>164.0</ele><time>2026-04-25T08:18:04Z</time></trkpt><trkpt lat="39.68186587990962" lon="8.9823437050246"><ele>164.0</ele><time>2026-04-25T08:18:05Z</time></trkpt><trkpt lat="39.6819909486295" lon="8.982343214889625"><ele>164.0</ele><time>2026-04-25T08:18:06Z</time></trkpt><trkpt lat="39.68211330026882" lon="8.982340156947734"><ele>164.5</ele><time>2026-04-25T08:18:07Z</time></trkpt><trkpt lat="39.68223340805063" lon="8.982327583026832"><ele>165.0</ele><time>2026-04-25T08:18:08Z</time></trkpt><trkpt lat="39.68234743941656" lon="8.982311827177645"><ele>165.5</ele><time>2026-04-25T08:18:09Z</time></trkpt><trkpt lat="39.68245614221849" lon="8.982295690532899"><ele>166.0</ele><time>2026-04-25T08:18:10Z</time></trkpt><trkpt lat="39.68256372168701" lon="8.982282782847326"><ele>166.0</ele><time>2026-04-25T08:18:11Z</time></trkpt><trkpt lat="39.68266948455568" lon="8.982265431795662"><ele>166.0</ele><time>2026-04-25T08:18:12Z</time></trkpt><trkpt lat="39.68277443332718" lon="8.982249318825515"><ele>166.0</ele><time>2026-04-25T08:18:13Z</time></trkpt><trkpt lat="39.6828799778921" lon="8.982226356674737"><ele>166.0</ele><time>2026-04-25T08:18:14Z</time></trkpt><trkpt lat="39.682986007387804" lon="8.982200959567855"><ele>166.0</ele><time>2026-04-25T08:18:15Z</time></trkpt><trkpt lat="39.68309204726927" lon="8.982176159755555"><ele>166.0</ele><time>2026-04-25T08:18:16Z</time></trkpt><trkpt lat="39.683200452801714" lon="8.982155458392969"><ele>166.0</ele><time>2026-04-25T08:18:17Z</time></trkpt><trkpt lat="39.68330996058222" lon="8.982134777923555"><ele>166.0</ele><time>2026-04-25T08:18:18Z</time></trkpt><trkpt lat="39.68342225991109" lon="8.98211144511474"><ele>166.0</ele><time>2026-04-25T08:18:19Z</time></trkpt><trkpt lat="39.68353459802663" lon="8.982087356531467"><ele>166.0</ele><time>2026-04-25T08:18:20Z</time></trkpt><trkpt lat="39.68364689322083" lon="8.982058889944582"><ele>165.25</ele><time>2026-04-25T08:18:21Z</time></trkpt><trkpt lat="39.683758230003114" lon="8.98202005978441"><ele>164.5</ele><time>2026-04-25T08:18:22Z</time></trkpt><trkpt lat="39.68387046856683" lon="8.981976486720232"><ele>163.75</ele><time>2026-04-25T08:18:23Z</time></trkpt><trkpt lat="39.68398397290244" lon="8.98192252060314"><ele>163.0</ele><time>2026-04-25T08:18:24Z</time></trkpt><trkpt lat="39.68409537981606" lon="8.981855267131463"><ele>163.0</ele><time>2026-04-25T08:18:25Z</time></trkpt><trkpt lat="39.68420705586614" lon="8.981780731337713"><ele>163.0</ele><time>2026-04-25T08:18:26Z</time></trkpt><trkpt lat="39.68431962692743" lon="8.981698144476814"><ele>163.0</ele><time>2026-04-25T08:18:27Z</time></trkpt><trkpt lat="39.684432286353136" lon="8.98161598104229"><ele>163.0</ele><time>2026-04-25T08:18:28Z</time></trkpt><trkpt lat="39.68454698969578" lon="8.981531653775328"><ele>163.25</ele><time>2026-04-25T08:18:29Z</time></trkpt><trkpt lat="39.68466217382502" lon="8.981446125712294"><ele>163.5</ele><time>2026-04-25T08:18:30Z</time></trkpt><trkpt lat="39.68477851617855" lon="8.981358079123025"><ele>163.75</ele><time>2026-04-25T08:18:31Z</time></trkpt><trkpt lat="39.684895562977914" lon="8.981270868956912"><ele>164.0</ele><time>2026-04-25T08:18:32Z</time></trkpt><trkpt lat="39.685013645059776" lon="8.981183547416213"><ele>164.0</ele><time>2026-04-25T08:18:33Z</time></trkpt><trkpt lat="39.68513034699218" lon="8.981097926569"><ele>164.0</ele><time>2026-04-25T08:18:34Z</time></trkpt><trkpt lat="39.68524858760467" lon="8.981014581544878"><ele>164.0</ele><time>2026-04-25T08:18:35Z</time></trkpt><trkpt lat="39.68536596698748" lon="8.980931177289689"><ele>164.0</ele><time>2026-04-25T08:18:36Z</time></trkpt><trkpt lat="39.68548147391754" lon="8.98084415318789"><ele>162.75</ele><time>2026-04-25T08:18:37Z</time></trkpt><trkpt lat="39.685597640485796" lon="8.980755248427558"><ele>161.5</ele><time>2026-04-25T08:18:38Z</time></trkpt><trkpt lat="39.6857146685482" lon="8.98066557331713"><ele>160.25</ele><time>2026-04-25T08:18:39Z</time></trkpt><trkpt lat="39.68583435895763" lon="8.980577011045472"><ele>159.0</ele><time>2026-04-25T08:18:40Z</time></trkpt><trkpt lat="39.685958764713405" lon="8.980487221376595"><ele>159.0</ele><time>2026-04-25T08:18:41Z</time></trkpt><trkpt lat="39.68608477834778" lon="8.9803946505623"><ele>159.0</ele><time>2026-04-25T08:18:42Z</time></trkpt><trkpt lat="39.68621401438466" lon="8.980301087749757"><ele>159.0</ele><time>2026-04-25T08:18:43Z</time></trkpt><trkpt lat="39.686347831146655" lon="8.980206173892565"><ele>159.0</ele><time>2026-04-25T08:18:44Z</time></trkpt><trkpt lat="39.68648248222635" lon="8.980106754085211"><ele>159.0</ele><time>2026-04-25T08:18:45Z</time></trkpt><trkpt lat="39.68662146212704" lon="8.980003491406933"><ele>159.0</ele><time>2026-04-25T08:18:46Z</time></trkpt><trkpt lat="39.68676810457713" lon="8.97989910629585"><ele>159.0</ele><time>2026-04-25T08:18:47Z</time></trkpt><trkpt lat="39.68692034997415" lon="8.979792460178464"><ele>159.0</ele><time>2026-04-25T08:18:48Z</time></trkpt><trkpt lat="39.68707496410679" lon="8.979678326456279"><ele>159.0</ele><time>2026-04-25T08:18:49Z</time></trkpt><trkpt lat="39.68723549530722" lon="8.97955880729215"><ele>159.0</ele><time>2026-04-25T08:18:50Z</time></trkpt><trkpt lat="39.687400471951605" lon="8.979436852628691"><ele>159.0</ele><time>2026-04-25T08:18:51Z</time></trkpt><trkpt lat="39.687561105524566" lon="8.97930886723025"><ele>159.0</ele><time>2026-04-25T08:18:52Z</time></trkpt><trkpt lat="39.68771529791757" lon="8.979178880552007"><ele>159.0</ele><time>2026-04-25T08:18:53Z</time></trkpt><trkpt lat="39.687864220962055" lon="8.979053602132248"><ele>160.0</ele><time>2026-04-25T08:18:54Z</time></trkpt><trkpt lat="39.68800330303065" lon="8.978898281263014"><ele>161.0</ele><time>2026-04-25T08:18:55Z</time></trkpt><trkpt lat="39.688143175486" lon="8.978714456695831"><ele>162.0</ele><time>2026-04-25T08:18:56Z</time></trkpt><trkpt lat="39.68828485956069" lon="8.978552010509231"><ele>162.0</ele><time>2026-04-25T08:18:57Z</time></trkpt><trkpt lat="39.6884242314205" lon="8.978388818010549"><ele>162.0</ele><time>2026-04-25T08:18:58Z</time></trkpt><trkpt lat="39.6885550643757" lon="8.978236639897569"><ele>162.0</ele><time>2026-04-25T08:18:59Z</time></trkpt><trkpt lat="39.68868459088907" lon="8.9780898493143"><ele>164.0</ele><time>2026-04-25T08:19:00Z</time></trkpt><trkpt lat="39.68881220728403" lon="8.977946117722807"><ele>166.0</ele><time>2026-04-25T08:19:01Z</time></trkpt><trkpt lat="39.68893880067867" lon="8.977802351362287"><ele>168.0</ele><time>2026-04-25T08:19:02Z</time></trkpt><trkpt lat="39.68906485438773" lon="8.977662226248812"><ele>168.0</ele><time>2026-04-25T08:19:03Z</time></trkpt><trkpt lat="39.68919591274742" lon="8.977525737111215"><ele>168.0</ele><time>2026-04-25T08:19:04Z</time></trkpt><trkpt lat="39.689331098762494" lon="8.977392909247426"><ele>168.0</ele><time>2026-04-25T08:19:05Z</time></trkpt><trkpt lat="39.68946711426094" lon="8.977268703021702"><ele>168.0</ele><time>2026-04-25T08:19:06Z</time></trkpt><trkpt lat="39.68960782443439" lon="8.97714846477751"><ele>168.0</ele><time>2026-04-25T08:19:07Z</time></trkpt><trkpt lat="39.689749419076406" lon="8.97702861916908"><ele>168.0</ele><time>2026-04-25T08:19:08Z</time></trkpt><trkpt lat="39.68988726198306" lon="8.97691241256967"><ele>168.0</ele><time>2026-04-25T08:19:09Z</time></trkpt><trkpt lat="39.69002483625073" lon="8.976797970692578"><ele>168.0</ele><time>2026-04-25T08:19:10Z</time></trkpt><trkpt lat="39.690163875619895" lon="8.976681399497442"><ele>168.0</ele><time>2026-04-25T08:19:11Z</time></trkpt><trkpt lat="39.69030487660065" lon="8.976565494531012"><ele>167.66666666666666</ele><time>2026-04-25T08:19:12Z</time></trkpt><trkpt lat="39.690449503108375" lon="8.976452856527722"><ele>167.33333333333331</ele><time>2026-04-25T08:19:13Z</time></trkpt><trkpt lat="39.690589955940005" lon="8.976337529692776"><ele>167.0</ele><time>2026-04-25T08:19:14Z</time></trkpt><trkpt lat="39.6907317562661" lon="8.976214077805626"><ele>167.0</ele><time>2026-04-25T08:19:15Z</time></trkpt><trkpt lat="39.690874667959996" lon="8.976093106316917"><ele>167.0</ele><time>2026-04-25T08:19:16Z</time></trkpt><trkpt lat="39.69101827226814" lon="8.975978484308182"><ele>167.0</ele><time>2026-04-25T08:19:17Z</time></trkpt><trkpt lat="39.69115977691937" lon="8.97586426376343"><ele>168.66666666666666</ele><time>2026-04-25T08:19:18Z</time></trkpt><trkpt lat="39.691300700322536" lon="8.975749840964482"><ele>170.33333333333334</ele><time>2026-04-25T08:19:19Z</time></trkpt><trkpt lat="39.69144087091504" lon="8.975638362058213"><ele>172.0</ele><time>2026-04-25T08:19:20Z</time></trkpt><trkpt lat="39.691581745649025" lon="8.975527808224099"><ele>172.0</ele><time>2026-04-25T08:19:21Z</time></trkpt><trkpt lat="39.691722934232054" lon="8.975413581198588"><ele>172.0</ele><time>2026-04-25T08:19:22Z</time></trkpt><trkpt lat="39.691860336295655" lon="8.975308509563275"><ele>172.0</ele><time>2026-04-25T08:19:23Z</time></trkpt><trkpt lat="39.6920052178783" lon="8.975211070597645"><ele>172.66666666666669</ele><time>2026-04-25T08:19:24Z</time></trkpt><trkpt lat="39.69215393661394" lon="8.97512621702242"><ele>173.33333333333334</ele><time>2026-04-25T08:19:25Z</time></trkpt><trkpt lat="39.69230524545131" lon="8.975048914553676"><ele>174.0</ele><time>2026-04-25T08:19:26Z</time></trkpt><trkpt lat="39.69245841982108" lon="8.974977200948334"><ele>173.25</ele><time>2026-04-25T08:19:27Z</time></trkpt><trkpt lat="39.69261964967466" lon="8.974941598338113"><ele>172.5</ele><time>2026-04-25T08:19:28Z</time></trkpt><trkpt lat="39.69274335349242" lon="8.97490553689038"><ele>171.75</ele><time>2026-04-25T08:19:29Z</time></trkpt><trkpt lat="39.692891861541625" lon="8.974865805645369"><ele>171.0</ele><time>2026-04-25T08:19:30Z</time></trkpt><trkpt lat="39.693040107833134" lon="8.974830885446249"><ele>171.0</ele><time>2026-04-25T08:19:31Z</time></trkpt><trkpt lat="39.69333465003435" lon="8.974768179164354"><ele>171.0</ele><time>2026-04-25T08:19:33Z</time></trkpt><trkpt lat="39.69348040760467" lon="8.974734052180818"><ele>171.0</ele><time>2026-04-25T08:19:34Z</time></trkpt><trkpt lat="39.693623535813835" lon="8.974698623158062"><ele>171.25</ele><time>2026-04-25T08:19:35Z</time></trkpt><trkpt lat="39.693766605065875" lon="8.974662686747376"><ele>171.5</ele><time>2026-04-25T08:19:36Z</time></trkpt><trkpt lat="39.69390842556799" lon="8.974628286604641"><ele>171.75</ele><time>2026-04-25T08:19:37Z</time></trkpt><trkpt lat="39.69405016455364" lon="8.974599623924595"><ele>172.0</ele><time>2026-04-25T08:19:38Z</time></trkpt><trkpt lat="39.69419080322496" lon="8.974569894339925"><ele>172.0</ele><time>2026-04-25T08:19:39Z</time></trkpt><trkpt lat="39.69432987493799" lon="8.974537536429684"><ele>172.0</ele><time>2026-04-25T08:19:40Z</time></trkpt><trkpt lat="39.69446991243571" lon="8.974504469520902"><ele>172.0</ele><time>2026-04-25T08:19:41Z</time></trkpt><trkpt lat="39.69461160007837" lon="8.974470670812321"><ele>172.0</ele><time>2026-04-25T08:19:42Z</time></trkpt><trkpt lat="39.69475235949123" lon="8.974435884615984"><ele>172.75</ele><time>2026-04-25T08:19:43Z</time></trkpt><trkpt lat="39.694895368156814" lon="8.974402895523582"><ele>173.5</ele><time>2026-04-25T08:19:44Z</time></trkpt><trkpt lat="39.69503943281255" lon="8.974373301874698"><ele>174.25</ele><time>2026-04-25T08:19:45Z</time></trkpt><trkpt lat="39.69518361184642" lon="8.974340263506534"><ele>175.0</ele><time>2026-04-25T08:19:46Z</time></trkpt><trkpt lat="39.695327402331586" lon="8.974297465633867"><ele>175.66666666666669</ele><time>2026-04-25T08:19:47Z</time></trkpt><trkpt lat="39.69547183245483" lon="8.974245579283844"><ele>176.33333333333334</ele><time>2026-04-25T08:19:48Z</time></trkpt><trkpt lat="39.69561594654331" lon="8.974189094396671"><ele>177.0</ele><time>2026-04-25T08:19:49Z</time></trkpt><trkpt lat="39.69575893086039" lon="8.974120212167419"><ele>177.0</ele><time>2026-04-25T08:19:50Z</time></trkpt><trkpt lat="39.69590042528083" lon="8.974036063192505"><ele>177.0</ele><time>2026-04-25T08:19:51Z</time></trkpt><trkpt lat="39.69604006797949" lon="8.97394508496395"><ele>177.0</ele><time>2026-04-25T08:19:52Z</time></trkpt><trkpt lat="39.696178126526384" lon="8.973846969810399"><ele>178.33333333333334</ele><time>2026-04-25T08:19:53Z</time></trkpt><trkpt lat="39.69631503987031" lon="8.973749370213504"><ele>179.66666666666669</ele><time>2026-04-25T08:19:54Z</time></trkpt><trkpt lat="39.69645420744119" lon="8.973653460078216"><ele>181.0</ele><time>2026-04-25T08:19:55Z</time></trkpt><trkpt lat="39.69659482323319" lon="8.973564920907744"><ele>181.0</ele><time>2026-04-25T08:19:56Z</time></trkpt><trkpt lat="39.6967356728384" lon="8.973474575660397"><ele>181.0</ele><time>2026-04-25T08:19:57Z</time></trkpt><trkpt lat="39.69687943434088" lon="8.97337585211736"><ele>181.0</ele><time>2026-04-25T08:19:58Z</time></trkpt><trkpt lat="39.69702106871062" lon="8.973279218463093"><ele>180.33333333333334</ele><time>2026-04-25T08:19:59Z</time></trkpt><trkpt lat="39.69716166250477" lon="8.973178915326825"><ele>179.66666666666666</ele><time>2026-04-25T08:20:00Z</time></trkpt><trkpt lat="39.69730406961194" lon="8.973077193507121"><ele>179.0</ele><time>2026-04-25T08:20:01Z</time></trkpt><trkpt lat="39.69744791601521" lon="8.97297470479544"><ele>179.0</ele><time>2026-04-25T08:20:02Z</time></trkpt><trkpt lat="39.697597421588945" lon="8.97287932630795"><ele>179.0</ele><time>2026-04-25T08:20:03Z</time></trkpt><trkpt lat="39.69775077246099" lon="8.972786545034149"><ele>179.0</ele><time>2026-04-25T08:20:04Z</time></trkpt><trkpt lat="39.69790168978756" lon="8.97268484807006"><ele>178.33333333333331</ele><time>2026-04-25T08:20:05Z</time></trkpt><trkpt lat="39.6980503494424" lon="8.97258394680443"><ele>177.66666666666666</ele><time>2026-04-25T08:20:06Z</time></trkpt><trkpt lat="39.6981972238386" lon="8.972481977976232"><ele>177.0</ele><time>2026-04-25T08:20:07Z</time></trkpt><trkpt lat="39.698346632858794" lon="8.972379965020293"><ele>177.0</ele><time>2026-04-25T08:20:08Z</time></trkpt><trkpt lat="39.69849423749336" lon="8.972282795038277"><ele>177.0</ele><time>2026-04-25T08:20:09Z</time></trkpt><trkpt lat="39.698641079414024" lon="8.972183535973953"><ele>177.0</ele><time>2026-04-25T08:20:10Z</time></trkpt><trkpt lat="39.698789347390246" lon="8.97208227180256"><ele>177.33333333333334</ele><time>2026-04-25T08:20:11Z</time></trkpt><trkpt lat="39.69893724403947" lon="8.971984224046944"><ele>177.66666666666669</ele><time>2026-04-25T08:20:12Z</time></trkpt><trkpt lat="39.699083131419236" lon="8.97188336503582"><ele>178.0</ele><time>2026-04-25T08:20:13Z</time></trkpt><trkpt lat="39.69922734195232" lon="8.97177931079711"><ele>177.66666666666669</ele><time>2026-04-25T08:20:14Z</time></trkpt><trkpt lat="39.69936727089199" lon="8.971674061973971"><ele>177.33333333333334</ele><time>2026-04-25T08:20:15Z</time></trkpt><trkpt lat="39.699507631925854" lon="8.971570366788344"><ele>177.0</ele><time>2026-04-25T08:20:16Z</time></trkpt><trkpt lat="39.699643131822405" lon="8.971466415023496"><ele>178.33333333333334</ele><time>2026-04-25T08:20:17Z</time></trkpt><trkpt lat="39.69977181711656" lon="8.971349720499726"><ele>179.66666666666669</ele><time>2026-04-25T08:20:18Z</time></trkpt><trkpt lat="39.699898761433786" lon="8.97122488180703"><ele>181.0</ele><time>2026-04-25T08:20:19Z</time></trkpt><trkpt lat="39.70002255479877" lon="8.971092924482758"><ele>181.0</ele><time>2026-04-25T08:20:20Z</time></trkpt><trkpt lat="39.7001443544347" lon="8.97095392174597"><ele>181.0</ele><time>2026-04-25T08:20:21Z</time></trkpt><trkpt lat="39.7002626708892" lon="8.970816526375941"><ele>181.0</ele><time>2026-04-25T08:20:22Z</time></trkpt><trkpt lat="39.70038250634736" lon="8.970677371782234"><ele>181.66666666666669</ele><time>2026-04-25T08:20:23Z</time></trkpt><trkpt lat="39.70050257155159" lon="8.97053623220063"><ele>182.33333333333334</ele><time>2026-04-25T08:20:24Z</time></trkpt><trkpt lat="39.700622600631746" lon="8.970397487613157"><ele>183.0</ele><time>2026-04-25T08:20:25Z</time></trkpt><trkpt lat="39.70074215916096" lon="8.970263753459536"><ele>183.0</ele><time>2026-04-25T08:20:26Z</time></trkpt><trkpt lat="39.700859761655295" lon="8.970134011289746"><ele>183.0</ele><time>2026-04-25T08:20:27Z</time></trkpt><trkpt lat="39.70097726825184" lon="8.970008436652359"><ele>183.0</ele><time>2026-04-25T08:20:28Z</time></trkpt><trkpt lat="39.701096542500714" lon="8.969889098521485"><ele>183.66666666666666</ele><time>2026-04-25T08:20:29Z</time></trkpt><trkpt lat="39.70120244728548" lon="8.969751223659406"><ele>184.33333333333331</ele><time>2026-04-25T08:20:30Z</time></trkpt><trkpt lat="39.70136200257771" lon="8.969530151164015"><ele>185.0</ele><time>2026-04-25T08:20:31Z</time></trkpt><trkpt lat="39.70148597572951" lon="8.969383053752624"><ele>185.0</ele><time>2026-04-25T08:20:32Z</time></trkpt><trkpt lat="39.70161089519021" lon="8.9692404743417"><ele>185.0</ele><time>2026-04-25T08:20:33Z</time></trkpt><trkpt lat="39.701737191449396" lon="8.969090910726717"><ele>185.0</ele><time>2026-04-25T08:20:34Z</time></trkpt><trkpt lat="39.70186395424737" lon="8.968938172126588"><ele>187.33333333333331</ele><time>2026-04-25T08:20:35Z</time></trkpt><trkpt lat="39.701991403631986" lon="8.96879394823138"><ele>189.66666666666666</ele><time>2026-04-25T08:20:36Z</time></trkpt><trkpt lat="39.70212032916847" lon="8.968653017690498"><ele>192.0</ele><time>2026-04-25T08:20:37Z</time></trkpt><trkpt lat="39.702249873240525" lon="8.968515831539788"><ele>192.0</ele><time>2026-04-25T08:20:38Z</time></trkpt><trkpt lat="39.70238318467181" lon="8.968385682117043"><ele>192.0</ele><time>2026-04-25T08:20:39Z</time></trkpt><trkpt lat="39.702526035761245" lon="8.968268134750604"><ele>192.0</ele><time>2026-04-25T08:20:40Z</time></trkpt><trkpt lat="39.70267606838453" lon="8.968165406155915"><ele>192.33333333333331</ele><time>2026-04-25T08:20:41Z</time></trkpt><trkpt lat="39.702835713193615" lon="8.968098803285713"><ele>192.66666666666666</ele><time>2026-04-25T08:20:42Z</time></trkpt><trkpt lat="39.70298003519792" lon="8.967993250758202"><ele>193.0</ele><time>2026-04-25T08:20:43Z</time></trkpt><trkpt lat="39.70313324492839" lon="8.967912370665214"><ele>193.0</ele><time>2026-04-25T08:20:44Z</time></trkpt><trkpt lat="39.70329051978" lon="8.967826252065915"><ele>193.0</ele><time>2026-04-25T08:20:45Z</time></trkpt><trkpt lat="39.703451729414695" lon="8.967733015190957"><ele>193.0</ele><time>2026-04-25T08:20:46Z</time></trkpt><trkpt lat="39.70360895346571" lon="8.967641510559481"><ele>191.0</ele><time>2026-04-25T08:20:47Z</time></trkpt><trkpt lat="39.703771740844616" lon="8.967554051974048"><ele>189.0</ele><time>2026-04-25T08:20:48Z</time></trkpt><trkpt lat="39.70393291399831" lon="8.967463803226273"><ele>187.0</ele><time>2026-04-25T08:20:49Z</time></trkpt><trkpt lat="39.704090183999966" lon="8.96736759385109"><ele>187.0</ele><time>2026-04-25T08:20:50Z</time></trkpt><trkpt lat="39.70424515098958" lon="8.967271126060986"><ele>187.0</ele><time>2026-04-25T08:20:51Z</time></trkpt><trkpt lat="39.70439961426645" lon="8.967167786706687"><ele>187.0</ele><time>2026-04-25T08:20:52Z</time></trkpt><trkpt lat="39.70454940216207" lon="8.96706011753775"><ele>189.66666666666669</ele><time>2026-04-25T08:20:53Z</time></trkpt><trkpt lat="39.70469750631873" lon="8.966955532263869"><ele>192.33333333333334</ele><time>2026-04-25T08:20:54Z</time></trkpt><trkpt lat="39.70484637541064" lon="8.966855541583676"><ele>195.0</ele><time>2026-04-25T08:20:55Z</time></trkpt><trkpt lat="39.704994172919974" lon="8.966752049579886"><ele>194.0</ele><time>2026-04-25T08:20:56Z</time></trkpt><trkpt lat="39.70514302322523" lon="8.966647926117787"><ele>193.0</ele><time>2026-04-25T08:20:57Z</time></trkpt><trkpt lat="39.7052879629345" lon="8.966542978251429"><ele>192.0</ele><time>2026-04-25T08:20:58Z</time></trkpt><trkpt lat="39.70543481255915" lon="8.966437983572693"><ele>192.0</ele><time>2026-04-25T08:20:59Z</time></trkpt><trkpt lat="39.70558358373077" lon="8.966335417131473"><ele>192.0</ele><time>2026-04-25T08:21:00Z</time></trkpt><trkpt lat="39.705729935025836" lon="8.96623186801159"><ele>192.0</ele><time>2026-04-25T08:21:01Z</time></trkpt><trkpt lat="39.70587573913413" lon="8.966125327783134"><ele>192.0</ele><time>2026-04-25T08:21:02Z</time></trkpt><trkpt lat="39.706024548416046" lon="8.966022719122527"><ele>192.0</ele><time>2026-04-25T08:21:03Z</time></trkpt><trkpt lat="39.70617289978778" lon="8.96592552539677"><ele>192.0</ele><time>2026-04-25T08:21:04Z</time></trkpt><trkpt lat="39.706320698009236" lon="8.965827634839117"><ele>192.66666666666669</ele><time>2026-04-25T08:21:05Z</time></trkpt><trkpt lat="39.70647074201378" lon="8.965728404302988"><ele>193.33333333333334</ele><time>2026-04-25T08:21:06Z</time></trkpt><trkpt lat="39.70662431252782" lon="8.965637847174829"><ele>194.0</ele><time>2026-04-25T08:21:07Z</time></trkpt><trkpt lat="39.706783326240455" lon="8.965561173441058"><ele>195.0</ele><time>2026-04-25T08:21:08Z</time></trkpt><trkpt lat="39.7069481061089" lon="8.965489339631212"><ele>196.0</ele><time>2026-04-25T08:21:09Z</time></trkpt><trkpt lat="39.70711056242948" lon="8.96542014818383"><ele>197.0</ele><time>2026-04-25T08:21:10Z</time></trkpt><trkpt lat="39.70727332467511" lon="8.965351907599857"><ele>197.0</ele><time>2026-04-25T08:21:11Z</time></trkpt><trkpt lat="39.70743573430871" lon="8.965285023447047"><ele>197.0</ele><time>2026-04-25T08:21:12Z</time></trkpt><trkpt lat="39.70759782933505" lon="8.96522013478325"><ele>197.0</ele><time>2026-04-25T08:21:13Z</time></trkpt><trkpt lat="39.70775742420859" lon="8.965154157671154"><ele>198.0</ele><time>2026-04-25T08:21:14Z</time></trkpt><trkpt lat="39.70791688767858" lon="8.96509001601769"><ele>199.0</ele><time>2026-04-25T08:21:15Z</time></trkpt><trkpt lat="39.7080770527248" lon="8.965028877538426"><ele>200.0</ele><time>2026-04-25T08:21:16Z</time></trkpt><trkpt lat="39.7082365375734" lon="8.96496472727039"><ele>198.33333333333334</ele><time>2026-04-25T08:21:17Z</time></trkpt><trkpt lat="39.70839756479134" lon="8.964900369041043"><ele>196.66666666666669</ele><time>2026-04-25T08:21:18Z</time></trkpt><trkpt lat="39.70856053006901" lon="8.964836112891035"><ele>195.0</ele><time>2026-04-25T08:21:19Z</time></trkpt><trkpt lat="39.7087254293756" lon="8.964775525714895"><ele>195.0</ele><time>2026-04-25T08:21:20Z</time></trkpt><trkpt lat="39.7088894620244" lon="8.964711618378987"><ele>195.0</ele><time>2026-04-25T08:21:21Z</time></trkpt><trkpt lat="39.7090494418131" lon="8.964643274817423"><ele>195.0</ele><time>2026-04-25T08:21:22Z</time></trkpt><trkpt lat="39.70920046340327" lon="8.964575690855092"><ele>195.0</ele><time>2026-04-25T08:21:23Z</time></trkpt><trkpt lat="39.70934054275213" lon="8.964514687860818"><ele>195.0</ele><time>2026-04-25T08:21:24Z</time></trkpt><trkpt lat="39.709470055719315" lon="8.964467364630964"><ele>195.0</ele><time>2026-04-25T08:21:25Z</time></trkpt><trkpt lat="39.70958454111568" lon="8.96444178590935"><ele>195.0</ele><time>2026-04-25T08:21:26Z</time></trkpt><trkpt lat="39.7096801240727" lon="8.964444170643326"><ele>195.4</ele><time>2026-04-25T08:21:27Z</time></trkpt><trkpt lat="39.709772327359126" lon="8.964457028167692"><ele>195.8</ele><time>2026-04-25T08:21:28Z</time></trkpt><trkpt lat="39.70983144722555" lon="8.964527490720652"><ele>196.2</ele><time>2026-04-25T08:21:29Z</time></trkpt><trkpt lat="39.70986797861679" lon="8.964643319231795"><ele>196.6</ele><time>2026-04-25T08:21:30Z</time></trkpt><trkpt lat="39.709872865606584" lon="8.964776653905556"><ele>197.0</ele><time>2026-04-25T08:21:31Z</time></trkpt><trkpt lat="39.70982400040041" lon="8.964907582918773"><ele>197.0</ele><time>2026-04-25T08:21:32Z</time></trkpt><trkpt lat="39.70972372521382" lon="8.965026242173382"><ele>197.0</ele><time>2026-04-25T08:21:33Z</time></trkpt><trkpt lat="39.70963381602764" lon="8.965143207930192"><ele>197.0</ele><time>2026-04-25T08:21:34Z</time></trkpt><trkpt lat="39.70954436530114" lon="8.965299281025548"><ele>197.0</ele><time>2026-04-25T08:21:35Z</time></trkpt><trkpt lat="39.70946153076098" lon="8.965459732526794"><ele>197.66666666666669</ele><time>2026-04-25T08:21:36Z</time></trkpt><trkpt lat="39.70936977836069" lon="8.965632071007494"><ele>198.33333333333331</ele><time>2026-04-25T08:21:37Z</time></trkpt><trkpt lat="39.709261458281624" lon="8.965806831966084"><ele>199.0</ele><time>2026-04-25T08:21:38Z</time></trkpt><trkpt lat="39.70915600115234" lon="8.96599600681942"><ele>200.66666666666666</ele><time>2026-04-25T08:21:39Z</time></trkpt><trkpt lat="39.70906215194794" lon="8.966209349083996"><ele>202.33333333333331</ele><time>2026-04-25T08:21:40Z</time></trkpt><trkpt lat="39.708979462142615" lon="8.966417527040385"><ele>204.0</ele><time>2026-04-25T08:21:41Z</time></trkpt><trkpt lat="39.70889576618803" lon="8.96662557022857"><ele>207.33333333333331</ele><time>2026-04-25T08:21:42Z</time></trkpt><trkpt lat="39.70881651366691" lon="8.966844019020368"><ele>210.66666666666666</ele><time>2026-04-25T08:21:43Z</time></trkpt><trkpt lat="39.708743560283516" lon="8.967066920309529"><ele>214.0</ele><time>2026-04-25T08:21:44Z</time></trkpt><trkpt lat="39.70867148579351" lon="8.967293243347589"><ele>214.0</ele><time>2026-04-25T08:21:45Z</time></trkpt><trkpt lat="39.70860950137393" lon="8.96752205598189"><ele>214.0</ele><time>2026-04-25T08:21:46Z</time></trkpt><trkpt lat="39.7085578559135" lon="8.967757221634395"><ele>214.0</ele><time>2026-04-25T08:21:47Z</time></trkpt><trkpt lat="39.7085156755846" lon="8.967990055224154"><ele>215.33333333333331</ele><time>2026-04-25T08:21:48Z</time></trkpt><trkpt lat="39.70848122024282" lon="8.968227552455103"><ele>216.66666666666669</ele><time>2026-04-25T08:21:49Z</time></trkpt><trkpt lat="39.70846471957247" lon="8.968469875384498"><ele>218.0</ele><time>2026-04-25T08:21:50Z</time></trkpt><trkpt lat="39.708462353953216" lon="8.968710898482566"><ele>218.33333333333334</ele><time>2026-04-25T08:21:51Z</time></trkpt><trkpt lat="39.708462250061416" lon="8.96895315519681"><ele>218.66666666666669</ele><time>2026-04-25T08:21:52Z</time></trkpt><trkpt lat="39.70846696289093" lon="8.969197102643484"><ele>219.0</ele><time>2026-04-25T08:21:53Z</time></trkpt><trkpt lat="39.708483534209904" lon="8.969445435057452"><ele>218.33333333333331</ele><time>2026-04-25T08:21:54Z</time></trkpt><trkpt lat="39.70850594793127" lon="8.969700663662886"><ele>217.66666666666666</ele><time>2026-04-25T08:21:55Z</time></trkpt><trkpt lat="39.70852464010453" lon="8.969960436060774"><ele>217.0</ele><time>2026-04-25T08:21:56Z</time></trkpt><trkpt lat="39.70853813469732" lon="8.970225271478279"><ele>216.0</ele><time>2026-04-25T08:21:57Z</time></trkpt><trkpt lat="39.70855168495761" lon="8.970493367162058"><ele>215.0</ele><time>2026-04-25T08:21:58Z</time></trkpt><trkpt lat="39.70857124512604" lon="8.970753482528243"><ele>214.0</ele><time>2026-04-25T08:21:59Z</time></trkpt><trkpt lat="39.70859023569956" lon="8.971014164035624"><ele>212.0</ele><time>2026-04-25T08:22:00Z</time></trkpt><trkpt lat="39.70860700321548" lon="8.971279841501614"><ele>210.0</ele><time>2026-04-25T08:22:01Z</time></trkpt><trkpt lat="39.70862480752998" lon="8.971544413265624"><ele>208.0</ele><time>2026-04-25T08:22:02Z</time></trkpt><trkpt lat="39.70864503398414" lon="8.971817008246239"><ele>207.33333333333331</ele><time>2026-04-25T08:22:03Z</time></trkpt><trkpt lat="39.70866516753344" lon="8.97209132773681"><ele>206.66666666666669</ele><time>2026-04-25T08:22:04Z</time></trkpt><trkpt lat="39.70867981308217" lon="8.97237160884079"><ele>206.0</ele><time>2026-04-25T08:22:05Z</time></trkpt><trkpt lat="39.70868332535405" lon="8.972654210379414"><ele>206.0</ele><time>2026-04-25T08:22:06Z</time></trkpt><trkpt lat="39.70867437872974" lon="8.97293432823287"><ele>206.0</ele><time>2026-04-25T08:22:07Z</time></trkpt><trkpt lat="39.70865070539356" lon="8.973213825678648"><ele>206.0</ele><time>2026-04-25T08:22:08Z</time></trkpt><trkpt lat="39.70862028152484" lon="8.973487528257433"><ele>206.0</ele><time>2026-04-25T08:22:09Z</time></trkpt><trkpt lat="39.70858911760217" lon="8.973760423548438"><ele>206.0</ele><time>2026-04-25T08:22:10Z</time></trkpt><trkpt lat="39.70856291460833" lon="8.974031993727074"><ele>206.0</ele><time>2026-04-25T08:22:11Z</time></trkpt><trkpt lat="39.70853587197972" lon="8.974303902434675"><ele>205.33333333333334</ele><time>2026-04-25T08:22:12Z</time></trkpt><trkpt lat="39.70850887240413" lon="8.974575384983263"><ele>204.66666666666669</ele><time>2026-04-25T08:22:13Z</time></trkpt><trkpt lat="39.708483346832416" lon="8.97485248290845"><ele>204.0</ele><time>2026-04-25T08:22:14Z</time></trkpt><trkpt lat="39.708457759997145" lon="8.975131545439599"><ele>204.0</ele><time>2026-04-25T08:22:15Z</time></trkpt><trkpt lat="39.708428980956015" lon="8.975415231779921"><ele>204.0</ele><time>2026-04-25T08:22:16Z</time></trkpt><trkpt lat="39.70839860559832" lon="8.975697788435111"><ele>204.0</ele><time>2026-04-25T08:22:17Z</time></trkpt><trkpt lat="39.70836820693346" lon="8.975979827568722"><ele>203.66666666666669</ele><time>2026-04-25T08:22:18Z</time></trkpt><trkpt lat="39.708338389220025" lon="8.976266085625497"><ele>203.33333333333334</ele><time>2026-04-25T08:22:19Z</time></trkpt><trkpt lat="39.708310547300556" lon="8.976552755253563"><ele>203.0</ele><time>2026-04-25T08:22:20Z</time></trkpt><trkpt lat="39.708283332527365" lon="8.976839365259554"><ele>203.0</ele><time>2026-04-25T08:22:21Z</time></trkpt><trkpt lat="39.70825583186212" lon="8.977127988174555"><ele>203.0</ele><time>2026-04-25T08:22:22Z</time></trkpt><trkpt lat="39.70822855108267" lon="8.977414827173767"><ele>203.0</ele><time>2026-04-25T08:22:23Z</time></trkpt><trkpt lat="39.708202587136185" lon="8.977698474381265"><ele>203.0</ele><time>2026-04-25T08:22:24Z</time></trkpt><trkpt lat="39.70817433350901" lon="8.977981180679723"><ele>203.0</ele><time>2026-04-25T08:22:25Z</time></trkpt><trkpt lat="39.70814536956539" lon="8.978262116918636"><ele>203.0</ele><time>2026-04-25T08:22:26Z</time></trkpt><trkpt lat="39.708116390563305" lon="8.978543847322939"><ele>203.0</ele><time>2026-04-25T08:22:27Z</time></trkpt><trkpt lat="39.70808665817438" lon="8.97882485439095"><ele>203.0</ele><time>2026-04-25T08:22:28Z</time></trkpt><trkpt lat="39.70805577217102" lon="8.979106728940723"><ele>203.0</ele><time>2026-04-25T08:22:29Z</time></trkpt><trkpt lat="39.708025997329386" lon="8.979387444097897"><ele>203.0</ele><time>2026-04-25T08:22:30Z</time></trkpt><trkpt lat="39.70799658950125" lon="8.979669062306558"><ele>203.0</ele><time>2026-04-25T08:22:31Z</time></trkpt><trkpt lat="39.70797029313958" lon="8.979950412217052"><ele>203.0</ele><time>2026-04-25T08:22:32Z</time></trkpt><trkpt lat="39.707946186428266" lon="8.980230094283579"><ele>203.66666666666669</ele><time>2026-04-25T08:22:33Z</time></trkpt><trkpt lat="39.707920422289604" lon="8.980507210262246"><ele>204.33333333333331</ele><time>2026-04-25T08:22:34Z</time></trkpt><trkpt lat="39.70789149796314" lon="8.980787363011004"><ele>205.0</ele><time>2026-04-25T08:22:35Z</time></trkpt><trkpt lat="39.707861129604474" lon="8.981068534585944"><ele>205.33333333333331</ele><time>2026-04-25T08:22:36Z</time></trkpt><trkpt lat="39.70783347260829" lon="8.981354561085682"><ele>205.66666666666669</ele><time>2026-04-25T08:22:37Z</time></trkpt><trkpt lat="39.70780562259803" lon="8.98164365516716"><ele>206.0</ele><time>2026-04-25T08:22:38Z</time></trkpt><trkpt lat="39.7077813446554" lon="8.981930075682936"><ele>206.0</ele><time>2026-04-25T08:22:39Z</time></trkpt><trkpt lat="39.70775405526215" lon="8.982222658759772"><ele>206.0</ele><time>2026-04-25T08:22:40Z</time></trkpt><trkpt lat="39.707724172518674" lon="8.982514064006683"><ele>204.0</ele><time>2026-04-25T08:22:41Z</time></trkpt><trkpt lat="39.70769367994075" lon="8.982809792854628"><ele>202.0</ele><time>2026-04-25T08:22:42Z</time></trkpt><trkpt lat="39.70766212224697" lon="8.983107518674023"><ele>201.5</ele><time>2026-04-25T08:22:43Z</time></trkpt><trkpt lat="39.70763162386331" lon="8.983410126426998"><ele>201.0</ele><time>2026-04-25T08:22:44Z</time></trkpt><trkpt lat="39.7076023038749" lon="8.98371087439788"><ele>201.0</ele><time>2026-04-25T08:22:45Z</time></trkpt><trkpt lat="39.70757392404199" lon="8.984008338238432"><ele>201.0</ele><time>2026-04-25T08:22:46Z</time></trkpt><trkpt lat="39.70754397800288" lon="8.984305862535084"><ele>201.5</ele><time>2026-04-25T08:22:47Z</time></trkpt><trkpt lat="39.70751160154243" lon="8.98460342920908"><ele>202.0</ele><time>2026-04-25T08:22:48Z</time></trkpt><trkpt lat="39.70747948564365" lon="8.984908504871072"><ele>203.5</ele><time>2026-04-25T08:22:49Z</time></trkpt><trkpt lat="39.70744963604699" lon="8.985215708026502"><ele>205.0</ele><time>2026-04-25T08:22:50Z</time></trkpt><trkpt lat="39.707419556176504" lon="8.985522053281816"><ele>205.0</ele><time>2026-04-25T08:22:51Z</time></trkpt><trkpt lat="39.707391056303734" lon="8.98582966987593"><ele>205.0</ele><time>2026-04-25T08:22:52Z</time></trkpt><trkpt lat="39.70736503839682" lon="8.986131959026428"><ele>207.0</ele><time>2026-04-25T08:22:53Z</time></trkpt><trkpt lat="39.70733619822991" lon="8.986429401268428"><ele>209.0</ele><time>2026-04-25T08:22:54Z</time></trkpt><trkpt lat="39.70730686885597" lon="8.986719996006718"><ele>210.33333333333334</ele><time>2026-04-25T08:22:55Z</time></trkpt><trkpt lat="39.70727656177296" lon="8.987004224094242"><ele>211.66666666666669</ele><time>2026-04-25T08:22:56Z</time></trkpt><trkpt lat="39.70724779867244" lon="8.987287016357323"><ele>213.0</ele><time>2026-04-25T08:22:57Z</time></trkpt><trkpt lat="39.707218674042394" lon="8.987572954508437"><ele>214.0</ele><time>2026-04-25T08:22:58Z</time></trkpt><trkpt lat="39.70718864777614" lon="8.987860105594327"><ele>215.0</ele><time>2026-04-25T08:22:59Z</time></trkpt><trkpt lat="39.707160421253676" lon="8.988149148462526"><ele>216.0</ele><time>2026-04-25T08:23:00Z</time></trkpt><trkpt lat="39.70713463697975" lon="8.98844183931333"><ele>217.66666666666669</ele><time>2026-04-25T08:23:01Z</time></trkpt><trkpt lat="39.70710902967039" lon="8.988734217835962"><ele>219.33333333333334</ele><time>2026-04-25T08:23:02Z</time></trkpt><trkpt lat="39.70708077008343" lon="8.98902167889234"><ele>221.0</ele><time>2026-04-25T08:23:03Z</time></trkpt><trkpt lat="39.707055246649126" lon="8.989289236998715"><ele>222.66666666666669</ele><time>2026-04-25T08:23:04Z</time></trkpt><trkpt lat="39.70703215943666" lon="8.98954225459876"><ele>224.33333333333331</ele><time>2026-04-25T08:23:05Z</time></trkpt><trkpt lat="39.70700742390315" lon="8.989785908022542"><ele>226.0</ele><time>2026-04-25T08:23:06Z</time></trkpt><trkpt lat="39.70697586334441" lon="8.990006423003264"><ele>225.33333333333331</ele><time>2026-04-25T08:23:07Z</time></trkpt><trkpt lat="39.70694813063068" lon="8.990215408819225"><ele>224.66666666666669</ele><time>2026-04-25T08:23:08Z</time></trkpt><trkpt lat="39.70691810824157" lon="8.990400372758325"><ele>224.0</ele><time>2026-04-25T08:23:09Z</time></trkpt><trkpt lat="39.70687199322218" lon="8.990575059762246"><ele>224.0</ele><time>2026-04-25T08:23:10Z</time></trkpt><trkpt lat="39.70681554501914" lon="8.990740376561337"><ele>224.0</ele><time>2026-04-25T08:23:11Z</time></trkpt><trkpt lat="39.70675826932536" lon="8.990898894851963"><ele>224.0</ele><time>2026-04-25T08:23:12Z</time></trkpt><trkpt lat="39.70669072353889" lon="8.99105234663241"><ele>224.0</ele><time>2026-04-25T08:23:13Z</time></trkpt><trkpt lat="39.706615873184504" lon="8.991194483594454"><ele>225.0</ele><time>2026-04-25T08:23:14Z</time></trkpt><trkpt lat="39.70654285409185" lon="8.991330006097769"><ele>226.0</ele><time>2026-04-25T08:23:15Z</time></trkpt><trkpt lat="39.70647643137223" lon="8.991457155884806"><ele>227.0</ele><time>2026-04-25T08:23:16Z</time></trkpt><trkpt lat="39.706412459038106" lon="8.991580505546525"><ele>228.0</ele><time>2026-04-25T08:23:17Z</time></trkpt><trkpt lat="39.70634917618915" lon="8.991700888249609"><ele>227.4</ele><time>2026-04-25T08:23:18Z</time></trkpt><trkpt lat="39.706285321972196" lon="8.99181220840861"><ele>226.8</ele><time>2026-04-25T08:23:19Z</time></trkpt><trkpt lat="39.70622329746887" lon="8.991921871529847"><ele>226.2</ele><time>2026-04-25T08:23:20Z</time></trkpt><trkpt lat="39.70616830949275" lon="8.992030836277507"><ele>225.6</ele><time>2026-04-25T08:23:21Z</time></trkpt><trkpt lat="39.706113285865165" lon="8.992136923733485"><ele>225.0</ele><time>2026-04-25T08:23:22Z</time></trkpt><trkpt lat="39.706057696057755" lon="8.992236741077225"><ele>225.0</ele><time>2026-04-25T08:23:23Z</time></trkpt><trkpt lat="39.70600253644113" lon="8.992335950629325"><ele>225.0</ele><time>2026-04-25T08:23:24Z</time></trkpt><trkpt lat="39.70594908138283" lon="8.992430174714745"><ele>225.0</ele><time>2026-04-25T08:23:25Z</time></trkpt><trkpt lat="39.70589631411509" lon="8.99252170904274"><ele>225.0</ele><time>2026-04-25T08:23:26Z</time></trkpt><trkpt lat="39.70584679697785" lon="8.992614385844679"><ele>225.0</ele><time>2026-04-25T08:23:27Z</time></trkpt><trkpt lat="39.70579990210919" lon="8.992700348520394"><ele>225.0</ele><time>2026-04-25T08:23:28Z</time></trkpt><trkpt lat="39.70575919974919" lon="8.992783438082903"><ele>224.8571428571429</ele><time>2026-04-25T08:23:29Z</time></trkpt><trkpt lat="39.70572023850649" lon="8.992870824951565"><ele>224.71428571428572</ele><time>2026-04-25T08:23:30Z</time></trkpt><trkpt lat="39.70568646337866" lon="8.992955435112114"><ele>224.57142857142858</ele><time>2026-04-25T08:23:31Z</time></trkpt><trkpt lat="39.70566267180046" lon="8.993045080289786"><ele>224.42857142857144</ele><time>2026-04-25T08:23:32Z</time></trkpt><trkpt lat="39.70564374860943" lon="8.993131256265507"><ele>224.28571428571428</ele><time>2026-04-25T08:23:33Z</time></trkpt><trkpt lat="39.70562681161152" lon="8.993219366710385"><ele>224.14285714285714</ele><time>2026-04-25T08:23:34Z</time></trkpt><trkpt lat="39.70561315549842" lon="8.993308976027222"><ele>224.0</ele><time>2026-04-25T08:23:35Z</time></trkpt><trkpt lat="39.705600116850675" lon="8.99340213027684"><ele>223.57142857142858</ele><time>2026-04-25T08:23:36Z</time></trkpt><trkpt lat="39.705589463301585" lon="8.99349947523554"><ele>223.14285714285714</ele><time>2026-04-25T08:23:37Z</time></trkpt><trkpt lat="39.70558796714411" lon="8.993594743360553"><ele>222.71428571428572</ele><time>2026-04-25T08:23:38Z</time></trkpt><trkpt lat="39.705590342940326" lon="8.993691461666414"><ele>222.28571428571428</ele><time>2026-04-25T08:23:39Z</time></trkpt><trkpt lat="39.70559683139487" lon="8.993789489716994"><ele>221.85714285714286</ele><time>2026-04-25T08:23:40Z</time></trkpt><trkpt lat="39.705605274761595" lon="8.993884009134055"><ele>221.42857142857144</ele><time>2026-04-25T08:23:41Z</time></trkpt><trkpt lat="39.70561372362334" lon="8.993979505289504"><ele>221.0</ele><time>2026-04-25T08:23:42Z</time></trkpt><trkpt lat="39.70562482697994" lon="8.99409056306267"><ele>220.66666666666669</ele><time>2026-04-25T08:23:43Z</time></trkpt><trkpt lat="39.70563917604722" lon="8.994191193725978"><ele>220.33333333333334</ele><time>2026-04-25T08:23:44Z</time></trkpt><trkpt lat="39.70565500076095" lon="8.994293684267163"><ele>220.0</ele><time>2026-04-25T08:23:45Z</time></trkpt><trkpt lat="39.70566848677819" lon="8.994402547316684"><ele>219.66666666666669</ele><time>2026-04-25T08:23:46Z</time></trkpt><trkpt lat="39.70568022837794" lon="8.994509730064117"><ele>219.33333333333334</ele><time>2026-04-25T08:23:47Z</time></trkpt><trkpt lat="39.70569082337106" lon="8.994614719458026"><ele>219.0</ele><time>2026-04-25T08:23:48Z</time></trkpt><trkpt lat="39.70569920085068" lon="8.994723332310034"><ele>219.0</ele><time>2026-04-25T08:23:49Z</time></trkpt><trkpt lat="39.70570441596521" lon="8.994845400296043"><ele>219.0</ele><time>2026-04-25T08:23:50Z</time></trkpt><trkpt lat="39.705701941021935" lon="8.994960305359742"><ele>219.0</ele><time>2026-04-25T08:23:51Z</time></trkpt><trkpt lat="39.70569262062776" lon="8.995071019978637"><ele>219.0</ele><time>2026-04-25T08:23:52Z</time></trkpt><trkpt lat="39.7056780341988" lon="8.995184026228456"><ele>219.0</ele><time>2026-04-25T08:23:53Z</time></trkpt><trkpt lat="39.70565647230916" lon="8.995297917498508"><ele>219.0</ele><time>2026-04-25T08:23:54Z</time></trkpt><trkpt lat="39.70562757180542" lon="8.995410860683991"><ele>218.6</ele><time>2026-04-25T08:23:55Z</time></trkpt><trkpt lat="39.70559344293272" lon="8.995526591731236"><ele>218.2</ele><time>2026-04-25T08:23:56Z</time></trkpt><trkpt lat="39.70556132964741" lon="8.995644102573895"><ele>217.79999999999998</ele><time>2026-04-25T08:23:57Z</time></trkpt><trkpt lat="39.705521477787364" lon="8.995762231742741"><ele>217.39999999999998</ele><time>2026-04-25T08:23:58Z</time></trkpt><trkpt lat="39.70547281090403" lon="8.995883447050925"><ele>217.0</ele><time>2026-04-25T08:23:59Z</time></trkpt><trkpt lat="39.70542367126526" lon="8.996003819253131"><ele>216.39999999999998</ele><time>2026-04-25T08:24:00Z</time></trkpt><trkpt lat="39.70537196695244" lon="8.996121161929098"><ele>215.79999999999998</ele><time>2026-04-25T08:24:01Z</time></trkpt><trkpt lat="39.7053207356637" lon="8.99624186497798"><ele>215.2</ele><time>2026-04-25T08:24:02Z</time></trkpt><trkpt lat="39.705269151873864" lon="8.996361043470248"><ele>214.6</ele><time>2026-04-25T08:24:03Z</time></trkpt><trkpt lat="39.70521094058197" lon="8.996477095311953"><ele>214.0</ele><time>2026-04-25T08:24:04Z</time></trkpt><trkpt lat="39.70514384712047" lon="8.99658384399518"><ele>212.39999999999998</ele><time>2026-04-25T08:24:05Z</time></trkpt><trkpt lat="39.70507629645959" lon="8.996692682701811"><ele>210.79999999999998</ele><time>2026-04-25T08:24:06Z</time></trkpt><trkpt lat="39.7050052729355" lon="8.996799804241748"><ele>209.2</ele><time>2026-04-25T08:24:07Z</time></trkpt><trkpt lat="39.704931690295766" lon="8.996903190340202"><ele>207.60000000000002</ele><time>2026-04-25T08:24:08Z</time></trkpt><trkpt lat="39.70485469845911" lon="8.99700581565126"><ele>206.0</ele><time>2026-04-25T08:24:09Z</time></trkpt><trkpt lat="39.704776655094314" lon="8.997110335152055"><ele>206.0</ele><time>2026-04-25T08:24:10Z</time></trkpt><trkpt lat="39.70470095101829" lon="8.997215099645757"><ele>206.0</ele><time>2026-04-25T08:24:11Z</time></trkpt><trkpt lat="39.704624094763766" lon="8.997321018301365"><ele>206.0</ele><time>2026-04-25T08:24:12Z</time></trkpt><trkpt lat="39.70455090124789" lon="8.997431412856756"><ele>206.0</ele><time>2026-04-25T08:24:13Z</time></trkpt><trkpt lat="39.70448551240465" lon="8.997551617428355"><ele>206.0</ele><time>2026-04-25T08:24:14Z</time></trkpt><trkpt lat="39.70442354259111" lon="8.997674024034575"><ele>204.8</ele><time>2026-04-25T08:24:15Z</time></trkpt><trkpt lat="39.70436450413277" lon="8.997797316677234"><ele>203.60000000000002</ele><time>2026-04-25T08:24:16Z</time></trkpt><trkpt lat="39.70431513127714" lon="8.997924264889313"><ele>202.4</ele><time>2026-04-25T08:24:17Z</time></trkpt><trkpt lat="39.70427128821064" lon="8.998054152016893"><ele>201.2</ele><time>2026-04-25T08:24:18Z</time></trkpt><trkpt lat="39.70423229150109" lon="8.998188486083727"><ele>200.0</ele><time>2026-04-25T08:24:19Z</time></trkpt><trkpt lat="39.70419519024453" lon="8.998322778855039"><ele>200.2</ele><time>2026-04-25T08:24:20Z</time></trkpt><trkpt lat="39.70416038817044" lon="8.998453221401757"><ele>200.4</ele><time>2026-04-25T08:24:21Z</time></trkpt><trkpt lat="39.704132771322165" lon="8.998583665399304"><ele>200.60000000000002</ele><time>2026-04-25T08:24:22Z</time></trkpt><trkpt lat="39.704106581273216" lon="8.998710773667174"><ele>200.8</ele><time>2026-04-25T08:24:23Z</time></trkpt><trkpt lat="39.70407859191141" lon="8.998831934033008"><ele>201.0</ele><time>2026-04-25T08:24:24Z</time></trkpt><trkpt lat="39.70405219007974" lon="8.99895025454248"><ele>201.0</ele><time>2026-04-25T08:24:25Z</time></trkpt><trkpt lat="39.70402573576654" lon="8.999068500798554"><ele>201.0</ele><time>2026-04-25T08:24:26Z</time></trkpt><trkpt lat="39.7040018143459" lon="8.999184086341337"><ele>201.0</ele><time>2026-04-25T08:24:27Z</time></trkpt><trkpt lat="39.70397707419118" lon="8.99930097239361"><ele>201.0</ele><time>2026-04-25T08:24:28Z</time></trkpt><trkpt lat="39.7039507659826" lon="8.999415641837954"><ele>201.0</ele><time>2026-04-25T08:24:29Z</time></trkpt><trkpt lat="39.703924861250556" lon="8.999529397241648"><ele>201.20000000000002</ele><time>2026-04-25T08:24:30Z</time></trkpt><trkpt lat="39.703899359463776" lon="8.999643859358917"><ele>201.4</ele><time>2026-04-25T08:24:31Z</time></trkpt><trkpt lat="39.70387290522178" lon="8.999759093651724"><ele>201.6</ele><time>2026-04-25T08:24:32Z</time></trkpt><trkpt lat="39.70384744241969" lon="8.99987235211636"><ele>201.8</ele><time>2026-04-25T08:24:33Z</time></trkpt><trkpt lat="39.70382542786375" lon="8.999987578202887"><ele>202.0</ele><time>2026-04-25T08:24:34Z</time></trkpt><trkpt lat="39.70380345593773" lon="9.00009910082296"><ele>201.99999999999997</ele><time>2026-04-25T08:24:35Z</time></trkpt><trkpt lat="39.7037816168952" lon="9.00020862181218"><ele>202.0</ele><time>2026-04-25T08:24:36Z</time></trkpt><trkpt lat="39.703759563113444" lon="9.000315086768317"><ele>202.0</ele><time>2026-04-25T08:24:37Z</time></trkpt><trkpt lat="39.703735004066495" lon="9.000424814802159"><ele>202.0</ele><time>2026-04-25T08:24:38Z</time></trkpt><trkpt lat="39.70370832752574" lon="9.000529378107487"><ele>201.99999999999997</ele><time>2026-04-25T08:24:39Z</time></trkpt><trkpt lat="39.70368465154345" lon="9.000634826822141"><ele>202.0</ele><time>2026-04-25T08:24:40Z</time></trkpt><trkpt lat="39.703663248263425" lon="9.000733351506325"><ele>202.0</ele><time>2026-04-25T08:24:41Z</time></trkpt><trkpt lat="39.7036404164915" lon="9.000824281392516"><ele>202.0</ele><time>2026-04-25T08:24:42Z</time></trkpt><trkpt lat="39.70362171082113" lon="9.00091246782837"><ele>202.0</ele><time>2026-04-25T08:24:43Z</time></trkpt><trkpt lat="39.703603285613994" lon="9.000991907982469"><ele>202.0</ele><time>2026-04-25T08:24:44Z</time></trkpt><trkpt lat="39.70358698299802" lon="9.001073072053009"><ele>202.0</ele><time>2026-04-25T08:24:45Z</time></trkpt><trkpt lat="39.703561076876646" lon="9.001177709285477"><ele>202.0</ele><time>2026-04-25T08:24:47Z</time></trkpt><trkpt lat="39.703504252504544" lon="9.001238600442335"><ele>202.0</ele><time>2026-04-25T08:24:51Z</time></trkpt><trkpt lat="39.70343318730654" lon="9.001228560655495"><ele>202.39999999999998</ele><time>2026-04-25T08:24:55Z</time></trkpt><trkpt lat="39.70334756192898" lon="9.001196858552921"><ele>202.79999999999998</ele><time>2026-04-25T08:24:59Z</time></trkpt><trkpt lat="39.703272417353745" lon="9.001181766084976"><ele>203.2</ele><time>2026-04-25T08:25:01Z</time></trkpt><trkpt lat="39.703182562888436" lon="9.001161175715831"><ele>203.6</ele><time>2026-04-25T08:25:03Z</time></trkpt><trkpt lat="39.70307293003193" lon="9.00113591929216"><ele>204.0</ele><time>2026-04-25T08:25:05Z</time></trkpt><trkpt lat="39.702962619538184" lon="9.001114732061357"><ele>204.0</ele><time>2026-04-25T08:25:07Z</time></trkpt><trkpt lat="39.702853701037924" lon="9.001085996960006"><ele>204.0</ele><time>2026-04-25T08:25:09Z</time></trkpt><trkpt lat="39.70274441913269" lon="9.001065746072166"><ele>204.0</ele><time>2026-04-25T08:25:11Z</time></trkpt><trkpt lat="39.70263743775705" lon="9.001059996628982"><ele>204.0</ele><time>2026-04-25T08:25:13Z</time></trkpt><trkpt lat="39.702540001231895" lon="9.001059797851296"><ele>204.0</ele><time>2026-04-25T08:25:15Z</time></trkpt><trkpt lat="39.70243007329086" lon="9.001074041738088"><ele>204.2</ele><time>2026-04-25T08:25:17Z</time></trkpt><trkpt lat="39.70230924243043" lon="9.001104817368448"><ele>204.39999999999998</ele><time>2026-04-25T08:25:19Z</time></trkpt><trkpt lat="39.702245369717936" lon="9.00112856048589"><ele>204.6</ele><time>2026-04-25T08:25:20Z</time></trkpt><trkpt lat="39.70218015012482" lon="9.00115143198388"><ele>204.8</ele><time>2026-04-25T08:25:21Z</time></trkpt><trkpt lat="39.70211794140637" lon="9.001169861406673"><ele>205.0</ele><time>2026-04-25T08:25:22Z</time></trkpt><trkpt lat="39.70199417259055" lon="9.00121677096151"><ele>204.99999999999997</ele><time>2026-04-25T08:25:24Z</time></trkpt><trkpt lat="39.70192282667859" lon="9.00121993756722"><ele>205.0</ele><time>2026-04-25T08:25:25Z</time></trkpt><trkpt lat="39.70185211672971" lon="9.001244845837316"><ele>205.0</ele><time>2026-04-25T08:25:26Z</time></trkpt><trkpt lat="39.70178127828761" lon="9.001287921243328"><ele>205.0</ele><time>2026-04-25T08:25:27Z</time></trkpt><trkpt lat="39.70170034875663" lon="9.001282855679339"><ele>204.99999999999997</ele><time>2026-04-25T08:25:28Z</time></trkpt><trkpt lat="39.701625100781115" lon="9.001308453115847"><ele>205.0</ele><time>2026-04-25T08:25:29Z</time></trkpt><trkpt lat="39.701552716176984" lon="9.001302416589258"><ele>204.33333333333331</ele><time>2026-04-25T08:25:30Z</time></trkpt><trkpt lat="39.70148307482494" lon="9.001294450114152"><ele>203.66666666666666</ele><time>2026-04-25T08:25:31Z</time></trkpt><trkpt lat="39.70141344869822" lon="9.001287228064193"><ele>203.0</ele><time>2026-04-25T08:25:32Z</time></trkpt><trkpt lat="39.7013291929801" lon="9.001261628878801"><ele>202.33333333333331</ele><time>2026-04-25T08:25:33Z</time></trkpt><trkpt lat="39.70123739108686" lon="9.001209289789935"><ele>201.66666666666666</ele><time>2026-04-25T08:25:34Z</time></trkpt><trkpt lat="39.7011375920003" lon="9.001137106671361"><ele>201.0</ele><time>2026-04-25T08:25:35Z</time></trkpt><trkpt lat="39.70103955415782" lon="9.001052052468044"><ele>200.5</ele><time>2026-04-25T08:25:36Z</time></trkpt><trkpt lat="39.70094284028025" lon="9.000949871132962"><ele>200.0</ele><time>2026-04-25T08:25:37Z</time></trkpt><trkpt lat="39.70084257546124" lon="9.000834683749334"><ele>199.5</ele><time>2026-04-25T08:25:38Z</time></trkpt><trkpt lat="39.7007370536562" lon="9.000717161816693"><ele>199.0</ele><time>2026-04-25T08:25:39Z</time></trkpt><trkpt lat="39.70061717333426" lon="9.000609176469823"><ele>196.33333333333331</ele><time>2026-04-25T08:25:40Z</time></trkpt><trkpt lat="39.70049494304049" lon="9.00049353863449"><ele>193.66666666666666</ele><time>2026-04-25T08:25:41Z</time></trkpt><trkpt lat="39.700349389975564" lon="9.000414505355728"><ele>191.0</ele><time>2026-04-25T08:25:42Z</time></trkpt><trkpt lat="39.7001965542553" lon="9.000349483519821"><ele>191.0</ele><time>2026-04-25T08:25:43Z</time></trkpt><trkpt lat="39.70003327264607" lon="9.0003256984372"><ele>191.0</ele><time>2026-04-25T08:25:44Z</time></trkpt><trkpt lat="39.69987126805185" lon="9.00028723363846"><ele>191.0</ele><time>2026-04-25T08:25:45Z</time></trkpt><trkpt lat="39.69971425155359" lon="9.000255084896196"><ele>191.0</ele><time>2026-04-25T08:25:46Z</time></trkpt><trkpt lat="39.69954292415611" lon="9.000187651608629"><ele>191.0</ele><time>2026-04-25T08:25:47Z</time></trkpt><trkpt lat="39.6993847875073" lon="9.000108911312282"><ele>191.0</ele><time>2026-04-25T08:25:48Z</time></trkpt><trkpt lat="39.69922992116564" lon="9.000021008515208"><ele>189.66666666666666</ele><time>2026-04-25T08:25:49Z</time></trkpt><trkpt lat="39.699070564635996" lon="8.99993208289224"><ele>188.33333333333334</ele><time>2026-04-25T08:25:50Z</time></trkpt><trkpt lat="39.69891186512094" lon="8.999833286590325"><ele>187.0</ele><time>2026-04-25T08:25:51Z</time></trkpt><trkpt lat="39.6987561086371" lon="8.999728579363827"><ele>187.0</ele><time>2026-04-25T08:25:52Z</time></trkpt><trkpt lat="39.69860095853347" lon="8.999619868253006"><ele>187.0</ele><time>2026-04-25T08:25:53Z</time></trkpt><trkpt lat="39.69844895607088" lon="8.999509054528588"><ele>187.0</ele><time>2026-04-25T08:25:54Z</time></trkpt><trkpt lat="39.69829851068535" lon="8.99939485765436"><ele>186.0</ele><time>2026-04-25T08:25:55Z</time></trkpt><trkpt lat="39.69815271875651" lon="8.999279755479858"><ele>185.0</ele><time>2026-04-25T08:25:56Z</time></trkpt><trkpt lat="39.69800702161284" lon="8.999166611182075"><ele>184.0</ele><time>2026-04-25T08:25:57Z</time></trkpt><trkpt lat="39.6978636705483" lon="8.999055448374436"><ele>184.0</ele><time>2026-04-25T08:25:58Z</time></trkpt><trkpt lat="39.6977208116562" lon="8.998943147696219"><ele>184.0</ele><time>2026-04-25T08:25:59Z</time></trkpt><trkpt lat="39.69757993180798" lon="8.998829153242783"><ele>184.0</ele><time>2026-04-25T08:26:00Z</time></trkpt><trkpt lat="39.69744051889218" lon="8.998716591910435"><ele>184.0</ele><time>2026-04-25T08:26:01Z</time></trkpt><trkpt lat="39.697296944169715" lon="8.998603334529456"><ele>184.0</ele><time>2026-04-25T08:26:02Z</time></trkpt><trkpt lat="39.69715195904242" lon="8.998493899133125"><ele>184.0</ele><time>2026-04-25T08:26:03Z</time></trkpt><trkpt lat="39.69700760414754" lon="8.998387779115903"><ele>183.66666666666669</ele><time>2026-04-25T08:26:04Z</time></trkpt><trkpt lat="39.69686019669913" lon="8.998277526087398"><ele>183.33333333333334</ele><time>2026-04-25T08:26:05Z</time></trkpt><trkpt lat="39.69671433389076" lon="8.99816706336664"><ele>183.0</ele><time>2026-04-25T08:26:06Z</time></trkpt><trkpt lat="39.69656833735751" lon="8.99805443662289"><ele>183.0</ele><time>2026-04-25T08:26:07Z</time></trkpt><trkpt lat="39.69642272975777" lon="8.997937930190204"><ele>183.0</ele><time>2026-04-25T08:26:08Z</time></trkpt><trkpt lat="39.69627725941531" lon="8.997818892360456"><ele>183.0</ele><time>2026-04-25T08:26:09Z</time></trkpt><trkpt lat="39.69613009793169" lon="8.99770041751677"><ele>183.0</ele><time>2026-04-25T08:26:10Z</time></trkpt><trkpt lat="39.69598311507202" lon="8.997583287843172"><ele>183.0</ele><time>2026-04-25T08:26:11Z</time></trkpt><trkpt lat="39.695834584565034" lon="8.997468356013735"><ele>183.0</ele><time>2026-04-25T08:26:12Z</time></trkpt><trkpt lat="39.69568422076288" lon="8.99735730525494"><ele>183.0</ele><time>2026-04-25T08:26:13Z</time></trkpt><trkpt lat="39.695532538562084" lon="8.99724614870421"><ele>183.0</ele><time>2026-04-25T08:26:14Z</time></trkpt><trkpt lat="39.69538172570408" lon="8.997133355397203"><ele>183.0</ele><time>2026-04-25T08:26:15Z</time></trkpt><trkpt lat="39.69523095184648" lon="8.99701764665556"><ele>182.66666666666666</ele><time>2026-04-25T08:26:16Z</time></trkpt><trkpt lat="39.695079225440765" lon="8.996898511326"><ele>182.33333333333331</ele><time>2026-04-25T08:26:17Z</time></trkpt><trkpt lat="39.69492692146439" lon="8.99678130491195"><ele>182.0</ele><time>2026-04-25T08:26:18Z</time></trkpt><trkpt lat="39.69477510254721" lon="8.996663552855988"><ele>182.0</ele><time>2026-04-25T08:26:19Z</time></trkpt><trkpt lat="39.694622743302496" lon="8.99654576791647"><ele>182.0</ele><time>2026-04-25T08:26:20Z</time></trkpt><trkpt lat="39.694469792277204" lon="8.99642673605673"><ele>182.0</ele><time>2026-04-25T08:26:21Z</time></trkpt><trkpt lat="39.69431648883645" lon="8.996305085440335"><ele>181.0</ele><time>2026-04-25T08:26:22Z</time></trkpt><trkpt lat="39.6941637597975" lon="8.9961824331889"><ele>180.0</ele><time>2026-04-25T08:26:23Z</time></trkpt><trkpt lat="39.694011724613354" lon="8.996059837335679"><ele>179.0</ele><time>2026-04-25T08:26:24Z</time></trkpt><trkpt lat="39.6938577138495" lon="8.995938709935366"><ele>178.66666666666666</ele><time>2026-04-25T08:26:25Z</time></trkpt><trkpt lat="39.693701895744" lon="8.99581605283079"><ele>178.33333333333334</ele><time>2026-04-25T08:26:26Z</time></trkpt><trkpt lat="39.6935433252803" lon="8.995690459395652"><ele>178.0</ele><time>2026-04-25T08:26:27Z</time></trkpt><trkpt lat="39.693385352289084" lon="8.995566678628709"><ele>178.0</ele><time>2026-04-25T08:26:28Z</time></trkpt><trkpt lat="39.693224715115605" lon="8.995442774084106"><ele>178.0</ele><time>2026-04-25T08:26:29Z</time></trkpt><trkpt lat="39.69305984761086" lon="8.995317455361072"><ele>178.0</ele><time>2026-04-25T08:26:30Z</time></trkpt><trkpt lat="39.69289707385438" lon="8.995193303246346"><ele>177.0</ele><time>2026-04-25T08:26:31Z</time></trkpt><trkpt lat="39.69273421136563" lon="8.995068596576763"><ele>176.0</ele><time>2026-04-25T08:26:32Z</time></trkpt><trkpt lat="39.69257100682803" lon="8.994941288120382"><ele>175.0</ele><time>2026-04-25T08:26:33Z</time></trkpt><trkpt lat="39.69240931320165" lon="8.994815473848002"><ele>174.33333333333334</ele><time>2026-04-25T08:26:34Z</time></trkpt><trkpt lat="39.69225190731144" lon="8.99468795928883"><ele>173.66666666666666</ele><time>2026-04-25T08:26:35Z</time></trkpt><trkpt lat="39.692093557323076" lon="8.994565236252777"><ele>173.0</ele><time>2026-04-25T08:26:36Z</time></trkpt><trkpt lat="39.69193653235709" lon="8.99444510971885"><ele>173.66666666666666</ele><time>2026-04-25T08:26:37Z</time></trkpt><trkpt lat="39.691783534757825" lon="8.994325712940961"><ele>174.33333333333334</ele><time>2026-04-25T08:26:38Z</time></trkpt><trkpt lat="39.69162917964495" lon="8.994203324633713"><ele>175.0</ele><time>2026-04-25T08:26:39Z</time></trkpt><trkpt lat="39.691477234478256" lon="8.994083620403885"><ele>175.33333333333334</ele><time>2026-04-25T08:26:40Z</time></trkpt><trkpt lat="39.69132586774878" lon="8.993964362305848"><ele>175.66666666666666</ele><time>2026-04-25T08:26:41Z</time></trkpt><trkpt lat="39.69117399667187" lon="8.99384344948767"><ele>176.0</ele><time>2026-04-25T08:26:42Z</time></trkpt><trkpt lat="39.691020760065776" lon="8.993719286593784"><ele>176.0</ele><time>2026-04-25T08:26:43Z</time></trkpt><trkpt lat="39.690867197514464" lon="8.993598097791935"><ele>176.0</ele><time>2026-04-25T08:26:44Z</time></trkpt><trkpt lat="39.69071033665519" lon="8.9934761414626"><ele>176.0</ele><time>2026-04-25T08:26:45Z</time></trkpt><trkpt lat="39.69055095287857" lon="8.993351962069696"><ele>175.66666666666666</ele><time>2026-04-25T08:26:46Z</time></trkpt><trkpt lat="39.69039153777611" lon="8.993225647259639"><ele>175.33333333333334</ele><time>2026-04-25T08:26:47Z</time></trkpt><trkpt lat="39.69023134223108" lon="8.993098085874568"><ele>175.0</ele><time>2026-04-25T08:26:48Z</time></trkpt><trkpt lat="39.690067680991525" lon="8.992965619221067"><ele>174.0</ele><time>2026-04-25T08:26:49Z</time></trkpt><trkpt lat="39.689908311041755" lon="8.992835346735838"><ele>173.0</ele><time>2026-04-25T08:26:50Z</time></trkpt><trkpt lat="39.68974973486846" lon="8.992704733439773"><ele>172.0</ele><time>2026-04-25T08:26:51Z</time></trkpt><trkpt lat="39.689589357141436" lon="8.992577539462314"><ele>171.0</ele><time>2026-04-25T08:26:52Z</time></trkpt><trkpt lat="39.68942642564772" lon="8.992452934193775"><ele>170.0</ele><time>2026-04-25T08:26:53Z</time></trkpt><trkpt lat="39.68926200907799" lon="8.992328712604966"><ele>169.0</ele><time>2026-04-25T08:26:54Z</time></trkpt><trkpt lat="39.68910053020929" lon="8.992203734631833"><ele>168.33333333333334</ele><time>2026-04-25T08:26:55Z</time></trkpt><trkpt lat="39.688941562858695" lon="8.992075555260149"><ele>167.66666666666666</ele><time>2026-04-25T08:26:56Z</time></trkpt><trkpt lat="39.68878264241599" lon="8.991947619741133"><ele>167.0</ele><time>2026-04-25T08:26:57Z</time></trkpt><trkpt lat="39.68862266976102" lon="8.991819810178864"><ele>165.66666666666666</ele><time>2026-04-25T08:26:58Z</time></trkpt><trkpt lat="39.688463358894076" lon="8.991690452794607"><ele>164.33333333333334</ele><time>2026-04-25T08:26:59Z</time></trkpt><trkpt lat="39.68830663709934" lon="8.99156428589865"><ele>163.0</ele><time>2026-04-25T08:27:00Z</time></trkpt><trkpt lat="39.68814876678652" lon="8.991436052871354"><ele>161.66666666666669</ele><time>2026-04-25T08:27:01Z</time></trkpt><trkpt lat="39.687991010311386" lon="8.991310634729652"><ele>160.33333333333334</ele><time>2026-04-25T08:27:02Z</time></trkpt><trkpt lat="39.687831738335724" lon="8.9911867367598"><ele>159.0</ele><time>2026-04-25T08:27:03Z</time></trkpt><trkpt lat="39.68767130760965" lon="8.991063742138394"><ele>158.66666666666666</ele><time>2026-04-25T08:27:04Z</time></trkpt><trkpt lat="39.68751321958941" lon="8.990941885008743"><ele>158.33333333333331</ele><time>2026-04-25T08:27:05Z</time></trkpt><trkpt lat="39.687354304757726" lon="8.99081321028761"><ele>158.0</ele><time>2026-04-25T08:27:06Z</time></trkpt><trkpt lat="39.68719510346369" lon="8.990683920197371"><ele>158.0</ele><time>2026-04-25T08:27:07Z</time></trkpt><trkpt lat="39.687036588972454" lon="8.990560858175881"><ele>158.0</ele><time>2026-04-25T08:27:08Z</time></trkpt><trkpt lat="39.686874953359286" lon="8.990434279587719"><ele>158.0</ele><time>2026-04-25T08:27:09Z</time></trkpt><trkpt lat="39.68671715813819" lon="8.990309020622938"><ele>157.66666666666666</ele><time>2026-04-25T08:27:10Z</time></trkpt><trkpt lat="39.68656140807375" lon="8.99018451185231"><ele>157.33333333333334</ele><time>2026-04-25T08:27:11Z</time></trkpt><trkpt lat="39.6864037650218" lon="8.990058743913428"><ele>157.0</ele><time>2026-04-25T08:27:12Z</time></trkpt><trkpt lat="39.686250352164286" lon="8.989939515317042"><ele>156.33333333333334</ele><time>2026-04-25T08:27:13Z</time></trkpt><trkpt lat="39.68609504720869" lon="8.989815152739594"><ele>155.66666666666666</ele><time>2026-04-25T08:27:14Z</time></trkpt><trkpt lat="39.68594090546496" lon="8.989690777216508"><ele>155.0</ele><time>2026-04-25T08:27:15Z</time></trkpt><trkpt lat="39.68578681426226" lon="8.989564689204224"><ele>155.0</ele><time>2026-04-25T08:27:16Z</time></trkpt><trkpt lat="39.68563150218505" lon="8.989441629500822"><ele>155.0</ele><time>2026-04-25T08:27:17Z</time></trkpt><trkpt lat="39.685476323892985" lon="8.989322956568447"><ele>155.0</ele><time>2026-04-25T08:27:18Z</time></trkpt><trkpt lat="39.685320201209095" lon="8.989200487393566"><ele>154.66666666666666</ele><time>2026-04-25T08:27:19Z</time></trkpt><trkpt lat="39.685167168883666" lon="8.98907889410662"><ele>154.33333333333334</ele><time>2026-04-25T08:27:20Z</time></trkpt><trkpt lat="39.685014740281865" lon="8.988955808188743"><ele>154.0</ele><time>2026-04-25T08:27:21Z</time></trkpt><trkpt lat="39.684860434056745" lon="8.988830421877866"><ele>154.0</ele><time>2026-04-25T08:27:22Z</time></trkpt><trkpt lat="39.6847082360726" lon="8.988711254242348"><ele>154.0</ele><time>2026-04-25T08:27:23Z</time></trkpt><trkpt lat="39.68455489488771" lon="8.988591127802088"><ele>154.0</ele><time>2026-04-25T08:27:24Z</time></trkpt><trkpt lat="39.68440208702102" lon="8.988468707347714"><ele>154.0</ele><time>2026-04-25T08:27:25Z</time></trkpt><trkpt lat="39.68425066505866" lon="8.9883499061985"><ele>154.0</ele><time>2026-04-25T08:27:26Z</time></trkpt><trkpt lat="39.6840992832943" lon="8.988234218694226"><ele>154.0</ele><time>2026-04-25T08:27:27Z</time></trkpt><trkpt lat="39.68395090884815" lon="8.988116833834379"><ele>154.0</ele><time>2026-04-25T08:27:28Z</time></trkpt><trkpt lat="39.683803186079665" lon="8.987995615095393"><ele>154.0</ele><time>2026-04-25T08:27:29Z</time></trkpt><trkpt lat="39.68365773248381" lon="8.987873686463576"><ele>154.0</ele><time>2026-04-25T08:27:30Z</time></trkpt><trkpt lat="39.68351225514344" lon="8.98775511560659"><ele>153.66666666666669</ele><time>2026-04-25T08:27:31Z</time></trkpt><trkpt lat="39.68336501074375" lon="8.987635950517728"><ele>153.33333333333334</ele><time>2026-04-25T08:27:32Z</time></trkpt><trkpt lat="39.68321999348092" lon="8.98751566698417"><ele>153.0</ele><time>2026-04-25T08:27:33Z</time></trkpt><trkpt lat="39.68307617164606" lon="8.98739874139131"><ele>153.0</ele><time>2026-04-25T08:27:34Z</time></trkpt><trkpt lat="39.68293159737301" lon="8.987282115817028"><ele>153.0</ele><time>2026-04-25T08:27:35Z</time></trkpt><trkpt lat="39.68278500705949" lon="8.987167840762629"><ele>153.0</ele><time>2026-04-25T08:27:36Z</time></trkpt><trkpt lat="39.682639352711945" lon="8.98705543414861"><ele>154.0</ele><time>2026-04-25T08:27:37Z</time></trkpt><trkpt lat="39.68249685193915" lon="8.98694181133459"><ele>155.0</ele><time>2026-04-25T08:27:38Z</time></trkpt><trkpt lat="39.68235693494853" lon="8.986830112551415"><ele>156.0</ele><time>2026-04-25T08:27:39Z</time></trkpt><trkpt lat="39.68221694892845" lon="8.986718375025603"><ele>156.0</ele><time>2026-04-25T08:27:40Z</time></trkpt><trkpt lat="39.682084042591214" lon="8.986612961960443"><ele>156.0</ele><time>2026-04-25T08:27:41Z</time></trkpt><trkpt lat="39.68195897717261" lon="8.986512195478863"><ele>156.0</ele><time>2026-04-25T08:27:42Z</time></trkpt><trkpt lat="39.681841219298725" lon="8.986416125072932"><ele>156.0</ele><time>2026-04-25T08:27:43Z</time></trkpt><trkpt lat="39.68172867019808" lon="8.986326837406281"><ele>156.0</ele><time>2026-04-25T08:27:44Z</time></trkpt><trkpt lat="39.68162169245397" lon="8.986245805739715"><ele>156.0</ele><time>2026-04-25T08:27:45Z</time></trkpt><trkpt lat="39.68152172629983" lon="8.986167325485132"><ele>156.0</ele><time>2026-04-25T08:27:46Z</time></trkpt><trkpt lat="39.68142888374128" lon="8.986088544681284"><ele>156.0</ele><time>2026-04-25T08:27:47Z</time></trkpt><trkpt lat="39.68133819831921" lon="8.986012019376076"><ele>156.0</ele><time>2026-04-25T08:27:48Z</time></trkpt><trkpt lat="39.68124627594099" lon="8.985940476292438"><ele>156.0</ele><time>2026-04-25T08:27:49Z</time></trkpt><trkpt lat="39.681156088911166" lon="8.985870075856734"><ele>156.0</ele><time>2026-04-25T08:27:50Z</time></trkpt><trkpt lat="39.68107017896798" lon="8.985800403686426"><ele>156.0</ele><time>2026-04-25T08:27:51Z</time></trkpt><trkpt lat="39.68098280562959" lon="8.985732262021566"><ele>156.0</ele><time>2026-04-25T08:27:52Z</time></trkpt><trkpt lat="39.68089483297682" lon="8.985666139191427"><ele>155.0</ele><time>2026-04-25T08:27:53Z</time></trkpt><trkpt lat="39.68080864501858" lon="8.985599259024342"><ele>154.0</ele><time>2026-04-25T08:27:54Z</time></trkpt><trkpt lat="39.68072335107632" lon="8.985531105703705"><ele>153.0</ele><time>2026-04-25T08:27:55Z</time></trkpt><trkpt lat="39.68063893330583" lon="8.985461794246424"><ele>152.0</ele><time>2026-04-25T08:27:56Z</time></trkpt><trkpt lat="39.68055208338517" lon="8.98539121851509"><ele>151.0</ele><time>2026-04-25T08:27:57Z</time></trkpt><trkpt lat="39.680466095987285" lon="8.98532534071988"><ele>151.0</ele><time>2026-04-25T08:27:58Z</time></trkpt><trkpt lat="39.68037954602766" lon="8.985257330411354"><ele>151.0</ele><time>2026-04-25T08:27:59Z</time></trkpt><trkpt lat="39.680289760767415" lon="8.985185983619926"><ele>151.0</ele><time>2026-04-25T08:28:00Z</time></trkpt><trkpt lat="39.680200823925716" lon="8.985113311899966"><ele>151.0</ele><time>2026-04-25T08:28:01Z</time></trkpt><trkpt lat="39.680114235515184" lon="8.985043793336208"><ele>151.0</ele><time>2026-04-25T08:28:02Z</time></trkpt><trkpt lat="39.680027567976616" lon="8.984976573077102"><ele>150.8</ele><time>2026-04-25T08:28:03Z</time></trkpt><trkpt lat="39.679946297172926" lon="8.984912336673258"><ele>150.6</ele><time>2026-04-25T08:28:04Z</time></trkpt><trkpt lat="39.67986472255843" lon="8.984847655149302"><ele>150.4</ele><time>2026-04-25T08:28:05Z</time></trkpt><trkpt lat="39.679785827030805" lon="8.984783661181357"><ele>150.2</ele><time>2026-04-25T08:28:06Z</time></trkpt><trkpt lat="39.679707702144036" lon="8.984723502095765"><ele>150.0</ele><time>2026-04-25T08:28:07Z</time></trkpt><trkpt lat="39.679627153844294" lon="8.984659652329276"><ele>150.0</ele><time>2026-04-25T08:28:08Z</time></trkpt><trkpt lat="39.679548119094584" lon="8.984597372209953"><ele>150.0</ele><time>2026-04-25T08:28:09Z</time></trkpt><trkpt lat="39.679470671697274" lon="8.98453675978007"><ele>150.0</ele><time>2026-04-25T08:28:10Z</time></trkpt><trkpt lat="39.67939201591198" lon="8.984476686852206"><ele>150.0</ele><time>2026-04-25T08:28:11Z</time></trkpt><trkpt lat="39.679312274851696" lon="8.984416309243695"><ele>150.0</ele><time>2026-04-25T08:28:12Z</time></trkpt><trkpt lat="39.67923245660716" lon="8.984353297288047"><ele>149.8</ele><time>2026-04-25T08:28:13Z</time></trkpt><trkpt lat="39.679152716862625" lon="8.984290032277432"><ele>149.6</ele><time>2026-04-25T08:28:14Z</time></trkpt><trkpt lat="39.67908407527046" lon="8.984209878042392"><ele>149.4</ele><time>2026-04-25T08:28:15Z</time></trkpt><trkpt lat="39.67900548487765" lon="8.984146340692051"><ele>149.2</ele><time>2026-04-25T08:28:16Z</time></trkpt><trkpt lat="39.67892746672465" lon="8.984082319290621"><ele>149.0</ele><time>2026-04-25T08:28:17Z</time></trkpt><trkpt lat="39.67884881003276" lon="8.984018153548574"><ele>149.0</ele><time>2026-04-25T08:28:18Z</time></trkpt><trkpt lat="39.67875990372919" lon="8.983970279325717"><ele>149.0</ele><time>2026-04-25T08:28:19Z</time></trkpt><trkpt lat="39.678680596192386" lon="8.983905884275176"><ele>149.0</ele><time>2026-04-25T08:28:20Z</time></trkpt><trkpt lat="39.678600597598546" lon="8.983838762735214"><ele>149.0</ele><time>2026-04-25T08:28:21Z</time></trkpt><trkpt lat="39.67852145797307" lon="8.98376886676722"><ele>149.0</ele><time>2026-04-25T08:28:22Z</time></trkpt><trkpt lat="39.678441602154685" lon="8.983699354207905"><ele>148.6</ele><time>2026-04-25T08:28:23Z</time></trkpt><trkpt lat="39.678358659601045" lon="8.983627726772376"><ele>148.2</ele><time>2026-04-25T08:28:24Z</time></trkpt><trkpt lat="39.67827421661998" lon="8.983555801846066"><ele>147.79999999999998</ele><time>2026-04-25T08:28:25Z</time></trkpt><trkpt lat="39.67818727003212" lon="8.983482257507498"><ele>147.4</ele><time>2026-04-25T08:28:26Z</time></trkpt><trkpt lat="39.67810002491321" lon="8.983408472034052"><ele>147.0</ele><time>2026-04-25T08:28:27Z</time></trkpt><trkpt lat="39.67801261522351" lon="8.983334965836013"><ele>147.0</ele><time>2026-04-25T08:28:28Z</time></trkpt><trkpt lat="39.67792436718966" lon="8.983260394713577"><ele>147.0</ele><time>2026-04-25T08:28:29Z</time></trkpt><trkpt lat="39.677835280452086" lon="8.983182757619257"><ele>147.0</ele><time>2026-04-25T08:28:30Z</time></trkpt><trkpt lat="39.6777447159927" lon="8.983104560026119"><ele>147.0</ele><time>2026-04-25T08:28:31Z</time></trkpt><trkpt lat="39.67765084205844" lon="8.98302831241917"><ele>147.0</ele><time>2026-04-25T08:28:32Z</time></trkpt><trkpt lat="39.677555681924126" lon="8.982950331365616"><ele>146.25</ele><time>2026-04-25T08:28:33Z</time></trkpt><trkpt lat="39.677459910272084" lon="8.982867986688433"><ele>145.5</ele><time>2026-04-25T08:28:34Z</time></trkpt><trkpt lat="39.67736239526323" lon="8.982782269304003"><ele>144.75</ele><time>2026-04-25T08:28:35Z</time></trkpt><trkpt lat="39.67726270690755" lon="8.982695685534601"><ele>144.0</ele><time>2026-04-25T08:28:36Z</time></trkpt><trkpt lat="39.67716067451847" lon="8.982610168241184"><ele>144.0</ele><time>2026-04-25T08:28:37Z</time></trkpt><trkpt lat="39.677057699010035" lon="8.982522233914782"><ele>144.0</ele><time>2026-04-25T08:28:38Z</time></trkpt><trkpt lat="39.67695405427023" lon="8.982433016072589"><ele>144.0</ele><time>2026-04-25T08:28:39Z</time></trkpt><trkpt lat="39.676849851522704" lon="8.982343847907767"><ele>144.0</ele><time>2026-04-25T08:28:40Z</time></trkpt><trkpt lat="39.67674429873824" lon="8.982256703703198"><ele>144.0</ele><time>2026-04-25T08:28:41Z</time></trkpt><trkpt lat="39.676636679735495" lon="8.982166124449655"><ele>144.0</ele><time>2026-04-25T08:28:42Z</time></trkpt><trkpt lat="39.676529069762985" lon="8.982073699470947"><ele>144.0</ele><time>2026-04-25T08:28:43Z</time></trkpt><trkpt lat="39.676418864948396" lon="8.981981508888596"><ele>144.0</ele><time>2026-04-25T08:28:44Z</time></trkpt><trkpt lat="39.676305466475135" lon="8.981889454734057"><ele>144.0</ele><time>2026-04-25T08:28:45Z</time></trkpt><trkpt lat="39.676191727079114" lon="8.98179476412468"><ele>144.0</ele><time>2026-04-25T08:28:46Z</time></trkpt><trkpt lat="39.676078597244135" lon="8.981693408500321"><ele>144.0</ele><time>2026-04-25T08:28:47Z</time></trkpt><trkpt lat="39.67596316509168" lon="8.98159363008173"><ele>144.0</ele><time>2026-04-25T08:28:48Z</time></trkpt><trkpt lat="39.67584635349029" lon="8.981494568591593"><ele>143.75</ele><time>2026-04-25T08:28:49Z</time></trkpt><trkpt lat="39.67572927761931" lon="8.981394652116377"><ele>143.5</ele><time>2026-04-25T08:28:50Z</time></trkpt><trkpt lat="39.67561108586736" lon="8.981295910755895"><ele>143.25</ele><time>2026-04-25T08:28:51Z</time></trkpt><trkpt lat="39.67549065596249" lon="8.981196095738907"><ele>143.0</ele><time>2026-04-25T08:28:52Z</time></trkpt><trkpt lat="39.6753707024253" lon="8.981098594282969"><ele>143.0</ele><time>2026-04-25T08:28:53Z</time></trkpt><trkpt lat="39.67525119422745" lon="8.981000760530529"><ele>143.0</ele><time>2026-04-25T08:28:54Z</time></trkpt><trkpt lat="39.67513258113978" lon="8.980899485478444"><ele>143.0</ele><time>2026-04-25T08:28:55Z</time></trkpt><trkpt lat="39.675013249642156" lon="8.980796820916787"><ele>143.0</ele><time>2026-04-25T08:28:56Z</time></trkpt><trkpt lat="39.67489237669767" lon="8.980695338672401"><ele>143.0</ele><time>2026-04-25T08:28:57Z</time></trkpt><trkpt lat="39.67477078973817" lon="8.980598074010393"><ele>143.0</ele><time>2026-04-25T08:28:58Z</time></trkpt><trkpt lat="39.67464907885899" lon="8.9804954580074"><ele>143.0</ele><time>2026-04-25T08:28:59Z</time></trkpt><trkpt lat="39.67452732164849" lon="8.980393114658883"><ele>143.0</ele><time>2026-04-25T08:29:00Z</time></trkpt><trkpt lat="39.67440467160045" lon="8.980291408186401"><ele>143.0</ele><time>2026-04-25T08:29:01Z</time></trkpt><trkpt lat="39.67428222182461" lon="8.980189210032464"><ele>143.0</ele><time>2026-04-25T08:29:02Z</time></trkpt><trkpt lat="39.67415932039234" lon="8.98008480511333"><ele>143.0</ele><time>2026-04-25T08:29:03Z</time></trkpt><trkpt lat="39.67403669397915" lon="8.979978121964955"><ele>143.0</ele><time>2026-04-25T08:29:04Z</time></trkpt><trkpt lat="39.6739132246184" lon="8.979869918783823"><ele>143.0</ele><time>2026-04-25T08:29:05Z</time></trkpt><trkpt lat="39.67378644864962" lon="8.979761696407593"><ele>143.0</ele><time>2026-04-25T08:29:06Z</time></trkpt><trkpt lat="39.67365828246285" lon="8.97965240094058"><ele>143.0</ele><time>2026-04-25T08:29:07Z</time></trkpt><trkpt lat="39.673528300737956" lon="8.979542731461157"><ele>143.0</ele><time>2026-04-25T08:29:08Z</time></trkpt><trkpt lat="39.6733980500826" lon="8.979432502020613"><ele>143.0</ele><time>2026-04-25T08:29:09Z</time></trkpt><trkpt lat="39.673266292616816" lon="8.979324140879662"><ele>143.0</ele><time>2026-04-25T08:29:10Z</time></trkpt><trkpt lat="39.673133444858294" lon="8.97921329187055"><ele>143.0</ele><time>2026-04-25T08:29:11Z</time></trkpt><trkpt lat="39.67300138470701" lon="8.979100209167987"><ele>143.0</ele><time>2026-04-25T08:29:12Z</time></trkpt><trkpt lat="39.67287165899414" lon="8.978984335127164"><ele>143.0</ele><time>2026-04-25T08:29:13Z</time></trkpt><trkpt lat="39.672738616656524" lon="8.978872223488935"><ele>143.0</ele><time>2026-04-25T08:29:14Z</time></trkpt><trkpt lat="39.67260302826351" lon="8.978767812842763"><ele>143.0</ele><time>2026-04-25T08:29:15Z</time></trkpt><trkpt lat="39.67246772123343" lon="8.978669733561192"><ele>143.0</ele><time>2026-04-25T08:29:16Z</time></trkpt><trkpt lat="39.672333209621755" lon="8.978578819027137"><ele>143.0</ele><time>2026-04-25T08:29:17Z</time></trkpt><trkpt lat="39.67219740325443" lon="8.97851020940731"><ele>143.0</ele><time>2026-04-25T08:29:18Z</time></trkpt><trkpt lat="39.67206199105341" lon="8.978452546540485"><ele>143.0</ele><time>2026-04-25T08:29:19Z</time></trkpt><trkpt lat="39.671929277742514" lon="8.978409866582895"><ele>143.0</ele><time>2026-04-25T08:29:20Z</time></trkpt><trkpt lat="39.67180195985336" lon="8.978377397218958"><ele>143.0</ele><time>2026-04-25T08:29:21Z</time></trkpt><trkpt lat="39.67167339187006" lon="8.97835382010677"><ele>143.0</ele><time>2026-04-25T08:29:22Z</time></trkpt><trkpt lat="39.67154460638447" lon="8.978340684233897"><ele>143.0</ele><time>2026-04-25T08:29:23Z</time></trkpt><trkpt lat="39.67141443401204" lon="8.978335836308027"><ele>143.0</ele><time>2026-04-25T08:29:24Z</time></trkpt><trkpt lat="39.67128571102456" lon="8.978340340316034"><ele>143.5</ele><time>2026-04-25T08:29:25Z</time></trkpt><trkpt lat="39.671153882801676" lon="8.978348283977567"><ele>144.0</ele><time>2026-04-25T08:29:26Z</time></trkpt><trkpt lat="39.67101939441867" lon="8.978364796659987"><ele>144.5</ele><time>2026-04-25T08:29:27Z</time></trkpt><trkpt lat="39.67088179456801" lon="8.97839156812803"><ele>145.0</ele><time>2026-04-25T08:29:28Z</time></trkpt><trkpt lat="39.6707465547215" lon="8.978430788574265"><ele>145.5</ele><time>2026-04-25T08:29:29Z</time></trkpt><trkpt lat="39.67061202000858" lon="8.978477051526042"><ele>146.0</ele><time>2026-04-25T08:29:30Z</time></trkpt><trkpt lat="39.670481412506284" lon="8.978531967004713"><ele>146.5</ele><time>2026-04-25T08:29:31Z</time></trkpt><trkpt lat="39.67035536738591" lon="8.978590834610738"><ele>147.0</ele><time>2026-04-25T08:29:32Z</time></trkpt><trkpt lat="39.670228462164246" lon="8.978655255583794"><ele>147.0</ele><time>2026-04-25T08:29:33Z</time></trkpt><trkpt lat="39.67010181891612" lon="8.9787140450688"><ele>147.0</ele><time>2026-04-25T08:29:34Z</time></trkpt><trkpt lat="39.66997716049306" lon="8.978780986837576"><ele>147.0</ele><time>2026-04-25T08:29:35Z</time></trkpt><trkpt lat="39.66985426231088" lon="8.97884985252306"><ele>147.0</ele><time>2026-04-25T08:29:36Z</time></trkpt><trkpt lat="39.669732509020996" lon="8.978918535500986"><ele>147.0</ele><time>2026-04-25T08:29:37Z</time></trkpt><trkpt lat="39.669610178476724" lon="8.978981333621217"><ele>147.0</ele><time>2026-04-25T08:29:38Z</time></trkpt><trkpt lat="39.66948607114815" lon="8.97903692048139"><ele>147.0</ele><time>2026-04-25T08:29:39Z</time></trkpt><trkpt lat="39.66936490562306" lon="8.979097470730698"><ele>147.0</ele><time>2026-04-25T08:29:40Z</time></trkpt><trkpt lat="39.66924120332861" lon="8.97915671586773"><ele>145.5</ele><time>2026-04-25T08:29:41Z</time></trkpt><trkpt lat="39.669120876636576" lon="8.979221517455256"><ele>144.0</ele><time>2026-04-25T08:29:42Z</time></trkpt><trkpt lat="39.66899927846783" lon="8.979282391053072"><ele>142.5</ele><time>2026-04-25T08:29:43Z</time></trkpt><trkpt lat="39.66887595279075" lon="8.979339904944174"><ele>141.0</ele><time>2026-04-25T08:29:44Z</time></trkpt><trkpt lat="39.66875474863703" lon="8.979393252817815"><ele>141.0</ele><time>2026-04-25T08:29:45Z</time></trkpt><trkpt lat="39.66863443556521" lon="8.97944115797671"><ele>141.0</ele><time>2026-04-25T08:29:46Z</time></trkpt><trkpt lat="39.66851568356476" lon="8.979485467185421"><ele>141.0</ele><time>2026-04-25T08:29:47Z</time></trkpt><trkpt lat="39.668394685610586" lon="8.979528111813806"><ele>141.0</ele><time>2026-04-25T08:29:48Z</time></trkpt><trkpt lat="39.66827442657621" lon="8.979569376667591"><ele>141.5</ele><time>2026-04-25T08:29:49Z</time></trkpt><trkpt lat="39.66815197900546" lon="8.97960878188437"><ele>142.0</ele><time>2026-04-25T08:29:50Z</time></trkpt><trkpt lat="39.66802995671555" lon="8.979638539957083"><ele>142.5</ele><time>2026-04-25T08:29:51Z</time></trkpt><trkpt lat="39.66790578348459" lon="8.979670166687411"><ele>143.0</ele><time>2026-04-25T08:29:52Z</time></trkpt><trkpt lat="39.66778484928715" lon="8.979701223769128"><ele>143.0</ele><time>2026-04-25T08:29:53Z</time></trkpt><trkpt lat="39.66766725471951" lon="8.979732591135475"><ele>143.0</ele><time>2026-04-25T08:29:54Z</time></trkpt><trkpt lat="39.66755178774018" lon="8.979762842512617"><ele>143.0</ele><time>2026-04-25T08:29:55Z</time></trkpt><trkpt lat="39.667438419370164" lon="8.979791053222065"><ele>143.0</ele><time>2026-04-25T08:29:56Z</time></trkpt><trkpt lat="39.66732453672311" lon="8.979814778427382"><ele>143.0</ele><time>2026-04-25T08:29:57Z</time></trkpt><trkpt lat="39.667208537505374" lon="8.979835981352288"><ele>143.0</ele><time>2026-04-25T08:29:58Z</time></trkpt><trkpt lat="39.66709186881132" lon="8.979855701558575"><ele>143.0</ele><time>2026-04-25T08:29:59Z</time></trkpt><trkpt lat="39.6669729215365" lon="8.979871215541353"><ele>143.0</ele><time>2026-04-25T08:30:00Z</time></trkpt><trkpt lat="39.66685438308397" lon="8.979883231187417"><ele>142.75</ele><time>2026-04-25T08:30:01Z</time></trkpt><trkpt lat="39.66673485397599" lon="8.979897470530188"><ele>142.5</ele><time>2026-04-25T08:30:02Z</time></trkpt><trkpt lat="39.66661526671717" lon="8.97990719600926"><ele>142.25</ele><time>2026-04-25T08:30:03Z</time></trkpt><trkpt lat="39.66649730088601" lon="8.979910722817849"><ele>142.0</ele><time>2026-04-25T08:30:04Z</time></trkpt><trkpt lat="39.66638299580679" lon="8.97991918258054"><ele>142.0</ele><time>2026-04-25T08:30:05Z</time></trkpt><trkpt lat="39.66627359881673" lon="8.979922841691577"><ele>142.0</ele><time>2026-04-25T08:30:06Z</time></trkpt><trkpt lat="39.66616370948257" lon="8.979930230974116"><ele>142.0</ele><time>2026-04-25T08:30:07Z</time></trkpt><trkpt lat="39.66605550699923" lon="8.979935529519476"><ele>142.0</ele><time>2026-04-25T08:30:08Z</time></trkpt><trkpt lat="39.66594958303788" lon="8.979943082485933"><ele>142.0</ele><time>2026-04-25T08:30:09Z</time></trkpt><trkpt lat="39.66584839656929" lon="8.979945326661092"><ele>142.79999999999998</ele><time>2026-04-25T08:30:10Z</time></trkpt><trkpt lat="39.66574948271841" lon="8.97994737999814"><ele>143.6</ele><time>2026-04-25T08:30:11Z</time></trkpt><trkpt lat="39.665654495475025" lon="8.979951349785177"><ele>144.39999999999998</ele><time>2026-04-25T08:30:12Z</time></trkpt><trkpt lat="39.665556819785955" lon="8.979954118285194"><ele>145.2</ele><time>2026-04-25T08:30:13Z</time></trkpt><trkpt lat="39.66545881989085" lon="8.979960583181784"><ele>146.0</ele><time>2026-04-25T08:30:14Z</time></trkpt><trkpt lat="39.66535523946324" lon="8.979966478396335"><ele>146.0</ele><time>2026-04-25T08:30:15Z</time></trkpt><trkpt lat="39.665255654403296" lon="8.97997443602433"><ele>146.0</ele><time>2026-04-25T08:30:16Z</time></trkpt><trkpt lat="39.66515400264802" lon="8.979981994708485"><ele>146.0</ele><time>2026-04-25T08:30:17Z</time></trkpt><trkpt lat="39.66504909427985" lon="8.979989797556595"><ele>146.0</ele><time>2026-04-25T08:30:18Z</time></trkpt><trkpt lat="39.664949568608115" lon="8.980001111202105"><ele>146.0</ele><time>2026-04-25T08:30:19Z</time></trkpt><trkpt lat="39.66485028992791" lon="8.980015082091356"><ele>145.0</ele><time>2026-04-25T08:30:20Z</time></trkpt><trkpt lat="39.66475411958843" lon="8.980034926360272"><ele>144.0</ele><time>2026-04-25T08:30:21Z</time></trkpt><trkpt lat="39.66465399343403" lon="8.980053091226035"><ele>143.0</ele><time>2026-04-25T08:30:22Z</time></trkpt><trkpt lat="39.6645552542395" lon="8.980073219684463"><ele>142.0</ele><time>2026-04-25T08:30:23Z</time></trkpt><trkpt lat="39.66445750239799" lon="8.980097926222923"><ele>141.0</ele><time>2026-04-25T08:30:24Z</time></trkpt><trkpt lat="39.66436163884612" lon="8.980123157118223"><ele>141.0</ele><time>2026-04-25T08:30:25Z</time></trkpt><trkpt lat="39.66426300348995" lon="8.980155323923448"><ele>141.0</ele><time>2026-04-25T08:30:26Z</time></trkpt><trkpt lat="39.664163127507265" lon="8.980191848154785"><ele>141.0</ele><time>2026-04-25T08:30:27Z</time></trkpt><trkpt lat="39.66406745966933" lon="8.980228392679136"><ele>141.0</ele><time>2026-04-25T08:30:28Z</time></trkpt><trkpt lat="39.66397224652067" lon="8.980262057748313"><ele>141.0</ele><time>2026-04-25T08:30:29Z</time></trkpt><trkpt lat="39.66388217346036" lon="8.980294455175217"><ele>141.0</ele><time>2026-04-25T08:30:30Z</time></trkpt><trkpt lat="39.66379878502693" lon="8.980323572363215"><ele>141.0</ele><time>2026-04-25T08:30:31Z</time></trkpt><trkpt lat="39.66373119396348" lon="8.980343632081341"><ele>141.0</ele><time>2026-04-25T08:30:32Z</time></trkpt><trkpt lat="39.663649338541866" lon="8.980372485494861"><ele>141.0</ele><time>2026-04-25T08:30:34Z</time></trkpt><trkpt lat="39.66351937674571" lon="8.980439369895015"><ele>141.0</ele><time>2026-04-25T08:32:29Z</time></trkpt><trkpt lat="39.66343146521219" lon="8.980487549348943"><ele>142.0</ele><time>2026-04-25T08:32:30Z</time></trkpt><trkpt lat="39.663330725915195" lon="8.980542359278392"><ele>143.0</ele><time>2026-04-25T08:32:31Z</time></trkpt><trkpt lat="39.66321283020585" lon="8.980601432225034"><ele>144.0</ele><time>2026-04-25T08:32:32Z</time></trkpt><trkpt lat="39.66308649798242" lon="8.980662733466435"><ele>145.0</ele><time>2026-04-25T08:32:33Z</time></trkpt><trkpt lat="39.662943761252095" lon="8.98073000958578"><ele>145.0</ele><time>2026-04-25T08:32:34Z</time></trkpt><trkpt lat="39.66280556960288" lon="8.980802939945995"><ele>145.0</ele><time>2026-04-25T08:32:35Z</time></trkpt><trkpt lat="39.66266008755783" lon="8.98087003340538"><ele>145.0</ele><time>2026-04-25T08:32:36Z</time></trkpt><trkpt lat="39.66251142056237" lon="8.980924923772104"><ele>143.33333333333334</ele><time>2026-04-25T08:32:37Z</time></trkpt><trkpt lat="39.66235843445341" lon="8.980962072552481"><ele>141.66666666666666</ele><time>2026-04-25T08:32:38Z</time></trkpt><trkpt lat="39.66220104359401" lon="8.980986137534634"><ele>140.0</ele><time>2026-04-25T08:32:39Z</time></trkpt><trkpt lat="39.66203276900474" lon="8.980980077124672"><ele>139.33333333333331</ele><time>2026-04-25T08:32:40Z</time></trkpt><trkpt lat="39.661863715074794" lon="8.980966833047026"><ele>138.66666666666666</ele><time>2026-04-25T08:32:41Z</time></trkpt><trkpt lat="39.66169993577116" lon="8.98091357556273"><ele>138.0</ele><time>2026-04-25T08:32:42Z</time></trkpt><trkpt lat="39.66154567152869" lon="8.98083444875233"><ele>140.66666666666666</ele><time>2026-04-25T08:32:43Z</time></trkpt><trkpt lat="39.66141402639089" lon="8.980724132721836"><ele>143.33333333333331</ele><time>2026-04-25T08:32:44Z</time></trkpt><trkpt lat="39.661294170999604" lon="8.980596667784285"><ele>146.0</ele><time>2026-04-25T08:32:45Z</time></trkpt><trkpt lat="39.661192963636765" lon="8.980451961255952"><ele>145.66666666666666</ele><time>2026-04-25T08:32:46Z</time></trkpt><trkpt lat="39.66110248867672" lon="8.980293586863297"><ele>145.33333333333334</ele><time>2026-04-25T08:32:47Z</time></trkpt><trkpt lat="39.66101311078276" lon="8.98012676461421"><ele>145.0</ele><time>2026-04-25T08:32:48Z</time></trkpt><trkpt lat="39.66094704933719" lon="8.979945893267061"><ele>147.33333333333334</ele><time>2026-04-25T08:32:49Z</time></trkpt><trkpt lat="39.66089543544045" lon="8.979757184974607"><ele>149.66666666666666</ele><time>2026-04-25T08:32:50Z</time></trkpt><trkpt lat="39.66085524220185" lon="8.979562133466542"><ele>152.0</ele><time>2026-04-25T08:32:51Z</time></trkpt><trkpt lat="39.66082147728302" lon="8.979366057762444"><ele>152.33333333333331</ele><time>2026-04-25T08:32:52Z</time></trkpt><trkpt lat="39.66078590204519" lon="8.979166658388284"><ele>152.66666666666666</ele><time>2026-04-25T08:32:53Z</time></trkpt><trkpt lat="39.660745798923756" lon="8.9789640372114"><ele>153.0</ele><time>2026-04-25T08:32:54Z</time></trkpt><trkpt lat="39.66070661771146" lon="8.978759766114718"><ele>153.0</ele><time>2026-04-25T08:32:55Z</time></trkpt><trkpt lat="39.660669328248424" lon="8.978554216626923"><ele>153.0</ele><time>2026-04-25T08:32:56Z</time></trkpt><trkpt lat="39.66063381169737" lon="8.978353795462107"><ele>153.0</ele><time>2026-04-25T08:32:57Z</time></trkpt><trkpt lat="39.66060069952861" lon="8.978156776122736"><ele>152.66666666666666</ele><time>2026-04-25T08:32:58Z</time></trkpt><trkpt lat="39.6605639884789" lon="8.977962842921952"><ele>152.33333333333331</ele><time>2026-04-25T08:32:59Z</time></trkpt><trkpt lat="39.66052503533986" lon="8.977769109923539"><ele>152.0</ele><time>2026-04-25T08:33:00Z</time></trkpt><trkpt lat="39.66048807522763" lon="8.977578927029993"><ele>152.5</ele><time>2026-04-25T08:33:01Z</time></trkpt><trkpt lat="39.66045263663179" lon="8.97739081225424"><ele>153.0</ele><time>2026-04-25T08:33:02Z</time></trkpt><trkpt lat="39.66041787449506" lon="8.977206056773563"><ele>153.5</ele><time>2026-04-25T08:33:03Z</time></trkpt><trkpt lat="39.6603843954637" lon="8.977020757291807"><ele>154.0</ele><time>2026-04-25T08:33:04Z</time></trkpt><trkpt lat="39.66035222737547" lon="8.976836330317886"><ele>155.75</ele><time>2026-04-25T08:33:05Z</time></trkpt><trkpt lat="39.66031797552321" lon="8.97665138423129"><ele>157.5</ele><time>2026-04-25T08:33:06Z</time></trkpt><trkpt lat="39.66028501134407" lon="8.976464284908655"><ele>159.25</ele><time>2026-04-25T08:33:07Z</time></trkpt><trkpt lat="39.660250035619555" lon="8.97627742949442"><ele>161.0</ele><time>2026-04-25T08:33:08Z</time></trkpt><trkpt lat="39.66021653091415" lon="8.976092730031743"><ele>156.5</ele><time>2026-04-25T08:33:09Z</time></trkpt><trkpt lat="39.66018562340969" lon="8.97591085010426"><ele>152.0</ele><time>2026-04-25T08:33:10Z</time></trkpt><trkpt lat="39.66015217264041" lon="8.97573700193531"><ele>147.5</ele><time>2026-04-25T08:33:11Z</time></trkpt><trkpt lat="39.660115777322275" lon="8.975559087453535"><ele>143.0</ele><time>2026-04-25T08:33:12Z</time></trkpt><trkpt lat="39.66008249273405" lon="8.975374390923776"><ele>143.0</ele><time>2026-04-25T08:33:13Z</time></trkpt><trkpt lat="39.66004685566705" lon="8.975186196910416"><ele>143.0</ele><time>2026-04-25T08:33:14Z</time></trkpt><trkpt lat="39.66000959755875" lon="8.97500208102388"><ele>143.0</ele><time>2026-04-25T08:33:15Z</time></trkpt><trkpt lat="39.659970241622545" lon="8.974818758293587"><ele>143.0</ele><time>2026-04-25T08:33:16Z</time></trkpt><trkpt lat="39.65992588402583" lon="8.974638206251605"><ele>144.5</ele><time>2026-04-25T08:33:17Z</time></trkpt><trkpt lat="39.65988111683522" lon="8.974459315165385"><ele>146.0</ele><time>2026-04-25T08:33:18Z</time></trkpt><trkpt lat="39.65983325260721" lon="8.974285158770593"><ele>147.5</ele><time>2026-04-25T08:33:19Z</time></trkpt><trkpt lat="39.65977882307438" lon="8.974114384613213"><ele>149.0</ele><time>2026-04-25T08:33:20Z</time></trkpt><trkpt lat="39.65971518823242" lon="8.973951140245696"><ele>147.75</ele><time>2026-04-25T08:33:21Z</time></trkpt><trkpt lat="39.659640443983186" lon="8.973797141645338"><ele>146.5</ele><time>2026-04-25T08:33:22Z</time></trkpt><trkpt lat="39.65956143423097" lon="8.973641573541547"><ele>145.25</ele><time>2026-04-25T08:33:23Z</time></trkpt><trkpt lat="39.65947634533775" lon="8.97349565903074"><ele>144.0</ele><time>2026-04-25T08:33:24Z</time></trkpt><trkpt lat="39.65938666554097" lon="8.9733441749145"><ele>144.0</ele><time>2026-04-25T08:33:25Z</time></trkpt><trkpt lat="39.65929434994703" lon="8.973196547554988"><ele>144.0</ele><time>2026-04-25T08:33:26Z</time></trkpt><trkpt lat="39.65919973586565" lon="8.973051573700905"><ele>144.0</ele><time>2026-04-25T08:33:27Z</time></trkpt><trkpt lat="39.65910659009947" lon="8.972907733012631"><ele>144.0</ele><time>2026-04-25T08:33:28Z</time></trkpt><trkpt lat="39.65900585368303" lon="8.972769995512408"><ele>144.0</ele><time>2026-04-25T08:33:29Z</time></trkpt><trkpt lat="39.65890457742373" lon="8.972641231199205"><ele>144.0</ele><time>2026-04-25T08:33:30Z</time></trkpt><trkpt lat="39.6588043174891" lon="8.972514387062098"><ele>144.0</ele><time>2026-04-25T08:33:31Z</time></trkpt><trkpt lat="39.65870022854544" lon="8.972392847705681"><ele>144.0</ele><time>2026-04-25T08:33:32Z</time></trkpt><trkpt lat="39.65859501660475" lon="8.972275394608697"><ele>143.25</ele><time>2026-04-25T08:33:33Z</time></trkpt><trkpt lat="39.65848921980606" lon="8.972152488607154"><ele>142.5</ele><time>2026-04-25T08:33:34Z</time></trkpt><trkpt lat="39.65837463442717" lon="8.972042292703222"><ele>141.75</ele><time>2026-04-25T08:33:35Z</time></trkpt><trkpt lat="39.65824815436353" lon="8.971955244120277"><ele>141.0</ele><time>2026-04-25T08:33:36Z</time></trkpt><trkpt lat="39.65811446917196" lon="8.971884760932873"><ele>141.0</ele><time>2026-04-25T08:33:37Z</time></trkpt><trkpt lat="39.65797591552641" lon="8.971825802121803"><ele>141.0</ele><time>2026-04-25T08:33:38Z</time></trkpt><trkpt lat="39.657832945389984" lon="8.97178121444474"><ele>141.0</ele><time>2026-04-25T08:33:39Z</time></trkpt><trkpt lat="39.65768870115401" lon="8.971748817563217"><ele>141.0</ele><time>2026-04-25T08:33:40Z</time></trkpt><trkpt lat="39.65754833008822" lon="8.971725966725584"><ele>139.25</ele><time>2026-04-25T08:33:41Z</time></trkpt><trkpt lat="39.65740782117559" lon="8.971704876226017"><ele>137.5</ele><time>2026-04-25T08:33:42Z</time></trkpt><trkpt lat="39.65726715420958" lon="8.97170124477809"><ele>135.75</ele><time>2026-04-25T08:33:43Z</time></trkpt><trkpt lat="39.65712437206739" lon="8.971720333412401"><ele>134.0</ele><time>2026-04-25T08:33:44Z</time></trkpt><trkpt lat="39.65697978397737" lon="8.971743232043218"><ele>134.0</ele><time>2026-04-25T08:33:45Z</time></trkpt><trkpt lat="39.65683846889402" lon="8.971761874076927"><ele>134.0</ele><time>2026-04-25T08:33:46Z</time></trkpt><trkpt lat="39.65670188676543" lon="8.971786694532208"><ele>134.0</ele><time>2026-04-25T08:33:47Z</time></trkpt><trkpt lat="39.65657231199536" lon="8.971822983421923"><ele>134.0</ele><time>2026-04-25T08:33:48Z</time></trkpt><trkpt lat="39.656446821455326" lon="8.971859702139565"><ele>134.0</ele><time>2026-04-25T08:33:49Z</time></trkpt><trkpt lat="39.65632740751164" lon="8.971897512991545"><ele>134.0</ele><time>2026-04-25T08:33:50Z</time></trkpt><trkpt lat="39.6562147648747" lon="8.971929779154248"><ele>134.0</ele><time>2026-04-25T08:33:51Z</time></trkpt><trkpt lat="39.65610678090668" lon="8.971951758616004"><ele>134.0</ele><time>2026-04-25T08:33:52Z</time></trkpt><trkpt lat="39.65599577904489" lon="8.971972055543235"><ele>134.6</ele><time>2026-04-25T08:33:53Z</time></trkpt><trkpt lat="39.65588723515179" lon="8.972000782680094"><ele>135.2</ele><time>2026-04-25T08:33:54Z</time></trkpt><trkpt lat="39.655778902806944" lon="8.972038430366437"><ele>135.79999999999998</ele><time>2026-04-25T08:33:55Z</time></trkpt><trkpt lat="39.6556660833182" lon="8.97207025461642"><ele>136.4</ele><time>2026-04-25T08:33:56Z</time></trkpt><trkpt lat="39.655557393682194" lon="8.972099235985073"><ele>137.0</ele><time>2026-04-25T08:33:57Z</time></trkpt><trkpt lat="39.655449619279494" lon="8.972131934551301"><ele>137.0</ele><time>2026-04-25T08:33:58Z</time></trkpt><trkpt lat="39.655343937720794" lon="8.972163849914422"><ele>137.0</ele><time>2026-04-25T08:33:59Z</time></trkpt><trkpt lat="39.655241942412964" lon="8.972191040795382"><ele>137.0</ele><time>2026-04-25T08:34:00Z</time></trkpt><trkpt lat="39.65514295587434" lon="8.9722183833063"><ele>137.0</ele><time>2026-04-25T08:34:01Z</time></trkpt><trkpt lat="39.65504620553434" lon="8.972244659006707"><ele>137.0</ele><time>2026-04-25T08:34:02Z</time></trkpt><trkpt lat="39.654944120986826" lon="8.972270377725733"><ele>138.5</ele><time>2026-04-25T08:34:03Z</time></trkpt><trkpt lat="39.65483035832774" lon="8.97230127732671"><ele>140.0</ele><time>2026-04-25T08:34:04Z</time></trkpt><trkpt lat="39.65471138388456" lon="8.972330491789139"><ele>141.5</ele><time>2026-04-25T08:34:05Z</time></trkpt><trkpt lat="39.65459651645037" lon="8.9723656428445"><ele>143.0</ele><time>2026-04-25T08:34:06Z</time></trkpt><trkpt lat="39.65448633806719" lon="8.972387669558564"><ele>143.5</ele><time>2026-04-25T08:34:07Z</time></trkpt><trkpt lat="39.65438656137864" lon="8.972412720332064"><ele>144.0</ele><time>2026-04-25T08:34:08Z</time></trkpt><trkpt lat="39.65429480635529" lon="8.972431855551585"><ele>144.5</ele><time>2026-04-25T08:34:09Z</time></trkpt><trkpt lat="39.65421350899967" lon="8.972454302470023"><ele>145.0</ele><time>2026-04-25T08:34:10Z</time></trkpt><trkpt lat="39.65414363440918" lon="8.972464582420482"><ele>145.5</ele><time>2026-04-25T08:34:11Z</time></trkpt><trkpt lat="39.654081048974625" lon="8.972482648885933"><ele>146.0</ele><time>2026-04-25T08:34:12Z</time></trkpt><trkpt lat="39.654016971785374" lon="8.972504543840678"><ele>146.0</ele><time>2026-04-25T08:34:34Z</time></trkpt><trkpt lat="39.654146462505906" lon="8.972585899840425"><ele>146.0</ele><time>2026-04-25T08:34:39Z</time></trkpt><trkpt lat="39.654227524077626" lon="8.97252684194433"><ele>146.0</ele><time>2026-04-25T08:34:40Z</time></trkpt><trkpt lat="39.654323701750464" lon="8.972483483367819"><ele>146.0</ele><time>2026-04-25T08:34:41Z</time></trkpt><trkpt lat="39.654446406203775" lon="8.972450940803611"><ele>145.0</ele><time>2026-04-25T08:34:42Z</time></trkpt><trkpt lat="39.65458855814186" lon="8.972417342380222"><ele>144.0</ele><time>2026-04-25T08:34:43Z</time></trkpt><trkpt lat="39.65474412514372" lon="8.972368307941602"><ele>143.0</ele><time>2026-04-25T08:34:44Z</time></trkpt><trkpt lat="39.654912209100665" lon="8.97232218202191"><ele>143.0</ele><time>2026-04-25T08:34:45Z</time></trkpt><trkpt lat="39.65508958062482" lon="8.97227517768118"><ele>143.0</ele><time>2026-04-25T08:34:46Z</time></trkpt><trkpt lat="39.65527515517642" lon="8.97222306546878"><ele>143.0</ele><time>2026-04-25T08:34:47Z</time></trkpt><trkpt lat="39.655473481428835" lon="8.972172560082525"><ele>141.0</ele><time>2026-04-25T08:34:48Z</time></trkpt><trkpt lat="39.65566596055732" lon="8.972125597922135"><ele>139.0</ele><time>2026-04-25T08:34:49Z</time></trkpt><trkpt lat="39.655863091618436" lon="8.97207140138542"><ele>137.0</ele><time>2026-04-25T08:34:50Z</time></trkpt><trkpt lat="39.6560669798911" lon="8.972008472588016"><ele>136.0</ele><time>2026-04-25T08:34:51Z</time></trkpt><trkpt lat="39.65627545243171" lon="8.971948738715538"><ele>135.0</ele><time>2026-04-25T08:34:52Z</time></trkpt><trkpt lat="39.656491811476656" lon="8.971893814477767"><ele>134.0</ele><time>2026-04-25T08:34:53Z</time></trkpt><trkpt lat="39.65671239093153" lon="8.97184005698511"><ele>134.0</ele><time>2026-04-25T08:34:54Z</time></trkpt><trkpt lat="39.65693421412032" lon="8.971787099110411"><ele>134.0</ele><time>2026-04-25T08:34:55Z</time></trkpt><trkpt lat="39.65715136087587" lon="8.971744422231714"><ele>134.0</ele><time>2026-04-25T08:34:56Z</time></trkpt><trkpt lat="39.65736735363037" lon="8.971738419277845"><ele>134.0</ele><time>2026-04-25T08:34:57Z</time></trkpt><trkpt lat="39.6575852058675" lon="8.971768998633406"><ele>134.0</ele><time>2026-04-25T08:34:58Z</time></trkpt><trkpt lat="39.6578053714946" lon="8.9718381995791"><ele>134.0</ele><time>2026-04-25T08:34:59Z</time></trkpt><trkpt lat="39.65802671740518" lon="8.97191023393481"><ele>136.33333333333331</ele><time>2026-04-25T08:35:00Z</time></trkpt><trkpt lat="39.65823932867266" lon="8.972008157568641"><ele>138.66666666666666</ele><time>2026-04-25T08:35:01Z</time></trkpt><trkpt lat="39.65843161888769" lon="8.972151229405984"><ele>141.0</ele><time>2026-04-25T08:35:02Z</time></trkpt><trkpt lat="39.65860672463322" lon="8.972332128410999"><ele>142.0</ele><time>2026-04-25T08:35:03Z</time></trkpt><trkpt lat="39.658765891013545" lon="8.972532737851015"><ele>143.0</ele><time>2026-04-25T08:35:04Z</time></trkpt><trkpt lat="39.6589194867611" lon="8.97273667498299"><ele>144.0</ele><time>2026-04-25T08:35:05Z</time></trkpt><trkpt lat="39.65907461689381" lon="8.972942296885211"><ele>144.0</ele><time>2026-04-25T08:35:06Z</time></trkpt><trkpt lat="39.659224619240476" lon="8.97315429174337"><ele>144.0</ele><time>2026-04-25T08:35:07Z</time></trkpt><trkpt lat="39.65936683081094" lon="8.973370708786899"><ele>144.0</ele><time>2026-04-25T08:35:08Z</time></trkpt><trkpt lat="39.65950296614625" lon="8.973599028767234"><ele>151.0</ele><time>2026-04-25T08:35:09Z</time></trkpt><trkpt lat="39.65962769943703" lon="8.973844839130788"><ele>158.0</ele><time>2026-04-25T08:35:10Z</time></trkpt><trkpt lat="39.65973740378063" lon="8.974110964970619"><ele>153.5</ele><time>2026-04-25T08:35:11Z</time></trkpt><trkpt lat="39.6598274870147" lon="8.974397491894026"><ele>149.0</ele><time>2026-04-25T08:35:12Z</time></trkpt><trkpt lat="39.65990412774351" lon="8.974682967505865"><ele>149.0</ele><time>2026-04-25T08:35:13Z</time></trkpt><trkpt lat="39.65997053946263" lon="8.974965890723285"><ele>149.0</ele><time>2026-04-25T08:35:14Z</time></trkpt><trkpt lat="39.66002550473469" lon="8.975245389719682"><ele>147.0</ele><time>2026-04-25T08:35:15Z</time></trkpt><trkpt lat="39.66007587643181" lon="8.975522378495121"><ele>145.0</ele><time>2026-04-25T08:35:16Z</time></trkpt><trkpt lat="39.660130882541665" lon="8.97580143653734"><ele>143.0</ele><time>2026-04-25T08:35:17Z</time></trkpt><trkpt lat="39.66018043108156" lon="8.976068147531405"><ele>143.0</ele><time>2026-04-25T08:35:18Z</time></trkpt><trkpt lat="39.6602287657879" lon="8.976327277337065"><ele>143.0</ele><time>2026-04-25T08:35:19Z</time></trkpt><trkpt lat="39.660274166292936" lon="8.976580566945394"><ele>143.0</ele><time>2026-04-25T08:35:20Z</time></trkpt><trkpt lat="39.66031902172271" lon="8.976831235423639"><ele>146.0</ele><time>2026-04-25T08:35:21Z</time></trkpt><trkpt lat="39.660362344761296" lon="8.977073897692522"><ele>149.0</ele><time>2026-04-25T08:35:22Z</time></trkpt><trkpt lat="39.66040748644408" lon="8.977305517873079"><ele>152.0</ele><time>2026-04-25T08:35:23Z</time></trkpt><trkpt lat="39.660450639395776" lon="8.97752892437265"><ele>152.0</ele><time>2026-04-25T08:35:24Z</time></trkpt><trkpt lat="39.660492902229315" lon="8.977747765935517"><ele>152.0</ele><time>2026-04-25T08:35:25Z</time></trkpt><trkpt lat="39.660533363853276" lon="8.977966309936347"><ele>152.0</ele><time>2026-04-25T08:35:26Z</time></trkpt><trkpt lat="39.660574604478704" lon="8.978181799115095"><ele>152.33333333333331</ele><time>2026-04-25T08:35:27Z</time></trkpt><trkpt lat="39.6606167601565" lon="8.978398234344144"><ele>152.66666666666666</ele><time>2026-04-25T08:35:28Z</time></trkpt><trkpt lat="39.660657622328344" lon="8.978612444613342"><ele>153.0</ele><time>2026-04-25T08:35:29Z</time></trkpt><trkpt lat="39.66069937369362" lon="8.978824950159808"><ele>153.0</ele><time>2026-04-25T08:35:30Z</time></trkpt><trkpt lat="39.6607365068809" lon="8.97903158071534"><ele>153.0</ele><time>2026-04-25T08:35:31Z</time></trkpt><trkpt lat="39.66077068705543" lon="8.979231809049114"><ele>153.0</ele><time>2026-04-25T08:35:32Z</time></trkpt><trkpt lat="39.66080394685403" lon="8.979422666617777"><ele>152.75</ele><time>2026-04-25T08:35:33Z</time></trkpt><trkpt lat="39.66083401416041" lon="8.979603405271185"><ele>152.5</ele><time>2026-04-25T08:35:34Z</time></trkpt><trkpt lat="39.660871940926484" lon="8.979784161733015"><ele>152.25</ele><time>2026-04-25T08:35:35Z</time></trkpt><trkpt lat="39.66091864433498" lon="8.979962654845158"><ele>152.0</ele><time>2026-04-25T08:35:36Z</time></trkpt><trkpt lat="39.66097642632608" lon="8.980138850426279"><ele>150.0</ele><time>2026-04-25T08:35:37Z</time></trkpt><trkpt lat="39.66104769918636" lon="8.980307500791888"><ele>148.0</ele><time>2026-04-25T08:35:38Z</time></trkpt><trkpt lat="39.661149103401634" lon="8.980456296563855"><ele>146.0</ele><time>2026-04-25T08:35:39Z</time></trkpt><trkpt lat="39.66124991469267" lon="8.98060521119044"><ele>146.0</ele><time>2026-04-25T08:35:40Z</time></trkpt><trkpt lat="39.66136555252777" lon="8.98074468092924"><ele>146.0</ele><time>2026-04-25T08:35:41Z</time></trkpt><trkpt lat="39.661501938446534" lon="8.980857638421547"><ele>146.0</ele><time>2026-04-25T08:35:42Z</time></trkpt><trkpt lat="39.661641574969266" lon="8.980946107414475"><ele>144.0</ele><time>2026-04-25T08:35:43Z</time></trkpt><trkpt lat="39.66178532885718" lon="8.981014967571761"><ele>142.0</ele><time>2026-04-25T08:35:44Z</time></trkpt><trkpt lat="39.66193790043308" lon="8.981047216099013"><ele>140.0</ele><time>2026-04-25T08:35:45Z</time></trkpt><trkpt lat="39.66208733393189" lon="8.981041249477784"><ele>140.0</ele><time>2026-04-25T08:35:46Z</time></trkpt><trkpt lat="39.66224412001774" lon="8.981008433819715"><ele>140.0</ele><time>2026-04-25T08:35:47Z</time></trkpt><trkpt lat="39.66239983025266" lon="8.980978350268048"><ele>140.0</ele><time>2026-04-25T08:35:48Z</time></trkpt><trkpt lat="39.6625620051639" lon="8.980941893963633"><ele>140.0</ele><time>2026-04-25T08:35:49Z</time></trkpt><trkpt lat="39.66272383217646" lon="8.980888349085465"><ele>140.0</ele><time>2026-04-25T08:35:50Z</time></trkpt><trkpt lat="39.66288310179333" lon="8.980821159226904"><ele>140.0</ele><time>2026-04-25T08:35:51Z</time></trkpt><trkpt lat="39.66304038760645" lon="8.980741741180697"><ele>141.66666666666666</ele><time>2026-04-25T08:35:52Z</time></trkpt><trkpt lat="39.663197334905014" lon="8.980658030220688"><ele>143.33333333333334</ele><time>2026-04-25T08:35:53Z</time></trkpt><trkpt lat="39.66335533296255" lon="8.980576413786451"><ele>145.0</ele><time>2026-04-25T08:35:54Z</time></trkpt><trkpt lat="39.66351721396719" lon="8.980499490844588"><ele>143.66666666666669</ele><time>2026-04-25T08:35:55Z</time></trkpt><trkpt lat="39.663679694421724" lon="8.980427100593865"><ele>142.33333333333334</ele><time>2026-04-25T08:35:56Z</time></trkpt><trkpt lat="39.663841134181645" lon="8.980359316599051"><ele>141.0</ele><time>2026-04-25T08:35:57Z</time></trkpt><trkpt lat="39.66400247176754" lon="8.98029661473771"><ele>141.0</ele><time>2026-04-25T08:35:58Z</time></trkpt><trkpt lat="39.664164727642145" lon="8.980241218125304"><ele>141.0</ele><time>2026-04-25T08:35:59Z</time></trkpt><trkpt lat="39.66432750756806" lon="8.980187028422987"><ele>141.0</ele><time>2026-04-25T08:36:00Z</time></trkpt><trkpt lat="39.66448956951093" lon="8.980133489973014"><ele>140.33333333333334</ele><time>2026-04-25T08:36:01Z</time></trkpt><trkpt lat="39.66465313770985" lon="8.980091081962671"><ele>139.66666666666669</ele><time>2026-04-25T08:36:02Z</time></trkpt><trkpt lat="39.66482244503273" lon="8.980057956617907"><ele>139.0</ele><time>2026-04-25T08:36:03Z</time></trkpt><trkpt lat="39.664994272878765" lon="8.9800410902254"><ele>139.0</ele><time>2026-04-25T08:36:04Z</time></trkpt><trkpt lat="39.66516410691936" lon="8.980022138098509"><ele>139.0</ele><time>2026-04-25T08:36:05Z</time></trkpt><trkpt lat="39.66533537227266" lon="8.980008151387405"><ele>139.0</ele><time>2026-04-25T08:36:06Z</time></trkpt><trkpt lat="39.665504615452235" lon="8.97999565076396"><ele>141.33333333333334</ele><time>2026-04-25T08:36:07Z</time></trkpt><trkpt lat="39.66567270858444" lon="8.979987116453595"><ele>143.66666666666666</ele><time>2026-04-25T08:36:08Z</time></trkpt><trkpt lat="39.66583843793455" lon="8.979984240443338"><ele>146.0</ele><time>2026-04-25T08:36:09Z</time></trkpt><trkpt lat="39.66600261607615" lon="8.97998390707112"><ele>144.66666666666666</ele><time>2026-04-25T08:36:10Z</time></trkpt><trkpt lat="39.666168528838355" lon="8.979975652200727"><ele>143.33333333333334</ele><time>2026-04-25T08:36:11Z</time></trkpt><trkpt lat="39.66633489505484" lon="8.979966943799457"><ele>142.0</ele><time>2026-04-25T08:36:12Z</time></trkpt><trkpt lat="39.666499433386626" lon="8.979960605649397"><ele>142.0</ele><time>2026-04-25T08:36:13Z</time></trkpt><trkpt lat="39.66666561041517" lon="8.97994998238911"><ele>142.0</ele><time>2026-04-25T08:36:14Z</time></trkpt><trkpt lat="39.666831575344474" lon="8.97993589620061"><ele>142.0</ele><time>2026-04-25T08:36:15Z</time></trkpt><trkpt lat="39.667000235648885" lon="8.979917481156164"><ele>142.33333333333334</ele><time>2026-04-25T08:36:16Z</time></trkpt><trkpt lat="39.667171659579694" lon="8.979886548065268"><ele>142.66666666666666</ele><time>2026-04-25T08:36:17Z</time></trkpt><trkpt lat="39.667343527886295" lon="8.979849949948637"><ele>143.0</ele><time>2026-04-25T08:36:18Z</time></trkpt><trkpt lat="39.66751451681697" lon="8.979813759529257"><ele>143.0</ele><time>2026-04-25T08:36:19Z</time></trkpt><trkpt lat="39.667684165762545" lon="8.979774599469817"><ele>143.0</ele><time>2026-04-25T08:36:20Z</time></trkpt><trkpt lat="39.66785544590506" lon="8.979736028918927"><ele>143.0</ele><time>2026-04-25T08:36:21Z</time></trkpt><trkpt lat="39.668025408372095" lon="8.979689331172102"><ele>143.0</ele><time>2026-04-25T08:36:22Z</time></trkpt><trkpt lat="39.66818473617183" lon="8.97964012039774"><ele>143.0</ele><time>2026-04-25T08:36:23Z</time></trkpt><trkpt lat="39.6683423132649" lon="8.97959042414733"><ele>143.0</ele><time>2026-04-25T08:36:24Z</time></trkpt><trkpt lat="39.66850169250494" lon="8.979532226424979"><ele>142.33333333333331</ele><time>2026-04-25T08:36:25Z</time></trkpt><trkpt lat="39.66865502020684" lon="8.979476102138902"><ele>141.66666666666666</ele><time>2026-04-25T08:36:26Z</time></trkpt><trkpt lat="39.66880801910577" lon="8.979411421767455"><ele>141.0</ele><time>2026-04-25T08:36:27Z</time></trkpt><trkpt lat="39.66895692201023" lon="8.979344241833015"><ele>141.0</ele><time>2026-04-25T08:36:28Z</time></trkpt><trkpt lat="39.66910541234601" lon="8.9792691358881"><ele>141.0</ele><time>2026-04-25T08:36:29Z</time></trkpt><trkpt lat="39.66925339901525" lon="8.979193437082087"><ele>141.0</ele><time>2026-04-25T08:36:30Z</time></trkpt><trkpt lat="39.66940435406842" lon="8.979116481664214"><ele>143.0</ele><time>2026-04-25T08:36:31Z</time></trkpt><trkpt lat="39.669558689204" lon="8.979039611976418"><ele>145.0</ele><time>2026-04-25T08:36:32Z</time></trkpt><trkpt lat="39.6697100926916" lon="8.978962961781658"><ele>147.0</ele><time>2026-04-25T08:36:33Z</time></trkpt><trkpt lat="39.66986458667352" lon="8.978864629221594"><ele>147.0</ele><time>2026-04-25T08:36:34Z</time></trkpt><trkpt lat="39.67000826559195" lon="8.978812760954048"><ele>147.0</ele><time>2026-04-25T08:36:35Z</time></trkpt><trkpt lat="39.6701523568033" lon="8.97872893555001"><ele>147.0</ele><time>2026-04-25T08:36:36Z</time></trkpt><trkpt lat="39.67028475582932" lon="8.97865863155659"><ele>145.5</ele><time>2026-04-25T08:36:37Z</time></trkpt><trkpt lat="39.67041992255717" lon="8.97859150829427"><ele>144.0</ele><time>2026-04-25T08:36:38Z</time></trkpt><trkpt lat="39.67055226615602" lon="8.978528249296694"><ele>142.5</ele><time>2026-04-25T08:36:39Z</time></trkpt><trkpt lat="39.670686391399215" lon="8.978474862847285"><ele>141.0</ele><time>2026-04-25T08:36:40Z</time></trkpt><trkpt lat="39.67082335776239" lon="8.97843384325971"><ele>141.0</ele><time>2026-04-25T08:36:41Z</time></trkpt><trkpt lat="39.6709655156001" lon="8.978407896596236"><ele>141.0</ele><time>2026-04-25T08:36:42Z</time></trkpt><trkpt lat="39.67110780710814" lon="8.978389681948034"><ele>141.0</ele><time>2026-04-25T08:36:43Z</time></trkpt><trkpt lat="39.671240011311305" lon="8.978368542251237"><ele>141.0</ele><time>2026-04-25T08:36:44Z</time></trkpt><trkpt lat="39.6713486514379" lon="8.978364741016488"><ele>141.4</ele><time>2026-04-25T08:36:45Z</time></trkpt><trkpt lat="39.671439828277876" lon="8.978364236444936"><ele>141.8</ele><time>2026-04-25T08:36:46Z</time></trkpt><trkpt lat="39.67152665623043" lon="8.97833917818371"><ele>142.20000000000002</ele><time>2026-04-25T08:36:48Z</time></trkpt><trkpt lat="39.67151275611474" lon="8.978215008695775"><ele>142.6</ele><time>2026-04-25T08:36:51Z</time></trkpt><trkpt lat="39.67139901233292" lon="8.97815395460257"><ele>143.0</ele><time>2026-04-25T08:36:53Z</time></trkpt><trkpt lat="39.67138035766769" lon="8.978069394573858"><ele>143.28571428571428</ele><time>2026-04-25T08:36:54Z</time></trkpt><trkpt lat="39.67135130823146" lon="8.97798462451266"><ele>143.57142857142856</ele><time>2026-04-25T08:36:55Z</time></trkpt><trkpt lat="39.6713146600648" lon="8.977918113104739"><ele>143.85714285714286</ele><time>2026-04-25T08:36:56Z</time></trkpt><trkpt lat="39.67130897346845" lon="8.977817594677996"><ele>144.14285714285714</ele><time>2026-04-25T08:36:59Z</time></trkpt><trkpt lat="39.67129157743463" lon="8.977711993283963"><ele>144.42857142857144</ele><time>2026-04-25T08:37:01Z</time></trkpt><trkpt lat="39.67127779383076" lon="8.977627340121929"><ele>144.71428571428572</ele><time>2026-04-25T08:37:02Z</time></trkpt><trkpt lat="39.67126073272378" lon="8.977539257281839"><ele>145.0</ele><time>2026-04-25T08:37:03Z</time></trkpt><trkpt lat="39.671263360091885" lon="8.977438658703226"><ele>145.16666666666669</ele><time>2026-04-25T08:37:04Z</time></trkpt><trkpt lat="39.671249785222734" lon="8.977340082709672"><ele>145.33333333333334</ele><time>2026-04-25T08:37:05Z</time></trkpt><trkpt lat="39.671238527504464" lon="8.977242447838854"><ele>145.5</ele><time>2026-04-25T08:37:06Z</time></trkpt><trkpt lat="39.671233780440076" lon="8.977149579541523"><ele>145.66666666666666</ele><time>2026-04-25T08:37:07Z</time></trkpt><trkpt lat="39.67123454543408" lon="8.977051309137792"><ele>145.83333333333331</ele><time>2026-04-25T08:37:08Z</time></trkpt><trkpt lat="39.67124649776057" lon="8.976944384757445"><ele>146.0</ele><time>2026-04-25T08:37:09Z</time></trkpt><trkpt lat="39.67127606491206" lon="8.97684492927328"><ele>146.0</ele><time>2026-04-25T08:37:10Z</time></trkpt><trkpt lat="39.671304323487796" lon="8.976738054195886"><ele>146.0</ele><time>2026-04-25T08:37:11Z</time></trkpt><trkpt lat="39.67132607080807" lon="8.976642366058211"><ele>146.0</ele><time>2026-04-25T08:37:12Z</time></trkpt><trkpt lat="39.67133127968582" lon="8.976552972775758"><ele>146.0</ele><time>2026-04-25T08:37:13Z</time></trkpt><trkpt lat="39.67136081134602" lon="8.976404840950018"><ele>146.0</ele><time>2026-04-25T08:37:15Z</time></trkpt><trkpt lat="39.67136608047779" lon="8.976285243121726"><ele>146.0</ele><time>2026-04-25T08:37:17Z</time></trkpt><trkpt lat="39.6713740206764" lon="8.976174494244866"><ele>145.8</ele><time>2026-04-25T08:37:19Z</time></trkpt><trkpt lat="39.67137023647804" lon="8.976092745283077"><ele>145.6</ele><time>2026-04-25T08:37:21Z</time></trkpt><trkpt lat="39.67137407775304" lon="8.976003690249284"><ele>145.4</ele><time>2026-04-25T08:37:30Z</time></trkpt><trkpt lat="39.671354619729456" lon="8.976199962423923"><ele>145.2</ele><time>2026-04-25T08:37:39Z</time></trkpt><trkpt lat="39.67135645979136" lon="8.976316506820595"><ele>145.0</ele><time>2026-04-25T08:37:40Z</time></trkpt><trkpt lat="39.671334794916184" lon="8.976451357627791"><ele>145.0</ele><time>2026-04-25T08:37:41Z</time></trkpt><trkpt lat="39.67130817806264" lon="8.976597599059634"><ele>145.0</ele><time>2026-04-25T08:37:42Z</time></trkpt><trkpt lat="39.67127500338733" lon="8.976741814383919"><ele>145.0</ele><time>2026-04-25T08:37:43Z</time></trkpt><trkpt lat="39.67123310344487" lon="8.976884827788359"><ele>145.0</ele><time>2026-04-25T08:37:44Z</time></trkpt><trkpt lat="39.671199427396445" lon="8.977015471557957"><ele>145.0</ele><time>2026-04-25T08:37:45Z</time></trkpt><trkpt lat="39.67119084639578" lon="8.977132690011016"><ele>145.0</ele><time>2026-04-25T08:37:46Z</time></trkpt><trkpt lat="39.671200226567606" lon="8.977259023884342"><ele>145.0</ele><time>2026-04-25T08:37:47Z</time></trkpt><trkpt lat="39.671227392285935" lon="8.977393170773546"><ele>145.0</ele><time>2026-04-25T08:37:48Z</time></trkpt><trkpt lat="39.67124897043298" lon="8.977521782574351"><ele>145.0</ele><time>2026-04-25T08:37:49Z</time></trkpt><trkpt lat="39.67126331947757" lon="8.977635418030667"><ele>145.0</ele><time>2026-04-25T08:37:50Z</time></trkpt><trkpt lat="39.671259506997224" lon="8.977788499654116"><ele>145.0</ele><time>2026-04-25T08:37:52Z</time></trkpt><trkpt lat="39.67116734155053" lon="8.977843144440305"><ele>145.0</ele><time>2026-04-25T08:37:54Z</time></trkpt><trkpt lat="39.671078258614166" lon="8.977951937889387"><ele>145.0</ele><time>2026-04-25T08:37:56Z</time></trkpt><trkpt lat="39.67104407875961" lon="8.978029223407837"><ele>145.0</ele><time>2026-04-25T08:37:57Z</time></trkpt><trkpt lat="39.67098706141741" lon="8.978068907351012"><ele>144.4</ele><time>2026-04-25T08:37:58Z</time></trkpt><trkpt lat="39.670889783333216" lon="8.97811243998664"><ele>143.8</ele><time>2026-04-25T08:38:00Z</time></trkpt><trkpt lat="39.670758954678185" lon="8.978114139250273"><ele>143.2</ele><time>2026-04-25T08:38:02Z</time></trkpt><trkpt lat="39.670688891088645" lon="8.978091197048297"><ele>142.6</ele><time>2026-04-25T08:38:03Z</time></trkpt><trkpt lat="39.67061641559493" lon="8.978075778368463"><ele>142.0</ele><time>2026-04-25T08:38:04Z</time></trkpt><trkpt lat="39.670532169992725" lon="8.978072436740636"><ele>142.0</ele><time>2026-04-25T08:38:05Z</time></trkpt><trkpt lat="39.67044152558015" lon="8.978095099678374"><ele>142.0</ele><time>2026-04-25T08:38:06Z</time></trkpt><trkpt lat="39.67035170108637" lon="8.9781223464973"><ele>142.0</ele><time>2026-04-25T08:38:07Z</time></trkpt><trkpt lat="39.67025934534292" lon="8.978140629022931"><ele>142.0</ele><time>2026-04-25T08:38:08Z</time></trkpt><trkpt lat="39.67016312549449" lon="8.978159762061615"><ele>142.0</ele><time>2026-04-25T08:38:09Z</time></trkpt><trkpt lat="39.67006275384072" lon="8.978186056571788"><ele>143.0</ele><time>2026-04-25T08:38:10Z</time></trkpt><trkpt lat="39.66995792321907" lon="8.978233538554846"><ele>144.0</ele><time>2026-04-25T08:38:11Z</time></trkpt><trkpt lat="39.669859784532505" lon="8.978298563978043"><ele>145.0</ele><time>2026-04-25T08:38:12Z</time></trkpt><trkpt lat="39.66976477821063" lon="8.978375894980065"><ele>146.0</ele><time>2026-04-25T08:38:13Z</time></trkpt><trkpt lat="39.66966693208153" lon="8.978450602722496"><ele>147.0</ele><time>2026-04-25T08:38:14Z</time></trkpt><trkpt lat="39.669570646204384" lon="8.978523173724513"><ele>147.0</ele><time>2026-04-25T08:38:15Z</time></trkpt><trkpt lat="39.669471726973924" lon="8.978598369812664"><ele>147.0</ele><time>2026-04-25T08:38:16Z</time></trkpt><trkpt lat="39.66938140486431" lon="8.978666794872499"><ele>147.0</ele><time>2026-04-25T08:38:17Z</time></trkpt><trkpt lat="39.66929942807805" lon="8.97873276629245"><ele>147.0</ele><time>2026-04-25T08:38:18Z</time></trkpt><trkpt lat="39.66922553178766" lon="8.978794856818675"><ele>147.0</ele><time>2026-04-25T08:38:19Z</time></trkpt><trkpt lat="39.669158409485966" lon="8.978845671612696"><ele>147.33333333333334</ele><time>2026-04-25T08:38:20Z</time></trkpt><trkpt lat="39.66909168161142" lon="8.978874487497885"><ele>147.66666666666666</ele><time>2026-04-25T08:38:21Z</time></trkpt><trkpt lat="39.66902699371644" lon="8.97885072380239"><ele>148.0</ele><time>2026-04-25T08:38:22Z</time></trkpt><trkpt lat="39.668981983802325" lon="8.978766621206429"><ele>148.33333333333331</ele><time>2026-04-25T08:38:23Z</time></trkpt><trkpt lat="39.66892040338863" lon="8.978685176108922"><ele>148.66666666666666</ele><time>2026-04-25T08:38:24Z</time></trkpt><trkpt lat="39.66884501378195" lon="8.978597281403138"><ele>149.0</ele><time>2026-04-25T08:38:25Z</time></trkpt><trkpt lat="39.66876590621667" lon="8.978511225292532"><ele>149.0</ele><time>2026-04-25T08:38:26Z</time></trkpt><trkpt lat="39.668693792314976" lon="8.9784193212358"><ele>149.0</ele><time>2026-04-25T08:38:27Z</time></trkpt><trkpt lat="39.66864573015324" lon="8.978316488097215"><ele>149.0</ele><time>2026-04-25T08:38:28Z</time></trkpt><trkpt lat="39.66862419898338" lon="8.978185529175864"><ele>149.0</ele><time>2026-04-25T08:38:29Z</time></trkpt><trkpt lat="39.668593070024265" lon="8.978056688110108"><ele>149.0</ele><time>2026-04-25T08:38:30Z</time></trkpt><trkpt lat="39.6685650442321" lon="8.977915714163988"><ele>154.0</ele><time>2026-04-25T08:38:31Z</time></trkpt><trkpt lat="39.66853858025842" lon="8.977764241293865"><ele>159.0</ele><time>2026-04-25T08:38:32Z</time></trkpt><trkpt lat="39.668517399374586" lon="8.977607685209765"><ele>164.0</ele><time>2026-04-25T08:38:33Z</time></trkpt><trkpt lat="39.66850456323897" lon="8.977445844001672"><ele>169.0</ele><time>2026-04-25T08:38:34Z</time></trkpt><trkpt lat="39.66850059157299" lon="8.97728699376337"><ele>170.25</ele><time>2026-04-25T08:38:35Z</time></trkpt><trkpt lat="39.66851047484844" lon="8.9771274902136"><ele>171.5</ele><time>2026-04-25T08:38:36Z</time></trkpt><trkpt lat="39.66852493102692" lon="8.976963905892665"><ele>172.75</ele><time>2026-04-25T08:38:37Z</time></trkpt><trkpt lat="39.66853963343836" lon="8.976799253840957"><ele>174.0</ele><time>2026-04-25T08:38:38Z</time></trkpt><trkpt lat="39.66855359368755" lon="8.976632555670282"><ele>174.25</ele><time>2026-04-25T08:38:39Z</time></trkpt><trkpt lat="39.66856900445306" lon="8.976468724186795"><ele>174.5</ele><time>2026-04-25T08:38:40Z</time></trkpt><trkpt lat="39.6685730724355" lon="8.976303450050983"><ele>174.75</ele><time>2026-04-25T08:38:41Z</time></trkpt><trkpt lat="39.66862008764154" lon="8.976153720734972"><ele>175.0</ele><time>2026-04-25T08:38:42Z</time></trkpt><trkpt lat="39.66864834409116" lon="8.976001875622334"><ele>175.0</ele><time>2026-04-25T08:38:43Z</time></trkpt><trkpt lat="39.66868876200892" lon="8.975864851632041"><ele>175.0</ele><time>2026-04-25T08:38:44Z</time></trkpt><trkpt lat="39.668689864503264" lon="8.975723459857232"><ele>175.0</ele><time>2026-04-25T08:38:45Z</time></trkpt><trkpt lat="39.66866244832322" lon="8.975574847202212"><ele>175.0</ele><time>2026-04-25T08:38:46Z</time></trkpt><trkpt lat="39.66860614759387" lon="8.975439459239437"><ele>177.4</ele><time>2026-04-25T08:38:47Z</time></trkpt><trkpt lat="39.66854058101526" lon="8.97532705386953"><ele>179.8</ele><time>2026-04-25T08:38:48Z</time></trkpt><trkpt lat="39.66846867524323" lon="8.975247969678739"><ele>182.2</ele><time>2026-04-25T08:38:49Z</time></trkpt><trkpt lat="39.66844037898251" lon="8.975168661950047"><ele>184.6</ele><time>2026-04-25T08:38:50Z</time></trkpt><trkpt lat="39.668428232438636" lon="8.975043109340579"><ele>187.0</ele><time>2026-04-25T08:38:52Z</time></trkpt><trkpt lat="39.668503838081634" lon="8.97497952335538"><ele>187.39999999999998</ele><time>2026-04-25T08:38:53Z</time></trkpt><trkpt lat="39.66855738204821" lon="8.974871734424529"><ele>187.79999999999998</ele><time>2026-04-25T08:38:54Z</time></trkpt><trkpt lat="39.66862348144916" lon="8.97476640060829"><ele>188.2</ele><time>2026-04-25T08:38:55Z</time></trkpt><trkpt lat="39.66868179432043" lon="8.974648956807915"><ele>188.6</ele><time>2026-04-25T08:38:56Z</time></trkpt><trkpt lat="39.66873075832679" lon="8.974509151802486"><ele>189.0</ele><time>2026-04-25T08:38:57Z</time></trkpt><trkpt lat="39.668762492456075" lon="8.974354206693437"><ele>191.25</ele><time>2026-04-25T08:38:58Z</time></trkpt><trkpt lat="39.66878560742934" lon="8.974176948758602"><ele>193.5</ele><time>2026-04-25T08:38:59Z</time></trkpt><trkpt lat="39.6688078609505" lon="8.973989575266456"><ele>195.75</ele><time>2026-04-25T08:39:00Z</time></trkpt><trkpt lat="39.66883291050838" lon="8.973807033789079"><ele>198.0</ele><time>2026-04-25T08:39:01Z</time></trkpt><trkpt lat="39.668879335607514" lon="8.97362828710324"><ele>198.0</ele><time>2026-04-25T08:39:02Z</time></trkpt><trkpt lat="39.66891770558604" lon="8.97344391170694"><ele>198.0</ele><time>2026-04-25T08:39:03Z</time></trkpt><trkpt lat="39.668964430796535" lon="8.973252224290595"><ele>198.0</ele><time>2026-04-25T08:39:04Z</time></trkpt><trkpt lat="39.66902365534083" lon="8.973061410264217"><ele>200.33333333333331</ele><time>2026-04-25T08:39:05Z</time></trkpt><trkpt lat="39.66909215727523" lon="8.972865673870126"><ele>202.66666666666666</ele><time>2026-04-25T08:39:06Z</time></trkpt><trkpt lat="39.669137328350196" lon="8.972655322427528"><ele>205.0</ele><time>2026-04-25T08:39:07Z</time></trkpt><trkpt lat="39.669201162316575" lon="8.972455076781232"><ele>207.33333333333331</ele><time>2026-04-25T08:39:08Z</time></trkpt><trkpt lat="39.66924716578982" lon="8.972254263757783"><ele>209.66666666666669</ele><time>2026-04-25T08:39:09Z</time></trkpt><trkpt lat="39.66928932929639" lon="8.972059775541045"><ele>212.0</ele><time>2026-04-25T08:39:10Z</time></trkpt><trkpt lat="39.66933129815878" lon="8.97186748125816"><ele>211.0</ele><time>2026-04-25T08:39:11Z</time></trkpt><trkpt lat="39.669375049795946" lon="8.971676065305001"><ele>210.0</ele><time>2026-04-25T08:39:12Z</time></trkpt><trkpt lat="39.66942646442477" lon="8.971489301717346"><ele>209.0</ele><time>2026-04-25T08:39:13Z</time></trkpt><trkpt lat="39.66948958117137" lon="8.971309342902527"><ele>209.0</ele><time>2026-04-25T08:39:14Z</time></trkpt><trkpt lat="39.66956596859188" lon="8.971136148146886"><ele>209.0</ele><time>2026-04-25T08:39:15Z</time></trkpt><trkpt lat="39.66962776229853" lon="8.970947410736358"><ele>209.0</ele><time>2026-04-25T08:39:16Z</time></trkpt><trkpt lat="39.66970076200694" lon="8.970764377675591"><ele>211.66666666666669</ele><time>2026-04-25T08:39:17Z</time></trkpt><trkpt lat="39.669758182888266" lon="8.97056987661751"><ele>214.33333333333331</ele><time>2026-04-25T08:39:18Z</time></trkpt><trkpt lat="39.66979594034192" lon="8.970363086190215"><ele>217.0</ele><time>2026-04-25T08:39:19Z</time></trkpt><trkpt lat="39.6698236012489" lon="8.970157325522482"><ele>220.33333333333331</ele><time>2026-04-25T08:39:20Z</time></trkpt><trkpt lat="39.66984852277088" lon="8.969955654528135"><ele>223.66666666666669</ele><time>2026-04-25T08:39:21Z</time></trkpt><trkpt lat="39.669869142305764" lon="8.969757536901913"><ele>227.0</ele><time>2026-04-25T08:39:22Z</time></trkpt><trkpt lat="39.669908940353714" lon="8.969563275802303"><ele>227.0</ele><time>2026-04-25T08:39:23Z</time></trkpt><trkpt lat="39.66993135603392" lon="8.969375086823721"><ele>227.0</ele><time>2026-04-25T08:39:24Z</time></trkpt><trkpt lat="39.66995209972021" lon="8.969206546816581"><ele>227.0</ele><time>2026-04-25T08:39:25Z</time></trkpt><trkpt lat="39.6699722515068" lon="8.969056001006779"><ele>227.0</ele><time>2026-04-25T08:39:26Z</time></trkpt><trkpt lat="39.6699937077735" lon="8.968917173214699"><ele>228.75</ele><time>2026-04-25T08:39:27Z</time></trkpt><trkpt lat="39.67002593163978" lon="8.968772546930195"><ele>230.5</ele><time>2026-04-25T08:39:28Z</time></trkpt><trkpt lat="39.670068403723626" lon="8.968621077670912"><ele>232.25</ele><time>2026-04-25T08:39:29Z</time></trkpt><trkpt lat="39.670097876041766" lon="8.968456037218322"><ele>234.0</ele><time>2026-04-25T08:39:30Z</time></trkpt><trkpt lat="39.67014183235904" lon="8.968298071410144"><ele>235.0</ele><time>2026-04-25T08:39:31Z</time></trkpt><trkpt lat="39.670161433872515" lon="8.968152320299408"><ele>235.99999999999997</ele><time>2026-04-25T08:39:32Z</time></trkpt><trkpt lat="39.67016345863981" lon="8.968026930197757"><ele>236.99999999999997</ele><time>2026-04-25T08:39:33Z</time></trkpt><trkpt lat="39.67014512275642" lon="8.967907640071493"><ele>238.0</ele><time>2026-04-25T08:39:34Z</time></trkpt><trkpt lat="39.67010183592014" lon="8.967801703005502"><ele>239.0</ele><time>2026-04-25T08:39:35Z</time></trkpt><trkpt lat="39.67005053301799" lon="8.967681934022076"><ele>239.0</ele><time>2026-04-25T08:39:36Z</time></trkpt><trkpt lat="39.66998831877245" lon="8.967564071363258"><ele>239.0</ele><time>2026-04-25T08:39:37Z</time></trkpt><trkpt lat="39.66993178136329" lon="8.967438547083079"><ele>239.0</ele><time>2026-04-25T08:39:38Z</time></trkpt><trkpt lat="39.66988174358856" lon="8.96729496449315"><ele>239.0</ele><time>2026-04-25T08:39:39Z</time></trkpt><trkpt lat="39.66984538353463" lon="8.967150380334472"><ele>238.6</ele><time>2026-04-25T08:39:40Z</time></trkpt><trkpt lat="39.6698161209348" lon="8.967002833581224"><ele>238.2</ele><time>2026-04-25T08:39:41Z</time></trkpt><trkpt lat="39.669781148602056" lon="8.966861499642802"><ele>237.79999999999998</ele><time>2026-04-25T08:39:42Z</time></trkpt><trkpt lat="39.66974691088102" lon="8.966738121448802"><ele>237.39999999999998</ele><time>2026-04-25T08:39:43Z</time></trkpt><trkpt lat="39.66968337098729" lon="8.966639598197245"><ele>237.0</ele><time>2026-04-25T08:39:44Z</time></trkpt><trkpt lat="39.66963605255161" lon="8.966543821606429"><ele>237.0</ele><time>2026-04-25T08:39:45Z</time></trkpt><trkpt lat="39.6695971005909" lon="8.966438915226119"><ele>237.0</ele><time>2026-04-25T08:39:46Z</time></trkpt><trkpt lat="39.669539563419065" lon="8.966344642295994"><ele>237.0</ele><time>2026-04-25T08:39:47Z</time></trkpt><trkpt lat="39.6694740192883" lon="8.966247245227365"><ele>237.0</ele><time>2026-04-25T08:39:48Z</time></trkpt><trkpt lat="39.66939993674047" lon="8.96614679994673"><ele>237.0</ele><time>2026-04-25T08:39:49Z</time></trkpt><trkpt lat="39.669321379223625" lon="8.966042512807434"><ele>237.5</ele><time>2026-04-25T08:39:50Z</time></trkpt><trkpt lat="39.66924360322086" lon="8.965935404088965"><ele>238.0</ele><time>2026-04-25T08:39:51Z</time></trkpt><trkpt lat="39.6691660955869" lon="8.965827040235459"><ele>238.5</ele><time>2026-04-25T08:39:52Z</time></trkpt><trkpt lat="39.66908919644633" lon="8.96571693018747"><ele>239.0</ele><time>2026-04-25T08:39:53Z</time></trkpt><trkpt lat="39.669025763917176" lon="8.965596944121504"><ele>239.0</ele><time>2026-04-25T08:39:54Z</time></trkpt><trkpt lat="39.66898026802664" lon="8.965473770315432"><ele>238.99999999999997</ele><time>2026-04-25T08:39:55Z</time></trkpt><trkpt lat="39.66896527998429" lon="8.965340102572586"><ele>238.99999999999997</ele><time>2026-04-25T08:39:56Z</time></trkpt><trkpt lat="39.6689464770879" lon="8.965191004743586"><ele>239.0</ele><time>2026-04-25T08:39:57Z</time></trkpt><trkpt lat="39.66892789473799" lon="8.96504148019934"><ele>239.0</ele><time>2026-04-25T08:39:58Z</time></trkpt><trkpt lat="39.66890669530028" lon="8.964894301496797"><ele>238.0</ele><time>2026-04-25T08:39:59Z</time></trkpt><trkpt lat="39.668881651805584" lon="8.964753371439887"><ele>236.99999999999997</ele><time>2026-04-25T08:40:00Z</time></trkpt><trkpt lat="39.66885380595744" lon="8.96461777040537"><ele>235.99999999999997</ele><time>2026-04-25T08:40:01Z</time></trkpt><trkpt lat="39.66882410134556" lon="8.964484962632525"><ele>235.0</ele><time>2026-04-25T08:40:02Z</time></trkpt><trkpt lat="39.66879474735709" lon="8.964357078116384"><ele>234.0</ele><time>2026-04-25T08:40:03Z</time></trkpt><trkpt lat="39.66876598145303" lon="8.96423175571856"><ele>233.79999999999998</ele><time>2026-04-25T08:40:04Z</time></trkpt><trkpt lat="39.66873801102523" lon="8.96410989879292"><ele>233.59999999999997</ele><time>2026-04-25T08:40:05Z</time></trkpt><trkpt lat="39.66871136308508" lon="8.963990969641312"><ele>233.4</ele><time>2026-04-25T08:40:06Z</time></trkpt><trkpt lat="39.668687344386356" lon="8.963873392422563"><ele>233.2</ele><time>2026-04-25T08:40:07Z</time></trkpt><trkpt lat="39.668665661328504" lon="8.963754922471935"><ele>233.0</ele><time>2026-04-25T08:40:08Z</time></trkpt><trkpt lat="39.66864816268151" lon="8.963638344760586"><ele>233.00000000000003</ele><time>2026-04-25T08:40:09Z</time></trkpt><trkpt lat="39.668631815053466" lon="8.963525191931591"><ele>233.0</ele><time>2026-04-25T08:40:10Z</time></trkpt><trkpt lat="39.66861909397706" lon="8.963425684405083"><ele>233.0</ele><time>2026-04-25T08:40:11Z</time></trkpt><trkpt lat="39.668608300269554" lon="8.963340144854294"><ele>233.0</ele><time>2026-04-25T08:40:12Z</time></trkpt><trkpt lat="39.66859228758118" lon="8.96321324534972"><ele>233.00000000000003</ele><time>2026-04-25T08:40:14Z</time></trkpt><trkpt lat="39.668565293449234" lon="8.963124107698505"><ele>233.0</ele><time>2026-04-25T08:40:16Z</time></trkpt><trkpt lat="39.66856453377964" lon="8.962977499209805"><ele>232.60000000000002</ele><time>2026-04-25T08:40:28Z</time></trkpt><trkpt lat="39.66854672905" lon="8.962889402310916"><ele>232.20000000000002</ele><time>2026-04-25T08:40:29Z</time></trkpt><trkpt lat="39.66856020133475" lon="8.96277444888922"><ele>231.8</ele><time>2026-04-25T08:40:30Z</time></trkpt><trkpt lat="39.668575524385275" lon="8.962656027642108"><ele>231.4</ele><time>2026-04-25T08:40:31Z</time></trkpt><trkpt lat="39.668598886918126" lon="8.962518505799878"><ele>231.0</ele><time>2026-04-25T08:40:32Z</time></trkpt><trkpt lat="39.66861590491834" lon="8.9623793767092"><ele>231.0</ele><time>2026-04-25T08:40:33Z</time></trkpt><trkpt lat="39.66864008408695" lon="8.962236992824872"><ele>231.0</ele><time>2026-04-25T08:40:34Z</time></trkpt><trkpt lat="39.668660337183915" lon="8.962088479240887"><ele>231.0</ele><time>2026-04-25T08:40:35Z</time></trkpt><trkpt lat="39.668681884779396" lon="8.961932864503048"><ele>231.0</ele><time>2026-04-25T08:40:36Z</time></trkpt><trkpt lat="39.66868216911725" lon="8.961769440097852"><ele>230.25</ele><time>2026-04-25T08:40:37Z</time></trkpt><trkpt lat="39.66870073069626" lon="8.96160073629889"><ele>229.5</ele><time>2026-04-25T08:40:38Z</time></trkpt><trkpt lat="39.66872272705045" lon="8.961444212652442"><ele>228.75</ele><time>2026-04-25T08:40:39Z</time></trkpt><trkpt lat="39.66874880171638" lon="8.961293305288203"><ele>228.0</ele><time>2026-04-25T08:40:40Z</time></trkpt><trkpt lat="39.66875859283426" lon="8.961143310897691"><ele>228.0</ele><time>2026-04-25T08:40:41Z</time></trkpt><trkpt lat="39.6687476839401" lon="8.961011746489964"><ele>228.0</ele><time>2026-04-25T08:40:42Z</time></trkpt><trkpt lat="39.668707502173" lon="8.96090497012756"><ele>228.0</ele><time>2026-04-25T08:40:43Z</time></trkpt><trkpt lat="39.668637859164775" lon="8.96081198509529"><ele>228.0</ele><time>2026-04-25T08:40:44Z</time></trkpt><trkpt lat="39.66854382722454" lon="8.960743393107235"><ele>228.0</ele><time>2026-04-25T08:40:45Z</time></trkpt><trkpt lat="39.66844640341358" lon="8.960677133691588"><ele>224.25</ele><time>2026-04-25T08:40:46Z</time></trkpt><trkpt lat="39.66834079394661" lon="8.960605889641595"><ele>220.5</ele><time>2026-04-25T08:40:47Z</time></trkpt><trkpt lat="39.66823155962527" lon="8.960532340614055"><ele>216.75</ele><time>2026-04-25T08:40:48Z</time></trkpt><trkpt lat="39.66811872459434" lon="8.960453558705092"><ele>213.0</ele><time>2026-04-25T08:40:49Z</time></trkpt><trkpt lat="39.66800400106976" lon="8.960367385921305"><ele>213.0</ele><time>2026-04-25T08:40:50Z</time></trkpt><trkpt lat="39.667890092482835" lon="8.960277037161438"><ele>213.0</ele><time>2026-04-25T08:40:51Z</time></trkpt><trkpt lat="39.66777604964318" lon="8.960186492583198"><ele>213.0</ele><time>2026-04-25T08:40:52Z</time></trkpt><trkpt lat="39.66766218894179" lon="8.960096092687543"><ele>213.0</ele><time>2026-04-25T08:40:53Z</time></trkpt><trkpt lat="39.667549064434525" lon="8.960005914285672"><ele>209.5</ele><time>2026-04-25T08:40:54Z</time></trkpt><trkpt lat="39.667436633763586" lon="8.959915873589996"><ele>206.0</ele><time>2026-04-25T08:40:55Z</time></trkpt><trkpt lat="39.66732484073089" lon="8.959826969413198"><ele>202.5</ele><time>2026-04-25T08:40:56Z</time></trkpt><trkpt lat="39.66721489204057" lon="8.959738673701942"><ele>199.0</ele><time>2026-04-25T08:40:57Z</time></trkpt><trkpt lat="39.6671072457923" lon="8.959648050632206"><ele>199.0</ele><time>2026-04-25T08:40:58Z</time></trkpt><trkpt lat="39.667011131201996" lon="8.95955297638616"><ele>199.0</ele><time>2026-04-25T08:40:59Z</time></trkpt><trkpt lat="39.66693374081804" lon="8.959448608512762"><ele>199.0</ele><time>2026-04-25T08:41:00Z</time></trkpt><trkpt lat="39.66688211153586" lon="8.959326188891339"><ele>199.0</ele><time>2026-04-25T08:41:01Z</time></trkpt><trkpt lat="39.666835276297896" lon="8.959194541416096"><ele>197.75</ele><time>2026-04-25T08:41:02Z</time></trkpt><trkpt lat="39.66679836298892" lon="8.959057489974851"><ele>196.5</ele><time>2026-04-25T08:41:03Z</time></trkpt><trkpt lat="39.66675265682704" lon="8.958914134414686"><ele>195.25</ele><time>2026-04-25T08:41:04Z</time></trkpt><trkpt lat="39.66672984430935" lon="8.958756809479477"><ele>194.0</ele><time>2026-04-25T08:41:05Z</time></trkpt><trkpt lat="39.666708904284846" lon="8.958594424957893"><ele>194.0</ele><time>2026-04-25T08:41:06Z</time></trkpt><trkpt lat="39.66668426412506" lon="8.958432384729038"><ele>194.0</ele><time>2026-04-25T08:41:07Z</time></trkpt><trkpt lat="39.6666485909093" lon="8.958272112760444"><ele>194.0</ele><time>2026-04-25T08:41:08Z</time></trkpt><trkpt lat="39.66662268079073" lon="8.958106918125576"><ele>194.0</ele><time>2026-04-25T08:41:09Z</time></trkpt><trkpt lat="39.66657569676645" lon="8.95795360893576"><ele>193.5</ele><time>2026-04-25T08:41:10Z</time></trkpt><trkpt lat="39.66652669108595" lon="8.95780652728511"><ele>193.0</ele><time>2026-04-25T08:41:11Z</time></trkpt><trkpt lat="39.66647840861118" lon="8.957662615052783"><ele>192.5</ele><time>2026-04-25T08:41:12Z</time></trkpt><trkpt lat="39.666430334457154" lon="8.957521035474253"><ele>192.0</ele><time>2026-04-25T08:41:13Z</time></trkpt><trkpt lat="39.666386564296445" lon="8.957377168576834"><ele>191.75</ele><time>2026-04-25T08:41:14Z</time></trkpt><trkpt lat="39.66633744288449" lon="8.957233960173149"><ele>191.5</ele><time>2026-04-25T08:41:15Z</time></trkpt><trkpt lat="39.66631366761613" lon="8.957075368277037"><ele>191.25</ele><time>2026-04-25T08:41:16Z</time></trkpt><trkpt lat="39.66629608608607" lon="8.956913750114264"><ele>191.0</ele><time>2026-04-25T08:41:17Z</time></trkpt><trkpt lat="39.66628827674653" lon="8.95674946791084"><ele>190.75</ele><time>2026-04-25T08:41:18Z</time></trkpt><trkpt lat="39.666274850551254" lon="8.956586771775944"><ele>190.5</ele><time>2026-04-25T08:41:19Z</time></trkpt><trkpt lat="39.666268089733215" lon="8.956425419029147"><ele>190.25</ele><time>2026-04-25T08:41:20Z</time></trkpt><trkpt lat="39.66620825804236" lon="8.956266165127117"><ele>190.0</ele><time>2026-04-25T08:41:21Z</time></trkpt><trkpt lat="39.66612725260853" lon="8.956129111868107"><ele>189.75</ele><time>2026-04-25T08:41:22Z</time></trkpt><trkpt lat="39.666024086053554" lon="8.956019016129734"><ele>189.5</ele><time>2026-04-25T08:41:23Z</time></trkpt><trkpt lat="39.665953648902125" lon="8.955888443876916"><ele>189.25</ele><time>2026-04-25T08:41:24Z</time></trkpt><trkpt lat="39.665869545575994" lon="8.955766498966975"><ele>189.0</ele><time>2026-04-25T08:41:25Z</time></trkpt><trkpt lat="39.665782846878756" lon="8.955643740422907"><ele>189.0</ele><time>2026-04-25T08:41:26Z</time></trkpt><trkpt lat="39.665694654686504" lon="8.955522297130381"><ele>189.0</ele><time>2026-04-25T08:41:27Z</time></trkpt><trkpt lat="39.665607573180296" lon="8.955403452163983"><ele>189.0</ele><time>2026-04-25T08:41:28Z</time></trkpt><trkpt lat="39.665523066638045" lon="8.955294187912262"><ele>189.0</ele><time>2026-04-25T08:41:29Z</time></trkpt><trkpt lat="39.66544378500783" lon="8.955195220806383"><ele>189.0</ele><time>2026-04-25T08:41:30Z</time></trkpt><trkpt lat="39.66537738291207" lon="8.955096728694036"><ele>189.0</ele><time>2026-04-25T08:41:31Z</time></trkpt><trkpt lat="39.665333510151484" lon="8.954983460154514"><ele>189.0</ele><time>2026-04-25T08:41:32Z</time></trkpt><trkpt lat="39.66530360441711" lon="8.954850951679184"><ele>189.0</ele><time>2026-04-25T08:41:33Z</time></trkpt><trkpt lat="39.665271224785904" lon="8.954703339162021"><ele>189.0</ele><time>2026-04-25T08:41:34Z</time></trkpt><trkpt lat="39.665238025822795" lon="8.954543775221088"><ele>188.5</ele><time>2026-04-25T08:41:35Z</time></trkpt><trkpt lat="39.66519040563484" lon="8.954386066365682"><ele>188.0</ele><time>2026-04-25T08:41:36Z</time></trkpt><trkpt lat="39.665158597842705" lon="8.954214938354786"><ele>187.5</ele><time>2026-04-25T08:41:37Z</time></trkpt><trkpt lat="39.66514381476424" lon="8.95403811596534"><ele>187.0</ele><time>2026-04-25T08:41:38Z</time></trkpt><trkpt lat="39.66510224849164" lon="8.953867003641927"><ele>185.75</ele><time>2026-04-25T08:41:39Z</time></trkpt><trkpt lat="39.66508712890489" lon="8.953689919718883"><ele>184.5</ele><time>2026-04-25T08:41:40Z</time></trkpt><trkpt lat="39.665074426092424" lon="8.953513921445364"><ele>183.25</ele><time>2026-04-25T08:41:41Z</time></trkpt><trkpt lat="39.66506672692715" lon="8.953337717358766"><ele>182.0</ele><time>2026-04-25T08:41:42Z</time></trkpt><trkpt lat="39.66506411284921" lon="8.953162484624412"><ele>182.0</ele><time>2026-04-25T08:41:43Z</time></trkpt><trkpt lat="39.665061040641625" lon="8.952987859461425"><ele>182.0</ele><time>2026-04-25T08:41:44Z</time></trkpt><trkpt lat="39.66505783870439" lon="8.95280985820351"><ele>182.0</ele><time>2026-04-25T08:41:45Z</time></trkpt><trkpt lat="39.66505294546266" lon="8.952631094304854"><ele>182.0</ele><time>2026-04-25T08:41:46Z</time></trkpt><trkpt lat="39.66504364617156" lon="8.952452907375553"><ele>182.0</ele><time>2026-04-25T08:41:47Z</time></trkpt><trkpt lat="39.66502948216286" lon="8.952278834864522"><ele>182.0</ele><time>2026-04-25T08:41:48Z</time></trkpt><trkpt lat="39.66500329387278" lon="8.952118552299835"><ele>182.0</ele><time>2026-04-25T08:41:49Z</time></trkpt><trkpt lat="39.66495505811333" lon="8.951979647050882"><ele>182.0</ele><time>2026-04-25T08:41:50Z</time></trkpt><trkpt lat="39.66490452442057" lon="8.951860331231599"><ele>182.0</ele><time>2026-04-25T08:41:51Z</time></trkpt><trkpt lat="39.66485638079657" lon="8.951758157519661"><ele>182.0</ele><time>2026-04-25T08:41:52Z</time></trkpt><trkpt lat="39.66482492340575" lon="8.951646793633046"><ele>182.0</ele><time>2026-04-25T08:41:53Z</time></trkpt><trkpt lat="39.664794109578345" lon="8.951511705255138"><ele>182.0</ele><time>2026-04-25T08:41:54Z</time></trkpt><trkpt lat="39.66476400791705" lon="8.951362373984422"><ele>182.0</ele><time>2026-04-25T08:41:55Z</time></trkpt><trkpt lat="39.66473288505071" lon="8.951199819937933"><ele>182.25</ele><time>2026-04-25T08:41:56Z</time></trkpt><trkpt lat="39.66470644611546" lon="8.951030787168131"><ele>182.5</ele><time>2026-04-25T08:41:57Z</time></trkpt><trkpt lat="39.66469162916308" lon="8.950853845550219"><ele>182.75</ele><time>2026-04-25T08:41:58Z</time></trkpt><trkpt lat="39.66467461690523" lon="8.950663883498573"><ele>183.0</ele><time>2026-04-25T08:41:59Z</time></trkpt><trkpt lat="39.66463917992985" lon="8.95047479669524"><ele>183.0</ele><time>2026-04-25T08:42:00Z</time></trkpt><trkpt lat="39.66459765393528" lon="8.950295348037761"><ele>183.0</ele><time>2026-04-25T08:42:01Z</time></trkpt><trkpt lat="39.66455858200657" lon="8.950116144185845"><ele>183.0</ele><time>2026-04-25T08:42:02Z</time></trkpt><trkpt lat="39.66452361939282" lon="8.949934285209013"><ele>183.0</ele><time>2026-04-25T08:42:03Z</time></trkpt><trkpt lat="39.66448315304677" lon="8.949751682644065"><ele>182.75</ele><time>2026-04-25T08:42:04Z</time></trkpt><trkpt lat="39.66443483088608" lon="8.949576541477432"><ele>182.5</ele><time>2026-04-25T08:42:05Z</time></trkpt><trkpt lat="39.66438572995488" lon="8.949405427459958"><ele>182.25</ele><time>2026-04-25T08:42:06Z</time></trkpt><trkpt lat="39.664343936723384" lon="8.949230286504449"><ele>182.0</ele><time>2026-04-25T08:42:07Z</time></trkpt><trkpt lat="39.66431569211071" lon="8.949054923877583"><ele>182.0</ele><time>2026-04-25T08:42:08Z</time></trkpt><trkpt lat="39.66428765128384" lon="8.948872941227618"><ele>182.0</ele><time>2026-04-25T08:42:09Z</time></trkpt><trkpt lat="39.66425732742373" lon="8.94868905194843"><ele>182.0</ele><time>2026-04-25T08:42:10Z</time></trkpt><trkpt lat="39.66422431966803" lon="8.94850535661615"><ele>182.0</ele><time>2026-04-25T08:42:11Z</time></trkpt><trkpt lat="39.66419166210515" lon="8.948323610196624"><ele>182.25</ele><time>2026-04-25T08:42:12Z</time></trkpt><trkpt lat="39.66415665016913" lon="8.948142683410918"><ele>182.5</ele><time>2026-04-25T08:42:13Z</time></trkpt><trkpt lat="39.66412270414644" lon="8.947967647825212"><ele>182.75</ele><time>2026-04-25T08:42:14Z</time></trkpt><trkpt lat="39.66408557037262" lon="8.9477969114025"><ele>183.0</ele><time>2026-04-25T08:42:15Z</time></trkpt><trkpt lat="39.664045408113445" lon="8.947630856510566"><ele>183.75</ele><time>2026-04-25T08:42:16Z</time></trkpt><trkpt lat="39.66400334796273" lon="8.94746227620858"><ele>184.5</ele><time>2026-04-25T08:42:17Z</time></trkpt><trkpt lat="39.66396305803686" lon="8.947290819782546"><ele>185.25</ele><time>2026-04-25T08:42:18Z</time></trkpt><trkpt lat="39.66392742268697" lon="8.9471173666681"><ele>186.0</ele><time>2026-04-25T08:42:19Z</time></trkpt><trkpt lat="39.66390093586914" lon="8.946939014949296"><ele>186.0</ele><time>2026-04-25T08:42:20Z</time></trkpt><trkpt lat="39.66388066065658" lon="8.946756535021542"><ele>186.0</ele><time>2026-04-25T08:42:21Z</time></trkpt><trkpt lat="39.66387003216624" lon="8.946578337828276"><ele>186.0</ele><time>2026-04-25T08:42:22Z</time></trkpt><trkpt lat="39.663864545918045" lon="8.946398076075754"><ele>186.0</ele><time>2026-04-25T08:42:23Z</time></trkpt><trkpt lat="39.6638663315505" lon="8.946219622450508"><ele>185.25</ele><time>2026-04-25T08:42:24Z</time></trkpt><trkpt lat="39.66387515872712" lon="8.946040586614862"><ele>184.5</ele><time>2026-04-25T08:42:25Z</time></trkpt><trkpt lat="39.66388834780294" lon="8.945861805160591"><ele>183.75</ele><time>2026-04-25T08:42:26Z</time></trkpt><trkpt lat="39.66390391921351" lon="8.945682951148124"><ele>183.0</ele><time>2026-04-25T08:42:27Z</time></trkpt><trkpt lat="39.66392001272443" lon="8.945502708569364"><ele>182.75</ele><time>2026-04-25T08:42:28Z</time></trkpt><trkpt lat="39.66393722174277" lon="8.945324379333629"><ele>182.5</ele><time>2026-04-25T08:42:29Z</time></trkpt><trkpt lat="39.66395710976732" lon="8.945144420155554"><ele>182.25</ele><time>2026-04-25T08:42:30Z</time></trkpt><trkpt lat="39.663977911365734" lon="8.94496421159313"><ele>182.0</ele><time>2026-04-25T08:42:31Z</time></trkpt><trkpt lat="39.6639987821744" lon="8.944783403453197"><ele>182.0</ele><time>2026-04-25T08:42:32Z</time></trkpt><trkpt lat="39.66401940497286" lon="8.944604743870888"><ele>182.0</ele><time>2026-04-25T08:42:33Z</time></trkpt><trkpt lat="39.664040052486776" lon="8.944425868811493"><ele>182.0</ele><time>2026-04-25T08:42:34Z</time></trkpt><trkpt lat="39.66406117451206" lon="8.944248736243301"><ele>182.0</ele><time>2026-04-25T08:42:35Z</time></trkpt><trkpt lat="39.66408135478972" lon="8.944081896312392"><ele>182.75</ele><time>2026-04-25T08:42:36Z</time></trkpt><trkpt lat="39.6641013091041" lon="8.943927860563203"><ele>183.5</ele><time>2026-04-25T08:42:37Z</time></trkpt><trkpt lat="39.66412111411105" lon="8.943780624084607"><ele>184.25</ele><time>2026-04-25T08:42:38Z</time></trkpt><trkpt lat="39.664140517951964" lon="8.943637286028169"><ele>185.0</ele><time>2026-04-25T08:42:39Z</time></trkpt><trkpt lat="39.664159665391686" lon="8.943489964535635"><ele>185.6</ele><time>2026-04-25T08:42:40Z</time></trkpt><trkpt lat="39.664174057349484" lon="8.943342773344476"><ele>186.2</ele><time>2026-04-25T08:42:41Z</time></trkpt><trkpt lat="39.66418383781161" lon="8.94319826313539"><ele>186.8</ele><time>2026-04-25T08:42:42Z</time></trkpt><trkpt lat="39.66417004438268" lon="8.943057927233534"><ele>187.4</ele><time>2026-04-25T08:42:43Z</time></trkpt><trkpt lat="39.66418249871684" lon="8.942925222704886"><ele>188.0</ele><time>2026-04-25T08:42:44Z</time></trkpt><trkpt lat="39.66416875735846" lon="8.942798594707286"><ele>188.0</ele><time>2026-04-25T08:42:45Z</time></trkpt><trkpt lat="39.66414780503173" lon="8.942688991754544"><ele>188.0</ele><time>2026-04-25T08:42:46Z</time></trkpt><trkpt lat="39.66412791433176" lon="8.94260348174507"><ele>188.0</ele><time>2026-04-25T08:42:47Z</time></trkpt><trkpt lat="39.66404526662761" lon="8.942586510523235"><ele>188.0</ele><time>2026-04-25T08:42:49Z</time></trkpt><trkpt lat="39.66397881148427" lon="8.94254155919041"><ele>188.0</ele><time>2026-04-25T08:43:00Z</time></trkpt><trkpt lat="39.6639093721836" lon="8.94245927252344"><ele>188.0</ele><time>2026-04-25T08:43:02Z</time></trkpt><trkpt lat="39.66382276311252" lon="8.94233363771938"><ele>186.2</ele><time>2026-04-25T08:43:04Z</time></trkpt><trkpt lat="39.66376342694718" lon="8.942257570861287"><ele>184.4</ele><time>2026-04-25T08:43:05Z</time></trkpt><trkpt lat="39.663694864519464" lon="8.942176585653286"><ele>182.6</ele><time>2026-04-25T08:43:06Z</time></trkpt><trkpt lat="39.66362419892989" lon="8.942094792261695"><ele>180.79999999999998</ele><time>2026-04-25T08:43:07Z</time></trkpt><trkpt lat="39.66355436876654" lon="8.94200259957577"><ele>179.0</ele><time>2026-04-25T08:43:08Z</time></trkpt><trkpt lat="39.663489181045854" lon="8.941889090136117"><ele>179.0</ele><time>2026-04-25T08:43:09Z</time></trkpt><trkpt lat="39.66343490714883" lon="8.941758257284766"><ele>179.0</ele><time>2026-04-25T08:43:10Z</time></trkpt><trkpt lat="39.66340427474083" lon="8.941616809433407"><ele>179.0</ele><time>2026-04-25T08:43:11Z</time></trkpt><trkpt lat="39.6633541837411" lon="8.941488556198056"><ele>179.0</ele><time>2026-04-25T08:43:12Z</time></trkpt><trkpt lat="39.66328750916763" lon="8.941369057235478"><ele>176.39999999999998</ele><time>2026-04-25T08:43:13Z</time></trkpt><trkpt lat="39.66324392055528" lon="8.94123716319483"><ele>173.8</ele><time>2026-04-25T08:43:14Z</time></trkpt><trkpt lat="39.6631973842545" lon="8.941109117823684"><ele>171.2</ele><time>2026-04-25T08:43:15Z</time></trkpt><trkpt lat="39.66315037539555" lon="8.940983112999973"><ele>168.60000000000002</ele><time>2026-04-25T08:43:16Z</time></trkpt><trkpt lat="39.66310665053129" lon="8.940854158375709"><ele>166.0</ele><time>2026-04-25T08:43:17Z</time></trkpt><trkpt lat="39.66306644265461" lon="8.940722390696632"><ele>163.8</ele><time>2026-04-25T08:43:18Z</time></trkpt><trkpt lat="39.66302259588276" lon="8.940597314874376"><ele>161.60000000000002</ele><time>2026-04-25T08:43:19Z</time></trkpt><trkpt lat="39.66298412302478" lon="8.940468775828"><ele>159.4</ele><time>2026-04-25T08:43:20Z</time></trkpt><trkpt lat="39.662976021110445" lon="8.940326287779117"><ele>157.2</ele><time>2026-04-25T08:43:21Z</time></trkpt><trkpt lat="39.662960692305624" lon="8.940186191312103"><ele>155.0</ele><time>2026-04-25T08:43:22Z</time></trkpt><trkpt lat="39.66294537923599" lon="8.940042610652037"><ele>152.75</ele><time>2026-04-25T08:43:23Z</time></trkpt><trkpt lat="39.66292836645736" lon="8.93990014083066"><ele>150.5</ele><time>2026-04-25T08:43:24Z</time></trkpt><trkpt lat="39.662911988837294" lon="8.939756262564362"><ele>148.25</ele><time>2026-04-25T08:43:25Z</time></trkpt><trkpt lat="39.66288090847017" lon="8.939609522195221"><ele>146.0</ele><time>2026-04-25T08:43:26Z</time></trkpt><trkpt lat="39.662865991550056" lon="8.939452666384485"><ele>146.0</ele><time>2026-04-25T08:43:27Z</time></trkpt><trkpt lat="39.66284831873924" lon="8.939292136880132"><ele>146.0</ele><time>2026-04-25T08:43:28Z</time></trkpt><trkpt lat="39.662832291785726" lon="8.939127436166634"><ele>146.0</ele><time>2026-04-25T08:43:29Z</time></trkpt><trkpt lat="39.66281438675799" lon="8.938959187294863"><ele>146.0</ele><time>2026-04-25T08:43:30Z</time></trkpt><trkpt lat="39.66279238733334" lon="8.938788842369618"><ele>144.2</ele><time>2026-04-25T08:43:31Z</time></trkpt><trkpt lat="39.66276978997298" lon="8.938623682540616"><ele>142.39999999999998</ele><time>2026-04-25T08:43:32Z</time></trkpt><trkpt lat="39.66275344383385" lon="8.938488566720107"><ele>140.6</ele><time>2026-04-25T08:43:33Z</time></trkpt><trkpt lat="39.66275279501385" lon="8.93836332913725"><ele>138.79999999999998</ele><time>2026-04-25T08:43:34Z</time></trkpt><trkpt lat="39.66272328846867" lon="8.938230123953431"><ele>137.0</ele><time>2026-04-25T08:43:35Z</time></trkpt><trkpt lat="39.66272151961753" lon="8.938082064414678"><ele>136.5</ele><time>2026-04-25T08:43:36Z</time></trkpt><trkpt lat="39.66270375702213" lon="8.93792336893929"><ele>136.0</ele><time>2026-04-25T08:43:37Z</time></trkpt><trkpt lat="39.662688050331745" lon="8.937762730499356"><ele>135.5</ele><time>2026-04-25T08:43:38Z</time></trkpt><trkpt lat="39.66267225599817" lon="8.937600321596562"><ele>135.0</ele><time>2026-04-25T08:43:39Z</time></trkpt><trkpt lat="39.66265596507733" lon="8.937432806379839"><ele>134.0</ele><time>2026-04-25T08:43:40Z</time></trkpt><trkpt lat="39.66263737011527" lon="8.937267018692385"><ele>133.0</ele><time>2026-04-25T08:43:41Z</time></trkpt><trkpt lat="39.662603114994226" lon="8.937107350602002"><ele>132.0</ele><time>2026-04-25T08:43:42Z</time></trkpt><trkpt lat="39.66258699194105" lon="8.936942913744508"><ele>131.0</ele><time>2026-04-25T08:43:43Z</time></trkpt><trkpt lat="39.662563386603544" lon="8.936779862178147"><ele>130.75</ele><time>2026-04-25T08:43:44Z</time></trkpt><trkpt lat="39.66253801575429" lon="8.936614005626334"><ele>130.5</ele><time>2026-04-25T08:43:45Z</time></trkpt><trkpt lat="39.662488286736426" lon="8.936451441766488"><ele>130.25</ele><time>2026-04-25T08:43:46Z</time></trkpt><trkpt lat="39.66244321096448" lon="8.936287001997535"><ele>130.0</ele><time>2026-04-25T08:43:47Z</time></trkpt><trkpt lat="39.66239752728576" lon="8.936122723092632"><ele>130.0</ele><time>2026-04-25T08:43:48Z</time></trkpt><trkpt lat="39.66234930120207" lon="8.935958100769232"><ele>130.0</ele><time>2026-04-25T08:43:49Z</time></trkpt><trkpt lat="39.662299636885756" lon="8.935794818780353"><ele>130.0</ele><time>2026-04-25T08:43:50Z</time></trkpt><trkpt lat="39.66225269848433" lon="8.93563152459143"><ele>130.0</ele><time>2026-04-25T08:43:51Z</time></trkpt><trkpt lat="39.66220504261641" lon="8.93547191473486"><ele>130.5</ele><time>2026-04-25T08:43:52Z</time></trkpt><trkpt lat="39.66215784711975" lon="8.935313129690453"><ele>131.0</ele><time>2026-04-25T08:43:53Z</time></trkpt><trkpt lat="39.66214164290157" lon="8.935150142558921"><ele>131.5</ele><time>2026-04-25T08:43:54Z</time></trkpt><trkpt lat="39.662108158899656" lon="8.934997556340134"><ele>132.0</ele><time>2026-04-25T08:43:55Z</time></trkpt><trkpt lat="39.66210504249163" lon="8.934836251644311"><ele>133.0</ele><time>2026-04-25T08:43:56Z</time></trkpt><trkpt lat="39.66210093544196" lon="8.934670859670224"><ele>134.0</ele><time>2026-04-25T08:43:57Z</time></trkpt><trkpt lat="39.662095341381985" lon="8.934507216941327"><ele>135.0</ele><time>2026-04-25T08:43:58Z</time></trkpt><trkpt lat="39.66208665081649" lon="8.934351530241702"><ele>136.0</ele><time>2026-04-25T08:43:59Z</time></trkpt><trkpt lat="39.66207218507242" lon="8.934205097859309"><ele>137.25</ele><time>2026-04-25T08:44:00Z</time></trkpt><trkpt lat="39.66206068741872" lon="8.9340597879012"><ele>138.5</ele><time>2026-04-25T08:44:01Z</time></trkpt><trkpt lat="39.66205962577107" lon="8.933910145644983"><ele>139.75</ele><time>2026-04-25T08:44:02Z</time></trkpt><trkpt lat="39.66206739357062" lon="8.933754747514733"><ele>141.0</ele><time>2026-04-25T08:44:03Z</time></trkpt><trkpt lat="39.6620818965243" lon="8.933594559591668"><ele>141.0</ele><time>2026-04-25T08:44:04Z</time></trkpt><trkpt lat="39.662098642398114" lon="8.93343420787108"><ele>141.0</ele><time>2026-04-25T08:44:05Z</time></trkpt><trkpt lat="39.66211076516057" lon="8.933280531202486"><ele>141.0</ele><time>2026-04-25T08:44:06Z</time></trkpt><trkpt lat="39.66211959563074" lon="8.933141476658582"><ele>141.0</ele><time>2026-04-25T08:44:07Z</time></trkpt><trkpt lat="39.66212047735911" lon="8.93301018919941"><ele>141.0</ele><time>2026-04-25T08:44:08Z</time></trkpt><trkpt lat="39.66213761761072" lon="8.932872453449662"><ele>141.0</ele><time>2026-04-25T08:44:09Z</time></trkpt><trkpt lat="39.66214841424136" lon="8.932714957017847"><ele>141.0</ele><time>2026-04-25T08:44:10Z</time></trkpt><trkpt lat="39.66215148012561" lon="8.932538439317309"><ele>141.0</ele><time>2026-04-25T08:44:11Z</time></trkpt><trkpt lat="39.66218087823138" lon="8.932356159908332"><ele>141.0</ele><time>2026-04-25T08:44:12Z</time></trkpt><trkpt lat="39.66221160061189" lon="8.932165520857716"><ele>141.0</ele><time>2026-04-25T08:44:13Z</time></trkpt><trkpt lat="39.66223809729428" lon="8.931974534987372"><ele>141.0</ele><time>2026-04-25T08:44:14Z</time></trkpt><trkpt lat="39.662270218591146" lon="8.931781465029076"><ele>140.0</ele><time>2026-04-25T08:44:15Z</time></trkpt><trkpt lat="39.66230223311443" lon="8.931591588262984"><ele>139.0</ele><time>2026-04-25T08:44:16Z</time></trkpt><trkpt lat="39.662325152690414" lon="8.931403200723382"><ele>138.0</ele><time>2026-04-25T08:44:17Z</time></trkpt><trkpt lat="39.66234567089798" lon="8.931219555807852"><ele>137.0</ele><time>2026-04-25T08:44:18Z</time></trkpt><trkpt lat="39.66237088547401" lon="8.93103853973271"><ele>136.0</ele><time>2026-04-25T08:44:19Z</time></trkpt><trkpt lat="39.6623953583327" lon="8.930856592337719"><ele>135.0</ele><time>2026-04-25T08:44:20Z</time></trkpt><trkpt lat="39.662424333574116" lon="8.930677371665414"><ele>134.0</ele><time>2026-04-25T08:44:21Z</time></trkpt><trkpt lat="39.66245329532618" lon="8.93049804938648"><ele>133.0</ele><time>2026-04-25T08:44:22Z</time></trkpt><trkpt lat="39.66248045217485" lon="8.930315965117275"><ele>133.0</ele><time>2026-04-25T08:44:23Z</time></trkpt><trkpt lat="39.66250906799939" lon="8.930135469829086"><ele>133.0</ele><time>2026-04-25T08:44:24Z</time></trkpt><trkpt lat="39.662535538688736" lon="8.929962571419745"><ele>133.0</ele><time>2026-04-25T08:44:25Z</time></trkpt><trkpt lat="39.662560758114196" lon="8.929797878652968"><ele>133.0</ele><time>2026-04-25T08:44:26Z</time></trkpt><trkpt lat="39.662582060245214" lon="8.929640244329178"><ele>132.4</ele><time>2026-04-25T08:44:27Z</time></trkpt><trkpt lat="39.6625990650295" lon="8.92948921597611"><ele>131.8</ele><time>2026-04-25T08:44:28Z</time></trkpt><trkpt lat="39.662620855886196" lon="8.929347374451055"><ele>131.2</ele><time>2026-04-25T08:44:29Z</time></trkpt><trkpt lat="39.66265169257229" lon="8.929216458166453"><ele>130.6</ele><time>2026-04-25T08:44:30Z</time></trkpt><trkpt lat="39.6626869728435" lon="8.929097085294977"><ele>130.0</ele><time>2026-04-25T08:44:31Z</time></trkpt><trkpt lat="39.662729133861134" lon="8.92898545193207"><ele>129.6</ele><time>2026-04-25T08:44:32Z</time></trkpt><trkpt lat="39.662775040471" lon="8.92888209300041"><ele>129.2</ele><time>2026-04-25T08:44:33Z</time></trkpt><trkpt lat="39.66281962199737" lon="8.928784843556262"><ele>128.8</ele><time>2026-04-25T08:44:34Z</time></trkpt><trkpt lat="39.662863156598746" lon="8.928686317745532"><ele>128.4</ele><time>2026-04-25T08:44:35Z</time></trkpt><trkpt lat="39.66290739015946" lon="8.92857674593307"><ele>128.0</ele><time>2026-04-25T08:44:36Z</time></trkpt><trkpt lat="39.66294685571481" lon="8.928468109956397"><ele>128.33333333333331</ele><time>2026-04-25T08:44:37Z</time></trkpt><trkpt lat="39.662969236397835" lon="8.928365636821066"><ele>128.66666666666666</ele><time>2026-04-25T08:44:38Z</time></trkpt><trkpt lat="39.662963097128504" lon="8.928275119194549"><ele>129.0</ele><time>2026-04-25T08:44:39Z</time></trkpt><trkpt lat="39.66293110046518" lon="8.92813822390729"><ele>129.33333333333334</ele><time>2026-04-25T08:44:41Z</time></trkpt><trkpt lat="39.662900319006724" lon="8.928028825083343"><ele>129.66666666666669</ele><time>2026-04-25T08:44:43Z</time></trkpt><trkpt lat="39.66285596614148" lon="8.92796598723683"><ele>130.0</ele><time>2026-04-25T08:44:44Z</time></trkpt><trkpt lat="39.66279187006986" lon="8.927915324806225"><ele>129.85714285714286</ele><time>2026-04-25T08:44:45Z</time></trkpt><trkpt lat="39.662735082751865" lon="8.9278714902579"><ele>129.71428571428572</ele><time>2026-04-25T08:44:46Z</time></trkpt><trkpt lat="39.66267655638957" lon="8.927828206778026"><ele>129.57142857142856</ele><time>2026-04-25T08:44:47Z</time></trkpt><trkpt lat="39.662605726544506" lon="8.927794383974925"><ele>129.42857142857144</ele><time>2026-04-25T08:44:48Z</time></trkpt><trkpt lat="39.662542809738106" lon="8.927737500064392"><ele>129.28571428571428</ele><time>2026-04-25T08:44:49Z</time></trkpt><trkpt lat="39.66248621649791" lon="8.927673096819978"><ele>129.14285714285714</ele><time>2026-04-25T08:44:50Z</time></trkpt><trkpt lat="39.66245124122235" lon="8.927571026289533"><ele>129.0</ele><time>2026-04-25T08:44:51Z</time></trkpt><trkpt lat="39.662409164083904" lon="8.927468574973291"><ele>129.0</ele><time>2026-04-25T08:44:52Z</time></trkpt><trkpt lat="39.66236060358813" lon="8.927366492508844"><ele>129.0</ele><time>2026-04-25T08:44:53Z</time></trkpt><trkpt lat="39.662319419811276" lon="8.927242283378467"><ele>129.0</ele><time>2026-04-25T08:44:54Z</time></trkpt><trkpt lat="39.662275393794005" lon="8.927110678339625"><ele>129.0</ele><time>2026-04-25T08:44:55Z</time></trkpt><trkpt lat="39.66223532046123" lon="8.926975612131532"><ele>129.0</ele><time>2026-04-25T08:44:56Z</time></trkpt><trkpt lat="39.66219718978561" lon="8.926849725878794"><ele>129.0</ele><time>2026-04-25T08:44:57Z</time></trkpt><trkpt lat="39.662164236821766" lon="8.926731161798225"><ele>129.0</ele><time>2026-04-25T08:44:58Z</time></trkpt><trkpt lat="39.66213985886242" lon="8.926604107327817"><ele>129.0</ele><time>2026-04-25T08:44:59Z</time></trkpt><trkpt lat="39.662112519260575" lon="8.926468732375202"><ele>129.0</ele><time>2026-04-25T08:45:00Z</time></trkpt><trkpt lat="39.66208240476767" lon="8.92633004269336"><ele>129.0</ele><time>2026-04-25T08:45:01Z</time></trkpt><trkpt lat="39.662071454426965" lon="8.926182472007007"><ele>129.2</ele><time>2026-04-25T08:45:02Z</time></trkpt><trkpt lat="39.662046800564966" lon="8.926039841516307"><ele>129.4</ele><time>2026-04-25T08:45:03Z</time></trkpt><trkpt lat="39.66202459278327" lon="8.92589916613901"><ele>129.6</ele><time>2026-04-25T08:45:04Z</time></trkpt><trkpt lat="39.66200614671966" lon="8.925758468752901"><ele>129.8</ele><time>2026-04-25T08:45:05Z</time></trkpt><trkpt lat="39.66199314934935" lon="8.925621342098136"><ele>130.0</ele><time>2026-04-25T08:45:06Z</time></trkpt><trkpt lat="39.66199240605654" lon="8.925488300334873"><ele>130.2</ele><time>2026-04-25T08:45:07Z</time></trkpt><trkpt lat="39.66199714272522" lon="8.92534986793929"><ele>130.4</ele><time>2026-04-25T08:45:08Z</time></trkpt><trkpt lat="39.662004978339056" lon="8.925209187150474"><ele>130.6</ele><time>2026-04-25T08:45:09Z</time></trkpt><trkpt lat="39.66201286568699" lon="8.925070511794932"><ele>130.8</ele><time>2026-04-25T08:45:10Z</time></trkpt><trkpt lat="39.6620201659373" lon="8.924935854242262"><ele>131.0</ele><time>2026-04-25T08:45:11Z</time></trkpt><trkpt lat="39.66202238419473" lon="8.924808777318404"><ele>131.16666666666666</ele><time>2026-04-25T08:45:12Z</time></trkpt><trkpt lat="39.662023487201296" lon="8.92469030321828"><ele>131.33333333333331</ele><time>2026-04-25T08:45:13Z</time></trkpt><trkpt lat="39.662022847431714" lon="8.924575963110195"><ele>131.5</ele><time>2026-04-25T08:45:14Z</time></trkpt><trkpt lat="39.66202009838014" lon="8.924464336188777"><ele>131.66666666666666</ele><time>2026-04-25T08:45:15Z</time></trkpt><trkpt lat="39.66201549486921" lon="8.924353802224607"><ele>131.83333333333334</ele><time>2026-04-25T08:45:16Z</time></trkpt><trkpt lat="39.66200889064527" lon="8.924247094611731"><ele>132.0</ele><time>2026-04-25T08:45:17Z</time></trkpt><trkpt lat="39.662001339616694" lon="8.924141693703602"><ele>132.0</ele><time>2026-04-25T08:45:18Z</time></trkpt><trkpt lat="39.661986238966186" lon="8.924034576144235"><ele>132.0</ele><time>2026-04-25T08:45:19Z</time></trkpt><trkpt lat="39.661967699580856" lon="8.923925396695978"><ele>132.0</ele><time>2026-04-25T08:45:20Z</time></trkpt><trkpt lat="39.661945180991744" lon="8.923817691635143"><ele>132.0</ele><time>2026-04-25T08:45:21Z</time></trkpt><trkpt lat="39.66192025991037" lon="8.923709681994486"><ele>132.0</ele><time>2026-04-25T08:45:22Z</time></trkpt><trkpt lat="39.66189822669854" lon="8.923600717222785"><ele>132.0</ele><time>2026-04-25T08:45:23Z</time></trkpt><trkpt lat="39.66188531147823" lon="8.923511118273138"><ele>132.0</ele><time>2026-04-25T08:45:24Z</time></trkpt><trkpt lat="39.661903193209994" lon="8.9233728391469"><ele>132.0</ele><time>2026-04-25T08:45:26Z</time></trkpt><trkpt lat="39.661919800070066" lon="8.923278631130685"><ele>132.0</ele><time>2026-04-25T08:45:29Z</time></trkpt><trkpt lat="39.661758282752494" lon="8.923218063209807"><ele>132.0</ele><time>2026-04-25T08:45:32Z</time></trkpt><trkpt lat="39.66166130973659" lon="8.923141325547117"><ele>132.0</ele><time>2026-04-25T08:45:34Z</time></trkpt><trkpt lat="39.66161791866544" lon="8.923076127173937"><ele>132.0</ele><time>2026-04-25T08:45:35Z</time></trkpt><trkpt lat="39.66153951310488" lon="8.922941976655"><ele>132.0</ele><time>2026-04-25T08:45:37Z</time></trkpt><trkpt lat="39.66149929215031" lon="8.922870664511578"><ele>132.0</ele><time>2026-04-25T08:45:38Z</time></trkpt><trkpt lat="39.66145527441575" lon="8.922782356498113"><ele>132.0</ele><time>2026-04-25T08:45:40Z</time></trkpt><trkpt lat="39.66149764378694" lon="8.92270729917495"><ele>132.0</ele><time>2026-04-25T08:45:43Z</time></trkpt><trkpt lat="39.66157213175427" lon="8.922581314223008"><ele>132.33333333333334</ele><time>2026-04-25T08:45:45Z</time></trkpt><trkpt lat="39.66161868465422" lon="8.922500192410954"><ele>132.66666666666666</ele><time>2026-04-25T08:45:46Z</time></trkpt><trkpt lat="39.661664122215186" lon="8.922421014361023"><ele>133.0</ele><time>2026-04-25T08:45:47Z</time></trkpt><trkpt lat="39.6617040205472" lon="8.92235186678515"><ele>133.33333333333331</ele><time>2026-04-25T08:45:48Z</time></trkpt><trkpt lat="39.661766578875074" lon="8.922244861374843"><ele>133.66666666666666</ele><time>2026-04-25T08:45:50Z</time></trkpt><trkpt lat="39.661811981062165" lon="8.922178778851253"><ele>134.0</ele><time>2026-04-25T08:45:54Z</time></trkpt><trkpt lat="39.661701071235136" lon="8.922073724907015"><ele>134.0</ele><time>2026-04-25T08:45:57Z</time></trkpt><trkpt lat="39.661623014583135" lon="8.922049574339011"><ele>134.0</ele><time>2026-04-25T08:45:58Z</time></trkpt><trkpt lat="39.66151121344468" lon="8.921984871484925"><ele>134.0</ele><time>2026-04-25T08:46:00Z</time></trkpt><trkpt lat="39.661405262567904" lon="8.921940399175874"><ele>134.0</ele><time>2026-04-25T08:46:02Z</time></trkpt><trkpt lat="39.66134000834843" lon="8.9219161006647"><ele>134.0</ele><time>2026-04-25T08:46:03Z</time></trkpt><trkpt lat="39.661236046064644" lon="8.9218542955497"><ele>134.0</ele><time>2026-04-25T08:46:05Z</time></trkpt><trkpt lat="39.66116763135724" lon="8.92175882327093"><ele>134.0</ele><time>2026-04-25T08:46:07Z</time></trkpt><trkpt lat="39.661158195856125" lon="8.921610434192838"><ele>134.0</ele><time>2026-04-25T08:46:09Z</time></trkpt><trkpt lat="39.66115176711849" lon="8.921507078682748"><ele>134.0</ele><time>2026-04-25T08:46:10Z</time></trkpt><trkpt lat="39.66114374192012" lon="8.92140976854373"><ele>134.0</ele><time>2026-04-25T08:46:11Z</time></trkpt><trkpt lat="39.661126471541515" lon="8.921325916780244"><ele>134.0</ele><time>2026-04-25T08:46:12Z</time></trkpt><trkpt lat="39.66105445946783" lon="8.921220319396657"><ele>134.83333333333331</ele><time>2026-04-25T08:46:14Z</time></trkpt><trkpt lat="39.66094378003356" lon="8.921181632538005"><ele>135.66666666666666</ele><time>2026-04-25T08:46:16Z</time></trkpt><trkpt lat="39.66090798312645" lon="8.921087569646557"><ele>136.5</ele><time>2026-04-25T08:46:18Z</time></trkpt><trkpt lat="39.660962188531855" lon="8.921029097208635"><ele>137.33333333333334</ele><time>2026-04-25T08:46:20Z</time></trkpt><trkpt lat="39.66105695163733" lon="8.920943210849103"><ele>138.16666666666669</ele><time>2026-04-25T08:46:22Z</time></trkpt><trkpt lat="39.66110993419721" lon="8.920896769558748"><ele>139.0</ele><time>2026-04-25T08:46:23Z</time></trkpt><trkpt lat="39.66117257319366" lon="8.920864959166236"><ele>139.0</ele><time>2026-04-25T08:46:24Z</time></trkpt><trkpt lat="39.66126623010906" lon="8.920782319486277"><ele>139.0</ele><time>2026-04-25T08:46:26Z</time></trkpt><trkpt lat="39.661306430754394" lon="8.920716022144733"><ele>139.0</ele><time>2026-04-25T08:46:27Z</time></trkpt><trkpt lat="39.661341011417086" lon="8.920643929529108"><ele>139.0</ele><time>2026-04-25T08:46:28Z</time></trkpt><trkpt lat="39.661381889883586" lon="8.920557240095322"><ele>139.0</ele><time>2026-04-25T08:46:30Z</time></trkpt><trkpt lat="39.66127619716548" lon="8.920409824557572"><ele>139.0</ele><time>2026-04-25T08:46:35Z</time></trkpt><trkpt lat="39.661201011356816" lon="8.9203855204515"><ele>139.0</ele><time>2026-04-25T08:46:36Z</time></trkpt><trkpt lat="39.66113522240467" lon="8.92035194151518"><ele>139.0</ele><time>2026-04-25T08:46:37Z</time></trkpt><trkpt lat="39.66106853304546" lon="8.92033024998029"><ele>139.0</ele><time>2026-04-25T08:46:38Z</time></trkpt><trkpt lat="39.66098971203222" lon="8.920321092229443"><ele>139.0</ele><time>2026-04-25T08:46:39Z</time></trkpt><trkpt lat="39.66091875031414" lon="8.92027965756848"><ele>139.0</ele><time>2026-04-25T08:46:40Z</time></trkpt><trkpt lat="39.66086694382965" lon="8.920207877115304"><ele>139.0</ele><time>2026-04-25T08:46:41Z</time></trkpt><trkpt lat="39.6608029199733" lon="8.920158604785703"><ele>139.0</ele><time>2026-04-25T08:46:42Z</time></trkpt><trkpt lat="39.66076596746397" lon="8.920091980980162"><ele>139.0</ele><time>2026-04-25T08:46:43Z</time></trkpt><trkpt lat="39.66087553211065" lon="8.92004419302519"><ele>139.0</ele><time>2026-04-25T08:47:05Z</time></trkpt><trkpt lat="39.660862962558696" lon="8.919881806386327"><ele>139.0</ele><time>2026-04-25T08:47:06Z</time></trkpt><trkpt lat="39.66089615674326" lon="8.919786216716872"><ele>139.0</ele><time>2026-04-25T08:47:07Z</time></trkpt><trkpt lat="39.660926735962555" lon="8.91967728917641"><ele>139.0</ele><time>2026-04-25T08:47:08Z</time></trkpt><trkpt lat="39.66097772372098" lon="8.919544357165414"><ele>139.0</ele><time>2026-04-25T08:47:09Z</time></trkpt><trkpt lat="39.661022333134255" lon="8.919409368416414"><ele>139.0</ele><time>2026-04-25T08:47:10Z</time></trkpt><trkpt lat="39.6610893642993" lon="8.919279399356585"><ele>139.0</ele><time>2026-04-25T08:47:11Z</time></trkpt><trkpt lat="39.66117455145613" lon="8.91916426570768"><ele>138.8</ele><time>2026-04-25T08:47:12Z</time></trkpt><trkpt lat="39.661234691733746" lon="8.91902917504518"><ele>138.60000000000002</ele><time>2026-04-25T08:47:13Z</time></trkpt><trkpt lat="39.661284078176564" lon="8.918904755361288"><ele>138.4</ele><time>2026-04-25T08:47:14Z</time></trkpt><trkpt lat="39.66131469811519" lon="8.91878923480873"><ele>138.20000000000002</ele><time>2026-04-25T08:47:15Z</time></trkpt><trkpt lat="39.661333139360096" lon="8.918699494521833"><ele>138.0</ele><time>2026-04-25T08:47:16Z</time></trkpt><trkpt lat="39.66136587998037" lon="8.918586889532191"><ele>138.0</ele><time>2026-04-25T08:47:20Z</time></trkpt><trkpt lat="39.66138654786625" lon="8.91842876368557"><ele>138.0</ele><time>2026-04-25T08:47:22Z</time></trkpt><trkpt lat="39.661415216630395" lon="8.918323217668322"><ele>138.0</ele><time>2026-04-25T08:47:23Z</time></trkpt><trkpt lat="39.661435161161194" lon="8.918194823091605"><ele>138.0</ele><time>2026-04-25T08:47:24Z</time></trkpt><trkpt lat="39.66147790672728" lon="8.918061449923478"><ele>138.0</ele><time>2026-04-25T08:47:25Z</time></trkpt><trkpt lat="39.66152759535189" lon="8.917926619814239"><ele>137.5</ele><time>2026-04-25T08:47:26Z</time></trkpt><trkpt lat="39.66158837098347" lon="8.917795131572522"><ele>137.0</ele><time>2026-04-25T08:47:27Z</time></trkpt><trkpt lat="39.661665065474104" lon="8.917673401598645"><ele>136.5</ele><time>2026-04-25T08:47:28Z</time></trkpt><trkpt lat="39.66175335578155" lon="8.917566589085398"><ele>136.0</ele><time>2026-04-25T08:47:29Z</time></trkpt><trkpt lat="39.66182975048474" lon="8.917456544277648"><ele>135.6</ele><time>2026-04-25T08:47:30Z</time></trkpt><trkpt lat="39.66187648218192" lon="8.91734186333096"><ele>135.2</ele><time>2026-04-25T08:47:31Z</time></trkpt><trkpt lat="39.66190617898436" lon="8.917209186938203"><ele>134.8</ele><time>2026-04-25T08:47:32Z</time></trkpt><trkpt lat="39.66192782991834" lon="8.917059326652597"><ele>134.4</ele><time>2026-04-25T08:47:33Z</time></trkpt><trkpt lat="39.66195135493121" lon="8.91690748590039"><ele>134.0</ele><time>2026-04-25T08:47:34Z</time></trkpt><trkpt lat="39.661976952977525" lon="8.91675023792524"><ele>134.5</ele><time>2026-04-25T08:47:35Z</time></trkpt><trkpt lat="39.662003776856004" lon="8.91659823633543"><ele>135.0</ele><time>2026-04-25T08:47:36Z</time></trkpt><trkpt lat="39.662035198080936" lon="8.916453043129872"><ele>135.5</ele><time>2026-04-25T08:47:37Z</time></trkpt><trkpt lat="39.66207390021275" lon="8.916321013450665"><ele>136.0</ele><time>2026-04-25T08:47:38Z</time></trkpt><trkpt lat="39.66212684975216" lon="8.916198344219833"><ele>136.0</ele><time>2026-04-25T08:47:39Z</time></trkpt><trkpt lat="39.66218895667564" lon="8.916092485686056"><ele>136.0</ele><time>2026-04-25T08:47:40Z</time></trkpt><trkpt lat="39.66226880589682" lon="8.916000420611711"><ele>136.0</ele><time>2026-04-25T08:47:41Z</time></trkpt><trkpt lat="39.66236373096189" lon="8.915911860104817"><ele>136.0</ele><time>2026-04-25T08:47:42Z</time></trkpt><trkpt lat="39.66246046717332" lon="8.915825179479437"><ele>136.0</ele><time>2026-04-25T08:47:43Z</time></trkpt><trkpt lat="39.66255395709277" lon="8.91573446242359"><ele>136.0</ele><time>2026-04-25T08:47:44Z</time></trkpt><trkpt lat="39.66263560447462" lon="8.915622689497914"><ele>136.0</ele><time>2026-04-25T08:47:45Z</time></trkpt><trkpt lat="39.662702787178326" lon="8.915484976037694"><ele>136.0</ele><time>2026-04-25T08:47:46Z</time></trkpt><trkpt lat="39.66276527822786" lon="8.915339829236393"><ele>136.0</ele><time>2026-04-25T08:47:47Z</time></trkpt><trkpt lat="39.662821608376404" lon="8.915186188702965"><ele>136.25</ele><time>2026-04-25T08:47:48Z</time></trkpt><trkpt lat="39.66286311444165" lon="8.91501946930965"><ele>136.5</ele><time>2026-04-25T08:47:49Z</time></trkpt><trkpt lat="39.66291507888423" lon="8.914851569839394"><ele>136.75</ele><time>2026-04-25T08:47:50Z</time></trkpt><trkpt lat="39.66293413691195" lon="8.914667711488143"><ele>137.0</ele><time>2026-04-25T08:47:51Z</time></trkpt><trkpt lat="39.662971173413936" lon="8.914483386359853"><ele>137.0</ele><time>2026-04-25T08:47:52Z</time></trkpt><trkpt lat="39.663010808981475" lon="8.914297684849931"><ele>137.0</ele><time>2026-04-25T08:47:53Z</time></trkpt><trkpt lat="39.663045570552974" lon="8.914105685872165"><ele>137.0</ele><time>2026-04-25T08:47:54Z</time></trkpt><trkpt lat="39.6630823672715" lon="8.913915594593659"><ele>138.33333333333331</ele><time>2026-04-25T08:47:55Z</time></trkpt><trkpt lat="39.663125217178134" lon="8.913726715958397"><ele>139.66666666666666</ele><time>2026-04-25T08:47:56Z</time></trkpt><trkpt lat="39.66318051154145" lon="8.913544949426056"><ele>141.0</ele><time>2026-04-25T08:47:57Z</time></trkpt><trkpt lat="39.663241830402264" lon="8.913361351624197"><ele>142.33333333333334</ele><time>2026-04-25T08:47:58Z</time></trkpt><trkpt lat="39.66330450278946" lon="8.913179697552332"><ele>143.66666666666669</ele><time>2026-04-25T08:47:59Z</time></trkpt><trkpt lat="39.663368304813766" lon="8.91299994014549"><ele>145.0</ele><time>2026-04-25T08:48:00Z</time></trkpt><trkpt lat="39.66343723176956" lon="8.912823835633509"><ele>145.0</ele><time>2026-04-25T08:48:01Z</time></trkpt><trkpt lat="39.66350964033261" lon="8.912650225625296"><ele>145.0</ele><time>2026-04-25T08:48:02Z</time></trkpt><trkpt lat="39.66356849552946" lon="8.91247028559939"><ele>145.0</ele><time>2026-04-25T08:48:03Z</time></trkpt><trkpt lat="39.66360454873221" lon="8.912285610744366"><ele>145.0</ele><time>2026-04-25T08:48:04Z</time></trkpt><trkpt lat="39.663652200895385" lon="8.91212068014936"><ele>145.0</ele><time>2026-04-25T08:48:05Z</time></trkpt><trkpt lat="39.663687172535965" lon="8.911954087945247"><ele>145.0</ele><time>2026-04-25T08:48:06Z</time></trkpt><trkpt lat="39.663716097073916" lon="8.911790870727357"><ele>145.0</ele><time>2026-04-25T08:48:07Z</time></trkpt><trkpt lat="39.66374447327064" lon="8.9116307479424"><ele>145.0</ele><time>2026-04-25T08:48:08Z</time></trkpt><trkpt lat="39.66377766226281" lon="8.911474563203933"><ele>145.0</ele><time>2026-04-25T08:48:09Z</time></trkpt><trkpt lat="39.66381662836758" lon="8.911321495238951"><ele>145.0</ele><time>2026-04-25T08:48:10Z</time></trkpt><trkpt lat="39.66386264429764" lon="8.911167020304088"><ele>145.0</ele><time>2026-04-25T08:48:11Z</time></trkpt><trkpt lat="39.66391553549946" lon="8.9110171323391"><ele>145.0</ele><time>2026-04-25T08:48:12Z</time></trkpt><trkpt lat="39.66396935127184" lon="8.910871564825579"><ele>145.8</ele><time>2026-04-25T08:48:13Z</time></trkpt><trkpt lat="39.66401214563458" lon="8.910732482593763"><ele>146.6</ele><time>2026-04-25T08:48:14Z</time></trkpt><trkpt lat="39.66403787293756" lon="8.910616164384411"><ele>147.4</ele><time>2026-04-25T08:48:15Z</time></trkpt><trkpt lat="39.66404534575068" lon="8.91049004119471"><ele>148.2</ele><time>2026-04-25T08:48:16Z</time></trkpt><trkpt lat="39.664025348504055" lon="8.910347429217547"><ele>149.0</ele><time>2026-04-25T08:48:17Z</time></trkpt><trkpt lat="39.66399774143805" lon="8.910216083075907"><ele>149.0</ele><time>2026-04-25T08:48:18Z</time></trkpt><trkpt lat="39.66396456189202" lon="8.91007871799957"><ele>149.0</ele><time>2026-04-25T08:48:19Z</time></trkpt><trkpt lat="39.663960997082356" lon="8.909931265945518"><ele>149.0</ele><time>2026-04-25T08:48:20Z</time></trkpt><trkpt lat="39.66399216105005" lon="8.909792088166522"><ele>149.0</ele><time>2026-04-25T08:48:21Z</time></trkpt><trkpt lat="39.6640227519469" lon="8.909653958641666"><ele>149.0</ele><time>2026-04-25T08:48:22Z</time></trkpt><trkpt lat="39.66406287203913" lon="8.909505435550788"><ele>149.25</ele><time>2026-04-25T08:48:23Z</time></trkpt><trkpt lat="39.66411020486303" lon="8.909350748741728"><ele>149.5</ele><time>2026-04-25T08:48:24Z</time></trkpt><trkpt lat="39.66415957431654" lon="8.909193829571326"><ele>149.75</ele><time>2026-04-25T08:48:25Z</time></trkpt><trkpt lat="39.66421253398052" lon="8.909031093452679"><ele>150.0</ele><time>2026-04-25T08:48:26Z</time></trkpt><trkpt lat="39.664266483236496" lon="8.90886661466214"><ele>150.0</ele><time>2026-04-25T08:48:27Z</time></trkpt><trkpt lat="39.66432488250152" lon="8.908700675992186"><ele>150.0</ele><time>2026-04-25T08:48:28Z</time></trkpt><trkpt lat="39.664387369578705" lon="8.908533565066602"><ele>150.0</ele><time>2026-04-25T08:48:29Z</time></trkpt><trkpt lat="39.664452470196835" lon="8.908368041269199"><ele>150.0</ele><time>2026-04-25T08:48:30Z</time></trkpt><trkpt lat="39.66451849379825" lon="8.908200170791163"><ele>149.75</ele><time>2026-04-25T08:48:31Z</time></trkpt><trkpt lat="39.66458015114142" lon="8.908037998861738"><ele>149.5</ele><time>2026-04-25T08:48:32Z</time></trkpt><trkpt lat="39.66463696491578" lon="8.907888458383576"><ele>149.25</ele><time>2026-04-25T08:48:33Z</time></trkpt><trkpt lat="39.66469635930812" lon="8.907750930129014"><ele>149.0</ele><time>2026-04-25T08:48:34Z</time></trkpt><trkpt lat="39.66476253425202" lon="8.907620205453794"><ele>148.25</ele><time>2026-04-25T08:48:35Z</time></trkpt><trkpt lat="39.664838322936646" lon="8.907499001617763"><ele>147.5</ele><time>2026-04-25T08:48:36Z</time></trkpt><trkpt lat="39.66494243380218" lon="8.90741346500199"><ele>146.75</ele><time>2026-04-25T08:48:37Z</time></trkpt><trkpt lat="39.66505308390035" lon="8.907312522952262"><ele>146.0</ele><time>2026-04-25T08:48:38Z</time></trkpt><trkpt lat="39.66516587973175" lon="8.907209623487294"><ele>145.75</ele><time>2026-04-25T08:48:39Z</time></trkpt><trkpt lat="39.66528452565613" lon="8.907101387251044"><ele>145.5</ele><time>2026-04-25T08:48:40Z</time></trkpt><trkpt lat="39.66539659324387" lon="8.906978699254449"><ele>145.25</ele><time>2026-04-25T08:48:41Z</time></trkpt><trkpt lat="39.66552051603014" lon="8.90687254736407"><ele>145.0</ele><time>2026-04-25T08:48:42Z</time></trkpt><trkpt lat="39.66564472198493" lon="8.906759627766748"><ele>144.75</ele><time>2026-04-25T08:48:43Z</time></trkpt><trkpt lat="39.66576860443978" lon="8.906650511084166"><ele>144.5</ele><time>2026-04-25T08:48:44Z</time></trkpt><trkpt lat="39.66589103436543" lon="8.906547122442369"><ele>144.25</ele><time>2026-04-25T08:48:45Z</time></trkpt><trkpt lat="39.66600619149246" lon="8.906440555958119"><ele>144.0</ele><time>2026-04-25T08:48:46Z</time></trkpt><trkpt lat="39.66611447998252" lon="8.906342237516188"><ele>144.0</ele><time>2026-04-25T08:48:47Z</time></trkpt><trkpt lat="39.666224806650426" lon="8.906249028354496"><ele>144.0</ele><time>2026-04-25T08:48:48Z</time></trkpt><trkpt lat="39.66634512887259" lon="8.906138218521985"><ele>144.0</ele><time>2026-04-25T08:48:49Z</time></trkpt><trkpt lat="39.66645249369487" lon="8.906042971225448"><ele>144.0</ele><time>2026-04-25T08:48:50Z</time></trkpt><trkpt lat="39.666554564722965" lon="8.905940676840267"><ele>144.25</ele><time>2026-04-25T08:48:51Z</time></trkpt><trkpt lat="39.666648462240815" lon="8.90583097447113"><ele>144.5</ele><time>2026-04-25T08:48:52Z</time></trkpt><trkpt lat="39.66673839048761" lon="8.905728257441075"><ele>144.75</ele><time>2026-04-25T08:48:53Z</time></trkpt><trkpt lat="39.66682627520523" lon="8.905620696310704"><ele>145.0</ele><time>2026-04-25T08:48:54Z</time></trkpt><trkpt lat="39.66691439814504" lon="8.905515651334206"><ele>145.25</ele><time>2026-04-25T08:48:55Z</time></trkpt><trkpt lat="39.666987664831154" lon="8.905394550074995"><ele>145.5</ele><time>2026-04-25T08:48:56Z</time></trkpt><trkpt lat="39.667046693849414" lon="8.905256009880622"><ele>145.75</ele><time>2026-04-25T08:48:57Z</time></trkpt><trkpt lat="39.66709158056921" lon="8.905108055222938"><ele>146.0</ele><time>2026-04-25T08:48:58Z</time></trkpt><trkpt lat="39.66711953935854" lon="8.904949308038267"><ele>146.0</ele><time>2026-04-25T08:48:59Z</time></trkpt><trkpt lat="39.66715868711871" lon="8.90478631080889"><ele>146.0</ele><time>2026-04-25T08:49:00Z</time></trkpt><trkpt lat="39.66717629376469" lon="8.904618585012164"><ele>146.0</ele><time>2026-04-25T08:49:01Z</time></trkpt><trkpt lat="39.66719690026818" lon="8.904450263758378"><ele>146.0</ele><time>2026-04-25T08:49:02Z</time></trkpt><trkpt lat="39.667222476509025" lon="8.904300400166685"><ele>146.2</ele><time>2026-04-25T08:49:03Z</time></trkpt><trkpt lat="39.667250076292376" lon="8.90416312004549"><ele>146.39999999999998</ele><time>2026-04-25T08:49:04Z</time></trkpt><trkpt lat="39.66728203009494" lon="8.904042904068247"><ele>146.6</ele><time>2026-04-25T08:49:05Z</time></trkpt><trkpt lat="39.66732214416103" lon="8.903934507486884"><ele>146.79999999999998</ele><time>2026-04-25T08:49:06Z</time></trkpt><trkpt lat="39.66736702494077" lon="8.903841612364731"><ele>147.0</ele><time>2026-04-25T08:49:07Z</time></trkpt><trkpt lat="39.667393928248664" lon="8.903745753625172"><ele>147.0</ele><time>2026-04-25T08:49:08Z</time></trkpt><trkpt lat="39.667450486114454" lon="8.903650941208682"><ele>147.0</ele><time>2026-04-25T08:49:10Z</time></trkpt><trkpt lat="39.66752495208721" lon="8.9036464584936"><ele>147.0</ele><time>2026-04-25T08:49:13Z</time></trkpt><trkpt lat="39.66759243472038" lon="8.903634633871294"><ele>147.0</ele><time>2026-04-25T08:49:15Z</time></trkpt><trkpt lat="39.667668267576985" lon="8.90362826705147"><ele>147.0</ele><time>2026-04-25T08:49:17Z</time></trkpt><trkpt lat="39.66774184532525" lon="8.903621957501787"><ele>147.0</ele><time>2026-04-25T08:49:20Z</time></trkpt><trkpt lat="39.667736155762064" lon="8.903402264788049"><ele>147.2</ele><time>2026-04-25T08:49:30Z</time></trkpt><trkpt lat="39.66776894260551" lon="8.90331804925732"><ele>147.39999999999998</ele><time>2026-04-25T08:49:31Z</time></trkpt><trkpt lat="39.667790161429906" lon="8.903191264073168"><ele>147.60000000000002</ele><time>2026-04-25T08:49:32Z</time></trkpt><trkpt lat="39.66782031813965" lon="8.903065764912185"><ele>147.8</ele><time>2026-04-25T08:49:33Z</time></trkpt><trkpt lat="39.66786811594609" lon="8.90293480295968"><ele>148.0</ele><time>2026-04-25T08:49:34Z</time></trkpt><trkpt lat="39.66793286605534" lon="8.902794072220235"><ele>148.0</ele><time>2026-04-25T08:49:35Z</time></trkpt><trkpt lat="39.66800621155643" lon="8.902649547124684"><ele>148.0</ele><time>2026-04-25T08:49:36Z</time></trkpt><trkpt lat="39.6680729118817" lon="8.902492913221463"><ele>148.0</ele><time>2026-04-25T08:49:37Z</time></trkpt><trkpt lat="39.66814539966168" lon="8.90232532835267"><ele>148.0</ele><time>2026-04-25T08:49:38Z</time></trkpt><trkpt lat="39.66822508513925" lon="8.902152705235604"><ele>148.66666666666669</ele><time>2026-04-25T08:49:39Z</time></trkpt><trkpt lat="39.66830151868104" lon="8.90198555184494"><ele>149.33333333333334</ele><time>2026-04-25T08:49:40Z</time></trkpt><trkpt lat="39.668375954773865" lon="8.901810555748675"><ele>150.0</ele><time>2026-04-25T08:49:41Z</time></trkpt><trkpt lat="39.66845502948285" lon="8.901631979130197"><ele>150.33333333333334</ele><time>2026-04-25T08:49:42Z</time></trkpt><trkpt lat="39.668536916629144" lon="8.901456447980962"><ele>150.66666666666669</ele><time>2026-04-25T08:49:43Z</time></trkpt><trkpt lat="39.66861326929558" lon="8.90127471675565"><ele>151.0</ele><time>2026-04-25T08:49:44Z</time></trkpt><trkpt lat="39.66867537825095" lon="8.901069470172297"><ele>152.0</ele><time>2026-04-25T08:49:45Z</time></trkpt><trkpt lat="39.668724787508744" lon="8.90085730065114"><ele>153.0</ele><time>2026-04-25T08:49:46Z</time></trkpt><trkpt lat="39.66877004194463" lon="8.900633811077764"><ele>154.0</ele><time>2026-04-25T08:49:47Z</time></trkpt><trkpt lat="39.66881573250834" lon="8.900414395474613"><ele>154.0</ele><time>2026-04-25T08:49:48Z</time></trkpt><trkpt lat="39.66886586104105" lon="8.900193651145171"><ele>154.0</ele><time>2026-04-25T08:49:49Z</time></trkpt><trkpt lat="39.668916024304266" lon="8.89997137587749"><ele>154.0</ele><time>2026-04-25T08:49:50Z</time></trkpt><trkpt lat="39.66896491418344" lon="8.899746708181695"><ele>154.33333333333334</ele><time>2026-04-25T08:49:51Z</time></trkpt><trkpt lat="39.669012503451924" lon="8.899519533103211"><ele>154.66666666666666</ele><time>2026-04-25T08:49:52Z</time></trkpt><trkpt lat="39.66905955470775" lon="8.899293476764173"><ele>155.0</ele><time>2026-04-25T08:49:53Z</time></trkpt><trkpt lat="39.66910669699646" lon="8.899070888878967"><ele>155.0</ele><time>2026-04-25T08:49:54Z</time></trkpt><trkpt lat="39.66915392667265" lon="8.898842620351292"><ele>155.0</ele><time>2026-04-25T08:49:55Z</time></trkpt><trkpt lat="39.6692017716293" lon="8.8986180646308"><ele>155.0</ele><time>2026-04-25T08:49:56Z</time></trkpt><trkpt lat="39.669252073160955" lon="8.898394236693148"><ele>155.0</ele><time>2026-04-25T08:49:57Z</time></trkpt><trkpt lat="39.66930083691487" lon="8.898166243770104"><ele>155.0</ele><time>2026-04-25T08:49:58Z</time></trkpt><trkpt lat="39.669348282618884" lon="8.897938916639335"><ele>155.0</ele><time>2026-04-25T08:49:59Z</time></trkpt><trkpt lat="39.669398413431885" lon="8.897711618165577"><ele>156.0</ele><time>2026-04-25T08:50:00Z</time></trkpt><trkpt lat="39.669449896260176" lon="8.897480739259969"><ele>157.0</ele><time>2026-04-25T08:50:01Z</time></trkpt><trkpt lat="39.66949759363638" lon="8.89724973460622"><ele>158.0</ele><time>2026-04-25T08:50:02Z</time></trkpt><trkpt lat="39.6695445305845" lon="8.897018795781884"><ele>158.0</ele><time>2026-04-25T08:50:03Z</time></trkpt><trkpt lat="39.66959340210145" lon="8.896794617575518"><ele>158.0</ele><time>2026-04-25T08:50:04Z</time></trkpt><trkpt lat="39.66964356492623" lon="8.896572733094217"><ele>158.0</ele><time>2026-04-25T08:50:05Z</time></trkpt><trkpt lat="39.66969111171404" lon="8.89635648682699"><ele>158.66666666666666</ele><time>2026-04-25T08:50:06Z</time></trkpt><trkpt lat="39.66973431454021" lon="8.8961412987316"><ele>159.33333333333334</ele><time>2026-04-25T08:50:07Z</time></trkpt><trkpt lat="39.66977823970635" lon="8.89592570846986"><ele>160.0</ele><time>2026-04-25T08:50:08Z</time></trkpt><trkpt lat="39.66982321957862" lon="8.895714449579978"><ele>161.5</ele><time>2026-04-25T08:50:09Z</time></trkpt><trkpt lat="39.66986668020243" lon="8.895512720899992"><ele>163.0</ele><time>2026-04-25T08:50:10Z</time></trkpt><trkpt lat="39.669905287288046" lon="8.89532846345847"><ele>164.5</ele><time>2026-04-25T08:50:11Z</time></trkpt><trkpt lat="39.66994179721133" lon="8.895154752569276"><ele>166.0</ele><time>2026-04-25T08:50:12Z</time></trkpt><trkpt lat="39.66998003944409" lon="8.894989992901474"><ele>166.75</ele><time>2026-04-25T08:50:13Z</time></trkpt><trkpt lat="39.67001390382646" lon="8.894828118760826"><ele>167.5</ele><time>2026-04-25T08:50:14Z</time></trkpt><trkpt lat="39.670036369715184" lon="8.894670586228187"><ele>168.25</ele><time>2026-04-25T08:50:15Z</time></trkpt><trkpt lat="39.67006488055006" lon="8.894521591048756"><ele>169.0</ele><time>2026-04-25T08:50:16Z</time></trkpt><trkpt lat="39.67007478296484" lon="8.894375855405467"><ele>169.2</ele><time>2026-04-25T08:50:17Z</time></trkpt><trkpt lat="39.67008319382732" lon="8.894231130545114"><ele>169.39999999999998</ele><time>2026-04-25T08:50:18Z</time></trkpt><trkpt lat="39.670075840401715" lon="8.894083791391052"><ele>169.6</ele><time>2026-04-25T08:50:19Z</time></trkpt><trkpt lat="39.670085004697675" lon="8.893937807174106"><ele>169.8</ele><time>2026-04-25T08:50:20Z</time></trkpt><trkpt lat="39.67009087941812" lon="8.893794110437412"><ele>170.0</ele><time>2026-04-25T08:50:21Z</time></trkpt><trkpt lat="39.6700910271811" lon="8.893648679440506"><ele>170.0</ele><time>2026-04-25T08:50:22Z</time></trkpt><trkpt lat="39.67009522426842" lon="8.893500692005105"><ele>170.0</ele><time>2026-04-25T08:50:23Z</time></trkpt><trkpt lat="39.670100349658085" lon="8.89335879493798"><ele>170.0</ele><time>2026-04-25T08:50:24Z</time></trkpt><trkpt lat="39.67010860350355" lon="8.893221516600173"><ele>170.0</ele><time>2026-04-25T08:50:25Z</time></trkpt><trkpt lat="39.67011380548463" lon="8.893086576676332"><ele>170.0</ele><time>2026-04-25T08:50:26Z</time></trkpt><trkpt lat="39.670110781351184" lon="8.892960321100434"><ele>170.16666666666666</ele><time>2026-04-25T08:50:27Z</time></trkpt><trkpt lat="39.67009410346784" lon="8.892845379682049"><ele>170.33333333333331</ele><time>2026-04-25T08:50:28Z</time></trkpt><trkpt lat="39.67006813188035" lon="8.892738745128154"><ele>170.5</ele><time>2026-04-25T08:50:29Z</time></trkpt><trkpt lat="39.67003663436815" lon="8.892637205009532"><ele>170.66666666666666</ele><time>2026-04-25T08:50:30Z</time></trkpt><trkpt lat="39.67002125793397" lon="8.892532713830565"><ele>170.83333333333334</ele><time>2026-04-25T08:50:31Z</time></trkpt><trkpt lat="39.66998698760667" lon="8.892427118456244"><ele>171.0</ele><time>2026-04-25T08:50:32Z</time></trkpt><trkpt lat="39.66993932704234" lon="8.892323705077622"><ele>171.4</ele><time>2026-04-25T08:50:33Z</time></trkpt><trkpt lat="39.669903054082354" lon="8.892204561714369"><ele>171.8</ele><time>2026-04-25T08:50:34Z</time></trkpt><trkpt lat="39.669853283733076" lon="8.892086112902977"><ele>172.20000000000002</ele><time>2026-04-25T08:50:35Z</time></trkpt><trkpt lat="39.669800075445984" lon="8.891958667456702"><ele>172.60000000000002</ele><time>2026-04-25T08:50:36Z</time></trkpt><trkpt lat="39.66976095111598" lon="8.891815661140837"><ele>173.0</ele><time>2026-04-25T08:50:37Z</time></trkpt><trkpt lat="39.66969122944763" lon="8.891685775291085"><ele>174.25</ele><time>2026-04-25T08:50:38Z</time></trkpt><trkpt lat="39.66963275093988" lon="8.89154336283627"><ele>175.5</ele><time>2026-04-25T08:50:39Z</time></trkpt><trkpt lat="39.66958646343105" lon="8.891386767710623"><ele>176.75</ele><time>2026-04-25T08:50:40Z</time></trkpt><trkpt lat="39.66951294885003" lon="8.891242787215422"><ele>178.0</ele><time>2026-04-25T08:50:41Z</time></trkpt><trkpt lat="39.66947907129631" lon="8.891074115153584"><ele>179.0</ele><time>2026-04-25T08:50:42Z</time></trkpt><trkpt lat="39.66942943208544" lon="8.890911088797363"><ele>180.0</ele><time>2026-04-25T08:50:43Z</time></trkpt><trkpt lat="39.66940619667496" lon="8.890734986128507"><ele>181.0</ele><time>2026-04-25T08:50:44Z</time></trkpt><trkpt lat="39.669393232915965" lon="8.890555695406592"><ele>182.0</ele><time>2026-04-25T08:50:45Z</time></trkpt><trkpt lat="39.66939726012989" lon="8.89037936923991"><ele>182.0</ele><time>2026-04-25T08:50:46Z</time></trkpt><trkpt lat="39.669419794282454" lon="8.890203187822667"><ele>182.0</ele><time>2026-04-25T08:50:47Z</time></trkpt><trkpt lat="39.66945686442302" lon="8.890031090610798"><ele>182.0</ele><time>2026-04-25T08:50:48Z</time></trkpt><trkpt lat="39.66950112557677" lon="8.889861764807142"><ele>182.0</ele><time>2026-04-25T08:50:49Z</time></trkpt><trkpt lat="39.66954649323717" lon="8.889693085510908"><ele>182.25</ele><time>2026-04-25T08:50:50Z</time></trkpt><trkpt lat="39.669589802134624" lon="8.889526427326464"><ele>182.5</ele><time>2026-04-25T08:50:51Z</time></trkpt><trkpt lat="39.66963987199547" lon="8.889361285579158"><ele>182.75</ele><time>2026-04-25T08:50:52Z</time></trkpt><trkpt lat="39.66968516005564" lon="8.889198224595681"><ele>183.0</ele><time>2026-04-25T08:50:53Z</time></trkpt><trkpt lat="39.669733310198" lon="8.889038029482116"><ele>183.25</ele><time>2026-04-25T08:50:54Z</time></trkpt><trkpt lat="39.669784383237605" lon="8.888878637052168"><ele>183.5</ele><time>2026-04-25T08:50:55Z</time></trkpt><trkpt lat="39.66983678255391" lon="8.888720610088548"><ele>183.75</ele><time>2026-04-25T08:50:56Z</time></trkpt><trkpt lat="39.66989225915199" lon="8.888561026486782"><ele>184.0</ele><time>2026-04-25T08:50:57Z</time></trkpt><trkpt lat="39.669951116414396" lon="8.888405108206053"><ele>185.25</ele><time>2026-04-25T08:50:58Z</time></trkpt><trkpt lat="39.670016960888624" lon="8.888250643922971"><ele>186.5</ele><time>2026-04-25T08:50:59Z</time></trkpt><trkpt lat="39.670079941173334" lon="8.888094613866198"><ele>187.75</ele><time>2026-04-25T08:51:00Z</time></trkpt><trkpt lat="39.67014604961559" lon="8.887941319703224"><ele>189.0</ele><time>2026-04-25T08:51:01Z</time></trkpt><trkpt lat="39.67022203715349" lon="8.887793081710981"><ele>189.25</ele><time>2026-04-25T08:51:02Z</time></trkpt><trkpt lat="39.670300683108174" lon="8.887648789653598"><ele>189.5</ele><time>2026-04-25T08:51:03Z</time></trkpt><trkpt lat="39.670388127528646" lon="8.88751134229023"><ele>189.75</ele><time>2026-04-25T08:51:04Z</time></trkpt><trkpt lat="39.67047600252077" lon="8.88738597295012"><ele>190.0</ele><time>2026-04-25T08:51:05Z</time></trkpt><trkpt lat="39.67055838967254" lon="8.887280559482994"><ele>190.33333333333334</ele><time>2026-04-25T08:51:06Z</time></trkpt><trkpt lat="39.670632794886195" lon="8.887189081615633"><ele>190.66666666666669</ele><time>2026-04-25T08:51:07Z</time></trkpt><trkpt lat="39.670702763397884" lon="8.887107405848345"><ele>191.0</ele><time>2026-04-25T08:51:08Z</time></trkpt><trkpt lat="39.6707658150397" lon="8.887035131600527"><ele>191.33333333333334</ele><time>2026-04-25T08:51:09Z</time></trkpt><trkpt lat="39.67081949572148" lon="8.88697008090438"><ele>191.66666666666666</ele><time>2026-04-25T08:51:10Z</time></trkpt><trkpt lat="39.670867947469674" lon="8.886910476594387"><ele>192.0</ele><time>2026-04-25T08:51:11Z</time></trkpt><trkpt lat="39.670949529780074" lon="8.886804619185263"><ele>192.8</ele><time>2026-04-25T08:51:13Z</time></trkpt><trkpt lat="39.67101970400354" lon="8.886713603094094"><ele>193.6</ele><time>2026-04-25T08:51:15Z</time></trkpt><trkpt lat="39.67109847665311" lon="8.886624479769912"><ele>194.4</ele><time>2026-04-25T08:51:17Z</time></trkpt><trkpt lat="39.671185755959556" lon="8.886533045029164"><ele>195.20000000000002</ele><time>2026-04-25T08:51:19Z</time></trkpt><trkpt lat="39.671276538046065" lon="8.88643091644741"><ele>196.0</ele><time>2026-04-25T08:51:21Z</time></trkpt><trkpt lat="39.67135052247445" lon="8.886335994651898"><ele>196.66666666666666</ele><time>2026-04-25T08:51:23Z</time></trkpt><trkpt lat="39.67141145587234" lon="8.886249376371797"><ele>197.33333333333331</ele><time>2026-04-25T08:51:25Z</time></trkpt><trkpt lat="39.67145739332019" lon="8.88617513499117"><ele>198.0</ele><time>2026-04-25T08:51:27Z</time></trkpt><trkpt lat="39.671492825803114" lon="8.886096835964684"><ele>198.66666666666669</ele><time>2026-04-25T08:51:29Z</time></trkpt><trkpt lat="39.671535318899664" lon="8.88599718369811"><ele>199.33333333333334</ele><time>2026-04-25T08:51:32Z</time></trkpt><trkpt lat="39.67158772586427" lon="8.885909482375626"><ele>200.0</ele><time>2026-04-25T08:51:35Z</time></trkpt><trkpt lat="39.671619927934486" lon="8.88583503443261"><ele>200.16666666666669</ele><time>2026-04-25T08:51:39Z</time></trkpt><trkpt lat="39.67165373284812" lon="8.885753762852518"><ele>200.33333333333334</ele><time>2026-04-25T08:51:43Z</time></trkpt><trkpt lat="39.6716846101953" lon="8.885677716741055"><ele>200.5</ele><time>2026-04-25T08:51:47Z</time></trkpt><trkpt lat="39.67171838505135" lon="8.885588770413353"><ele>200.66666666666669</ele><time>2026-04-25T08:51:52Z</time></trkpt><trkpt lat="39.67174867370289" lon="8.8855090050198"><ele>200.83333333333334</ele><time>2026-04-25T08:51:55Z</time></trkpt><trkpt lat="39.6717818949135" lon="8.885419715472368"><ele>201.0</ele><time>2026-04-25T08:51:57Z</time></trkpt><trkpt lat="39.67182949477102" lon="8.885290875613455"><ele>201.0</ele><time>2026-04-25T08:51:59Z</time></trkpt><trkpt lat="39.671881516242145" lon="8.885149085160473"><ele>201.0</ele><time>2026-04-25T08:52:01Z</time></trkpt><trkpt lat="39.67190933628912" lon="8.885071622191617"><ele>201.0</ele><time>2026-04-25T08:52:02Z</time></trkpt><trkpt lat="39.67193904891819" lon="8.884988889361631"><ele>201.0</ele><time>2026-04-25T08:52:03Z</time></trkpt><trkpt lat="39.671968702072256" lon="8.88490625134681"><ele>201.0</ele><time>2026-04-25T08:52:04Z</time></trkpt><trkpt lat="39.67199455617973" lon="8.88481768793428"><ele>201.0</ele><time>2026-04-25T08:52:05Z</time></trkpt><trkpt lat="39.67204083859803" lon="8.884731012683389"><ele>201.8</ele><time>2026-04-25T08:52:06Z</time></trkpt><trkpt lat="39.6720867924585" lon="8.884636924037068"><ele>202.60000000000002</ele><time>2026-04-25T08:52:07Z</time></trkpt><trkpt lat="39.67214173261423" lon="8.88454096141016"><ele>203.4</ele><time>2026-04-25T08:52:08Z</time></trkpt><trkpt lat="39.672206996291585" lon="8.88444510291131"><ele>204.2</ele><time>2026-04-25T08:52:09Z</time></trkpt><trkpt lat="39.672281125711514" lon="8.884344805876005"><ele>205.0</ele><time>2026-04-25T08:52:10Z</time></trkpt><trkpt lat="39.67236314674907" lon="8.884246365535303"><ele>205.0</ele><time>2026-04-25T08:52:11Z</time></trkpt><trkpt lat="39.67244860241014" lon="8.884136684631121"><ele>205.0</ele><time>2026-04-25T08:52:12Z</time></trkpt><trkpt lat="39.672532486813715" lon="8.884026957446858"><ele>205.0</ele><time>2026-04-25T08:52:13Z</time></trkpt><trkpt lat="39.672620978492354" lon="8.88391331860039"><ele>205.0</ele><time>2026-04-25T08:52:14Z</time></trkpt><trkpt lat="39.67271619231242" lon="8.883798706605091"><ele>206.0</ele><time>2026-04-25T08:52:15Z</time></trkpt><trkpt lat="39.672816439229415" lon="8.883677783456196"><ele>207.0</ele><time>2026-04-25T08:52:16Z</time></trkpt><trkpt lat="39.672919252075026" lon="8.883549055917705"><ele>208.0</ele><time>2026-04-25T08:52:17Z</time></trkpt><trkpt lat="39.673025293209406" lon="8.88341903230095"><ele>209.0</ele><time>2026-04-25T08:52:18Z</time></trkpt><trkpt lat="39.673138167387854" lon="8.883287099680896"><ele>209.0</ele><time>2026-04-25T08:52:19Z</time></trkpt><trkpt lat="39.67325910839302" lon="8.883159813577794"><ele>209.0</ele><time>2026-04-25T08:52:20Z</time></trkpt><trkpt lat="39.67338264248925" lon="8.883028437125503"><ele>209.0</ele><time>2026-04-25T08:52:21Z</time></trkpt><trkpt lat="39.673506066156385" lon="8.882890338501598"><ele>211.0</ele><time>2026-04-25T08:52:22Z</time></trkpt><trkpt lat="39.67362901425719" lon="8.882748860678896"><ele>213.0</ele><time>2026-04-25T08:52:23Z</time></trkpt><trkpt lat="39.67373886726232" lon="8.882596633529948"><ele>215.0</ele><time>2026-04-25T08:52:24Z</time></trkpt><trkpt lat="39.67384270776618" lon="8.88242859304327"><ele>215.33333333333334</ele><time>2026-04-25T08:52:25Z</time></trkpt><trkpt lat="39.67393507135373" lon="8.882257755394333"><ele>215.66666666666669</ele><time>2026-04-25T08:52:26Z</time></trkpt><trkpt lat="39.67402702821139" lon="8.882080301404628"><ele>216.0</ele><time>2026-04-25T08:52:27Z</time></trkpt><trkpt lat="39.67411356565075" lon="8.881898069613738"><ele>214.66666666666669</ele><time>2026-04-25T08:52:28Z</time></trkpt><trkpt lat="39.674192608551444" lon="8.881707178308554"><ele>213.33333333333334</ele><time>2026-04-25T08:52:29Z</time></trkpt><trkpt lat="39.674266592973446" lon="8.881512621280187"><ele>212.0</ele><time>2026-04-25T08:52:30Z</time></trkpt><trkpt lat="39.674339343138996" lon="8.88132021691629"><ele>212.0</ele><time>2026-04-25T08:52:31Z</time></trkpt><trkpt lat="39.67441573401542" lon="8.881128641743794"><ele>212.0</ele><time>2026-04-25T08:52:32Z</time></trkpt><trkpt lat="39.67449522399956" lon="8.880933908541452"><ele>212.0</ele><time>2026-04-25T08:52:33Z</time></trkpt><trkpt lat="39.67457580640791" lon="8.880735568067815"><ele>217.0</ele><time>2026-04-25T08:52:34Z</time></trkpt><trkpt lat="39.674656283959344" lon="8.880537039853095"><ele>222.0</ele><time>2026-04-25T08:52:35Z</time></trkpt><trkpt lat="39.67473864582844" lon="8.880335898045695"><ele>227.0</ele><time>2026-04-25T08:52:36Z</time></trkpt><trkpt lat="39.674821327285144" lon="8.880135482168438"><ele>226.0</ele><time>2026-04-25T08:52:37Z</time></trkpt><trkpt lat="39.67490216593243" lon="8.879930108210328"><ele>225.0</ele><time>2026-04-25T08:52:38Z</time></trkpt><trkpt lat="39.67498503085813" lon="8.879728511041977"><ele>224.0</ele><time>2026-04-25T08:52:39Z</time></trkpt><trkpt lat="39.67507066271507" lon="8.87952816291749"><ele>224.0</ele><time>2026-04-25T08:52:40Z</time></trkpt><trkpt lat="39.675151704138045" lon="8.879325817963764"><ele>224.0</ele><time>2026-04-25T08:52:41Z</time></trkpt><trkpt lat="39.67522890023003" lon="8.879119890660435"><ele>224.0</ele><time>2026-04-25T08:52:42Z</time></trkpt><trkpt lat="39.675289386407066" lon="8.878908734060166"><ele>228.33333333333334</ele><time>2026-04-25T08:52:43Z</time></trkpt><trkpt lat="39.675349195130764" lon="8.878704067119846"><ele>232.66666666666669</ele><time>2026-04-25T08:52:44Z</time></trkpt><trkpt lat="39.675390387396625" lon="8.878505707028959"><ele>237.0</ele><time>2026-04-25T08:52:45Z</time></trkpt><trkpt lat="39.67543259362278" lon="8.87831419227809"><ele>237.5</ele><time>2026-04-25T08:52:46Z</time></trkpt><trkpt lat="39.67547375032979" lon="8.87813751610739"><ele>238.0</ele><time>2026-04-25T08:52:47Z</time></trkpt><trkpt lat="39.675506650716564" lon="8.877961576893611"><ele>238.5</ele><time>2026-04-25T08:52:48Z</time></trkpt><trkpt lat="39.67558593864515" lon="8.877811381070643"><ele>239.0</ele><time>2026-04-25T08:52:49Z</time></trkpt><trkpt lat="39.67568743250364" lon="8.877673711246851"><ele>237.0</ele><time>2026-04-25T08:52:50Z</time></trkpt><trkpt lat="39.67581370507008" lon="8.877554466658124"><ele>235.0</ele><time>2026-04-25T08:52:51Z</time></trkpt><trkpt lat="39.67594838044884" lon="8.877447833097742"><ele>233.0</ele><time>2026-04-25T08:52:52Z</time></trkpt><trkpt lat="39.676091567468504" lon="8.877333490866725"><ele>234.0</ele><time>2026-04-25T08:52:53Z</time></trkpt><trkpt lat="39.676236556055905" lon="8.877213655103441"><ele>235.0</ele><time>2026-04-25T08:52:54Z</time></trkpt><trkpt lat="39.67638642812587" lon="8.877093561304717"><ele>236.0</ele><time>2026-04-25T08:52:55Z</time></trkpt><trkpt lat="39.67653245989266" lon="8.876973469101845"><ele>236.0</ele><time>2026-04-25T08:52:56Z</time></trkpt><trkpt lat="39.67667781496801" lon="8.876858201138546"><ele>236.0</ele><time>2026-04-25T08:52:57Z</time></trkpt><trkpt lat="39.67682557167461" lon="8.876747315763899"><ele>236.0</ele><time>2026-04-25T08:52:58Z</time></trkpt><trkpt lat="39.67696972390891" lon="8.876632629176319"><ele>240.33333333333334</ele><time>2026-04-25T08:52:59Z</time></trkpt><trkpt lat="39.67710322441577" lon="8.87652454102258"><ele>244.66666666666669</ele><time>2026-04-25T08:53:00Z</time></trkpt><trkpt lat="39.677222676720376" lon="8.876413525465885"><ele>249.0</ele><time>2026-04-25T08:53:01Z</time></trkpt><trkpt lat="39.67734335153892" lon="8.876289923198708"><ele>249.0</ele><time>2026-04-25T08:53:02Z</time></trkpt><trkpt lat="39.67740751618684" lon="8.876124371710148"><ele>249.0</ele><time>2026-04-25T08:53:03Z</time></trkpt><trkpt lat="39.67740415616194" lon="8.875934359055174"><ele>249.0</ele><time>2026-04-25T08:53:04Z</time></trkpt><trkpt lat="39.6774060425683" lon="8.875738239164926"><ele>249.0</ele><time>2026-04-25T08:53:05Z</time></trkpt><trkpt lat="39.67737164529204" lon="8.87554359896125"><ele>250.33333333333331</ele><time>2026-04-25T08:53:06Z</time></trkpt><trkpt lat="39.67734583067698" lon="8.87535068175056"><ele>251.66666666666666</ele><time>2026-04-25T08:53:07Z</time></trkpt><trkpt lat="39.67732031021688" lon="8.875154277930335"><ele>253.0</ele><time>2026-04-25T08:53:08Z</time></trkpt><trkpt lat="39.67727078979851" lon="8.874961530314167"><ele>257.0</ele><time>2026-04-25T08:53:09Z</time></trkpt><trkpt lat="39.67718745932003" lon="8.874779403731061"><ele>261.0</ele><time>2026-04-25T08:53:10Z</time></trkpt><trkpt lat="39.67708478714159" lon="8.874606005651748"><ele>265.0</ele><time>2026-04-25T08:53:11Z</time></trkpt><trkpt lat="39.67697896886221" lon="8.874441039135332"><ele>263.3333333333333</ele><time>2026-04-25T08:53:12Z</time></trkpt><trkpt lat="39.676877837340314" lon="8.874274304607896"><ele>261.6666666666667</ele><time>2026-04-25T08:53:13Z</time></trkpt><trkpt lat="39.67677588926483" lon="8.874110581400675"><ele>260.0</ele><time>2026-04-25T08:53:14Z</time></trkpt><trkpt lat="39.67667403399035" lon="8.8739393873264"><ele>260.0</ele><time>2026-04-25T08:53:15Z</time></trkpt><trkpt lat="39.67657171573612" lon="8.87377000969641"><ele>260.0</ele><time>2026-04-25T08:53:16Z</time></trkpt><trkpt lat="39.676481842206044" lon="8.8735835679808"><ele>260.0</ele><time>2026-04-25T08:53:17Z</time></trkpt><trkpt lat="39.67637902346332" lon="8.873406999178465"><ele>260.0</ele><time>2026-04-25T08:53:18Z</time></trkpt><trkpt lat="39.67627732374178" lon="8.873231974368789"><ele>260.0</ele><time>2026-04-25T08:53:19Z</time></trkpt><trkpt lat="39.67618247895363" lon="8.873054309612671"><ele>260.0</ele><time>2026-04-25T08:53:20Z</time></trkpt><trkpt lat="39.676093728523234" lon="8.872868776647216"><ele>260.0</ele><time>2026-04-25T08:53:21Z</time></trkpt><trkpt lat="39.676012419392165" lon="8.872680536016022"><ele>260.0</ele><time>2026-04-25T08:53:22Z</time></trkpt><trkpt lat="39.67593358844169" lon="8.872490434545819"><ele>260.0</ele><time>2026-04-25T08:53:23Z</time></trkpt><trkpt lat="39.67585370233324" lon="8.872295222147338"><ele>263.33333333333337</ele><time>2026-04-25T08:53:24Z</time></trkpt><trkpt lat="39.67577281626385" lon="8.872098894944271"><ele>266.6666666666667</ele><time>2026-04-25T08:53:25Z</time></trkpt><trkpt lat="39.67568311209372" lon="8.871932206310202"><ele>270.0</ele><time>2026-04-25T08:53:26Z</time></trkpt><trkpt lat="39.67558918467992" lon="8.871764535032165"><ele>279.0</ele><time>2026-04-25T08:53:27Z</time></trkpt><trkpt lat="39.67414871238307" lon="8.870194236260575"><ele>282.4</ele><time>2026-04-25T08:53:38.376Z</time></trkpt><trkpt lat="39.67419132563202" lon="8.87008402550972"><ele>285.79999999999995</ele><time>2026-04-25T08:53:38.991Z</time></trkpt><trkpt lat="39.67413002551921" lon="8.869980934124442"><ele>289.20000000000005</ele><time>2026-04-25T08:53:39.6Z</time></trkpt><trkpt lat="39.67407606890863" lon="8.86986247417137"><ele>292.6</ele><time>2026-04-25T08:53:40.2Z</time></trkpt><trkpt lat="39.67400609363055" lon="8.869771680306142"><ele>296.0</ele><time>2026-04-25T08:53:40.8Z</time></trkpt><trkpt lat="39.673921566696215" lon="8.869704555617123"><ele>296.0</ele><time>2026-04-25T08:53:41.4Z</time></trkpt><trkpt lat="39.67381285727615" lon="8.869589434601929"><ele>296.0</ele><time>2026-04-25T08:53:42.3Z</time></trkpt><trkpt lat="39.67369642261833" lon="8.869498134142617"><ele>296.0</ele><time>2026-04-25T08:53:43.2Z</time></trkpt><trkpt lat="39.67356829534107" lon="8.86944928276787"><ele>296.0</ele><time>2026-04-25T08:53:44.1Z</time></trkpt><trkpt lat="39.67343476480668" lon="8.869444841259693"><ele>295.40000000000003</ele><time>2026-04-25T08:53:45Z</time></trkpt><trkpt lat="39.673283819235586" lon="8.86947902541147"><ele>294.8</ele><time>2026-04-25T08:53:46Z</time></trkpt><trkpt lat="39.67320999198457" lon="8.86950879057027"><ele>294.20000000000005</ele><time>2026-04-25T08:53:46.5Z</time></trkpt><trkpt lat="39.673139259738825" lon="8.869548000406386"><ele>293.6</ele><time>2026-04-25T08:53:47Z</time></trkpt><trkpt lat="39.67307357512787" lon="8.86959970858521"><ele>293.0</ele><time>2026-04-25T08:53:47.5Z</time></trkpt><trkpt lat="39.6729558243932" lon="8.869729366686563"><ele>293.0</ele><time>2026-04-25T08:53:48.5Z</time></trkpt><trkpt lat="39.672851705794315" lon="8.869868177491234"><ele>293.0</ele><time>2026-04-25T08:53:49.5Z</time></trkpt><trkpt lat="39.67274637113068" lon="8.869995301346073"><ele>293.0</ele><time>2026-04-25T08:53:50.5Z</time></trkpt><trkpt lat="39.67269286153781" lon="8.870048140635067"><ele>293.0</ele><time>2026-04-25T08:53:51Z</time></trkpt><trkpt lat="39.672577073076866" lon="8.870078834248575"><ele>295.75</ele><time>2026-04-25T08:53:52Z</time></trkpt><trkpt lat="39.67246408203846" lon="8.87007503814514"><ele>298.5</ele><time>2026-04-25T08:53:53Z</time></trkpt><trkpt lat="39.672365579595905" lon="8.870016345900801"><ele>301.25</ele><time>2026-04-25T08:53:54Z</time></trkpt><trkpt lat="39.67227854121017" lon="8.869923070359818"><ele>304.0</ele><time>2026-04-25T08:53:55Z</time></trkpt><trkpt lat="39.67217130796393" lon="8.869717592248694"><ele>304.0</ele><time>2026-04-25T08:53:56.5Z</time></trkpt><trkpt lat="39.67209262021764" lon="8.869573295650602"><ele>304.0</ele><time>2026-04-25T08:53:57.5Z</time></trkpt><trkpt lat="39.672052183453296" lon="8.869499349070617"><ele>304.0</ele><time>2026-04-25T08:53:58Z</time></trkpt><trkpt lat="39.6719669661752" lon="8.86935320183993"><ele>304.0</ele><time>2026-04-25T08:53:59Z</time></trkpt><trkpt lat="39.67187269534495" lon="8.869206437447568"><ele>305.75</ele><time>2026-04-25T08:54:00Z</time></trkpt><trkpt lat="39.67176744352893" lon="8.86907584181575"><ele>307.5</ele><time>2026-04-25T08:54:01Z</time></trkpt><trkpt lat="39.67171356877728" lon="8.86901300025465"><ele>309.25</ele><time>2026-04-25T08:54:01.5Z</time></trkpt><trkpt lat="39.67160597345245" lon="8.86888757510509"><ele>311.0</ele><time>2026-04-25T08:54:02.45Z</time></trkpt><trkpt lat="39.67149805557911" lon="8.868762553183602"><ele>311.0</ele><time>2026-04-25T08:54:03.4Z</time></trkpt><trkpt lat="39.671383346885705" lon="8.868630978629502"><ele>311.0</ele><time>2026-04-25T08:54:04.35Z</time></trkpt><trkpt lat="39.67126808331895" lon="8.868497961399141"><ele>311.0</ele><time>2026-04-25T08:54:05.3Z</time></trkpt><trkpt lat="39.671152877519745" lon="8.86836362741073"><ele>311.6666666666667</ele><time>2026-04-25T08:54:06.25Z</time></trkpt><trkpt lat="39.67103154431648" lon="8.868222148538509"><ele>312.3333333333333</ele><time>2026-04-25T08:54:07.2Z</time></trkpt><trkpt lat="39.670908582713565" lon="8.868078770965282"><ele>313.0</ele><time>2026-04-25T08:54:08.15Z</time></trkpt><trkpt lat="39.67077510791202" lon="8.86795668217605"><ele>313.0</ele><time>2026-04-25T08:54:09.1Z</time></trkpt><trkpt lat="39.67064976712785" lon="8.86783361633723"><ele>313.0</ele><time>2026-04-25T08:54:10.05Z</time></trkpt><trkpt lat="39.670504382083074" lon="8.867750249796163"><ele>313.0</ele><time>2026-04-25T08:54:11Z</time></trkpt><trkpt lat="39.670338952530344" lon="8.867703876413087"><ele>311.0</ele><time>2026-04-25T08:54:12Z</time></trkpt><trkpt lat="39.67016822119609" lon="8.867673840119968"><ele>309.0</ele><time>2026-04-25T08:54:13Z</time></trkpt><trkpt lat="39.670010368745146" lon="8.86763821003336"><ele>307.0</ele><time>2026-04-25T08:54:14Z</time></trkpt><trkpt lat="39.66985428327956" lon="8.867595566003782"><ele>313.0</ele><time>2026-04-25T08:54:15Z</time></trkpt><trkpt lat="39.669703093278585" lon="8.867555576823833"><ele>319.0</ele><time>2026-04-25T08:54:16Z</time></trkpt><trkpt lat="39.669551295524855" lon="8.867510443555268"><ele>325.0</ele><time>2026-04-25T08:54:17Z</time></trkpt><trkpt lat="39.66940483732067" lon="8.867464520593058"><ele>325.0</ele><time>2026-04-25T08:54:18Z</time></trkpt><trkpt lat="39.66926150595781" lon="8.867394184950316"><ele>325.0</ele><time>2026-04-25T08:54:19Z</time></trkpt><trkpt lat="39.66911406345051" lon="8.867336598650422"><ele>325.0</ele><time>2026-04-25T08:54:20Z</time></trkpt><trkpt lat="39.668976779688286" lon="8.867281198496583"><ele>325.0</ele><time>2026-04-25T08:54:21Z</time></trkpt><trkpt lat="39.668856391815424" lon="8.86722566656335"><ele>325.0</ele><time>2026-04-25T08:54:22Z</time></trkpt><trkpt lat="39.66876703168117" lon="8.867136215304603"><ele>325.0</ele><time>2026-04-25T08:54:23Z</time></trkpt><trkpt lat="39.6687083299271" lon="8.86702030706169"><ele>325.0</ele><time>2026-04-25T08:54:24Z</time></trkpt><trkpt lat="39.66867520840327" lon="8.866879831787749"><ele>327.75</ele><time>2026-04-25T08:54:25Z</time></trkpt><trkpt lat="39.668649360336914" lon="8.866718247451194"><ele>330.5</ele><time>2026-04-25T08:54:26Z</time></trkpt><trkpt lat="39.66861048377142" lon="8.86654291392798"><ele>333.25</ele><time>2026-04-25T08:54:27Z</time></trkpt><trkpt lat="39.66857551623853" lon="8.866360242605204"><ele>336.0</ele><time>2026-04-25T08:54:28Z</time></trkpt><trkpt lat="39.66855037228844" lon="8.86617365746545"><ele>336.0</ele><time>2026-04-25T08:54:29Z</time></trkpt><trkpt lat="39.668512443579225" lon="8.865987731591586"><ele>336.0</ele><time>2026-04-25T08:54:30Z</time></trkpt><trkpt lat="39.66848567589642" lon="8.865802563017555"><ele>336.0</ele><time>2026-04-25T08:54:31Z</time></trkpt><trkpt lat="39.66845690719648" lon="8.86563044882474"><ele>336.0</ele><time>2026-04-25T08:54:32Z</time></trkpt><trkpt lat="39.66842970204509" lon="8.865467037686912"><ele>336.6</ele><time>2026-04-25T08:54:33Z</time></trkpt><trkpt lat="39.668404390839214" lon="8.865312832347879"><ele>337.20000000000005</ele><time>2026-04-25T08:54:34Z</time></trkpt><trkpt lat="39.66838267011632" lon="8.865167274866785"><ele>337.79999999999995</ele><time>2026-04-25T08:54:35Z</time></trkpt><trkpt lat="39.66836051750369" lon="8.865032392801199"><ele>338.4</ele><time>2026-04-25T08:54:36Z</time></trkpt><trkpt lat="39.66833751599732" lon="8.864921608934214"><ele>339.0</ele><time>2026-04-25T08:54:37Z</time></trkpt><trkpt lat="39.66833766610689" lon="8.864829812454808"><ele>339.1666666666667</ele><time>2026-04-25T08:54:38Z</time></trkpt><trkpt lat="39.66839998010465" lon="8.864770048421528"><ele>339.3333333333333</ele><time>2026-04-25T08:54:42Z</time></trkpt><trkpt lat="39.668462872239765" lon="8.864784930752151"><ele>339.5</ele><time>2026-04-25T08:54:44Z</time></trkpt><trkpt lat="39.668549039441515" lon="8.864833695603581"><ele>339.66666666666663</ele><time>2026-04-25T08:54:46Z</time></trkpt><trkpt lat="39.668617737573925" lon="8.864862809886864"><ele>339.8333333333333</ele><time>2026-04-25T08:54:47Z</time></trkpt><trkpt lat="39.668690463421676" lon="8.86489097477862"><ele>340.0</ele><time>2026-04-25T08:54:48Z</time></trkpt><trkpt lat="39.668771281050084" lon="8.864922659639873"><ele>340.16666666666663</ele><time>2026-04-25T08:54:49Z</time></trkpt><trkpt lat="39.66886062689332" lon="8.864954696307297"><ele>340.3333333333333</ele><time>2026-04-25T08:54:50Z</time></trkpt><trkpt lat="39.66894582936973" lon="8.865000417000523"><ele>340.5</ele><time>2026-04-25T08:54:51Z</time></trkpt><trkpt lat="39.66901759009764" lon="8.865057381042156"><ele>340.6666666666667</ele><time>2026-04-25T08:54:52Z</time></trkpt><trkpt lat="39.66908381425662" lon="8.8651223072068"><ele>340.83333333333337</ele><time>2026-04-25T08:54:53Z</time></trkpt><trkpt lat="39.669145678767435" lon="8.865203279290013"><ele>341.0</ele><time>2026-04-25T08:54:54Z</time></trkpt><trkpt lat="39.669196911331994" lon="8.865291972055111"><ele>341.0</ele><time>2026-04-25T08:54:55Z</time></trkpt><trkpt lat="39.6692403949232" lon="8.865382383059721"><ele>341.0</ele><time>2026-04-25T08:54:56Z</time></trkpt><trkpt lat="39.669284181315085" lon="8.865474920318519"><ele>341.0</ele><time>2026-04-25T08:54:57Z</time></trkpt><trkpt lat="39.66932166673834" lon="8.865563927708262"><ele>341.0</ele><time>2026-04-25T08:54:58Z</time></trkpt><trkpt lat="39.66935603505375" lon="8.865653616275932"><ele>341.0</ele><time>2026-04-25T08:54:59Z</time></trkpt><trkpt lat="39.669388297594594" lon="8.865747860805753"><ele>341.0</ele><time>2026-04-25T08:55:00Z</time></trkpt><trkpt lat="39.66941460598316" lon="8.865846198089683"><ele>341.0</ele><time>2026-04-25T08:55:01Z</time></trkpt><trkpt lat="39.66943754854878" lon="8.86593709305054"><ele>341.0</ele><time>2026-04-25T08:55:02Z</time></trkpt><trkpt lat="39.66947696864052" lon="8.866016091848905"><ele>341.0</ele><time>2026-04-25T08:55:03Z</time></trkpt><trkpt lat="39.66953024966342" lon="8.866072223589198"><ele>341.0</ele><time>2026-04-25T08:55:04Z</time></trkpt><trkpt lat="39.669601946022254" lon="8.866095695559336"><ele>341.0</ele><time>2026-04-25T08:55:05.001Z</time></trkpt><trkpt lat="39.66968502779997" lon="8.86610380431414"><ele>341.0</ele><time>2026-04-25T08:55:06Z</time></trkpt><trkpt lat="39.66976411098664" lon="8.866125433609303"><ele>340.6</ele><time>2026-04-25T08:55:07.001Z</time></trkpt><trkpt lat="39.6698489210183" lon="8.86615535793739"><ele>340.20000000000005</ele><time>2026-04-25T08:55:08.001Z</time></trkpt><trkpt lat="39.66993910106802" lon="8.866191096189512"><ele>339.79999999999995</ele><time>2026-04-25T08:55:09.001Z</time></trkpt><trkpt lat="39.670035115341626" lon="8.866226754478046"><ele>339.4</ele><time>2026-04-25T08:55:10.001Z</time></trkpt><trkpt lat="39.670132682103535" lon="8.866262372138424"><ele>339.0</ele><time>2026-04-25T08:55:11.001Z</time></trkpt><trkpt lat="39.67023067810845" lon="8.86631349916251"><ele>339.4</ele><time>2026-04-25T08:55:12.001Z</time></trkpt><trkpt lat="39.670333034699986" lon="8.866366095377996"><ele>339.79999999999995</ele><time>2026-04-25T08:55:13.001Z</time></trkpt><trkpt lat="39.670436733546715" lon="8.866423016917707"><ele>340.20000000000005</ele><time>2026-04-25T08:55:14.001Z</time></trkpt><trkpt lat="39.670540929476346" lon="8.866477665363625"><ele>340.6</ele><time>2026-04-25T08:55:15.001Z</time></trkpt><trkpt lat="39.67064208150032" lon="8.866521130412272"><ele>341.0</ele><time>2026-04-25T08:55:16.001Z</time></trkpt><trkpt lat="39.67074767932381" lon="8.866556559656074"><ele>341.0</ele><time>2026-04-25T08:55:17.001Z</time></trkpt><trkpt lat="39.670859229827904" lon="8.866585672158644"><ele>341.0</ele><time>2026-04-25T08:55:18.001Z</time></trkpt><trkpt lat="39.67097317875284" lon="8.866628048083811"><ele>341.0</ele><time>2026-04-25T08:55:19.001Z</time></trkpt><trkpt lat="39.67109163083617" lon="8.866654155846913"><ele>341.0</ele><time>2026-04-25T08:55:20.001Z</time></trkpt><trkpt lat="39.67120707812613" lon="8.866689693383947"><ele>341.6</ele><time>2026-04-25T08:55:21.001Z</time></trkpt><trkpt lat="39.67132065146603" lon="8.866725595701395"><ele>342.20000000000005</ele><time>2026-04-25T08:55:22.001Z</time></trkpt><trkpt lat="39.67142902602044" lon="8.866756317833937"><ele>342.79999999999995</ele><time>2026-04-25T08:55:23.001Z</time></trkpt><trkpt lat="39.67153096690815" lon="8.866785794937616"><ele>343.4</ele><time>2026-04-25T08:55:24.001Z</time></trkpt><trkpt lat="39.67162445960148" lon="8.866826351537275"><ele>344.0</ele><time>2026-04-25T08:55:25.001Z</time></trkpt><trkpt lat="39.671703281451855" lon="8.866883387743206"><ele>344.1666666666667</ele><time>2026-04-25T08:55:26.001Z</time></trkpt><trkpt lat="39.671769460509225" lon="8.866963337088226"><ele>344.33333333333337</ele><time>2026-04-25T08:55:27.001Z</time></trkpt><trkpt lat="39.671824807783466" lon="8.867049055531655"><ele>344.5</ele><time>2026-04-25T08:55:28.001Z</time></trkpt><trkpt lat="39.67188013593034" lon="8.867116585391038"><ele>344.6666666666667</ele><time>2026-04-25T08:55:29.001Z</time></trkpt><trkpt lat="39.6719486352779" lon="8.867165974430954"><ele>344.8333333333333</ele><time>2026-04-25T08:55:30.001Z</time></trkpt><trkpt lat="39.67203581258808" lon="8.867200193587395"><ele>345.0</ele><time>2026-04-25T08:55:31.001Z</time></trkpt><trkpt lat="39.672131368446756" lon="8.86723646567408"><ele>345.0</ele><time>2026-04-25T08:55:32.001Z</time></trkpt><trkpt lat="39.6722232091313" lon="8.867280343258797"><ele>345.0</ele><time>2026-04-25T08:55:33.001Z</time></trkpt><trkpt lat="39.672323908557054" lon="8.867323747554082"><ele>345.0</ele><time>2026-04-25T08:55:34.001Z</time></trkpt><trkpt lat="39.67242777422571" lon="8.867355043353065"><ele>345.0</ele><time>2026-04-25T08:55:35.001Z</time></trkpt><trkpt lat="39.67252974432616" lon="8.867377718539451"><ele>345.0</ele><time>2026-04-25T08:55:36.001Z</time></trkpt><trkpt lat="39.67262561487267" lon="8.867394901320518"><ele>345.0</ele><time>2026-04-25T08:55:37.001Z</time></trkpt><trkpt lat="39.672729523987314" lon="8.867405008533904"><ele>345.0</ele><time>2026-04-25T08:55:38.001Z</time></trkpt><trkpt lat="39.67283769789268" lon="8.867405644662826"><ele>345.0</ele><time>2026-04-25T08:55:39.001Z</time></trkpt><trkpt lat="39.67294595758857" lon="8.867396321845357"><ele>345.0</ele><time>2026-04-25T08:55:40.001Z</time></trkpt><trkpt lat="39.67305607186421" lon="8.867380525593543"><ele>345.0</ele><time>2026-04-25T08:55:41.001Z</time></trkpt><trkpt lat="39.6731672628507" lon="8.867377114969036"><ele>345.0</ele><time>2026-04-25T08:55:42.001Z</time></trkpt><trkpt lat="39.67328105914106" lon="8.867375118088926"><ele>345.0</ele><time>2026-04-25T08:55:43.001Z</time></trkpt><trkpt lat="39.673397917055105" lon="8.867380344731911"><ele>345.0</ele><time>2026-04-25T08:55:44.001Z</time></trkpt><trkpt lat="39.673516167886596" lon="8.867388874430285"><ele>345.0</ele><time>2026-04-25T08:55:45.001Z</time></trkpt><trkpt lat="39.673635538687165" lon="8.867397802647249"><ele>345.0</ele><time>2026-04-25T08:55:46Z</time></trkpt><trkpt lat="39.67375582178746" lon="8.867395069930556"><ele>345.0</ele><time>2026-04-25T08:55:47Z</time></trkpt><trkpt lat="39.67387381664169" lon="8.867379000428139"><ele>345.0</ele><time>2026-04-25T08:55:48Z</time></trkpt><trkpt lat="39.67399286947518" lon="8.867373302332465"><ele>345.0</ele><time>2026-04-25T08:55:49Z</time></trkpt><trkpt lat="39.67411159487705" lon="8.867388221471456"><ele>345.0</ele><time>2026-04-25T08:55:50Z</time></trkpt><trkpt lat="39.67422866651047" lon="8.86741393616558"><ele>345.0</ele><time>2026-04-25T08:55:51Z</time></trkpt><trkpt lat="39.67433664784542" lon="8.867430222026085"><ele>345.0</ele><time>2026-04-25T08:55:52Z</time></trkpt><trkpt lat="39.67443631316696" lon="8.867436381457788"><ele>345.0</ele><time>2026-04-25T08:55:53Z</time></trkpt><trkpt lat="39.67453450018389" lon="8.867421153171223"><ele>345.0</ele><time>2026-04-25T08:55:54Z</time></trkpt><trkpt lat="39.674625581126115" lon="8.86739022111814"><ele>345.4</ele><time>2026-04-25T08:55:55Z</time></trkpt><trkpt lat="39.674711106197925" lon="8.867377782407747"><ele>345.8</ele><time>2026-04-25T08:55:56Z</time></trkpt><trkpt lat="39.67479431330936" lon="8.867388740164639"><ele>346.20000000000005</ele><time>2026-04-25T08:55:57Z</time></trkpt><trkpt lat="39.6748774138127" lon="8.867430622394457"><ele>346.6</ele><time>2026-04-25T08:55:58Z</time></trkpt><trkpt lat="39.674951896202266" lon="8.867504860106955"><ele>347.0</ele><time>2026-04-25T08:55:59Z</time></trkpt><trkpt lat="39.67503037723953" lon="8.867588018076352"><ele>347.20000000000005</ele><time>2026-04-25T08:56:00Z</time></trkpt><trkpt lat="39.675116944804614" lon="8.867665541927327"><ele>347.4</ele><time>2026-04-25T08:56:01Z</time></trkpt><trkpt lat="39.67520358072031" lon="8.867750873339862"><ele>347.6</ele><time>2026-04-25T08:56:02Z</time></trkpt><trkpt lat="39.67528150784817" lon="8.867833929001629"><ele>347.79999999999995</ele><time>2026-04-25T08:56:03Z</time></trkpt><trkpt lat="39.675354936591134" lon="8.86790047975624"><ele>348.0</ele><time>2026-04-25T08:56:04Z</time></trkpt><trkpt lat="39.675433301292955" lon="8.86794887053494"><ele>348.0</ele><time>2026-04-25T08:56:05Z</time></trkpt><trkpt lat="39.67552496117243" lon="8.867970271795222"><ele>348.0</ele><time>2026-04-25T08:56:06Z</time></trkpt><trkpt lat="39.6756242171102" lon="8.867961192452192"><ele>348.0</ele><time>2026-04-25T08:56:07Z</time></trkpt><trkpt lat="39.67572188597828" lon="8.867943008733924"><ele>348.0</ele><time>2026-04-25T08:56:08Z</time></trkpt><trkpt lat="39.675817929295576" lon="8.867909309971775"><ele>348.0</ele><time>2026-04-25T08:56:09Z</time></trkpt><trkpt lat="39.67591554313534" lon="8.86786158111119"><ele>348.0</ele><time>2026-04-25T08:56:10Z</time></trkpt><trkpt lat="39.67601640671875" lon="8.867815531307519"><ele>348.0</ele><time>2026-04-25T08:56:11Z</time></trkpt><trkpt lat="39.676117201844264" lon="8.867777734098116"><ele>348.0</ele><time>2026-04-25T08:56:12Z</time></trkpt><trkpt lat="39.67622259239684" lon="8.867752804615733"><ele>348.0</ele><time>2026-04-25T08:56:13Z</time></trkpt><trkpt lat="39.676327123945235" lon="8.86773734776773"><ele>348.0</ele><time>2026-04-25T08:56:14Z</time></trkpt><trkpt lat="39.676422786855426" lon="8.867736500837836"><ele>348.4</ele><time>2026-04-25T08:56:15Z</time></trkpt><trkpt lat="39.676517983782624" lon="8.867733603165453"><ele>348.79999999999995</ele><time>2026-04-25T08:56:16Z</time></trkpt><trkpt lat="39.67660205453171" lon="8.867754837484961"><ele>349.2</ele><time>2026-04-25T08:56:17Z</time></trkpt><trkpt lat="39.67668449634499" lon="8.867807905129732"><ele>349.6</ele><time>2026-04-25T08:56:18Z</time></trkpt><trkpt lat="39.67676084647564" lon="8.867880652004038"><ele>350.0</ele><time>2026-04-25T08:56:19Z</time></trkpt><trkpt lat="39.67683568284712" lon="8.86795899951916"><ele>350.0</ele><time>2026-04-25T08:56:20Z</time></trkpt><trkpt lat="39.67690496619587" lon="8.86805151252393"><ele>350.0</ele><time>2026-04-25T08:56:21Z</time></trkpt><trkpt lat="39.67695756459785" lon="8.86814851282874"><ele>350.0</ele><time>2026-04-25T08:56:22Z</time></trkpt><trkpt lat="39.67699734386929" lon="8.868249622400555"><ele>350.0</ele><time>2026-04-25T08:56:23Z</time></trkpt><trkpt lat="39.677030626531526" lon="8.868356428736677"><ele>350.0</ele><time>2026-04-25T08:56:24Z</time></trkpt><trkpt lat="39.677066902563865" lon="8.86846982217222"><ele>350.4</ele><time>2026-04-25T08:56:25Z</time></trkpt><trkpt lat="39.67710645511284" lon="8.868578353879212"><ele>350.8</ele><time>2026-04-25T08:56:26Z</time></trkpt><trkpt lat="39.67714896428099" lon="8.868692720774488"><ele>351.20000000000005</ele><time>2026-04-25T08:56:27Z</time></trkpt><trkpt lat="39.67718740208398" lon="8.868809207971864"><ele>351.6</ele><time>2026-04-25T08:56:28Z</time></trkpt><trkpt lat="39.67722471067863" lon="8.868934094692058"><ele>352.0</ele><time>2026-04-25T08:56:29Z</time></trkpt><trkpt lat="39.67726488928456" lon="8.869052785185621"><ele>352.0</ele><time>2026-04-25T08:56:30Z</time></trkpt><trkpt lat="39.677308423118404" lon="8.86916178049048"><ele>352.0</ele><time>2026-04-25T08:56:31Z</time></trkpt><trkpt lat="39.67735977699502" lon="8.869257934070399"><ele>352.0</ele><time>2026-04-25T08:56:32Z</time></trkpt><trkpt lat="39.67742066353699" lon="8.869338468549339"><ele>352.0</ele><time>2026-04-25T08:56:33Z</time></trkpt><trkpt lat="39.67748960169817" lon="8.869403492471978"><ele>352.0</ele><time>2026-04-25T08:56:34Z</time></trkpt><trkpt lat="39.67756469610318" lon="8.869451027562118"><ele>352.0</ele><time>2026-04-25T08:56:35Z</time></trkpt><trkpt lat="39.677645117042985" lon="8.86947628551214"><ele>349.8333333333333</ele><time>2026-04-25T08:56:36Z</time></trkpt><trkpt lat="39.67772724037813" lon="8.869493740279808"><ele>347.66666666666663</ele><time>2026-04-25T08:56:37Z</time></trkpt><trkpt lat="39.67780777204849" lon="8.86954030097446"><ele>345.5</ele><time>2026-04-25T08:56:38Z</time></trkpt><trkpt lat="39.677894886327465" lon="8.869574471267043"><ele>343.3333333333333</ele><time>2026-04-25T08:56:39Z</time></trkpt><trkpt lat="39.677981154153215" lon="8.86959207843211"><ele>341.1666666666667</ele><time>2026-04-25T08:56:40Z</time></trkpt><trkpt lat="39.67806529113829" lon="8.869615697217212"><ele>339.0</ele><time>2026-04-25T08:56:41Z</time></trkpt><trkpt lat="39.6781575247536" lon="8.86961830370804"><ele>339.0</ele><time>2026-04-25T08:56:42Z</time></trkpt><trkpt lat="39.678254053131134" lon="8.869604632987063"><ele>339.0</ele><time>2026-04-25T08:56:43Z</time></trkpt><trkpt lat="39.67835125428368" lon="8.86959327088541"><ele>339.0</ele><time>2026-04-25T08:56:44Z</time></trkpt><trkpt lat="39.678447501430426" lon="8.869585830204352"><ele>339.0</ele><time>2026-04-25T08:56:45Z</time></trkpt><trkpt lat="39.678535964537865" lon="8.869563716127198"><ele>339.0</ele><time>2026-04-25T08:56:46Z</time></trkpt><trkpt lat="39.67861118572533" lon="8.869523751927519"><ele>340.2</ele><time>2026-04-25T08:56:47Z</time></trkpt><trkpt lat="39.67868724308525" lon="8.869463435355524"><ele>341.4</ele><time>2026-04-25T08:56:48Z</time></trkpt><trkpt lat="39.67876315069844" lon="8.869389562775764"><ele>342.6</ele><time>2026-04-25T08:56:49Z</time></trkpt><trkpt lat="39.67884120143795" lon="8.869306440249753"><ele>343.8</ele><time>2026-04-25T08:56:50Z</time></trkpt><trkpt lat="39.67891887018655" lon="8.869218586822523"><ele>345.0</ele><time>2026-04-25T08:56:51Z</time></trkpt><trkpt lat="39.67899178917516" lon="8.869125512854547"><ele>347.2</ele><time>2026-04-25T08:56:52Z</time></trkpt><trkpt lat="39.6790629935958" lon="8.869030965054327"><ele>349.4</ele><time>2026-04-25T08:56:53Z</time></trkpt><trkpt lat="39.67912946174828" lon="8.868966808660907"><ele>351.6</ele><time>2026-04-25T08:56:54Z</time></trkpt><trkpt lat="39.6792185617172" lon="8.868860468317969"><ele>353.8</ele><time>2026-04-25T08:56:56Z</time></trkpt><trkpt lat="39.67927454832906" lon="8.868779043863407"><ele>356.0</ele><time>2026-04-25T08:56:58Z</time></trkpt><trkpt lat="39.67932611278671" lon="8.86870556618609"><ele>356.0</ele><time>2026-04-25T08:57:00Z</time></trkpt><trkpt lat="39.67937092424582" lon="8.868634972289332"><ele>356.0</ele><time>2026-04-25T08:57:02Z</time></trkpt><trkpt lat="39.67940994026145" lon="8.868551480467922"><ele>356.0</ele><time>2026-04-25T08:57:54Z</time></trkpt><trkpt lat="39.67944792968482" lon="8.868457704380186"><ele>356.0</ele><time>2026-04-25T08:57:57Z</time></trkpt><trkpt lat="39.67941939458139" lon="8.868532203548678"><ele>356.0</ele><time>2026-04-25T08:58:17Z</time></trkpt><trkpt lat="39.67935196002169" lon="8.868666368655616"><ele>356.0</ele><time>2026-04-25T08:58:19Z</time></trkpt><trkpt lat="39.67930065166638" lon="8.868747044404131"><ele>356.0</ele><time>2026-04-25T08:58:20Z</time></trkpt><trkpt lat="39.67924737364398" lon="8.868817768218607"><ele>356.0</ele><time>2026-04-25T08:58:21Z</time></trkpt><trkpt lat="39.67917514438982" lon="8.868924260744958"><ele>356.0</ele><time>2026-04-25T08:58:23Z</time></trkpt><trkpt lat="39.679385110127875" lon="8.868967812524254"><ele>356.0</ele><time>2026-04-25T08:58:28Z</time></trkpt><trkpt lat="39.679481851670424" lon="8.868970850393863"><ele>356.0</ele><time>2026-04-25T08:58:29Z</time></trkpt><trkpt lat="39.67958829643714" lon="8.868995003900274"><ele>356.0</ele><time>2026-04-25T08:58:30Z</time></trkpt><trkpt lat="39.67968531487001" lon="8.869025102876975"><ele>356.0</ele><time>2026-04-25T08:58:31Z</time></trkpt><trkpt lat="39.679786841255606" lon="8.86906494333954"><ele>356.0</ele><time>2026-04-25T08:58:32Z</time></trkpt><trkpt lat="39.67987815766876" lon="8.869112316567412"><ele>356.0</ele><time>2026-04-25T08:58:33Z</time></trkpt><trkpt lat="39.67996159217616" lon="8.869162777431539"><ele>356.0</ele><time>2026-04-25T08:58:34Z</time></trkpt><trkpt lat="39.68004226803828" lon="8.869212367621827"><ele>356.0</ele><time>2026-04-25T08:58:35Z</time></trkpt><trkpt lat="39.68012429650557" lon="8.869275033467853"><ele>356.0</ele><time>2026-04-25T08:58:36Z</time></trkpt><trkpt lat="39.680213423442346" lon="8.869350481108066"><ele>356.0</ele><time>2026-04-25T08:58:37Z</time></trkpt><trkpt lat="39.68030663835769" lon="8.869438497885785"><ele>356.0</ele><time>2026-04-25T08:58:38Z</time></trkpt><trkpt lat="39.68040243990239" lon="8.869531279716519"><ele>355.0</ele><time>2026-04-25T08:58:39Z</time></trkpt><trkpt lat="39.68050913401323" lon="8.869617537603792"><ele>354.0</ele><time>2026-04-25T08:58:40Z</time></trkpt><trkpt lat="39.68061960908228" lon="8.869706543648844"><ele>353.0</ele><time>2026-04-25T08:58:41Z</time></trkpt><trkpt lat="39.68073147912145" lon="8.869803189441816"><ele>352.0</ele><time>2026-04-25T08:58:42Z</time></trkpt><trkpt lat="39.68084081358305" lon="8.869896954161614"><ele>352.0</ele><time>2026-04-25T08:58:43Z</time></trkpt><trkpt lat="39.68094904334209" lon="8.869981206598435"><ele>352.0</ele><time>2026-04-25T08:58:44Z</time></trkpt><trkpt lat="39.681057997138694" lon="8.87005944171452"><ele>352.0</ele><time>2026-04-25T08:58:45Z</time></trkpt><trkpt lat="39.68116558837427" lon="8.870127052005564"><ele>352.0</ele><time>2026-04-25T08:58:46Z</time></trkpt><trkpt lat="39.68128072323866" lon="8.87018984848061"><ele>348.5</ele><time>2026-04-25T08:58:47Z</time></trkpt><trkpt lat="39.681400556148525" lon="8.870244405905007"><ele>345.0</ele><time>2026-04-25T08:58:48Z</time></trkpt><trkpt lat="39.681525533440286" lon="8.870295726230136"><ele>341.5</ele><time>2026-04-25T08:58:49Z</time></trkpt><trkpt lat="39.68164964393353" lon="8.870341577227089"><ele>338.0</ele><time>2026-04-25T08:58:50Z</time></trkpt><trkpt lat="39.681767419696975" lon="8.870382229722011"><ele>338.0</ele><time>2026-04-25T08:58:51Z</time></trkpt><trkpt lat="39.68188052033312" lon="8.87040064107796"><ele>338.0</ele><time>2026-04-25T08:58:52Z</time></trkpt><trkpt lat="39.68199083722545" lon="8.870377960112421"><ele>338.0</ele><time>2026-04-25T08:58:53Z</time></trkpt><trkpt lat="39.6820973926073" lon="8.870338642661462"><ele>338.0</ele><time>2026-04-25T08:58:54Z</time></trkpt><trkpt lat="39.68220154975962" lon="8.870315339939458"><ele>338.0</ele><time>2026-04-25T08:58:55Z</time></trkpt><trkpt lat="39.68231370732616" lon="8.870315236861959"><ele>339.75</ele><time>2026-04-25T08:58:56Z</time></trkpt><trkpt lat="39.68243310230853" lon="8.870325842917564"><ele>341.5</ele><time>2026-04-25T08:58:57Z</time></trkpt><trkpt lat="39.68254811206848" lon="8.870349829385852"><ele>343.25</ele><time>2026-04-25T08:58:58Z</time></trkpt><trkpt lat="39.68265532125972" lon="8.870389837746798"><ele>345.0</ele><time>2026-04-25T08:58:59Z</time></trkpt><trkpt lat="39.682761650572324" lon="8.870441911649587"><ele>346.5</ele><time>2026-04-25T08:59:00Z</time></trkpt><trkpt lat="39.68285982976473" lon="8.870506213850568"><ele>348.0</ele><time>2026-04-25T08:59:01Z</time></trkpt><trkpt lat="39.682957564655474" lon="8.870581171042703"><ele>349.5</ele><time>2026-04-25T08:59:02Z</time></trkpt><trkpt lat="39.68306019507254" lon="8.870653464903423"><ele>351.0</ele><time>2026-04-25T08:59:03Z</time></trkpt><trkpt lat="39.68316340902057" lon="8.870721928288813"><ele>351.0</ele><time>2026-04-25T08:59:04Z</time></trkpt><trkpt lat="39.68326161911733" lon="8.870790993594774"><ele>351.0</ele><time>2026-04-25T08:59:05Z</time></trkpt><trkpt lat="39.68335641220373" lon="8.870855260777857"><ele>351.0</ele><time>2026-04-25T08:59:06Z</time></trkpt><trkpt lat="39.683449501673415" lon="8.870917367581416"><ele>351.0</ele><time>2026-04-25T08:59:07Z</time></trkpt><trkpt lat="39.68353957154134" lon="8.870979382684565"><ele>351.0</ele><time>2026-04-25T08:59:08Z</time></trkpt><trkpt lat="39.6836361758521" lon="8.8710414409544"><ele>350.25</ele><time>2026-04-25T08:59:09Z</time></trkpt><trkpt lat="39.683736287866864" lon="8.871098371446935"><ele>349.5</ele><time>2026-04-25T08:59:10Z</time></trkpt><trkpt lat="39.68383538192452" lon="8.871166999104327"><ele>348.75</ele><time>2026-04-25T08:59:11Z</time></trkpt><trkpt lat="39.68393009965705" lon="8.871252388688347"><ele>348.0</ele><time>2026-04-25T08:59:12Z</time></trkpt><trkpt lat="39.6840208554278" lon="8.871352022595909"><ele>348.0</ele><time>2026-04-25T08:59:13Z</time></trkpt><trkpt lat="39.684108057209066" lon="8.871451428506118"><ele>348.0</ele><time>2026-04-25T08:59:14Z</time></trkpt><trkpt lat="39.68418622800989" lon="8.87154171924299"><ele>348.0</ele><time>2026-04-25T08:59:15Z</time></trkpt><trkpt lat="39.68425049605579" lon="8.871614071548127"><ele>348.0</ele><time>2026-04-25T08:59:16Z</time></trkpt><trkpt lat="39.68430555797471" lon="8.871667028248607"><ele>348.0</ele><time>2026-04-25T08:59:17Z</time></trkpt><trkpt lat="39.684373266006126" lon="8.871728340950746"><ele>348.1666666666667</ele><time>2026-04-25T08:59:19Z</time></trkpt><trkpt lat="39.68442673835206" lon="8.871783276434003"><ele>348.3333333333333</ele><time>2026-04-25T08:59:22Z</time></trkpt><trkpt lat="39.684548635209595" lon="8.871813902985707"><ele>348.5</ele><time>2026-04-25T08:59:25Z</time></trkpt><trkpt lat="39.6846125461539" lon="8.871813438715886"><ele>348.66666666666663</ele><time>2026-04-25T08:59:26Z</time></trkpt><trkpt lat="39.68468366297619" lon="8.871796982464533"><ele>348.8333333333333</ele><time>2026-04-25T08:59:27Z</time></trkpt><trkpt lat="39.68476560112936" lon="8.871785676658837"><ele>349.0</ele><time>2026-04-25T08:59:28Z</time></trkpt><trkpt lat="39.68483992012595" lon="8.87175242143978"><ele>349.5</ele><time>2026-04-25T08:59:29Z</time></trkpt><trkpt lat="39.6849072088505" lon="8.87171244310129"><ele>350.0</ele><time>2026-04-25T08:59:30Z</time></trkpt><trkpt lat="39.68497056159884" lon="8.87166984540359"><ele>350.5</ele><time>2026-04-25T08:59:31Z</time></trkpt><trkpt lat="39.685024873217166" lon="8.871627991526177"><ele>351.0</ele><time>2026-04-25T08:59:32Z</time></trkpt><trkpt lat="39.6851183391189" lon="8.871546385066159"><ele>351.5</ele><time>2026-04-25T08:59:34Z</time></trkpt><trkpt lat="39.68520185158824" lon="8.871467200878799"><ele>352.0</ele><time>2026-04-25T08:59:36Z</time></trkpt><trkpt lat="39.685270080633124" lon="8.87138572924269"><ele>352.14285714285717</ele><time>2026-04-25T08:59:38Z</time></trkpt><trkpt lat="39.6853237716827" lon="8.871302408670084"><ele>352.2857142857143</ele><time>2026-04-25T08:59:40Z</time></trkpt><trkpt lat="39.68536237949403" lon="8.871227614352527"><ele>352.42857142857144</ele><time>2026-04-25T08:59:43Z</time></trkpt><trkpt lat="39.685417844150486" lon="8.871176913411489"><ele>352.57142857142856</ele><time>2026-04-25T08:59:47Z</time></trkpt><trkpt lat="39.6854863863123" lon="8.871133153446536"><ele>352.7142857142857</ele><time>2026-04-25T09:21:20Z</time></trkpt><trkpt lat="39.68544751036756" lon="8.871041271181978"><ele>352.85714285714283</ele><time>2026-04-25T09:21:23Z</time></trkpt><trkpt lat="39.68543209876188" lon="8.870951435795394"><ele>353.0</ele><time>2026-04-25T09:21:25Z</time></trkpt><trkpt lat="39.68547697320861" lon="8.87081007808894"><ele>353.0</ele><time>2026-04-25T09:21:27Z</time></trkpt><trkpt lat="39.68550196847111" lon="8.870712041838082"><ele>353.0</ele><time>2026-04-25T09:21:28Z</time></trkpt><trkpt lat="39.685535048852714" lon="8.870619942524431"><ele>353.0</ele><time>2026-04-25T09:21:29Z</time></trkpt><trkpt lat="39.685581849165715" lon="8.870528347234263"><ele>353.0</ele><time>2026-04-25T09:21:30Z</time></trkpt><trkpt lat="39.68560905988002" lon="8.87043039477543"><ele>353.0</ele><time>2026-04-25T09:21:31Z</time></trkpt><trkpt lat="39.685638446940295" lon="8.870324607906438"><ele>353.0</ele><time>2026-04-25T09:21:32Z</time></trkpt><trkpt lat="39.68566810073031" lon="8.870218948958732"><ele>352.83333333333337</ele><time>2026-04-25T09:21:33Z</time></trkpt><trkpt lat="39.68569957087712" lon="8.870107501088015"><ele>352.6666666666667</ele><time>2026-04-25T09:21:34Z</time></trkpt><trkpt lat="39.68573153542842" lon="8.86999430219914"><ele>352.5</ele><time>2026-04-25T09:21:35Z</time></trkpt><trkpt lat="39.68576165352178" lon="8.869887642296138"><ele>352.3333333333333</ele><time>2026-04-25T09:21:36Z</time></trkpt><trkpt lat="39.68578895603488" lon="8.869784395249496"><ele>352.16666666666663</ele><time>2026-04-25T09:21:37Z</time></trkpt><trkpt lat="39.685812034617605" lon="8.869685318096227"><ele>352.0</ele><time>2026-04-25T09:21:38Z</time></trkpt><trkpt lat="39.685820397328484" lon="8.869589892003791"><ele>352.0</ele><time>2026-04-25T09:21:39Z</time></trkpt><trkpt lat="39.68584147540482" lon="8.86950006869247"><ele>352.0</ele><time>2026-04-25T09:21:40Z</time></trkpt><trkpt lat="39.68584885463661" lon="8.86941296984155"><ele>352.0</ele><time>2026-04-25T09:21:41Z</time></trkpt><trkpt lat="39.68586532892409" lon="8.8693247701693"><ele>352.0</ele><time>2026-04-25T09:21:42Z</time></trkpt><trkpt lat="39.68585512507515" lon="8.869235805957192"><ele>352.0</ele><time>2026-04-25T09:21:43Z</time></trkpt><trkpt lat="39.68581139087551" lon="8.869107663903518"><ele>352.0</ele><time>2026-04-25T09:21:45Z</time></trkpt><trkpt lat="39.68578241929412" lon="8.869008554863264"><ele>351.66666666666663</ele><time>2026-04-25T09:21:49Z</time></trkpt><trkpt lat="39.6857336897179" lon="8.868905378810153"><ele>351.3333333333333</ele><time>2026-04-25T09:21:51Z</time></trkpt><trkpt lat="39.68571020961164" lon="8.868825134239543"><ele>351.0</ele><time>2026-04-25T09:21:52Z</time></trkpt><trkpt lat="39.68566660735968" lon="8.868753081174981"><ele>350.6666666666667</ele><time>2026-04-25T09:21:53Z</time></trkpt><trkpt lat="39.685617692342824" lon="8.868679486425082"><ele>350.33333333333337</ele><time>2026-04-25T09:21:54Z</time></trkpt><trkpt lat="39.68556243748991" lon="8.868601592843405"><ele>350.0</ele><time>2026-04-25T09:21:55Z</time></trkpt><trkpt lat="39.685506917552914" lon="8.868524895615634"><ele>350.0</ele><time>2026-04-25T09:21:56Z</time></trkpt><trkpt lat="39.68545106058136" lon="8.86844749155314"><ele>350.0</ele><time>2026-04-25T09:21:57Z</time></trkpt><trkpt lat="39.68539544625258" lon="8.86836786298797"><ele>350.0</ele><time>2026-04-25T09:21:58Z</time></trkpt><trkpt lat="39.68533224764339" lon="8.868303783608127"><ele>350.0</ele><time>2026-04-25T09:21:59Z</time></trkpt><trkpt lat="39.685285714429504" lon="8.868228489682078"><ele>350.0</ele><time>2026-04-25T09:22:00Z</time></trkpt><trkpt lat="39.68523995434776" lon="8.868163578455889"><ele>350.0</ele><time>2026-04-25T09:22:01Z</time></trkpt><trkpt lat="39.68519351852565" lon="8.868061486935686"><ele>350.2</ele><time>2026-04-25T09:22:03Z</time></trkpt><trkpt lat="39.68514525722234" lon="8.867987085646348"><ele>350.4</ele><time>2026-04-25T09:22:47Z</time></trkpt><trkpt lat="39.68520324831404" lon="8.868079115230808"><ele>350.6</ele><time>2026-04-25T09:23:01Z</time></trkpt><trkpt lat="39.68524374603103" lon="8.868145246942488"><ele>350.8</ele><time>2026-04-25T09:23:02Z</time></trkpt><trkpt lat="39.68529382969114" lon="8.86822688048739"><ele>351.0</ele><time>2026-04-25T09:23:03Z</time></trkpt><trkpt lat="39.68539937056627" lon="8.86839285128324"><ele>350.8</ele><time>2026-04-25T09:23:04Z</time></trkpt><trkpt lat="39.68546112353257" lon="8.868500035973039"><ele>350.6</ele><time>2026-04-25T09:23:05Z</time></trkpt><trkpt lat="39.68552984029574" lon="8.868603264194785"><ele>350.4</ele><time>2026-04-25T09:23:06Z</time></trkpt><trkpt lat="39.68560034049541" lon="8.868705650789094"><ele>350.2</ele><time>2026-04-25T09:23:07Z</time></trkpt><trkpt lat="39.68566644932291" lon="8.868806551967221"><ele>350.0</ele><time>2026-04-25T09:23:08Z</time></trkpt><trkpt lat="39.68573172975178" lon="8.868904879475656"><ele>350.0</ele><time>2026-04-25T09:23:09Z</time></trkpt><trkpt lat="39.68580179403213" lon="8.868989587920293"><ele>350.0</ele><time>2026-04-25T09:23:10Z</time></trkpt><trkpt lat="39.68584277126043" lon="8.869104787484032"><ele>350.0</ele><time>2026-04-25T09:23:11Z</time></trkpt><trkpt lat="39.68591042564922" lon="8.869187658357319"><ele>350.0</ele><time>2026-04-25T09:23:12Z</time></trkpt><trkpt lat="39.68598578322459" lon="8.869275906436835"><ele>350.0</ele><time>2026-04-25T09:23:13Z</time></trkpt><trkpt lat="39.686068248455385" lon="8.869364372982602"><ele>350.6</ele><time>2026-04-25T09:23:14Z</time></trkpt><trkpt lat="39.68615789921205" lon="8.869450291971079"><ele>351.2</ele><time>2026-04-25T09:23:15Z</time></trkpt><trkpt lat="39.68625650602194" lon="8.869514863452311"><ele>351.79999999999995</ele><time>2026-04-25T09:23:16Z</time></trkpt><trkpt lat="39.68635506655471" lon="8.8695613980844"><ele>352.4</ele><time>2026-04-25T09:23:17Z</time></trkpt><trkpt lat="39.68645882903763" lon="8.869576180347401"><ele>353.0</ele><time>2026-04-25T09:23:18Z</time></trkpt><trkpt lat="39.68655545600263" lon="8.869607167457888"><ele>353.0</ele><time>2026-04-25T09:23:19Z</time></trkpt><trkpt lat="39.68664757463951" lon="8.869636050945582"><ele>353.0</ele><time>2026-04-25T09:23:20Z</time></trkpt><trkpt lat="39.686733179789684" lon="8.869670950759751"><ele>353.0</ele><time>2026-04-25T09:23:21Z</time></trkpt><trkpt lat="39.68681085928668" lon="8.86970963066567"><ele>353.0</ele><time>2026-04-25T09:23:22Z</time></trkpt><trkpt lat="39.686889201268826" lon="8.869753978042876"><ele>353.0</ele><time>2026-04-25T09:23:23Z</time></trkpt><trkpt lat="39.68694829875632" lon="8.869829048658268"><ele>353.0</ele><time>2026-04-25T09:23:24Z</time></trkpt><trkpt lat="39.68700392333969" lon="8.869897619832527"><ele>353.1428571428571</ele><time>2026-04-25T09:23:25Z</time></trkpt><trkpt lat="39.68706507826687" lon="8.86996076757217"><ele>353.28571428571433</ele><time>2026-04-25T09:23:26Z</time></trkpt><trkpt lat="39.68711139489149" lon="8.870046542608549"><ele>353.42857142857144</ele><time>2026-04-25T09:23:27Z</time></trkpt><trkpt lat="39.68715365158239" lon="8.87013432414602"><ele>353.57142857142856</ele><time>2026-04-25T09:23:28Z</time></trkpt><trkpt lat="39.68718790108801" lon="8.870222700818774"><ele>353.71428571428567</ele><time>2026-04-25T09:23:29Z</time></trkpt><trkpt lat="39.687211451376456" lon="8.870300334716218"><ele>353.8571428571429</ele><time>2026-04-25T09:23:30Z</time></trkpt><trkpt lat="39.68723837874492" lon="8.870382978318533"><ele>354.0</ele><time>2026-04-25T09:23:31Z</time></trkpt><trkpt lat="39.687265236977126" lon="8.87046777540205"><ele>354.0</ele><time>2026-04-25T09:23:32Z</time></trkpt><trkpt lat="39.68729046135743" lon="8.870549865088732"><ele>354.0</ele><time>2026-04-25T09:23:33Z</time></trkpt><trkpt lat="39.687314740685544" lon="8.870627679899563"><ele>354.0</ele><time>2026-04-25T09:23:34Z</time></trkpt><trkpt lat="39.687363156307505" lon="8.870780377252018"><ele>354.0</ele><time>2026-04-25T09:23:36Z</time></trkpt><trkpt lat="39.68739110364606" lon="8.87085847094082"><ele>354.0</ele><time>2026-04-25T09:23:37Z</time></trkpt><trkpt lat="39.687419003551724" lon="8.870937658448202"><ele>354.0</ele><time>2026-04-25T09:23:38Z</time></trkpt><trkpt lat="39.68744812324535" lon="8.871020694111882"><ele>354.2857142857143</ele><time>2026-04-25T09:23:39Z</time></trkpt><trkpt lat="39.68747481349009" lon="8.871105321283459"><ele>354.57142857142856</ele><time>2026-04-25T09:23:40Z</time></trkpt><trkpt lat="39.68750128723696" lon="8.871189328721677"><ele>354.85714285714283</ele><time>2026-04-25T09:23:41Z</time></trkpt><trkpt lat="39.687527900492825" lon="8.87127254585566"><ele>355.1428571428571</ele><time>2026-04-25T09:23:42Z</time></trkpt><trkpt lat="39.68755532710661" lon="8.871354085534952"><ele>355.42857142857144</ele><time>2026-04-25T09:23:43Z</time></trkpt><trkpt lat="39.687578268426925" lon="8.871433151560986"><ele>355.71428571428567</ele><time>2026-04-25T09:23:44Z</time></trkpt><trkpt lat="39.68760354964631" lon="8.871512675628646"><ele>356.0</ele><time>2026-04-25T09:23:45Z</time></trkpt><trkpt lat="39.68763215648313" lon="8.871588481264377"><ele>356.0</ele><time>2026-04-25T09:23:46Z</time></trkpt><trkpt lat="39.68765307263366" lon="8.871666963513352"><ele>356.0</ele><time>2026-04-25T09:23:47Z</time></trkpt><trkpt lat="39.6876675591164" lon="8.87175036427884"><ele>356.0</ele><time>2026-04-25T09:23:48Z</time></trkpt><trkpt lat="39.6876926518978" lon="8.871831617142394"><ele>356.0</ele><time>2026-04-25T09:23:49Z</time></trkpt><trkpt lat="39.687731326615314" lon="8.871903616240786"><ele>356.0</ele><time>2026-04-25T09:23:50Z</time></trkpt><trkpt lat="39.6877460083773" lon="8.871984867387315"><ele>356.0</ele><time>2026-04-25T09:23:51Z</time></trkpt><trkpt lat="39.68778105592215" lon="8.87214078180921"><ele>355.6666666666667</ele><time>2026-04-25T09:23:53Z</time></trkpt><trkpt lat="39.68780305136884" lon="8.87222000057155"><ele>355.33333333333337</ele><time>2026-04-25T09:23:54Z</time></trkpt><trkpt lat="39.68782517191393" lon="8.872297822867521"><ele>355.0</ele><time>2026-04-25T09:23:55Z</time></trkpt><trkpt lat="39.68783849552854" lon="8.872378217654598"><ele>354.6666666666667</ele><time>2026-04-25T09:23:56Z</time></trkpt><trkpt lat="39.687867112434056" lon="8.872523556097581"><ele>354.3333333333333</ele><time>2026-04-25T09:23:58Z</time></trkpt><trkpt lat="39.68792633989248" lon="8.872652373840387"><ele>354.0</ele><time>2026-04-25T09:24:00Z</time></trkpt><trkpt lat="39.68795407757684" lon="8.872727756676522"><ele>354.0</ele><time>2026-04-25T09:24:01Z</time></trkpt><trkpt lat="39.68799117125305" lon="8.872803232539434"><ele>354.0</ele><time>2026-04-25T09:24:02Z</time></trkpt><trkpt lat="39.68802530037633" lon="8.87287981183241"><ele>354.0</ele><time>2026-04-25T09:24:03Z</time></trkpt><trkpt lat="39.688055015032276" lon="8.872955741709928"><ele>354.0</ele><time>2026-04-25T09:24:04Z</time></trkpt><trkpt lat="39.688097268798565" lon="8.873024941170014"><ele>354.0</ele><time>2026-04-25T09:24:05Z</time></trkpt><trkpt lat="39.68811872273521" lon="8.873102771756017"><ele>354.0</ele><time>2026-04-25T09:24:06Z</time></trkpt><trkpt lat="39.68816890513047" lon="8.873250089967524"><ele>354.0</ele><time>2026-04-25T09:24:08Z</time></trkpt><trkpt lat="39.68821998531752" lon="8.873396111383956"><ele>354.0</ele><time>2026-04-25T09:24:10Z</time></trkpt><trkpt lat="39.68827166982537" lon="8.873543951679993"><ele>354.0</ele><time>2026-04-25T09:24:12Z</time></trkpt><trkpt lat="39.68830535961681" lon="8.87361667238434"><ele>354.0</ele><time>2026-04-25T09:24:13Z</time></trkpt><trkpt lat="39.68833593766033" lon="8.873688654624019"><ele>354.0</ele><time>2026-04-25T09:24:14Z</time></trkpt><trkpt lat="39.688405409315905" lon="8.87382116450682"><ele>353.8333333333333</ele><time>2026-04-25T09:24:16Z</time></trkpt><trkpt lat="39.68850265188968" lon="8.873921309334214"><ele>353.6666666666667</ele><time>2026-04-25T09:24:18Z</time></trkpt><trkpt lat="39.688556581050946" lon="8.873973176481888"><ele>353.5</ele><time>2026-04-25T09:24:19Z</time></trkpt><trkpt lat="39.68860975382138" lon="8.874028618157947"><ele>353.33333333333337</ele><time>2026-04-25T09:24:20Z</time></trkpt><trkpt lat="39.68866803398341" lon="8.874070754702965"><ele>353.1666666666667</ele><time>2026-04-25T09:24:21Z</time></trkpt><trkpt lat="39.68872782053204" lon="8.874102565886362"><ele>353.0</ele><time>2026-04-25T09:24:22Z</time></trkpt><trkpt lat="39.68882989223709" lon="8.874186826151426"><ele>353.0</ele><time>2026-04-25T09:24:24Z</time></trkpt><trkpt lat="39.68888883851096" lon="8.874226733524482"><ele>353.0</ele><time>2026-04-25T09:24:25Z</time></trkpt><trkpt lat="39.68895301043176" lon="8.874258189520146"><ele>353.0</ele><time>2026-04-25T09:24:26Z</time></trkpt><trkpt lat="39.6890132005555" lon="8.874299261809734"><ele>353.0</ele><time>2026-04-25T09:24:27Z</time></trkpt><trkpt lat="39.689073586321626" lon="8.874341907801574"><ele>353.0</ele><time>2026-04-25T09:24:28Z</time></trkpt><trkpt lat="39.68913311945034" lon="8.87438640988252"><ele>353.0</ele><time>2026-04-25T09:24:29Z</time></trkpt><trkpt lat="39.68918492475784" lon="8.874437196148653"><ele>353.0</ele><time>2026-04-25T09:24:30Z</time></trkpt><trkpt lat="39.689232082630255" lon="8.874492806036939"><ele>353.1428571428571</ele><time>2026-04-25T09:24:31Z</time></trkpt><trkpt lat="39.689278581357534" lon="8.874555707828195"><ele>353.28571428571433</ele><time>2026-04-25T09:24:32Z</time></trkpt><trkpt lat="39.6893253761477" lon="8.874626439474193"><ele>353.42857142857144</ele><time>2026-04-25T09:24:33Z</time></trkpt><trkpt lat="39.68936670376233" lon="8.874700484469818"><ele>353.57142857142856</ele><time>2026-04-25T09:24:34Z</time></trkpt><trkpt lat="39.68940161837173" lon="8.874781215433327"><ele>353.71428571428567</ele><time>2026-04-25T09:24:35Z</time></trkpt><trkpt lat="39.68941107623291" lon="8.874873170349389"><ele>353.8571428571429</ele><time>2026-04-25T09:24:36Z</time></trkpt><trkpt lat="39.689425681696314" lon="8.874954082432128"><ele>354.0</ele><time>2026-04-25T09:24:37Z</time></trkpt><trkpt lat="39.68943905347576" lon="8.875035391439635"><ele>354.42857142857144</ele><time>2026-04-25T09:24:38Z</time></trkpt><trkpt lat="39.689460264460706" lon="8.875114923392058"><ele>354.85714285714283</ele><time>2026-04-25T09:24:39Z</time></trkpt><trkpt lat="39.68946387173421" lon="8.875200859047908"><ele>355.2857142857143</ele><time>2026-04-25T09:24:40Z</time></trkpt><trkpt lat="39.68945412418432" lon="8.875283750898825"><ele>355.7142857142857</ele><time>2026-04-25T09:24:41Z</time></trkpt><trkpt lat="39.68947049125894" lon="8.875364837539646"><ele>356.1428571428571</ele><time>2026-04-25T09:24:42Z</time></trkpt><trkpt lat="39.689473193561014" lon="8.875449997365195"><ele>356.57142857142856</ele><time>2026-04-25T09:24:43Z</time></trkpt><trkpt lat="39.689489977646645" lon="8.87553535396911"><ele>357.0</ele><time>2026-04-25T09:24:44Z</time></trkpt><trkpt lat="39.689512825988714" lon="8.87562161336404"><ele>357.0</ele><time>2026-04-25T09:24:45Z</time></trkpt><trkpt lat="39.689538110870004" lon="8.875707333099195"><ele>357.0</ele><time>2026-04-25T09:24:46Z</time></trkpt><trkpt lat="39.68957438422764" lon="8.875780565909993"><ele>357.0</ele><time>2026-04-25T09:24:47Z</time></trkpt><trkpt lat="39.68961624963354" lon="8.875846074228456"><ele>357.0</ele><time>2026-04-25T09:24:48Z</time></trkpt><trkpt lat="39.689663279877415" lon="8.875900661203941"><ele>357.0</ele><time>2026-04-25T09:24:49Z</time></trkpt><trkpt lat="39.68975295559898" lon="8.876006345246394"><ele>357.0</ele><time>2026-04-25T09:24:51Z</time></trkpt><trkpt lat="39.689803381936834" lon="8.876058284520843"><ele>356.8333333333333</ele><time>2026-04-25T09:24:52Z</time></trkpt><trkpt lat="39.68986131200849" lon="8.876099159001342"><ele>356.6666666666667</ele><time>2026-04-25T09:24:53Z</time></trkpt><trkpt lat="39.68992120878766" lon="8.876138178730924"><ele>356.5</ele><time>2026-04-25T09:24:54Z</time></trkpt><trkpt lat="39.68998130024862" lon="8.876168546356547"><ele>356.33333333333337</ele><time>2026-04-25T09:24:55Z</time></trkpt><trkpt lat="39.6900403753758" lon="8.876198059961238"><ele>356.1666666666667</ele><time>2026-04-25T09:24:56Z</time></trkpt><trkpt lat="39.6901535230935" lon="8.87627158555146"><ele>356.0</ele><time>2026-04-25T09:24:58Z</time></trkpt><trkpt lat="39.69021183214729" lon="8.876306096318425"><ele>355.99999999999994</ele><time>2026-04-25T09:24:59Z</time></trkpt><trkpt lat="39.69026999028006" lon="8.876343985814625"><ele>356.0</ele><time>2026-04-25T09:25:00Z</time></trkpt><trkpt lat="39.690327448115575" lon="8.87638157040396"><ele>356.0</ele><time>2026-04-25T09:25:01Z</time></trkpt><trkpt lat="39.69038817948415" lon="8.876419182491253"><ele>356.0</ele><time>2026-04-25T09:25:02Z</time></trkpt><trkpt lat="39.690449272338704" lon="8.876460574977592"><ele>356.0</ele><time>2026-04-25T09:25:03Z</time></trkpt><trkpt lat="39.69051124775524" lon="8.876496678494629"><ele>355.99999999999994</ele><time>2026-04-25T09:25:04Z</time></trkpt><trkpt lat="39.690567949992904" lon="8.876545550216651"><ele>356.0</ele><time>2026-04-25T09:25:05Z</time></trkpt><trkpt lat="39.690617452344235" lon="8.876684189261315"><ele>355.20000000000005</ele><time>2026-04-25T09:25:07Z</time></trkpt><trkpt lat="39.690557634422646" lon="8.876818469979042"><ele>354.40000000000003</ele><time>2026-04-25T09:25:09Z</time></trkpt><trkpt lat="39.690447697609" lon="8.876867667116548"><ele>353.6</ele><time>2026-04-25T09:25:11Z</time></trkpt><trkpt lat="39.69033451015187" lon="8.876938461350846"><ele>352.8</ele><time>2026-04-25T09:25:13Z</time></trkpt><trkpt lat="39.69027630635743" lon="8.87697350157442"><ele>352.0</ele><time>2026-04-25T09:25:14Z</time></trkpt><trkpt lat="39.69021458624838" lon="8.877008301733124"><ele>351.3333333333333</ele><time>2026-04-25T09:25:15Z</time></trkpt><trkpt lat="39.69015408910297" lon="8.877042313201162"><ele>350.66666666666663</ele><time>2026-04-25T09:25:16Z</time></trkpt><trkpt lat="39.69009302239141" lon="8.877075223394705"><ele>350.0</ele><time>2026-04-25T09:25:17Z</time></trkpt><trkpt lat="39.68997478441037" lon="8.877134669916096"><ele>349.3333333333333</ele><time>2026-04-25T09:25:19Z</time></trkpt><trkpt lat="39.689912636145365" lon="8.877158939097042"><ele>348.6666666666667</ele><time>2026-04-25T09:25:20Z</time></trkpt><trkpt lat="39.689848753642764" lon="8.877166035405727"><ele>348.0</ele><time>2026-04-25T09:25:21Z</time></trkpt><trkpt lat="39.68978588246749" lon="8.877155970728767"><ele>348.0</ele><time>2026-04-25T09:25:22Z</time></trkpt><trkpt lat="39.68967727067949" lon="8.877087386301683"><ele>348.0</ele><time>2026-04-25T09:25:24Z</time></trkpt><trkpt lat="39.689577169117975" lon="8.877013419267032"><ele>348.0</ele><time>2026-04-25T09:25:26Z</time></trkpt><trkpt lat="39.68947736271487" lon="8.876938785554625"><ele>348.0</ele><time>2026-04-25T09:25:28Z</time></trkpt><trkpt lat="39.68936855001745" lon="8.876864415413369"><ele>348.6666666666667</ele><time>2026-04-25T09:25:30Z</time></trkpt><trkpt lat="39.689259158890536" lon="8.876793512224305"><ele>349.3333333333333</ele><time>2026-04-25T09:25:32Z</time></trkpt><trkpt lat="39.6891995931743" lon="8.876755057154659"><ele>350.0</ele><time>2026-04-25T09:25:33Z</time></trkpt><trkpt lat="39.68913540734149" lon="8.87671583975232"><ele>350.66666666666663</ele><time>2026-04-25T09:25:34Z</time></trkpt><trkpt lat="39.689065048739316" lon="8.876697004734087"><ele>351.3333333333333</ele><time>2026-04-25T09:25:35Z</time></trkpt><trkpt lat="39.68900834972852" lon="8.876639224413738"><ele>352.0</ele><time>2026-04-25T09:25:36Z</time></trkpt><trkpt lat="39.68893956483636" lon="8.876615368447283"><ele>352.0</ele><time>2026-04-25T09:25:37Z</time></trkpt><trkpt lat="39.68887576123031" lon="8.876577541398966"><ele>352.0</ele><time>2026-04-25T09:25:38Z</time></trkpt><trkpt lat="39.688815029639336" lon="8.876540573042922"><ele>352.0</ele><time>2026-04-25T09:25:39Z</time></trkpt><trkpt lat="39.68876078495137" lon="8.876483102469816"><ele>352.0</ele><time>2026-04-25T09:25:40Z</time></trkpt><trkpt lat="39.68870211578199" lon="8.876447950339527"><ele>352.0</ele><time>2026-04-25T09:25:41Z</time></trkpt><trkpt lat="39.688638819574734" lon="8.876430796829498"><ele>352.0</ele><time>2026-04-25T09:25:42Z</time></trkpt><trkpt lat="39.688579330723186" lon="8.876396578499808"><ele>352.0</ele><time>2026-04-25T09:25:43Z</time></trkpt><trkpt lat="39.68851475902524" lon="8.876358066010507"><ele>351.0</ele><time>2026-04-25T09:25:44Z</time></trkpt><trkpt lat="39.68844307452361" lon="8.876329880104114"><ele>350.0</ele><time>2026-04-25T09:25:45Z</time></trkpt><trkpt lat="39.68837448543079" lon="8.876298148656383"><ele>349.0</ele><time>2026-04-25T09:25:46Z</time></trkpt><trkpt lat="39.688313233075824" lon="8.876255817606685"><ele>348.0</ele><time>2026-04-25T09:25:47Z</time></trkpt><trkpt lat="39.68824678857061" lon="8.876235652694776"><ele>347.0</ele><time>2026-04-25T09:25:48Z</time></trkpt><trkpt lat="39.6881789205524" lon="8.87622105838303"><ele>346.0</ele><time>2026-04-25T09:25:49Z</time></trkpt><trkpt lat="39.6881101081193" lon="8.876209747634864"><ele>345.0</ele><time>2026-04-25T09:25:50Z</time></trkpt><trkpt lat="39.688040759720906" lon="8.87620041404933"><ele>345.0</ele><time>2026-04-25T09:25:51Z</time></trkpt><trkpt lat="39.6879702373626" lon="8.876193392213644"><ele>345.0</ele><time>2026-04-25T09:25:52Z</time></trkpt><trkpt lat="39.687901672664815" lon="8.876188089685106"><ele>345.0</ele><time>2026-04-25T09:25:53Z</time></trkpt><trkpt lat="39.687835539059506" lon="8.876186077900332"><ele>345.0</ele><time>2026-04-25T09:25:54Z</time></trkpt><trkpt lat="39.687770023959075" lon="8.876186927865525"><ele>345.0</ele><time>2026-04-25T09:25:55Z</time></trkpt><trkpt lat="39.68770367126222" lon="8.876191745516715"><ele>345.0</ele><time>2026-04-25T09:25:56Z</time></trkpt><trkpt lat="39.687635904019075" lon="8.876202114705732"><ele>345.0</ele><time>2026-04-25T09:25:57Z</time></trkpt><trkpt lat="39.68756707180477" lon="8.876223348502743"><ele>345.1666666666667</ele><time>2026-04-25T09:25:58Z</time></trkpt><trkpt lat="39.68750259819028" lon="8.876250656487626"><ele>345.3333333333333</ele><time>2026-04-25T09:25:59Z</time></trkpt><trkpt lat="39.68744104094829" lon="8.876282098036215"><ele>345.5</ele><time>2026-04-25T09:26:00Z</time></trkpt><trkpt lat="39.68732588707153" lon="8.876350240663319"><ele>345.66666666666663</ele><time>2026-04-25T09:26:02Z</time></trkpt><trkpt lat="39.68726750948357" lon="8.876385313314078"><ele>345.8333333333333</ele><time>2026-04-25T09:26:03Z</time></trkpt><trkpt lat="39.687153793480725" lon="8.876449150088703"><ele>346.0</ele><time>2026-04-25T09:26:05Z</time></trkpt><trkpt lat="39.687093194473306" lon="8.876481307103505"><ele>346.0</ele><time>2026-04-25T09:26:06Z</time></trkpt><trkpt lat="39.68698994838905" lon="8.876530892705418"><ele>346.0</ele><time>2026-04-25T09:26:08Z</time></trkpt><trkpt lat="39.686905486733885" lon="8.876583851241023"><ele>346.0</ele><time>2026-04-25T09:26:11Z</time></trkpt><trkpt lat="39.68679476786616" lon="8.876599284146078"><ele>346.0</ele><time>2026-04-25T09:26:13Z</time></trkpt><trkpt lat="39.686731964484586" lon="8.87657827282332"><ele>346.0</ele><time>2026-04-25T09:26:14Z</time></trkpt><trkpt lat="39.68666421639489" lon="8.876570915959684"><ele>346.0</ele><time>2026-04-25T09:26:15Z</time></trkpt><trkpt lat="39.686596842648065" lon="8.87655596308383"><ele>347.16666666666663</ele><time>2026-04-25T09:26:16Z</time></trkpt><trkpt lat="39.68653656017749" lon="8.876530696023814"><ele>348.3333333333333</ele><time>2026-04-25T09:26:17Z</time></trkpt><trkpt lat="39.6864203003668" lon="8.87647483924977"><ele>349.5</ele><time>2026-04-25T09:26:19Z</time></trkpt><trkpt lat="39.686350979722135" lon="8.87646018278563"><ele>350.6666666666667</ele><time>2026-04-25T09:26:20Z</time></trkpt><trkpt lat="39.68629143477466" lon="8.876422665982908"><ele>351.83333333333337</ele><time>2026-04-25T09:26:21Z</time></trkpt><trkpt lat="39.6862321878952" lon="8.876389245850858"><ele>353.0</ele><time>2026-04-25T09:26:22Z</time></trkpt><trkpt lat="39.68617104324593" lon="8.87635626715854"><ele>353.0</ele><time>2026-04-25T09:26:23Z</time></trkpt><trkpt lat="39.68610639519055" lon="8.876326862458056"><ele>353.0</ele><time>2026-04-25T09:26:24Z</time></trkpt><trkpt lat="39.686043697814014" lon="8.87629818107995"><ele>353.0</ele><time>2026-04-25T09:26:25Z</time></trkpt><trkpt lat="39.68598466140841" lon="8.876268797694578"><ele>353.0</ele><time>2026-04-25T09:26:26Z</time></trkpt><trkpt lat="39.68587717623693" lon="8.876213987368082"><ele>353.0</ele><time>2026-04-25T09:26:28Z</time></trkpt><trkpt lat="39.685795595803285" lon="8.876172741080731"><ele>353.0</ele><time>2026-04-25T09:26:30Z</time></trkpt><trkpt lat="39.68572411312814" lon="8.876133397764056"><ele>353.0</ele><time>2026-04-25T09:26:32Z</time></trkpt><trkpt lat="39.685640644253894" lon="8.876085149560273"><ele>353.0</ele><time>2026-04-25T09:26:34Z</time></trkpt><trkpt lat="39.68556169539061" lon="8.876054223747815"><ele>353.0</ele><time>2026-04-25T09:26:36Z</time></trkpt><trkpt lat="39.68548762921359" lon="8.876029883881822"><ele>353.0</ele><time>2026-04-25T09:26:38Z</time></trkpt><trkpt lat="39.6854077209973" lon="8.875990827936535"><ele>353.0</ele><time>2026-04-25T09:26:40Z</time></trkpt><trkpt lat="39.685317313995256" lon="8.875935133207623"><ele>353.0</ele><time>2026-04-25T09:26:42Z</time></trkpt><trkpt lat="39.68524478557163" lon="8.875867049347216"><ele>352.6666666666667</ele><time>2026-04-25T09:26:44Z</time></trkpt><trkpt lat="39.685178487209996" lon="8.875789026475168"><ele>352.33333333333337</ele><time>2026-04-25T09:26:46Z</time></trkpt><trkpt lat="39.68511943144709" lon="8.875699403432098"><ele>352.0</ele><time>2026-04-25T09:26:48Z</time></trkpt><trkpt lat="39.68508397595612" lon="8.875621801253311"><ele>351.6666666666667</ele><time>2026-04-25T09:26:50Z</time></trkpt><trkpt lat="39.68505992656574" lon="8.875536234420771"><ele>351.3333333333333</ele><time>2026-04-25T09:26:54Z</time></trkpt><trkpt lat="39.68504054921609" lon="8.875436795913615"><ele>351.0</ele><time>2026-04-25T09:26:59Z</time></trkpt><trkpt lat="39.68504495707185" lon="8.875317815967955"><ele>351.0</ele><time>2026-04-25T09:27:02Z</time></trkpt><trkpt lat="39.68504387786977" lon="8.87519177638655"><ele>351.0</ele><time>2026-04-25T09:27:04Z</time></trkpt><trkpt lat="39.68506977900538" lon="8.875055845104466"><ele>351.0</ele><time>2026-04-25T09:27:06Z</time></trkpt><trkpt lat="39.68508376714146" lon="8.874920958268087"><ele>351.0</ele><time>2026-04-25T09:27:08Z</time></trkpt><trkpt lat="39.685092443831245" lon="8.874809056081716"><ele>351.0</ele><time>2026-04-25T09:27:10Z</time></trkpt><trkpt lat="39.685115659137544" lon="8.874732569315995"><ele>351.0</ele><time>2026-04-25T09:27:13Z</time></trkpt><trkpt lat="39.68512413229146" lon="8.874649561027846"><ele>351.0</ele><time>2026-04-25T09:27:43Z</time></trkpt><trkpt lat="39.68509412905706" lon="8.874800289575818"><ele>351.0</ele><time>2026-04-25T09:28:21Z</time></trkpt><trkpt lat="39.68506133998357" lon="8.875009214988914"><ele>351.0</ele><time>2026-04-25T09:28:22Z</time></trkpt><trkpt lat="39.68504257048902" lon="8.875171174899517"><ele>351.0</ele><time>2026-04-25T09:28:23Z</time></trkpt><trkpt lat="39.685030435360865" lon="8.87530525555456"><ele>351.0</ele><time>2026-04-25T09:28:24Z</time></trkpt><trkpt lat="39.68502604071366" lon="8.875425120417491"><ele>351.0</ele><time>2026-04-25T09:28:25Z</time></trkpt><trkpt lat="39.685039656208325" lon="8.875528118920075"><ele>351.0</ele><time>2026-04-25T09:28:26Z</time></trkpt><trkpt lat="39.68506428155632" lon="8.87562409335563"><ele>351.0</ele><time>2026-04-25T09:28:27Z</time></trkpt><trkpt lat="39.68510998219262" lon="8.875721704732035"><ele>351.0</ele><time>2026-04-25T09:28:28Z</time></trkpt><trkpt lat="39.68517707774321" lon="8.87582302414321"><ele>351.25</ele><time>2026-04-25T09:28:29Z</time></trkpt><trkpt lat="39.685265143790936" lon="8.875921351589392"><ele>351.5</ele><time>2026-04-25T09:28:30Z</time></trkpt><trkpt lat="39.68537878433839" lon="8.876001283505373"><ele>351.75</ele><time>2026-04-25T09:28:31Z</time></trkpt><trkpt lat="39.685491802950274" lon="8.876050739749607"><ele>352.0</ele><time>2026-04-25T09:28:32Z</time></trkpt><trkpt lat="39.68558665725915" lon="8.876083756410894"><ele>353.0</ele><time>2026-04-25T09:28:33Z</time></trkpt><trkpt lat="39.68566687171016" lon="8.876117314642737"><ele>353.0</ele><time>2026-04-25T09:28:34Z</time></trkpt><trkpt lat="39.68572865586304" lon="8.876148245143801"><ele>353.0</ele><time>2026-04-25T09:28:35Z</time></trkpt><trkpt lat="39.68579833464337" lon="8.876196636865089"><ele>353.0</ele><time>2026-04-25T09:28:37Z</time></trkpt></trkseg><trkseg><trkpt lat="39.68594401768137" lon="8.876256924939204"><ele>353.0</ele><time>2026-04-25T09:42:14Z</time></trkpt><trkpt lat="39.68606631586098" lon="8.876310107837227"><ele>353.0</ele><time>2026-04-25T09:42:16Z</time></trkpt><trkpt lat="39.686134337631415" lon="8.87635296493664"><ele>353.0</ele><time>2026-04-25T09:42:17Z</time></trkpt><trkpt lat="39.68620313441056" lon="8.876398332345394"><ele>353.0</ele><time>2026-04-25T09:42:18Z</time></trkpt><trkpt lat="39.68627093889519" lon="8.876431353135018"><ele>353.0</ele><time>2026-04-25T09:42:19Z</time></trkpt><trkpt lat="39.68634568293157" lon="8.876471317242622"><ele>353.0</ele><time>2026-04-25T09:42:20Z</time></trkpt><trkpt lat="39.68642397313741" lon="8.876511743009234"><ele>353.0</ele><time>2026-04-25T09:42:21Z</time></trkpt><trkpt lat="39.68650214345099" lon="8.876550642058925"><ele>353.0</ele><time>2026-04-25T09:42:22Z</time></trkpt><trkpt lat="39.686581100541325" lon="8.876580612028713"><ele>353.0</ele><time>2026-04-25T09:42:23Z</time></trkpt><trkpt lat="39.68666130041416" lon="8.876602145604513"><ele>353.0</ele><time>2026-04-25T09:42:24Z</time></trkpt><trkpt lat="39.68674200589852" lon="8.876611374235411"><ele>353.0</ele><time>2026-04-25T09:42:25Z</time></trkpt><trkpt lat="39.68682287544735" lon="8.876605272453718"><ele>353.0</ele><time>2026-04-25T09:42:26Z</time></trkpt><trkpt lat="39.68690306663973" lon="8.87659436967198"><ele>351.83333333333337</ele><time>2026-04-25T09:42:27Z</time></trkpt><trkpt lat="39.686985182003" lon="8.876575201343472"><ele>350.6666666666667</ele><time>2026-04-25T09:42:28Z</time></trkpt><trkpt lat="39.687063833515325" lon="8.876542064053758"><ele>349.5</ele><time>2026-04-25T09:42:29Z</time></trkpt><trkpt lat="39.687136002513846" lon="8.876500216055794"><ele>348.3333333333333</ele><time>2026-04-25T09:42:30Z</time></trkpt><trkpt lat="39.68720682684469" lon="8.876451534035997"><ele>347.16666666666663</ele><time>2026-04-25T09:42:31Z</time></trkpt><trkpt lat="39.68728082647692" lon="8.876405058892503"><ele>346.0</ele><time>2026-04-25T09:42:32Z</time></trkpt><trkpt lat="39.687355944710085" lon="8.876367187670711"><ele>346.0</ele><time>2026-04-25T09:42:33Z</time></trkpt><trkpt lat="39.687426126562514" lon="8.876331646056748"><ele>346.0</ele><time>2026-04-25T09:42:34Z</time></trkpt><trkpt lat="39.68749520508878" lon="8.876297380562507"><ele>346.0</ele><time>2026-04-25T09:42:35Z</time></trkpt><trkpt lat="39.68756180943247" lon="8.87626579213401"><ele>346.0</ele><time>2026-04-25T09:42:36Z</time></trkpt><trkpt lat="39.68763501831237" lon="8.876240649832233"><ele>346.0</ele><time>2026-04-25T09:42:37Z</time></trkpt><trkpt lat="39.6877122485023" lon="8.87622217801498"><ele>346.0</ele><time>2026-04-25T09:42:38Z</time></trkpt><trkpt lat="39.68779354811405" lon="8.876213333759841"><ele>345.85714285714283</ele><time>2026-04-25T09:42:39Z</time></trkpt><trkpt lat="39.68787124122583" lon="8.876216048370598"><ele>345.7142857142857</ele><time>2026-04-25T09:42:40Z</time></trkpt><trkpt lat="39.6879470115644" lon="8.876221896920502"><ele>345.57142857142856</ele><time>2026-04-25T09:42:41Z</time></trkpt><trkpt lat="39.68801941866598" lon="8.876230004105206"><ele>345.42857142857144</ele><time>2026-04-25T09:42:42Z</time></trkpt><trkpt lat="39.68809138002586" lon="8.876244418103061"><ele>345.2857142857143</ele><time>2026-04-25T09:42:43Z</time></trkpt><trkpt lat="39.68816083666454" lon="8.876267938571445"><ele>345.14285714285717</ele><time>2026-04-25T09:42:44Z</time></trkpt><trkpt lat="39.68823383487096" lon="8.876280942698916"><ele>345.0</ele><time>2026-04-25T09:42:45Z</time></trkpt><trkpt lat="39.68831087695589" lon="8.876288644061546"><ele>345.0</ele><time>2026-04-25T09:42:46Z</time></trkpt><trkpt lat="39.688389586373155" lon="8.876308164705865"><ele>345.0</ele><time>2026-04-25T09:42:47Z</time></trkpt><trkpt lat="39.68846638481036" lon="8.876349161734511"><ele>345.0</ele><time>2026-04-25T09:42:48Z</time></trkpt><trkpt lat="39.68854308984188" lon="8.87639426464663"><ele>345.0</ele><time>2026-04-25T09:42:49Z</time></trkpt><trkpt lat="39.68862445505551" lon="8.876429413538698"><ele>345.0</ele><time>2026-04-25T09:42:50Z</time></trkpt><trkpt lat="39.688695340086404" lon="8.876491311558011"><ele>345.0</ele><time>2026-04-25T09:42:51Z</time></trkpt><trkpt lat="39.688777751503395" lon="8.876519486131766"><ele>346.4</ele><time>2026-04-25T09:42:52Z</time></trkpt><trkpt lat="39.68885824944096" lon="8.876577366703376"><ele>347.8</ele><time>2026-04-25T09:42:53Z</time></trkpt><trkpt lat="39.68894989598501" lon="8.876635398876306"><ele>349.20000000000005</ele><time>2026-04-25T09:42:54Z</time></trkpt><trkpt lat="39.68903919089431" lon="8.876691430812539"><ele>350.6</ele><time>2026-04-25T09:42:55Z</time></trkpt><trkpt lat="39.6891286635742" lon="8.876751269109658"><ele>352.0</ele><time>2026-04-25T09:42:56Z</time></trkpt><trkpt lat="39.68922174138533" lon="8.876807091880025"><ele>351.20000000000005</ele><time>2026-04-25T09:42:57Z</time></trkpt><trkpt lat="39.68931165213503" lon="8.876859280942073"><ele>350.4</ele><time>2026-04-25T09:42:58Z</time></trkpt><trkpt lat="39.689398055187816" lon="8.876915730816691"><ele>349.6</ele><time>2026-04-25T09:42:59Z</time></trkpt><trkpt lat="39.689479389901614" lon="8.876977036676456"><ele>348.79999999999995</ele><time>2026-04-25T09:43:00Z</time></trkpt><trkpt lat="39.68956176764345" lon="8.877042484079162"><ele>348.0</ele><time>2026-04-25T09:43:01Z</time></trkpt><trkpt lat="39.68963900242413" lon="8.877098601314584"><ele>348.0</ele><time>2026-04-25T09:43:02Z</time></trkpt><trkpt lat="39.689712702730894" lon="8.877146333039653"><ele>348.0</ele><time>2026-04-25T09:43:03Z</time></trkpt><trkpt lat="39.68978579281104" lon="8.877177153812164"><ele>348.0</ele><time>2026-04-25T09:43:04Z</time></trkpt><trkpt lat="39.68985594940522" lon="8.877218487918842"><ele>348.0</ele><time>2026-04-25T09:43:05Z</time></trkpt><trkpt lat="39.68993323815295" lon="8.877196462148579"><ele>348.0</ele><time>2026-04-25T09:43:06Z</time></trkpt><trkpt lat="39.69000259319215" lon="8.877175306456932"><ele>348.0</ele><time>2026-04-25T09:43:07Z</time></trkpt><trkpt lat="39.690071228134485" lon="8.877139544133483"><ele>348.0</ele><time>2026-04-25T09:43:08Z</time></trkpt><trkpt lat="39.69014117618493" lon="8.877098935543438"><ele>348.0</ele><time>2026-04-25T09:43:09Z</time></trkpt><trkpt lat="39.69021423035177" lon="8.877053619892424"><ele>348.0</ele><time>2026-04-25T09:43:10Z</time></trkpt><trkpt lat="39.69029014954849" lon="8.877003854485952"><ele>348.0</ele><time>2026-04-25T09:43:11Z</time></trkpt><trkpt lat="39.690369370148744" lon="8.876956993753055"><ele>348.0</ele><time>2026-04-25T09:43:12Z</time></trkpt><trkpt lat="39.69045127131572" lon="8.87691268103341"><ele>348.0</ele><time>2026-04-25T09:43:13Z</time></trkpt><trkpt lat="39.69053346797039" lon="8.876868976112807"><ele>348.6666666666667</ele><time>2026-04-25T09:43:14Z</time></trkpt><trkpt lat="39.690601231283004" lon="8.87681145775346"><ele>349.3333333333333</ele><time>2026-04-25T09:43:15Z</time></trkpt><trkpt lat="39.69064423954757" lon="8.876722053054618"><ele>350.0</ele><time>2026-04-25T09:43:16Z</time></trkpt><trkpt lat="39.69063938586605" lon="8.876624453226162"><ele>350.66666666666663</ele><time>2026-04-25T09:43:17Z</time></trkpt><trkpt lat="39.690597979422584" lon="8.876545752002432"><ele>351.3333333333333</ele><time>2026-04-25T09:43:18Z</time></trkpt><trkpt lat="39.69053974030452" lon="8.87647598318829"><ele>352.0</ele><time>2026-04-25T09:43:19Z</time></trkpt><trkpt lat="39.6904549002486" lon="8.876429950913417"><ele>352.8</ele><time>2026-04-25T09:43:20Z</time></trkpt><trkpt lat="39.690375463102185" lon="8.876382294387584"><ele>353.6</ele><time>2026-04-25T09:43:21Z</time></trkpt><trkpt lat="39.69029162861578" lon="8.876329847851078"><ele>354.40000000000003</ele><time>2026-04-25T09:43:22Z</time></trkpt><trkpt lat="39.6902091425566" lon="8.876276935769612"><ele>355.20000000000005</ele><time>2026-04-25T09:43:23Z</time></trkpt><trkpt lat="39.69012406246898" lon="8.876222296203954"><ele>356.0</ele><time>2026-04-25T09:43:24Z</time></trkpt><trkpt lat="39.69004458850916" lon="8.876171257063962"><ele>356.0</ele><time>2026-04-25T09:43:25Z</time></trkpt><trkpt lat="39.68997072186424" lon="8.876125205069075"><ele>356.0</ele><time>2026-04-25T09:43:26Z</time></trkpt><trkpt lat="39.6898986609336" lon="8.876080530513173"><ele>356.0</ele><time>2026-04-25T09:43:27Z</time></trkpt><trkpt lat="39.68982549084944" lon="8.876055097508656"><ele>356.0</ele><time>2026-04-25T09:43:28Z</time></trkpt><trkpt lat="39.68976248431913" lon="8.87600153970437"><ele>356.0</ele><time>2026-04-25T09:43:29Z</time></trkpt><trkpt lat="39.68970539655049" lon="8.87593365723401"><ele>356.0</ele><time>2026-04-25T09:43:30Z</time></trkpt><trkpt lat="39.689650090316825" lon="8.875859339177826"><ele>356.1666666666667</ele><time>2026-04-25T09:43:31Z</time></trkpt><trkpt lat="39.68959606961555" lon="8.875786030716874"><ele>356.33333333333337</ele><time>2026-04-25T09:43:32Z</time></trkpt><trkpt lat="39.68956950787084" lon="8.875700741807249"><ele>356.5</ele><time>2026-04-25T09:43:33Z</time></trkpt><trkpt lat="39.68952473588973" lon="8.875622810088768"><ele>356.6666666666667</ele><time>2026-04-25T09:43:34Z</time></trkpt><trkpt lat="39.6894998232432" lon="8.875528415404416"><ele>356.8333333333333</ele><time>2026-04-25T09:43:35Z</time></trkpt><trkpt lat="39.68949924344181" lon="8.875428140066774"><ele>357.0</ele><time>2026-04-25T09:43:36Z</time></trkpt><trkpt lat="39.68947884529129" lon="8.875335382965556"><ele>357.0</ele><time>2026-04-25T09:43:37Z</time></trkpt><trkpt lat="39.68947792071508" lon="8.875242586745243"><ele>357.0</ele><time>2026-04-25T09:43:38Z</time></trkpt><trkpt lat="39.689472317845194" lon="8.875153926307712"><ele>357.0</ele><time>2026-04-25T09:43:39Z</time></trkpt><trkpt lat="39.68946639478509" lon="8.875065497147363"><ele>357.0</ele><time>2026-04-25T09:43:40Z</time></trkpt><trkpt lat="39.68945539914822" lon="8.87497080145101"><ele>357.0</ele><time>2026-04-25T09:43:41Z</time></trkpt><trkpt lat="39.689430966058936" lon="8.874871841104016"><ele>357.0</ele><time>2026-04-25T09:43:42Z</time></trkpt><trkpt lat="39.68939923678047" lon="8.874771203786732"><ele>357.0</ele><time>2026-04-25T09:43:43Z</time></trkpt><trkpt lat="39.68937582415415" lon="8.874658478852846"><ele>356.8</ele><time>2026-04-25T09:43:44Z</time></trkpt><trkpt lat="39.68930781744245" lon="8.874572690159601"><ele>356.6</ele><time>2026-04-25T09:43:45Z</time></trkpt><trkpt lat="39.68924524731077" lon="8.874482781700895"><ele>356.40000000000003</ele><time>2026-04-25T09:43:46Z</time></trkpt><trkpt lat="39.68917269292877" lon="8.874406254316808"><ele>356.20000000000005</ele><time>2026-04-25T09:43:47Z</time></trkpt><trkpt lat="39.68909394279941" lon="8.874340711001718"><ele>356.0</ele><time>2026-04-25T09:43:48Z</time></trkpt><trkpt lat="39.68900980929679" lon="8.87428312163548"><ele>355.4</ele><time>2026-04-25T09:43:49Z</time></trkpt><trkpt lat="39.68893026305366" lon="8.874223411489075"><ele>354.8</ele><time>2026-04-25T09:43:50Z</time></trkpt><trkpt lat="39.688851065581" lon="8.874167691927237"><ele>354.2</ele><time>2026-04-25T09:43:51Z</time></trkpt><trkpt lat="39.688769916966024" lon="8.874119070794402"><ele>353.59999999999997</ele><time>2026-04-25T09:43:52Z</time></trkpt><trkpt lat="39.68869195672194" lon="8.874063741806188"><ele>353.0</ele><time>2026-04-25T09:43:53Z</time></trkpt><trkpt lat="39.68861872685045" lon="8.873990828602748"><ele>353.79999999999995</ele><time>2026-04-25T09:43:54Z</time></trkpt><trkpt lat="39.68852714174827" lon="8.873937163507414"><ele>354.6</ele><time>2026-04-25T09:43:55Z</time></trkpt><trkpt lat="39.688453836174084" lon="8.873860055354985"><ele>355.4</ele><time>2026-04-25T09:43:56Z</time></trkpt><trkpt lat="39.68839084955108" lon="8.873778659558477"><ele>356.20000000000005</ele><time>2026-04-25T09:43:57Z</time></trkpt><trkpt lat="39.68834196731882" lon="8.873687457851737"><ele>357.0</ele><time>2026-04-25T09:43:58Z</time></trkpt><trkpt lat="39.68829987986327" lon="8.873583258896867"><ele>357.0</ele><time>2026-04-25T09:43:59Z</time></trkpt><trkpt lat="39.68825845730837" lon="8.873474866412442"><ele>357.0</ele><time>2026-04-25T09:44:00Z</time></trkpt><trkpt lat="39.688218520723666" lon="8.873367482675187"><ele>357.0</ele><time>2026-04-25T09:44:01Z</time></trkpt><trkpt lat="39.68818147138176" lon="8.873254120236087"><ele>357.0</ele><time>2026-04-25T09:44:02Z</time></trkpt><trkpt lat="39.6881510257135" lon="8.873148492441251"><ele>357.0</ele><time>2026-04-25T09:44:03Z</time></trkpt><trkpt lat="39.68811815929552" lon="8.873038968323446"><ele>356.40000000000003</ele><time>2026-04-25T09:44:04Z</time></trkpt><trkpt lat="39.688078850372065" lon="8.872931929086674"><ele>355.8</ele><time>2026-04-25T09:44:05Z</time></trkpt><trkpt lat="39.68803144754169" lon="8.872827923663854"><ele>355.2</ele><time>2026-04-25T09:44:06Z</time></trkpt><trkpt lat="39.68797820021386" lon="8.872725947404957"><ele>354.6</ele><time>2026-04-25T09:44:07Z</time></trkpt><trkpt lat="39.68794030261146" lon="8.872612137043376"><ele>354.0</ele><time>2026-04-25T09:44:08Z</time></trkpt><trkpt lat="39.687901837035135" lon="8.872509636055137"><ele>354.79999999999995</ele><time>2026-04-25T09:44:09Z</time></trkpt><trkpt lat="39.687872392287446" lon="8.872403722268764"><ele>355.59999999999997</ele><time>2026-04-25T09:44:10Z</time></trkpt><trkpt lat="39.68784687332079" lon="8.87228656584981"><ele>356.4</ele><time>2026-04-25T09:44:11Z</time></trkpt><trkpt lat="39.68782103185977" lon="8.872169414762107"><ele>357.2</ele><time>2026-04-25T09:44:12Z</time></trkpt><trkpt lat="39.68779214770949" lon="8.872052611671188"><ele>358.0</ele><time>2026-04-25T09:44:13Z</time></trkpt><trkpt lat="39.687758804224146" lon="8.871932767605934"><ele>358.0</ele><time>2026-04-25T09:44:14Z</time></trkpt><trkpt lat="39.68770669557316" lon="8.871813804859885"><ele>358.0</ele><time>2026-04-25T09:44:15Z</time></trkpt><trkpt lat="39.68766967651329" lon="8.871692116047157"><ele>358.0</ele><time>2026-04-25T09:44:16Z</time></trkpt><trkpt lat="39.687629984633155" lon="8.871567268596634"><ele>358.0</ele><time>2026-04-25T09:44:17Z</time></trkpt><trkpt lat="39.68759217132903" lon="8.871447064674804"><ele>358.0</ele><time>2026-04-25T09:44:18Z</time></trkpt><trkpt lat="39.68755375477415" lon="8.871328067033431"><ele>357.59999999999997</ele><time>2026-04-25T09:44:19Z</time></trkpt><trkpt lat="39.68752691006015" lon="8.871202513432687"><ele>357.2</ele><time>2026-04-25T09:44:20Z</time></trkpt><trkpt lat="39.68748828783775" lon="8.871082395211976"><ele>356.8</ele><time>2026-04-25T09:44:21Z</time></trkpt><trkpt lat="39.68745115697678" lon="8.870965346615996"><ele>356.4</ele><time>2026-04-25T09:44:22Z</time></trkpt><trkpt lat="39.687414712221994" lon="8.87085046058646"><ele>356.0</ele><time>2026-04-25T09:44:23Z</time></trkpt><trkpt lat="39.6873781660938" lon="8.870734496178065"><ele>355.6</ele><time>2026-04-25T09:44:24Z</time></trkpt><trkpt lat="39.687341420769336" lon="8.870617762052296"><ele>355.20000000000005</ele><time>2026-04-25T09:44:25Z</time></trkpt><trkpt lat="39.68730409321991" lon="8.870500443692789"><ele>354.79999999999995</ele><time>2026-04-25T09:44:26Z</time></trkpt><trkpt lat="39.687265496462246" lon="8.87038271743623"><ele>354.4</ele><time>2026-04-25T09:44:27Z</time></trkpt><trkpt lat="39.68721121276626" lon="8.870277794791006"><ele>354.0</ele><time>2026-04-25T09:44:28Z</time></trkpt><trkpt lat="39.68717054798253" lon="8.870165575362494"><ele>353.79999999999995</ele><time>2026-04-25T09:44:29Z</time></trkpt><trkpt lat="39.68712815943043" lon="8.87005585455093"><ele>353.59999999999997</ele><time>2026-04-25T09:44:30Z</time></trkpt><trkpt lat="39.68707979032907" lon="8.869947278424219"><ele>353.4</ele><time>2026-04-25T09:44:31Z</time></trkpt><trkpt lat="39.687020959132326" lon="8.869853872568305"><ele>353.2</ele><time>2026-04-25T09:44:32Z</time></trkpt><trkpt lat="39.68695341559253" lon="8.869779054328637"><ele>353.0</ele><time>2026-04-25T09:44:33Z</time></trkpt><trkpt lat="39.68688193729966" lon="8.869721280313657"><ele>353.0</ele><time>2026-04-25T09:44:34Z</time></trkpt><trkpt lat="39.68680378989099" lon="8.869673899039059"><ele>353.0</ele><time>2026-04-25T09:44:35Z</time></trkpt><trkpt lat="39.68672021627912" lon="8.869636158719876"><ele>353.0</ele><time>2026-04-25T09:44:36Z</time></trkpt><trkpt lat="39.68663684100691" lon="8.869616914899435"><ele>353.0</ele><time>2026-04-25T09:44:37Z</time></trkpt><trkpt lat="39.686548157539754" lon="8.869593242341224"><ele>353.0</ele><time>2026-04-25T09:44:38Z</time></trkpt><trkpt lat="39.68646063644759" lon="8.869563599705684"><ele>353.0</ele><time>2026-04-25T09:44:39Z</time></trkpt><trkpt lat="39.68637190722784" lon="8.869530096057117"><ele>353.0</ele><time>2026-04-25T09:44:40Z</time></trkpt><trkpt lat="39.68628574262253" lon="8.869481121329105"><ele>353.0</ele><time>2026-04-25T09:44:41Z</time></trkpt><trkpt lat="39.68620733542194" lon="8.86942109170416"><ele>353.0</ele><time>2026-04-25T09:44:42Z</time></trkpt><trkpt lat="39.686132159975635" lon="8.869349259199321"><ele>353.0</ele><time>2026-04-25T09:44:43Z</time></trkpt><trkpt lat="39.68606193799781" lon="8.869275059611873"><ele>353.0</ele><time>2026-04-25T09:44:44Z</time></trkpt><trkpt lat="39.685990792998716" lon="8.869195421666026"><ele>352.4</ele><time>2026-04-25T09:44:45Z</time></trkpt><trkpt lat="39.685919154337554" lon="8.869113940043132"><ele>351.79999999999995</ele><time>2026-04-25T09:44:46Z</time></trkpt><trkpt lat="39.685848494937474" lon="8.869030185170844"><ele>351.2</ele><time>2026-04-25T09:44:47Z</time></trkpt><trkpt lat="39.68577845921556" lon="8.868938028809737"><ele>350.6</ele><time>2026-04-25T09:44:48Z</time></trkpt><trkpt lat="39.68571146159234" lon="8.868847617292243"><ele>350.0</ele><time>2026-04-25T09:44:49Z</time></trkpt><trkpt lat="39.68565970234569" lon="8.868742691275568"><ele>350.0</ele><time>2026-04-25T09:44:50Z</time></trkpt><trkpt lat="39.6855916801169" lon="8.868641988757647"><ele>350.0</ele><time>2026-04-25T09:44:51Z</time></trkpt><trkpt lat="39.685523704753166" lon="8.868548085120874"><ele>350.0</ele><time>2026-04-25T09:44:52Z</time></trkpt><trkpt lat="39.6854452532431" lon="8.868457343093745"><ele>350.0</ele><time>2026-04-25T09:44:53Z</time></trkpt><trkpt lat="39.68537605611221" lon="8.868354488448507"><ele>350.0</ele><time>2026-04-25T09:44:54Z</time></trkpt><trkpt lat="39.68530989862827" lon="8.86824582285769"><ele>350.2</ele><time>2026-04-25T09:44:55Z</time></trkpt><trkpt lat="39.685243965790896" lon="8.86814166922134"><ele>350.4</ele><time>2026-04-25T09:44:56Z</time></trkpt><trkpt lat="39.68517849021609" lon="8.868044792075006"><ele>350.6</ele><time>2026-04-25T09:44:57Z</time></trkpt><trkpt lat="39.685112719437626" lon="8.867949607235198"><ele>350.8</ele><time>2026-04-25T09:44:58Z</time></trkpt><trkpt lat="39.68504912557361" lon="8.86785745843525"><ele>351.0</ele><time>2026-04-25T09:44:59Z</time></trkpt><trkpt lat="39.68500108609207" lon="8.867753675954747"><ele>351.0</ele><time>2026-04-25T09:45:00Z</time></trkpt><trkpt lat="39.68494290121126" lon="8.867659475876223"><ele>351.0</ele><time>2026-04-25T09:45:01Z</time></trkpt><trkpt lat="39.68488697630369" lon="8.867565290601961"><ele>351.0</ele><time>2026-04-25T09:45:02Z</time></trkpt><trkpt lat="39.684832454598585" lon="8.867469422693498"><ele>351.0</ele><time>2026-04-25T09:45:03Z</time></trkpt><trkpt lat="39.68478335020495" lon="8.867372369605535"><ele>351.0</ele><time>2026-04-25T09:45:04Z</time></trkpt><trkpt lat="39.68472997593361" lon="8.867281833324107"><ele>350.8</ele><time>2026-04-25T09:45:05Z</time></trkpt><trkpt lat="39.684700660372265" lon="8.867173542148828"><ele>350.6</ele><time>2026-04-25T09:45:06Z</time></trkpt><trkpt lat="39.68467175969951" lon="8.867061619708423"><ele>350.4</ele><time>2026-04-25T09:45:07Z</time></trkpt><trkpt lat="39.68464063723415" lon="8.866950325924023"><ele>350.2</ele><time>2026-04-25T09:45:08Z</time></trkpt><trkpt lat="39.684607357931476" lon="8.866838673347493"><ele>350.0</ele><time>2026-04-25T09:45:09Z</time></trkpt><trkpt lat="39.68457204366752" lon="8.866725454683193"><ele>350.8</ele><time>2026-04-25T09:45:10Z</time></trkpt><trkpt lat="39.68453798138692" lon="8.866614103071313"><ele>351.6</ele><time>2026-04-25T09:45:11Z</time></trkpt><trkpt lat="39.68450740943133" lon="8.86650115761832"><ele>352.4</ele><time>2026-04-25T09:45:12Z</time></trkpt><trkpt lat="39.684478356537404" lon="8.866387753536682"><ele>353.2</ele><time>2026-04-25T09:45:13Z</time></trkpt><trkpt lat="39.6844451083615" lon="8.86627246611998"><ele>354.0</ele><time>2026-04-25T09:45:14Z</time></trkpt><trkpt lat="39.68440891958175" lon="8.86615627822842"><ele>354.0</ele><time>2026-04-25T09:45:15Z</time></trkpt><trkpt lat="39.68437364973702" lon="8.86603896835979"><ele>354.0</ele><time>2026-04-25T09:45:16Z</time></trkpt><trkpt lat="39.684340309609055" lon="8.865922371181568"><ele>354.0</ele><time>2026-04-25T09:45:17Z</time></trkpt><trkpt lat="39.68430647842472" lon="8.86580416041253"><ele>354.0</ele><time>2026-04-25T09:45:18Z</time></trkpt><trkpt lat="39.684273803795" lon="8.865691602776511"><ele>354.0</ele><time>2026-04-25T09:45:19Z</time></trkpt><trkpt lat="39.684241018585304" lon="8.865577358342584"><ele>353.79999999999995</ele><time>2026-04-25T09:45:20Z</time></trkpt><trkpt lat="39.68420745256135" lon="8.865464648500913"><ele>353.59999999999997</ele><time>2026-04-25T09:45:21Z</time></trkpt><trkpt lat="39.684173549618556" lon="8.86535213798411"><ele>353.4</ele><time>2026-04-25T09:45:22Z</time></trkpt><trkpt lat="39.68413938045696" lon="8.865240715533165"><ele>353.2</ele><time>2026-04-25T09:45:23Z</time></trkpt><trkpt lat="39.684111797675264" lon="8.865130972771"><ele>353.0</ele><time>2026-04-25T09:45:24Z</time></trkpt><trkpt lat="39.68409233987407" lon="8.865020517853539"><ele>353.0</ele><time>2026-04-25T09:45:25Z</time></trkpt><trkpt lat="39.68410728810746" lon="8.864914648472425"><ele>353.0</ele><time>2026-04-25T09:45:26Z</time></trkpt><trkpt lat="39.684090974478295" lon="8.864816817507272"><ele>353.0</ele><time>2026-04-25T09:45:27Z</time></trkpt><trkpt lat="39.68408813403125" lon="8.864722318242075"><ele>353.0</ele><time>2026-04-25T09:45:28Z</time></trkpt><trkpt lat="39.68405985271988" lon="8.864627446861077"><ele>353.0</ele><time>2026-04-25T09:45:29Z</time></trkpt><trkpt lat="39.684008787139774" lon="8.864560327106581"><ele>353.0</ele><time>2026-04-25T09:45:30Z</time></trkpt><trkpt lat="39.68394650960587" lon="8.864523803360697"><ele>353.0</ele><time>2026-04-25T09:45:31Z</time></trkpt><trkpt lat="39.68388250182258" lon="8.864513956946496"><ele>353.0</ele><time>2026-04-25T09:45:32Z</time></trkpt><trkpt lat="39.683816871667425" lon="8.864512992369905"><ele>353.0</ele><time>2026-04-25T09:45:33Z</time></trkpt><trkpt lat="39.683714289922264" lon="8.864581039769012"><ele>353.0</ele><time>2026-04-25T09:45:35Z</time></trkpt><trkpt lat="39.683655940319724" lon="8.864631120461409"><ele>353.0</ele><time>2026-04-25T09:45:36Z</time></trkpt><trkpt lat="39.6836010443953" lon="8.86469816748003"><ele>353.0</ele><time>2026-04-25T09:45:37Z</time></trkpt><trkpt lat="39.68354531977764" lon="8.864767324409252"><ele>353.83333333333337</ele><time>2026-04-25T09:45:38Z</time></trkpt><trkpt lat="39.68348460703262" lon="8.864838606828453"><ele>354.6666666666667</ele><time>2026-04-25T09:45:39Z</time></trkpt><trkpt lat="39.683419047874054" lon="8.864912451586829"><ele>355.5</ele><time>2026-04-25T09:45:40Z</time></trkpt><trkpt lat="39.68335331235709" lon="8.86497824724497"><ele>356.3333333333333</ele><time>2026-04-25T09:45:41Z</time></trkpt><trkpt lat="39.68328612833202" lon="8.865043058963208"><ele>357.16666666666663</ele><time>2026-04-25T09:45:42Z</time></trkpt><trkpt lat="39.683201273424125" lon="8.865059188392422"><ele>358.0</ele><time>2026-04-25T09:45:43Z</time></trkpt><trkpt lat="39.683111098818955" lon="8.865034793543037"><ele>358.0</ele><time>2026-04-25T09:45:44Z</time></trkpt><trkpt lat="39.683028689661036" lon="8.865010056793503"><ele>358.0</ele><time>2026-04-25T09:45:45Z</time></trkpt><trkpt lat="39.682940811609875" lon="8.864973464717403"><ele>358.0</ele><time>2026-04-25T09:45:46Z</time></trkpt><trkpt lat="39.6828525546638" lon="8.864950373516088"><ele>358.0</ele><time>2026-04-25T09:45:47Z</time></trkpt><trkpt lat="39.68276273983629" lon="8.86493826964937"><ele>358.0</ele><time>2026-04-25T09:45:48Z</time></trkpt><trkpt lat="39.682676175145495" lon="8.864916077401583"><ele>358.0</ele><time>2026-04-25T09:45:49Z</time></trkpt><trkpt lat="39.682590805231555" lon="8.864912352489325"><ele>358.16666666666663</ele><time>2026-04-25T09:45:50Z</time></trkpt><trkpt lat="39.68250354108496" lon="8.864888369982035"><ele>358.3333333333333</ele><time>2026-04-25T09:45:51Z</time></trkpt><trkpt lat="39.68241878805603" lon="8.864892302737763"><ele>358.5</ele><time>2026-04-25T09:45:52Z</time></trkpt><trkpt lat="39.68233656692649" lon="8.864897431174313"><ele>358.6666666666667</ele><time>2026-04-25T09:45:53Z</time></trkpt><trkpt lat="39.68225615723004" lon="8.864905647011852"><ele>358.83333333333337</ele><time>2026-04-25T09:45:54Z</time></trkpt><trkpt lat="39.68217787496417" lon="8.864915714021087"><ele>359.0</ele><time>2026-04-25T09:45:55Z</time></trkpt><trkpt lat="39.68209559991781" lon="8.864939671228996"><ele>359.0</ele><time>2026-04-25T09:45:56Z</time></trkpt><trkpt lat="39.682013531679615" lon="8.864963422722743"><ele>359.0</ele><time>2026-04-25T09:45:57Z</time></trkpt><trkpt lat="39.68192967431026" lon="8.864993070233615"><ele>359.0</ele><time>2026-04-25T09:45:58Z</time></trkpt><trkpt lat="39.68185061487446" lon="8.864993951670812"><ele>359.0</ele><time>2026-04-25T09:45:59Z</time></trkpt><trkpt lat="39.68177927503935" lon="8.865012123611336"><ele>359.0</ele><time>2026-04-25T09:46:00Z</time></trkpt><trkpt lat="39.68171763124431" lon="8.865028840501743"><ele>359.0</ele><time>2026-04-25T09:46:01Z</time></trkpt><trkpt lat="39.68166317149613" lon="8.864968517653477"><ele>358.6666666666667</ele><time>2026-04-25T09:46:02Z</time></trkpt><trkpt lat="39.68160695936931" lon="8.864908062382106"><ele>358.33333333333337</ele><time>2026-04-25T09:46:03Z</time></trkpt><trkpt lat="39.681536280839616" lon="8.864848293898286"><ele>358.0</ele><time>2026-04-25T09:46:04Z</time></trkpt><trkpt lat="39.6814520182924" lon="8.864794950998542"><ele>357.6666666666667</ele><time>2026-04-25T09:46:05Z</time></trkpt><trkpt lat="39.68138415017036" lon="8.864711832376134"><ele>357.3333333333333</ele><time>2026-04-25T09:46:06Z</time></trkpt><trkpt lat="39.68131244027341" lon="8.864656856386317"><ele>357.0</ele><time>2026-04-25T09:46:07Z</time></trkpt><trkpt lat="39.68123847587318" lon="8.864620439487023"><ele>357.0</ele><time>2026-04-25T09:46:08Z</time></trkpt><trkpt lat="39.681168605868784" lon="8.864584655774118"><ele>357.0</ele><time>2026-04-25T09:46:09Z</time></trkpt><trkpt lat="39.681089680016264" lon="8.86458600065259"><ele>357.0</ele><time>2026-04-25T09:46:10Z</time></trkpt><trkpt lat="39.68101956333154" lon="8.864625525489785"><ele>357.0</ele><time>2026-04-25T09:46:11Z</time></trkpt><trkpt lat="39.6809557335244" lon="8.864684748831323"><ele>357.0</ele><time>2026-04-25T09:46:12Z</time></trkpt><trkpt lat="39.68089399572522" lon="8.864755792497695"><ele>357.0</ele><time>2026-04-25T09:46:13Z</time></trkpt><trkpt lat="39.680823250428155" lon="8.864821917473801"><ele>356.6666666666667</ele><time>2026-04-25T09:46:14Z</time></trkpt><trkpt lat="39.68074967652472" lon="8.86488821033637"><ele>356.3333333333333</ele><time>2026-04-25T09:46:15Z</time></trkpt><trkpt lat="39.68068578417386" lon="8.86497178806447"><ele>356.0</ele><time>2026-04-25T09:46:16Z</time></trkpt><trkpt lat="39.68062166582181" lon="8.865048731500314"><ele>355.66666666666663</ele><time>2026-04-25T09:46:17Z</time></trkpt><trkpt lat="39.680557686570886" lon="8.865127782299446"><ele>355.3333333333333</ele><time>2026-04-25T09:46:18Z</time></trkpt><trkpt lat="39.68048966128072" lon="8.86519701498214"><ele>355.0</ele><time>2026-04-25T09:46:19Z</time></trkpt><trkpt lat="39.680422766780936" lon="8.86526793900482"><ele>355.3333333333333</ele><time>2026-04-25T09:46:20Z</time></trkpt><trkpt lat="39.680358309665955" lon="8.86534271739868"><ele>355.66666666666663</ele><time>2026-04-25T09:46:21Z</time></trkpt><trkpt lat="39.68029701138305" lon="8.865422188678867"><ele>356.0</ele><time>2026-04-25T09:46:22Z</time></trkpt><trkpt lat="39.680235160570184" lon="8.865498437642794"><ele>356.3333333333333</ele><time>2026-04-25T09:46:23Z</time></trkpt><trkpt lat="39.68017492352253" lon="8.865557061932535"><ele>356.6666666666667</ele><time>2026-04-25T09:46:24Z</time></trkpt><trkpt lat="39.680108615560314" lon="8.86558601413408"><ele>357.0</ele><time>2026-04-25T09:46:25Z</time></trkpt><trkpt lat="39.68003252810002" lon="8.865588269603306"><ele>357.0</ele><time>2026-04-25T09:46:26Z</time></trkpt><trkpt lat="39.67995157940831" lon="8.865564884999413"><ele>357.0</ele><time>2026-04-25T09:46:27Z</time></trkpt><trkpt lat="39.6798662660027" lon="8.865541398484172"><ele>357.0</ele><time>2026-04-25T09:46:28Z</time></trkpt><trkpt lat="39.679782251479" lon="8.86552284229983"><ele>357.0</ele><time>2026-04-25T09:46:29Z</time></trkpt><trkpt lat="39.679701577351906" lon="8.865503821333437"><ele>357.0</ele><time>2026-04-25T09:46:30Z</time></trkpt><trkpt lat="39.67961732392031" lon="8.865488526304711"><ele>357.0</ele><time>2026-04-25T09:46:31Z</time></trkpt><trkpt lat="39.67953248591875" lon="8.865479640373957"><ele>357.0</ele><time>2026-04-25T09:46:32Z</time></trkpt><trkpt lat="39.679446984075554" lon="8.865468730470017"><ele>357.0</ele><time>2026-04-25T09:46:33Z</time></trkpt><trkpt lat="39.67936646079251" lon="8.86545360775227"><ele>357.0</ele><time>2026-04-25T09:46:34Z</time></trkpt><trkpt lat="39.67929157385255" lon="8.865438146128763"><ele>357.0</ele><time>2026-04-25T09:46:35Z</time></trkpt><trkpt lat="39.67923166498306" lon="8.865393493269858"><ele>357.0</ele><time>2026-04-25T09:46:36Z</time></trkpt><trkpt lat="39.67915881681477" lon="8.865373507831388"><ele>357.0</ele><time>2026-04-25T09:46:37Z</time></trkpt><trkpt lat="39.67908779831462" lon="8.865310818746673"><ele>357.0</ele><time>2026-04-25T09:46:38Z</time></trkpt><trkpt lat="39.6790175572559" lon="8.865257616417288"><ele>357.0</ele><time>2026-04-25T09:46:39Z</time></trkpt><trkpt lat="39.67894736778796" lon="8.86520859476593"><ele>357.0</ele><time>2026-04-25T09:46:40Z</time></trkpt><trkpt lat="39.67887713565787" lon="8.865162433576048"><ele>357.0</ele><time>2026-04-25T09:46:41Z</time></trkpt><trkpt lat="39.6787942863889" lon="8.865119502526637"><ele>357.0</ele><time>2026-04-25T09:46:42Z</time></trkpt><trkpt lat="39.67870831387531" lon="8.865072312669959"><ele>357.0</ele><time>2026-04-25T09:46:43Z</time></trkpt><trkpt lat="39.67861968837452" lon="8.865036649554094"><ele>356.0</ele><time>2026-04-25T09:46:44Z</time></trkpt><trkpt lat="39.67852462538425" lon="8.865007763662694"><ele>355.0</ele><time>2026-04-25T09:46:45Z</time></trkpt><trkpt lat="39.67842882118452" lon="8.864992994639598"><ele>354.0</ele><time>2026-04-25T09:46:46Z</time></trkpt><trkpt lat="39.67833565042689" lon="8.864992851364875"><ele>353.0</ele><time>2026-04-25T09:46:47Z</time></trkpt><trkpt lat="39.67824437924453" lon="8.865024955281367"><ele>352.0</ele><time>2026-04-25T09:46:48Z</time></trkpt><trkpt lat="39.678158461820956" lon="8.86507430861063"><ele>352.8</ele><time>2026-04-25T09:46:49Z</time></trkpt><trkpt lat="39.67807051514734" lon="8.865121518264054"><ele>353.6</ele><time>2026-04-25T09:46:50Z</time></trkpt><trkpt lat="39.67797922737263" lon="8.865163481450109"><ele>354.40000000000003</ele><time>2026-04-25T09:46:51Z</time></trkpt><trkpt lat="39.677884706147736" lon="8.865198846328246"><ele>355.20000000000005</ele><time>2026-04-25T09:46:52Z</time></trkpt><trkpt lat="39.67779059186707" lon="8.865233424434072"><ele>356.0</ele><time>2026-04-25T09:46:53Z</time></trkpt><trkpt lat="39.67769879386649" lon="8.865268865503133"><ele>356.0</ele><time>2026-04-25T09:46:54Z</time></trkpt><trkpt lat="39.67760937388076" lon="8.865307485035189"><ele>356.0</ele><time>2026-04-25T09:46:55Z</time></trkpt><trkpt lat="39.67752150470837" lon="8.865341395241721"><ele>356.0</ele><time>2026-04-25T09:46:56Z</time></trkpt><trkpt lat="39.67743060721201" lon="8.865371433004952"><ele>356.0</ele><time>2026-04-25T09:46:57Z</time></trkpt><trkpt lat="39.67733822058802" lon="8.865403576075398"><ele>356.0</ele><time>2026-04-25T09:46:58Z</time></trkpt><trkpt lat="39.67724408371898" lon="8.8654324748391"><ele>356.0</ele><time>2026-04-25T09:46:59Z</time></trkpt><trkpt lat="39.677151758905566" lon="8.865464707665549"><ele>356.0</ele><time>2026-04-25T09:47:00Z</time></trkpt><trkpt lat="39.67706263302143" lon="8.865509019995985"><ele>356.0</ele><time>2026-04-25T09:47:01Z</time></trkpt><trkpt lat="39.67698430277923" lon="8.865567257134105"><ele>356.0</ele><time>2026-04-25T09:47:02Z</time></trkpt><trkpt lat="39.676923060524295" lon="8.86563152162314"><ele>356.0</ele><time>2026-04-25T09:47:03Z</time></trkpt><trkpt lat="39.676872384155544" lon="8.865684786543238"><ele>356.0</ele><time>2026-04-25T09:47:04Z</time></trkpt><trkpt lat="39.67675426270222" lon="8.86571739977001"><ele>355.20000000000005</ele><time>2026-04-25T09:47:06Z</time></trkpt><trkpt lat="39.67668559492001" lon="8.865690370556864"><ele>354.40000000000003</ele><time>2026-04-25T09:47:07Z</time></trkpt><trkpt lat="39.676604709995004" lon="8.865654726430508"><ele>353.6</ele><time>2026-04-25T09:47:08Z</time></trkpt><trkpt lat="39.676511603434996" lon="8.865627355384177"><ele>352.8</ele><time>2026-04-25T09:47:09Z</time></trkpt><trkpt lat="39.6764137802349" lon="8.865606793766363"><ele>352.0</ele><time>2026-04-25T09:47:10Z</time></trkpt><trkpt lat="39.67631465443595" lon="8.865585929275015"><ele>352.0</ele><time>2026-04-25T09:47:11Z</time></trkpt><trkpt lat="39.67621346112597" lon="8.865579986143313"><ele>352.0</ele><time>2026-04-25T09:47:12Z</time></trkpt><trkpt lat="39.676111379573854" lon="8.86557427892698"><ele>352.0</ele><time>2026-04-25T09:47:13Z</time></trkpt><trkpt lat="39.67601029982288" lon="8.86557561025583"><ele>352.0</ele><time>2026-04-25T09:47:14Z</time></trkpt><trkpt lat="39.67591446482357" lon="8.865569561205376"><ele>352.0</ele><time>2026-04-25T09:47:15Z</time></trkpt><trkpt lat="39.67582914735887" lon="8.865522094591332"><ele>351.6</ele><time>2026-04-25T09:47:16Z</time></trkpt><trkpt lat="39.675745278067126" lon="8.865496192611975"><ele>351.20000000000005</ele><time>2026-04-25T09:47:17Z</time></trkpt><trkpt lat="39.6756605037275" lon="8.865433663241058"><ele>350.8</ele><time>2026-04-25T09:47:18Z</time></trkpt><trkpt lat="39.675577686947804" lon="8.865366802966944"><ele>350.4</ele><time>2026-04-25T09:47:19Z</time></trkpt><trkpt lat="39.675492129862995" lon="8.865304187637996"><ele>350.0</ele><time>2026-04-25T09:47:20Z</time></trkpt><trkpt lat="39.67540494166147" lon="8.86524093038933"><ele>350.0</ele><time>2026-04-25T09:47:21Z</time></trkpt><trkpt lat="39.67532301239282" lon="8.865176945170399"><ele>350.0</ele><time>2026-04-25T09:47:22Z</time></trkpt><trkpt lat="39.67524630112957" lon="8.86510384315128"><ele>350.0</ele><time>2026-04-25T09:47:23Z</time></trkpt><trkpt lat="39.67516792065491" lon="8.865052096607391"><ele>350.0</ele><time>2026-04-25T09:47:24Z</time></trkpt><trkpt lat="39.675093119843446" lon="8.865002857005852"><ele>350.0</ele><time>2026-04-25T09:47:25Z</time></trkpt><trkpt lat="39.675020658811405" lon="8.864964307082484"><ele>350.0</ele><time>2026-04-25T09:47:26Z</time></trkpt><trkpt lat="39.67494111287508" lon="8.864947340987591"><ele>350.5</ele><time>2026-04-25T09:47:27Z</time></trkpt><trkpt lat="39.6748575977865" lon="8.864950596974689"><ele>351.0</ele><time>2026-04-25T09:47:28Z</time></trkpt><trkpt lat="39.67477250310143" lon="8.864966149884262"><ele>351.5</ele><time>2026-04-25T09:47:29Z</time></trkpt><trkpt lat="39.67468814629422" lon="8.86499031934602"><ele>352.0</ele><time>2026-04-25T09:47:30Z</time></trkpt><trkpt lat="39.67460576996347" lon="8.865015949880663"><ele>352.5</ele><time>2026-04-25T09:47:31Z</time></trkpt><trkpt lat="39.674515723214675" lon="8.865013259564805"><ele>353.0</ele><time>2026-04-25T09:47:32Z</time></trkpt><trkpt lat="39.67443122699818" lon="8.865023908992718"><ele>353.0</ele><time>2026-04-25T09:47:33Z</time></trkpt><trkpt lat="39.67434776590242" lon="8.865026438377608"><ele>353.0</ele><time>2026-04-25T09:47:34Z</time></trkpt><trkpt lat="39.674260510999794" lon="8.865023165378473"><ele>353.0</ele><time>2026-04-25T09:47:35Z</time></trkpt><trkpt lat="39.674170812345025" lon="8.865014438409421"><ele>353.0</ele><time>2026-04-25T09:47:36Z</time></trkpt><trkpt lat="39.674079904440404" lon="8.865004152431563"><ele>353.0</ele><time>2026-04-25T09:47:37Z</time></trkpt><trkpt lat="39.67399448852012" lon="8.865006276898715"><ele>353.0</ele><time>2026-04-25T09:47:38Z</time></trkpt><trkpt lat="39.67391159882096" lon="8.865005354596535"><ele>353.0</ele><time>2026-04-25T09:47:39Z</time></trkpt><trkpt lat="39.67383035960604" lon="8.864971914008489"><ele>353.0</ele><time>2026-04-25T09:47:40Z</time></trkpt><trkpt lat="39.67374933884888" lon="8.864951227741264"><ele>353.0</ele><time>2026-04-25T09:47:41Z</time></trkpt><trkpt lat="39.673672480598505" lon="8.864920748837553"><ele>353.0</ele><time>2026-04-25T09:47:42Z</time></trkpt><trkpt lat="39.67359203506951" lon="8.864882604799531"><ele>353.0</ele><time>2026-04-25T09:47:43Z</time></trkpt><trkpt lat="39.6735173606024" lon="8.864835960119516"><ele>353.0</ele><time>2026-04-25T09:47:44Z</time></trkpt><trkpt lat="39.673432658596326" lon="8.864798176119198"><ele>352.5</ele><time>2026-04-25T09:47:45Z</time></trkpt><trkpt lat="39.67337059520252" lon="8.86471876173129"><ele>352.0</ele><time>2026-04-25T09:47:46Z</time></trkpt><trkpt lat="39.67330653532287" lon="8.864649365556943"><ele>351.5</ele><time>2026-04-25T09:47:47Z</time></trkpt><trkpt lat="39.67324428408053" lon="8.864578005676188"><ele>351.0</ele><time>2026-04-25T09:47:48Z</time></trkpt><trkpt lat="39.673181445613324" lon="8.864505805847251"><ele>350.5</ele><time>2026-04-25T09:47:49Z</time></trkpt><trkpt lat="39.67311604151258" lon="8.864433728163755"><ele>350.0</ele><time>2026-04-25T09:47:50Z</time></trkpt><trkpt lat="39.67304661945132" lon="8.864365587845136"><ele>350.0</ele><time>2026-04-25T09:47:51Z</time></trkpt><trkpt lat="39.672970946231416" lon="8.864322564806994"><ele>350.0</ele><time>2026-04-25T09:47:52Z</time></trkpt><trkpt lat="39.67290646669808" lon="8.864256591597604"><ele>350.0</ele><time>2026-04-25T09:47:53Z</time></trkpt><trkpt lat="39.67283472582523" lon="8.864199062722392"><ele>350.0</ele><time>2026-04-25T09:47:54Z</time></trkpt><trkpt lat="39.67275935215819" lon="8.86415727516754"><ele>350.0</ele><time>2026-04-25T09:47:55Z</time></trkpt><trkpt lat="39.67267697906411" lon="8.864120119626584"><ele>350.0</ele><time>2026-04-25T09:47:56Z</time></trkpt><trkpt lat="39.672595312237696" lon="8.864061076830009"><ele>350.0</ele><time>2026-04-25T09:47:57Z</time></trkpt><trkpt lat="39.6725027132563" lon="8.864038610935255"><ele>350.0</ele><time>2026-04-25T09:47:58Z</time></trkpt><trkpt lat="39.67241570762362" lon="8.863991481838678"><ele>350.0</ele><time>2026-04-25T09:47:59Z</time></trkpt><trkpt lat="39.67233441131165" lon="8.863949998705102"><ele>350.0</ele><time>2026-04-25T09:48:00Z</time></trkpt><trkpt lat="39.67225553890168" lon="8.863889618385619"><ele>350.0</ele><time>2026-04-25T09:48:01Z</time></trkpt><trkpt lat="39.672167524093304" lon="8.863843264371237"><ele>350.0</ele><time>2026-04-25T09:48:02Z</time></trkpt><trkpt lat="39.67207579012755" lon="8.863794951601255"><ele>350.0</ele><time>2026-04-25T09:48:03Z</time></trkpt><trkpt lat="39.671983078878306" lon="8.863746124163962"><ele>350.0</ele><time>2026-04-25T09:48:04Z</time></trkpt><trkpt lat="39.67188697394136" lon="8.863711393349067"><ele>350.0</ele><time>2026-04-25T09:48:05Z</time></trkpt><trkpt lat="39.67178998207937" lon="8.863660359007833"><ele>350.0</ele><time>2026-04-25T09:48:06Z</time></trkpt><trkpt lat="39.671692189387485" lon="8.863609594407762"><ele>349.8</ele><time>2026-04-25T09:48:07Z</time></trkpt><trkpt lat="39.67159144396482" lon="8.863562373101576"><ele>349.6</ele><time>2026-04-25T09:48:08Z</time></trkpt><trkpt lat="39.67149536085215" lon="8.86351156114277"><ele>349.4</ele><time>2026-04-25T09:48:09Z</time></trkpt><trkpt lat="39.67140930338148" lon="8.863443689156263"><ele>349.2</ele><time>2026-04-25T09:48:10Z</time></trkpt><trkpt lat="39.67131325814005" lon="8.863415119733112"><ele>349.0</ele><time>2026-04-25T09:48:11Z</time></trkpt><trkpt lat="39.67122712212421" lon="8.86336527209044"><ele>348.6</ele><time>2026-04-25T09:48:12Z</time></trkpt><trkpt lat="39.671139693671606" lon="8.863317074417186"><ele>348.2</ele><time>2026-04-25T09:48:13Z</time></trkpt><trkpt lat="39.67104905304804" lon="8.863273144390286"><ele>347.8</ele><time>2026-04-25T09:48:14Z</time></trkpt><trkpt lat="39.67096000636237" lon="8.863230530533688"><ele>347.40000000000003</ele><time>2026-04-25T09:48:15Z</time></trkpt><trkpt lat="39.67086881476043" lon="8.86318110941953"><ele>347.0</ele><time>2026-04-25T09:48:16Z</time></trkpt><trkpt lat="39.67077635578749" lon="8.863137121239243"><ele>347.0</ele><time>2026-04-25T09:48:17Z</time></trkpt><trkpt lat="39.67068989006946" lon="8.863086882696745"><ele>347.0</ele><time>2026-04-25T09:48:18Z</time></trkpt><trkpt lat="39.670615901461204" lon="8.863017017614451"><ele>347.0</ele><time>2026-04-25T09:48:19Z</time></trkpt><trkpt lat="39.67054236007" lon="8.862963225692564"><ele>347.0</ele><time>2026-04-25T09:48:20Z</time></trkpt><trkpt lat="39.67047355862208" lon="8.862907625108443"><ele>347.0</ele><time>2026-04-25T09:48:21Z</time></trkpt><trkpt lat="39.67040668140929" lon="8.862846633824978"><ele>347.0</ele><time>2026-04-25T09:48:22Z</time></trkpt><trkpt lat="39.670326509352634" lon="8.86279024528511"><ele>347.20000000000005</ele><time>2026-04-25T09:48:23Z</time></trkpt><trkpt lat="39.67025368279896" lon="8.86270120974637"><ele>347.4</ele><time>2026-04-25T09:48:24Z</time></trkpt><trkpt lat="39.670180519651616" lon="8.862605361994037"><ele>347.6</ele><time>2026-04-25T09:48:25Z</time></trkpt><trkpt lat="39.6701058428825" lon="8.862504499810038"><ele>347.79999999999995</ele><time>2026-04-25T09:48:26Z</time></trkpt><trkpt lat="39.670035222296285" lon="8.862404084420142"><ele>348.0</ele><time>2026-04-25T09:48:27Z</time></trkpt><trkpt lat="39.669964029021784" lon="8.862314774972441"><ele>348.0</ele><time>2026-04-25T09:48:28Z</time></trkpt><trkpt lat="39.66989891556993" lon="8.862225076897573"><ele>348.0</ele><time>2026-04-25T09:48:29Z</time></trkpt><trkpt lat="39.66983279316919" lon="8.86214067553877"><ele>348.0</ele><time>2026-04-25T09:48:30Z</time></trkpt><trkpt lat="39.66976614191372" lon="8.86206561029057"><ele>348.0</ele><time>2026-04-25T09:48:31Z</time></trkpt><trkpt lat="39.669701381219916" lon="8.861989401884538"><ele>348.0</ele><time>2026-04-25T09:48:32Z</time></trkpt><trkpt lat="39.66961358990871" lon="8.861954370680138"><ele>348.0</ele><time>2026-04-25T09:48:33Z</time></trkpt><trkpt lat="39.669540344487686" lon="8.861910897091958"><ele>348.0</ele><time>2026-04-25T09:48:34Z</time></trkpt><trkpt lat="39.66946191712824" lon="8.861886038603272"><ele>348.0</ele><time>2026-04-25T09:48:35Z</time></trkpt><trkpt lat="39.66937919126211" lon="8.86187527149347"><ele>348.0</ele><time>2026-04-25T09:48:36Z</time></trkpt><trkpt lat="39.6692936773358" lon="8.86187693378563"><ele>348.0</ele><time>2026-04-25T09:48:37Z</time></trkpt><trkpt lat="39.66920762015836" lon="8.861893642995566"><ele>348.0</ele><time>2026-04-25T09:48:38Z</time></trkpt><trkpt lat="39.66912088167644" lon="8.861922162350881"><ele>347.8333333333333</ele><time>2026-04-25T09:48:39Z</time></trkpt><trkpt lat="39.66903492502711" lon="8.86195831927385"><ele>347.6666666666667</ele><time>2026-04-25T09:48:40Z</time></trkpt><trkpt lat="39.668955930630254" lon="8.862007669214112"><ele>347.5</ele><time>2026-04-25T09:48:41Z</time></trkpt><trkpt lat="39.66887249328965" lon="8.862047126683326"><ele>347.33333333333337</ele><time>2026-04-25T09:48:42Z</time></trkpt><trkpt lat="39.66881308415614" lon="8.862132127367099"><ele>347.1666666666667</ele><time>2026-04-25T09:48:43Z</time></trkpt><trkpt lat="39.6687512317998" lon="8.862205387553532"><ele>347.0</ele><time>2026-04-25T09:48:44Z</time></trkpt><trkpt lat="39.66870272771305" lon="8.862285745178527"><ele>347.0</ele><time>2026-04-25T09:48:45Z</time></trkpt><trkpt lat="39.66866187928566" lon="8.862378546506088"><ele>347.0</ele><time>2026-04-25T09:48:46Z</time></trkpt><trkpt lat="39.66862864472974" lon="8.86246744558824"><ele>347.0</ele><time>2026-04-25T09:48:47Z</time></trkpt><trkpt lat="39.66859382095097" lon="8.862551765234999"><ele>347.0</ele><time>2026-04-25T09:48:48Z</time></trkpt><trkpt lat="39.66855997535995" lon="8.862632310553044"><ele>347.0</ele><time>2026-04-25T09:48:49Z</time></trkpt><trkpt lat="39.6685292494783" lon="8.862718859198154"><ele>347.0</ele><time>2026-04-25T09:48:50Z</time></trkpt><trkpt lat="39.66850178187611" lon="8.862810154653687"><ele>346.6666666666667</ele><time>2026-04-25T09:48:51Z</time></trkpt><trkpt lat="39.6684792528088" lon="8.862903424497224"><ele>346.33333333333337</ele><time>2026-04-25T09:48:52Z</time></trkpt><trkpt lat="39.66846139152163" lon="8.862996338571431"><ele>346.0</ele><time>2026-04-25T09:48:53Z</time></trkpt><trkpt lat="39.668446702576325" lon="8.863087733386376"><ele>345.6666666666667</ele><time>2026-04-25T09:48:54Z</time></trkpt><trkpt lat="39.66843896901816" lon="8.863175848386062"><ele>345.3333333333333</ele><time>2026-04-25T09:48:55Z</time></trkpt><trkpt lat="39.6684381454716" lon="8.863327793599437"><ele>345.0</ele><time>2026-04-25T09:48:57Z</time></trkpt><trkpt lat="39.66842787125862" lon="8.863479928793463"><ele>344.8</ele><time>2026-04-25T09:48:59Z</time></trkpt><trkpt lat="39.66842285869721" lon="8.863649259058063"><ele>344.6</ele><time>2026-04-25T09:49:01Z</time></trkpt><trkpt lat="39.66843155378596" lon="8.863758715354711"><ele>344.4</ele><time>2026-04-25T09:49:02Z</time></trkpt><trkpt lat="39.668443154721295" lon="8.863879514212151"><ele>344.2</ele><time>2026-04-25T09:49:03Z</time></trkpt><trkpt lat="39.66845720396645" lon="8.863998745433594"><ele>344.0</ele><time>2026-04-25T09:49:04Z</time></trkpt><trkpt lat="39.668466769703834" lon="8.864123764760105"><ele>344.0</ele><time>2026-04-25T09:49:05Z</time></trkpt><trkpt lat="39.668475827547134" lon="8.864244010830982"><ele>344.0</ele><time>2026-04-25T09:49:06Z</time></trkpt><trkpt lat="39.668489177886066" lon="8.864355804424976"><ele>344.0</ele><time>2026-04-25T09:49:07Z</time></trkpt><trkpt lat="39.66850464174954" lon="8.864459826854086"><ele>344.0</ele><time>2026-04-25T09:49:08Z</time></trkpt><trkpt lat="39.668514605647296" lon="8.864557986535239"><ele>344.0</ele><time>2026-04-25T09:49:09Z</time></trkpt><trkpt lat="39.66849449850334" lon="8.864639460255102"><ele>344.0</ele><time>2026-04-25T09:49:10Z</time></trkpt><trkpt lat="39.668432092008345" lon="8.864730750034813"><ele>343.33333333333337</ele><time>2026-04-25T09:49:12Z</time></trkpt><trkpt lat="39.66836419391282" lon="8.864731493750192"><ele>342.6666666666667</ele><time>2026-04-25T09:49:14Z</time></trkpt><trkpt lat="39.668280556912556" lon="8.864784762194581"><ele>342.0</ele><time>2026-04-25T09:49:23Z</time></trkpt><trkpt lat="39.668233871020405" lon="8.86484419711552"><ele>341.3333333333333</ele><time>2026-04-25T09:49:24Z</time></trkpt><trkpt lat="39.66817701137036" lon="8.864905420477289"><ele>340.66666666666663</ele><time>2026-04-25T09:49:25Z</time></trkpt><trkpt lat="39.66810668185912" lon="8.864969855951786"><ele>340.0</ele><time>2026-04-25T09:49:26Z</time></trkpt><trkpt lat="39.668020220504744" lon="8.865015144547876"><ele>340.0</ele><time>2026-04-25T09:49:27Z</time></trkpt><trkpt lat="39.66794604341199" lon="8.865100530259184"><ele>340.0</ele><time>2026-04-25T09:49:28Z</time></trkpt><trkpt lat="39.667859077463" lon="8.86517375686724"><ele>340.0</ele><time>2026-04-25T09:49:29Z</time></trkpt><trkpt lat="39.66776612924898" lon="8.865253099602167"><ele>340.0</ele><time>2026-04-25T09:49:30Z</time></trkpt><trkpt lat="39.66767429439837" lon="8.865331190909686"><ele>340.0</ele><time>2026-04-25T09:49:31Z</time></trkpt><trkpt lat="39.66758137719707" lon="8.865401267162577"><ele>339.25</ele><time>2026-04-25T09:49:32Z</time></trkpt><trkpt lat="39.66749203525184" lon="8.865478165609195"><ele>338.5</ele><time>2026-04-25T09:49:33Z</time></trkpt><trkpt lat="39.66739330830368" lon="8.865546624382306"><ele>337.75</ele><time>2026-04-25T09:49:34Z</time></trkpt><trkpt lat="39.66730330323038" lon="8.865641040520416"><ele>337.0</ele><time>2026-04-25T09:49:35Z</time></trkpt><trkpt lat="39.66719774002422" lon="8.865720588505624"><ele>337.0</ele><time>2026-04-25T09:49:36Z</time></trkpt><trkpt lat="39.667088677141464" lon="8.865799032786443"><ele>337.0</ele><time>2026-04-25T09:49:37Z</time></trkpt><trkpt lat="39.66697861315689" lon="8.865874493251994"><ele>337.0</ele><time>2026-04-25T09:49:38Z</time></trkpt><trkpt lat="39.666868889944084" lon="8.865949025955667"><ele>337.0</ele><time>2026-04-25T09:49:39Z</time></trkpt><trkpt lat="39.66676465597047" lon="8.86602244611312"><ele>335.6</ele><time>2026-04-25T09:49:40Z</time></trkpt><trkpt lat="39.66666580915938" lon="8.86609497131039"><ele>334.20000000000005</ele><time>2026-04-25T09:49:41Z</time></trkpt><trkpt lat="39.66656893986398" lon="8.86615993189675"><ele>332.8</ele><time>2026-04-25T09:49:42Z</time></trkpt><trkpt lat="39.66647796550385" lon="8.866223842485212"><ele>331.4</ele><time>2026-04-25T09:49:43Z</time></trkpt><trkpt lat="39.66639543491839" lon="8.866289025034495"><ele>330.0</ele><time>2026-04-25T09:49:44Z</time></trkpt><trkpt lat="39.6663081487507" lon="8.866326612519671"><ele>330.0</ele><time>2026-04-25T09:49:45Z</time></trkpt><trkpt lat="39.66622805031622" lon="8.866377852098525"><ele>330.0</ele><time>2026-04-25T09:49:46Z</time></trkpt><trkpt lat="39.6661417451978" lon="8.866428060436938"><ele>330.0</ele><time>2026-04-25T09:49:47Z</time></trkpt><trkpt lat="39.66604941956529" lon="8.866475530803546"><ele>330.0</ele><time>2026-04-25T09:49:48Z</time></trkpt><trkpt lat="39.66595189675011" lon="8.866523102556961"><ele>330.0</ele><time>2026-04-25T09:49:49Z</time></trkpt><trkpt lat="39.665852718956096" lon="8.866559099873513"><ele>330.2</ele><time>2026-04-25T09:49:50Z</time></trkpt><trkpt lat="39.6657503558668" lon="8.86659313718208"><ele>330.4</ele><time>2026-04-25T09:49:51Z</time></trkpt><trkpt lat="39.66564118706155" lon="8.86660158706272"><ele>330.6</ele><time>2026-04-25T09:49:52Z</time></trkpt><trkpt lat="39.66553367021816" lon="8.866587042834208"><ele>330.8</ele><time>2026-04-25T09:49:53Z</time></trkpt><trkpt lat="39.66542811806935" lon="8.86656828064844"><ele>331.0</ele><time>2026-04-25T09:49:54Z</time></trkpt><trkpt lat="39.665328454540145" lon="8.866552059784595"><ele>331.16666666666663</ele><time>2026-04-25T09:49:55Z</time></trkpt><trkpt lat="39.66524089561948" lon="8.866552342971149"><ele>331.3333333333333</ele><time>2026-04-25T09:49:56Z</time></trkpt><trkpt lat="39.6651586563988" lon="8.866532498365043"><ele>331.5</ele><time>2026-04-25T09:49:57Z</time></trkpt><trkpt lat="39.665084247129" lon="8.866554239121196"><ele>331.6666666666667</ele><time>2026-04-25T09:49:58Z</time></trkpt><trkpt lat="39.66502313413601" lon="8.86661004200187"><ele>331.83333333333337</ele><time>2026-04-25T09:49:59Z</time></trkpt><trkpt lat="39.66495568620164" lon="8.866650027031579"><ele>332.0</ele><time>2026-04-25T09:50:00Z</time></trkpt><trkpt lat="39.66488953830774" lon="8.866702342373053"><ele>332.0</ele><time>2026-04-25T09:50:01Z</time></trkpt><trkpt lat="39.66482464027093" lon="8.866770202485709"><ele>332.0</ele><time>2026-04-25T09:50:02Z</time></trkpt><trkpt lat="39.664763765829576" lon="8.866835834748155"><ele>332.0</ele><time>2026-04-25T09:50:03Z</time></trkpt><trkpt lat="39.66470092906941" lon="8.86690561533224"><ele>332.0</ele><time>2026-04-25T09:50:04Z</time></trkpt><trkpt lat="39.66464702434197" lon="8.867000118793358"><ele>332.0</ele><time>2026-04-25T09:50:05Z</time></trkpt><trkpt lat="39.6646150806281" lon="8.867107928578564"><ele>332.0</ele><time>2026-04-25T09:50:06Z</time></trkpt><trkpt lat="39.66459148692005" lon="8.86720608513277"><ele>331.1428571428571</ele><time>2026-04-25T09:50:07Z</time></trkpt><trkpt lat="39.664567493942094" lon="8.867294168917693"><ele>330.28571428571433</ele><time>2026-04-25T09:50:08Z</time></trkpt><trkpt lat="39.66456059349649" lon="8.867382363884486"><ele>329.42857142857144</ele><time>2026-04-25T09:50:09Z</time></trkpt><trkpt lat="39.66455943843743" lon="8.867477124298155"><ele>328.57142857142856</ele><time>2026-04-25T09:50:10Z</time></trkpt><trkpt lat="39.66455943843742" lon="8.867559084940085"><ele>327.71428571428567</ele><time>2026-04-25T09:50:11Z</time></trkpt><trkpt lat="39.66455903984462" lon="8.867678069215117"><ele>326.8571428571429</ele><time>2026-04-25T09:51:04Z</time></trkpt><trkpt lat="39.66457246641554" lon="8.867768947297614"><ele>326.0</ele><time>2026-04-25T09:51:05Z</time></trkpt><trkpt lat="39.66456998504669" lon="8.867868772137427"><ele>325.6</ele><time>2026-04-25T09:51:06Z</time></trkpt><trkpt lat="39.66457081147676" lon="8.867975484194012"><ele>325.20000000000005</ele><time>2026-04-25T09:51:07Z</time></trkpt><trkpt lat="39.66457138798641" lon="8.868096292855645"><ele>324.79999999999995</ele><time>2026-04-25T09:51:08Z</time></trkpt><trkpt lat="39.66455272664178" lon="8.86822431177251"><ele>324.4</ele><time>2026-04-25T09:51:09Z</time></trkpt><trkpt lat="39.66455025937101" lon="8.868362001578985"><ele>324.0</ele><time>2026-04-25T09:51:10Z</time></trkpt><trkpt lat="39.664545822571846" lon="8.868503040709637"><ele>323.0</ele><time>2026-04-25T09:51:11Z</time></trkpt><trkpt lat="39.66455688638316" lon="8.868649442908492"><ele>322.0</ele><time>2026-04-25T09:51:12Z</time></trkpt><trkpt lat="39.664549552632494" lon="8.868803988298056"><ele>321.0</ele><time>2026-04-25T09:51:13Z</time></trkpt><trkpt lat="39.664524455542285" lon="8.868964590904948"><ele>320.0</ele><time>2026-04-25T09:51:14Z</time></trkpt><trkpt lat="39.664513221483446" lon="8.86912254857138"><ele>320.0</ele><time>2026-04-25T09:51:15Z</time></trkpt><trkpt lat="39.664500317745684" lon="8.86926662433982"><ele>320.0</ele><time>2026-04-25T09:51:16Z</time></trkpt><trkpt lat="39.66448628761545" lon="8.869400168917858"><ele>320.0</ele><time>2026-04-25T09:51:17Z</time></trkpt><trkpt lat="39.6644715285397" lon="8.869527675923601"><ele>320.0</ele><time>2026-04-25T09:51:18Z</time></trkpt><trkpt lat="39.66445699555342" lon="8.869653229689717"><ele>320.0</ele><time>2026-04-25T09:51:19Z</time></trkpt><trkpt lat="39.66444200479622" lon="8.869777692147071"><ele>322.4</ele><time>2026-04-25T09:51:20Z</time></trkpt><trkpt lat="39.66442740179756" lon="8.869895867371744"><ele>324.8</ele><time>2026-04-25T09:51:21Z</time></trkpt><trkpt lat="39.6644088054436" lon="8.87000840400898"><ele>327.20000000000005</ele><time>2026-04-25T09:51:22Z</time></trkpt><trkpt lat="39.6643882920177" lon="8.870124413111341"><ele>329.6</ele><time>2026-04-25T09:51:23Z</time></trkpt><trkpt lat="39.66436927588124" lon="8.870246075377684"><ele>332.0</ele><time>2026-04-25T09:51:24Z</time></trkpt><trkpt lat="39.66435114746831" lon="8.870370086831192"><ele>332.0</ele><time>2026-04-25T09:51:25Z</time></trkpt><trkpt lat="39.66433327809017" lon="8.870492326280658"><ele>332.0</ele><time>2026-04-25T09:51:26Z</time></trkpt><trkpt lat="39.66431480808674" lon="8.870608702830223"><ele>332.0</ele><time>2026-04-25T09:51:27Z</time></trkpt><trkpt lat="39.66429663696366" lon="8.870722187301265"><ele>332.0</ele><time>2026-04-25T09:51:28Z</time></trkpt><trkpt lat="39.66427896050757" lon="8.870832582289527"><ele>332.0</ele><time>2026-04-25T09:51:29Z</time></trkpt><trkpt lat="39.66426087965957" lon="8.870941941945729"><ele>332.0</ele><time>2026-04-25T09:51:30Z</time></trkpt><trkpt lat="39.66424164004382" lon="8.871051929258453"><ele>331.20000000000005</ele><time>2026-04-25T09:51:31Z</time></trkpt><trkpt lat="39.664229341280056" lon="8.871168745870415"><ele>330.4</ele><time>2026-04-25T09:51:32Z</time></trkpt><trkpt lat="39.6642095171618" lon="8.871288141248442"><ele>329.6</ele><time>2026-04-25T09:51:33Z</time></trkpt><trkpt lat="39.664162782821904" lon="8.871400162565076"><ele>328.79999999999995</ele><time>2026-04-25T09:51:34Z</time></trkpt><trkpt lat="39.664124514206534" lon="8.87151982294442"><ele>328.0</ele><time>2026-04-25T09:51:35Z</time></trkpt><trkpt lat="39.66408186183562" lon="8.87163995425317"><ele>328.0</ele><time>2026-04-25T09:51:36Z</time></trkpt><trkpt lat="39.66403686576297" lon="8.87175908944071"><ele>328.0</ele><time>2026-04-25T09:51:37Z</time></trkpt><trkpt lat="39.663992010163774" lon="8.871875621988508"><ele>328.0</ele><time>2026-04-25T09:51:38Z</time></trkpt><trkpt lat="39.663948229894636" lon="8.871989360694604"><ele>328.0</ele><time>2026-04-25T09:51:39Z</time></trkpt><trkpt lat="39.6639208029346" lon="8.872108391922177"><ele>328.0</ele><time>2026-04-25T09:51:40Z</time></trkpt><trkpt lat="39.66386683509195" lon="8.872211596787103"><ele>327.0</ele><time>2026-04-25T09:51:41Z</time></trkpt><trkpt lat="39.663828045763715" lon="8.87232494244388"><ele>326.0</ele><time>2026-04-25T09:51:42Z</time></trkpt><trkpt lat="39.66380693755445" lon="8.872445341966127"><ele>325.0</ele><time>2026-04-25T09:51:43Z</time></trkpt><trkpt lat="39.66377974016322" lon="8.872558727065599"><ele>324.0</ele><time>2026-04-25T09:51:44Z</time></trkpt><trkpt lat="39.66377120799168" lon="8.872669668100672"><ele>323.0</ele><time>2026-04-25T09:51:45Z</time></trkpt><trkpt lat="39.663778188640634" lon="8.872772173576797"><ele>322.0</ele><time>2026-04-25T09:51:46Z</time></trkpt><trkpt lat="39.66379629040493" lon="8.872877658590728"><ele>321.66666666666663</ele><time>2026-04-25T09:51:47Z</time></trkpt><trkpt lat="39.66382206985889" lon="8.872989486970528"><ele>321.3333333333333</ele><time>2026-04-25T09:51:48Z</time></trkpt><trkpt lat="39.66384360960613" lon="8.873100421317133"><ele>321.0</ele><time>2026-04-25T09:51:49Z</time></trkpt><trkpt lat="39.66385441252964" lon="8.873215885302283"><ele>320.6666666666667</ele><time>2026-04-25T09:51:50Z</time></trkpt><trkpt lat="39.66386788439199" lon="8.873327395507806"><ele>320.33333333333337</ele><time>2026-04-25T09:51:51Z</time></trkpt><trkpt lat="39.66387365822885" lon="8.873440207626196"><ele>320.0</ele><time>2026-04-25T09:51:52Z</time></trkpt><trkpt lat="39.66388132171856" lon="8.873564400349858"><ele>319.5</ele><time>2026-04-25T09:51:53Z</time></trkpt><trkpt lat="39.66384789795681" lon="8.873697681852901"><ele>319.0</ele><time>2026-04-25T09:51:54Z</time></trkpt><trkpt lat="39.66382647929912" lon="8.873844295870494"><ele>318.5</ele><time>2026-04-25T09:51:55Z</time></trkpt><trkpt lat="39.66380476373817" lon="8.873992942213492"><ele>318.0</ele><time>2026-04-25T09:51:56Z</time></trkpt><trkpt lat="39.66379908616846" lon="8.874136151634243"><ele>318.0</ele><time>2026-04-25T09:51:57Z</time></trkpt><trkpt lat="39.66376459208336" lon="8.874267923549095"><ele>318.0</ele><time>2026-04-25T09:51:58Z</time></trkpt><trkpt lat="39.663745711720104" lon="8.87439716257196"><ele>318.0</ele><time>2026-04-25T09:51:59Z</time></trkpt><trkpt lat="39.6637277979386" lon="8.87452331976573"><ele>318.0</ele><time>2026-04-25T09:52:00Z</time></trkpt><trkpt lat="39.663726800218" lon="8.874649456181748"><ele>318.0</ele><time>2026-04-25T09:52:01Z</time></trkpt><trkpt lat="39.66369353477141" lon="8.874768749649908"><ele>318.0</ele><time>2026-04-25T09:52:02Z</time></trkpt><trkpt lat="39.66368997011642" lon="8.874890619087054"><ele>318.0</ele><time>2026-04-25T09:52:03Z</time></trkpt><trkpt lat="39.66367336221597" lon="8.875010088763014"><ele>318.0</ele><time>2026-04-25T09:52:04Z</time></trkpt><trkpt lat="39.663650200331915" lon="8.87512721420414"><ele>318.0</ele><time>2026-04-25T09:52:05Z</time></trkpt><trkpt lat="39.663629794845015" lon="8.87524362872024"><ele>318.0</ele><time>2026-04-25T09:52:06Z</time></trkpt><trkpt lat="39.6636140833695" lon="8.87535077844985"><ele>319.0</ele><time>2026-04-25T09:52:07Z</time></trkpt><trkpt lat="39.663598729503086" lon="8.875449208035606"><ele>320.0</ele><time>2026-04-25T09:52:08Z</time></trkpt><trkpt lat="39.663577549847176" lon="8.87553086778335"><ele>321.0</ele><time>2026-04-25T09:52:09Z</time></trkpt><trkpt lat="39.66353795322686" lon="8.875670202390227"><ele>322.0</ele><time>2026-04-25T09:52:11Z</time></trkpt><trkpt lat="39.663448250272026" lon="8.87575692352154"><ele>323.0</ele><time>2026-04-25T09:52:13Z</time></trkpt><trkpt lat="39.66334700119955" lon="8.875774801759912"><ele>323.0</ele><time>2026-04-25T09:52:15Z</time></trkpt><trkpt lat="39.66326253551699" lon="8.87581404609008"><ele>323.0</ele><time>2026-04-25T09:52:17Z</time></trkpt><trkpt lat="39.6631708962953" lon="8.875832308353857"><ele>323.0</ele><time>2026-04-25T09:52:31Z</time></trkpt><trkpt lat="39.66304298377592" lon="8.875863394500227"><ele>323.0</ele><time>2026-04-25T09:52:33Z</time></trkpt><trkpt lat="39.662957287970244" lon="8.875891144015794"><ele>323.0</ele><time>2026-04-25T09:52:34Z</time></trkpt><trkpt lat="39.66286161289328" lon="8.875890592927508"><ele>322.59999999999997</ele><time>2026-04-25T09:52:35Z</time></trkpt><trkpt lat="39.662754039996805" lon="8.875896186424981"><ele>322.2</ele><time>2026-04-25T09:52:36Z</time></trkpt><trkpt lat="39.66264939044578" lon="8.875902089989909"><ele>321.8</ele><time>2026-04-25T09:52:37Z</time></trkpt><trkpt lat="39.662535803257136" lon="8.875914480070618"><ele>321.4</ele><time>2026-04-25T09:52:38Z</time></trkpt><trkpt lat="39.66242774523876" lon="8.875934761893781"><ele>321.0</ele><time>2026-04-25T09:52:39Z</time></trkpt><trkpt lat="39.662323025307245" lon="8.87596736542665"><ele>321.3333333333333</ele><time>2026-04-25T09:52:40Z</time></trkpt><trkpt lat="39.662232999826124" lon="8.87601069471129"><ele>321.6666666666667</ele><time>2026-04-25T09:52:41Z</time></trkpt><trkpt lat="39.662167104500035" lon="8.876070201890737"><ele>322.0</ele><time>2026-04-25T09:52:42Z</time></trkpt><trkpt lat="39.66211574126707" lon="8.876129736186407"><ele>322.33333333333337</ele><time>2026-04-25T09:52:43Z</time></trkpt><trkpt lat="39.662049583193166" lon="8.876181869616516"><ele>322.6666666666667</ele><time>2026-04-25T09:52:45Z</time></trkpt><trkpt lat="39.66196857693803" lon="8.876265524313217"><ele>323.0</ele><time>2026-04-25T09:52:52Z</time></trkpt><trkpt lat="39.661915927609876" lon="8.876321631130097"><ele>323.0</ele><time>2026-04-25T09:52:53Z</time></trkpt><trkpt lat="39.6618677740588" lon="8.876392428351759"><ele>323.0</ele><time>2026-04-25T09:52:54Z</time></trkpt><trkpt lat="39.66180983561274" lon="8.8764494873179"><ele>323.0</ele><time>2026-04-25T09:52:55Z</time></trkpt><trkpt lat="39.66171272333138" lon="8.876506381855219"><ele>323.0</ele><time>2026-04-25T09:52:57Z</time></trkpt><trkpt lat="39.66180221963716" lon="8.876449986989941"><ele>323.0</ele><time>2026-04-25T09:53:03Z</time></trkpt><trkpt lat="39.661865880379025" lon="8.876418155920723"><ele>323.0</ele><time>2026-04-25T09:53:04Z</time></trkpt><trkpt lat="39.661936009112566" lon="8.876350430761082"><ele>321.0</ele><time>2026-04-25T09:53:05Z</time></trkpt><trkpt lat="39.66200917229089" lon="8.876240582554852"><ele>319.0</ele><time>2026-04-25T09:53:06Z</time></trkpt><trkpt lat="39.66210211172088" lon="8.87615083240167"><ele>317.0</ele><time>2026-04-25T09:53:07Z</time></trkpt><trkpt lat="39.66220117691789" lon="8.876062878286046"><ele>315.0</ele><time>2026-04-25T09:53:08Z</time></trkpt><trkpt lat="39.662296352154065" lon="8.875994615382112"><ele>315.0</ele><time>2026-04-25T09:53:09Z</time></trkpt><trkpt lat="39.66239990879508" lon="8.875951853498584"><ele>315.0</ele><time>2026-04-25T09:53:10Z</time></trkpt><trkpt lat="39.66251154759396" lon="8.875925258566003"><ele>315.0</ele><time>2026-04-25T09:53:11Z</time></trkpt><trkpt lat="39.66262448195332" lon="8.875938185121104"><ele>315.0</ele><time>2026-04-25T09:53:12Z</time></trkpt><trkpt lat="39.66273215615866" lon="8.875926140701461"><ele>315.0</ele><time>2026-04-25T09:53:13Z</time></trkpt><trkpt lat="39.66283023533185" lon="8.875921938496342"><ele>316.3333333333333</ele><time>2026-04-25T09:53:14Z</time></trkpt><trkpt lat="39.66291919552555" lon="8.875919864303834"><ele>317.6666666666667</ele><time>2026-04-25T09:53:15Z</time></trkpt><trkpt lat="39.66300446496021" lon="8.875912586580691"><ele>319.0</ele><time>2026-04-25T09:53:16Z</time></trkpt><trkpt lat="39.663090386348465" lon="8.875897876933324"><ele>320.33333333333337</ele><time>2026-04-25T09:53:17Z</time></trkpt><trkpt lat="39.66316059023271" lon="8.875879372100417"><ele>321.6666666666667</ele><time>2026-04-25T09:53:18Z</time></trkpt><trkpt lat="39.663247624712305" lon="8.875875054765016"><ele>323.0</ele><time>2026-04-25T09:53:20Z</time></trkpt><trkpt lat="39.66334507820105" lon="8.875849257494874"><ele>321.33333333333337</ele><time>2026-04-25T09:53:22Z</time></trkpt><trkpt lat="39.663510581771135" lon="8.87615317939738"><ele>319.6666666666667</ele><time>2026-04-25T09:53:24Z</time></trkpt><trkpt lat="39.663568661951864" lon="8.876185166243749"><ele>318.0</ele><time>2026-04-25T09:53:25Z</time></trkpt><trkpt lat="39.66369008157295" lon="8.876214035312488"><ele>318.0</ele><time>2026-04-25T09:53:27Z</time></trkpt><trkpt lat="39.66379070039725" lon="8.87624744747236"><ele>318.0</ele><time>2026-04-25T09:53:29Z</time></trkpt><trkpt lat="39.66387733439215" lon="8.876280762967818"><ele>318.0</ele><time>2026-04-25T09:53:31Z</time></trkpt><trkpt lat="39.6639598656582" lon="8.876330483635614"><ele>318.0</ele><time>2026-04-25T09:53:33Z</time></trkpt><trkpt lat="39.6639953450222" lon="8.876418497881499"><ele>318.0</ele><time>2026-04-25T09:53:35Z</time></trkpt><trkpt lat="39.66404483571721" lon="8.876471161711379"><ele>318.0</ele><time>2026-04-25T09:53:38Z</time></trkpt><trkpt lat="39.66398823885033" lon="8.876401382196203"><ele>318.0</ele><time>2026-04-25T10:02:21Z</time></trkpt><trkpt lat="39.6639396421312" lon="8.876297680489673"><ele>318.0</ele><time>2026-04-25T10:02:23Z</time></trkpt><trkpt lat="39.66382773107614" lon="8.876243673408792"><ele>318.0</ele><time>2026-04-25T10:02:25Z</time></trkpt><trkpt lat="39.66376029029385" lon="8.876225471007517"><ele>318.0</ele><time>2026-04-25T10:02:26Z</time></trkpt><trkpt lat="39.663628551281654" lon="8.876184253209006"><ele>318.0</ele><time>2026-04-25T10:02:28Z</time></trkpt><trkpt lat="39.66353996252617" lon="8.876164997935922"><ele>317.3333333333333</ele><time>2026-04-25T10:02:29Z</time></trkpt><trkpt lat="39.66346154760523" lon="8.876116192983988"><ele>316.6666666666667</ele><time>2026-04-25T10:02:30Z</time></trkpt><trkpt lat="39.66339812037305" lon="8.876052332595076"><ele>316.0</ele><time>2026-04-25T10:02:31Z</time></trkpt><trkpt lat="39.66334554689723" lon="8.87599793567931"><ele>315.33333333333337</ele><time>2026-04-25T10:02:32Z</time></trkpt><trkpt lat="39.6632896669491" lon="8.875951837991504"><ele>314.6666666666667</ele><time>2026-04-25T10:02:33Z</time></trkpt><trkpt lat="39.66321004289308" lon="8.875870323510775"><ele>314.0</ele><time>2026-04-25T10:02:35Z</time></trkpt><trkpt lat="39.6631352246021" lon="8.875846882261449"><ele>315.1666666666667</ele><time>2026-04-25T10:02:38Z</time></trkpt><trkpt lat="39.66304421476681" lon="8.87587140906307"><ele>316.33333333333337</ele><time>2026-04-25T10:02:40Z</time></trkpt><trkpt lat="39.662974555005384" lon="8.875888152016154"><ele>317.5</ele><time>2026-04-25T10:02:41Z</time></trkpt><trkpt lat="39.662902068397635" lon="8.875899325642889"><ele>318.6666666666667</ele><time>2026-04-25T10:02:42Z</time></trkpt><trkpt lat="39.66282609363173" lon="8.875905097246108"><ele>319.8333333333333</ele><time>2026-04-25T10:02:43Z</time></trkpt><trkpt lat="39.66274811996279" lon="8.875906595274815"><ele>321.0</ele><time>2026-04-25T10:02:44Z</time></trkpt><trkpt lat="39.66266547333639" lon="8.875910138040663"><ele>321.0</ele><time>2026-04-25T10:02:45Z</time></trkpt><trkpt lat="39.6625804813309" lon="8.8759156582953"><ele>321.0</ele><time>2026-04-25T10:02:46Z</time></trkpt><trkpt lat="39.66249675717975" lon="8.875930564499487"><ele>321.0</ele><time>2026-04-25T10:02:47Z</time></trkpt><trkpt lat="39.662407397830286" lon="8.875951166416671"><ele>321.0</ele><time>2026-04-25T10:02:48Z</time></trkpt><trkpt lat="39.66231404732416" lon="8.875976047338886"><ele>321.0</ele><time>2026-04-25T10:02:49Z</time></trkpt><trkpt lat="39.66222787717146" lon="8.876025463729656"><ele>321.3333333333333</ele><time>2026-04-25T10:02:50Z</time></trkpt><trkpt lat="39.66215284002532" lon="8.87610111352668"><ele>321.6666666666667</ele><time>2026-04-25T10:02:51Z</time></trkpt><trkpt lat="39.6620730083992" lon="8.876157680106429"><ele>322.0</ele><time>2026-04-25T10:02:52Z</time></trkpt><trkpt lat="39.66200718246222" lon="8.876225654765499"><ele>322.33333333333337</ele><time>2026-04-25T10:02:53Z</time></trkpt><trkpt lat="39.661944343378174" lon="8.876291909240416"><ele>322.6666666666667</ele><time>2026-04-25T10:02:54Z</time></trkpt><trkpt lat="39.6618907784546" lon="8.876347938231286"><ele>323.0</ele><time>2026-04-25T10:02:55Z</time></trkpt><trkpt lat="39.66181037876994" lon="8.87643352418925"><ele>323.0</ele><time>2026-04-25T10:02:57Z</time></trkpt><trkpt lat="39.661760387582255" lon="8.87649103826319"><ele>323.0</ele><time>2026-04-25T10:02:59Z</time></trkpt><trkpt lat="39.66170358437693" lon="8.87660372634981"><ele>323.0</ele><time>2026-04-25T10:03:02Z</time></trkpt><trkpt lat="39.66163791258467" lon="8.876707474820064"><ele>323.0</ele><time>2026-04-25T10:03:04Z</time></trkpt><trkpt lat="39.66158017345496" lon="8.876860888414598"><ele>323.0</ele><time>2026-04-25T10:03:06Z</time></trkpt><trkpt lat="39.661572769712286" lon="8.876960441504666"><ele>322.33333333333337</ele><time>2026-04-25T10:03:07Z</time></trkpt><trkpt lat="39.661567295381744" lon="8.877061407252153"><ele>321.6666666666667</ele><time>2026-04-25T10:03:08Z</time></trkpt><trkpt lat="39.661561583704724" lon="8.877162838736712"><ele>321.0</ele><time>2026-04-25T10:03:09Z</time></trkpt><trkpt lat="39.6615567032647" lon="8.877266952261548"><ele>320.3333333333333</ele><time>2026-04-25T10:03:10Z</time></trkpt><trkpt lat="39.661552424664684" lon="8.877375872743105"><ele>319.66666666666663</ele><time>2026-04-25T10:03:11Z</time></trkpt><trkpt lat="39.661548205674734" lon="8.877483275452331"><ele>319.0</ele><time>2026-04-25T10:03:12Z</time></trkpt><trkpt lat="39.66154392779551" lon="8.877592177369552"><ele>318.16666666666663</ele><time>2026-04-25T10:03:13Z</time></trkpt><trkpt lat="39.66155339855365" lon="8.877703419846377"><ele>317.3333333333333</ele><time>2026-04-25T10:03:14Z</time></trkpt><trkpt lat="39.66152750395729" lon="8.877813482883367"><ele>316.5</ele><time>2026-04-25T10:03:15Z</time></trkpt><trkpt lat="39.66150973146636" lon="8.877921268415982"><ele>315.6666666666667</ele><time>2026-04-25T10:03:16Z</time></trkpt><trkpt lat="39.661485799907624" lon="8.8780338310945"><ele>314.83333333333337</ele><time>2026-04-25T10:03:17Z</time></trkpt><trkpt lat="39.66146096116681" lon="8.878142145447136"><ele>314.0</ele><time>2026-04-25T10:03:18Z</time></trkpt><trkpt lat="39.66142957659834" lon="8.878254797262787"><ele>314.0</ele><time>2026-04-25T10:03:19Z</time></trkpt><trkpt lat="39.66138579869087" lon="8.878354757469891"><ele>314.0</ele><time>2026-04-25T10:03:20Z</time></trkpt><trkpt lat="39.661333397245386" lon="8.878453837545207"><ele>314.0</ele><time>2026-04-25T10:03:21Z</time></trkpt><trkpt lat="39.661274358980705" lon="8.878553828165973"><ele>314.0</ele><time>2026-04-25T10:03:22Z</time></trkpt><trkpt lat="39.66121034622796" lon="8.878654107561564"><ele>314.0</ele><time>2026-04-25T10:03:23Z</time></trkpt><trkpt lat="39.66114728531262" lon="8.878752896329859"><ele>315.6</ele><time>2026-04-25T10:03:24Z</time></trkpt><trkpt lat="39.66108237549857" lon="8.878854581245871"><ele>317.2</ele><time>2026-04-25T10:03:25Z</time></trkpt><trkpt lat="39.66101848365457" lon="8.878954629248454"><ele>318.8</ele><time>2026-04-25T10:03:26Z</time></trkpt><trkpt lat="39.66095499049838" lon="8.879052874350027"><ele>320.40000000000003</ele><time>2026-04-25T10:03:27Z</time></trkpt><trkpt lat="39.66090195350442" lon="8.879158589538617"><ele>322.0</ele><time>2026-04-25T10:03:28Z</time></trkpt><trkpt lat="39.66083231455964" lon="8.879240902477411"><ele>320.20000000000005</ele><time>2026-04-25T10:03:29Z</time></trkpt><trkpt lat="39.66077257084551" lon="8.879336260261132"><ele>318.40000000000003</ele><time>2026-04-25T10:03:30Z</time></trkpt><trkpt lat="39.66071417319775" lon="8.879432422262145"><ele>316.6</ele><time>2026-04-25T10:03:31Z</time></trkpt><trkpt lat="39.66066925491949" lon="8.879540304063495"><ele>314.8</ele><time>2026-04-25T10:03:32Z</time></trkpt><trkpt lat="39.66059594694" lon="8.87962710269836"><ele>313.0</ele><time>2026-04-25T10:03:33Z</time></trkpt><trkpt lat="39.660535302419184" lon="8.879727928622298"><ele>313.0</ele><time>2026-04-25T10:03:34Z</time></trkpt><trkpt lat="39.66047525223465" lon="8.87983160310388"><ele>313.0</ele><time>2026-04-25T10:03:35Z</time></trkpt><trkpt lat="39.66041576546932" lon="8.879932269293484"><ele>313.0</ele><time>2026-04-25T10:03:36Z</time></trkpt><trkpt lat="39.66036664851385" lon="8.880029835178872"><ele>313.0</ele><time>2026-04-25T10:03:37Z</time></trkpt><trkpt lat="39.66029873400333" lon="8.880077569102673"><ele>313.0</ele><time>2026-04-25T10:03:38Z</time></trkpt><trkpt lat="39.66022596158425" lon="8.880112450625646"><ele>313.0</ele><time>2026-04-25T10:03:39Z</time></trkpt><trkpt lat="39.660144162159604" lon="8.880162565126756"><ele>313.6</ele><time>2026-04-25T10:03:40Z</time></trkpt><trkpt lat="39.66006821615366" lon="8.880220125937665"><ele>314.20000000000005</ele><time>2026-04-25T10:03:41Z</time></trkpt><trkpt lat="39.65998977908546" lon="8.880277288941434"><ele>314.8</ele><time>2026-04-25T10:03:42Z</time></trkpt><trkpt lat="39.65990844766328" lon="8.880324137779185"><ele>315.40000000000003</ele><time>2026-04-25T10:03:43Z</time></trkpt><trkpt lat="39.659828648290826" lon="8.880387585080749"><ele>316.0</ele><time>2026-04-25T10:03:44Z</time></trkpt><trkpt lat="39.65975348557357" lon="8.880457097892235"><ele>316.0</ele><time>2026-04-25T10:03:45Z</time></trkpt><trkpt lat="39.65966828139016" lon="8.880514191828336"><ele>316.0</ele><time>2026-04-25T10:03:46Z</time></trkpt><trkpt lat="39.65959330384041" lon="8.880594514020542"><ele>316.0</ele><time>2026-04-25T10:03:47Z</time></trkpt><trkpt lat="39.65952448181189" lon="8.88068132402986"><ele>316.0</ele><time>2026-04-25T10:03:48Z</time></trkpt><trkpt lat="39.65947536386363" lon="8.880783940380518"><ele>316.0</ele><time>2026-04-25T10:03:49Z</time></trkpt><trkpt lat="39.65940623683238" lon="8.880864048633287"><ele>317.0</ele><time>2026-04-25T10:03:50Z</time></trkpt><trkpt lat="39.65935317880437" lon="8.880958063037156"><ele>318.0</ele><time>2026-04-25T10:03:51Z</time></trkpt><trkpt lat="39.65930298609263" lon="8.881055038548318"><ele>319.0</ele><time>2026-04-25T10:03:52Z</time></trkpt><trkpt lat="39.659253368076804" lon="8.88115245937938"><ele>320.0</ele><time>2026-04-25T10:03:53Z</time></trkpt><trkpt lat="39.65921338614561" lon="8.881268931339212"><ele>321.0</ele><time>2026-04-25T10:03:54Z</time></trkpt><trkpt lat="39.65915773589013" lon="8.881367008816913"><ele>321.0</ele><time>2026-04-25T10:03:55Z</time></trkpt><trkpt lat="39.65910566848029" lon="8.88147354004921"><ele>321.0</ele><time>2026-04-25T10:03:56Z</time></trkpt><trkpt lat="39.65904813797344" lon="8.881567967244626"><ele>321.0</ele><time>2026-04-25T10:03:57Z</time></trkpt><trkpt lat="39.65900527077452" lon="8.881672745076148"><ele>321.0</ele><time>2026-04-25T10:03:58Z</time></trkpt><trkpt lat="39.658975389370084" lon="8.881778389426227"><ele>321.0</ele><time>2026-04-25T10:03:59Z</time></trkpt><trkpt lat="39.65896224667802" lon="8.881872227672464"><ele>321.0</ele><time>2026-04-25T10:04:00Z</time></trkpt><trkpt lat="39.658940282493354" lon="8.881958272419041"><ele>320.3333333333333</ele><time>2026-04-25T10:04:01Z</time></trkpt><trkpt lat="39.658927940152246" lon="8.882053993070215"><ele>319.6666666666667</ele><time>2026-04-25T10:04:02Z</time></trkpt><trkpt lat="39.658900033503315" lon="8.88216296870477"><ele>319.0</ele><time>2026-04-25T10:04:03Z</time></trkpt><trkpt lat="39.65888955352632" lon="8.882277673664683"><ele>318.33333333333337</ele><time>2026-04-25T10:04:04Z</time></trkpt><trkpt lat="39.658879051375884" lon="8.882392621493661"><ele>317.6666666666667</ele><time>2026-04-25T10:04:05Z</time></trkpt><trkpt lat="39.658868404478724" lon="8.882505780602147"><ele>317.0</ele><time>2026-04-25T10:04:06Z</time></trkpt><trkpt lat="39.658861921998906" lon="8.882622134641762"><ele>316.0</ele><time>2026-04-25T10:04:07Z</time></trkpt><trkpt lat="39.65884439763642" lon="8.882740867629034"><ele>315.0</ele><time>2026-04-25T10:04:08Z</time></trkpt><trkpt lat="39.658797045028265" lon="8.882841198602424"><ele>314.0</ele><time>2026-04-25T10:04:09Z</time></trkpt><trkpt lat="39.65876052554044" lon="8.882946819818448"><ele>313.0</ele><time>2026-04-25T10:04:10Z</time></trkpt><trkpt lat="39.658731405681664" lon="8.883058495025356"><ele>312.0</ele><time>2026-04-25T10:04:11Z</time></trkpt><trkpt lat="39.65869260094902" lon="8.883165634237221"><ele>312.0</ele><time>2026-04-25T10:04:12Z</time></trkpt><trkpt lat="39.658649321908435" lon="8.883264535187047"><ele>312.0</ele><time>2026-04-25T10:04:13Z</time></trkpt><trkpt lat="39.65861069132078" lon="8.883362579730141"><ele>312.0</ele><time>2026-04-25T10:04:14Z</time></trkpt><trkpt lat="39.6585724280468" lon="8.883452704864908"><ele>312.0</ele><time>2026-04-25T10:04:15Z</time></trkpt><trkpt lat="39.658527888368454" lon="8.883529690627068"><ele>312.0</ele><time>2026-04-25T10:04:16Z</time></trkpt><trkpt lat="39.65847957665732" lon="8.883590253152512"><ele>312.0</ele><time>2026-04-25T10:04:17Z</time></trkpt><trkpt lat="39.658372033454455" lon="8.883623457453892"><ele>313.3333333333333</ele><time>2026-04-25T10:04:19Z</time></trkpt><trkpt lat="39.65830378687902" lon="8.883623144020513"><ele>314.6666666666667</ele><time>2026-04-25T10:04:21Z</time></trkpt><trkpt lat="39.65823833078804" lon="8.883600452308732"><ele>316.0</ele><time>2026-04-25T10:04:41Z</time></trkpt><trkpt lat="39.65831468841503" lon="8.883636755540405"><ele>317.33333333333337</ele><time>2026-04-25T10:05:00Z</time></trkpt><trkpt lat="39.65837112895829" lon="8.883687580583766"><ele>318.6666666666667</ele><time>2026-04-25T10:05:01Z</time></trkpt><trkpt lat="39.65846461209526" lon="8.883608419160103"><ele>320.0</ele><time>2026-04-25T10:05:02Z</time></trkpt><trkpt lat="39.6585362407584" lon="8.883514453899037"><ele>320.5</ele><time>2026-04-25T10:05:03Z</time></trkpt><trkpt lat="39.65860585256736" lon="8.883387171634915"><ele>321.0</ele><time>2026-04-25T10:05:04Z</time></trkpt><trkpt lat="39.65866238100195" lon="8.883242663649899"><ele>321.5</ele><time>2026-04-25T10:05:05Z</time></trkpt><trkpt lat="39.658720075211235" lon="8.883105945387442"><ele>322.0</ele><time>2026-04-25T10:05:06Z</time></trkpt><trkpt lat="39.65877844088105" lon="8.882972597549415"><ele>320.75</ele><time>2026-04-25T10:05:07Z</time></trkpt><trkpt lat="39.65882900095169" lon="8.88283553160328"><ele>319.5</ele><time>2026-04-25T10:05:08Z</time></trkpt><trkpt lat="39.658868916962426" lon="8.882690185778506"><ele>318.25</ele><time>2026-04-25T10:05:09Z</time></trkpt><trkpt lat="39.658897041523964" lon="8.882543562611072"><ele>317.0</ele><time>2026-04-25T10:05:10Z</time></trkpt><trkpt lat="39.658912193551615" lon="8.882380387157138"><ele>317.0</ele><time>2026-04-25T10:05:11Z</time></trkpt><trkpt lat="39.658913050878375" lon="8.882198977356616"><ele>317.0</ele><time>2026-04-25T10:05:12Z</time></trkpt><trkpt lat="39.65893193378384" lon="8.882026546462892"><ele>317.0</ele><time>2026-04-25T10:05:13Z</time></trkpt><trkpt lat="39.65896820266176" lon="8.881881151957181"><ele>317.0</ele><time>2026-04-25T10:05:14Z</time></trkpt><trkpt lat="39.65901097363045" lon="8.881740847074244"><ele>318.33333333333337</ele><time>2026-04-25T10:05:15Z</time></trkpt><trkpt lat="39.65906397429283" lon="8.881575431054985"><ele>319.6666666666667</ele><time>2026-04-25T10:05:16Z</time></trkpt><trkpt lat="39.659137717420215" lon="8.88140649671667"><ele>321.0</ele><time>2026-04-25T10:05:17Z</time></trkpt><trkpt lat="39.659228879274835" lon="8.881231730264934"><ele>321.0</ele><time>2026-04-25T10:05:18Z</time></trkpt><trkpt lat="39.65932138252408" lon="8.88106740413173"><ele>321.0</ele><time>2026-04-25T10:05:19Z</time></trkpt><trkpt lat="39.65940453314391" lon="8.880906335423976"><ele>321.0</ele><time>2026-04-25T10:05:20Z</time></trkpt><trkpt lat="39.65948709602889" lon="8.880760278862748"><ele>321.0</ele><time>2026-04-25T10:05:21Z</time></trkpt><trkpt lat="39.65958329020937" lon="8.880631567356192"><ele>319.75</ele><time>2026-04-25T10:05:22Z</time></trkpt><trkpt lat="39.65969334106934" lon="8.880508378712822"><ele>318.5</ele><time>2026-04-25T10:05:23Z</time></trkpt><trkpt lat="39.65980550047097" lon="8.880397927623111"><ele>317.25</ele><time>2026-04-25T10:05:24Z</time></trkpt><trkpt lat="39.65992270292701" lon="8.88030678179487"><ele>316.0</ele><time>2026-04-25T10:05:25Z</time></trkpt><trkpt lat="39.660049045989915" lon="8.880231934287805"><ele>316.0</ele><time>2026-04-25T10:05:26Z</time></trkpt><trkpt lat="39.660169564320924" lon="8.880180390282565"><ele>316.0</ele><time>2026-04-25T10:05:27Z</time></trkpt><trkpt lat="39.66028264854687" lon="8.880125874465248"><ele>316.0</ele><time>2026-04-25T10:05:28Z</time></trkpt><trkpt lat="39.66038223655489" lon="8.880051320236854"><ele>316.0</ele><time>2026-04-25T10:05:29Z</time></trkpt><trkpt lat="39.66046189293832" lon="8.879945910026017"><ele>315.25</ele><time>2026-04-25T10:05:30Z</time></trkpt><trkpt lat="39.660534582149324" lon="8.879802002308944"><ele>314.5</ele><time>2026-04-25T10:05:31Z</time></trkpt><trkpt lat="39.66061207161247" lon="8.8796431938817"><ele>313.75</ele><time>2026-04-25T10:05:32Z</time></trkpt><trkpt lat="39.66070427198244" lon="8.87948976712288"><ele>313.0</ele><time>2026-04-25T10:05:33Z</time></trkpt><trkpt lat="39.66080361334979" lon="8.879324275744386"><ele>310.66666666666663</ele><time>2026-04-25T10:05:34Z</time></trkpt><trkpt lat="39.660912766050124" lon="8.879153261252355"><ele>308.3333333333333</ele><time>2026-04-25T10:05:35Z</time></trkpt><trkpt lat="39.661030612907275" lon="8.87897986192799"><ele>306.0</ele><time>2026-04-25T10:05:36Z</time></trkpt><trkpt lat="39.661140239640744" lon="8.878806404743075"><ele>306.0</ele><time>2026-04-25T10:05:37Z</time></trkpt><trkpt lat="39.66124427454152" lon="8.878647919442463"><ele>306.0</ele><time>2026-04-25T10:05:38Z</time></trkpt><trkpt lat="39.66134757559669" lon="8.878498335096056"><ele>306.0</ele><time>2026-04-25T10:05:39Z</time></trkpt><trkpt lat="39.661435777335264" lon="8.878343073752944"><ele>308.0</ele><time>2026-04-25T10:05:40Z</time></trkpt><trkpt lat="39.661498512648556" lon="8.878166240633707"><ele>310.0</ele><time>2026-04-25T10:05:41Z</time></trkpt><trkpt lat="39.661534302154074" lon="8.87798800038554"><ele>312.0</ele><time>2026-04-25T10:05:42Z</time></trkpt><trkpt lat="39.66155597591269" lon="8.877814755881234"><ele>314.0</ele><time>2026-04-25T10:05:43Z</time></trkpt><trkpt lat="39.66156937648211" lon="8.877651529044153"><ele>315.25</ele><time>2026-04-25T10:05:44Z</time></trkpt><trkpt lat="39.66157522635804" lon="8.877493520299739"><ele>316.5</ele><time>2026-04-25T10:05:45Z</time></trkpt><trkpt lat="39.661575773751906" lon="8.877342111629446"><ele>317.75</ele><time>2026-04-25T10:05:46Z</time></trkpt><trkpt lat="39.66158120985983" lon="8.877189393405638"><ele>319.0</ele><time>2026-04-25T10:05:47Z</time></trkpt><trkpt lat="39.661588197543175" lon="8.877035960049897"><ele>319.0</ele><time>2026-04-25T10:05:48Z</time></trkpt><trkpt lat="39.66159888893007" lon="8.87689228519876"><ele>319.0</ele><time>2026-04-25T10:05:49Z</time></trkpt><trkpt lat="39.66163351087583" lon="8.876768347496013"><ele>319.0</ele><time>2026-04-25T10:05:50Z</time></trkpt><trkpt lat="39.66167151470988" lon="8.876664640183291"><ele>319.0</ele><time>2026-04-25T10:05:51Z</time></trkpt><trkpt lat="39.66172986247729" lon="8.876597691168161"><ele>319.0</ele><time>2026-04-25T10:05:52Z</time></trkpt><trkpt lat="39.66178612777256" lon="8.876518201973091"><ele>319.66666666666663</ele><time>2026-04-25T10:05:53Z</time></trkpt><trkpt lat="39.661839984113286" lon="8.876435562474395"><ele>320.3333333333333</ele><time>2026-04-25T10:05:54Z</time></trkpt><trkpt lat="39.661891915138774" lon="8.876381432298244"><ele>321.0</ele><time>2026-04-25T10:05:55Z</time></trkpt><trkpt lat="39.66198254249909" lon="8.876307394665778"><ele>321.6666666666667</ele><time>2026-04-25T10:05:57Z</time></trkpt><trkpt lat="39.662030019207904" lon="8.876250402396842"><ele>322.33333333333337</ele><time>2026-04-25T10:06:00Z</time></trkpt><trkpt lat="39.66202675249056" lon="8.876380722417032"><ele>323.0</ele><time>2026-04-25T10:06:04Z</time></trkpt><trkpt lat="39.66206078916822" lon="8.876500266282614"><ele>322.33333333333337</ele><time>2026-04-25T10:06:06Z</time></trkpt><trkpt lat="39.662040563123554" lon="8.876603833791828"><ele>321.6666666666667</ele><time>2026-04-25T10:06:08Z</time></trkpt><trkpt lat="39.66200344689465" lon="8.876679459700737"><ele>321.0</ele><time>2026-04-25T10:06:10Z</time></trkpt><trkpt lat="39.66195461323724" lon="8.876778793203755"><ele>320.3333333333333</ele><time>2026-04-25T10:06:12Z</time></trkpt><trkpt lat="39.66194502394624" lon="8.876872077132473"><ele>319.66666666666663</ele><time>2026-04-25T10:06:14Z</time></trkpt><trkpt lat="39.66196879246681" lon="8.877021162691523"><ele>319.0</ele><time>2026-04-25T10:06:16Z</time></trkpt><trkpt lat="39.6619817256698" lon="8.877118676946607"><ele>316.5</ele><time>2026-04-25T10:06:17Z</time></trkpt><trkpt lat="39.66199452951483" lon="8.877221755469863"><ele>314.0</ele><time>2026-04-25T10:06:18Z</time></trkpt><trkpt lat="39.66200834068614" lon="8.877325514479043"><ele>311.5</ele><time>2026-04-25T10:06:19Z</time></trkpt><trkpt lat="39.6620174646884" lon="8.87742944429818"><ele>309.0</ele><time>2026-04-25T10:06:20Z</time></trkpt><trkpt lat="39.66200974721434" lon="8.877526392419714"><ele>306.5</ele><time>2026-04-25T10:06:21Z</time></trkpt><trkpt lat="39.662016836680145" lon="8.877631250337204"><ele>304.0</ele><time>2026-04-25T10:06:22Z</time></trkpt><trkpt lat="39.66202287415042" lon="8.877727947758217"><ele>302.5</ele><time>2026-04-25T10:06:23Z</time></trkpt><trkpt lat="39.66204139758473" lon="8.877811106620188"><ele>301.0</ele><time>2026-04-25T10:06:24Z</time></trkpt><trkpt lat="39.66202942692203" lon="8.877907873862315"><ele>299.5</ele><time>2026-04-25T10:06:25Z</time></trkpt><trkpt lat="39.66203291146096" lon="8.878001787394153"><ele>298.0</ele><time>2026-04-25T10:06:26Z</time></trkpt><trkpt lat="39.6620479693449" lon="8.878085800392409"><ele>296.5</ele><time>2026-04-25T10:06:27Z</time></trkpt><trkpt lat="39.66205885717107" lon="8.878244998893468"><ele>295.0</ele><time>2026-04-25T10:06:29Z</time></trkpt><trkpt lat="39.66206907311387" lon="8.878332321160707"><ele>295.0</ele><time>2026-04-25T10:06:30Z</time></trkpt><trkpt lat="39.662077352109705" lon="8.878415846084167"><ele>295.0</ele><time>2026-04-25T10:06:31Z</time></trkpt><trkpt lat="39.6620980497652" lon="8.878553059348626"><ele>295.0</ele><time>2026-04-25T10:06:33Z</time></trkpt><trkpt lat="39.66210498732165" lon="8.878674315607984"><ele>295.0</ele><time>2026-04-25T10:06:35Z</time></trkpt><trkpt lat="39.662115261408275" lon="8.878800583746768"><ele>295.0</ele><time>2026-04-25T10:06:37Z</time></trkpt><trkpt lat="39.662107589451175" lon="8.878904142655646"><ele>295.0</ele><time>2026-04-25T10:06:39Z</time></trkpt><trkpt lat="39.6621052505042" lon="8.879012504422816"><ele>293.16666666666663</ele><time>2026-04-25T10:06:41Z</time></trkpt><trkpt lat="39.66211036299636" lon="8.879131699928442"><ele>291.3333333333333</ele><time>2026-04-25T10:06:44Z</time></trkpt><trkpt lat="39.662180278982625" lon="8.879182589200884"><ele>289.5</ele><time>2026-04-25T10:06:46Z</time></trkpt><trkpt lat="39.66222951207658" lon="8.87912315325501"><ele>287.6666666666667</ele><time>2026-04-25T10:06:47Z</time></trkpt><trkpt lat="39.66231855724125" lon="8.879016038762973"><ele>285.83333333333337</ele><time>2026-04-25T10:06:49Z</time></trkpt><trkpt lat="39.66237476156857" lon="8.878975853586558"><ele>284.0</ele><time>2026-04-25T10:06:50Z</time></trkpt><trkpt lat="39.66241462034683" lon="8.878909542249763"><ele>284.0</ele><time>2026-04-25T10:06:51Z</time></trkpt><trkpt lat="39.66250298424673" lon="8.878824272033672"><ele>284.0</ele><time>2026-04-25T10:06:53Z</time></trkpt><trkpt lat="39.662580317683776" lon="8.87879890394467"><ele>284.0</ele><time>2026-04-25T10:06:55Z</time></trkpt><trkpt lat="39.66266699071993" lon="8.878843534376541"><ele>284.0</ele><time>2026-04-25T10:06:57Z</time></trkpt><trkpt lat="39.66270284864391" lon="8.878956052064936"><ele>284.0</ele><time>2026-04-25T10:06:59Z</time></trkpt><trkpt lat="39.66273716486039" lon="8.879065959872044"><ele>284.0</ele><time>2026-04-25T10:07:01Z</time></trkpt><trkpt lat="39.662777790440025" lon="8.879200269616499"><ele>284.0</ele><time>2026-04-25T10:07:03Z</time></trkpt><trkpt lat="39.6628024674481" lon="8.879281570509495"><ele>284.0</ele><time>2026-04-25T10:07:04Z</time></trkpt><trkpt lat="39.66282902596706" lon="8.879369070132883"><ele>284.0</ele><time>2026-04-25T10:07:05Z</time></trkpt><trkpt lat="39.66285919135503" lon="8.879464579492339"><ele>284.0</ele><time>2026-04-25T10:07:06Z</time></trkpt><trkpt lat="39.66290229941636" lon="8.879558218534383"><ele>284.0</ele><time>2026-04-25T10:07:07Z</time></trkpt><trkpt lat="39.662940067648314" lon="8.879658573186534"><ele>278.8</ele><time>2026-04-25T10:07:08Z</time></trkpt><trkpt lat="39.662978659978" lon="8.879768237967559"><ele>273.59999999999997</ele><time>2026-04-25T10:07:09Z</time></trkpt><trkpt lat="39.663016554754265" lon="8.879887171246912"><ele>268.4</ele><time>2026-04-25T10:07:10Z</time></trkpt><trkpt lat="39.66305907264068" lon="8.880011483139342"><ele>263.2</ele><time>2026-04-25T10:07:11Z</time></trkpt><trkpt lat="39.66310240216119" lon="8.880141910247868"><ele>258.0</ele><time>2026-04-25T10:07:12Z</time></trkpt><trkpt lat="39.663141776427665" lon="8.88025463680901"><ele>255.66666666666666</ele><time>2026-04-25T10:07:13Z</time></trkpt><trkpt lat="39.6631781358441" lon="8.880363335141613"><ele>253.33333333333331</ele><time>2026-04-25T10:07:14Z</time></trkpt><trkpt lat="39.663215774889004" lon="8.880459365492117"><ele>251.0</ele><time>2026-04-25T10:07:15Z</time></trkpt><trkpt lat="39.6632440922294" lon="8.880552336256427"><ele>248.66666666666666</ele><time>2026-04-25T10:07:16Z</time></trkpt><trkpt lat="39.663276609562274" lon="8.880650012353737"><ele>246.33333333333331</ele><time>2026-04-25T10:07:17Z</time></trkpt><trkpt lat="39.6633020553597" lon="8.880750744771706"><ele>244.0</ele><time>2026-04-25T10:07:18Z</time></trkpt><trkpt lat="39.66328529819122" lon="8.88086832545614"><ele>242.2</ele><time>2026-04-25T10:07:19Z</time></trkpt><trkpt lat="39.66328013818595" lon="8.880994918176151"><ele>240.39999999999998</ele><time>2026-04-25T10:07:20Z</time></trkpt><trkpt lat="39.66329518873354" lon="8.881131201352128"><ele>238.6</ele><time>2026-04-25T10:07:21Z</time></trkpt><trkpt lat="39.66330602983081" lon="8.88127508228543"><ele>236.8</ele><time>2026-04-25T10:07:22Z</time></trkpt><trkpt lat="39.66333014747285" lon="8.88142381521543"><ele>235.0</ele><time>2026-04-25T10:07:23Z</time></trkpt><trkpt lat="39.66336169372844" lon="8.881572082635717"><ele>235.0</ele><time>2026-04-25T10:07:24Z</time></trkpt><trkpt lat="39.66340638761423" lon="8.881713993729706"><ele>235.0</ele><time>2026-04-25T10:07:25Z</time></trkpt><trkpt lat="39.663467301507225" lon="8.881843759966708"><ele>235.0</ele><time>2026-04-25T10:07:26Z</time></trkpt><trkpt lat="39.66353769163507" lon="8.881955928424507"><ele>235.0</ele><time>2026-04-25T10:07:27Z</time></trkpt><trkpt lat="39.66360111363104" lon="8.882056411945316"><ele>235.0</ele><time>2026-04-25T10:07:28Z</time></trkpt><trkpt lat="39.663656082895876" lon="8.88214677492424"><ele>232.4</ele><time>2026-04-25T10:07:29Z</time></trkpt><trkpt lat="39.66371849999459" lon="8.882227918793781"><ele>229.8</ele><time>2026-04-25T10:07:30Z</time></trkpt><trkpt lat="39.663797454351815" lon="8.882297405672267"><ele>227.2</ele><time>2026-04-25T10:07:31Z</time></trkpt><trkpt lat="39.66388491106489" lon="8.882374983288637"><ele>224.6</ele><time>2026-04-25T10:07:32Z</time></trkpt><trkpt lat="39.66396032381548" lon="8.882485481588393"><ele>222.0</ele><time>2026-04-25T10:07:33Z</time></trkpt><trkpt lat="39.664043726256914" lon="8.882593012894999"><ele>220.8</ele><time>2026-04-25T10:07:34Z</time></trkpt><trkpt lat="39.66412790630959" lon="8.882689103317734"><ele>219.6</ele><time>2026-04-25T10:07:35Z</time></trkpt><trkpt lat="39.66419944346886" lon="8.882782052597886"><ele>218.40000000000003</ele><time>2026-04-25T10:07:36Z</time></trkpt><trkpt lat="39.66426954861567" lon="8.882872826534136"><ele>217.20000000000002</ele><time>2026-04-25T10:07:37Z</time></trkpt><trkpt lat="39.66433980437567" lon="8.882958818748206"><ele>216.0</ele><time>2026-04-25T10:07:38Z</time></trkpt><trkpt lat="39.66443469025442" lon="8.883002443836345"><ele>214.83333333333334</ele><time>2026-04-25T10:07:39Z</time></trkpt><trkpt lat="39.664530371838175" lon="8.883043245760405"><ele>213.66666666666669</ele><time>2026-04-25T10:07:40Z</time></trkpt><trkpt lat="39.66461853447632" lon="8.883082797982096"><ele>212.5</ele><time>2026-04-25T10:07:41Z</time></trkpt><trkpt lat="39.66469567326615" lon="8.88311679910712"><ele>211.33333333333334</ele><time>2026-04-25T10:07:42Z</time></trkpt><trkpt lat="39.664762516523396" lon="8.883173337163411"><ele>210.16666666666669</ele><time>2026-04-25T10:07:43Z</time></trkpt><trkpt lat="39.66482637259256" lon="8.883213016299402"><ele>209.0</ele><time>2026-04-25T10:07:44Z</time></trkpt><trkpt lat="39.664924473092306" lon="8.883285926964685"><ele>209.00000000000003</ele><time>2026-04-25T10:07:46Z</time></trkpt><trkpt lat="39.66497341214903" lon="8.883339127100292"><ele>209.0</ele><time>2026-04-25T10:07:48Z</time></trkpt><trkpt lat="39.66497963810376" lon="8.883420879765652"><ele>209.0</ele><time>2026-04-25T10:07:55Z</time></trkpt><trkpt lat="39.66486750264908" lon="8.883339502488779"><ele>209.0</ele><time>2026-04-25T10:07:57Z</time></trkpt><trkpt lat="39.66480441567351" lon="8.883287453308824"><ele>209.00000000000003</ele><time>2026-04-25T10:07:58Z</time></trkpt><trkpt lat="39.66472366783564" lon="8.88323288440689"><ele>209.0</ele><time>2026-04-25T10:07:59Z</time></trkpt><trkpt lat="39.66462871924557" lon="8.88320222456595"><ele>209.0</ele><time>2026-04-25T10:08:00Z</time></trkpt><trkpt lat="39.66452202082132" lon="8.88314768264152"><ele>209.0</ele><time>2026-04-25T10:08:01Z</time></trkpt><trkpt lat="39.66440536389555" lon="8.883086683956682"><ele>209.0</ele><time>2026-04-25T10:08:02Z</time></trkpt><trkpt lat="39.664280837524984" lon="8.883032309700585"><ele>209.0</ele><time>2026-04-25T10:08:03Z</time></trkpt><trkpt lat="39.66414801155974" lon="8.882981655219062"><ele>210.75</ele><time>2026-04-25T10:08:04Z</time></trkpt><trkpt lat="39.66401676681737" lon="8.882949303570156"><ele>212.5</ele><time>2026-04-25T10:08:05Z</time></trkpt><trkpt lat="39.663887769623344" lon="8.882912242464148"><ele>214.25</ele><time>2026-04-25T10:08:06Z</time></trkpt><trkpt lat="39.663763501267624" lon="8.882949189323734"><ele>216.0</ele><time>2026-04-25T10:08:07Z</time></trkpt><trkpt lat="39.66362921963952" lon="8.882984441160962"><ele>217.66666666666669</ele><time>2026-04-25T10:08:08Z</time></trkpt><trkpt lat="39.66348957746977" lon="8.883035455581368"><ele>219.33333333333334</ele><time>2026-04-25T10:08:09Z</time></trkpt><trkpt lat="39.66334429985691" lon="8.88308852754177"><ele>221.0</ele><time>2026-04-25T10:08:10Z</time></trkpt><trkpt lat="39.663198931955684" lon="8.883164054643666"><ele>221.0</ele><time>2026-04-25T10:08:11Z</time></trkpt><trkpt lat="39.6630567025368" lon="8.883268294358716"><ele>221.0</ele><time>2026-04-25T10:08:12Z</time></trkpt><trkpt lat="39.66292967927304" lon="8.883402020149639"><ele>221.0</ele><time>2026-04-25T10:08:13Z</time></trkpt><trkpt lat="39.66280395314412" lon="8.883545316525439"><ele>222.0</ele><time>2026-04-25T10:08:14Z</time></trkpt><trkpt lat="39.662688692653106" lon="8.883687922662208"><ele>223.0</ele><time>2026-04-25T10:08:15Z</time></trkpt><trkpt lat="39.662571893622506" lon="8.883827222139782"><ele>224.0</ele><time>2026-04-25T10:08:16Z</time></trkpt><trkpt lat="39.66245522362042" lon="8.883962179005811"><ele>224.0</ele><time>2026-04-25T10:08:17Z</time></trkpt><trkpt lat="39.662338560339116" lon="8.884102018057293"><ele>224.0</ele><time>2026-04-25T10:08:18Z</time></trkpt><trkpt lat="39.66221444223965" lon="8.884223683151475"><ele>224.0</ele><time>2026-04-25T10:08:19Z</time></trkpt><trkpt lat="39.66209882358477" lon="8.884356976162954"><ele>224.25</ele><time>2026-04-25T10:08:20Z</time></trkpt><trkpt lat="39.66199806325711" lon="8.884507391683863"><ele>224.5</ele><time>2026-04-25T10:08:21Z</time></trkpt><trkpt lat="39.66188382253543" lon="8.88464688606472"><ele>224.75</ele><time>2026-04-25T10:08:22Z</time></trkpt><trkpt lat="39.66183328907585" lon="8.884731977674452"><ele>225.0</ele><time>2026-04-25T10:08:23Z</time></trkpt><trkpt lat="39.6617613289781" lon="8.88488716186098"><ele>225.0</ele><time>2026-04-25T10:08:24Z</time></trkpt><trkpt lat="39.6617012817852" lon="8.885053355222276"><ele>225.0</ele><time>2026-04-25T10:08:25Z</time></trkpt><trkpt lat="39.66165038476738" lon="8.88522506656022"><ele>225.0</ele><time>2026-04-25T10:08:26Z</time></trkpt><trkpt lat="39.6616056014633" lon="8.885395380724077"><ele>225.0</ele><time>2026-04-25T10:08:27Z</time></trkpt><trkpt lat="39.66155972109576" lon="8.885570337440297"><ele>224.5</ele><time>2026-04-25T10:08:28Z</time></trkpt><trkpt lat="39.661514498693485" lon="8.88573747594738"><ele>224.0</ele><time>2026-04-25T10:08:29Z</time></trkpt><trkpt lat="39.66145580228094" lon="8.885893948479682"><ele>223.5</ele><time>2026-04-25T10:08:30Z</time></trkpt><trkpt lat="39.66141229472588" lon="8.88605496041054"><ele>223.0</ele><time>2026-04-25T10:08:31Z</time></trkpt><trkpt lat="39.66138216189044" lon="8.886220880417284"><ele>222.25</ele><time>2026-04-25T10:08:32Z</time></trkpt><trkpt lat="39.66133350327229" lon="8.886374762565875"><ele>221.5</ele><time>2026-04-25T10:08:33Z</time></trkpt><trkpt lat="39.661294781447744" lon="8.886531721703182"><ele>220.75</ele><time>2026-04-25T10:08:34Z</time></trkpt><trkpt lat="39.661256892987474" lon="8.88668960776638"><ele>220.0</ele><time>2026-04-25T10:08:35Z</time></trkpt><trkpt lat="39.6612104747204" lon="8.886849119951199"><ele>219.75</ele><time>2026-04-25T10:08:36Z</time></trkpt><trkpt lat="39.66116976768653" lon="8.88701656806831"><ele>219.5</ele><time>2026-04-25T10:08:37Z</time></trkpt><trkpt lat="39.66112824744566" lon="8.887186125128903"><ele>219.25</ele><time>2026-04-25T10:08:38Z</time></trkpt><trkpt lat="39.661087987529235" lon="8.887354428085835"><ele>219.0</ele><time>2026-04-25T10:08:39Z</time></trkpt><trkpt lat="39.66104716377932" lon="8.887522025973542"><ele>224.25</ele><time>2026-04-25T10:08:40Z</time></trkpt><trkpt lat="39.661004466134344" lon="8.88768410953427"><ele>229.5</ele><time>2026-04-25T10:08:41Z</time></trkpt><trkpt lat="39.6609454020135" lon="8.88783323483202"><ele>234.75</ele><time>2026-04-25T10:08:42Z</time></trkpt><trkpt lat="39.66088545255678" lon="8.8879681048106"><ele>240.0</ele><time>2026-04-25T10:08:43Z</time></trkpt><trkpt lat="39.660811544923824" lon="8.888088666024329"><ele>240.0</ele><time>2026-04-25T10:08:44Z</time></trkpt><trkpt lat="39.66073795408577" lon="8.888209071388491"><ele>240.0</ele><time>2026-04-25T10:08:45Z</time></trkpt><trkpt lat="39.66067098813823" lon="8.888316846168392"><ele>240.0</ele><time>2026-04-25T10:08:46Z</time></trkpt><trkpt lat="39.66061981420244" lon="8.888428152332933"><ele>240.0</ele><time>2026-04-25T10:08:47Z</time></trkpt><trkpt lat="39.66055615141174" lon="8.888526526913465"><ele>240.0</ele><time>2026-04-25T10:08:48Z</time></trkpt><trkpt lat="39.660491981769475" lon="8.888630391320868"><ele>240.25</ele><time>2026-04-25T10:08:49Z</time></trkpt><trkpt lat="39.6604206917069" lon="8.8887363615514"><ele>240.5</ele><time>2026-04-25T10:08:50Z</time></trkpt><trkpt lat="39.6603455664407" lon="8.888846592791975"><ele>240.75</ele><time>2026-04-25T10:08:51Z</time></trkpt><trkpt lat="39.660279802535285" lon="8.888974725063424"><ele>241.0</ele><time>2026-04-25T10:08:52Z</time></trkpt><trkpt lat="39.6602106599044" lon="8.889109994655882"><ele>244.0</ele><time>2026-04-25T10:08:53Z</time></trkpt><trkpt lat="39.660141769218384" lon="8.889244925028345"><ele>247.0</ele><time>2026-04-25T10:08:54Z</time></trkpt><trkpt lat="39.66006601845594" lon="8.889375425626383"><ele>250.0</ele><time>2026-04-25T10:08:55Z</time></trkpt><trkpt lat="39.65998395826803" lon="8.889492111570489"><ele>253.0</ele><time>2026-04-25T10:08:56Z</time></trkpt><trkpt lat="39.65989316788371" lon="8.88960234998593"><ele>253.0</ele><time>2026-04-25T10:08:57Z</time></trkpt><trkpt lat="39.65979717766591" lon="8.88970355414524"><ele>253.0</ele><time>2026-04-25T10:08:58Z</time></trkpt><trkpt lat="39.659699928093715" lon="8.889804842526749"><ele>253.0</ele><time>2026-04-25T10:08:59Z</time></trkpt><trkpt lat="39.6596018032836" lon="8.889902924330398"><ele>253.0</ele><time>2026-04-25T10:09:00Z</time></trkpt><trkpt lat="39.659501090359505" lon="8.889995074495703"><ele>252.75</ele><time>2026-04-25T10:09:01Z</time></trkpt><trkpt lat="39.65939364444702" lon="8.890068474945526"><ele>252.5</ele><time>2026-04-25T10:09:02Z</time></trkpt><trkpt lat="39.65928135422035" lon="8.890116654935477"><ele>252.25</ele><time>2026-04-25T10:09:03Z</time></trkpt><trkpt lat="39.65917214638943" lon="8.890141242301443"><ele>252.0</ele><time>2026-04-25T10:09:04Z</time></trkpt><trkpt lat="39.65905622506364" lon="8.890160922504839"><ele>252.0</ele><time>2026-04-25T10:09:05Z</time></trkpt><trkpt lat="39.65893048093658" lon="8.890169353023484"><ele>252.0</ele><time>2026-04-25T10:09:06Z</time></trkpt><trkpt lat="39.6587965625606" lon="8.890165199404416"><ele>252.0</ele><time>2026-04-25T10:09:07Z</time></trkpt><trkpt lat="39.658658144982944" lon="8.890158778095858"><ele>252.0</ele><time>2026-04-25T10:09:08Z</time></trkpt><trkpt lat="39.65851667350404" lon="8.890157936822403"><ele>252.5</ele><time>2026-04-25T10:09:09Z</time></trkpt><trkpt lat="39.65837251643581" lon="8.89016113133878"><ele>253.0</ele><time>2026-04-25T10:09:10Z</time></trkpt><trkpt lat="39.65822879173318" lon="8.890158439775677"><ele>253.5</ele><time>2026-04-25T10:09:11Z</time></trkpt><trkpt lat="39.6580882741024" lon="8.890149772679207"><ele>254.0</ele><time>2026-04-25T10:09:12Z</time></trkpt><trkpt lat="39.657952686805594" lon="8.890139193396164"><ele>254.0</ele><time>2026-04-25T10:09:13Z</time></trkpt><trkpt lat="39.65782081022067" lon="8.890124385789369"><ele>254.0</ele><time>2026-04-25T10:09:14Z</time></trkpt><trkpt lat="39.657692356051946" lon="8.890095697392152"><ele>254.0</ele><time>2026-04-25T10:09:15Z</time></trkpt><trkpt lat="39.657563958488026" lon="8.890055915129611"><ele>254.0</ele><time>2026-04-25T10:09:16Z</time></trkpt><trkpt lat="39.657434296995035" lon="8.890010717189613"><ele>253.25</ele><time>2026-04-25T10:09:17Z</time></trkpt><trkpt lat="39.65730601510527" lon="8.889961336433593"><ele>252.5</ele><time>2026-04-25T10:09:18Z</time></trkpt><trkpt lat="39.65718088853238" lon="8.889902085300976"><ele>251.75</ele><time>2026-04-25T10:09:19Z</time></trkpt><trkpt lat="39.65705713823363" lon="8.889835959744785"><ele>251.0</ele><time>2026-04-25T10:09:20Z</time></trkpt><trkpt lat="39.65693340015667" lon="8.889770111504493"><ele>250.25</ele><time>2026-04-25T10:09:21Z</time></trkpt><trkpt lat="39.65680899013274" lon="8.889702410627223"><ele>249.5</ele><time>2026-04-25T10:09:22Z</time></trkpt><trkpt lat="39.65669759369803" lon="8.88962987125561"><ele>248.75</ele><time>2026-04-25T10:09:23Z</time></trkpt><trkpt lat="39.65658627249562" lon="8.889562486325069"><ele>248.0</ele><time>2026-04-25T10:09:24Z</time></trkpt><trkpt lat="39.65648664048554" lon="8.889479399234704"><ele>248.0</ele><time>2026-04-25T10:09:25Z</time></trkpt><trkpt lat="39.656396550714796" lon="8.88937436746708"><ele>248.0</ele><time>2026-04-25T10:09:26Z</time></trkpt><trkpt lat="39.65630809678376" lon="8.889264646240768"><ele>248.0</ele><time>2026-04-25T10:09:27Z</time></trkpt><trkpt lat="39.656220980717485" lon="8.88915238891773"><ele>248.0</ele><time>2026-04-25T10:09:28Z</time></trkpt><trkpt lat="39.656139444224756" lon="8.889035952338146"><ele>248.0</ele><time>2026-04-25T10:09:29Z</time></trkpt><trkpt lat="39.65605865100387" lon="8.888914350603645"><ele>248.0</ele><time>2026-04-25T10:09:30Z</time></trkpt><trkpt lat="39.65598007135681" lon="8.88878466832157"><ele>248.0</ele><time>2026-04-25T10:09:31Z</time></trkpt><trkpt lat="39.65590588369278" lon="8.888646283999844"><ele>248.0</ele><time>2026-04-25T10:09:32Z</time></trkpt><trkpt lat="39.655837396538125" lon="8.888501033913721"><ele>249.5</ele><time>2026-04-25T10:09:33Z</time></trkpt><trkpt lat="39.65577096781886" lon="8.888353139269796"><ele>251.0</ele><time>2026-04-25T10:09:34Z</time></trkpt><trkpt lat="39.65569979937585" lon="8.888207659394201"><ele>252.5</ele><time>2026-04-25T10:09:35Z</time></trkpt><trkpt lat="39.65562775764749" lon="8.888067587076941"><ele>254.0</ele><time>2026-04-25T10:09:36Z</time></trkpt><trkpt lat="39.655559495395" lon="8.887926470155335"><ele>254.0</ele><time>2026-04-25T10:09:37Z</time></trkpt><trkpt lat="39.655491360928615" lon="8.887783862871986"><ele>254.0</ele><time>2026-04-25T10:09:38Z</time></trkpt><trkpt lat="39.65541902210959" lon="8.88764024334597"><ele>254.0</ele><time>2026-04-25T10:09:39Z</time></trkpt><trkpt lat="39.65534170459758" lon="8.887495783586855"><ele>254.0</ele><time>2026-04-25T10:09:40Z</time></trkpt><trkpt lat="39.65525913775347" lon="8.887358471170813"><ele>252.5</ele><time>2026-04-25T10:09:41Z</time></trkpt><trkpt lat="39.65516650678059" lon="8.887231695661733"><ele>251.0</ele><time>2026-04-25T10:09:42Z</time></trkpt><trkpt lat="39.65506938596953" lon="8.88711012723586"><ele>249.5</ele><time>2026-04-25T10:09:43Z</time></trkpt><trkpt lat="39.65497212347695" lon="8.886989275697509"><ele>248.0</ele><time>2026-04-25T10:09:44Z</time></trkpt><trkpt lat="39.65487919031279" lon="8.886861557699534"><ele>250.25</ele><time>2026-04-25T10:09:45Z</time></trkpt><trkpt lat="39.65478127954888" lon="8.886741129978242"><ele>252.5</ele><time>2026-04-25T10:09:46Z</time></trkpt><trkpt lat="39.65468518061145" lon="8.886615382773147"><ele>254.75</ele><time>2026-04-25T10:09:47Z</time></trkpt><trkpt lat="39.65458810967821" lon="8.886490475139588"><ele>257.0</ele><time>2026-04-25T10:09:48Z</time></trkpt><trkpt lat="39.65449177876035" lon="8.88636951679104"><ele>255.25</ele><time>2026-04-25T10:09:49Z</time></trkpt><trkpt lat="39.65439624429998" lon="8.886253101228831"><ele>253.5</ele><time>2026-04-25T10:09:50Z</time></trkpt><trkpt lat="39.654300590402876" lon="8.88613925998712"><ele>251.75</ele><time>2026-04-25T10:09:51Z</time></trkpt><trkpt lat="39.65420708744128" lon="8.886020708829298"><ele>250.0</ele><time>2026-04-25T10:09:52Z</time></trkpt><trkpt lat="39.6541134105935" lon="8.88590088490365"><ele>250.0</ele><time>2026-04-25T10:09:53Z</time></trkpt><trkpt lat="39.65401836896423" lon="8.885777399836638"><ele>250.0</ele><time>2026-04-25T10:09:54Z</time></trkpt><trkpt lat="39.65391923536736" lon="8.885654849286936"><ele>250.0</ele><time>2026-04-25T10:09:55Z</time></trkpt><trkpt lat="39.65381564547797" lon="8.885530441486036"><ele>250.0</ele><time>2026-04-25T10:09:56Z</time></trkpt><trkpt lat="39.65371178607593" lon="8.885402313600544"><ele>246.0</ele><time>2026-04-25T10:09:57Z</time></trkpt><trkpt lat="39.65361040612964" lon="8.885268441677063"><ele>242.0</ele><time>2026-04-25T10:09:58Z</time></trkpt><trkpt lat="39.65350968366957" lon="8.88513729227569"><ele>238.0</ele><time>2026-04-25T10:09:59Z</time></trkpt><trkpt lat="39.65340782591631" lon="8.885011046014606"><ele>234.0</ele><time>2026-04-25T10:10:00Z</time></trkpt><trkpt lat="39.653303218133" lon="8.884888219073131"><ele>234.0</ele><time>2026-04-25T10:10:01Z</time></trkpt><trkpt lat="39.65319945342594" lon="8.884763556775102"><ele>234.0</ele><time>2026-04-25T10:10:02Z</time></trkpt><trkpt lat="39.6531000239067" lon="8.884635154367501"><ele>234.0</ele><time>2026-04-25T10:10:03Z</time></trkpt><trkpt lat="39.65300146401896" lon="8.884505128800727"><ele>234.0</ele><time>2026-04-25T10:10:04Z</time></trkpt><trkpt lat="39.65289724455016" lon="8.884381242274763"><ele>234.5</ele><time>2026-04-25T10:10:05Z</time></trkpt><trkpt lat="39.65279109080498" lon="8.884258451756526"><ele>235.0</ele><time>2026-04-25T10:10:06Z</time></trkpt><trkpt lat="39.652687304531874" lon="8.884131231445055"><ele>235.5</ele><time>2026-04-25T10:10:07Z</time></trkpt><trkpt lat="39.65258553983074" lon="8.88400277234758"><ele>236.0</ele><time>2026-04-25T10:10:08Z</time></trkpt><trkpt lat="39.65248215812234" lon="8.883876632563878"><ele>235.0</ele><time>2026-04-25T10:10:09Z</time></trkpt><trkpt lat="39.65237740262944" lon="8.88375122977772"><ele>234.0</ele><time>2026-04-25T10:10:10Z</time></trkpt><trkpt lat="39.65227232294519" lon="8.883624913486932"><ele>233.0</ele><time>2026-04-25T10:10:11Z</time></trkpt><trkpt lat="39.65217199485223" lon="8.883496074540476"><ele>232.0</ele><time>2026-04-25T10:10:12Z</time></trkpt><trkpt lat="39.652074422231635" lon="8.88336024755961"><ele>232.0</ele><time>2026-04-25T10:10:13Z</time></trkpt><trkpt lat="39.6519859497847" lon="8.88322391369233"><ele>232.0</ele><time>2026-04-25T10:10:14Z</time></trkpt><trkpt lat="39.65190015158092" lon="8.883089717243381"><ele>232.0</ele><time>2026-04-25T10:10:15Z</time></trkpt><trkpt lat="39.651823035425345" lon="8.882955379584772"><ele>232.0</ele><time>2026-04-25T10:10:16Z</time></trkpt><trkpt lat="39.65175524117651" lon="8.88280945373992"><ele>231.0</ele><time>2026-04-25T10:10:17Z</time></trkpt><trkpt lat="39.65169876666073" lon="8.882649906630176"><ele>230.0</ele><time>2026-04-25T10:10:18Z</time></trkpt><trkpt lat="39.65165153997236" lon="8.882484162198613"><ele>229.0</ele><time>2026-04-25T10:10:19Z</time></trkpt><trkpt lat="39.65160590336765" lon="8.882314086584019"><ele>228.0</ele><time>2026-04-25T10:10:20Z</time></trkpt><trkpt lat="39.651552305595914" lon="8.88214407326304"><ele>228.0</ele><time>2026-04-25T10:10:21Z</time></trkpt><trkpt lat="39.65149204617892" lon="8.881975103592518"><ele>228.0</ele><time>2026-04-25T10:10:22Z</time></trkpt><trkpt lat="39.651432777185434" lon="8.88180382010649"><ele>228.0</ele><time>2026-04-25T10:10:23Z</time></trkpt><trkpt lat="39.65137466514666" lon="8.881629491932213"><ele>228.0</ele><time>2026-04-25T10:10:24Z</time></trkpt><trkpt lat="39.651315440616976" lon="8.881453078897621"><ele>228.25</ele><time>2026-04-25T10:10:25Z</time></trkpt><trkpt lat="39.651257931793985" lon="8.881277645798859"><ele>228.5</ele><time>2026-04-25T10:10:26Z</time></trkpt><trkpt lat="39.65120110518299" lon="8.88110440689547"><ele>228.75</ele><time>2026-04-25T10:10:27Z</time></trkpt><trkpt lat="39.651143634980706" lon="8.880928997838417"><ele>229.0</ele><time>2026-04-25T10:10:28Z</time></trkpt><trkpt lat="39.651090603697305" lon="8.880747729590484"><ele>229.0</ele><time>2026-04-25T10:10:29Z</time></trkpt><trkpt lat="39.651055925281476" lon="8.880556600616163"><ele>229.0</ele><time>2026-04-25T10:10:30Z</time></trkpt><trkpt lat="39.65103777837965" lon="8.880353390644608"><ele>229.0</ele><time>2026-04-25T10:10:31Z</time></trkpt><trkpt lat="39.65103103879701" lon="8.880146858717897"><ele>228.66666666666666</ele><time>2026-04-25T10:10:32Z</time></trkpt><trkpt lat="39.65102509105985" lon="8.879934847312501"><ele>228.33333333333331</ele><time>2026-04-25T10:10:33Z</time></trkpt><trkpt lat="39.65101785262895" lon="8.879724891278325"><ele>228.0</ele><time>2026-04-25T10:10:34Z</time></trkpt><trkpt lat="39.651011679512" lon="8.879519073845676"><ele>228.0</ele><time>2026-04-25T10:10:35Z</time></trkpt><trkpt lat="39.65100438896358" lon="8.879326646219086"><ele>228.0</ele><time>2026-04-25T10:10:36Z</time></trkpt><trkpt lat="39.65098868639381" lon="8.87914800024717"><ele>228.0</ele><time>2026-04-25T10:10:37Z</time></trkpt><trkpt lat="39.6509613583598" lon="8.87898530896772"><ele>228.0</ele><time>2026-04-25T10:10:38Z</time></trkpt><trkpt lat="39.65091913732527" lon="8.878846068786157"><ele>227.60000000000002</ele><time>2026-04-25T10:10:39Z</time></trkpt><trkpt lat="39.650866222743865" lon="8.878731778439892"><ele>227.20000000000002</ele><time>2026-04-25T10:10:40Z</time></trkpt><trkpt lat="39.650818656410884" lon="8.878654587212571"><ele>226.8</ele><time>2026-04-25T10:10:41Z</time></trkpt><trkpt lat="39.65076382065898" lon="8.87858175712467"><ele>226.4</ele><time>2026-04-25T10:10:43Z</time></trkpt><trkpt lat="39.65067818543451" lon="8.87853634446077"><ele>226.0</ele><time>2026-04-25T10:10:47Z</time></trkpt><trkpt lat="39.65055381982228" lon="8.878537845065853"><ele>226.0</ele><time>2026-04-25T10:10:49Z</time></trkpt><trkpt lat="39.65046667646108" lon="8.878558269058843"><ele>226.00000000000003</ele><time>2026-04-25T10:10:50Z</time></trkpt><trkpt lat="39.650359992569946" lon="8.878576711057516"><ele>226.00000000000003</ele><time>2026-04-25T10:10:51Z</time></trkpt><trkpt lat="39.6502480085795" lon="8.878586232756707"><ele>226.0</ele><time>2026-04-25T10:10:52Z</time></trkpt><trkpt lat="39.650122192208855" lon="8.878588044735178"><ele>226.0</ele><time>2026-04-25T10:10:53Z</time></trkpt><trkpt lat="39.64999222630887" lon="8.87857693311489"><ele>226.25</ele><time>2026-04-25T10:10:54Z</time></trkpt><trkpt lat="39.64986069369355" lon="8.87853124890777"><ele>226.5</ele><time>2026-04-25T10:10:55Z</time></trkpt><trkpt lat="39.64972662558336" lon="8.878455010252882"><ele>226.75</ele><time>2026-04-25T10:10:56Z</time></trkpt><trkpt lat="39.64959195008144" lon="8.878345235789636"><ele>227.0</ele><time>2026-04-25T10:10:57Z</time></trkpt><trkpt lat="39.64947951236643" lon="8.878216992888017"><ele>227.0</ele><time>2026-04-25T10:10:58Z</time></trkpt><trkpt lat="39.64937459300091" lon="8.878064926375673"><ele>227.0</ele><time>2026-04-25T10:10:59Z</time></trkpt><trkpt lat="39.64928286844563" lon="8.87787924402863"><ele>227.0</ele><time>2026-04-25T10:11:00Z</time></trkpt><trkpt lat="39.64919299919075" lon="8.877688395423156"><ele>226.33333333333334</ele><time>2026-04-25T10:11:01Z</time></trkpt><trkpt lat="39.64909999142103" lon="8.877500850452538"><ele>225.66666666666669</ele><time>2026-04-25T10:11:02Z</time></trkpt><trkpt lat="39.64900631405588" lon="8.877317018160841"><ele>225.0</ele><time>2026-04-25T10:11:03Z</time></trkpt><trkpt lat="39.648912740861185" lon="8.877133455146916"><ele>225.0</ele><time>2026-04-25T10:11:04Z</time></trkpt><trkpt lat="39.64881384799114" lon="8.876953864710973"><ele>225.0</ele><time>2026-04-25T10:11:05Z</time></trkpt><trkpt lat="39.64870177059034" lon="8.876786109349291"><ele>225.0</ele><time>2026-04-25T10:11:06Z</time></trkpt><trkpt lat="39.64857074362884" lon="8.876639637007104"><ele>225.66666666666669</ele><time>2026-04-25T10:11:07Z</time></trkpt><trkpt lat="39.648428241223264" lon="8.876510199660661"><ele>226.33333333333334</ele><time>2026-04-25T10:11:08Z</time></trkpt><trkpt lat="39.64827674424195" lon="8.87640117755559"><ele>227.0</ele><time>2026-04-25T10:11:09Z</time></trkpt><trkpt lat="39.64811191264863" lon="8.876323657360269"><ele>227.0</ele><time>2026-04-25T10:11:10Z</time></trkpt><trkpt lat="39.64794579803585" lon="8.876277406004514"><ele>227.0</ele><time>2026-04-25T10:11:11Z</time></trkpt><trkpt lat="39.647788685985496" lon="8.876247527079823"><ele>227.0</ele><time>2026-04-25T10:11:12Z</time></trkpt><trkpt lat="39.647645298373305" lon="8.876205252144766"><ele>229.0</ele><time>2026-04-25T10:11:13Z</time></trkpt><trkpt lat="39.64750096924941" lon="8.876134921663319"><ele>231.0</ele><time>2026-04-25T10:11:14Z</time></trkpt><trkpt lat="39.647359538811926" lon="8.87603874551653"><ele>233.0</ele><time>2026-04-25T10:11:15Z</time></trkpt><trkpt lat="39.647220803954966" lon="8.87593800511727"><ele>233.25</ele><time>2026-04-25T10:11:16Z</time></trkpt><trkpt lat="39.64708281361681" lon="8.875842425453431"><ele>233.5</ele><time>2026-04-25T10:11:17Z</time></trkpt><trkpt lat="39.64695595077351" lon="8.87575083486162"><ele>233.75</ele><time>2026-04-25T10:11:18Z</time></trkpt><trkpt lat="39.64684079139083" lon="8.875662054586819"><ele>234.0</ele><time>2026-04-25T10:11:19Z</time></trkpt><trkpt lat="39.646746015259254" lon="8.875576174995155"><ele>234.25</ele><time>2026-04-25T10:11:20Z</time></trkpt><trkpt lat="39.64666549201851" lon="8.875470777905054"><ele>234.5</ele><time>2026-04-25T10:11:21Z</time></trkpt><trkpt lat="39.64660106491554" lon="8.875341132893665"><ele>234.75</ele><time>2026-04-25T10:11:22Z</time></trkpt><trkpt lat="39.646552196176415" lon="8.875188223798755"><ele>235.0</ele><time>2026-04-25T10:11:23Z</time></trkpt><trkpt lat="39.64653409352602" lon="8.87502861754737"><ele>234.25</ele><time>2026-04-25T10:11:24Z</time></trkpt><trkpt lat="39.646546844611386" lon="8.874875049899549"><ele>233.5</ele><time>2026-04-25T10:11:25Z</time></trkpt><trkpt lat="39.6465562985422" lon="8.874727122085428"><ele>232.75</ele><time>2026-04-25T10:11:26Z</time></trkpt><trkpt lat="39.64653957526808" lon="8.87457323145861"><ele>232.0</ele><time>2026-04-25T10:11:27Z</time></trkpt><trkpt lat="39.64649407289603" lon="8.87443432784822"><ele>232.0</ele><time>2026-04-25T10:11:28Z</time></trkpt><trkpt lat="39.646439736713425" lon="8.874301288983542"><ele>232.0</ele><time>2026-04-25T10:11:29Z</time></trkpt><trkpt lat="39.646377137091434" lon="8.874167633941797"><ele>232.0</ele><time>2026-04-25T10:11:30Z</time></trkpt><trkpt lat="39.646306402544056" lon="8.874033700048011"><ele>232.0</ele><time>2026-04-25T10:11:31Z</time></trkpt><trkpt lat="39.64622816318989" lon="8.873899818806837"><ele>231.5</ele><time>2026-04-25T10:11:32Z</time></trkpt><trkpt lat="39.64614154839802" lon="8.873767210514481"><ele>231.0</ele><time>2026-04-25T10:11:33Z</time></trkpt><trkpt lat="39.64604674596187" lon="8.87364633000946"><ele>230.5</ele><time>2026-04-25T10:11:34Z</time></trkpt><trkpt lat="39.64594753191219" lon="8.873534709234383"><ele>230.0</ele><time>2026-04-25T10:11:35Z</time></trkpt><trkpt lat="39.645842494981764" lon="8.873432224474332"><ele>230.0</ele><time>2026-04-25T10:11:36Z</time></trkpt><trkpt lat="39.64573202728323" lon="8.873335489331149"><ele>230.0</ele><time>2026-04-25T10:11:37Z</time></trkpt><trkpt lat="39.64561120191393" lon="8.873251601843664"><ele>230.0</ele><time>2026-04-25T10:11:38Z</time></trkpt><trkpt lat="39.645473489700564" lon="8.873201559980972"><ele>230.0</ele><time>2026-04-25T10:11:39Z</time></trkpt><trkpt lat="39.64532242689511" lon="8.873181984176826"><ele>231.33333333333334</ele><time>2026-04-25T10:11:40Z</time></trkpt><trkpt lat="39.645172190010776" lon="8.873166630685475"><ele>232.66666666666669</ele><time>2026-04-25T10:11:41Z</time></trkpt><trkpt lat="39.64502091852253" lon="8.873140181000755"><ele>234.0</ele><time>2026-04-25T10:11:42Z</time></trkpt><trkpt lat="39.64486778857501" lon="8.873114733026078"><ele>234.0</ele><time>2026-04-25T10:11:43Z</time></trkpt><trkpt lat="39.64471132779569" lon="8.873096860540436"><ele>234.0</ele><time>2026-04-25T10:11:44Z</time></trkpt><trkpt lat="39.644557410899004" lon="8.873079961533591"><ele>234.0</ele><time>2026-04-25T10:11:45Z</time></trkpt><trkpt lat="39.64440796821026" lon="8.873055841811489"><ele>235.75</ele><time>2026-04-25T10:11:46Z</time></trkpt><trkpt lat="39.644264198159256" lon="8.873031134153543"><ele>237.5</ele><time>2026-04-25T10:11:47Z</time></trkpt><trkpt lat="39.64413079349908" lon="8.872996978333562"><ele>239.25</ele><time>2026-04-25T10:11:48Z</time></trkpt><trkpt lat="39.64401180936561" lon="8.872932526099873"><ele>241.0</ele><time>2026-04-25T10:11:49Z</time></trkpt><trkpt lat="39.64389210438435" lon="8.872850890397027"><ele>241.0</ele><time>2026-04-25T10:11:50Z</time></trkpt><trkpt lat="39.64377182154569" lon="8.87276269164221"><ele>241.0</ele><time>2026-04-25T10:11:51Z</time></trkpt><trkpt lat="39.64364991894" lon="8.872670888818348"><ele>241.0</ele><time>2026-04-25T10:11:52Z</time></trkpt><trkpt lat="39.64352529578853" lon="8.872575722376146"><ele>241.0</ele><time>2026-04-25T10:11:53Z</time></trkpt><trkpt lat="39.643400126271814" lon="8.872481282184596"><ele>245.5</ele><time>2026-04-25T10:11:54Z</time></trkpt><trkpt lat="39.64326864050722" lon="8.872395565342424"><ele>250.0</ele><time>2026-04-25T10:11:55Z</time></trkpt><trkpt lat="39.64312634220654" lon="8.87233187627189"><ele>254.5</ele><time>2026-04-25T10:11:56Z</time></trkpt><trkpt lat="39.64298217230063" lon="8.872274205601588"><ele>259.0</ele><time>2026-04-25T10:11:57Z</time></trkpt><trkpt lat="39.64283807352189" lon="8.87221202687029"><ele>260.0</ele><time>2026-04-25T10:11:58Z</time></trkpt><trkpt lat="39.642693936122896" lon="8.872144587936495"><ele>261.0</ele><time>2026-04-25T10:11:59Z</time></trkpt><trkpt lat="39.64255451178841" lon="8.872076563893053"><ele>262.0</ele><time>2026-04-25T10:12:00Z</time></trkpt><trkpt lat="39.64241998618964" lon="8.872016770313818"><ele>263.0</ele><time>2026-04-25T10:12:01Z</time></trkpt><trkpt lat="39.642293891770095" lon="8.8719381259084"><ele>263.0</ele><time>2026-04-25T10:12:02Z</time></trkpt><trkpt lat="39.64217715609981" lon="8.871823533185466"><ele>263.0</ele><time>2026-04-25T10:12:03Z</time></trkpt><trkpt lat="39.64207701989414" lon="8.871686352780886"><ele>263.0</ele><time>2026-04-25T10:12:04Z</time></trkpt><trkpt lat="39.64198325003384" lon="8.871535410461371"><ele>263.0</ele><time>2026-04-25T10:12:05Z</time></trkpt><trkpt lat="39.64188834276932" lon="8.871382586706526"><ele>266.0</ele><time>2026-04-25T10:12:06Z</time></trkpt><trkpt lat="39.641790838764386" lon="8.871230105936652"><ele>269.0</ele><time>2026-04-25T10:12:07Z</time></trkpt><trkpt lat="39.641691274148144" lon="8.871070657247706"><ele>272.0</ele><time>2026-04-25T10:12:08Z</time></trkpt><trkpt lat="39.6415976006339" lon="8.870906709689525"><ele>272.0</ele><time>2026-04-25T10:12:09Z</time></trkpt><trkpt lat="39.64151011273415" lon="8.8707357466332"><ele>272.0</ele><time>2026-04-25T10:12:10Z</time></trkpt><trkpt lat="39.641432755558974" lon="8.870553490503614"><ele>272.0</ele><time>2026-04-25T10:12:11Z</time></trkpt><trkpt lat="39.64135405666955" lon="8.870371621362285"><ele>272.0</ele><time>2026-04-25T10:12:12Z</time></trkpt><trkpt lat="39.64127583859431" lon="8.870188938028349"><ele>272.0</ele><time>2026-04-25T10:12:13Z</time></trkpt><trkpt lat="39.64119890047909" lon="8.870005881644266"><ele>272.0</ele><time>2026-04-25T10:12:14Z</time></trkpt><trkpt lat="39.64112496378367" lon="8.869828551462543"><ele>279.6666666666667</ele><time>2026-04-25T10:12:15Z</time></trkpt><trkpt lat="39.641051794224516" lon="8.869651154050205"><ele>287.3333333333333</ele><time>2026-04-25T10:12:16Z</time></trkpt><trkpt lat="39.64098150987749" lon="8.86947766099353"><ele>295.0</ele><time>2026-04-25T10:12:17Z</time></trkpt><trkpt lat="39.64090892798242" lon="8.869309990725627"><ele>293.75</ele><time>2026-04-25T10:12:18Z</time></trkpt><trkpt lat="39.6408217771092" lon="8.86916647754471"><ele>292.5</ele><time>2026-04-25T10:12:19Z</time></trkpt><trkpt lat="39.64071138002867" lon="8.869056786277842"><ele>291.25</ele><time>2026-04-25T10:12:20Z</time></trkpt><trkpt lat="39.64058578838807" lon="8.868984035387243"><ele>290.0</ele><time>2026-04-25T10:12:21Z</time></trkpt><trkpt lat="39.64046087569957" lon="8.868942223021035"><ele>290.0</ele><time>2026-04-25T10:12:22Z</time></trkpt><trkpt lat="39.64034684226335" lon="8.86892122776493"><ele>290.0</ele><time>2026-04-25T10:12:23Z</time></trkpt><trkpt lat="39.6402235315121" lon="8.868931410521233"><ele>290.0</ele><time>2026-04-25T10:12:24Z</time></trkpt><trkpt lat="39.64009932459291" lon="8.868944406748472"><ele>290.0</ele><time>2026-04-25T10:12:25Z</time></trkpt><trkpt lat="39.63997008217882" lon="8.868949389331902"><ele>289.5</ele><time>2026-04-25T10:12:26Z</time></trkpt><trkpt lat="39.639839302898736" lon="8.868951582887652"><ele>289.0</ele><time>2026-04-25T10:12:27Z</time></trkpt><trkpt lat="39.63970730956358" lon="8.868952993992988"><ele>288.5</ele><time>2026-04-25T10:12:28Z</time></trkpt><trkpt lat="39.63957428574765" lon="8.868954454497317"><ele>288.0</ele><time>2026-04-25T10:12:29Z</time></trkpt><trkpt lat="39.63944050817682" lon="8.868959436911865"><ele>288.0</ele><time>2026-04-25T10:12:30Z</time></trkpt><trkpt lat="39.639308455215115" lon="8.868970380533357"><ele>288.0</ele><time>2026-04-25T10:12:31Z</time></trkpt><trkpt lat="39.63917233482322" lon="8.868989165325031"><ele>288.0</ele><time>2026-04-25T10:12:32Z</time></trkpt><trkpt lat="39.639033921163424" lon="8.869015654884631"><ele>288.0</ele><time>2026-04-25T10:12:33Z</time></trkpt><trkpt lat="39.63889556378929" lon="8.869046051491294"><ele>288.0</ele><time>2026-04-25T10:12:34Z</time></trkpt><trkpt lat="39.63876102988979" lon="8.86908348637367"><ele>288.0</ele><time>2026-04-25T10:12:35Z</time></trkpt><trkpt lat="39.63862863921378" lon="8.869115266025881"><ele>288.0</ele><time>2026-04-25T10:12:36Z</time></trkpt><trkpt lat="39.638499796903474" lon="8.869143373301785"><ele>288.0</ele><time>2026-04-25T10:12:37Z</time></trkpt><trkpt lat="39.63836856844921" lon="8.86917349093028"><ele>288.75</ele><time>2026-04-25T10:12:38Z</time></trkpt><trkpt lat="39.63823666954986" lon="8.869195789593311"><ele>289.5</ele><time>2026-04-25T10:12:39Z</time></trkpt><trkpt lat="39.63809713744036" lon="8.869194091991606"><ele>290.25</ele><time>2026-04-25T10:12:40Z</time></trkpt><trkpt lat="39.6379525463632" lon="8.869180104016408"><ele>291.0</ele><time>2026-04-25T10:12:41Z</time></trkpt><trkpt lat="39.63780301271083" lon="8.869163837669591"><ele>293.6666666666667</ele><time>2026-04-25T10:12:42Z</time></trkpt><trkpt lat="39.63765205110254" lon="8.86914364208909"><ele>296.33333333333337</ele><time>2026-04-25T10:12:43Z</time></trkpt><trkpt lat="39.63750237817614" lon="8.869124572949175"><ele>299.0</ele><time>2026-04-25T10:12:44Z</time></trkpt><trkpt lat="39.63735494699259" lon="8.869102545931517"><ele>299.0</ele><time>2026-04-25T10:12:45Z</time></trkpt><trkpt lat="39.63720621957221" lon="8.86907978453361"><ele>299.0</ele><time>2026-04-25T10:12:46Z</time></trkpt><trkpt lat="39.637055624143905" lon="8.869060337722981"><ele>299.0</ele><time>2026-04-25T10:12:47Z</time></trkpt><trkpt lat="39.636910902722214" lon="8.869041255294364"><ele>299.0</ele><time>2026-04-25T10:12:48Z</time></trkpt><trkpt lat="39.636770629004666" lon="8.86902139803999"><ele>297.75</ele><time>2026-04-25T10:12:49Z</time></trkpt><trkpt lat="39.63663431103726" lon="8.869005733439849"><ele>296.5</ele><time>2026-04-25T10:12:50Z</time></trkpt><trkpt lat="39.63650386027669" lon="8.868990341676298"><ele>295.25</ele><time>2026-04-25T10:12:51Z</time></trkpt><trkpt lat="39.63637913654061" lon="8.868972676306566"><ele>294.0</ele><time>2026-04-25T10:12:52Z</time></trkpt><trkpt lat="39.63625561165281" lon="8.868952341865047"><ele>292.75</ele><time>2026-04-25T10:12:53Z</time></trkpt><trkpt lat="39.636128484711556" lon="8.868934390077536"><ele>291.5</ele><time>2026-04-25T10:12:54Z</time></trkpt><trkpt lat="39.63599871296164" lon="8.868915865698924"><ele>290.25</ele><time>2026-04-25T10:12:55Z</time></trkpt><trkpt lat="39.635869772743845" lon="8.868891942913217"><ele>289.0</ele><time>2026-04-25T10:12:56Z</time></trkpt><trkpt lat="39.6357476407863" lon="8.868860585850088"><ele>289.0</ele><time>2026-04-25T10:12:57Z</time></trkpt><trkpt lat="39.635626054112905" lon="8.868812682061128"><ele>289.0</ele><time>2026-04-25T10:12:58Z</time></trkpt><trkpt lat="39.63550026992207" lon="8.868751738759348"><ele>289.0</ele><time>2026-04-25T10:12:59Z</time></trkpt><trkpt lat="39.635370485027394" lon="8.868685254614991"><ele>289.0</ele><time>2026-04-25T10:13:00Z</time></trkpt><trkpt lat="39.63524873040409" lon="8.868612076325247"><ele>288.2</ele><time>2026-04-25T10:13:01Z</time></trkpt><trkpt lat="39.63514220184289" lon="8.868522662396687"><ele>287.4</ele><time>2026-04-25T10:13:02Z</time></trkpt><trkpt lat="39.63505239807702" lon="8.868420889544339"><ele>286.6</ele><time>2026-04-25T10:13:03Z</time></trkpt><trkpt lat="39.634972002265386" lon="8.868332182164984"><ele>285.8</ele><time>2026-04-25T10:13:04Z</time></trkpt><trkpt lat="39.634900950466225" lon="8.868278432360261"><ele>285.0</ele><time>2026-04-25T10:13:05Z</time></trkpt><trkpt lat="39.63483544566299" lon="8.868240410664649"><ele>286.3333333333333</ele><time>2026-04-25T10:13:06Z</time></trkpt><trkpt lat="39.634765725458706" lon="8.868218974063224"><ele>287.6666666666667</ele><time>2026-04-25T10:13:07Z</time></trkpt><trkpt lat="39.634682205513776" lon="8.868192651630208"><ele>289.0</ele><time>2026-04-25T10:13:08Z</time></trkpt><trkpt lat="39.634589804704866" lon="8.868216164071857"><ele>290.33333333333337</ele><time>2026-04-25T10:13:09Z</time></trkpt><trkpt lat="39.6345187833325" lon="8.868302536314067"><ele>291.6666666666667</ele><time>2026-04-25T10:13:10Z</time></trkpt><trkpt lat="39.63445739950687" lon="8.868395884852553"><ele>293.0</ele><time>2026-04-25T10:13:11Z</time></trkpt><trkpt lat="39.634380965615115" lon="8.868484102012818"><ele>294.2</ele><time>2026-04-25T10:13:12Z</time></trkpt><trkpt lat="39.63431477726738" lon="8.868575483942864"><ele>295.4</ele><time>2026-04-25T10:13:13Z</time></trkpt><trkpt lat="39.63425193432739" lon="8.868685537680774"><ele>296.59999999999997</ele><time>2026-04-25T10:13:14Z</time></trkpt><trkpt lat="39.63417857228006" lon="8.868771179963307"><ele>297.8</ele><time>2026-04-25T10:13:15Z</time></trkpt><trkpt lat="39.634101097556055" lon="8.868815668320043"><ele>299.0</ele><time>2026-04-25T10:13:16Z</time></trkpt><trkpt lat="39.63401038868531" lon="8.868824333324698"><ele>299.0</ele><time>2026-04-25T10:13:17Z</time></trkpt><trkpt lat="39.633919169643825" lon="8.868820760986084"><ele>299.0</ele><time>2026-04-25T10:13:18Z</time></trkpt><trkpt lat="39.63382919918532" lon="8.868808444443543"><ele>299.0</ele><time>2026-04-25T10:13:19Z</time></trkpt><trkpt lat="39.633739581802175" lon="8.86879758065045"><ele>299.0</ele><time>2026-04-25T10:13:20Z</time></trkpt><trkpt lat="39.63365710776212" lon="8.868781721918786"><ele>299.0</ele><time>2026-04-25T10:13:21Z</time></trkpt><trkpt lat="39.63358134284957" lon="8.86876474333534"><ele>299.0</ele><time>2026-04-25T10:13:22Z</time></trkpt><trkpt lat="39.63346569702155" lon="8.868751893900274"><ele>301.5</ele><time>2026-04-25T10:13:24Z</time></trkpt><trkpt lat="39.63339878752437" lon="8.868745436967313"><ele>304.0</ele><time>2026-04-25T10:13:25Z</time></trkpt><trkpt lat="39.63333530290043" lon="8.868715605720658"><ele>306.5</ele><time>2026-04-25T10:13:26Z</time></trkpt><trkpt lat="39.63326214463589" lon="8.868700432595311"><ele>309.0</ele><time>2026-04-25T10:13:27Z</time></trkpt><trkpt lat="39.63318182976774" lon="8.868704550334511"><ele>311.5</ele><time>2026-04-25T10:13:28Z</time></trkpt><trkpt lat="39.63310300912591" lon="8.868685064087456"><ele>314.0</ele><time>2026-04-25T10:13:29Z</time></trkpt><trkpt lat="39.632994480989176" lon="8.868677543694861"><ele>314.0</ele><time>2026-04-25T10:13:31Z</time></trkpt><trkpt lat="39.63290739648356" lon="8.868665115735237"><ele>314.0</ele><time>2026-04-25T10:13:33Z</time></trkpt><trkpt lat="39.632829526687715" lon="8.868673094768939"><ele>314.0</ele><time>2026-04-25T10:13:36Z</time></trkpt><trkpt lat="39.632740790985274" lon="8.868616887437188"><ele>314.0</ele><time>2026-04-25T10:13:39Z</time></trkpt><trkpt lat="39.632679098224415" lon="8.86858200947939"><ele>314.0</ele><time>2026-04-25T10:13:42Z</time></trkpt><trkpt lat="39.6325958948654" lon="8.868577433351009"><ele>314.0</ele><time>2026-04-25T10:13:45Z</time></trkpt><trkpt lat="39.632564296096724" lon="8.8687289143298"><ele>314.2</ele><time>2026-04-25T10:13:46Z</time></trkpt><trkpt lat="39.632495980952434" lon="8.868836452671834"><ele>314.4</ele><time>2026-04-25T10:13:48Z</time></trkpt><trkpt lat="39.632451959712554" lon="8.868964840809975"><ele>314.6</ele><time>2026-04-25T10:13:50Z</time></trkpt><trkpt lat="39.63238351407914" lon="8.868969850902204"><ele>314.8</ele><time>2026-04-25T10:13:52Z</time></trkpt><trkpt lat="39.632270790729436" lon="8.868991192672972"><ele>315.0</ele><time>2026-04-25T10:13:54Z</time></trkpt><trkpt lat="39.632163599636534" lon="8.869023695436766"><ele>315.0</ele><time>2026-04-25T10:13:56Z</time></trkpt><trkpt lat="39.63209789215291" lon="8.869048384854588"><ele>315.0</ele><time>2026-04-25T10:13:57Z</time></trkpt><trkpt lat="39.63198923763803" lon="8.869120610485046"><ele>315.0</ele><time>2026-04-25T10:13:59Z</time></trkpt><trkpt lat="39.631919828884996" lon="8.869120384845234"><ele>315.0</ele><time>2026-04-25T10:14:00Z</time></trkpt><trkpt lat="39.63184778010061" lon="8.869116514384814"><ele>315.0</ele><time>2026-04-25T10:14:01Z</time></trkpt><trkpt lat="39.631774252161634" lon="8.869117902522921"><ele>315.0</ele><time>2026-04-25T10:14:02Z</time></trkpt><trkpt lat="39.63170133228489" lon="8.869137477590664"><ele>313.6666666666667</ele><time>2026-04-25T10:14:03Z</time></trkpt><trkpt lat="39.63163212400157" lon="8.869163620945322"><ele>312.3333333333333</ele><time>2026-04-25T10:14:04Z</time></trkpt><trkpt lat="39.63156821250971" lon="8.869196997406586"><ele>311.0</ele><time>2026-04-25T10:14:05Z</time></trkpt><trkpt lat="39.63150980314033" lon="8.869228442215407"><ele>309.66666666666663</ele><time>2026-04-25T10:14:06Z</time></trkpt><trkpt lat="39.63140810498382" lon="8.869298025367074"><ele>308.3333333333333</ele><time>2026-04-25T10:14:08Z</time></trkpt><trkpt lat="39.63134886019346" lon="8.86934445725223"><ele>307.0</ele><time>2026-04-25T10:14:09Z</time></trkpt><trkpt lat="39.63131264747853" lon="8.869444833837958"><ele>306.85714285714283</ele><time>2026-04-25T10:14:10Z</time></trkpt><trkpt lat="39.63127489975113" lon="8.869522348629143"><ele>306.7142857142857</ele><time>2026-04-25T10:14:11Z</time></trkpt><trkpt lat="39.631249018834716" lon="8.869609706823768"><ele>306.57142857142856</ele><time>2026-04-25T10:14:12Z</time></trkpt><trkpt lat="39.63123079609434" lon="8.869701166504987"><ele>306.42857142857144</ele><time>2026-04-25T10:14:13Z</time></trkpt><trkpt lat="39.63119749101548" lon="8.869788058349222"><ele>306.2857142857143</ele><time>2026-04-25T10:14:14Z</time></trkpt><trkpt lat="39.631176719914606" lon="8.869878559218186"><ele>306.1428571428571</ele><time>2026-04-25T10:14:15Z</time></trkpt><trkpt lat="39.63115459222966" lon="8.869974970826355"><ele>306.0</ele><time>2026-04-25T10:14:16Z</time></trkpt><trkpt lat="39.63113395532475" lon="8.870061626581716"><ele>304.42857142857144</ele><time>2026-04-25T10:14:17Z</time></trkpt><trkpt lat="39.63111297545504" lon="8.870143846943833"><ele>302.8571428571429</ele><time>2026-04-25T10:14:18Z</time></trkpt><trkpt lat="39.631103769261934" lon="8.870225156612074"><ele>301.28571428571433</ele><time>2026-04-25T10:14:19Z</time></trkpt><trkpt lat="39.631054773750336" lon="8.870283102812351"><ele>299.7142857142857</ele><time>2026-04-25T10:14:20Z</time></trkpt><trkpt lat="39.6309970742728" lon="8.870344684065136"><ele>298.14285714285717</ele><time>2026-04-25T10:14:21Z</time></trkpt><trkpt lat="39.63093842720474" lon="8.870416618472523"><ele>296.5714285714286</ele><time>2026-04-25T10:14:22Z</time></trkpt><trkpt lat="39.63087193238029" lon="8.870485972492736"><ele>295.0</ele><time>2026-04-25T10:14:23Z</time></trkpt><trkpt lat="39.630811945825904" lon="8.870566877704828"><ele>295.0</ele><time>2026-04-25T10:14:24Z</time></trkpt><trkpt lat="39.6307628732561" lon="8.87066532487755"><ele>295.0</ele><time>2026-04-25T10:14:25Z</time></trkpt><trkpt lat="39.63071755572008" lon="8.87077457540559"><ele>295.0</ele><time>2026-04-25T10:14:26Z</time></trkpt><trkpt lat="39.63068243132167" lon="8.87087957475839"><ele>295.0</ele><time>2026-04-25T10:14:27Z</time></trkpt><trkpt lat="39.63065297651314" lon="8.870988651920287"><ele>295.0</ele><time>2026-04-25T10:14:28Z</time></trkpt><trkpt lat="39.63062710160865" lon="8.871093216715682"><ele>295.0</ele><time>2026-04-25T10:14:29Z</time></trkpt><trkpt lat="39.630590258272164" lon="8.871184853800013"><ele>295.8</ele><time>2026-04-25T10:14:30Z</time></trkpt><trkpt lat="39.63054111183492" lon="8.871271957611782"><ele>296.6</ele><time>2026-04-25T10:14:31Z</time></trkpt><trkpt lat="39.63049984522636" lon="8.871375041171339"><ele>297.4</ele><time>2026-04-25T10:14:32Z</time></trkpt><trkpt lat="39.63046633025555" lon="8.871491495446524"><ele>298.2</ele><time>2026-04-25T10:14:33Z</time></trkpt><trkpt lat="39.63042602679177" lon="8.871610145951182"><ele>299.0</ele><time>2026-04-25T10:14:34Z</time></trkpt><trkpt lat="39.63036924599693" lon="8.871725427796632"><ele>295.5</ele><time>2026-04-25T10:14:35Z</time></trkpt><trkpt lat="39.63029689354639" lon="8.871838991820455"><ele>292.0</ele><time>2026-04-25T10:14:36Z</time></trkpt><trkpt lat="39.63021789081203" lon="8.871959578438608"><ele>288.5</ele><time>2026-04-25T10:14:37Z</time></trkpt><trkpt lat="39.630138552660775" lon="8.87207957211963"><ele>285.0</ele><time>2026-04-25T10:14:38Z</time></trkpt><trkpt lat="39.63005124631906" lon="8.872193425737"><ele>285.0</ele><time>2026-04-25T10:14:39Z</time></trkpt><trkpt lat="39.62995369327622" lon="8.872297334509943"><ele>285.0</ele><time>2026-04-25T10:14:40Z</time></trkpt><trkpt lat="39.629852866861874" lon="8.872397173333402"><ele>285.0</ele><time>2026-04-25T10:14:41Z</time></trkpt><trkpt lat="39.62974979068823" lon="8.872491632461774"><ele>285.0</ele><time>2026-04-25T10:14:42Z</time></trkpt><trkpt lat="39.62964741401486" lon="8.872589877095846"><ele>286.75</ele><time>2026-04-25T10:14:43Z</time></trkpt><trkpt lat="39.62954855721111" lon="8.872689747991814"><ele>288.5</ele><time>2026-04-25T10:14:44Z</time></trkpt><trkpt lat="39.62945813899288" lon="8.872799273709992"><ele>290.25</ele><time>2026-04-25T10:14:45Z</time></trkpt><trkpt lat="39.62936752029715" lon="8.87290818617244"><ele>292.0</ele><time>2026-04-25T10:14:46Z</time></trkpt><trkpt lat="39.6292788217763" lon="8.873019345066727"><ele>288.0</ele><time>2026-04-25T10:14:47Z</time></trkpt><trkpt lat="39.629169004083124" lon="8.873097676681224"><ele>284.0</ele><time>2026-04-25T10:14:48Z</time></trkpt><trkpt lat="39.62906131597651" lon="8.873195042921322"><ele>280.0</ele><time>2026-04-25T10:14:49Z</time></trkpt><trkpt lat="39.62892885823271" lon="8.873228031515993"><ele>276.0</ele><time>2026-04-25T10:14:50Z</time></trkpt><trkpt lat="39.62879490148511" lon="8.873270568524017"><ele>276.0</ele><time>2026-04-25T10:14:51Z</time></trkpt><trkpt lat="39.62865213966254" lon="8.873265232192981"><ele>276.0</ele><time>2026-04-25T10:14:52Z</time></trkpt><trkpt lat="39.62851191527271" lon="8.87322396201814"><ele>276.0</ele><time>2026-04-25T10:14:53Z</time></trkpt><trkpt lat="39.62837726471169" lon="8.873172224911746"><ele>276.0</ele><time>2026-04-25T10:14:54Z</time></trkpt><trkpt lat="39.62823542970008" lon="8.87314505893764"><ele>276.0</ele><time>2026-04-25T10:14:55Z</time></trkpt><trkpt lat="39.628091092412" lon="8.873109128213574"><ele>276.0</ele><time>2026-04-25T10:14:56Z</time></trkpt><trkpt lat="39.62794789461215" lon="8.873109436718845"><ele>276.0</ele><time>2026-04-25T10:14:57Z</time></trkpt><trkpt lat="39.627834124314475" lon="8.873128126675542"><ele>276.0</ele><time>2026-04-25T10:14:58Z</time></trkpt><trkpt lat="39.62771215889863" lon="8.87313431936953"><ele>278.0</ele><time>2026-04-25T10:14:59Z</time></trkpt><trkpt lat="39.6275954553369" lon="8.873146011370205"><ele>280.0</ele><time>2026-04-25T10:15:00Z</time></trkpt><trkpt lat="39.62748083320469" lon="8.873184204586408"><ele>282.0</ele><time>2026-04-25T10:15:01Z</time></trkpt><trkpt lat="39.62737058150108" lon="8.873255629996034"><ele>284.0</ele><time>2026-04-25T10:15:02Z</time></trkpt><trkpt lat="39.62727118981789" lon="8.87334347033223"><ele>285.25</ele><time>2026-04-25T10:15:03Z</time></trkpt><trkpt lat="39.62716833486286" lon="8.873444831059015"><ele>286.5</ele><time>2026-04-25T10:15:04Z</time></trkpt><trkpt lat="39.627069356068084" lon="8.873549586048895"><ele>287.75</ele><time>2026-04-25T10:15:05Z</time></trkpt><trkpt lat="39.62695824412848" lon="8.873637741941419"><ele>289.0</ele><time>2026-04-25T10:15:06Z</time></trkpt><trkpt lat="39.6268522342338" lon="8.873739647237818"><ele>289.0</ele><time>2026-04-25T10:15:07Z</time></trkpt><trkpt lat="39.62674547992285" lon="8.873846024019928"><ele>289.0</ele><time>2026-04-25T10:15:08Z</time></trkpt><trkpt lat="39.62663899561185" lon="8.873949370650354"><ele>289.0</ele><time>2026-04-25T10:15:09Z</time></trkpt><trkpt lat="39.62652143697659" lon="8.874003245813757"><ele>289.0</ele><time>2026-04-25T10:15:10Z</time></trkpt><trkpt lat="39.62640984062881" lon="8.874020254969176"><ele>289.0</ele><time>2026-04-25T10:15:11Z</time></trkpt><trkpt lat="39.62629977799837" lon="8.874029631456732"><ele>289.0</ele><time>2026-04-25T10:15:12Z</time></trkpt><trkpt lat="39.62620493629173" lon="8.87399764633214"><ele>289.0</ele><time>2026-04-25T10:15:13Z</time></trkpt><trkpt lat="39.626117112519374" lon="8.87396346809122"><ele>289.0</ele><time>2026-04-25T10:15:14Z</time></trkpt><trkpt lat="39.62601910875904" lon="8.8739166133817"><ele>289.0</ele><time>2026-04-25T10:15:15Z</time></trkpt><trkpt lat="39.62591356547491" lon="8.873858562171014"><ele>290.0</ele><time>2026-04-25T10:15:16Z</time></trkpt><trkpt lat="39.6258045231151" lon="8.873792794701712"><ele>291.0</ele><time>2026-04-25T10:15:17Z</time></trkpt><trkpt lat="39.625700653774075" lon="8.873727164372088"><ele>292.0</ele><time>2026-04-25T10:15:18Z</time></trkpt><trkpt lat="39.625612426736915" lon="8.873666036380074"><ele>293.0</ele><time>2026-04-25T10:15:19Z</time></trkpt><trkpt lat="39.62553930223872" lon="8.873623424558886"><ele>294.0</ele><time>2026-04-25T10:15:20Z</time></trkpt><trkpt lat="39.625458954748055" lon="8.873578535461448"><ele>294.0</ele><time>2026-04-25T10:15:22Z</time></trkpt><trkpt lat="39.62541023490769" lon="8.873516511564544"><ele>294.0</ele><time>2026-04-25T10:15:26Z</time></trkpt><trkpt lat="39.62532166966337" lon="8.87367686155217"><ele>294.0</ele><time>2026-04-25T10:15:28Z</time></trkpt><trkpt lat="39.625310947325545" lon="8.87377421432124"><ele>294.0</ele><time>2026-04-25T10:15:29Z</time></trkpt><trkpt lat="39.625315181480815" lon="8.873879684959572"><ele>294.0</ele><time>2026-04-25T10:15:30Z</time></trkpt><trkpt lat="39.62535106719514" lon="8.873988349710618"><ele>294.0</ele><time>2026-04-25T10:15:31Z</time></trkpt><trkpt lat="39.625412231010166" lon="8.874077122645177"><ele>294.0</ele><time>2026-04-25T10:15:32Z</time></trkpt><trkpt lat="39.625489139042486" lon="8.874169893735736"><ele>294.0</ele><time>2026-04-25T10:15:33Z</time></trkpt><trkpt lat="39.62555987582169" lon="8.87428367791575"><ele>294.0</ele><time>2026-04-25T10:15:34Z</time></trkpt><trkpt lat="39.62563842858064" lon="8.874393199510445"><ele>294.0</ele><time>2026-04-25T10:15:35Z</time></trkpt><trkpt lat="39.62571718425771" lon="8.874510070019173"><ele>295.25</ele><time>2026-04-25T10:15:36Z</time></trkpt><trkpt lat="39.62579132280044" lon="8.87462998995608"><ele>296.5</ele><time>2026-04-25T10:15:37Z</time></trkpt><trkpt lat="39.625866222654054" lon="8.874758315956647"><ele>297.75</ele><time>2026-04-25T10:15:38Z</time></trkpt><trkpt lat="39.625941492891705" lon="8.874890326489089"><ele>299.0</ele><time>2026-04-25T10:15:39Z</time></trkpt><trkpt lat="39.6260149065733" lon="8.875023992081795"><ele>299.8</ele><time>2026-04-25T10:15:40Z</time></trkpt><trkpt lat="39.62606681339743" lon="8.875164100730471"><ele>300.59999999999997</ele><time>2026-04-25T10:15:41Z</time></trkpt><trkpt lat="39.62610043714752" lon="8.87530285284716"><ele>301.4</ele><time>2026-04-25T10:15:42Z</time></trkpt><trkpt lat="39.62607294063993" lon="8.875433878532949"><ele>302.2</ele><time>2026-04-25T10:15:43Z</time></trkpt><trkpt lat="39.625995337029714" lon="8.875508916765838"><ele>303.0</ele><time>2026-04-25T10:15:44Z</time></trkpt><trkpt lat="39.62591620909906" lon="8.87560660010195"><ele>303.0</ele><time>2026-04-25T10:15:45Z</time></trkpt><trkpt lat="39.62580756591569" lon="8.875678755390252"><ele>303.0</ele><time>2026-04-25T10:15:46Z</time></trkpt><trkpt lat="39.625690323434384" lon="8.875751493308671"><ele>303.0</ele><time>2026-04-25T10:15:47Z</time></trkpt><trkpt lat="39.625565694546204" lon="8.875821157908282"><ele>303.0</ele><time>2026-04-25T10:15:48Z</time></trkpt><trkpt lat="39.6254366821191" lon="8.875890369559261"><ele>302.75</ele><time>2026-04-25T10:15:49Z</time></trkpt><trkpt lat="39.62530538290688" lon="8.875962415586162"><ele>302.5</ele><time>2026-04-25T10:15:50Z</time></trkpt><trkpt lat="39.62517436985048" lon="8.876040644927345"><ele>302.25</ele><time>2026-04-25T10:15:51Z</time></trkpt><trkpt lat="39.62504706811359" lon="8.876117074051061"><ele>302.0</ele><time>2026-04-25T10:15:52Z</time></trkpt><trkpt lat="39.62492464374434" lon="8.87619253215889"><ele>302.0</ele><time>2026-04-25T10:15:53Z</time></trkpt><trkpt lat="39.62481501524748" lon="8.876296899456836"><ele>302.0</ele><time>2026-04-25T10:15:54Z</time></trkpt><trkpt lat="39.62470256356337" lon="8.876408867042615"><ele>302.0</ele><time>2026-04-25T10:15:55Z</time></trkpt><trkpt lat="39.62463316393538" lon="8.87653320352549"><ele>302.0</ele><time>2026-04-25T10:15:56Z</time></trkpt><trkpt lat="39.62455866905963" lon="8.876663751745621"><ele>302.25</ele><time>2026-04-25T10:15:57Z</time></trkpt><trkpt lat="39.624480801127405" lon="8.876790788188906"><ele>302.5</ele><time>2026-04-25T10:15:58Z</time></trkpt><trkpt lat="39.6243893726543" lon="8.876901438225248"><ele>302.75</ele><time>2026-04-25T10:15:59Z</time></trkpt><trkpt lat="39.624282404663134" lon="8.876980802431499"><ele>303.0</ele><time>2026-04-25T10:16:00Z</time></trkpt><trkpt lat="39.62415931019108" lon="8.877040316265882"><ele>303.0</ele><time>2026-04-25T10:16:01Z</time></trkpt><trkpt lat="39.62403011435702" lon="8.877092420258116"><ele>303.0</ele><time>2026-04-25T10:16:02Z</time></trkpt><trkpt lat="39.623899791156354" lon="8.877148664055053"><ele>303.0</ele><time>2026-04-25T10:16:03Z</time></trkpt><trkpt lat="39.62376184065912" lon="8.877197788611946"><ele>303.0</ele><time>2026-04-25T10:16:04Z</time></trkpt><trkpt lat="39.62362898229115" lon="8.877244995322858"><ele>304.25</ele><time>2026-04-25T10:16:05Z</time></trkpt><trkpt lat="39.62349475009878" lon="8.877293620461518"><ele>305.5</ele><time>2026-04-25T10:16:06Z</time></trkpt><trkpt lat="39.62336381464678" lon="8.87734728013664"><ele>306.75</ele><time>2026-04-25T10:16:07Z</time></trkpt><trkpt lat="39.62323545154713" lon="8.877398265430475"><ele>308.0</ele><time>2026-04-25T10:16:08Z</time></trkpt><trkpt lat="39.62310994760858" lon="8.877446008864297"><ele>308.0</ele><time>2026-04-25T10:16:09Z</time></trkpt><trkpt lat="39.62298992530867" lon="8.87750323913849"><ele>308.0</ele><time>2026-04-25T10:16:10Z</time></trkpt><trkpt lat="39.62287293212826" lon="8.877571089366674"><ele>308.0</ele><time>2026-04-25T10:16:11Z</time></trkpt><trkpt lat="39.622754016270235" lon="8.877641691612297"><ele>308.0</ele><time>2026-04-25T10:16:12Z</time></trkpt><trkpt lat="39.62263661290337" lon="8.877720035728615"><ele>307.0</ele><time>2026-04-25T10:16:13Z</time></trkpt><trkpt lat="39.622519328889574" lon="8.877793075059492"><ele>306.0</ele><time>2026-04-25T10:16:14Z</time></trkpt><trkpt lat="39.62240340363593" lon="8.87786642914679"><ele>305.0</ele><time>2026-04-25T10:16:15Z</time></trkpt><trkpt lat="39.622286385112055" lon="8.87794099579267"><ele>304.0</ele><time>2026-04-25T10:16:16Z</time></trkpt><trkpt lat="39.62216714933684" lon="8.878010724951404"><ele>304.0</ele><time>2026-04-25T10:16:17Z</time></trkpt><trkpt lat="39.622045119863586" lon="8.878078860089811"><ele>304.0</ele><time>2026-04-25T10:16:18Z</time></trkpt><trkpt lat="39.621920650385924" lon="8.878150419505836"><ele>304.0</ele><time>2026-04-25T10:16:19Z</time></trkpt><trkpt lat="39.621794351678076" lon="8.87822464354924"><ele>304.0</ele><time>2026-04-25T10:16:20Z</time></trkpt><trkpt lat="39.62166607216987" lon="8.878291880092155"><ele>305.5</ele><time>2026-04-25T10:16:21Z</time></trkpt><trkpt lat="39.621536067012144" lon="8.878356671439496"><ele>307.0</ele><time>2026-04-25T10:16:22Z</time></trkpt><trkpt lat="39.62140825059778" lon="8.878429266868556"><ele>308.5</ele><time>2026-04-25T10:16:23Z</time></trkpt><trkpt lat="39.62128203187569" lon="8.878507706864774"><ele>310.0</ele><time>2026-04-25T10:16:24Z</time></trkpt><trkpt lat="39.621156370497275" lon="8.878585673452605"><ele>311.5</ele><time>2026-04-25T10:16:25Z</time></trkpt><trkpt lat="39.6210293505367" lon="8.878658919283039"><ele>313.0</ele><time>2026-04-25T10:16:26Z</time></trkpt><trkpt lat="39.62090403554001" lon="8.878724738265937"><ele>314.5</ele><time>2026-04-25T10:16:27Z</time></trkpt><trkpt lat="39.620781587856264" lon="8.87878757083322"><ele>316.0</ele><time>2026-04-25T10:16:28Z</time></trkpt><trkpt lat="39.620660236178" lon="8.878847514182464"><ele>316.0</ele><time>2026-04-25T10:16:29Z</time></trkpt><trkpt lat="39.62053689342025" lon="8.87889974904338"><ele>316.0</ele><time>2026-04-25T10:16:30Z</time></trkpt><trkpt lat="39.62040970967259" lon="8.878940950106566"><ele>316.0</ele><time>2026-04-25T10:16:31Z</time></trkpt><trkpt lat="39.620282213548386" lon="8.878967288133481"><ele>316.0</ele><time>2026-04-25T10:16:32Z</time></trkpt><trkpt lat="39.62015430880362" lon="8.878990374173524"><ele>316.5</ele><time>2026-04-25T10:16:33Z</time></trkpt><trkpt lat="39.62002479066356" lon="8.879005996841533"><ele>317.0</ele><time>2026-04-25T10:16:34Z</time></trkpt><trkpt lat="39.619896092727764" lon="8.87901599848958"><ele>317.5</ele><time>2026-04-25T10:16:35Z</time></trkpt><trkpt lat="39.61976695977055" lon="8.879030456189572"><ele>318.0</ele><time>2026-04-25T10:16:36Z</time></trkpt><trkpt lat="39.619637454596194" lon="8.879055042385707"><ele>318.0</ele><time>2026-04-25T10:16:37Z</time></trkpt><trkpt lat="39.61950687990935" lon="8.879090944495557"><ele>318.0</ele><time>2026-04-25T10:16:38Z</time></trkpt><trkpt lat="39.619374593719435" lon="8.87913168681269"><ele>318.0</ele><time>2026-04-25T10:16:39Z</time></trkpt><trkpt lat="39.61924101260097" lon="8.879169396113523"><ele>318.0</ele><time>2026-04-25T10:16:40Z</time></trkpt><trkpt lat="39.619106174402276" lon="8.879209489666101"><ele>317.5</ele><time>2026-04-25T10:16:41Z</time></trkpt><trkpt lat="39.6189714412443" lon="8.879251686190129"><ele>317.0</ele><time>2026-04-25T10:16:42Z</time></trkpt><trkpt lat="39.61883477029116" lon="8.879295386023713"><ele>316.5</ele><time>2026-04-25T10:16:43Z</time></trkpt><trkpt lat="39.61870181890207" lon="8.879339186863767"><ele>316.0</ele><time>2026-04-25T10:16:44Z</time></trkpt><trkpt lat="39.618579922705514" lon="8.879384714402581"><ele>317.75</ele><time>2026-04-25T10:16:45Z</time></trkpt><trkpt lat="39.618465771199894" lon="8.879437410083138"><ele>319.5</ele><time>2026-04-25T10:16:46Z</time></trkpt><trkpt lat="39.6183571347101" lon="8.879497207677739"><ele>321.25</ele><time>2026-04-25T10:16:47Z</time></trkpt><trkpt lat="39.61825487290216" lon="8.87956103982794"><ele>323.0</ele><time>2026-04-25T10:16:48Z</time></trkpt><trkpt lat="39.618155518450315" lon="8.8796297790641"><ele>323.0</ele><time>2026-04-25T10:16:49Z</time></trkpt><trkpt lat="39.618060636794" lon="8.879710581929235"><ele>323.0</ele><time>2026-04-25T10:16:50Z</time></trkpt><trkpt lat="39.617971377408566" lon="8.879805236669432"><ele>323.0</ele><time>2026-04-25T10:16:51Z</time></trkpt><trkpt lat="39.617884790622576" lon="8.879915775022935"><ele>323.0</ele><time>2026-04-25T10:16:52Z</time></trkpt><trkpt lat="39.617803766681824" lon="8.880041503926828"><ele>320.5</ele><time>2026-04-25T10:16:53Z</time></trkpt><trkpt lat="39.61771621329111" lon="8.880169912191427"><ele>318.0</ele><time>2026-04-25T10:16:54Z</time></trkpt><trkpt lat="39.617647329395226" lon="8.880324880101995"><ele>315.5</ele><time>2026-04-25T10:16:55Z</time></trkpt><trkpt lat="39.61759533188443" lon="8.880493140243809"><ele>313.0</ele><time>2026-04-25T10:16:56Z</time></trkpt><trkpt lat="39.617514723614484" lon="8.880647206365987"><ele>313.0</ele><time>2026-04-25T10:16:57Z</time></trkpt><trkpt lat="39.617448675949944" lon="8.880817017010392"><ele>313.0</ele><time>2026-04-25T10:16:58Z</time></trkpt><trkpt lat="39.61738240179276" lon="8.880989846011465"><ele>313.0</ele><time>2026-04-25T10:16:59Z</time></trkpt><trkpt lat="39.61731535169163" lon="8.881167667383979"><ele>313.0</ele><time>2026-04-25T10:17:00Z</time></trkpt><trkpt lat="39.61724846627639" lon="8.881350200915515"><ele>310.66666666666663</ele><time>2026-04-25T10:17:01Z</time></trkpt><trkpt lat="39.61718128752284" lon="8.881536136186128"><ele>308.3333333333333</ele><time>2026-04-25T10:17:02Z</time></trkpt><trkpt lat="39.61711667961598" lon="8.881723606000223"><ele>306.0</ele><time>2026-04-25T10:17:03Z</time></trkpt><trkpt lat="39.61705253691031" lon="8.881906791943818"><ele>304.3333333333333</ele><time>2026-04-25T10:17:04Z</time></trkpt><trkpt lat="39.6169863404871" lon="8.882083833037004"><ele>302.66666666666663</ele><time>2026-04-25T10:17:05Z</time></trkpt><trkpt lat="39.616924754162966" lon="8.882268575892072"><ele>301.0</ele><time>2026-04-25T10:17:06Z</time></trkpt><trkpt lat="39.61684056010827" lon="8.882435773862056"><ele>300.66666666666663</ele><time>2026-04-25T10:17:07Z</time></trkpt><trkpt lat="39.61674750216268" lon="8.882595861012284"><ele>300.3333333333333</ele><time>2026-04-25T10:17:08Z</time></trkpt><trkpt lat="39.61664515421108" lon="8.882751153396493"><ele>300.0</ele><time>2026-04-25T10:17:09Z</time></trkpt><trkpt lat="39.61653931519813" lon="8.882910136505586"><ele>300.0</ele><time>2026-04-25T10:17:10Z</time></trkpt><trkpt lat="39.6164338998711" lon="8.883067483117287"><ele>300.0</ele><time>2026-04-25T10:17:11Z</time></trkpt><trkpt lat="39.61632851829065" lon="8.883222146781147"><ele>300.0</ele><time>2026-04-25T10:17:12Z</time></trkpt><trkpt lat="39.61622537019756" lon="8.883373821858028"><ele>298.6666666666667</ele><time>2026-04-25T10:17:13Z</time></trkpt><trkpt lat="39.61612452733692" lon="8.883521768903618"><ele>297.33333333333337</ele><time>2026-04-25T10:17:14Z</time></trkpt><trkpt lat="39.61602424161066" lon="8.883671069377629"><ele>296.0</ele><time>2026-04-25T10:17:15Z</time></trkpt><trkpt lat="39.61592497941193" lon="8.883821987968656"><ele>296.0</ele><time>2026-04-25T10:17:16Z</time></trkpt><trkpt lat="39.61582979853842" lon="8.88396679875015"><ele>296.0</ele><time>2026-04-25T10:17:17Z</time></trkpt><trkpt lat="39.6157372308756" lon="8.884105987413305"><ele>296.0</ele><time>2026-04-25T10:17:18Z</time></trkpt><trkpt lat="39.61564869532004" lon="8.88424237980331"><ele>296.0</ele><time>2026-04-25T10:17:19Z</time></trkpt><trkpt lat="39.615574524882334" lon="8.88438099542107"><ele>294.0</ele><time>2026-04-25T10:17:20Z</time></trkpt><trkpt lat="39.61549488678891" lon="8.884506385765999"><ele>292.0</ele><time>2026-04-25T10:17:21Z</time></trkpt><trkpt lat="39.61543605914721" lon="8.884644600896017"><ele>290.0</ele><time>2026-04-25T10:17:22Z</time></trkpt><trkpt lat="39.615384205971644" lon="8.884778571062913"><ele>288.0</ele><time>2026-04-25T10:17:23Z</time></trkpt><trkpt lat="39.615334540917544" lon="8.884906887583282"><ele>288.2</ele><time>2026-04-25T10:17:24Z</time></trkpt><trkpt lat="39.615282215996864" lon="8.885026389159677"><ele>288.4</ele><time>2026-04-25T10:17:25Z</time></trkpt><trkpt lat="39.61523317752119" lon="8.885146263982271"><ele>288.59999999999997</ele><time>2026-04-25T10:17:26Z</time></trkpt><trkpt lat="39.615162123281536" lon="8.88524663321229"><ele>288.8</ele><time>2026-04-25T10:17:27Z</time></trkpt><trkpt lat="39.615086330891714" lon="8.88534440018263"><ele>289.0</ele><time>2026-04-25T10:17:28Z</time></trkpt><trkpt lat="39.614992593670436" lon="8.885431847560534"><ele>289.0</ele><time>2026-04-25T10:17:29Z</time></trkpt><trkpt lat="39.614892986445746" lon="8.8855169937379"><ele>289.0</ele><time>2026-04-25T10:17:30Z</time></trkpt><trkpt lat="39.61478679045522" lon="8.885604050518417"><ele>289.0</ele><time>2026-04-25T10:17:31Z</time></trkpt><trkpt lat="39.61467244505936" lon="8.885687477940946"><ele>289.0</ele><time>2026-04-25T10:17:32Z</time></trkpt><trkpt lat="39.6145588509692" lon="8.885777883786751"><ele>288.75</ele><time>2026-04-25T10:17:33Z</time></trkpt><trkpt lat="39.614458721519384" lon="8.885882939439147"><ele>288.5</ele><time>2026-04-25T10:17:34Z</time></trkpt><trkpt lat="39.614372696513286" lon="8.886002511848966"><ele>288.25</ele><time>2026-04-25T10:17:35Z</time></trkpt><trkpt lat="39.61430641205229" lon="8.886126512571153"><ele>288.0</ele><time>2026-04-25T10:17:36Z</time></trkpt><trkpt lat="39.61424333326321" lon="8.886243804042682"><ele>288.0</ele><time>2026-04-25T10:17:37Z</time></trkpt><trkpt lat="39.61417487697297" lon="8.886357159670448"><ele>288.0</ele><time>2026-04-25T10:17:38Z</time></trkpt><trkpt lat="39.61408981304296" lon="8.88645796591135"><ele>288.0</ele><time>2026-04-25T10:17:39Z</time></trkpt><trkpt lat="39.614000348047995" lon="8.886541270722224"><ele>288.0</ele><time>2026-04-25T10:17:40Z</time></trkpt><trkpt lat="39.61392502943754" lon="8.886596710515748"><ele>288.0</ele><time>2026-04-25T10:17:41Z</time></trkpt><trkpt lat="39.613859791824865" lon="8.886617324226407"><ele>288.0</ele><time>2026-04-25T10:17:42Z</time></trkpt><trkpt lat="39.61379678042088" lon="8.886680287649881"><ele>288.0</ele><time>2026-04-25T10:17:44Z</time></trkpt><trkpt lat="39.61371770224058" lon="8.886706365645065"><ele>288.0</ele><time>2026-04-25T10:17:46Z</time></trkpt><trkpt lat="39.613625649992336" lon="8.886783702667651"><ele>288.0</ele><time>2026-04-25T10:17:48Z</time></trkpt><trkpt lat="39.613557122612534" lon="8.886803592306647"><ele>288.0</ele><time>2026-04-25T10:17:49Z</time></trkpt><trkpt lat="39.61348915210465" lon="8.886848256973009"><ele>288.0</ele><time>2026-04-25T10:17:50Z</time></trkpt><trkpt lat="39.613421275910326" lon="8.886911861410274"><ele>285.8</ele><time>2026-04-25T10:17:51Z</time></trkpt><trkpt lat="39.61334083611272" lon="8.886965797436206"><ele>283.6</ele><time>2026-04-25T10:17:52Z</time></trkpt><trkpt lat="39.61325033124774" lon="8.886994310603532"><ele>281.4</ele><time>2026-04-25T10:17:53Z</time></trkpt><trkpt lat="39.61316183591493" lon="8.88703764548421"><ele>279.2</ele><time>2026-04-25T10:17:54Z</time></trkpt><trkpt lat="39.61307425776937" lon="8.887090485028827"><ele>277.0</ele><time>2026-04-25T10:17:55Z</time></trkpt><trkpt lat="39.61297942934628" lon="8.887112492836671"><ele>277.0</ele><time>2026-04-25T10:17:56Z</time></trkpt><trkpt lat="39.61288365133656" lon="8.887137344005593"><ele>277.0</ele><time>2026-04-25T10:17:57Z</time></trkpt><trkpt lat="39.612785334573516" lon="8.887160497377522"><ele>277.0</ele><time>2026-04-25T10:17:58Z</time></trkpt><trkpt lat="39.61268277653176" lon="8.887181798211172"><ele>277.0</ele><time>2026-04-25T10:17:59Z</time></trkpt><trkpt lat="39.6125756208376" lon="8.887205006170916"><ele>277.0</ele><time>2026-04-25T10:18:00Z</time></trkpt><trkpt lat="39.612465432016855" lon="8.88722615900973"><ele>279.5</ele><time>2026-04-25T10:18:01Z</time></trkpt><trkpt lat="39.61235045083813" lon="8.887249645299324"><ele>282.0</ele><time>2026-04-25T10:18:02Z</time></trkpt><trkpt lat="39.61222869300862" lon="8.887276303733824"><ele>284.5</ele><time>2026-04-25T10:18:03Z</time></trkpt><trkpt lat="39.612102367822594" lon="8.887299529935598"><ele>287.0</ele><time>2026-04-25T10:18:04Z</time></trkpt><trkpt lat="39.61197212556824" lon="8.88732038951221"><ele>287.0</ele><time>2026-04-25T10:18:05Z</time></trkpt><trkpt lat="39.61184070612936" lon="8.887346360547815"><ele>287.0</ele><time>2026-04-25T10:18:06Z</time></trkpt><trkpt lat="39.611707431584705" lon="8.887374890021059"><ele>287.0</ele><time>2026-04-25T10:18:07Z</time></trkpt><trkpt lat="39.611571355214835" lon="8.887399677155914"><ele>287.0</ele><time>2026-04-25T10:18:08Z</time></trkpt><trkpt lat="39.61143550477957" lon="8.887425201159195"><ele>287.0</ele><time>2026-04-25T10:18:09Z</time></trkpt><trkpt lat="39.611299791849014" lon="8.887451682730337"><ele>287.0</ele><time>2026-04-25T10:18:10Z</time></trkpt><trkpt lat="39.6111645472269" lon="8.88747754801066"><ele>287.0</ele><time>2026-04-25T10:18:11Z</time></trkpt><trkpt lat="39.61103106699638" lon="8.887500429265108"><ele>287.0</ele><time>2026-04-25T10:18:12Z</time></trkpt><trkpt lat="39.610899569426536" lon="8.887519934162219"><ele>287.25</ele><time>2026-04-25T10:18:13Z</time></trkpt><trkpt lat="39.610768235918115" lon="8.887544158195029"><ele>287.5</ele><time>2026-04-25T10:18:14Z</time></trkpt><trkpt lat="39.61063845783479" lon="8.887575781445776"><ele>287.75</ele><time>2026-04-25T10:18:15Z</time></trkpt><trkpt lat="39.610508629699204" lon="8.887613481881509"><ele>288.0</ele><time>2026-04-25T10:18:16Z</time></trkpt><trkpt lat="39.61037866482494" lon="8.887656386044103"><ele>288.0</ele><time>2026-04-25T10:18:17Z</time></trkpt><trkpt lat="39.61024931593213" lon="8.887707199071732"><ele>288.0</ele><time>2026-04-25T10:18:18Z</time></trkpt><trkpt lat="39.610120140977784" lon="8.887758443537066"><ele>288.0</ele><time>2026-04-25T10:18:19Z</time></trkpt><trkpt lat="39.609987618374774" lon="8.887811036636295"><ele>288.0</ele><time>2026-04-25T10:18:20Z</time></trkpt><trkpt lat="39.60985608917385" lon="8.88787057426211"><ele>288.0</ele><time>2026-04-25T10:18:21Z</time></trkpt><trkpt lat="39.60972593283945" lon="8.887930104414382"><ele>288.0</ele><time>2026-04-25T10:18:22Z</time></trkpt><trkpt lat="39.609596279278655" lon="8.887995420453727"><ele>288.0</ele><time>2026-04-25T10:18:23Z</time></trkpt><trkpt lat="39.609470554653086" lon="8.88807000512276"><ele>288.0</ele><time>2026-04-25T10:18:24Z</time></trkpt><trkpt lat="39.60936361807958" lon="8.888148558858898"><ele>287.75</ele><time>2026-04-25T10:18:25Z</time></trkpt><trkpt lat="39.609255639660226" lon="8.8882284140018"><ele>287.5</ele><time>2026-04-25T10:18:26Z</time></trkpt><trkpt lat="39.609152655280575" lon="8.888312724761182"><ele>287.25</ele><time>2026-04-25T10:18:27Z</time></trkpt><trkpt lat="39.60905251328878" lon="8.888394283717046"><ele>287.0</ele><time>2026-04-25T10:18:28Z</time></trkpt><trkpt lat="39.60895728949263" lon="8.888473619480774"><ele>287.0</ele><time>2026-04-25T10:18:29Z</time></trkpt><trkpt lat="39.608860354196636" lon="8.888553174837886"><ele>287.0</ele><time>2026-04-25T10:18:30Z</time></trkpt><trkpt lat="39.60876130654371" lon="8.888630777437166"><ele>287.0</ele><time>2026-04-25T10:18:31Z</time></trkpt><trkpt lat="39.6086589932035" lon="8.888704286887089"><ele>287.0</ele><time>2026-04-25T10:18:32Z</time></trkpt><trkpt lat="39.608549625853776" lon="8.888767932549447"><ele>286.75</ele><time>2026-04-25T10:18:33Z</time></trkpt><trkpt lat="39.60843507685929" lon="8.888823820646827"><ele>286.5</ele><time>2026-04-25T10:18:34Z</time></trkpt><trkpt lat="39.60831428174457" lon="8.88887902338393"><ele>286.25</ele><time>2026-04-25T10:18:35Z</time></trkpt><trkpt lat="39.60818813440788" lon="8.88893056166553"><ele>286.0</ele><time>2026-04-25T10:18:36Z</time></trkpt><trkpt lat="39.60805830415041" lon="8.88897920425412"><ele>286.0</ele><time>2026-04-25T10:18:37Z</time></trkpt><trkpt lat="39.607925657873025" lon="8.889025994000813"><ele>286.0</ele><time>2026-04-25T10:18:38Z</time></trkpt><trkpt lat="39.60779046565611" lon="8.889072123570076"><ele>286.0</ele><time>2026-04-25T10:18:39Z</time></trkpt><trkpt lat="39.60765470757398" lon="8.88910873108854"><ele>286.0</ele><time>2026-04-25T10:18:40Z</time></trkpt><trkpt lat="39.60752163383697" lon="8.889133243538407"><ele>286.25</ele><time>2026-04-25T10:18:41Z</time></trkpt><trkpt lat="39.607392176337896" lon="8.889146786825624"><ele>286.5</ele><time>2026-04-25T10:18:42Z</time></trkpt><trkpt lat="39.607268301180305" lon="8.889159055711128"><ele>286.75</ele><time>2026-04-25T10:18:43Z</time></trkpt><trkpt lat="39.60715763875787" lon="8.889165895519833"><ele>287.0</ele><time>2026-04-25T10:18:44Z</time></trkpt><trkpt lat="39.60706733797638" lon="8.889164757808501"><ele>287.6</ele><time>2026-04-25T10:18:45Z</time></trkpt><trkpt lat="39.606992588863925" lon="8.889160811899139"><ele>288.2</ele><time>2026-04-25T10:18:46Z</time></trkpt><trkpt lat="39.60687820276372" lon="8.889143752143438"><ele>288.8</ele><time>2026-04-25T10:18:48Z</time></trkpt><trkpt lat="39.60679150781719" lon="8.88912765997909"><ele>289.4</ele><time>2026-04-25T10:18:50Z</time></trkpt><trkpt lat="39.606701922590055" lon="8.889118901256277"><ele>290.0</ele><time>2026-04-25T10:18:52Z</time></trkpt><trkpt lat="39.60660860333691" lon="8.889114966187941"><ele>290.0</ele><time>2026-04-25T10:18:54Z</time></trkpt><trkpt lat="39.60649559888619" lon="8.889113905384816"><ele>290.0</ele><time>2026-04-25T10:18:56Z</time></trkpt><trkpt lat="39.60642844897764" lon="8.889130421197274"><ele>290.0</ele><time>2026-04-25T10:18:57Z</time></trkpt><trkpt lat="39.60635230286446" lon="8.889156642109707"><ele>290.0</ele><time>2026-04-25T10:18:58Z</time></trkpt><trkpt lat="39.60626963983174" lon="8.889193465376174"><ele>290.0</ele><time>2026-04-25T10:18:59Z</time></trkpt><trkpt lat="39.60618228401653" lon="8.88922958363219"><ele>290.0</ele><time>2026-04-25T10:19:00Z</time></trkpt><trkpt lat="39.606090893825986" lon="8.889264244731255"><ele>288.0</ele><time>2026-04-25T10:19:01Z</time></trkpt><trkpt lat="39.60599763326686" lon="8.88930827077837"><ele>286.0</ele><time>2026-04-25T10:19:02Z</time></trkpt><trkpt lat="39.605896675878306" lon="8.889362046202502"><ele>284.0</ele><time>2026-04-25T10:19:03Z</time></trkpt><trkpt lat="39.60578804640777" lon="8.889417815420925"><ele>282.0</ele><time>2026-04-25T10:19:04Z</time></trkpt><trkpt lat="39.60566992572982" lon="8.889471184415692"><ele>282.0</ele><time>2026-04-25T10:19:05Z</time></trkpt><trkpt lat="39.605542745823875" lon="8.889522147826012"><ele>282.0</ele><time>2026-04-25T10:19:06Z</time></trkpt><trkpt lat="39.60540632184695" lon="8.889559462390187"><ele>282.0</ele><time>2026-04-25T10:19:07Z</time></trkpt><trkpt lat="39.605261895672534" lon="8.889575022536645"><ele>282.0</ele><time>2026-04-25T10:19:08Z</time></trkpt><trkpt lat="39.60511096990081" lon="8.889580136053725"><ele>280.75</ele><time>2026-04-25T10:19:09Z</time></trkpt><trkpt lat="39.60496251826324" lon="8.889587491660745"><ele>279.5</ele><time>2026-04-25T10:19:10Z</time></trkpt><trkpt lat="39.604816394395876" lon="8.88960878879229"><ele>278.25</ele><time>2026-04-25T10:19:11Z</time></trkpt><trkpt lat="39.60467611871356" lon="8.889663713657528"><ele>277.0</ele><time>2026-04-25T10:19:12Z</time></trkpt><trkpt lat="39.60454237356296" lon="8.889735384158683"><ele>277.0</ele><time>2026-04-25T10:19:13Z</time></trkpt><trkpt lat="39.60440492212177" lon="8.889793421906953"><ele>277.0</ele><time>2026-04-25T10:19:14Z</time></trkpt><trkpt lat="39.60427534185757" lon="8.889823065401124"><ele>277.0</ele><time>2026-04-25T10:19:15Z</time></trkpt><trkpt lat="39.60415853633675" lon="8.889817744730594"><ele>277.0</ele><time>2026-04-25T10:19:16Z</time></trkpt><trkpt lat="39.60404671585608" lon="8.889760390708398"><ele>277.0</ele><time>2026-04-25T10:19:17Z</time></trkpt><trkpt lat="39.60394661673044" lon="8.889671500581297"><ele>277.0</ele><time>2026-04-25T10:19:18Z</time></trkpt><trkpt lat="39.60384379421273" lon="8.889573172899105"><ele>277.0</ele><time>2026-04-25T10:19:19Z</time></trkpt><trkpt lat="39.60373291932866" lon="8.889477689624295"><ele>277.0</ele><time>2026-04-25T10:19:20Z</time></trkpt><trkpt lat="39.603614155142914" lon="8.88938108772669"><ele>277.25</ele><time>2026-04-25T10:19:21Z</time></trkpt><trkpt lat="39.60349475229994" lon="8.889281025580305"><ele>277.5</ele><time>2026-04-25T10:19:22Z</time></trkpt><trkpt lat="39.60337133924092" lon="8.889182400528943"><ele>277.75</ele><time>2026-04-25T10:19:23Z</time></trkpt><trkpt lat="39.60324198493155" lon="8.889092522243823"><ele>278.0</ele><time>2026-04-25T10:19:24Z</time></trkpt><trkpt lat="39.60310967809699" lon="8.889005785263386"><ele>276.0</ele><time>2026-04-25T10:19:25Z</time></trkpt><trkpt lat="39.602978892762344" lon="8.88892441468045"><ele>274.0</ele><time>2026-04-25T10:19:26Z</time></trkpt><trkpt lat="39.602847838920276" lon="8.88884786044117"><ele>272.0</ele><time>2026-04-25T10:19:27Z</time></trkpt><trkpt lat="39.60271447586288" lon="8.888778621136181"><ele>270.0</ele><time>2026-04-25T10:19:28Z</time></trkpt><trkpt lat="39.60258229075565" lon="8.888716668103124"><ele>269.25</ele><time>2026-04-25T10:19:29Z</time></trkpt><trkpt lat="39.60244905728725" lon="8.888657228067302"><ele>268.5</ele><time>2026-04-25T10:19:30Z</time></trkpt><trkpt lat="39.602312240826606" lon="8.888601774281174"><ele>267.75</ele><time>2026-04-25T10:19:31Z</time></trkpt><trkpt lat="39.6021724452184" lon="8.88855270354792"><ele>267.0</ele><time>2026-04-25T10:19:32Z</time></trkpt><trkpt lat="39.602029873214974" lon="8.88850673185765"><ele>267.25</ele><time>2026-04-25T10:19:33Z</time></trkpt><trkpt lat="39.60188827189624" lon="8.888460257165447"><ele>267.5</ele><time>2026-04-25T10:19:34Z</time></trkpt><trkpt lat="39.6017489063467" lon="8.888410242838399"><ele>267.75</ele><time>2026-04-25T10:19:35Z</time></trkpt><trkpt lat="39.60160993010593" lon="8.888363509898419"><ele>268.0</ele><time>2026-04-25T10:19:36Z</time></trkpt><trkpt lat="39.60147121089618" lon="8.888317413425575"><ele>268.0</ele><time>2026-04-25T10:19:37Z</time></trkpt><trkpt lat="39.60135706800211" lon="8.888275762964376"><ele>268.0</ele><time>2026-04-25T10:19:38Z</time></trkpt><trkpt lat="39.60123355247612" lon="8.888229144502091"><ele>268.0</ele><time>2026-04-25T10:19:39Z</time></trkpt><trkpt lat="39.601111800080766" lon="8.888180338891665"><ele>268.0</ele><time>2026-04-25T10:19:40Z</time></trkpt><trkpt lat="39.60098987107561" lon="8.888147651432167"><ele>268.0</ele><time>2026-04-25T10:19:41Z</time></trkpt><trkpt lat="39.600867668200515" lon="8.888117931281888"><ele>268.0</ele><time>2026-04-25T10:19:42Z</time></trkpt><trkpt lat="39.60074842147236" lon="8.888061706326633"><ele>268.0</ele><time>2026-04-25T10:19:43Z</time></trkpt><trkpt lat="39.60062654924851" lon="8.888033285266578"><ele>268.0</ele><time>2026-04-25T10:19:44Z</time></trkpt><trkpt lat="39.60050735387115" lon="8.88799484814498"><ele>268.0</ele><time>2026-04-25T10:19:45Z</time></trkpt><trkpt lat="39.60038973706767" lon="8.8879637770943"><ele>268.0</ele><time>2026-04-25T10:19:46Z</time></trkpt><trkpt lat="39.600269847352905" lon="8.887954772951058"><ele>268.0</ele><time>2026-04-25T10:19:47Z</time></trkpt><trkpt lat="39.600147280772084" lon="8.887965540866476"><ele>268.0</ele><time>2026-04-25T10:19:48Z</time></trkpt><trkpt lat="39.60002237957453" lon="8.887991376107781"><ele>267.75</ele><time>2026-04-25T10:19:49Z</time></trkpt><trkpt lat="39.599896179618455" lon="8.888011696033699"><ele>267.5</ele><time>2026-04-25T10:19:50Z</time></trkpt><trkpt lat="39.5997635474878" lon="8.888025437457944"><ele>267.25</ele><time>2026-04-25T10:19:51Z</time></trkpt><trkpt lat="39.59963405556074" lon="8.888043135441812"><ele>267.0</ele><time>2026-04-25T10:19:52Z</time></trkpt><trkpt lat="39.599504985697386" lon="8.888061250420538"><ele>264.0</ele><time>2026-04-25T10:19:53Z</time></trkpt><trkpt lat="39.599375422139914" lon="8.888082497574723"><ele>261.0</ele><time>2026-04-25T10:19:54Z</time></trkpt><trkpt lat="39.59924601865739" lon="8.888092579349099"><ele>258.0</ele><time>2026-04-25T10:19:55Z</time></trkpt><trkpt lat="39.59912484992664" lon="8.888115546695419"><ele>255.0</ele><time>2026-04-25T10:19:56Z</time></trkpt><trkpt lat="39.59900353745515" lon="8.888145204851753"><ele>255.0</ele><time>2026-04-25T10:19:57Z</time></trkpt><trkpt lat="39.59888003233161" lon="8.888187596167098"><ele>255.0</ele><time>2026-04-25T10:19:58Z</time></trkpt><trkpt lat="39.59876453669554" lon="8.888246332437442"><ele>255.0</ele><time>2026-04-25T10:19:59Z</time></trkpt><trkpt lat="39.59864889090558" lon="8.888293842904764"><ele>255.0</ele><time>2026-04-25T10:20:00Z</time></trkpt><trkpt lat="39.598527276359775" lon="8.888324491812048"><ele>252.75</ele><time>2026-04-25T10:20:01Z</time></trkpt><trkpt lat="39.59840495842907" lon="8.888323231902383"><ele>250.5</ele><time>2026-04-25T10:20:02Z</time></trkpt><trkpt lat="39.598296947094425" lon="8.888256338639854"><ele>248.25</ele><time>2026-04-25T10:20:03Z</time></trkpt><trkpt lat="39.59820016173286" lon="8.888171677377565"><ele>246.0</ele><time>2026-04-25T10:20:04Z</time></trkpt><trkpt lat="39.5981000374684" lon="8.88807528693205"><ele>246.0</ele><time>2026-04-25T10:20:05Z</time></trkpt><trkpt lat="39.59802049749768" lon="8.88795459097456"><ele>246.0</ele><time>2026-04-25T10:20:06Z</time></trkpt><trkpt lat="39.59793425888419" lon="8.887837221151985"><ele>246.0</ele><time>2026-04-25T10:20:07Z</time></trkpt><trkpt lat="39.59782534443466" lon="8.887739162189755"><ele>246.0</ele><time>2026-04-25T10:20:08Z</time></trkpt><trkpt lat="39.59769814050811" lon="8.88765863863789"><ele>245.0</ele><time>2026-04-25T10:20:09Z</time></trkpt><trkpt lat="39.59756757085958" lon="8.887577757974537"><ele>244.0</ele><time>2026-04-25T10:20:10Z</time></trkpt><trkpt lat="39.59744718643276" lon="8.88749087605606"><ele>243.0</ele><time>2026-04-25T10:20:11Z</time></trkpt><trkpt lat="39.59733198591386" lon="8.887407350770921"><ele>242.0</ele><time>2026-04-25T10:20:12Z</time></trkpt><trkpt lat="39.597209216440056" lon="8.887338269798063"><ele>242.0</ele><time>2026-04-25T10:20:13Z</time></trkpt><trkpt lat="39.59707451922437" lon="8.887297249202463"><ele>242.0</ele><time>2026-04-25T10:20:14Z</time></trkpt><trkpt lat="39.596941631291116" lon="8.887274611310108"><ele>242.0</ele><time>2026-04-25T10:20:15Z</time></trkpt><trkpt lat="39.59681353148819" lon="8.887253170965694"><ele>242.0</ele><time>2026-04-25T10:20:16Z</time></trkpt><trkpt lat="39.59669477523873" lon="8.887220218301843"><ele>242.75</ele><time>2026-04-25T10:20:17Z</time></trkpt><trkpt lat="39.59658043169041" lon="8.88717430137258"><ele>243.5</ele><time>2026-04-25T10:20:18Z</time></trkpt><trkpt lat="39.59646929466082" lon="8.887120075200297"><ele>244.25</ele><time>2026-04-25T10:20:19Z</time></trkpt><trkpt lat="39.59636197484149" lon="8.887048693893256"><ele>245.0</ele><time>2026-04-25T10:20:20Z</time></trkpt><trkpt lat="39.59626376486464" lon="8.886945725223407"><ele>245.0</ele><time>2026-04-25T10:20:21Z</time></trkpt><trkpt lat="39.59617280641971" lon="8.886822993210876"><ele>245.0</ele><time>2026-04-25T10:20:22Z</time></trkpt><trkpt lat="39.596078874449674" lon="8.886697582893996"><ele>245.0</ele><time>2026-04-25T10:20:23Z</time></trkpt><trkpt lat="39.59597669739355" lon="8.88657018030317"><ele>245.0</ele><time>2026-04-25T10:20:24Z</time></trkpt><trkpt lat="39.59587273664195" lon="8.886435288295065"><ele>242.75</ele><time>2026-04-25T10:20:25Z</time></trkpt><trkpt lat="39.59577085300382" lon="8.886295241859727"><ele>240.5</ele><time>2026-04-25T10:20:26Z</time></trkpt><trkpt lat="39.59566413000841" lon="8.886158687235064"><ele>238.25</ele><time>2026-04-25T10:20:27Z</time></trkpt><trkpt lat="39.59554992810419" lon="8.886032734402203"><ele>236.0</ele><time>2026-04-25T10:20:28Z</time></trkpt><trkpt lat="39.5954255886699" lon="8.885923569974674"><ele>234.5</ele><time>2026-04-25T10:20:29Z</time></trkpt><trkpt lat="39.59529551120396" lon="8.885840105938223"><ele>233.0</ele><time>2026-04-25T10:20:30Z</time></trkpt><trkpt lat="39.595161207008516" lon="8.885774555280454"><ele>231.5</ele><time>2026-04-25T10:20:31Z</time></trkpt><trkpt lat="39.59502201897971" lon="8.885739069769487"><ele>230.0</ele><time>2026-04-25T10:20:32Z</time></trkpt><trkpt lat="39.59488039308333" lon="8.885734317673906"><ele>230.0</ele><time>2026-04-25T10:20:33Z</time></trkpt><trkpt lat="39.594738613031005" lon="8.88575869121914"><ele>230.0</ele><time>2026-04-25T10:20:34Z</time></trkpt><trkpt lat="39.59459923474266" lon="8.885797389839185"><ele>230.0</ele><time>2026-04-25T10:20:35Z</time></trkpt><trkpt lat="39.594458232164015" lon="8.885808388198523"><ele>230.0</ele><time>2026-04-25T10:20:36Z</time></trkpt><trkpt lat="39.594318110310276" lon="8.885834925489464"><ele>229.75</ele><time>2026-04-25T10:20:37Z</time></trkpt><trkpt lat="39.59417858616029" lon="8.88585925551973"><ele>229.5</ele><time>2026-04-25T10:20:38Z</time></trkpt><trkpt lat="39.594041473365436" lon="8.885900894535412"><ele>229.25</ele><time>2026-04-25T10:20:39Z</time></trkpt><trkpt lat="39.59390173465526" lon="8.885913146079426"><ele>229.0</ele><time>2026-04-25T10:20:40Z</time></trkpt><trkpt lat="39.593764187692955" lon="8.885930546078413"><ele>230.75</ele><time>2026-04-25T10:20:41Z</time></trkpt><trkpt lat="39.59362746308818" lon="8.88594724464142"><ele>232.5</ele><time>2026-04-25T10:20:42Z</time></trkpt><trkpt lat="39.5934896742937" lon="8.885958658189471"><ele>234.25</ele><time>2026-04-25T10:20:43Z</time></trkpt><trkpt lat="39.593349920802524" lon="8.88595598361627"><ele>236.0</ele><time>2026-04-25T10:20:44Z</time></trkpt><trkpt lat="39.593207018939374" lon="8.885937086612376"><ele>233.5</ele><time>2026-04-25T10:20:45Z</time></trkpt><trkpt lat="39.59306249766826" lon="8.885906726506729"><ele>231.0</ele><time>2026-04-25T10:20:46Z</time></trkpt><trkpt lat="39.59291489406165" lon="8.885881314872105"><ele>228.5</ele><time>2026-04-25T10:20:47Z</time></trkpt><trkpt lat="39.59277459149104" lon="8.885858843471768"><ele>226.0</ele><time>2026-04-25T10:20:48Z</time></trkpt><trkpt lat="39.5926482391701" lon="8.88585914792484"><ele>226.4</ele><time>2026-04-25T10:20:49Z</time></trkpt><trkpt lat="39.59254623755775" lon="8.885890537907443"><ele>226.8</ele><time>2026-04-25T10:20:50Z</time></trkpt><trkpt lat="39.592473431951355" lon="8.8859669304661"><ele>227.20000000000002</ele><time>2026-04-25T10:20:51Z</time></trkpt><trkpt lat="39.59241752281876" lon="8.88609531486313"><ele>227.60000000000002</ele><time>2026-04-25T10:20:52Z</time></trkpt><trkpt lat="39.59235165428394" lon="8.886239808802902"><ele>228.0</ele><time>2026-04-25T10:20:53Z</time></trkpt><trkpt lat="39.59228109709088" lon="8.886387975185556"><ele>228.0</ele><time>2026-04-25T10:20:54Z</time></trkpt><trkpt lat="39.59220171099349" lon="8.886527454912242"><ele>228.0</ele><time>2026-04-25T10:20:55Z</time></trkpt><trkpt lat="39.59210750249853" lon="8.886644972201255"><ele>228.0</ele><time>2026-04-25T10:20:56Z</time></trkpt><trkpt lat="39.59200109221129" lon="8.886740060945503"><ele>228.0</ele><time>2026-04-25T10:20:57Z</time></trkpt><trkpt lat="39.59189920056369" lon="8.88684919074359"><ele>227.75</ele><time>2026-04-25T10:20:58Z</time></trkpt><trkpt lat="39.59179283487378" lon="8.886938343670177"><ele>227.5</ele><time>2026-04-25T10:20:59Z</time></trkpt><trkpt lat="39.591697858427224" lon="8.887023640928325"><ele>227.25</ele><time>2026-04-25T10:21:00Z</time></trkpt><trkpt lat="39.591617295457816" lon="8.88711681505154"><ele>227.0</ele><time>2026-04-25T10:21:01Z</time></trkpt><trkpt lat="39.59153729172132" lon="8.8872250065213"><ele>227.0</ele><time>2026-04-25T10:21:02Z</time></trkpt><trkpt lat="39.59145682976939" lon="8.887340593832326"><ele>227.0</ele><time>2026-04-25T10:21:03Z</time></trkpt><trkpt lat="39.59137578605264" lon="8.887457876464484"><ele>227.0</ele><time>2026-04-25T10:21:04Z</time></trkpt><trkpt lat="39.59129521917522" lon="8.887581100325976"><ele>227.0</ele><time>2026-04-25T10:21:05Z</time></trkpt><trkpt lat="39.591219358122004" lon="8.887714887821897"><ele>225.0</ele><time>2026-04-25T10:21:06Z</time></trkpt><trkpt lat="39.59113453314198" lon="8.887848767686005"><ele>223.0</ele><time>2026-04-25T10:21:07Z</time></trkpt><trkpt lat="39.591048717337316" lon="8.887986759338451"><ele>221.0</ele><time>2026-04-25T10:21:08Z</time></trkpt><trkpt lat="39.590957096879904" lon="8.888130628859964"><ele>219.0</ele><time>2026-04-25T10:21:09Z</time></trkpt><trkpt lat="39.59086720930983" lon="8.88827617085366"><ele>219.0</ele><time>2026-04-25T10:21:10Z</time></trkpt><trkpt lat="39.59077416487484" lon="8.888421756330512"><ele>219.0</ele><time>2026-04-25T10:21:11Z</time></trkpt><trkpt lat="39.59068141208747" lon="8.888568101546426"><ele>219.0</ele><time>2026-04-25T10:21:12Z</time></trkpt><trkpt lat="39.59059148406618" lon="8.88871839238018"><ele>219.0</ele><time>2026-04-25T10:21:13Z</time></trkpt><trkpt lat="39.59048368640551" lon="8.888842094911064"><ele>219.0</ele><time>2026-04-25T10:21:14Z</time></trkpt><trkpt lat="39.59038298520121" lon="8.888958078838103"><ele>219.0</ele><time>2026-04-25T10:21:15Z</time></trkpt><trkpt lat="39.59026608598254" lon="8.889024581768508"><ele>219.0</ele><time>2026-04-25T10:21:16Z</time></trkpt><trkpt lat="39.59013848430294" lon="8.889057553152119"><ele>219.0</ele><time>2026-04-25T10:21:17Z</time></trkpt><trkpt lat="39.59000506121773" lon="8.889041095080755"><ele>219.0</ele><time>2026-04-25T10:21:18Z</time></trkpt><trkpt lat="39.58986040499756" lon="8.889016592528323"><ele>219.0</ele><time>2026-04-25T10:21:19Z</time></trkpt><trkpt lat="39.58971741141543" lon="8.889009423817354"><ele>219.0</ele><time>2026-04-25T10:21:20Z</time></trkpt><trkpt lat="39.58957976959063" lon="8.888986437557943"><ele>219.0</ele><time>2026-04-25T10:21:21Z</time></trkpt><trkpt lat="39.58945152607287" lon="8.888948130293342"><ele>219.0</ele><time>2026-04-25T10:21:22Z</time></trkpt><trkpt lat="39.589322651547185" lon="8.888953152597157"><ele>219.0</ele><time>2026-04-25T10:21:23Z</time></trkpt><trkpt lat="39.58919854569662" lon="8.888925160679717"><ele>219.0</ele><time>2026-04-25T10:21:24Z</time></trkpt><trkpt lat="39.58907139490849" lon="8.888923047149275"><ele>219.0</ele><time>2026-04-25T10:21:25Z</time></trkpt><trkpt lat="39.588941756368214" lon="8.888920583645245"><ele>219.0</ele><time>2026-04-25T10:21:26Z</time></trkpt><trkpt lat="39.58880967681641" lon="8.888921791097218"><ele>219.0</ele><time>2026-04-25T10:21:27Z</time></trkpt><trkpt lat="39.58867785092731" lon="8.888953926031354"><ele>219.0</ele><time>2026-04-25T10:21:28Z</time></trkpt><trkpt lat="39.58855166000677" lon="8.889015925151256"><ele>219.0</ele><time>2026-04-25T10:21:29Z</time></trkpt><trkpt lat="39.58843275382057" lon="8.88907905964259"><ele>219.75</ele><time>2026-04-25T10:21:30Z</time></trkpt><trkpt lat="39.588317123660566" lon="8.889132832015406"><ele>220.5</ele><time>2026-04-25T10:21:31Z</time></trkpt><trkpt lat="39.58820625129972" lon="8.88917964563041"><ele>221.25</ele><time>2026-04-25T10:21:32Z</time></trkpt><trkpt lat="39.58809469499841" lon="8.889196647122233"><ele>222.0</ele><time>2026-04-25T10:21:33Z</time></trkpt><trkpt lat="39.587976251814446" lon="8.889206175233195"><ele>221.5</ele><time>2026-04-25T10:21:34Z</time></trkpt><trkpt lat="39.587841914349575" lon="8.889198449991323"><ele>221.0</ele><time>2026-04-25T10:21:35Z</time></trkpt><trkpt lat="39.58769777719415" lon="8.889200541714871"><ele>220.5</ele><time>2026-04-25T10:21:36Z</time></trkpt><trkpt lat="39.587557168914465" lon="8.8891834809259"><ele>220.0</ele><time>2026-04-25T10:21:37Z</time></trkpt><trkpt lat="39.58741815894101" lon="8.889171305173582"><ele>220.0</ele><time>2026-04-25T10:21:38Z</time></trkpt><trkpt lat="39.587286896425404" lon="8.889164303339346"><ele>220.0</ele><time>2026-04-25T10:21:39Z</time></trkpt><trkpt lat="39.58716473204742" lon="8.88914943416516"><ele>220.0</ele><time>2026-04-25T10:21:40Z</time></trkpt><trkpt lat="39.58704111715589" lon="8.889137223394806"><ele>220.0</ele><time>2026-04-25T10:21:41Z</time></trkpt><trkpt lat="39.58691557776797" lon="8.889146666997942"><ele>219.25</ele><time>2026-04-25T10:21:42Z</time></trkpt><trkpt lat="39.58679258849149" lon="8.889159626748294"><ele>218.5</ele><time>2026-04-25T10:21:43Z</time></trkpt><trkpt lat="39.58667184446458" lon="8.889190546371594"><ele>217.75</ele><time>2026-04-25T10:21:44Z</time></trkpt><trkpt lat="39.5865515677059" lon="8.889235824670552"><ele>217.0</ele><time>2026-04-25T10:21:45Z</time></trkpt><trkpt lat="39.586429452795485" lon="8.88929050057294"><ele>217.0</ele><time>2026-04-25T10:21:46Z</time></trkpt><trkpt lat="39.58630291518427" lon="8.889350920611314"><ele>217.0</ele><time>2026-04-25T10:21:47Z</time></trkpt><trkpt lat="39.586179814040506" lon="8.889412792865151"><ele>217.0</ele><time>2026-04-25T10:21:48Z</time></trkpt><trkpt lat="39.586064172973074" lon="8.889481751013767"><ele>217.0</ele><time>2026-04-25T10:21:49Z</time></trkpt><trkpt lat="39.58594891134193" lon="8.889559093959289"><ele>217.0</ele><time>2026-04-25T10:21:50Z</time></trkpt><trkpt lat="39.585827503007955" lon="8.889644209974936"><ele>217.0</ele><time>2026-04-25T10:21:51Z</time></trkpt><trkpt lat="39.585705057723075" lon="8.889742528428643"><ele>217.0</ele><time>2026-04-25T10:21:52Z</time></trkpt><trkpt lat="39.585583496174785" lon="8.889841388297315"><ele>217.0</ele><time>2026-04-25T10:21:53Z</time></trkpt><trkpt lat="39.58546216046325" lon="8.889936730744768"><ele>216.25</ele><time>2026-04-25T10:21:54Z</time></trkpt><trkpt lat="39.585336476338085" lon="8.890008387972662"><ele>215.5</ele><time>2026-04-25T10:21:55Z</time></trkpt><trkpt lat="39.58522029647433" lon="8.89009448146554"><ele>214.75</ele><time>2026-04-25T10:21:56Z</time></trkpt><trkpt lat="39.58510941165648" lon="8.89017623851488"><ele>214.0</ele><time>2026-04-25T10:21:57Z</time></trkpt><trkpt lat="39.58500571059794" lon="8.890266299853456"><ele>215.2</ele><time>2026-04-25T10:21:58Z</time></trkpt><trkpt lat="39.58491157392725" lon="8.890355702584655"><ele>216.39999999999998</ele><time>2026-04-25T10:21:59Z</time></trkpt><trkpt lat="39.584818155451245" lon="8.89042144000937"><ele>217.6</ele><time>2026-04-25T10:22:00Z</time></trkpt><trkpt lat="39.584754876368535" lon="8.890529158755156"><ele>218.8</ele><time>2026-04-25T10:22:01Z</time></trkpt><trkpt lat="39.584685974968146" lon="8.89062071728047"><ele>220.0</ele><time>2026-04-25T10:22:02Z</time></trkpt><trkpt lat="39.58461669308983" lon="8.890711748085867"><ele>220.0</ele><time>2026-04-25T10:22:03Z</time></trkpt><trkpt lat="39.584536734083116" lon="8.890803404414399"><ele>220.0</ele><time>2026-04-25T10:22:04Z</time></trkpt><trkpt lat="39.58446114330376" lon="8.89089963174702"><ele>220.0</ele><time>2026-04-25T10:22:05Z</time></trkpt><trkpt lat="39.584384147664416" lon="8.890995045430742"><ele>220.0</ele><time>2026-04-25T10:22:06Z</time></trkpt><trkpt lat="39.58430055115033" lon="8.891089050245615"><ele>220.0</ele><time>2026-04-25T10:22:07Z</time></trkpt><trkpt lat="39.58420789893273" lon="8.891180221888025"><ele>218.25</ele><time>2026-04-25T10:22:08Z</time></trkpt><trkpt lat="39.584106761416514" lon="8.89126961712262"><ele>216.5</ele><time>2026-04-25T10:22:09Z</time></trkpt><trkpt lat="39.58400050718028" lon="8.891356749400288"><ele>214.75</ele><time>2026-04-25T10:22:10Z</time></trkpt><trkpt lat="39.58389254110516" lon="8.891441509856932"><ele>213.0</ele><time>2026-04-25T10:22:11Z</time></trkpt><trkpt lat="39.58378299183208" lon="8.891523515265838"><ele>211.5</ele><time>2026-04-25T10:22:12Z</time></trkpt><trkpt lat="39.583671674665396" lon="8.891603467795004"><ele>210.0</ele><time>2026-04-25T10:22:13Z</time></trkpt><trkpt lat="39.58356201557674" lon="8.891686257433708"><ele>208.5</ele><time>2026-04-25T10:22:14Z</time></trkpt><trkpt lat="39.58345001615489" lon="8.891766764607668"><ele>207.0</ele><time>2026-04-25T10:22:15Z</time></trkpt><trkpt lat="39.58333807944109" lon="8.891844131040667"><ele>207.0</ele><time>2026-04-25T10:22:16Z</time></trkpt><trkpt lat="39.58322544512198" lon="8.891919492357724"><ele>207.0</ele><time>2026-04-25T10:22:17Z</time></trkpt><trkpt lat="39.58311317360648" lon="8.891999499027945"><ele>207.0</ele><time>2026-04-25T10:22:18Z</time></trkpt><trkpt lat="39.58300070391689" lon="8.892079585435955"><ele>207.0</ele><time>2026-04-25T10:22:19Z</time></trkpt><trkpt lat="39.58288714422935" lon="8.892149511230581"><ele>206.0</ele><time>2026-04-25T10:22:20Z</time></trkpt><trkpt lat="39.582779431633355" lon="8.892214572341112"><ele>205.0</ele><time>2026-04-25T10:22:21Z</time></trkpt><trkpt lat="39.582673732351374" lon="8.892263796240584"><ele>204.0</ele><time>2026-04-25T10:22:22Z</time></trkpt><trkpt lat="39.58256552808295" lon="8.892301013162951"><ele>203.0</ele><time>2026-04-25T10:22:23Z</time></trkpt><trkpt lat="39.582442093035745" lon="8.892302056796998"><ele>203.0</ele><time>2026-04-25T10:22:24Z</time></trkpt><trkpt lat="39.58231066682423" lon="8.892329888170144"><ele>203.0</ele><time>2026-04-25T10:22:25Z</time></trkpt><trkpt lat="39.582175509636585" lon="8.892350449640782"><ele>203.0</ele><time>2026-04-25T10:22:26Z</time></trkpt><trkpt lat="39.58203586397786" lon="8.892374014790738"><ele>203.0</ele><time>2026-04-25T10:22:27Z</time></trkpt><trkpt lat="39.58189544083036" lon="8.892402417244583"><ele>201.5</ele><time>2026-04-25T10:22:28Z</time></trkpt><trkpt lat="39.58175619728111" lon="8.892426953327275"><ele>200.0</ele><time>2026-04-25T10:22:29Z</time></trkpt><trkpt lat="39.58162201196135" lon="8.892471381290026"><ele>198.5</ele><time>2026-04-25T10:22:30Z</time></trkpt><trkpt lat="39.58149333767819" lon="8.892519304139523"><ele>197.0</ele><time>2026-04-25T10:22:31Z</time></trkpt><trkpt lat="39.58137587026105" lon="8.892566226824533"><ele>196.75</ele><time>2026-04-25T10:22:32Z</time></trkpt><trkpt lat="39.581267993191375" lon="8.89261099741822"><ele>196.5</ele><time>2026-04-25T10:22:33Z</time></trkpt><trkpt lat="39.58115828031968" lon="8.892656192645688"><ele>196.25</ele><time>2026-04-25T10:22:34Z</time></trkpt><trkpt lat="39.58104519593528" lon="8.892705383158091"><ele>196.0</ele><time>2026-04-25T10:22:35Z</time></trkpt><trkpt lat="39.580921346371426" lon="8.892723578025532"><ele>196.0</ele><time>2026-04-25T10:22:36Z</time></trkpt><trkpt lat="39.580798605812234" lon="8.892752533394951"><ele>196.0</ele><time>2026-04-25T10:22:37Z</time></trkpt><trkpt lat="39.580673027105355" lon="8.892771586900832"><ele>196.0</ele><time>2026-04-25T10:22:38Z</time></trkpt><trkpt lat="39.5805472278289" lon="8.892804253083847"><ele>196.0</ele><time>2026-04-25T10:22:39Z</time></trkpt><trkpt lat="39.58043263229265" lon="8.892812146748465"><ele>195.66666666666666</ele><time>2026-04-25T10:22:40Z</time></trkpt><trkpt lat="39.58033910722698" lon="8.892810894114765"><ele>195.33333333333331</ele><time>2026-04-25T10:22:41Z</time></trkpt><trkpt lat="39.580257910242615" lon="8.892813149945571"><ele>195.0</ele><time>2026-04-25T10:22:42Z</time></trkpt><trkpt lat="39.58018166415992" lon="8.892819710006844"><ele>194.66666666666669</ele><time>2026-04-25T10:22:43Z</time></trkpt><trkpt lat="39.580110440191646" lon="8.89282144190369"><ele>194.33333333333334</ele><time>2026-04-25T10:22:44Z</time></trkpt><trkpt lat="39.5800313179678" lon="8.89282072028561"><ele>194.0</ele><time>2026-04-25T10:22:45Z</time></trkpt><trkpt lat="39.579940325995594" lon="8.892822977396756"><ele>194.0</ele><time>2026-04-25T10:22:46Z</time></trkpt><trkpt lat="39.57983916930372" lon="8.892838311158407"><ele>194.0</ele><time>2026-04-25T10:22:47Z</time></trkpt><trkpt lat="39.579735036339756" lon="8.892858432546797"><ele>194.0</ele><time>2026-04-25T10:22:48Z</time></trkpt><trkpt lat="39.57962885888129" lon="8.892866884521505"><ele>194.0</ele><time>2026-04-25T10:22:49Z</time></trkpt><trkpt lat="39.57952082398337" lon="8.892870490327159"><ele>194.0</ele><time>2026-04-25T10:22:50Z</time></trkpt><trkpt lat="39.579403792392455" lon="8.89288469299287"><ele>194.25</ele><time>2026-04-25T10:22:51Z</time></trkpt><trkpt lat="39.57927938698829" lon="8.892903435790418"><ele>194.5</ele><time>2026-04-25T10:22:52Z</time></trkpt><trkpt lat="39.57915159878593" lon="8.892924399001133"><ele>194.75</ele><time>2026-04-25T10:22:53Z</time></trkpt><trkpt lat="39.57902138974191" lon="8.892956336459942"><ele>195.0</ele><time>2026-04-25T10:22:54Z</time></trkpt><trkpt lat="39.57889084494625" lon="8.892996759433414"><ele>195.0</ele><time>2026-04-25T10:22:55Z</time></trkpt><trkpt lat="39.57875825009226" lon="8.893040890532122"><ele>195.0</ele><time>2026-04-25T10:22:56Z</time></trkpt><trkpt lat="39.578624489842646" lon="8.893082082842687"><ele>195.0</ele><time>2026-04-25T10:22:57Z</time></trkpt><trkpt lat="39.578491453266615" lon="8.893121722939684"><ele>195.0</ele><time>2026-04-25T10:22:58Z</time></trkpt><trkpt lat="39.578361714254015" lon="8.893162448641732"><ele>194.5</ele><time>2026-04-25T10:22:59Z</time></trkpt><trkpt lat="39.578237948982576" lon="8.893200077327611"><ele>194.0</ele><time>2026-04-25T10:23:00Z</time></trkpt><trkpt lat="39.57811721621108" lon="8.893231784789258"><ele>193.5</ele><time>2026-04-25T10:23:01Z</time></trkpt><trkpt lat="39.577996767480116" lon="8.893265025058994"><ele>193.0</ele><time>2026-04-25T10:23:02Z</time></trkpt><trkpt lat="39.57787713887988" lon="8.893303036314451"><ele>191.5</ele><time>2026-04-25T10:23:03Z</time></trkpt><trkpt lat="39.57775074401908" lon="8.893321449136716"><ele>190.0</ele><time>2026-04-25T10:23:04Z</time></trkpt><trkpt lat="39.57762329487474" lon="8.89336152485835"><ele>188.5</ele><time>2026-04-25T10:23:05Z</time></trkpt><trkpt lat="39.57749924574129" lon="8.893423136414922"><ele>187.0</ele><time>2026-04-25T10:23:06Z</time></trkpt><trkpt lat="39.57736884130797" lon="8.893453232358354"><ele>187.0</ele><time>2026-04-25T10:23:07Z</time></trkpt><trkpt lat="39.5772414332977" lon="8.893503449276263"><ele>187.0</ele><time>2026-04-25T10:23:08Z</time></trkpt><trkpt lat="39.57711056443182" lon="8.893550286223734"><ele>187.0</ele><time>2026-04-25T10:23:09Z</time></trkpt><trkpt lat="39.5769805827727" lon="8.89360356773722"><ele>187.0</ele><time>2026-04-25T10:23:10Z</time></trkpt><trkpt lat="39.57685312634197" lon="8.893672589401229"><ele>184.75</ele><time>2026-04-25T10:23:11Z</time></trkpt><trkpt lat="39.5767241867271" lon="8.893745871301167"><ele>182.5</ele><time>2026-04-25T10:23:12Z</time></trkpt><trkpt lat="39.57659449189167" lon="8.893808330057993"><ele>180.25</ele><time>2026-04-25T10:23:13Z</time></trkpt><trkpt lat="39.57646927520135" lon="8.893886904240563"><ele>178.0</ele><time>2026-04-25T10:23:14Z</time></trkpt><trkpt lat="39.57634370109772" lon="8.893954534192268"><ele>178.0</ele><time>2026-04-25T10:23:15Z</time></trkpt><trkpt lat="39.57622076508087" lon="8.894022733346965"><ele>178.0</ele><time>2026-04-25T10:23:16Z</time></trkpt><trkpt lat="39.57610072292259" lon="8.894096560135447"><ele>178.0</ele><time>2026-04-25T10:23:17Z</time></trkpt><trkpt lat="39.575981162998964" lon="8.894161265002909"><ele>178.0</ele><time>2026-04-25T10:23:18Z</time></trkpt><trkpt lat="39.575866725198495" lon="8.894213388549668"><ele>177.25</ele><time>2026-04-25T10:23:19Z</time></trkpt><trkpt lat="39.575752283019085" lon="8.894235208376163"><ele>176.5</ele><time>2026-04-25T10:23:20Z</time></trkpt><trkpt lat="39.575639153444975" lon="8.8942276131716"><ele>175.75</ele><time>2026-04-25T10:23:21Z</time></trkpt><trkpt lat="39.57551987163195" lon="8.894196737669862"><ele>175.0</ele><time>2026-04-25T10:23:22Z</time></trkpt><trkpt lat="39.57539956809425" lon="8.894160296512336"><ele>175.0</ele><time>2026-04-25T10:23:23Z</time></trkpt><trkpt lat="39.57529016395764" lon="8.894091069554985"><ele>175.0</ele><time>2026-04-25T10:23:24Z</time></trkpt><trkpt lat="39.57518641233414" lon="8.894027869118847"><ele>175.0</ele><time>2026-04-25T10:23:25Z</time></trkpt><trkpt lat="39.57507974226223" lon="8.893957836603178"><ele>175.0</ele><time>2026-04-25T10:23:26Z</time></trkpt><trkpt lat="39.57496597167638" lon="8.893883502239067"><ele>175.0</ele><time>2026-04-25T10:23:27Z</time></trkpt><trkpt lat="39.57484180595888" lon="8.893823918107946"><ele>175.0</ele><time>2026-04-25T10:23:28Z</time></trkpt><trkpt lat="39.57471827056935" lon="8.893744721255926"><ele>175.0</ele><time>2026-04-25T10:23:29Z</time></trkpt><trkpt lat="39.57458608739656" lon="8.893675366963471"><ele>175.0</ele><time>2026-04-25T10:23:30Z</time></trkpt><trkpt lat="39.574450411343456" lon="8.893608591080772"><ele>173.75</ele><time>2026-04-25T10:23:31Z</time></trkpt><trkpt lat="39.574314436567306" lon="8.8935408715465"><ele>172.5</ele><time>2026-04-25T10:23:32Z</time></trkpt><trkpt lat="39.574182357793106" lon="8.893465562807124"><ele>171.25</ele><time>2026-04-25T10:23:33Z</time></trkpt><trkpt lat="39.57405306124477" lon="8.893382425426154"><ele>170.0</ele><time>2026-04-25T10:23:34Z</time></trkpt><trkpt lat="39.57391284004095" lon="8.89332724587937"><ele>170.0</ele><time>2026-04-25T10:23:35Z</time></trkpt><trkpt lat="39.57377881435671" lon="8.893256615277718"><ele>170.0</ele><time>2026-04-25T10:23:36Z</time></trkpt><trkpt lat="39.57364544964607" lon="8.893185559459699"><ele>170.0</ele><time>2026-04-25T10:23:37Z</time></trkpt><trkpt lat="39.57351881092051" lon="8.893122199536824"><ele>170.0</ele><time>2026-04-25T10:23:38Z</time></trkpt><trkpt lat="39.57338924012863" lon="8.893079300163286"><ele>170.25</ele><time>2026-04-25T10:23:39Z</time></trkpt><trkpt lat="39.57326110015011" lon="8.893062638277952"><ele>170.5</ele><time>2026-04-25T10:23:40Z</time></trkpt><trkpt lat="39.5731393389449" lon="8.893049770509608"><ele>170.75</ele><time>2026-04-25T10:23:41Z</time></trkpt><trkpt lat="39.57301665473247" lon="8.893033140200536"><ele>171.0</ele><time>2026-04-25T10:23:42Z</time></trkpt><trkpt lat="39.57288987603924" lon="8.892999497685068"><ele>170.5</ele><time>2026-04-25T10:23:43Z</time></trkpt><trkpt lat="39.57275605635293" lon="8.892991464077072"><ele>170.0</ele><time>2026-04-25T10:23:44Z</time></trkpt><trkpt lat="39.572617287821096" lon="8.89297810071089"><ele>169.5</ele><time>2026-04-25T10:23:45Z</time></trkpt><trkpt lat="39.57247523394768" lon="8.892993898982063"><ele>169.0</ele><time>2026-04-25T10:23:46Z</time></trkpt><trkpt lat="39.57234104280315" lon="8.89301395550528"><ele>169.0</ele><time>2026-04-25T10:23:47Z</time></trkpt><trkpt lat="39.572211044960646" lon="8.893015433386239"><ele>169.0</ele><time>2026-04-25T10:23:48Z</time></trkpt><trkpt lat="39.57209640101837" lon="8.89305896219692"><ele>169.0</ele><time>2026-04-25T10:23:49Z</time></trkpt><trkpt lat="39.57198759288544" lon="8.893080382997494"><ele>169.0</ele><time>2026-04-25T10:23:50Z</time></trkpt><trkpt lat="39.57188030052634" lon="8.893100231568136"><ele>168.0</ele><time>2026-04-25T10:23:51Z</time></trkpt><trkpt lat="39.57177924327541" lon="8.893124623237108"><ele>167.0</ele><time>2026-04-25T10:23:52Z</time></trkpt><trkpt lat="39.571691005808674" lon="8.893150010458271"><ele>166.0</ele><time>2026-04-25T10:23:53Z</time></trkpt><trkpt lat="39.57160320209666" lon="8.893150097791061"><ele>165.0</ele><time>2026-04-25T10:23:54Z</time></trkpt><trkpt lat="39.57151801682281" lon="8.893176203048915"><ele>164.0</ele><time>2026-04-25T10:23:55Z</time></trkpt><trkpt lat="39.57141662624653" lon="8.893226227736209"><ele>164.0</ele><time>2026-04-25T10:23:56Z</time></trkpt><trkpt lat="39.571311780870815" lon="8.89329278878011"><ele>164.0</ele><time>2026-04-25T10:23:57Z</time></trkpt><trkpt lat="39.57120255893649" lon="8.893366231739476"><ele>164.0</ele><time>2026-04-25T10:23:58Z</time></trkpt><trkpt lat="39.57108400037385" lon="8.893445952813012"><ele>164.0</ele><time>2026-04-25T10:23:59Z</time></trkpt><trkpt lat="39.57096603740357" lon="8.89354662218515"><ele>164.0</ele><time>2026-04-25T10:24:00Z</time></trkpt><trkpt lat="39.570833914250606" lon="8.893631726459644"><ele>164.0</ele><time>2026-04-25T10:24:01Z</time></trkpt><trkpt lat="39.570701916452656" lon="8.893720012251428"><ele>164.0</ele><time>2026-04-25T10:24:02Z</time></trkpt><trkpt lat="39.570574739965686" lon="8.893805590657532"><ele>164.0</ele><time>2026-04-25T10:24:03Z</time></trkpt><trkpt lat="39.570448927737644" lon="8.893888389501768"><ele>163.25</ele><time>2026-04-25T10:24:04Z</time></trkpt><trkpt lat="39.57032566162262" lon="8.89397049842852"><ele>162.5</ele><time>2026-04-25T10:24:05Z</time></trkpt><trkpt lat="39.57020416949115" lon="8.894052815037668"><ele>161.75</ele><time>2026-04-25T10:24:06Z</time></trkpt><trkpt lat="39.570088436455805" lon="8.894130606599067"><ele>161.0</ele><time>2026-04-25T10:24:07Z</time></trkpt><trkpt lat="39.5699768907415" lon="8.894204630264845"><ele>162.0</ele><time>2026-04-25T10:24:08Z</time></trkpt><trkpt lat="39.569865841388065" lon="8.89427188019136"><ele>163.0</ele><time>2026-04-25T10:24:09Z</time></trkpt><trkpt lat="39.56975505090205" lon="8.894335129729667"><ele>164.0</ele><time>2026-04-25T10:24:10Z</time></trkpt><trkpt lat="39.56964275467151" lon="8.89440006935717"><ele>165.0</ele><time>2026-04-25T10:24:11Z</time></trkpt><trkpt lat="39.569527941616506" lon="8.894468812208117"><ele>163.5</ele><time>2026-04-25T10:24:12Z</time></trkpt><trkpt lat="39.569410516000126" lon="8.89453898291686"><ele>162.0</ele><time>2026-04-25T10:24:13Z</time></trkpt><trkpt lat="39.56929309155871" lon="8.894604884544824"><ele>160.5</ele><time>2026-04-25T10:24:14Z</time></trkpt><trkpt lat="39.56917512071697" lon="8.894664157150636"><ele>159.0</ele><time>2026-04-25T10:24:15Z</time></trkpt><trkpt lat="39.569056040555765" lon="8.894714970772112"><ele>159.0</ele><time>2026-04-25T10:24:16Z</time></trkpt><trkpt lat="39.56894362408612" lon="8.894759611358475"><ele>159.0</ele><time>2026-04-25T10:24:17Z</time></trkpt><trkpt lat="39.56883811198356" lon="8.89479996049128"><ele>159.0</ele><time>2026-04-25T10:24:18Z</time></trkpt><trkpt lat="39.568736142768685" lon="8.894809528607217"><ele>159.0</ele><time>2026-04-25T10:24:19Z</time></trkpt><trkpt lat="39.56864276345804" lon="8.894835301949925"><ele>159.0</ele><time>2026-04-25T10:24:20Z</time></trkpt><trkpt lat="39.568553339320815" lon="8.894857898321174"><ele>158.66666666666666</ele><time>2026-04-25T10:24:21Z</time></trkpt><trkpt lat="39.56846978732934" lon="8.894897869162538"><ele>158.33333333333334</ele><time>2026-04-25T10:24:22Z</time></trkpt><trkpt lat="39.568383401893136" lon="8.894921133395792"><ele>158.0</ele><time>2026-04-25T10:24:23Z</time></trkpt><trkpt lat="39.5682985696784" lon="8.894921910145928"><ele>157.66666666666669</ele><time>2026-04-25T10:24:24Z</time></trkpt><trkpt lat="39.56821179163941" lon="8.89494053841191"><ele>157.33333333333334</ele><time>2026-04-25T10:24:25Z</time></trkpt><trkpt lat="39.56812388172039" lon="8.894953314996615"><ele>157.0</ele><time>2026-04-25T10:24:26Z</time></trkpt><trkpt lat="39.56803040848166" lon="8.894965055622155"><ele>157.0</ele><time>2026-04-25T10:24:27Z</time></trkpt><trkpt lat="39.567941759624375" lon="8.894979039034311"><ele>157.0</ele><time>2026-04-25T10:24:28Z</time></trkpt><trkpt lat="39.56785427799665" lon="8.894997551125732"><ele>157.0</ele><time>2026-04-25T10:24:29Z</time></trkpt><trkpt lat="39.567766812405516" lon="8.895018553415527"><ele>157.0</ele><time>2026-04-25T10:24:30Z</time></trkpt><trkpt lat="39.56768362779952" lon="8.895040246876928"><ele>157.0</ele><time>2026-04-25T10:24:31Z</time></trkpt><trkpt lat="39.56759930647315" lon="8.895077855560427"><ele>157.0</ele><time>2026-04-25T10:24:32Z</time></trkpt><trkpt lat="39.56750039388746" lon="8.895095837313086"><ele>156.4</ele><time>2026-04-25T10:24:33Z</time></trkpt><trkpt lat="39.567402330429296" lon="8.895121249060312"><ele>155.79999999999998</ele><time>2026-04-25T10:24:34Z</time></trkpt><trkpt lat="39.56730199978657" lon="8.895149803135254"><ele>155.2</ele><time>2026-04-25T10:24:35Z</time></trkpt><trkpt lat="39.56719978615517" lon="8.895174185165798"><ele>154.6</ele><time>2026-04-25T10:24:36Z</time></trkpt><trkpt lat="39.56710101199738" lon="8.89519723507443"><ele>154.0</ele><time>2026-04-25T10:24:37Z</time></trkpt><trkpt lat="39.567000664002926" lon="8.895227577540293"><ele>153.2</ele><time>2026-04-25T10:24:38Z</time></trkpt><trkpt lat="39.5668990491421" lon="8.895264386573697"><ele>152.4</ele><time>2026-04-25T10:24:39Z</time></trkpt><trkpt lat="39.56679721849458" lon="8.895300737468187"><ele>151.6</ele><time>2026-04-25T10:24:40Z</time></trkpt><trkpt lat="39.5666935241213" lon="8.895338896551378"><ele>150.8</ele><time>2026-04-25T10:24:41Z</time></trkpt><trkpt lat="39.566592497244805" lon="8.895386260281306"><ele>150.0</ele><time>2026-04-25T10:24:42Z</time></trkpt><trkpt lat="39.56649881865244" lon="8.895437604001197"><ele>150.0</ele><time>2026-04-25T10:24:43Z</time></trkpt><trkpt lat="39.56640444519441" lon="8.895487623183143"><ele>150.0</ele><time>2026-04-25T10:24:44Z</time></trkpt><trkpt lat="39.566313426601376" lon="8.895534937230675"><ele>150.0</ele><time>2026-04-25T10:24:45Z</time></trkpt><trkpt lat="39.56622267636939" lon="8.895579480595677"><ele>150.0</ele><time>2026-04-25T10:24:46Z</time></trkpt><trkpt lat="39.56613850999778" lon="8.89563089728612"><ele>150.0</ele><time>2026-04-25T10:24:47Z</time></trkpt><trkpt lat="39.566057427884445" lon="8.895683585708374"><ele>149.6</ele><time>2026-04-25T10:24:48Z</time></trkpt><trkpt lat="39.56597590417251" lon="8.895735560125846"><ele>149.2</ele><time>2026-04-25T10:24:49Z</time></trkpt><trkpt lat="39.56589590898842" lon="8.895790852187526"><ele>148.8</ele><time>2026-04-25T10:24:50Z</time></trkpt><trkpt lat="39.565813630271705" lon="8.895845395860759"><ele>148.4</ele><time>2026-04-25T10:24:51Z</time></trkpt><trkpt lat="39.56573118002769" lon="8.895896217811108"><ele>148.0</ele><time>2026-04-25T10:24:52Z</time></trkpt><trkpt lat="39.56564798490213" lon="8.895942543793145"><ele>147.66666666666669</ele><time>2026-04-25T10:24:53Z</time></trkpt><trkpt lat="39.56556885733428" lon="8.895993215055535"><ele>147.33333333333334</ele><time>2026-04-25T10:24:54Z</time></trkpt><trkpt lat="39.565494663585795" lon="8.896044682057033"><ele>147.0</ele><time>2026-04-25T10:24:55Z</time></trkpt><trkpt lat="39.56542602261554" lon="8.896099339659475"><ele>146.66666666666666</ele><time>2026-04-25T10:24:56Z</time></trkpt><trkpt lat="39.56536315701099" lon="8.896126656387766"><ele>146.33333333333331</ele><time>2026-04-25T10:24:57Z</time></trkpt><trkpt lat="39.565305527269466" lon="8.896168911715913"><ele>146.0</ele><time>2026-04-25T10:24:58Z</time></trkpt><trkpt lat="39.565249699415496" lon="8.896212932803092"><ele>146.0</ele><time>2026-04-25T10:24:59Z</time></trkpt><trkpt lat="39.56515174039865" lon="8.896301241449333"><ele>146.0</ele><time>2026-04-25T10:25:01Z</time></trkpt><trkpt lat="39.56509983824081" lon="8.896355937638889"><ele>146.0</ele><time>2026-04-25T10:25:02Z</time></trkpt><trkpt lat="39.565052376115545" lon="8.896425057737035"><ele>146.0</ele><time>2026-04-25T10:25:03Z</time></trkpt><trkpt lat="39.56499450054394" lon="8.89648442874243"><ele>146.0</ele><time>2026-04-25T10:25:04Z</time></trkpt><trkpt lat="39.564938836616555" lon="8.896547600847798"><ele>146.0</ele><time>2026-04-25T10:25:05Z</time></trkpt><trkpt lat="39.56488176556472" lon="8.896614203417498"><ele>146.0</ele><time>2026-04-25T10:25:06Z</time></trkpt><trkpt lat="39.56482533154148" lon="8.896677558955318"><ele>146.0</ele><time>2026-04-25T10:25:07Z</time></trkpt><trkpt lat="39.564771971030666" lon="8.896741015914074"><ele>146.0</ele><time>2026-04-25T10:25:08Z</time></trkpt><trkpt lat="39.56471890392764" lon="8.896803757977825"><ele>146.0</ele><time>2026-04-25T10:25:09Z</time></trkpt><trkpt lat="39.564666386797406" lon="8.896866045435138"><ele>146.0</ele><time>2026-04-25T10:25:10Z</time></trkpt><trkpt lat="39.56461284585507" lon="8.896929248416782"><ele>146.0</ele><time>2026-04-25T10:25:11Z</time></trkpt><trkpt lat="39.56455353137189" lon="8.896984889555485"><ele>146.0</ele><time>2026-04-25T10:25:12Z</time></trkpt><trkpt lat="39.564495301970034" lon="8.897043095747673"><ele>146.0</ele><time>2026-04-25T10:25:13Z</time></trkpt><trkpt lat="39.56444266921092" lon="8.897103192242582"><ele>146.0</ele><time>2026-04-25T10:25:14Z</time></trkpt><trkpt lat="39.56438752860357" lon="8.89716161895994"><ele>146.0</ele><time>2026-04-25T10:25:15Z</time></trkpt><trkpt lat="39.564333337948774" lon="8.897223407258322"><ele>146.0</ele><time>2026-04-25T10:25:16Z</time></trkpt><trkpt lat="39.56427646495508" lon="8.89728107759312"><ele>146.0</ele><time>2026-04-25T10:25:17Z</time></trkpt><trkpt lat="39.56420673909108" lon="8.897335271593345"><ele>146.0</ele><time>2026-04-25T10:25:18Z</time></trkpt><trkpt lat="39.56414221381877" lon="8.897387077621358"><ele>146.0</ele><time>2026-04-25T10:25:19Z</time></trkpt><trkpt lat="39.564081239219746" lon="8.897441397317316"><ele>146.0</ele><time>2026-04-25T10:25:20Z</time></trkpt><trkpt lat="39.56402258293037" lon="8.897498623954545"><ele>146.0</ele><time>2026-04-25T10:25:21Z</time></trkpt><trkpt lat="39.56396624227503" lon="8.897548861569907"><ele>146.0</ele><time>2026-04-25T10:25:22Z</time></trkpt><trkpt lat="39.56386723966109" lon="8.897621917542756"><ele>146.0</ele><time>2026-04-25T10:25:24Z</time></trkpt><trkpt lat="39.56378541126517" lon="8.89765117326089"><ele>146.0</ele><time>2026-04-25T10:25:26Z</time></trkpt><trkpt lat="39.563695806190836" lon="8.897659273138798"><ele>146.0</ele><time>2026-04-25T10:25:29Z</time></trkpt><trkpt lat="39.563638308956904" lon="8.897750736868668"><ele>146.0</ele><time>2026-04-25T10:25:31Z</time></trkpt><trkpt lat="39.56362444337526" lon="8.89789147792196"><ele>146.0</ele><time>2026-04-25T10:25:33Z</time></trkpt><trkpt lat="39.563612109016304" lon="8.897974850510357"><ele>146.0</ele><time>2026-04-25T10:25:34Z</time></trkpt><trkpt lat="39.563591148063736" lon="8.898055906025908"><ele>146.0</ele><time>2026-04-25T10:25:35Z</time></trkpt><trkpt lat="39.56357471831138" lon="8.89814828851639"><ele>146.0</ele><time>2026-04-25T10:25:36Z</time></trkpt><trkpt lat="39.563556503910476" lon="8.898248300300157"><ele>146.0</ele><time>2026-04-25T10:25:37Z</time></trkpt><trkpt lat="39.5635245147438" lon="8.898347447157635"><ele>145.66666666666666</ele><time>2026-04-25T10:25:38Z</time></trkpt><trkpt lat="39.56349206516772" lon="8.898436977048776"><ele>145.33333333333331</ele><time>2026-04-25T10:25:39Z</time></trkpt><trkpt lat="39.563456771013314" lon="8.898529815511335"><ele>145.0</ele><time>2026-04-25T10:25:40Z</time></trkpt><trkpt lat="39.56342514459816" lon="8.898620313616439"><ele>144.66666666666666</ele><time>2026-04-25T10:25:41Z</time></trkpt><trkpt lat="39.56339657106951" lon="8.898710692340417"><ele>144.33333333333334</ele><time>2026-04-25T10:25:42Z</time></trkpt><trkpt lat="39.56336558857959" lon="8.89879746197952"><ele>144.0</ele><time>2026-04-25T10:25:43Z</time></trkpt><trkpt lat="39.56333194448296" lon="8.898880003283269"><ele>144.00000000000003</ele><time>2026-04-25T10:25:44Z</time></trkpt><trkpt lat="39.56330115213033" lon="8.898962234303442"><ele>144.0</ele><time>2026-04-25T10:25:45Z</time></trkpt><trkpt lat="39.56326694520144" lon="8.899045727886643"><ele>144.0</ele><time>2026-04-25T10:25:46Z</time></trkpt><trkpt lat="39.56323148427696" lon="8.89913025372764"><ele>144.0</ele><time>2026-04-25T10:25:47Z</time></trkpt><trkpt lat="39.56319727533225" lon="8.899214136877683"><ele>144.0</ele><time>2026-04-25T10:25:48Z</time></trkpt><trkpt lat="39.563160717615965" lon="8.899298040658014"><ele>144.00000000000003</ele><time>2026-04-25T10:25:49Z</time></trkpt><trkpt lat="39.5631161589979" lon="8.899380602422507"><ele>144.0</ele><time>2026-04-25T10:25:50Z</time></trkpt><trkpt lat="39.563061232026946" lon="8.899454572249454"><ele>143.83333333333334</ele><time>2026-04-25T10:25:51Z</time></trkpt><trkpt lat="39.56299452001007" lon="8.89950369451695"><ele>143.66666666666666</ele><time>2026-04-25T10:25:52Z</time></trkpt><trkpt lat="39.56291762380839" lon="8.89953293055108"><ele>143.5</ele><time>2026-04-25T10:25:53Z</time></trkpt><trkpt lat="39.56283963928649" lon="8.899554878354394"><ele>143.33333333333331</ele><time>2026-04-25T10:25:54Z</time></trkpt><trkpt lat="39.56275920480326" lon="8.899569102157779"><ele>143.16666666666666</ele><time>2026-04-25T10:25:55Z</time></trkpt><trkpt lat="39.562681708165975" lon="8.89955380052938"><ele>143.0</ele><time>2026-04-25T10:25:56Z</time></trkpt><trkpt lat="39.56260190834353" lon="8.899530309713029"><ele>142.33333333333331</ele><time>2026-04-25T10:25:57Z</time></trkpt><trkpt lat="39.562525119167134" lon="8.89949893562607"><ele>141.66666666666666</ele><time>2026-04-25T10:25:58Z</time></trkpt><trkpt lat="39.56245152493693" lon="8.899464907737846"><ele>141.0</ele><time>2026-04-25T10:25:59Z</time></trkpt><trkpt lat="39.56237720672031" lon="8.899430220714597"><ele>140.33333333333334</ele><time>2026-04-25T10:26:00Z</time></trkpt><trkpt lat="39.56230430255253" lon="8.899392756801243"><ele>139.66666666666669</ele><time>2026-04-25T10:26:01Z</time></trkpt><trkpt lat="39.56222951169456" lon="8.899357926866774"><ele>139.0</ele><time>2026-04-25T10:26:02Z</time></trkpt><trkpt lat="39.56215621535144" lon="8.899328597923711"><ele>139.0</ele><time>2026-04-25T10:26:03Z</time></trkpt><trkpt lat="39.56208358196232" lon="8.899301165274501"><ele>139.0</ele><time>2026-04-25T10:26:04Z</time></trkpt><trkpt lat="39.5620150871147" lon="8.899273371776372"><ele>139.0</ele><time>2026-04-25T10:26:05Z</time></trkpt><trkpt lat="39.561951097568766" lon="8.899246363400904"><ele>139.0</ele><time>2026-04-25T10:26:06Z</time></trkpt><trkpt lat="39.56189034708033" lon="8.899223673313267"><ele>139.0</ele><time>2026-04-25T10:26:07Z</time></trkpt><trkpt lat="39.56177919160324" lon="8.899185690404789"><ele>139.0</ele><time>2026-04-25T10:26:09Z</time></trkpt><trkpt lat="39.561697629226146" lon="8.89915616711354"><ele>138.5</ele><time>2026-04-25T10:26:11Z</time></trkpt><trkpt lat="39.56160908103327" lon="8.899118908410273"><ele>138.0</ele><time>2026-04-25T10:26:13Z</time></trkpt><trkpt lat="39.561500761715976" lon="8.899047706527895"><ele>137.5</ele><time>2026-04-25T10:26:15Z</time></trkpt><trkpt lat="39.56144218616606" lon="8.899007805101045"><ele>137.0</ele><time>2026-04-25T10:26:16Z</time></trkpt><trkpt lat="39.56138111940727" lon="8.898968783202262"><ele>136.5</ele><time>2026-04-25T10:26:17Z</time></trkpt><trkpt lat="39.56131506323473" lon="8.898928735828443"><ele>136.0</ele><time>2026-04-25T10:26:18Z</time></trkpt><trkpt lat="39.561245379454625" lon="8.898884349248096"><ele>135.16666666666669</ele><time>2026-04-25T10:26:19Z</time></trkpt><trkpt lat="39.56117537492538" lon="8.898841592248324"><ele>134.33333333333334</ele><time>2026-04-25T10:26:20Z</time></trkpt><trkpt lat="39.56110124932799" lon="8.898792364223214"><ele>133.5</ele><time>2026-04-25T10:26:21Z</time></trkpt><trkpt lat="39.561028463754575" lon="8.898737262960541"><ele>132.66666666666666</ele><time>2026-04-25T10:26:22Z</time></trkpt><trkpt lat="39.56095240348841" lon="8.898677542265185"><ele>131.83333333333331</ele><time>2026-04-25T10:26:23Z</time></trkpt><trkpt lat="39.5608823288837" lon="8.898612201052845"><ele>131.0</ele><time>2026-04-25T10:26:24Z</time></trkpt><trkpt lat="39.560821492468" lon="8.898549067462625"><ele>131.0</ele><time>2026-04-25T10:26:25Z</time></trkpt><trkpt lat="39.56076175611597" lon="8.898476633889501"><ele>131.0</ele><time>2026-04-25T10:26:26Z</time></trkpt><trkpt lat="39.560707847316415" lon="8.898405502838406"><ele>131.0</ele><time>2026-04-25T10:26:27Z</time></trkpt><trkpt lat="39.560652697378956" lon="8.89833099663171"><ele>131.0</ele><time>2026-04-25T10:26:28Z</time></trkpt><trkpt lat="39.56059888393495" lon="8.898256110283908"><ele>131.0</ele><time>2026-04-25T10:26:29Z</time></trkpt><trkpt lat="39.5605497960255" lon="8.8981721910928"><ele>131.0</ele><time>2026-04-25T10:26:30Z</time></trkpt><trkpt lat="39.560522244510196" lon="8.898083948926187"><ele>130.85714285714286</ele><time>2026-04-25T10:26:31Z</time></trkpt><trkpt lat="39.560492816580485" lon="8.898005866032783"><ele>130.71428571428572</ele><time>2026-04-25T10:26:32Z</time></trkpt><trkpt lat="39.560471806053904" lon="8.897924756090195"><ele>130.57142857142858</ele><time>2026-04-25T10:26:33Z</time></trkpt><trkpt lat="39.56044446507411" lon="8.897848269991298"><ele>130.42857142857144</ele><time>2026-04-25T10:26:34Z</time></trkpt><trkpt lat="39.56041377158912" lon="8.897770775778682"><ele>130.28571428571428</ele><time>2026-04-25T10:26:35Z</time></trkpt><trkpt lat="39.56037554644607" lon="8.897685179756913"><ele>130.14285714285717</ele><time>2026-04-25T10:26:36Z</time></trkpt><trkpt lat="39.560340809444874" lon="8.897590762854367"><ele>130.0</ele><time>2026-04-25T10:26:37Z</time></trkpt><trkpt lat="39.560313426828145" lon="8.897495593154629"><ele>127.0</ele><time>2026-04-25T10:26:38Z</time></trkpt><trkpt lat="39.56029301139197" lon="8.897412660497782"><ele>127.0</ele><time>2026-04-25T10:26:39Z</time></trkpt><trkpt lat="39.56026807598817" lon="8.897337638946002"><ele>127.0</ele><time>2026-04-25T10:26:40Z</time></trkpt><trkpt lat="39.560249308221564" lon="8.897254658563876"><ele>127.0</ele><time>2026-04-25T10:26:42Z</time></trkpt><trkpt lat="39.56031482774774" lon="8.897256318206187"><ele>127.0</ele><time>2026-04-25T10:30:37Z</time></trkpt><trkpt lat="39.560281469400536" lon="8.897373893429803"><ele>127.0</ele><time>2026-04-25T10:34:24Z</time></trkpt></trkseg></trk></gpx>